<?xml version='1.0' encoding='UTF-8'?><gpx version="1.1" creator="JPX - https://github.com/jenetics/jpx" xmlns="http://www.topografix.com/GPX/1/1"><trk><trkseg><trkpt lat="44.74758901789613" lon="7.855988336126121"><ele>349.0</ele><time>2026-04-11T07:21:15.85Z</time></trkpt><trkpt lat="44.74765746503764" lon="7.85592690777118"><ele>349.0</ele><time>2026-04-11T07:21:16.85Z</time></trkpt><trkpt lat="44.747761963719164" lon="7.8558848545165345"><ele>349.0</ele><time>2026-04-11T07:21:18.85Z</time></trkpt><trkpt lat="44.747823023563946" lon="7.855839940664938"><ele>349.0</ele><time>2026-04-11T07:21:19.85Z</time></trkpt><trkpt lat="44.747885944618496" lon="7.855800196933361"><ele>349.0</ele><time>2026-04-11T07:21:20.85Z</time></trkpt><trkpt lat="44.74795815722592" lon="7.855745784722424"><ele>349.0</ele><time>2026-04-11T07:21:22.001Z</time></trkpt><trkpt lat="44.748018550183524" lon="7.855697265402904"><ele>348.5</ele><time>2026-04-11T07:21:23.001Z</time></trkpt><trkpt lat="44.748076683811206" lon="7.855651659063123"><ele>348.0</ele><time>2026-04-11T07:21:24.001Z</time></trkpt><trkpt lat="44.74813281633621" lon="7.855601001537453"><ele>347.5</ele><time>2026-04-11T07:21:25.001Z</time></trkpt><trkpt lat="44.748185438290136" lon="7.855550533142617"><ele>347.0</ele><time>2026-04-11T07:21:26.001Z</time></trkpt><trkpt lat="44.74823991373646" lon="7.855502195021726"><ele>346.5</ele><time>2026-04-11T07:21:27.001Z</time></trkpt><trkpt lat="44.74834380399109" lon="7.85539910294643"><ele>346.0</ele><time>2026-04-11T07:21:29.001Z</time></trkpt><trkpt lat="44.74844371745847" lon="7.855295393599461"><ele>346.0</ele><time>2026-04-11T07:21:31.001Z</time></trkpt><trkpt lat="44.74852631212552" lon="7.855165141627463"><ele>346.0</ele><time>2026-04-11T07:21:33.001Z</time></trkpt><trkpt lat="44.74859918963109" lon="7.855027680708554"><ele>346.0</ele><time>2026-04-11T07:21:35.001Z</time></trkpt><trkpt lat="44.748669319546735" lon="7.854885486174151"><ele>346.0</ele><time>2026-04-11T07:21:37.001Z</time></trkpt><trkpt lat="44.74873680413953" lon="7.8547483263251285"><ele>345.5</ele><time>2026-04-11T07:21:39.001Z</time></trkpt><trkpt lat="44.74880911804662" lon="7.854618233381954"><ele>345.0</ele><time>2026-04-11T07:21:41Z</time></trkpt><trkpt lat="44.748893210267546" lon="7.854502521989448"><ele>344.5</ele><time>2026-04-11T07:21:43Z</time></trkpt><trkpt lat="44.74900246302217" lon="7.854427664578767"><ele>344.0</ele><time>2026-04-11T07:21:45Z</time></trkpt><trkpt lat="44.749092103139546" lon="7.854367127576548"><ele>344.0</ele><time>2026-04-11T07:21:47Z</time></trkpt><trkpt lat="44.74920138464416" lon="7.854308057864218"><ele>344.0</ele><time>2026-04-11T07:21:49Z</time></trkpt><trkpt lat="44.74930632089914" lon="7.854237951298275"><ele>344.0</ele><time>2026-04-11T07:21:51Z</time></trkpt><trkpt lat="44.74939815429411" lon="7.8541500543609315"><ele>344.0</ele><time>2026-04-11T07:21:53Z</time></trkpt><trkpt lat="44.749479446604816" lon="7.854091777661096"><ele>344.0</ele><time>2026-04-11T07:21:55Z</time></trkpt><trkpt lat="44.74958704742079" lon="7.854004334336114"><ele>343.6666666666667</ele><time>2026-04-11T07:21:57Z</time></trkpt><trkpt lat="44.74963513120777" lon="7.853928688368649"><ele>343.33333333333337</ele><time>2026-04-11T07:21:59Z</time></trkpt><trkpt lat="44.749704031692715" lon="7.853879957502201"><ele>343.0</ele><time>2026-04-11T07:22:02Z</time></trkpt><trkpt lat="44.74974982039897" lon="7.853816438527758"><ele>342.6666666666667</ele><time>2026-04-11T07:22:04Z</time></trkpt><trkpt lat="44.749793712039114" lon="7.853743351822"><ele>342.3333333333333</ele><time>2026-04-11T07:22:06Z</time></trkpt><trkpt lat="44.74986243791711" lon="7.853674325044069"><ele>342.0</ele><time>2026-04-11T07:22:08Z</time></trkpt><trkpt lat="44.749944018691195" lon="7.8536220149404565"><ele>342.0</ele><time>2026-04-11T07:22:10Z</time></trkpt><trkpt lat="44.750012314747316" lon="7.853547934980755"><ele>342.0</ele><time>2026-04-11T07:22:12Z</time></trkpt><trkpt lat="44.75008205000963" lon="7.853436535708583"><ele>342.0</ele><time>2026-04-11T07:22:14Z</time></trkpt><trkpt lat="44.750164538083034" lon="7.853339119204799"><ele>342.0</ele><time>2026-04-11T07:22:16Z</time></trkpt><trkpt lat="44.750235544309895" lon="7.853227171345723"><ele>342.0</ele><time>2026-04-11T07:22:18Z</time></trkpt><trkpt lat="44.750312381423335" lon="7.853120262231025"><ele>341.75</ele><time>2026-04-11T07:22:20Z</time></trkpt><trkpt lat="44.75039388088585" lon="7.853006273360246"><ele>341.5</ele><time>2026-04-11T07:22:22Z</time></trkpt><trkpt lat="44.750481958413765" lon="7.852889845071884"><ele>341.25</ele><time>2026-04-11T07:22:24Z</time></trkpt><trkpt lat="44.75054246861352" lon="7.852748608006427"><ele>341.0</ele><time>2026-04-11T07:22:26Z</time></trkpt><trkpt lat="44.75060389374326" lon="7.852605646109639"><ele>341.0</ele><time>2026-04-11T07:22:28Z</time></trkpt><trkpt lat="44.75067260065788" lon="7.8524789032748155"><ele>341.0</ele><time>2026-04-11T07:22:30Z</time></trkpt><trkpt lat="44.75073685880273" lon="7.852337021957091"><ele>341.0</ele><time>2026-04-11T07:22:32Z</time></trkpt><trkpt lat="44.750768829174355" lon="7.852252878312755"><ele>341.0</ele><time>2026-04-11T07:22:33Z</time></trkpt><trkpt lat="44.75080807818794" lon="7.8521820258159485"><ele>341.0</ele><time>2026-04-11T07:22:34Z</time></trkpt><trkpt lat="44.75083790788754" lon="7.852094859811043"><ele>341.0</ele><time>2026-04-11T07:22:35Z</time></trkpt><trkpt lat="44.75086694513791" lon="7.85201000949256"><ele>341.0</ele><time>2026-04-11T07:22:36Z</time></trkpt><trkpt lat="44.75092142174878" lon="7.851844263899517"><ele>341.0</ele><time>2026-04-11T07:22:38Z</time></trkpt><trkpt lat="44.75094968226601" lon="7.851760719647711"><ele>341.0</ele><time>2026-04-11T07:22:39Z</time></trkpt><trkpt lat="44.750978430732964" lon="7.851680761029959"><ele>341.0</ele><time>2026-04-11T07:22:40Z</time></trkpt><trkpt lat="44.751008409065506" lon="7.851601372324331"><ele>341.0</ele><time>2026-04-11T07:22:41Z</time></trkpt><trkpt lat="44.751067353466595" lon="7.851451789551044"><ele>341.0</ele><time>2026-04-11T07:22:43Z</time></trkpt><trkpt lat="44.75109995359107" lon="7.851371901864001"><ele>340.6</ele><time>2026-04-11T07:22:44Z</time></trkpt><trkpt lat="44.75116048012574" lon="7.851226063818138"><ele>340.20000000000005</ele><time>2026-04-11T07:22:46Z</time></trkpt><trkpt lat="44.75122382564199" lon="7.851086521263957"><ele>339.79999999999995</ele><time>2026-04-11T07:22:48Z</time></trkpt><trkpt lat="44.75125923581357" lon="7.85101275659574"><ele>339.4</ele><time>2026-04-11T07:22:49Z</time></trkpt><trkpt lat="44.75132333473679" lon="7.8508851613309485"><ele>339.0</ele><time>2026-04-11T07:22:51Z</time></trkpt><trkpt lat="44.75139164120246" lon="7.85075577320202"><ele>338.6</ele><time>2026-04-11T07:22:53Z</time></trkpt><trkpt lat="44.751461146887365" lon="7.850625950078957"><ele>338.2</ele><time>2026-04-11T07:22:55Z</time></trkpt><trkpt lat="44.75153061716524" lon="7.8505009036032325"><ele>337.8</ele><time>2026-04-11T07:22:57Z</time></trkpt><trkpt lat="44.75158892547626" lon="7.850368539427916"><ele>337.40000000000003</ele><time>2026-04-11T07:22:59Z</time></trkpt><trkpt lat="44.75166318568536" lon="7.8502586003226655"><ele>337.0</ele><time>2026-04-11T07:23:01Z</time></trkpt><trkpt lat="44.751725957388594" lon="7.8501379100182325"><ele>337.0</ele><time>2026-04-11T07:23:03Z</time></trkpt><trkpt lat="44.751788681986156" lon="7.850017310224103"><ele>337.0</ele><time>2026-04-11T07:23:05Z</time></trkpt><trkpt lat="44.75182253523823" lon="7.849918375739576"><ele>337.0</ele><time>2026-04-11T07:23:08Z</time></trkpt><trkpt lat="44.75188838860185" lon="7.849831459661644"><ele>337.0</ele><time>2026-04-11T07:23:09Z</time></trkpt><trkpt lat="44.75194901446629" lon="7.8497290763209975"><ele>337.0</ele><time>2026-04-11T07:23:10Z</time></trkpt><trkpt lat="44.75201193475544" lon="7.849623338914323"><ele>337.0</ele><time>2026-04-11T07:23:12Z</time></trkpt><trkpt lat="44.75206393036915" lon="7.849502097618398"><ele>337.0</ele><time>2026-04-11T07:23:14Z</time></trkpt><trkpt lat="44.75211406581566" lon="7.8494003068244895"><ele>337.0</ele><time>2026-04-11T07:23:16Z</time></trkpt><trkpt lat="44.75217503690862" lon="7.849251455360613"><ele>337.0</ele><time>2026-04-11T07:23:18Z</time></trkpt><trkpt lat="44.752216636022915" lon="7.849105119701022"><ele>337.0</ele><time>2026-04-11T07:23:20Z</time></trkpt><trkpt lat="44.75224852599498" lon="7.8490236914647005"><ele>336.6</ele><time>2026-04-11T07:23:21Z</time></trkpt><trkpt lat="44.752275169781726" lon="7.848938966823314"><ele>336.20000000000005</ele><time>2026-04-11T07:23:22Z</time></trkpt><trkpt lat="44.75230627617008" lon="7.8488593546558425"><ele>335.8</ele><time>2026-04-11T07:23:23Z</time></trkpt><trkpt lat="44.75235930650639" lon="7.848699523066392"><ele>335.4</ele><time>2026-04-11T07:23:25Z</time></trkpt><trkpt lat="44.7524166961266" lon="7.848553328355604"><ele>335.0</ele><time>2026-04-11T07:23:27Z</time></trkpt><trkpt lat="44.75247865084294" lon="7.848418345193411"><ele>334.85714285714283</ele><time>2026-04-11T07:23:29Z</time></trkpt><trkpt lat="44.75251066842336" lon="7.848336671806386"><ele>334.7142857142857</ele><time>2026-04-11T07:23:30Z</time></trkpt><trkpt lat="44.75254168284869" lon="7.848257557434279"><ele>334.57142857142856</ele><time>2026-04-11T07:23:31Z</time></trkpt><trkpt lat="44.75257393955711" lon="7.8481752741055795"><ele>334.42857142857144</ele><time>2026-04-11T07:23:32Z</time></trkpt><trkpt lat="44.75260682196422" lon="7.84809139466086"><ele>334.2857142857143</ele><time>2026-04-11T07:23:33Z</time></trkpt><trkpt lat="44.7526412223473" lon="7.848001123252228"><ele>334.1428571428571</ele><time>2026-04-11T07:23:34Z</time></trkpt><trkpt lat="44.75267301752173" lon="7.847914345375912"><ele>334.0</ele><time>2026-04-11T07:23:35Z</time></trkpt><trkpt lat="44.752706033481076" lon="7.847824235482772"><ele>334.0</ele><time>2026-04-11T07:23:36Z</time></trkpt><trkpt lat="44.752737984444" lon="7.847737168267323"><ele>334.0</ele><time>2026-04-11T07:23:37Z</time></trkpt><trkpt lat="44.75277308214083" lon="7.847643530490847"><ele>334.0</ele><time>2026-04-11T07:23:38Z</time></trkpt><trkpt lat="44.752806963786256" lon="7.847559013051284"><ele>334.0</ele><time>2026-04-11T07:23:39Z</time></trkpt><trkpt lat="44.75284568842605" lon="7.847471788488437"><ele>334.0</ele><time>2026-04-11T07:23:40Z</time></trkpt><trkpt lat="44.75288746352027" lon="7.847384394387508"><ele>334.0</ele><time>2026-04-11T07:23:41Z</time></trkpt><trkpt lat="44.75292791130947" lon="7.847301812273102"><ele>334.0</ele><time>2026-04-11T07:23:42Z</time></trkpt><trkpt lat="44.7529683401034" lon="7.8472192690148495"><ele>334.0</ele><time>2026-04-11T07:23:43Z</time></trkpt><trkpt lat="44.753008665552734" lon="7.847136936847688"><ele>334.0</ele><time>2026-04-11T07:23:44Z</time></trkpt><trkpt lat="44.75305103075729" lon="7.847064364559904"><ele>334.0</ele><time>2026-04-11T07:23:45Z</time></trkpt><trkpt lat="44.75309538060911" lon="7.846989435281835"><ele>334.0</ele><time>2026-04-11T07:23:46Z</time></trkpt><trkpt lat="44.75313837727146" lon="7.846916792631515"><ele>334.0</ele><time>2026-04-11T07:23:47Z</time></trkpt><trkpt lat="44.75316440157884" lon="7.8468285624136795"><ele>334.0</ele><time>2026-04-11T07:23:48Z</time></trkpt><trkpt lat="44.75320569708164" lon="7.8467548019727635"><ele>334.0</ele><time>2026-04-11T07:23:49Z</time></trkpt><trkpt lat="44.75323233061276" lon="7.8466692992194345"><ele>334.0</ele><time>2026-04-11T07:23:50Z</time></trkpt><trkpt lat="44.75324249593938" lon="7.846574333832859"><ele>334.0</ele><time>2026-04-11T07:23:51Z</time></trkpt><trkpt lat="44.753235535876854" lon="7.846480107123011"><ele>334.0</ele><time>2026-04-11T07:23:52Z</time></trkpt><trkpt lat="44.7532235580027" lon="7.846384959247863"><ele>334.0</ele><time>2026-04-11T07:23:53Z</time></trkpt><trkpt lat="44.75321863942179" lon="7.846295585417271"><ele>334.0</ele><time>2026-04-11T07:23:54Z</time></trkpt><trkpt lat="44.753217721256746" lon="7.846206572989395"><ele>334.0</ele><time>2026-04-11T07:23:55Z</time></trkpt><trkpt lat="44.75321855421092" lon="7.846113215798669"><ele>334.0</ele><time>2026-04-11T07:23:56Z</time></trkpt><trkpt lat="44.75321516888945" lon="7.846021830400058"><ele>334.0</ele><time>2026-04-11T07:23:57Z</time></trkpt><trkpt lat="44.75320468966045" lon="7.845852039246301"><ele>334.0</ele><time>2026-04-11T07:23:59Z</time></trkpt><trkpt lat="44.75321864676092" lon="7.8456857316800415"><ele>334.0</ele><time>2026-04-11T07:24:01Z</time></trkpt><trkpt lat="44.7532186467585" lon="7.845511542960802"><ele>334.0</ele><time>2026-04-11T07:24:03Z</time></trkpt><trkpt lat="44.753218646757844" lon="7.845422779700425"><ele>334.0</ele><time>2026-04-11T07:24:04Z</time></trkpt><trkpt lat="44.75321864675626" lon="7.845242239755021"><ele>333.8333333333333</ele><time>2026-04-11T07:24:06Z</time></trkpt><trkpt lat="44.753220477773944" lon="7.845058856067883"><ele>333.66666666666663</ele><time>2026-04-11T07:24:08Z</time></trkpt><trkpt lat="44.753221796427546" lon="7.84496668911482"><ele>333.5</ele><time>2026-04-11T07:24:09Z</time></trkpt><trkpt lat="44.753227209152975" lon="7.844800522785344"><ele>333.3333333333333</ele><time>2026-04-11T07:24:11Z</time></trkpt><trkpt lat="44.75323195657427" lon="7.84471120426005"><ele>333.1666666666667</ele><time>2026-04-11T07:24:12Z</time></trkpt><trkpt lat="44.7532382988775" lon="7.844619722095014"><ele>333.0</ele><time>2026-04-11T07:24:13Z</time></trkpt><trkpt lat="44.75326137180137" lon="7.844463099397603"><ele>333.0</ele><time>2026-04-11T07:24:15Z</time></trkpt><trkpt lat="44.7532945600507" lon="7.844299595613258"><ele>333.0</ele><time>2026-04-11T07:24:17Z</time></trkpt><trkpt lat="44.75331730410252" lon="7.844203300145197"><ele>333.0</ele><time>2026-04-11T07:24:18Z</time></trkpt><trkpt lat="44.753380644828844" lon="7.844069832148484"><ele>333.0</ele><time>2026-04-11T07:24:20Z</time></trkpt><trkpt lat="44.75344214255694" lon="7.8439099576938345"><ele>333.0</ele><time>2026-04-11T07:24:22Z</time></trkpt><trkpt lat="44.75347373308112" lon="7.843807016675695"><ele>333.0</ele><time>2026-04-11T07:24:23Z</time></trkpt><trkpt lat="44.75349238441552" lon="7.8437192222617815"><ele>333.0</ele><time>2026-04-11T07:24:24Z</time></trkpt><trkpt lat="44.75350992201795" lon="7.843624843268584"><ele>333.0</ele><time>2026-04-11T07:24:25Z</time></trkpt><trkpt lat="44.75351863982923" lon="7.843517327000721"><ele>333.0</ele><time>2026-04-11T07:24:26Z</time></trkpt><trkpt lat="44.75352776440423" lon="7.843414238312981"><ele>333.0</ele><time>2026-04-11T07:24:27Z</time></trkpt><trkpt lat="44.75353606021789" lon="7.8433135598160195"><ele>333.0</ele><time>2026-04-11T07:24:28Z</time></trkpt><trkpt lat="44.753539646763855" lon="7.84320542109738"><ele>333.0</ele><time>2026-04-11T07:24:29Z</time></trkpt><trkpt lat="44.753539646765056" lon="7.843105563344267"><ele>333.0</ele><time>2026-04-11T07:24:30Z</time></trkpt><trkpt lat="44.75354143391754" lon="7.843007813023492"><ele>333.0</ele><time>2026-04-11T07:24:31Z</time></trkpt><trkpt lat="44.75355849062179" lon="7.842840457503812"><ele>333.0</ele><time>2026-04-11T07:24:33Z</time></trkpt><trkpt lat="44.753595236451" lon="7.8426861774050245"><ele>333.0</ele><time>2026-04-11T07:24:35Z</time></trkpt><trkpt lat="44.75364527318502" lon="7.842524303167973"><ele>333.0</ele><time>2026-04-11T07:24:37Z</time></trkpt><trkpt lat="44.75370165285336" lon="7.842369165555277"><ele>332.6666666666667</ele><time>2026-04-11T07:24:39Z</time></trkpt><trkpt lat="44.75373921922875" lon="7.842277268146319"><ele>332.3333333333333</ele><time>2026-04-11T07:24:40Z</time></trkpt><trkpt lat="44.75377207105997" lon="7.842200115123425"><ele>332.0</ele><time>2026-04-11T07:24:41Z</time></trkpt><trkpt lat="44.75383633488532" lon="7.842065877780539"><ele>331.66666666666663</ele><time>2026-04-11T07:24:43Z</time></trkpt><trkpt lat="44.753874279851985" lon="7.841989470236834"><ele>331.3333333333333</ele><time>2026-04-11T07:24:44Z</time></trkpt><trkpt lat="44.75391407200678" lon="7.8419145851593255"><ele>331.0</ele><time>2026-04-11T07:24:45Z</time></trkpt><trkpt lat="44.75395509147053" lon="7.841838012251677"><ele>330.8333333333333</ele><time>2026-04-11T07:24:46Z</time></trkpt><trkpt lat="44.75399581038416" lon="7.84176566927126"><ele>330.66666666666663</ele><time>2026-04-11T07:24:47Z</time></trkpt><trkpt lat="44.75404069440633" lon="7.84168687930579"><ele>330.5</ele><time>2026-04-11T07:24:48Z</time></trkpt><trkpt lat="44.75408291822593" lon="7.841614181329497"><ele>330.3333333333333</ele><time>2026-04-11T07:24:49Z</time></trkpt><trkpt lat="44.7541432875016" lon="7.841477052141897"><ele>330.1666666666667</ele><time>2026-04-11T07:24:51Z</time></trkpt><trkpt lat="44.75419945168569" lon="7.8414155495329885"><ele>330.0</ele><time>2026-04-11T07:24:52Z</time></trkpt><trkpt lat="44.75428054855589" lon="7.841280728848049"><ele>330.0</ele><time>2026-04-11T07:24:54Z</time></trkpt><trkpt lat="44.75432841871885" lon="7.841201146424985"><ele>330.0</ele><time>2026-04-11T07:24:55Z</time></trkpt><trkpt lat="44.7543958560441" lon="7.841094309666456"><ele>330.0</ele><time>2026-04-11T07:24:57Z</time></trkpt><trkpt lat="44.75446890315146" lon="7.840983897225763"><ele>330.0</ele><time>2026-04-11T07:24:59Z</time></trkpt><trkpt lat="44.75453884883285" lon="7.840878172696768"><ele>330.0</ele><time>2026-04-11T07:25:01Z</time></trkpt><trkpt lat="44.75459622250397" lon="7.840767315706533"><ele>329.25</ele><time>2026-04-11T07:25:03Z</time></trkpt><trkpt lat="44.754687554378755" lon="7.840656914189476"><ele>328.5</ele><time>2026-04-11T07:25:05Z</time></trkpt><trkpt lat="44.75475989558023" lon="7.840547973625718"><ele>327.75</ele><time>2026-04-11T07:25:07Z</time></trkpt><trkpt lat="44.75483637366063" lon="7.8404205773071585"><ele>327.0</ele><time>2026-04-11T07:25:09Z</time></trkpt><trkpt lat="44.75490505679715" lon="7.8402684697882865"><ele>327.0</ele><time>2026-04-11T07:25:11Z</time></trkpt><trkpt lat="44.75497492819613" lon="7.840111322301957"><ele>327.0</ele><time>2026-04-11T07:25:13Z</time></trkpt><trkpt lat="44.75500800401165" lon="7.840026548552269"><ele>327.0</ele><time>2026-04-11T07:25:14Z</time></trkpt><trkpt lat="44.755040925104915" lon="7.839939164711292"><ele>327.0</ele><time>2026-04-11T07:25:15Z</time></trkpt><trkpt lat="44.755071114528384" lon="7.839844930271956"><ele>327.0</ele><time>2026-04-11T07:25:16Z</time></trkpt><trkpt lat="44.75509704706976" lon="7.839754345841465"><ele>327.0</ele><time>2026-04-11T07:25:17Z</time></trkpt><trkpt lat="44.755122799229206" lon="7.839650319739763"><ele>327.0</ele><time>2026-04-11T07:25:18Z</time></trkpt><trkpt lat="44.755143369322354" lon="7.839551791020409"><ele>327.0</ele><time>2026-04-11T07:25:19Z</time></trkpt><trkpt lat="44.75515721674567" lon="7.839460259145565"><ele>327.0</ele><time>2026-04-11T07:25:20Z</time></trkpt><trkpt lat="44.755168886723716" lon="7.839363995712772"><ele>327.0</ele><time>2026-04-11T07:25:21Z</time></trkpt><trkpt lat="44.75517144926767" lon="7.839267604511715"><ele>327.0</ele><time>2026-04-11T07:25:22Z</time></trkpt><trkpt lat="44.755168823985535" lon="7.839172008507657"><ele>327.0</ele><time>2026-04-11T07:25:23Z</time></trkpt><trkpt lat="44.75516898777426" lon="7.839083088920283"><ele>327.0</ele><time>2026-04-11T07:25:24Z</time></trkpt><trkpt lat="44.7551560290305" lon="7.838953370038426"><ele>327.20000000000005</ele><time>2026-04-11T07:25:26Z</time></trkpt><trkpt lat="44.755115545964806" lon="7.838861630441432"><ele>327.4</ele><time>2026-04-11T07:25:29Z</time></trkpt><trkpt lat="44.75511810471733" lon="7.838751605949854"><ele>327.6</ele><time>2026-04-11T07:25:32Z</time></trkpt><trkpt lat="44.75526928189832" lon="7.83863534084736"><ele>327.79999999999995</ele><time>2026-04-11T07:25:33Z</time></trkpt><trkpt lat="44.7553033594682" lon="7.838551574029045"><ele>328.0</ele><time>2026-04-11T07:25:35Z</time></trkpt><trkpt lat="44.75536135246497" lon="7.838429113814847"><ele>327.59999999999997</ele><time>2026-04-11T07:25:37Z</time></trkpt><trkpt lat="44.755418493561905" lon="7.838328300521997"><ele>327.2</ele><time>2026-04-11T07:25:39Z</time></trkpt><trkpt lat="44.75548776828945" lon="7.838256291102216"><ele>326.8</ele><time>2026-04-11T07:25:41Z</time></trkpt><trkpt lat="44.75558592032401" lon="7.838201613748242"><ele>326.4</ele><time>2026-04-11T07:25:43Z</time></trkpt><trkpt lat="44.755680027502656" lon="7.838149886774266"><ele>326.0</ele><time>2026-04-11T07:25:45Z</time></trkpt><trkpt lat="44.75577810494504" lon="7.838104084900103"><ele>326.0</ele><time>2026-04-11T07:25:47Z</time></trkpt><trkpt lat="44.75588629763994" lon="7.838063775732412"><ele>326.0</ele><time>2026-04-11T07:25:49Z</time></trkpt><trkpt lat="44.75599783819197" lon="7.838003193245893"><ele>326.0</ele><time>2026-04-11T07:25:51Z</time></trkpt><trkpt lat="44.756057728206954" lon="7.837961098051701"><ele>326.0</ele><time>2026-04-11T07:25:52Z</time></trkpt><trkpt lat="44.75611325520275" lon="7.837913529432453"><ele>326.0</ele><time>2026-04-11T07:25:53Z</time></trkpt><trkpt lat="44.75617031084893" lon="7.83786129598178"><ele>326.0</ele><time>2026-04-11T07:25:54Z</time></trkpt><trkpt lat="44.75623115826228" lon="7.8378147922875385"><ele>326.33333333333337</ele><time>2026-04-11T07:25:55Z</time></trkpt><trkpt lat="44.75628667264959" lon="7.837754834965741"><ele>326.6666666666667</ele><time>2026-04-11T07:25:56Z</time></trkpt><trkpt lat="44.7563488027489" lon="7.837702216585241"><ele>327.0</ele><time>2026-04-11T07:25:57Z</time></trkpt><trkpt lat="44.756405086957564" lon="7.83764796238311"><ele>327.3333333333333</ele><time>2026-04-11T07:25:58Z</time></trkpt><trkpt lat="44.75646059225485" lon="7.837596054880298"><ele>327.66666666666663</ele><time>2026-04-11T07:25:59Z</time></trkpt><trkpt lat="44.75656075950402" lon="7.8374883415686805"><ele>328.0</ele><time>2026-04-11T07:26:01Z</time></trkpt><trkpt lat="44.75666739344646" lon="7.837391716451303"><ele>327.2857142857143</ele><time>2026-04-11T07:26:03Z</time></trkpt><trkpt lat="44.75672474921588" lon="7.8373445421827705"><ele>326.57142857142856</ele><time>2026-04-11T07:26:04Z</time></trkpt><trkpt lat="44.75678182787346" lon="7.837297393524927"><ele>325.8571428571429</ele><time>2026-04-11T07:26:05Z</time></trkpt><trkpt lat="44.756834077808" lon="7.837245821353876"><ele>325.1428571428571</ele><time>2026-04-11T07:26:06Z</time></trkpt><trkpt lat="44.756887742111324" lon="7.837194242216677"><ele>324.42857142857144</ele><time>2026-04-11T07:26:07Z</time></trkpt><trkpt lat="44.75694228841277" lon="7.837139925972893"><ele>323.7142857142857</ele><time>2026-04-11T07:26:08Z</time></trkpt><trkpt lat="44.7569975350907" lon="7.837084452389321"><ele>323.0</ele><time>2026-04-11T07:26:09Z</time></trkpt><trkpt lat="44.75709695401499" lon="7.837002670359151"><ele>322.5</ele><time>2026-04-11T07:26:11Z</time></trkpt><trkpt lat="44.75721346155113" lon="7.836913480552548"><ele>322.0</ele><time>2026-04-11T07:26:13Z</time></trkpt><trkpt lat="44.757302258719406" lon="7.8368003052408985"><ele>321.5</ele><time>2026-04-11T07:26:15Z</time></trkpt><trkpt lat="44.757375418619354" lon="7.836682314529496"><ele>321.0</ele><time>2026-04-11T07:26:17Z</time></trkpt><trkpt lat="44.75748881090909" lon="7.836573941388653"><ele>321.0</ele><time>2026-04-11T07:26:19Z</time></trkpt><trkpt lat="44.75759634223333" lon="7.836524808181263"><ele>321.0</ele><time>2026-04-11T07:26:21Z</time></trkpt><trkpt lat="44.75770605314374" lon="7.836476426310364"><ele>321.0</ele><time>2026-04-11T07:26:23Z</time></trkpt><trkpt lat="44.757819425374215" lon="7.836426830840441"><ele>321.0</ele><time>2026-04-11T07:26:25Z</time></trkpt><trkpt lat="44.75793233166586" lon="7.836390267086897"><ele>321.0</ele><time>2026-04-11T07:26:27Z</time></trkpt><trkpt lat="44.758036447754726" lon="7.836358256434864"><ele>321.0</ele><time>2026-04-11T07:26:29Z</time></trkpt><trkpt lat="44.758140596478064" lon="7.8363309875022695"><ele>321.0</ele><time>2026-04-11T07:26:31Z</time></trkpt><trkpt lat="44.75825166511109" lon="7.836301522681729"><ele>321.0</ele><time>2026-04-11T07:26:33Z</time></trkpt><trkpt lat="44.758356055408264" lon="7.836258752195544"><ele>321.0</ele><time>2026-04-11T07:26:35Z</time></trkpt><trkpt lat="44.758458968200905" lon="7.836227295136816"><ele>321.5</ele><time>2026-04-11T07:26:37Z</time></trkpt><trkpt lat="44.75856514683358" lon="7.836192545634935"><ele>322.0</ele><time>2026-04-11T07:26:39Z</time></trkpt><trkpt lat="44.75868118183901" lon="7.836162069515749"><ele>322.5</ele><time>2026-04-11T07:26:41Z</time></trkpt><trkpt lat="44.758797391680005" lon="7.836124203264827"><ele>323.0</ele><time>2026-04-11T07:26:43Z</time></trkpt><trkpt lat="44.75890877729727" lon="7.836070910032839"><ele>323.0</ele><time>2026-04-11T07:26:45Z</time></trkpt><trkpt lat="44.75900889764044" lon="7.8360082806112965"><ele>323.0</ele><time>2026-04-11T07:26:47Z</time></trkpt><trkpt lat="44.75910518496294" lon="7.83594141820049"><ele>323.0</ele><time>2026-04-11T07:26:49Z</time></trkpt><trkpt lat="44.759176123689144" lon="7.835828582547541"><ele>323.0</ele><time>2026-04-11T07:26:51Z</time></trkpt><trkpt lat="44.75924604642018" lon="7.835693129668227"><ele>323.0</ele><time>2026-04-11T07:26:53Z</time></trkpt><trkpt lat="44.7592840559578" lon="7.835621539435549"><ele>323.0</ele><time>2026-04-11T07:26:54Z</time></trkpt><trkpt lat="44.75935534738837" lon="7.83547960667268"><ele>323.0</ele><time>2026-04-11T07:26:56Z</time></trkpt><trkpt lat="44.75939303243513" lon="7.83540059694064"><ele>323.0</ele><time>2026-04-11T07:26:57Z</time></trkpt><trkpt lat="44.75946662781689" lon="7.8352571390965915"><ele>323.0</ele><time>2026-04-11T07:26:59Z</time></trkpt><trkpt lat="44.759552487378144" lon="7.835128481334137"><ele>323.0</ele><time>2026-04-11T07:27:01Z</time></trkpt><trkpt lat="44.75964959794048" lon="7.835011149141255"><ele>322.5</ele><time>2026-04-11T07:27:03Z</time></trkpt><trkpt lat="44.75973926136174" lon="7.83489977103618"><ele>322.0</ele><time>2026-04-11T07:27:05Z</time></trkpt><trkpt lat="44.759830587390425" lon="7.8347905416202845"><ele>321.5</ele><time>2026-04-11T07:27:07Z</time></trkpt><trkpt lat="44.75990912817707" lon="7.8346863623512295"><ele>321.0</ele><time>2026-04-11T07:27:09Z</time></trkpt><trkpt lat="44.759991800464505" lon="7.834577821489117"><ele>321.0</ele><time>2026-04-11T07:27:11Z</time></trkpt><trkpt lat="44.76003813944022" lon="7.834515024101192"><ele>321.0</ele><time>2026-04-11T07:27:12Z</time></trkpt><trkpt lat="44.760129021309346" lon="7.834403250424457"><ele>321.0</ele><time>2026-04-11T07:27:14Z</time></trkpt><trkpt lat="44.760217179904444" lon="7.834281856939796"><ele>321.0</ele><time>2026-04-11T07:27:16Z</time></trkpt><trkpt lat="44.76029845406448" lon="7.834155963648818"><ele>321.0</ele><time>2026-04-11T07:27:18Z</time></trkpt><trkpt lat="44.760340869834934" lon="7.834087190948809"><ele>320.6666666666667</ele><time>2026-04-11T07:27:19Z</time></trkpt><trkpt lat="44.76037972737454" lon="7.834016819029773"><ele>320.3333333333333</ele><time>2026-04-11T07:27:20Z</time></trkpt><trkpt lat="44.760418660457304" lon="7.833943755441321"><ele>320.0</ele><time>2026-04-11T07:27:21Z</time></trkpt><trkpt lat="44.76049923354001" lon="7.8338067154381905"><ele>319.66666666666663</ele><time>2026-04-11T07:27:23Z</time></trkpt><trkpt lat="44.76054669613628" lon="7.8337445317020356"><ele>319.3333333333333</ele><time>2026-04-11T07:27:24Z</time></trkpt><trkpt lat="44.76062404584613" lon="7.833616627196751"><ele>319.0</ele><time>2026-04-11T07:27:26Z</time></trkpt><trkpt lat="44.760701470362356" lon="7.833479902078461"><ele>319.6</ele><time>2026-04-11T07:27:28Z</time></trkpt><trkpt lat="44.76074451737594" lon="7.833340145353919"><ele>320.2</ele><time>2026-04-11T07:27:30Z</time></trkpt><trkpt lat="44.76079342526316" lon="7.833222668484866"><ele>320.8</ele><time>2026-04-11T07:27:32Z</time></trkpt><trkpt lat="44.760875191978336" lon="7.833123730408982"><ele>321.40000000000003</ele><time>2026-04-11T07:27:34Z</time></trkpt><trkpt lat="44.76092156528771" lon="7.833055839680175"><ele>322.0</ele><time>2026-04-11T07:27:35Z</time></trkpt><trkpt lat="44.76101971561472" lon="7.832933357662725"><ele>321.7142857142857</ele><time>2026-04-11T07:27:37Z</time></trkpt><trkpt lat="44.76106655553239" lon="7.832865924310355"><ele>321.42857142857144</ele><time>2026-04-11T07:27:38Z</time></trkpt><trkpt lat="44.76111678414654" lon="7.832794306244862"><ele>321.1428571428571</ele><time>2026-04-11T07:27:39Z</time></trkpt><trkpt lat="44.76116307100749" lon="7.8327222242566386"><ele>320.8571428571429</ele><time>2026-04-11T07:27:40Z</time></trkpt><trkpt lat="44.76121114248675" lon="7.832653788455468"><ele>320.57142857142856</ele><time>2026-04-11T07:27:41Z</time></trkpt><trkpt lat="44.761264148442606" lon="7.832587013638714"><ele>320.2857142857143</ele><time>2026-04-11T07:27:42Z</time></trkpt><trkpt lat="44.761316304872615" lon="7.832526453301721"><ele>320.0</ele><time>2026-04-11T07:27:43Z</time></trkpt><trkpt lat="44.76136480690228" lon="7.832462316820957"><ele>319.83333333333337</ele><time>2026-04-11T07:27:44Z</time></trkpt><trkpt lat="44.76144339720871" lon="7.832320306207179"><ele>319.6666666666667</ele><time>2026-04-11T07:27:46Z</time></trkpt><trkpt lat="44.76148555869085" lon="7.832247888791061"><ele>319.5</ele><time>2026-04-11T07:27:47Z</time></trkpt><trkpt lat="44.7615228087172" lon="7.832172822786602"><ele>319.3333333333333</ele><time>2026-04-11T07:27:48Z</time></trkpt><trkpt lat="44.76155969681301" lon="7.8320971288289325"><ele>319.16666666666663</ele><time>2026-04-11T07:27:49Z</time></trkpt><trkpt lat="44.76159705446906" lon="7.832007024958921"><ele>319.0</ele><time>2026-04-11T07:27:50Z</time></trkpt><trkpt lat="44.761631639485906" lon="7.83191914411988"><ele>319.0</ele><time>2026-04-11T07:27:51Z</time></trkpt><trkpt lat="44.76166464222911" lon="7.831830694114519"><ele>319.0</ele><time>2026-04-11T07:27:52Z</time></trkpt><trkpt lat="44.7616983254172" lon="7.831735266033441"><ele>319.0</ele><time>2026-04-11T07:27:53Z</time></trkpt><trkpt lat="44.761725683321316" lon="7.831643731188167"><ele>319.0</ele><time>2026-04-11T07:27:54Z</time></trkpt><trkpt lat="44.76176436452225" lon="7.831553255553019"><ele>319.0</ele><time>2026-04-11T07:27:55Z</time></trkpt><trkpt lat="44.761802774047744" lon="7.83146737539887"><ele>319.0</ele><time>2026-04-11T07:27:56Z</time></trkpt><trkpt lat="44.761844043626034" lon="7.831378077288886"><ele>319.0</ele><time>2026-04-11T07:27:57Z</time></trkpt><trkpt lat="44.76187921359618" lon="7.831279731035327"><ele>318.66666666666663</ele><time>2026-04-11T07:27:58Z</time></trkpt><trkpt lat="44.76191136558021" lon="7.8311795310067955"><ele>318.3333333333333</ele><time>2026-04-11T07:27:59Z</time></trkpt><trkpt lat="44.76194383439708" lon="7.831077873121105"><ele>318.0</ele><time>2026-04-11T07:28:00Z</time></trkpt><trkpt lat="44.761967714725934" lon="7.830979282681617"><ele>317.6666666666667</ele><time>2026-04-11T07:28:01Z</time></trkpt><trkpt lat="44.7619878971192" lon="7.830879229948821"><ele>317.33333333333337</ele><time>2026-04-11T07:28:02Z</time></trkpt><trkpt lat="44.76200683608458" lon="7.830781960170711"><ele>317.0</ele><time>2026-04-11T07:28:03Z</time></trkpt><trkpt lat="44.76202991267003" lon="7.830681025904476"><ele>317.0</ele><time>2026-04-11T07:28:04Z</time></trkpt><trkpt lat="44.76205603184255" lon="7.830591035790317"><ele>317.0</ele><time>2026-04-11T07:28:05Z</time></trkpt><trkpt lat="44.76208482863541" lon="7.830508346158127"><ele>317.0</ele><time>2026-04-11T07:28:06Z</time></trkpt><trkpt lat="44.762146078329174" lon="7.830351133982991"><ele>317.0</ele><time>2026-04-11T07:28:08Z</time></trkpt><trkpt lat="44.762197093964964" lon="7.830186410092263"><ele>317.0</ele><time>2026-04-11T07:28:10Z</time></trkpt><trkpt lat="44.76223124231608" lon="7.830106518873748"><ele>316.83333333333337</ele><time>2026-04-11T07:28:11Z</time></trkpt><trkpt lat="44.76223624458929" lon="7.830012015056902"><ele>316.6666666666667</ele><time>2026-04-11T07:28:12Z</time></trkpt><trkpt lat="44.762242941875755" lon="7.829923350196405"><ele>316.5</ele><time>2026-04-11T07:28:13Z</time></trkpt><trkpt lat="44.762246691374216" lon="7.829826251594126"><ele>316.3333333333333</ele><time>2026-04-11T07:28:14Z</time></trkpt><trkpt lat="44.76224836859304" lon="7.829654305854976"><ele>316.16666666666663</ele><time>2026-04-11T07:28:16Z</time></trkpt><trkpt lat="44.7622380322971" lon="7.829478192377197"><ele>316.0</ele><time>2026-04-11T07:28:18Z</time></trkpt><trkpt lat="44.76223260648427" lon="7.829305633521049"><ele>315.8571428571429</ele><time>2026-04-11T07:28:20Z</time></trkpt><trkpt lat="44.76222927945937" lon="7.829210124776479"><ele>315.7142857142857</ele><time>2026-04-11T07:28:21Z</time></trkpt><trkpt lat="44.762224322568414" lon="7.829111011954839"><ele>315.57142857142856</ele><time>2026-04-11T07:28:22Z</time></trkpt><trkpt lat="44.76222670230331" lon="7.829010623587719"><ele>315.42857142857144</ele><time>2026-04-11T07:28:23Z</time></trkpt><trkpt lat="44.762223640399554" lon="7.828911920077105"><ele>315.2857142857143</ele><time>2026-04-11T07:28:24Z</time></trkpt><trkpt lat="44.762229780032065" lon="7.828818366094609"><ele>315.14285714285717</ele><time>2026-04-11T07:28:25Z</time></trkpt><trkpt lat="44.76223002235121" lon="7.828718056953918"><ele>315.0</ele><time>2026-04-11T07:28:26Z</time></trkpt><trkpt lat="44.76223132430963" lon="7.8286109636498304"><ele>315.0</ele><time>2026-04-11T07:28:27Z</time></trkpt><trkpt lat="44.76223456853674" lon="7.8285083214688775"><ele>315.0</ele><time>2026-04-11T07:28:28Z</time></trkpt><trkpt lat="44.76224169907203" lon="7.828409389484953"><ele>315.0</ele><time>2026-04-11T07:28:29Z</time></trkpt><trkpt lat="44.76224658961183" lon="7.828310363072485"><ele>315.0</ele><time>2026-04-11T07:28:30Z</time></trkpt><trkpt lat="44.76224905967007" lon="7.828214108105429"><ele>315.0</ele><time>2026-04-11T07:28:31Z</time></trkpt><trkpt lat="44.762250927706326" lon="7.828115219743403"><ele>315.0</ele><time>2026-04-11T07:28:32Z</time></trkpt><trkpt lat="44.76226307192894" lon="7.828011628424096"><ele>315.0</ele><time>2026-04-11T07:28:33Z</time></trkpt><trkpt lat="44.76227642050935" lon="7.827909427835966"><ele>315.0</ele><time>2026-04-11T07:28:34Z</time></trkpt><trkpt lat="44.76229670003551" lon="7.827802353818002"><ele>315.0</ele><time>2026-04-11T07:28:35Z</time></trkpt><trkpt lat="44.76231032773398" lon="7.827697202783298"><ele>315.0</ele><time>2026-04-11T07:28:36Z</time></trkpt><trkpt lat="44.762338004356145" lon="7.827603415541309"><ele>315.0</ele><time>2026-04-11T07:28:37Z</time></trkpt><trkpt lat="44.762365660982944" lon="7.827503732684603"><ele>315.0</ele><time>2026-04-11T07:28:38Z</time></trkpt><trkpt lat="44.76239143976049" lon="7.8273966053987705"><ele>315.0</ele><time>2026-04-11T07:28:39Z</time></trkpt><trkpt lat="44.762420711448264" lon="7.827292312229209"><ele>315.0</ele><time>2026-04-11T07:28:40Z</time></trkpt><trkpt lat="44.762441281053725" lon="7.827189817561992"><ele>315.0</ele><time>2026-04-11T07:28:41Z</time></trkpt><trkpt lat="44.76246926919477" lon="7.827095915350356"><ele>315.0</ele><time>2026-04-11T07:28:42Z</time></trkpt><trkpt lat="44.76249123560446" lon="7.826982835273279"><ele>315.0</ele><time>2026-04-11T07:28:43Z</time></trkpt><trkpt lat="44.762504001814634" lon="7.826873032053387"><ele>315.0</ele><time>2026-04-11T07:28:44Z</time></trkpt><trkpt lat="44.76251612945587" lon="7.826768365206067"><ele>315.0</ele><time>2026-04-11T07:28:45Z</time></trkpt><trkpt lat="44.76252362924438" lon="7.826660265474966"><ele>315.0</ele><time>2026-04-11T07:28:46Z</time></trkpt><trkpt lat="44.76253178484904" lon="7.826550412754049"><ele>315.0</ele><time>2026-04-11T07:28:47Z</time></trkpt><trkpt lat="44.76254839334645" lon="7.8264632629493045"><ele>315.0</ele><time>2026-04-11T07:28:48Z</time></trkpt><trkpt lat="44.76256200408888" lon="7.826359142018624"><ele>315.0</ele><time>2026-04-11T07:28:49Z</time></trkpt><trkpt lat="44.76256903621506" lon="7.826260895143922"><ele>315.0</ele><time>2026-04-11T07:28:50Z</time></trkpt><trkpt lat="44.76257715679681" lon="7.826160537700294"><ele>315.0</ele><time>2026-04-11T07:28:51Z</time></trkpt><trkpt lat="44.762589826481495" lon="7.826071390182424"><ele>315.0</ele><time>2026-04-11T07:28:52Z</time></trkpt><trkpt lat="44.76260527551455" lon="7.82591282166992"><ele>315.2</ele><time>2026-04-11T07:28:54Z</time></trkpt><trkpt lat="44.76258950812201" lon="7.825753921320088"><ele>315.4</ele><time>2026-04-11T07:28:56Z</time></trkpt><trkpt lat="44.762558537457444" lon="7.825603291193989"><ele>315.6</ele><time>2026-04-11T07:28:58Z</time></trkpt><trkpt lat="44.76254554473633" lon="7.8255123807642795"><ele>315.8</ele><time>2026-04-11T07:28:59Z</time></trkpt><trkpt lat="44.76252732963856" lon="7.825365278327943"><ele>316.0</ele><time>2026-04-11T07:29:01Z</time></trkpt><trkpt lat="44.762496212475604" lon="7.825206901087052"><ele>315.66666666666663</ele><time>2026-04-11T07:29:03Z</time></trkpt><trkpt lat="44.762488498891734" lon="7.825117671609943"><ele>315.3333333333333</ele><time>2026-04-11T07:29:04Z</time></trkpt><trkpt lat="44.76248151111474" lon="7.82502440227274"><ele>315.0</ele><time>2026-04-11T07:29:05Z</time></trkpt><trkpt lat="44.76247422856249" lon="7.8249303928540215"><ele>314.6666666666667</ele><time>2026-04-11T07:29:06Z</time></trkpt><trkpt lat="44.76246452230695" lon="7.824747237688276"><ele>314.33333333333337</ele><time>2026-04-11T07:29:08Z</time></trkpt><trkpt lat="44.76245937524171" lon="7.824642910110625"><ele>314.0</ele><time>2026-04-11T07:29:09Z</time></trkpt><trkpt lat="44.76245074227213" lon="7.82454683726926"><ele>314.0</ele><time>2026-04-11T07:29:10Z</time></trkpt><trkpt lat="44.76243385637182" lon="7.824447674803937"><ele>314.0</ele><time>2026-04-11T07:29:11Z</time></trkpt><trkpt lat="44.762407526921734" lon="7.824293783005425"><ele>314.0</ele><time>2026-04-11T07:29:13Z</time></trkpt><trkpt lat="44.76243937625158" lon="7.824212673157036"><ele>314.0</ele><time>2026-04-11T07:29:15Z</time></trkpt><trkpt lat="44.76251052523522" lon="7.824127933552596"><ele>314.0</ele><time>2026-04-11T07:29:18Z</time></trkpt><trkpt lat="44.76252949666714" lon="7.823969463834828"><ele>314.0</ele><time>2026-04-11T07:29:20Z</time></trkpt><trkpt lat="44.76255454235475" lon="7.823803387370347"><ele>314.0</ele><time>2026-04-11T07:29:22Z</time></trkpt><trkpt lat="44.76255838121189" lon="7.823627754362614"><ele>314.0</ele><time>2026-04-11T07:29:24Z</time></trkpt><trkpt lat="44.762542089428706" lon="7.823462621940668"><ele>314.0</ele><time>2026-04-11T07:29:26Z</time></trkpt><trkpt lat="44.76254549389684" lon="7.823311235946923"><ele>313.8</ele><time>2026-04-11T07:29:28Z</time></trkpt><trkpt lat="44.76255110728188" lon="7.82315971934034"><ele>313.59999999999997</ele><time>2026-04-11T07:29:30Z</time></trkpt><trkpt lat="44.7625433713131" lon="7.823070161602266"><ele>313.4</ele><time>2026-04-11T07:29:31Z</time></trkpt><trkpt lat="44.76257365762871" lon="7.8229039589658615"><ele>313.2</ele><time>2026-04-11T07:29:33Z</time></trkpt><trkpt lat="44.76262418126809" lon="7.8227588351528174"><ele>313.0</ele><time>2026-04-11T07:29:35Z</time></trkpt><trkpt lat="44.76263855238236" lon="7.822618010110144"><ele>312.6</ele><time>2026-04-11T07:29:37Z</time></trkpt><trkpt lat="44.762666405679525" lon="7.82243067391696"><ele>312.20000000000005</ele><time>2026-04-11T07:29:39Z</time></trkpt><trkpt lat="44.76267058481824" lon="7.822336631540268"><ele>311.8</ele><time>2026-04-11T07:29:40Z</time></trkpt><trkpt lat="44.76266686719868" lon="7.822191544942536"><ele>311.40000000000003</ele><time>2026-04-11T07:29:42Z</time></trkpt><trkpt lat="44.76266980205834" lon="7.822077103843193"><ele>311.0</ele><time>2026-04-11T07:29:45Z</time></trkpt><trkpt lat="44.762697130694114" lon="7.8218679826820745"><ele>310.40000000000003</ele><time>2026-04-11T07:29:47Z</time></trkpt><trkpt lat="44.762705200131435" lon="7.821728195856826"><ele>309.8</ele><time>2026-04-11T07:29:49Z</time></trkpt><trkpt lat="44.762691669119185" lon="7.821562982197641"><ele>309.20000000000005</ele><time>2026-04-11T07:29:51Z</time></trkpt><trkpt lat="44.76264902066573" lon="7.8214124495074335"><ele>308.6</ele><time>2026-04-11T07:29:53Z</time></trkpt><trkpt lat="44.76257384254352" lon="7.821350186398728"><ele>308.0</ele><time>2026-04-11T07:29:55Z</time></trkpt><trkpt lat="44.7624961519625" lon="7.821317941003596"><ele>308.0</ele><time>2026-04-11T07:29:58Z</time></trkpt><trkpt lat="44.7624417650617" lon="7.821190987968059"><ele>308.0</ele><time>2026-04-11T07:30:01Z</time></trkpt><trkpt lat="44.76237386616587" lon="7.821073792099817"><ele>308.0</ele><time>2026-04-11T07:30:03Z</time></trkpt><trkpt lat="44.76232645839659" lon="7.820952349118672"><ele>308.0</ele><time>2026-04-11T07:30:05Z</time></trkpt><trkpt lat="44.76229380461209" lon="7.820847627067287"><ele>308.0</ele><time>2026-04-11T07:30:07Z</time></trkpt><trkpt lat="44.76226282032586" lon="7.820706148299638"><ele>307.0</ele><time>2026-04-11T07:30:10Z</time></trkpt><trkpt lat="44.76220438438558" lon="7.820588708409835"><ele>306.0</ele><time>2026-04-11T07:30:12Z</time></trkpt><trkpt lat="44.76217042853949" lon="7.820470037372679"><ele>305.0</ele><time>2026-04-11T07:30:15Z</time></trkpt><trkpt lat="44.76215997801109" lon="7.820375759296916"><ele>304.0</ele><time>2026-04-11T07:30:17Z</time></trkpt><trkpt lat="44.762163206065296" lon="7.820084154914143"><ele>304.0</ele><time>2026-04-11T07:30:20Z</time></trkpt><trkpt lat="44.762204903963756" lon="7.819977159036167"><ele>304.0</ele><time>2026-04-11T07:30:22Z</time></trkpt><trkpt lat="44.76224462371713" lon="7.81986020920746"><ele>304.0</ele><time>2026-04-11T07:30:24Z</time></trkpt><trkpt lat="44.762296184371195" lon="7.819714785051626"><ele>304.0</ele><time>2026-04-11T07:30:26Z</time></trkpt><trkpt lat="44.762327242146355" lon="7.819562048449878"><ele>304.0</ele><time>2026-04-11T07:30:28Z</time></trkpt><trkpt lat="44.76235207063823" lon="7.8194096192527125"><ele>304.59999999999997</ele><time>2026-04-11T07:30:30Z</time></trkpt><trkpt lat="44.7623791647349" lon="7.819255010101297"><ele>305.2</ele><time>2026-04-11T07:30:32Z</time></trkpt><trkpt lat="44.76240653268346" lon="7.819105718896304"><ele>305.79999999999995</ele><time>2026-04-11T07:30:34Z</time></trkpt><trkpt lat="44.76240634598443" lon="7.818999433640075"><ele>306.4</ele><time>2026-04-11T07:30:36Z</time></trkpt><trkpt lat="44.76243455486365" lon="7.81889832602345"><ele>307.0</ele><time>2026-04-11T07:30:38Z</time></trkpt><trkpt lat="44.76243817931206" lon="7.818787227541034"><ele>307.0</ele><time>2026-04-11T07:31:08Z</time></trkpt><trkpt lat="44.76245422551466" lon="7.818700690868096"><ele>307.0</ele><time>2026-04-11T07:31:10Z</time></trkpt><trkpt lat="44.762496672900006" lon="7.818588988591759"><ele>307.0</ele><time>2026-04-11T07:31:12Z</time></trkpt><trkpt lat="44.76253479195351" lon="7.818433771221777"><ele>307.0</ele><time>2026-04-11T07:31:14Z</time></trkpt><trkpt lat="44.76255840977654" lon="7.818348819097699"><ele>307.0</ele><time>2026-04-11T07:31:15Z</time></trkpt><trkpt lat="44.7625859273694" lon="7.818180895636835"><ele>307.0</ele><time>2026-04-11T07:31:17Z</time></trkpt><trkpt lat="44.76259870232815" lon="7.818093997321841"><ele>307.0</ele><time>2026-04-11T07:31:18Z</time></trkpt><trkpt lat="44.76261164043515" lon="7.818001999578728"><ele>307.0</ele><time>2026-04-11T07:31:19Z</time></trkpt><trkpt lat="44.762639496833486" lon="7.817912240676228"><ele>307.0</ele><time>2026-04-11T07:31:20Z</time></trkpt><trkpt lat="44.762650755147234" lon="7.817735302300143"><ele>307.0</ele><time>2026-04-11T07:31:22Z</time></trkpt><trkpt lat="44.76266034348471" lon="7.817646004004958"><ele>307.0</ele><time>2026-04-11T07:31:23Z</time></trkpt><trkpt lat="44.76265814510578" lon="7.81755421581522"><ele>307.2</ele><time>2026-04-11T07:31:24Z</time></trkpt><trkpt lat="44.76263071244247" lon="7.817385778715821"><ele>307.4</ele><time>2026-04-11T07:31:26Z</time></trkpt><trkpt lat="44.762602602252635" lon="7.817302706997403"><ele>307.6</ele><time>2026-04-11T07:31:27Z</time></trkpt><trkpt lat="44.762554074006886" lon="7.817140962199462"><ele>307.8</ele><time>2026-04-11T07:31:29Z</time></trkpt><trkpt lat="44.76252299511133" lon="7.817050628908385"><ele>308.0</ele><time>2026-04-11T07:31:30Z</time></trkpt><trkpt lat="44.762504457157156" lon="7.816884278277773"><ele>308.5</ele><time>2026-04-11T07:31:32Z</time></trkpt><trkpt lat="44.762506976290936" lon="7.816720477931495"><ele>309.0</ele><time>2026-04-11T07:31:34Z</time></trkpt><trkpt lat="44.76250791756145" lon="7.8165467121488295"><ele>309.5</ele><time>2026-04-11T07:31:36Z</time></trkpt><trkpt lat="44.76250981331218" lon="7.816375978164545"><ele>310.0</ele><time>2026-04-11T07:31:37.999Z</time></trkpt><trkpt lat="44.76250076900731" lon="7.816210598862205"><ele>310.0</ele><time>2026-04-11T07:31:39.999Z</time></trkpt><trkpt lat="44.762481489651165" lon="7.8160485269814854"><ele>310.0</ele><time>2026-04-11T07:31:41.999Z</time></trkpt><trkpt lat="44.76249407377864" lon="7.815948810619595"><ele>310.0</ele><time>2026-04-11T07:31:43.999Z</time></trkpt><trkpt lat="44.76248306031143" lon="7.815857976645737"><ele>310.0</ele><time>2026-04-11T07:33:27Z</time></trkpt><trkpt lat="44.762482396166966" lon="7.815763756018364"><ele>310.0</ele><time>2026-04-11T07:33:29Z</time></trkpt><trkpt lat="44.762478778640414" lon="7.81565849369732"><ele>310.0</ele><time>2026-04-11T07:33:31Z</time></trkpt><trkpt lat="44.76246276269484" lon="7.815539374576803"><ele>309.8333333333333</ele><time>2026-04-11T07:33:35Z</time></trkpt><trkpt lat="44.76240456680139" lon="7.815476796586599"><ele>309.66666666666663</ele><time>2026-04-11T07:33:37Z</time></trkpt><trkpt lat="44.76232743841301" lon="7.8154326318892755"><ele>309.5</ele><time>2026-04-11T07:33:38.999Z</time></trkpt><trkpt lat="44.762259969380196" lon="7.815392202010306"><ele>309.3333333333333</ele><time>2026-04-11T07:33:40.999Z</time></trkpt><trkpt lat="44.76219255374173" lon="7.815327171434105"><ele>309.1666666666667</ele><time>2026-04-11T07:33:42.999Z</time></trkpt><trkpt lat="44.76213297295334" lon="7.815264690593803"><ele>309.0</ele><time>2026-04-11T07:33:44.999Z</time></trkpt><trkpt lat="44.76207188327955" lon="7.81520446706809"><ele>309.2</ele><time>2026-04-11T07:33:46.999Z</time></trkpt><trkpt lat="44.76200324536209" lon="7.815146317139922"><ele>309.4</ele><time>2026-04-11T07:33:49.999Z</time></trkpt><trkpt lat="44.76193188792989" lon="7.815083747246142"><ele>309.6</ele><time>2026-04-11T07:33:52.999Z</time></trkpt><trkpt lat="44.761830785832075" lon="7.814998002013775"><ele>309.8</ele><time>2026-04-11T07:33:56Z</time></trkpt><trkpt lat="44.76171302688961" lon="7.8148711880345845"><ele>310.0</ele><time>2026-04-11T07:33:58Z</time></trkpt><trkpt lat="44.76166467851078" lon="7.814776483961657"><ele>309.8333333333333</ele><time>2026-04-11T07:34:00Z</time></trkpt><trkpt lat="44.76164134369253" lon="7.81466246695952"><ele>309.66666666666663</ele><time>2026-04-11T07:34:02Z</time></trkpt><trkpt lat="44.76165081989141" lon="7.814564884841935"><ele>309.5</ele><time>2026-04-11T07:34:04Z</time></trkpt><trkpt lat="44.76170263695042" lon="7.814464845370571"><ele>309.3333333333333</ele><time>2026-04-11T07:34:06Z</time></trkpt><trkpt lat="44.76175347388326" lon="7.814386693660785"><ele>309.1666666666667</ele><time>2026-04-11T07:34:08Z</time></trkpt><trkpt lat="44.76185357267466" lon="7.814346630992648"><ele>309.0</ele><time>2026-04-11T07:34:12Z</time></trkpt><trkpt lat="44.76190282460294" lon="7.814277404883052"><ele>309.0</ele><time>2026-04-11T07:34:14Z</time></trkpt><trkpt lat="44.76196110208377" lon="7.81415526262653"><ele>309.0</ele><time>2026-04-11T07:34:16Z</time></trkpt><trkpt lat="44.76199555174356" lon="7.814050991391455"><ele>309.0</ele><time>2026-04-11T07:34:19Z</time></trkpt><trkpt lat="44.76209756402999" lon="7.813882324916741"><ele>309.0</ele><time>2026-04-11T07:34:20Z</time></trkpt><trkpt lat="44.76216418414649" lon="7.813748690079767"><ele>309.0</ele><time>2026-04-11T07:34:22Z</time></trkpt><trkpt lat="44.76223057977389" lon="7.813629148239229"><ele>309.0</ele><time>2026-04-11T07:34:24Z</time></trkpt><trkpt lat="44.762294695470835" lon="7.81351063510835"><ele>309.0</ele><time>2026-04-11T07:34:26Z</time></trkpt><trkpt lat="44.76236377734611" lon="7.813382382497266"><ele>309.0</ele><time>2026-04-11T07:34:28Z</time></trkpt><trkpt lat="44.76243025752729" lon="7.813265565847598"><ele>309.0</ele><time>2026-04-11T07:34:30Z</time></trkpt><trkpt lat="44.76249794193694" lon="7.81316438023539"><ele>310.4</ele><time>2026-04-11T07:34:32Z</time></trkpt><trkpt lat="44.76253796177269" lon="7.813035637732346"><ele>311.79999999999995</ele><time>2026-04-11T07:34:34Z</time></trkpt><trkpt lat="44.76256724928741" lon="7.812899102814896"><ele>313.20000000000005</ele><time>2026-04-11T07:34:36Z</time></trkpt><trkpt lat="44.76258846407346" lon="7.812754207629389"><ele>314.6</ele><time>2026-04-11T07:34:38Z</time></trkpt><trkpt lat="44.762598076593356" lon="7.81260256892187"><ele>316.0</ele><time>2026-04-11T07:34:40Z</time></trkpt><trkpt lat="44.76261976292733" lon="7.81244365804573"><ele>316.2</ele><time>2026-04-11T07:34:42Z</time></trkpt><trkpt lat="44.76265197455335" lon="7.8123039264548115"><ele>316.40000000000003</ele><time>2026-04-11T07:34:44Z</time></trkpt><trkpt lat="44.76269241546162" lon="7.812172747868535"><ele>316.6</ele><time>2026-04-11T07:34:46Z</time></trkpt><trkpt lat="44.76279707397593" lon="7.812133542502651"><ele>316.8</ele><time>2026-04-11T07:34:49Z</time></trkpt><trkpt lat="44.76289839190263" lon="7.812084166047096"><ele>317.0</ele><time>2026-04-11T07:34:50Z</time></trkpt><trkpt lat="44.76296194213407" lon="7.812054844958465"><ele>315.0</ele><time>2026-04-11T07:34:51Z</time></trkpt><trkpt lat="44.763054214122555" lon="7.811974549358446"><ele>313.0</ele><time>2026-04-11T07:34:53Z</time></trkpt><trkpt lat="44.76315356708172" lon="7.811869771253577"><ele>311.0</ele><time>2026-04-11T07:34:55Z</time></trkpt><trkpt lat="44.76323475469123" lon="7.8117382699094495"><ele>309.0</ele><time>2026-04-11T07:34:57Z</time></trkpt><trkpt lat="44.76329981719909" lon="7.8115949687366415"><ele>308.8</ele><time>2026-04-11T07:34:59Z</time></trkpt><trkpt lat="44.763337228277784" lon="7.811519144274546"><ele>308.59999999999997</ele><time>2026-04-11T07:35:00Z</time></trkpt><trkpt lat="44.763407933785686" lon="7.811368477743935"><ele>308.4</ele><time>2026-04-11T07:35:02Z</time></trkpt><trkpt lat="44.763471141737284" lon="7.811232120631373"><ele>308.2</ele><time>2026-04-11T07:35:04Z</time></trkpt><trkpt lat="44.76353762206044" lon="7.811081005551002"><ele>308.0</ele><time>2026-04-11T07:35:06Z</time></trkpt><trkpt lat="44.76357341854315" lon="7.811007691321925"><ele>307.6</ele><time>2026-04-11T07:35:07Z</time></trkpt><trkpt lat="44.763635796534444" lon="7.810870168246379"><ele>307.20000000000005</ele><time>2026-04-11T07:35:09Z</time></trkpt><trkpt lat="44.763707605795645" lon="7.810723593440412"><ele>306.8</ele><time>2026-04-11T07:35:11Z</time></trkpt><trkpt lat="44.7637470487478" lon="7.81064864739594"><ele>306.40000000000003</ele><time>2026-04-11T07:35:12Z</time></trkpt><trkpt lat="44.76381562058418" lon="7.810512360514965"><ele>306.0</ele><time>2026-04-11T07:35:14Z</time></trkpt><trkpt lat="44.76389512841458" lon="7.810399015191773"><ele>306.0</ele><time>2026-04-11T07:35:16Z</time></trkpt><trkpt lat="44.76396003349259" lon="7.810261425999166"><ele>306.0</ele><time>2026-04-11T07:35:18Z</time></trkpt><trkpt lat="44.76401571797771" lon="7.810162671334271"><ele>306.0</ele><time>2026-04-11T07:35:20Z</time></trkpt><trkpt lat="44.76406519561967" lon="7.810069866898808"><ele>306.0</ele><time>2026-04-11T07:35:23Z</time></trkpt><trkpt lat="44.76412857060564" lon="7.809951082182982"><ele>306.0</ele><time>2026-04-11T07:35:26Z</time></trkpt><trkpt lat="44.76418702206138" lon="7.8098631632138575"><ele>305.8</ele><time>2026-04-11T07:35:27Z</time></trkpt><trkpt lat="44.76424925761312" lon="7.8097864724383825"><ele>305.6</ele><time>2026-04-11T07:35:29Z</time></trkpt><trkpt lat="44.76430308760722" lon="7.809690674059113"><ele>305.4</ele><time>2026-04-11T07:35:31Z</time></trkpt><trkpt lat="44.764367191208734" lon="7.809584753110181"><ele>305.2</ele><time>2026-04-11T07:35:33Z</time></trkpt><trkpt lat="44.76441801925029" lon="7.809489854283799"><ele>305.0</ele><time>2026-04-11T07:35:34.999Z</time></trkpt><trkpt lat="44.76449465451624" lon="7.809363465546613"><ele>305.0</ele><time>2026-04-11T07:35:36.999Z</time></trkpt><trkpt lat="44.76457959240277" lon="7.809218665809178"><ele>305.0</ele><time>2026-04-11T07:35:38.999Z</time></trkpt><trkpt lat="44.76462576788853" lon="7.809142757927762"><ele>305.0</ele><time>2026-04-11T07:35:39.999Z</time></trkpt><trkpt lat="44.76467356372848" lon="7.809062686500368"><ele>305.0</ele><time>2026-04-11T07:35:40.999Z</time></trkpt><trkpt lat="44.76472243858038" lon="7.8089830549845"><ele>305.0</ele><time>2026-04-11T07:35:41.999Z</time></trkpt><trkpt lat="44.764769039940624" lon="7.808904527204812"><ele>305.0</ele><time>2026-04-11T07:35:42.999Z</time></trkpt><trkpt lat="44.764816699065136" lon="7.808823544920596"><ele>305.0</ele><time>2026-04-11T07:35:43.999Z</time></trkpt><trkpt lat="44.76486529931604" lon="7.808744742939946"><ele>305.0</ele><time>2026-04-11T07:35:44.999Z</time></trkpt><trkpt lat="44.76491328333401" lon="7.808669141748408"><ele>305.0</ele><time>2026-04-11T07:35:45.999Z</time></trkpt><trkpt lat="44.764948551169255" lon="7.808593538913588"><ele>305.0</ele><time>2026-04-11T07:35:46.999Z</time></trkpt><trkpt lat="44.76499226970995" lon="7.808516567693374"><ele>305.0</ele><time>2026-04-11T07:35:47.999Z</time></trkpt><trkpt lat="44.76508440508152" lon="7.808377828660325"><ele>305.0</ele><time>2026-04-11T07:35:49.999Z</time></trkpt><trkpt lat="44.765132980918416" lon="7.808303282538836"><ele>304.5</ele><time>2026-04-11T07:35:50.999Z</time></trkpt><trkpt lat="44.765215576640145" lon="7.808166120497818"><ele>304.0</ele><time>2026-04-11T07:35:52.999Z</time></trkpt><trkpt lat="44.765261742413095" lon="7.808098603583366"><ele>303.5</ele><time>2026-04-11T07:35:53.999Z</time></trkpt><trkpt lat="44.76530763737766" lon="7.80802020949367"><ele>303.0</ele><time>2026-04-11T07:35:54.999Z</time></trkpt><trkpt lat="44.765342370359505" lon="7.807934802606957"><ele>302.5</ele><time>2026-04-11T07:35:55.999Z</time></trkpt><trkpt lat="44.76537836345638" lon="7.807857326363898"><ele>302.0</ele><time>2026-04-11T07:35:56.999Z</time></trkpt><trkpt lat="44.76546219105582" lon="7.807700863188015"><ele>302.1666666666667</ele><time>2026-04-11T07:35:58.999Z</time></trkpt><trkpt lat="44.76549913508485" lon="7.80761955980743"><ele>302.33333333333337</ele><time>2026-04-11T07:35:59.999Z</time></trkpt><trkpt lat="44.76553795198582" lon="7.807545064868458"><ele>302.5</ele><time>2026-04-11T07:36:01Z</time></trkpt><trkpt lat="44.76557893701877" lon="7.807476330183861"><ele>302.6666666666667</ele><time>2026-04-11T07:36:02Z</time></trkpt><trkpt lat="44.76561930790538" lon="7.807408251561765"><ele>302.8333333333333</ele><time>2026-04-11T07:36:03Z</time></trkpt><trkpt lat="44.76569394387119" lon="7.807270116902314"><ele>303.0</ele><time>2026-04-11T07:36:05Z</time></trkpt><trkpt lat="44.76576770388592" lon="7.807141918066446"><ele>303.0</ele><time>2026-04-11T07:36:07Z</time></trkpt><trkpt lat="44.76584198110778" lon="7.807008443658863"><ele>303.0</ele><time>2026-04-11T07:36:09Z</time></trkpt><trkpt lat="44.765910859090766" lon="7.806872568533087"><ele>303.0</ele><time>2026-04-11T07:36:11Z</time></trkpt><trkpt lat="44.76594345730687" lon="7.80671759623823"><ele>303.0</ele><time>2026-04-11T07:36:13Z</time></trkpt><trkpt lat="44.76593164803056" lon="7.806564084524817"><ele>303.2</ele><time>2026-04-11T07:36:15Z</time></trkpt><trkpt lat="44.76592336308968" lon="7.80647290984692"><ele>303.4</ele><time>2026-04-11T07:36:16Z</time></trkpt><trkpt lat="44.7659435584162" lon="7.80633109888265"><ele>303.59999999999997</ele><time>2026-04-11T07:36:18Z</time></trkpt><trkpt lat="44.766027698649246" lon="7.8062070126232905"><ele>303.8</ele><time>2026-04-11T07:36:20Z</time></trkpt><trkpt lat="44.76611613752278" lon="7.806083571764"><ele>304.0</ele><time>2026-04-11T07:36:22Z</time></trkpt><trkpt lat="44.76615878076718" lon="7.806017986368683"><ele>303.66666666666663</ele><time>2026-04-11T07:36:23Z</time></trkpt><trkpt lat="44.766202228605145" lon="7.8059451680121255"><ele>303.3333333333333</ele><time>2026-04-11T07:36:24Z</time></trkpt><trkpt lat="44.766292758021564" lon="7.8058108936688155"><ele>303.0</ele><time>2026-04-11T07:36:26Z</time></trkpt><trkpt lat="44.766340049788255" lon="7.805739210331035"><ele>302.6666666666667</ele><time>2026-04-11T07:36:27Z</time></trkpt><trkpt lat="44.766382753943304" lon="7.8056710599730135"><ele>302.33333333333337</ele><time>2026-04-11T07:36:28Z</time></trkpt><trkpt lat="44.76642969582836" lon="7.805596580491886"><ele>302.0</ele><time>2026-04-11T07:36:29Z</time></trkpt><trkpt lat="44.766517630313786" lon="7.805460771776425"><ele>302.00000000000006</ele><time>2026-04-11T07:36:31Z</time></trkpt><trkpt lat="44.766570474487295" lon="7.805407559887549"><ele>302.0</ele><time>2026-04-11T07:36:32Z</time></trkpt><trkpt lat="44.76663487960979" lon="7.8053887055341145"><ele>302.0</ele><time>2026-04-11T07:36:33Z</time></trkpt><trkpt lat="44.76669311357312" lon="7.805429305906158"><ele>302.0</ele><time>2026-04-11T07:36:34Z</time></trkpt><trkpt lat="44.76674434566428" lon="7.805482986445121"><ele>302.0</ele><time>2026-04-11T07:36:35Z</time></trkpt><trkpt lat="44.76679501006554" lon="7.8055463897575645"><ele>302.00000000000006</ele><time>2026-04-11T07:36:36Z</time></trkpt><trkpt lat="44.766861599863184" lon="7.805600216058598"><ele>302.0</ele><time>2026-04-11T07:36:37Z</time></trkpt><trkpt lat="44.76693208170105" lon="7.805605680337854"><ele>301.5</ele><time>2026-04-11T07:36:38Z</time></trkpt><trkpt lat="44.76700616468137" lon="7.80556632008759"><ele>301.0</ele><time>2026-04-11T07:36:39Z</time></trkpt><trkpt lat="44.76706287576412" lon="7.805491589346884"><ele>300.5</ele><time>2026-04-11T07:36:40Z</time></trkpt><trkpt lat="44.76713018447103" lon="7.805417022441918"><ele>300.0</ele><time>2026-04-11T07:36:41Z</time></trkpt><trkpt lat="44.767184368956826" lon="7.8053477475148405"><ele>299.5</ele><time>2026-04-11T07:36:42Z</time></trkpt><trkpt lat="44.76724472217189" lon="7.8052805011205"><ele>299.0</ele><time>2026-04-11T07:36:43Z</time></trkpt><trkpt lat="44.767304044396916" lon="7.805215678178545"><ele>299.0</ele><time>2026-04-11T07:36:44Z</time></trkpt><trkpt lat="44.767365160281315" lon="7.805153980930703"><ele>299.0</ele><time>2026-04-11T07:36:45Z</time></trkpt><trkpt lat="44.767423583803385" lon="7.805093968356004"><ele>299.0</ele><time>2026-04-11T07:36:46Z</time></trkpt><trkpt lat="44.76748258471128" lon="7.805023711123809"><ele>299.0</ele><time>2026-04-11T07:36:47Z</time></trkpt><trkpt lat="44.76754133531654" lon="7.804967965777806"><ele>299.0</ele><time>2026-04-11T07:36:48Z</time></trkpt><trkpt lat="44.76759518866718" lon="7.804909200413362"><ele>299.0</ele><time>2026-04-11T07:36:49Z</time></trkpt><trkpt lat="44.767649454147445" lon="7.804854176137741"><ele>299.0</ele><time>2026-04-11T07:36:50Z</time></trkpt><trkpt lat="44.767697351947376" lon="7.804795854305704"><ele>299.0</ele><time>2026-04-11T07:36:51Z</time></trkpt><trkpt lat="44.76778201548899" lon="7.804696297396644"><ele>299.0</ele><time>2026-04-11T07:36:53Z</time></trkpt><trkpt lat="44.76785869517099" lon="7.804596567289336"><ele>299.0</ele><time>2026-04-11T07:36:55Z</time></trkpt><trkpt lat="44.76792285110594" lon="7.80447311197157"><ele>299.0</ele><time>2026-04-11T07:36:57Z</time></trkpt><trkpt lat="44.76796922209849" lon="7.804332192109418"><ele>299.0</ele><time>2026-04-11T07:36:59Z</time></trkpt><trkpt lat="44.76799139478726" lon="7.804233939292467"><ele>299.0</ele><time>2026-04-11T07:37:00Z</time></trkpt><trkpt lat="44.768014817239816" lon="7.804133750545447"><ele>299.0</ele><time>2026-04-11T07:37:01Z</time></trkpt><trkpt lat="44.76803620585653" lon="7.8040442722280545"><ele>299.0</ele><time>2026-04-11T07:37:02Z</time></trkpt><trkpt lat="44.76805507527547" lon="7.803943344255051"><ele>299.0</ele><time>2026-04-11T07:37:03Z</time></trkpt><trkpt lat="44.76807598486497" lon="7.8038526823096435"><ele>299.0</ele><time>2026-04-11T07:37:04Z</time></trkpt><trkpt lat="44.76809712192538" lon="7.803757017868355"><ele>299.0</ele><time>2026-04-11T07:37:05Z</time></trkpt><trkpt lat="44.768115308023496" lon="7.803659906664483"><ele>299.0</ele><time>2026-04-11T07:37:06Z</time></trkpt><trkpt lat="44.76813282651407" lon="7.8035584031038905"><ele>298.85714285714283</ele><time>2026-04-11T07:37:07Z</time></trkpt><trkpt lat="44.76814037684184" lon="7.803461961882009"><ele>298.7142857142857</ele><time>2026-04-11T07:37:08Z</time></trkpt><trkpt lat="44.76815158178742" lon="7.803355903663528"><ele>298.57142857142856</ele><time>2026-04-11T07:37:09Z</time></trkpt><trkpt lat="44.768173388475816" lon="7.803264082831375"><ele>298.42857142857144</ele><time>2026-04-11T07:37:10Z</time></trkpt><trkpt lat="44.768192019751076" lon="7.803173692420601"><ele>298.2857142857143</ele><time>2026-04-11T07:37:11Z</time></trkpt><trkpt lat="44.768201755201154" lon="7.80308257897458"><ele>298.1428571428571</ele><time>2026-04-11T07:37:12Z</time></trkpt><trkpt lat="44.76821382320168" lon="7.802994102601862"><ele>298.0</ele><time>2026-04-11T07:37:13Z</time></trkpt><trkpt lat="44.768226656828745" lon="7.802905614277172"><ele>298.0</ele><time>2026-04-11T07:37:14Z</time></trkpt><trkpt lat="44.76826517704631" lon="7.80282707175498"><ele>298.0</ele><time>2026-04-11T07:37:15Z</time></trkpt><trkpt lat="44.76831632620883" lon="7.802757301300866"><ele>298.0</ele><time>2026-04-11T07:37:16Z</time></trkpt><trkpt lat="44.76837857109292" lon="7.802731562115009"><ele>298.0</ele><time>2026-04-11T07:37:17Z</time></trkpt><trkpt lat="44.768451160194346" lon="7.802720286069417"><ele>298.0</ele><time>2026-04-11T07:37:18Z</time></trkpt><trkpt lat="44.76852136843463" lon="7.802728745421781"><ele>298.0</ele><time>2026-04-11T07:37:19Z</time></trkpt><trkpt lat="44.76864043507976" lon="7.802685869730587"><ele>298.0</ele><time>2026-04-11T07:37:21Z</time></trkpt><trkpt lat="44.76868213089771" lon="7.802614614561979"><ele>298.0</ele><time>2026-04-11T07:37:22Z</time></trkpt><trkpt lat="44.768702796454434" lon="7.802518007761948"><ele>298.0</ele><time>2026-04-11T07:37:23Z</time></trkpt><trkpt lat="44.76870359345718" lon="7.802422004807828"><ele>298.0</ele><time>2026-04-11T07:37:24Z</time></trkpt><trkpt lat="44.76871148089181" lon="7.802318356846397"><ele>298.0</ele><time>2026-04-11T07:37:25Z</time></trkpt><trkpt lat="44.76871374148258" lon="7.8022186253182895"><ele>298.0</ele><time>2026-04-11T07:37:26Z</time></trkpt><trkpt lat="44.768724689266406" lon="7.8021186623209555"><ele>298.0</ele><time>2026-04-11T07:37:27Z</time></trkpt><trkpt lat="44.76873813770634" lon="7.802016750593569"><ele>298.0</ele><time>2026-04-11T07:37:28Z</time></trkpt><trkpt lat="44.768751632438985" lon="7.801914517473678"><ele>298.0</ele><time>2026-04-11T07:37:29Z</time></trkpt><trkpt lat="44.76876441247353" lon="7.801820554885589"><ele>298.0</ele><time>2026-04-11T07:37:30Z</time></trkpt><trkpt lat="44.76877496020732" lon="7.80172299922329"><ele>298.0</ele><time>2026-04-11T07:37:31Z</time></trkpt><trkpt lat="44.768793121464945" lon="7.801618139093984"><ele>298.0</ele><time>2026-04-11T07:37:32Z</time></trkpt><trkpt lat="44.768805474439404" lon="7.801527147963185"><ele>298.0</ele><time>2026-04-11T07:37:33Z</time></trkpt><trkpt lat="44.768819134504696" lon="7.801429268253623"><ele>298.0</ele><time>2026-04-11T07:37:34Z</time></trkpt><trkpt lat="44.76883326759529" lon="7.801342567018315"><ele>297.66666666666663</ele><time>2026-04-11T07:37:35Z</time></trkpt><trkpt lat="44.76884412472097" lon="7.801254345039787"><ele>297.3333333333333</ele><time>2026-04-11T07:37:35.999Z</time></trkpt><trkpt lat="44.76886575703976" lon="7.801094856704387"><ele>297.0</ele><time>2026-04-11T07:37:37.999Z</time></trkpt><trkpt lat="44.768893369368264" lon="7.8009288939148975"><ele>296.6666666666667</ele><time>2026-04-11T07:37:39.999Z</time></trkpt><trkpt lat="44.76891155551819" lon="7.800840992316695"><ele>296.33333333333337</ele><time>2026-04-11T07:37:40.999Z</time></trkpt><trkpt lat="44.76892733468057" lon="7.800751088689399"><ele>296.0</ele><time>2026-04-11T07:37:41.999Z</time></trkpt><trkpt lat="44.76894632536176" lon="7.800652029293416"><ele>296.0</ele><time>2026-04-11T07:37:42.999Z</time></trkpt><trkpt lat="44.768968608238715" lon="7.800560131903292"><ele>296.0</ele><time>2026-04-11T07:37:43.999Z</time></trkpt><trkpt lat="44.768990957875275" lon="7.800467390253646"><ele>296.0</ele><time>2026-04-11T07:37:44.999Z</time></trkpt><trkpt lat="44.7690172453827" lon="7.800372840914482"><ele>296.0</ele><time>2026-04-11T07:37:45.999Z</time></trkpt><trkpt lat="44.76903580553769" lon="7.800275919538974"><ele>296.0</ele><time>2026-04-11T07:37:46.999Z</time></trkpt><trkpt lat="44.76905972122947" lon="7.800177807575253"><ele>296.0</ele><time>2026-04-11T07:37:47.999Z</time></trkpt><trkpt lat="44.76908478142056" lon="7.800081160919902"><ele>296.0</ele><time>2026-04-11T07:37:48.999Z</time></trkpt><trkpt lat="44.76911304172336" lon="7.799987390418525"><ele>295.7142857142857</ele><time>2026-04-11T07:37:49.999Z</time></trkpt><trkpt lat="44.76913856853007" lon="7.79988778967907"><ele>295.42857142857144</ele><time>2026-04-11T07:37:50.999Z</time></trkpt><trkpt lat="44.76916354006422" lon="7.7997928289355904"><ele>295.1428571428571</ele><time>2026-04-11T07:37:51.999Z</time></trkpt><trkpt lat="44.76919435466778" lon="7.799702254029087"><ele>294.8571428571429</ele><time>2026-04-11T07:37:52.999Z</time></trkpt><trkpt lat="44.76922365641501" lon="7.799610706862709"><ele>294.57142857142856</ele><time>2026-04-11T07:37:53.999Z</time></trkpt><trkpt lat="44.76925416012948" lon="7.799521779793017"><ele>294.2857142857143</ele><time>2026-04-11T07:37:54.999Z</time></trkpt><trkpt lat="44.769284221612665" lon="7.799432511332035"><ele>294.0</ele><time>2026-04-11T07:37:55.999Z</time></trkpt><trkpt lat="44.769311054949945" lon="7.7993402619136045"><ele>293.8333333333333</ele><time>2026-04-11T07:37:56.999Z</time></trkpt><trkpt lat="44.769334335883805" lon="7.7992498313229275"><ele>293.6666666666667</ele><time>2026-04-11T07:37:57.999Z</time></trkpt><trkpt lat="44.76936384353206" lon="7.799158249387215"><ele>293.5</ele><time>2026-04-11T07:37:58.999Z</time></trkpt><trkpt lat="44.76939171112456" lon="7.799066173778769"><ele>293.33333333333337</ele><time>2026-04-11T07:37:59.999Z</time></trkpt><trkpt lat="44.76942174297648" lon="7.798979043726566"><ele>293.1666666666667</ele><time>2026-04-11T07:38:00.999Z</time></trkpt><trkpt lat="44.769451649665704" lon="7.7988938851154215"><ele>293.0</ele><time>2026-04-11T07:38:01.999Z</time></trkpt><trkpt lat="44.76951163628172" lon="7.798748411637736"><ele>292.83333333333337</ele><time>2026-04-11T07:38:03.999Z</time></trkpt><trkpt lat="44.769567582029495" lon="7.798615139852833"><ele>292.6666666666667</ele><time>2026-04-11T07:38:05.999Z</time></trkpt><trkpt lat="44.76965832006895" lon="7.7985440868815115"><ele>292.5</ele><time>2026-04-11T07:38:08Z</time></trkpt><trkpt lat="44.769720233887874" lon="7.798517689941559"><ele>292.3333333333333</ele><time>2026-04-11T07:38:09Z</time></trkpt><trkpt lat="44.76978443583346" lon="7.798489814212328"><ele>292.16666666666663</ele><time>2026-04-11T07:38:10Z</time></trkpt><trkpt lat="44.76984507000494" lon="7.79845677091084"><ele>292.0</ele><time>2026-04-11T07:38:11Z</time></trkpt><trkpt lat="44.76990801950572" lon="7.798424314597713"><ele>291.8333333333333</ele><time>2026-04-11T07:38:12Z</time></trkpt><trkpt lat="44.76997652534291" lon="7.79838733316711"><ele>291.66666666666663</ele><time>2026-04-11T07:38:13Z</time></trkpt><trkpt lat="44.770098419987434" lon="7.798331121724844"><ele>291.5</ele><time>2026-04-11T07:38:15Z</time></trkpt><trkpt lat="44.77015737172189" lon="7.798292841578212"><ele>291.3333333333333</ele><time>2026-04-11T07:38:16Z</time></trkpt><trkpt lat="44.770219526189095" lon="7.798249923727614"><ele>291.1666666666667</ele><time>2026-04-11T07:38:17Z</time></trkpt><trkpt lat="44.77028198688208" lon="7.798201583345953"><ele>291.0</ele><time>2026-04-11T07:38:18Z</time></trkpt><trkpt lat="44.770339384794646" lon="7.798147431613364"><ele>290.85714285714283</ele><time>2026-04-11T07:38:19Z</time></trkpt><trkpt lat="44.77039064169778" lon="7.798077094706885"><ele>290.71428571428567</ele><time>2026-04-11T07:38:20Z</time></trkpt><trkpt lat="44.77043253248062" lon="7.797999459994042"><ele>290.57142857142856</ele><time>2026-04-11T07:38:21Z</time></trkpt><trkpt lat="44.77046732079993" lon="7.7979076765894755"><ele>290.42857142857144</ele><time>2026-04-11T07:38:22Z</time></trkpt><trkpt lat="44.770495787614315" lon="7.797821118909782"><ele>290.28571428571433</ele><time>2026-04-11T07:38:23Z</time></trkpt><trkpt lat="44.770528341663294" lon="7.797731741031159"><ele>290.14285714285717</ele><time>2026-04-11T07:38:24Z</time></trkpt><trkpt lat="44.7705621093182" lon="7.797648362945204"><ele>290.0</ele><time>2026-04-11T07:38:25Z</time></trkpt><trkpt lat="44.77059405613258" lon="7.797569343752781"><ele>290.0</ele><time>2026-04-11T07:38:26Z</time></trkpt><trkpt lat="44.77062576861234" lon="7.79747757216716"><ele>290.0</ele><time>2026-04-11T07:38:27Z</time></trkpt><trkpt lat="44.77065092884416" lon="7.797385147314344"><ele>290.0</ele><time>2026-04-11T07:38:28Z</time></trkpt><trkpt lat="44.77067862656643" lon="7.797286691202651"><ele>290.0</ele><time>2026-04-11T07:38:29Z</time></trkpt><trkpt lat="44.77071231809074" lon="7.79718052994326"><ele>290.0</ele><time>2026-04-11T07:38:30Z</time></trkpt><trkpt lat="44.77074140135067" lon="7.7970785256709725"><ele>290.0</ele><time>2026-04-11T07:38:31Z</time></trkpt><trkpt lat="44.770777283266746" lon="7.796973768207309"><ele>290.0</ele><time>2026-04-11T07:38:32Z</time></trkpt><trkpt lat="44.77082198457376" lon="7.796876386455681"><ele>290.0</ele><time>2026-04-11T07:38:33Z</time></trkpt><trkpt lat="44.77085549417032" lon="7.7967790502536864"><ele>290.0</ele><time>2026-04-11T07:38:34Z</time></trkpt><trkpt lat="44.77088806337679" lon="7.796676742440079"><ele>290.0</ele><time>2026-04-11T07:38:35Z</time></trkpt><trkpt lat="44.77092580834853" lon="7.7965722648460805"><ele>290.0</ele><time>2026-04-11T07:38:36Z</time></trkpt><trkpt lat="44.77096308420478" lon="7.796467083471199"><ele>290.0</ele><time>2026-04-11T07:38:37Z</time></trkpt><trkpt lat="44.77099780854968" lon="7.796358741266459"><ele>289.1666666666667</ele><time>2026-04-11T07:38:38Z</time></trkpt><trkpt lat="44.77103547528618" lon="7.796251686449739"><ele>288.33333333333337</ele><time>2026-04-11T07:38:39Z</time></trkpt><trkpt lat="44.77107477013689" lon="7.796148360586746"><ele>287.5</ele><time>2026-04-11T07:38:40Z</time></trkpt><trkpt lat="44.771119495131465" lon="7.796040408060908"><ele>286.6666666666667</ele><time>2026-04-11T07:38:41Z</time></trkpt><trkpt lat="44.77115849228365" lon="7.795935454321939"><ele>285.8333333333333</ele><time>2026-04-11T07:38:42Z</time></trkpt><trkpt lat="44.7711939951831" lon="7.795822425595768"><ele>285.0</ele><time>2026-04-11T07:38:43Z</time></trkpt><trkpt lat="44.77122703076299" lon="7.795716556462815"><ele>284.8333333333333</ele><time>2026-04-11T07:38:44Z</time></trkpt><trkpt lat="44.77125783855299" lon="7.795619852881301"><ele>284.6666666666667</ele><time>2026-04-11T07:38:45Z</time></trkpt><trkpt lat="44.77127705077425" lon="7.79551963977097"><ele>284.5</ele><time>2026-04-11T07:38:46Z</time></trkpt><trkpt lat="44.771322026081435" lon="7.795435134859594"><ele>284.33333333333337</ele><time>2026-04-11T07:38:47Z</time></trkpt><trkpt lat="44.7712997514346" lon="7.795287039676166"><ele>284.1666666666667</ele><time>2026-04-11T07:38:48Z</time></trkpt><trkpt lat="44.77129133441664" lon="7.7951636842859084"><ele>284.0</ele><time>2026-04-11T07:38:49Z</time></trkpt><trkpt lat="44.77127092903901" lon="7.795035872421324"><ele>283.8</ele><time>2026-04-11T07:38:50Z</time></trkpt><trkpt lat="44.77124208663338" lon="7.794909605002704"><ele>283.59999999999997</ele><time>2026-04-11T07:38:51Z</time></trkpt><trkpt lat="44.77120190536708" lon="7.794791797202848"><ele>283.4</ele><time>2026-04-11T07:38:52Z</time></trkpt><trkpt lat="44.77115420497204" lon="7.794677653164586"><ele>283.2</ele><time>2026-04-11T07:38:53Z</time></trkpt><trkpt lat="44.77108603459916" lon="7.7945762890042145"><ele>283.0</ele><time>2026-04-11T07:38:54Z</time></trkpt><trkpt lat="44.77101926995957" lon="7.794481606839337"><ele>283.0</ele><time>2026-04-11T07:38:55Z</time></trkpt><trkpt lat="44.77095539513174" lon="7.79438442606942"><ele>283.0</ele><time>2026-04-11T07:38:56Z</time></trkpt><trkpt lat="44.770905113772265" lon="7.794274393527755"><ele>283.0</ele><time>2026-04-11T07:38:57Z</time></trkpt><trkpt lat="44.77087764901872" lon="7.794148835710435"><ele>283.0</ele><time>2026-04-11T07:38:58Z</time></trkpt><trkpt lat="44.77087976013157" lon="7.79401784692835"><ele>283.0</ele><time>2026-04-11T07:38:59Z</time></trkpt><trkpt lat="44.77093253195374" lon="7.793905354071657"><ele>282.3333333333333</ele><time>2026-04-11T07:39:00Z</time></trkpt><trkpt lat="44.770987258539556" lon="7.793803823504031"><ele>281.66666666666663</ele><time>2026-04-11T07:39:01Z</time></trkpt><trkpt lat="44.77105033675903" lon="7.793715194186418"><ele>281.0</ele><time>2026-04-11T07:39:02Z</time></trkpt><trkpt lat="44.77110281910201" lon="7.793616887939902"><ele>280.3333333333333</ele><time>2026-04-11T07:39:03Z</time></trkpt><trkpt lat="44.7711658216917" lon="7.793537453685712"><ele>279.6666666666667</ele><time>2026-04-11T07:39:04Z</time></trkpt><trkpt lat="44.77122530605214" lon="7.793450764641771"><ele>279.0</ele><time>2026-04-11T07:39:05Z</time></trkpt><trkpt lat="44.771276242892505" lon="7.793361467915366"><ele>278.3333333333333</ele><time>2026-04-11T07:39:06Z</time></trkpt><trkpt lat="44.771327520599876" lon="7.7932787810004855"><ele>277.6666666666667</ele><time>2026-04-11T07:39:07Z</time></trkpt><trkpt lat="44.771380358200254" lon="7.793209561686712"><ele>277.0</ele><time>2026-04-11T07:39:08Z</time></trkpt><trkpt lat="44.77148432101114" lon="7.793138062508926"><ele>276.33333333333337</ele><time>2026-04-11T07:39:10Z</time></trkpt><trkpt lat="44.771527651665444" lon="7.79326833804528"><ele>275.6666666666667</ele><time>2026-04-11T07:39:12Z</time></trkpt><trkpt lat="44.771549463058605" lon="7.793364837912886"><ele>275.0</ele><time>2026-04-11T07:39:13Z</time></trkpt><trkpt lat="44.771571077586046" lon="7.793453992007955"><ele>275.33333333333337</ele><time>2026-04-11T07:39:14Z</time></trkpt><trkpt lat="44.7716272057111" lon="7.793610983765092"><ele>275.6666666666667</ele><time>2026-04-11T07:39:16Z</time></trkpt><trkpt lat="44.77165599920402" lon="7.793694426711813"><ele>276.0</ele><time>2026-04-11T07:39:17Z</time></trkpt><trkpt lat="44.771675397968764" lon="7.793786704008984"><ele>276.3333333333333</ele><time>2026-04-11T07:39:18Z</time></trkpt><trkpt lat="44.771716605917646" lon="7.793865991619597"><ele>276.66666666666663</ele><time>2026-04-11T07:39:19Z</time></trkpt><trkpt lat="44.771759538991645" lon="7.793934441308743"><ele>277.0</ele><time>2026-04-11T07:39:20Z</time></trkpt><trkpt lat="44.771847243380414" lon="7.794042455153426"><ele>277.2</ele><time>2026-04-11T07:39:22Z</time></trkpt><trkpt lat="44.77193125614614" lon="7.794166005625085"><ele>277.4</ele><time>2026-04-11T07:39:24Z</time></trkpt><trkpt lat="44.7719836316054" lon="7.794231083876919"><ele>277.6</ele><time>2026-04-11T07:39:25Z</time></trkpt><trkpt lat="44.77207275755713" lon="7.794353019337417"><ele>277.8</ele><time>2026-04-11T07:39:27Z</time></trkpt><trkpt lat="44.772153630565086" lon="7.79447048123647"><ele>278.0</ele><time>2026-04-11T07:39:29Z</time></trkpt><trkpt lat="44.77223322888789" lon="7.794591014463308"><ele>278.0</ele><time>2026-04-11T07:39:30.999Z</time></trkpt><trkpt lat="44.77229588121581" lon="7.794696441951301"><ele>278.0</ele><time>2026-04-11T07:39:32.999Z</time></trkpt><trkpt lat="44.77236219308909" lon="7.794805392086554"><ele>278.0</ele><time>2026-04-11T07:39:34.999Z</time></trkpt><trkpt lat="44.772426646812775" lon="7.794906234506176"><ele>278.0</ele><time>2026-04-11T07:39:36.999Z</time></trkpt><trkpt lat="44.772462305608705" lon="7.795042580484647"><ele>278.0</ele><time>2026-04-11T07:39:38.999Z</time></trkpt><trkpt lat="44.77250385572975" lon="7.795177533692101"><ele>278.0</ele><time>2026-04-11T07:39:40.999Z</time></trkpt><trkpt lat="44.77253851712749" lon="7.795310057744234"><ele>278.0</ele><time>2026-04-11T07:39:42.999Z</time></trkpt><trkpt lat="44.772568946173095" lon="7.795443830711117"><ele>278.0</ele><time>2026-04-11T07:39:44.999Z</time></trkpt><trkpt lat="44.77260096532129" lon="7.795584594123826"><ele>278.0</ele><time>2026-04-11T07:39:46.999Z</time></trkpt><trkpt lat="44.772651412453996" lon="7.7957307058209855"><ele>278.0</ele><time>2026-04-11T07:39:48.999Z</time></trkpt><trkpt lat="44.77267479295" lon="7.795891836356393"><ele>278.0</ele><time>2026-04-11T07:39:50.999Z</time></trkpt><trkpt lat="44.772725291264884" lon="7.796040308909257"><ele>278.0</ele><time>2026-04-11T07:39:52.999Z</time></trkpt><trkpt lat="44.77275889116432" lon="7.796195936656992"><ele>278.0</ele><time>2026-04-11T07:39:54.999Z</time></trkpt><trkpt lat="44.77279090780639" lon="7.796359121432673"><ele>278.0</ele><time>2026-04-11T07:39:56.999Z</time></trkpt><trkpt lat="44.772807193162095" lon="7.796445146795947"><ele>278.0</ele><time>2026-04-11T07:39:57.999Z</time></trkpt><trkpt lat="44.77282936712632" lon="7.796532189828256"><ele>278.0</ele><time>2026-04-11T07:39:58.999Z</time></trkpt><trkpt lat="44.77285551994685" lon="7.796620279742526"><ele>278.0</ele><time>2026-04-11T07:39:59.999Z</time></trkpt><trkpt lat="44.7728777925948" lon="7.796703554021441"><ele>278.0</ele><time>2026-04-11T07:40:00.999Z</time></trkpt><trkpt lat="44.77289852878164" lon="7.79679074652302"><ele>278.0</ele><time>2026-04-11T07:40:01.999Z</time></trkpt><trkpt lat="44.77291667793393" lon="7.796878010761695"><ele>278.0</ele><time>2026-04-11T07:40:02.999Z</time></trkpt><trkpt lat="44.772935332851425" lon="7.7969637725695495"><ele>278.0</ele><time>2026-04-11T07:40:03.999Z</time></trkpt><trkpt lat="44.77295254370782" lon="7.797050953641796"><ele>278.0</ele><time>2026-04-11T07:40:04.999Z</time></trkpt><trkpt lat="44.77298363321491" lon="7.797212521153429"><ele>278.0</ele><time>2026-04-11T07:40:06.999Z</time></trkpt><trkpt lat="44.7730086278334" lon="7.797368084962087"><ele>278.0</ele><time>2026-04-11T07:40:08.999Z</time></trkpt><trkpt lat="44.77301980155354" lon="7.7975280156287"><ele>278.0</ele><time>2026-04-11T07:40:10.999Z</time></trkpt><trkpt lat="44.77300725314834" lon="7.797679830947039"><ele>278.0</ele><time>2026-04-11T07:40:13Z</time></trkpt><trkpt lat="44.77302560919769" lon="7.797838511336661"><ele>278.0</ele><time>2026-04-11T07:40:15Z</time></trkpt><trkpt lat="44.77304942779857" lon="7.7979939759880175"><ele>278.0</ele><time>2026-04-11T07:40:17Z</time></trkpt><trkpt lat="44.773072796423286" lon="7.798146224331395"><ele>278.0</ele><time>2026-04-11T07:40:19Z</time></trkpt><trkpt lat="44.77307957143545" lon="7.798287197804929"><ele>278.0</ele><time>2026-04-11T07:40:21Z</time></trkpt><trkpt lat="44.773080819168165" lon="7.798387092270801"><ele>278.0</ele><time>2026-04-11T07:40:22Z</time></trkpt><trkpt lat="44.77309177982765" lon="7.798553815786876"><ele>278.5</ele><time>2026-04-11T07:40:24Z</time></trkpt><trkpt lat="44.773104164224975" lon="7.798726770353581"><ele>279.0</ele><time>2026-04-11T07:40:26Z</time></trkpt><trkpt lat="44.77310733488725" lon="7.798895198950874"><ele>279.5</ele><time>2026-04-11T07:40:28Z</time></trkpt><trkpt lat="44.77311631951414" lon="7.799063995032067"><ele>280.0</ele><time>2026-04-11T07:40:30Z</time></trkpt><trkpt lat="44.773110862186186" lon="7.799227705184278"><ele>280.0</ele><time>2026-04-11T07:40:32Z</time></trkpt><trkpt lat="44.77311349605092" lon="7.799388663961473"><ele>280.0</ele><time>2026-04-11T07:40:34Z</time></trkpt><trkpt lat="44.77311128752063" lon="7.799546324139959"><ele>280.0</ele><time>2026-04-11T07:40:36Z</time></trkpt><trkpt lat="44.773107752803284" lon="7.7997130652954905"><ele>280.0</ele><time>2026-04-11T07:40:38Z</time></trkpt><trkpt lat="44.77310494783069" lon="7.799880026007228"><ele>280.0</ele><time>2026-04-11T07:40:40Z</time></trkpt><trkpt lat="44.77310165126326" lon="7.800043116921261"><ele>280.0</ele><time>2026-04-11T07:40:42Z</time></trkpt><trkpt lat="44.773108482477575" lon="7.800179751268721"><ele>280.0</ele><time>2026-04-11T07:40:44Z</time></trkpt><trkpt lat="44.77310358678624" lon="7.8002738469766655"><ele>280.0</ele><time>2026-04-11T07:40:45Z</time></trkpt><trkpt lat="44.77308336846559" lon="7.800423179135703"><ele>280.0</ele><time>2026-04-11T07:40:47Z</time></trkpt><trkpt lat="44.77307253067092" lon="7.800566983152847"><ele>280.4</ele><time>2026-04-11T07:40:49Z</time></trkpt><trkpt lat="44.77306088613004" lon="7.80069692293789"><ele>280.8</ele><time>2026-04-11T07:40:51Z</time></trkpt><trkpt lat="44.77304669025724" lon="7.800827142509775"><ele>281.2</ele><time>2026-04-11T07:40:53Z</time></trkpt><trkpt lat="44.77303097553038" lon="7.800952965613164"><ele>281.6</ele><time>2026-04-11T07:40:55Z</time></trkpt><trkpt lat="44.77301288932484" lon="7.801073984844321"><ele>282.0</ele><time>2026-04-11T07:40:57Z</time></trkpt><trkpt lat="44.77299426083164" lon="7.801197848441747"><ele>282.3333333333333</ele><time>2026-04-11T07:40:59Z</time></trkpt><trkpt lat="44.77297629975873" lon="7.8013172742704615"><ele>282.66666666666663</ele><time>2026-04-11T07:41:01Z</time></trkpt><trkpt lat="44.77297048057739" lon="7.801432447729785"><ele>283.0</ele><time>2026-04-11T07:41:03Z</time></trkpt><trkpt lat="44.773424614347014" lon="7.801599531417303"><ele>283.0</ele><time>2026-04-11T07:41:04Z</time></trkpt><trkpt lat="44.773488485676424" lon="7.8016810079370735"><ele>283.0</ele><time>2026-04-11T07:41:06Z</time></trkpt><trkpt lat="44.77356040015902" lon="7.801733121677849"><ele>283.0</ele><time>2026-04-11T07:41:08Z</time></trkpt><trkpt lat="44.7736367011948" lon="7.801758494100086"><ele>283.0</ele><time>2026-04-11T07:41:10Z</time></trkpt><trkpt lat="44.77371332565511" lon="7.801780599441408"><ele>283.0</ele><time>2026-04-11T07:41:12Z</time></trkpt><trkpt lat="44.773767495086695" lon="7.801853353483453"><ele>283.0</ele><time>2026-04-11T07:41:14Z</time></trkpt><trkpt lat="44.77377907243221" lon="7.801957785792651"><ele>285.16666666666663</ele><time>2026-04-11T07:41:16Z</time></trkpt><trkpt lat="44.77377274352669" lon="7.802075348549838"><ele>287.3333333333333</ele><time>2026-04-11T07:41:18Z</time></trkpt><trkpt lat="44.773764373929765" lon="7.802185745912778"><ele>289.5</ele><time>2026-04-11T07:41:20Z</time></trkpt><trkpt lat="44.77376487843827" lon="7.802289504386052"><ele>291.6666666666667</ele><time>2026-04-11T07:41:22Z</time></trkpt><trkpt lat="44.773767508866996" lon="7.8023945201218945"><ele>293.83333333333337</ele><time>2026-04-11T07:41:24Z</time></trkpt><trkpt lat="44.773775052332454" lon="7.802561581741746"><ele>296.0</ele><time>2026-04-11T07:41:26.999Z</time></trkpt><trkpt lat="44.77379195466654" lon="7.802655489847204"><ele>296.33333333333337</ele><time>2026-04-11T07:41:28.999Z</time></trkpt><trkpt lat="44.773813004999845" lon="7.802745804535802"><ele>296.6666666666667</ele><time>2026-04-11T07:41:30.999Z</time></trkpt><trkpt lat="44.77384519288208" lon="7.802832032550499"><ele>297.0</ele><time>2026-04-11T07:41:32.999Z</time></trkpt><trkpt lat="44.77390140393933" lon="7.802928050454978"><ele>297.3333333333333</ele><time>2026-04-11T07:41:35.999Z</time></trkpt><trkpt lat="44.773950839320676" lon="7.802999918573309"><ele>297.66666666666663</ele><time>2026-04-11T07:41:38.999Z</time></trkpt><trkpt lat="44.77400731858919" lon="7.80308017248408"><ele>298.0</ele><time>2026-04-11T07:41:41.999Z</time></trkpt><trkpt lat="44.77405864359888" lon="7.803160718562907"><ele>298.0</ele><time>2026-04-11T07:41:44.999Z</time></trkpt><trkpt lat="44.77410642482434" lon="7.8032203405774405"><ele>298.0</ele><time>2026-04-11T07:41:47.999Z</time></trkpt><trkpt lat="44.7741629916778" lon="7.80330969538211"><ele>298.0</ele><time>2026-04-11T07:41:50.999Z</time></trkpt><trkpt lat="44.77422286070465" lon="7.8033836261185066"><ele>298.0</ele><time>2026-04-11T07:41:53.999Z</time></trkpt><trkpt lat="44.774272338360724" lon="7.803442256223381"><ele>298.0</ele><time>2026-04-11T07:41:56.999Z</time></trkpt><trkpt lat="44.774330924341946" lon="7.803502080482911"><ele>298.0</ele><time>2026-04-11T07:41:59.999Z</time></trkpt><trkpt lat="44.77439030194469" lon="7.803543241984552"><ele>298.0</ele><time>2026-04-11T07:42:02.999Z</time></trkpt><trkpt lat="44.77445379136033" lon="7.803579752243579"><ele>299.16666666666663</ele><time>2026-04-11T07:42:05.999Z</time></trkpt><trkpt lat="44.77451751547588" lon="7.803597600759687"><ele>300.3333333333333</ele><time>2026-04-11T07:42:08.999Z</time></trkpt><trkpt lat="44.77459867620518" lon="7.803620955634317"><ele>301.5</ele><time>2026-04-11T07:42:12.999Z</time></trkpt><trkpt lat="44.77467221232818" lon="7.803655727694152"><ele>302.6666666666667</ele><time>2026-04-11T07:42:16.999Z</time></trkpt><trkpt lat="44.77475266615297" lon="7.803704255993937"><ele>303.83333333333337</ele><time>2026-04-11T07:42:21Z</time></trkpt><trkpt lat="44.77482901705182" lon="7.803750825688664"><ele>305.0</ele><time>2026-04-11T07:42:24Z</time></trkpt><trkpt lat="44.77491059304238" lon="7.803795390948519"><ele>305.0</ele><time>2026-04-11T07:42:27Z</time></trkpt><trkpt lat="44.774992761385924" lon="7.803841313830995"><ele>305.0</ele><time>2026-04-11T07:42:29Z</time></trkpt><trkpt lat="44.77505797577336" lon="7.803877117295156"><ele>305.0</ele><time>2026-04-11T07:42:31Z</time></trkpt><trkpt lat="44.7752273245583" lon="7.803965812037403"><ele>305.0</ele><time>2026-04-11T07:42:34Z</time></trkpt><trkpt lat="44.775316790459925" lon="7.804012163937544"><ele>305.0</ele><time>2026-04-11T07:42:36Z</time></trkpt><trkpt lat="44.775407505822265" lon="7.804054956264894"><ele>305.0</ele><time>2026-04-11T07:42:38Z</time></trkpt><trkpt lat="44.77549333168905" lon="7.804117616359941"><ele>305.0</ele><time>2026-04-11T07:42:40Z</time></trkpt><trkpt lat="44.77549268233635" lon="7.804259095567576"><ele>305.0</ele><time>2026-04-11T07:42:42Z</time></trkpt><trkpt lat="44.775437339812406" lon="7.804358309555417"><ele>305.0</ele><time>2026-04-11T07:42:44Z</time></trkpt><trkpt lat="44.77537754888268" lon="7.8044896443841605"><ele>305.0</ele><time>2026-04-11T07:42:46Z</time></trkpt><trkpt lat="44.77533231034753" lon="7.804636994736747"><ele>305.0</ele><time>2026-04-11T07:42:48Z</time></trkpt><trkpt lat="44.77530204908404" lon="7.804787810565841"><ele>305.0</ele><time>2026-04-11T07:42:50Z</time></trkpt><trkpt lat="44.775284171289755" lon="7.804949778982438"><ele>305.0</ele><time>2026-04-11T07:42:52Z</time></trkpt><trkpt lat="44.77529132139725" lon="7.80512328110846"><ele>305.0</ele><time>2026-04-11T07:42:54Z</time></trkpt><trkpt lat="44.77536180010009" lon="7.805265827903839"><ele>304.8</ele><time>2026-04-11T07:42:56Z</time></trkpt><trkpt lat="44.77542717425091" lon="7.8054198262334324"><ele>304.6</ele><time>2026-04-11T07:42:58Z</time></trkpt><trkpt lat="44.77544852961131" lon="7.805510230643625"><ele>304.4</ele><time>2026-04-11T07:42:59Z</time></trkpt><trkpt lat="44.77546985740491" lon="7.805670894315489"><ele>304.2</ele><time>2026-04-11T07:43:01Z</time></trkpt><trkpt lat="44.77548055131563" lon="7.805820021200208"><ele>304.0</ele><time>2026-04-11T07:43:03Z</time></trkpt><trkpt lat="44.775389281904374" lon="7.805945597424323"><ele>304.4</ele><time>2026-04-11T07:43:05Z</time></trkpt><trkpt lat="44.775308711331306" lon="7.806093933653796"><ele>304.79999999999995</ele><time>2026-04-11T07:43:07Z</time></trkpt><trkpt lat="44.77523251702643" lon="7.8062370432938275"><ele>305.20000000000005</ele><time>2026-04-11T07:43:09Z</time></trkpt><trkpt lat="44.775190249595134" lon="7.806316430798701"><ele>305.6</ele><time>2026-04-11T07:43:10Z</time></trkpt><trkpt lat="44.77514401436302" lon="7.806403270714528"><ele>306.0</ele><time>2026-04-11T07:43:11Z</time></trkpt><trkpt lat="44.77509948340101" lon="7.806486909648227"><ele>306.0</ele><time>2026-04-11T07:43:12Z</time></trkpt><trkpt lat="44.77505509542761" lon="7.80657027999664"><ele>306.0</ele><time>2026-04-11T07:43:13Z</time></trkpt><trkpt lat="44.77501484897092" lon="7.806645871677483"><ele>306.0</ele><time>2026-04-11T07:43:13.999Z</time></trkpt><trkpt lat="44.77497269180403" lon="7.806725052093676"><ele>306.0</ele><time>2026-04-11T07:43:14.999Z</time></trkpt><trkpt lat="44.77493451971762" lon="7.806796747663986"><ele>306.0</ele><time>2026-04-11T07:43:15.999Z</time></trkpt><trkpt lat="44.7748950778807" lon="7.80687104899754"><ele>306.0</ele><time>2026-04-11T07:43:16.999Z</time></trkpt><trkpt lat="44.77485507023156" lon="7.806946715999069"><ele>306.0</ele><time>2026-04-11T07:43:17.999Z</time></trkpt><trkpt lat="44.77478114182156" lon="7.807086537772833"><ele>306.0</ele><time>2026-04-11T07:43:19.999Z</time></trkpt><trkpt lat="44.774712535529034" lon="7.807216293743162"><ele>306.0</ele><time>2026-04-11T07:43:21.999Z</time></trkpt><trkpt lat="44.7746492587359" lon="7.8073373093959315"><ele>306.0</ele><time>2026-04-11T07:43:23.999Z</time></trkpt><trkpt lat="44.77458972061034" lon="7.807456342076148"><ele>306.0</ele><time>2026-04-11T07:43:25.999Z</time></trkpt><trkpt lat="44.77452705743148" lon="7.807588642005869"><ele>306.0</ele><time>2026-04-11T07:43:27.999Z</time></trkpt><trkpt lat="44.774469218330786" lon="7.8077171091093165"><ele>306.0</ele><time>2026-04-11T07:43:29.999Z</time></trkpt><trkpt lat="44.77441714464363" lon="7.807832061378574"><ele>306.0</ele><time>2026-04-11T07:43:31.999Z</time></trkpt><trkpt lat="44.77436664233107" lon="7.807943544883911"><ele>306.0</ele><time>2026-04-11T07:43:33.999Z</time></trkpt><trkpt lat="44.774313403959844" lon="7.808061068217996"><ele>306.0</ele><time>2026-04-11T07:43:35.999Z</time></trkpt><trkpt lat="44.77425767550515" lon="7.808184088372599"><ele>306.0</ele><time>2026-04-11T07:43:37.999Z</time></trkpt><trkpt lat="44.77419823586631" lon="7.808313568056044"><ele>306.0</ele><time>2026-04-11T07:43:39.999Z</time></trkpt><trkpt lat="44.77413796325287" lon="7.808438272264628"><ele>306.0</ele><time>2026-04-11T07:43:41.999Z</time></trkpt><trkpt lat="44.7740667293079" lon="7.808562564378498"><ele>306.0</ele><time>2026-04-11T07:43:43.999Z</time></trkpt><trkpt lat="44.77398388270521" lon="7.8086915955056195"><ele>306.0</ele><time>2026-04-11T07:43:45.999Z</time></trkpt><trkpt lat="44.77394072169945" lon="7.808756194100104"><ele>306.0</ele><time>2026-04-11T07:43:46.999Z</time></trkpt><trkpt lat="44.77389633394262" lon="7.808824672004784"><ele>306.0</ele><time>2026-04-11T07:43:47.999Z</time></trkpt><trkpt lat="44.77385377525689" lon="7.808892561029895"><ele>306.0</ele><time>2026-04-11T07:43:48.999Z</time></trkpt><trkpt lat="44.77381050595646" lon="7.808961583605303"><ele>306.0</ele><time>2026-04-11T07:43:49.999Z</time></trkpt><trkpt lat="44.77376854189718" lon="7.80902936093538"><ele>306.0</ele><time>2026-04-11T07:43:50.999Z</time></trkpt><trkpt lat="44.77372605173741" lon="7.809100333510813"><ele>306.0</ele><time>2026-04-11T07:43:51.999Z</time></trkpt><trkpt lat="44.77368365522259" lon="7.809172632733976"><ele>306.0</ele><time>2026-04-11T07:43:52.999Z</time></trkpt><trkpt lat="44.77364398301613" lon="7.809245606912307"><ele>306.0</ele><time>2026-04-11T07:43:53.999Z</time></trkpt><trkpt lat="44.773607210212326" lon="7.809320755790399"><ele>306.1428571428571</ele><time>2026-04-11T07:43:54.999Z</time></trkpt><trkpt lat="44.77357187481736" lon="7.809397614719397"><ele>306.2857142857143</ele><time>2026-04-11T07:43:55.999Z</time></trkpt><trkpt lat="44.773538111447394" lon="7.809476622533961"><ele>306.42857142857144</ele><time>2026-04-11T07:43:56.999Z</time></trkpt><trkpt lat="44.77350653562931" lon="7.809557392807543"><ele>306.57142857142856</ele><time>2026-04-11T07:43:57.999Z</time></trkpt><trkpt lat="44.7734762574102" lon="7.809635553829067"><ele>306.7142857142857</ele><time>2026-04-11T07:43:58.999Z</time></trkpt><trkpt lat="44.77344532069699" lon="7.809716199351743"><ele>306.85714285714283</ele><time>2026-04-11T07:43:59.999Z</time></trkpt><trkpt lat="44.77341465492565" lon="7.8097969415027615"><ele>307.0</ele><time>2026-04-11T07:44:00.999Z</time></trkpt><trkpt lat="44.77338347787309" lon="7.80987902987615"><ele>307.3333333333333</ele><time>2026-04-11T07:44:01.999Z</time></trkpt><trkpt lat="44.77332179436441" lon="7.810034927077542"><ele>307.66666666666663</ele><time>2026-04-11T07:44:03.999Z</time></trkpt><trkpt lat="44.77328980162589" lon="7.81011352034592"><ele>308.0</ele><time>2026-04-11T07:44:04.999Z</time></trkpt><trkpt lat="44.773256986877655" lon="7.8101941329692375"><ele>308.3333333333333</ele><time>2026-04-11T07:44:05.999Z</time></trkpt><trkpt lat="44.77322408079359" lon="7.810274969777164"><ele>308.6666666666667</ele><time>2026-04-11T07:44:06.999Z</time></trkpt><trkpt lat="44.77319224369778" lon="7.8103560309384585"><ele>309.0</ele><time>2026-04-11T07:44:07.999Z</time></trkpt><trkpt lat="44.77316068134058" lon="7.810435318243349"><ele>309.00000000000006</ele><time>2026-04-11T07:44:08.999Z</time></trkpt><trkpt lat="44.77312865674489" lon="7.810515766736634"><ele>309.0</ele><time>2026-04-11T07:44:09.999Z</time></trkpt><trkpt lat="44.773096486809216" lon="7.8105988156038375"><ele>309.0</ele><time>2026-04-11T07:44:10.999Z</time></trkpt><trkpt lat="44.77306529835776" lon="7.810681944826007"><ele>309.0</ele><time>2026-04-11T07:44:11.999Z</time></trkpt><trkpt lat="44.773034598667024" lon="7.810763771312212"><ele>309.0</ele><time>2026-04-11T07:44:12.999Z</time></trkpt><trkpt lat="44.77300559931716" lon="7.810845175846"><ele>309.00000000000006</ele><time>2026-04-11T07:44:13.999Z</time></trkpt><trkpt lat="44.772977386605845" lon="7.8109246233310445"><ele>309.0</ele><time>2026-04-11T07:44:14.999Z</time></trkpt><trkpt lat="44.77292053121119" lon="7.811087472062831"><ele>308.75</ele><time>2026-04-11T07:44:16.999Z</time></trkpt><trkpt lat="44.77287134226066" lon="7.811240403592912"><ele>308.5</ele><time>2026-04-11T07:44:18.999Z</time></trkpt><trkpt lat="44.772817374328" lon="7.811398278728028"><ele>308.25</ele><time>2026-04-11T07:44:20.999Z</time></trkpt><trkpt lat="44.77276107587844" lon="7.811560438990399"><ele>308.0</ele><time>2026-04-11T07:44:22.999Z</time></trkpt><trkpt lat="44.77270742408228" lon="7.811707568773702"><ele>308.4</ele><time>2026-04-11T07:44:25Z</time></trkpt><trkpt lat="44.77263540585654" lon="7.811845226960422"><ele>308.8</ele><time>2026-04-11T07:44:27Z</time></trkpt><trkpt lat="44.77259072653249" lon="7.8119085616103865"><ele>309.2</ele><time>2026-04-11T07:44:28Z</time></trkpt><trkpt lat="44.772499648839684" lon="7.812020113631517"><ele>309.6</ele><time>2026-04-11T07:44:30Z</time></trkpt><trkpt lat="44.77241828435158" lon="7.8121327551530815"><ele>310.0</ele><time>2026-04-11T07:44:32Z</time></trkpt><trkpt lat="44.7723669949746" lon="7.81219434037942"><ele>310.0</ele><time>2026-04-11T07:44:33Z</time></trkpt><trkpt lat="44.7723064540009" lon="7.812231137813939"><ele>310.0</ele><time>2026-04-11T07:44:34Z</time></trkpt><trkpt lat="44.772205938347334" lon="7.8123369801066405"><ele>310.0</ele><time>2026-04-11T07:44:36Z</time></trkpt><trkpt lat="44.77215340969132" lon="7.812392235319831"><ele>310.0</ele><time>2026-04-11T07:44:37Z</time></trkpt><trkpt lat="44.772108419935954" lon="7.812466208107325"><ele>310.0</ele><time>2026-04-11T07:44:38Z</time></trkpt><trkpt lat="44.77205496500079" lon="7.812521486771926"><ele>310.0</ele><time>2026-04-11T07:44:39Z</time></trkpt><trkpt lat="44.77200366976814" lon="7.812578475623473"><ele>310.0</ele><time>2026-04-11T07:44:40Z</time></trkpt><trkpt lat="44.771955780330075" lon="7.81264402539895"><ele>310.0</ele><time>2026-04-11T07:44:41Z</time></trkpt><trkpt lat="44.77191072791662" lon="7.812718034735951"><ele>310.0</ele><time>2026-04-11T07:44:42Z</time></trkpt><trkpt lat="44.771853746289224" lon="7.812783090370972"><ele>310.0</ele><time>2026-04-11T07:44:43Z</time></trkpt><trkpt lat="44.771812445061656" lon="7.812871500639267"><ele>310.0</ele><time>2026-04-11T07:44:44Z</time></trkpt><trkpt lat="44.77179480312666" lon="7.812977730169983"><ele>310.0</ele><time>2026-04-11T07:44:45Z</time></trkpt><trkpt lat="44.77176637052641" lon="7.813074075102736"><ele>310.0</ele><time>2026-04-11T07:44:46Z</time></trkpt><trkpt lat="44.771731277891405" lon="7.813171082576976"><ele>310.5</ele><time>2026-04-11T07:44:47Z</time></trkpt><trkpt lat="44.771712516134855" lon="7.813277689856611"><ele>311.0</ele><time>2026-04-11T07:44:48Z</time></trkpt><trkpt lat="44.77169603147512" lon="7.813382691348041"><ele>311.5</ele><time>2026-04-11T07:44:49Z</time></trkpt><trkpt lat="44.77168225997249" lon="7.81349110298556"><ele>312.0</ele><time>2026-04-11T07:44:50Z</time></trkpt><trkpt lat="44.77166874558273" lon="7.813600099492161"><ele>312.5</ele><time>2026-04-11T07:44:51Z</time></trkpt><trkpt lat="44.77165659020301" lon="7.813711747213564"><ele>313.0</ele><time>2026-04-11T07:44:52Z</time></trkpt><trkpt lat="44.77166811502409" lon="7.813826856887928"><ele>313.0</ele><time>2026-04-11T07:44:53Z</time></trkpt><trkpt lat="44.77166801146099" lon="7.813934559444238"><ele>313.0</ele><time>2026-04-11T07:44:54Z</time></trkpt><trkpt lat="44.77167860111395" lon="7.814040857620327"><ele>313.0</ele><time>2026-04-11T07:44:55Z</time></trkpt><trkpt lat="44.77169972594804" lon="7.814142704617001"><ele>313.0</ele><time>2026-04-11T07:44:56Z</time></trkpt><trkpt lat="44.771731776528846" lon="7.814240654951234"><ele>313.0</ele><time>2026-04-11T07:44:57Z</time></trkpt><trkpt lat="44.771765848606286" lon="7.814332206440082"><ele>313.0</ele><time>2026-04-11T07:44:58Z</time></trkpt><trkpt lat="44.77180139825464" lon="7.814418492953577"><ele>313.0</ele><time>2026-04-11T07:44:59Z</time></trkpt><trkpt lat="44.77183474111019" lon="7.814504717006293"><ele>313.1428571428571</ele><time>2026-04-11T07:45:00Z</time></trkpt><trkpt lat="44.771849916871965" lon="7.814603958752089"><ele>313.2857142857143</ele><time>2026-04-11T07:45:01Z</time></trkpt><trkpt lat="44.7718699102023" lon="7.814692390318044"><ele>313.42857142857144</ele><time>2026-04-11T07:45:02Z</time></trkpt><trkpt lat="44.771894837301474" lon="7.814783127430113"><ele>313.57142857142856</ele><time>2026-04-11T07:45:03Z</time></trkpt><trkpt lat="44.77188404197968" lon="7.814876725564102"><ele>313.7142857142857</ele><time>2026-04-11T07:45:04Z</time></trkpt><trkpt lat="44.77186065795411" lon="7.814962202813649"><ele>313.85714285714283</ele><time>2026-04-11T07:45:05Z</time></trkpt><trkpt lat="44.771831706011454" lon="7.815043551024752"><ele>314.0</ele><time>2026-04-11T07:45:06Z</time></trkpt><trkpt lat="44.771778975707264" lon="7.815100511412125"><ele>314.1666666666667</ele><time>2026-04-11T07:45:07Z</time></trkpt><trkpt lat="44.771683159417684" lon="7.815185131445112"><ele>314.33333333333337</ele><time>2026-04-11T07:45:09Z</time></trkpt><trkpt lat="44.771577977932544" lon="7.8152841534542485"><ele>314.5</ele><time>2026-04-11T07:45:11Z</time></trkpt><trkpt lat="44.77152285669248" lon="7.815336046749601"><ele>314.6666666666667</ele><time>2026-04-11T07:45:12Z</time></trkpt><trkpt lat="44.77146822844016" lon="7.815387475942804"><ele>314.8333333333333</ele><time>2026-04-11T07:45:13Z</time></trkpt><trkpt lat="44.771414188195756" lon="7.815436225742449"><ele>315.0</ele><time>2026-04-11T07:45:14Z</time></trkpt><trkpt lat="44.7713552848822" lon="7.815489048721173"><ele>315.0</ele><time>2026-04-11T07:45:15Z</time></trkpt><trkpt lat="44.77130076370799" lon="7.815537941903019"><ele>315.0</ele><time>2026-04-11T07:45:16Z</time></trkpt><trkpt lat="44.77124686357036" lon="7.8155894710277245"><ele>315.0</ele><time>2026-04-11T07:45:17Z</time></trkpt><trkpt lat="44.7711945186432" lon="7.8156411521612705"><ele>315.0</ele><time>2026-04-11T07:45:18Z</time></trkpt><trkpt lat="44.77114162994945" lon="7.815694557843523"><ele>315.0</ele><time>2026-04-11T07:45:19Z</time></trkpt><trkpt lat="44.771046017010036" lon="7.8157987551165675"><ele>315.0</ele><time>2026-04-11T07:45:21Z</time></trkpt><trkpt lat="44.77099279845811" lon="7.8158628615219605"><ele>315.14285714285717</ele><time>2026-04-11T07:45:22Z</time></trkpt><trkpt lat="44.77094416675343" lon="7.81593181365377"><ele>315.2857142857143</ele><time>2026-04-11T07:45:22.999Z</time></trkpt><trkpt lat="44.77090572639269" lon="7.816004277265327"><ele>315.42857142857144</ele><time>2026-04-11T07:45:23.999Z</time></trkpt><trkpt lat="44.77087457446151" lon="7.816095949260767"><ele>315.57142857142856</ele><time>2026-04-11T07:45:24.999Z</time></trkpt><trkpt lat="44.77085745161191" lon="7.81619838210302"><ele>315.7142857142857</ele><time>2026-04-11T07:45:25.999Z</time></trkpt><trkpt lat="44.77086385325581" lon="7.816305793065642"><ele>315.8571428571429</ele><time>2026-04-11T07:45:26.999Z</time></trkpt><trkpt lat="44.7709045218314" lon="7.816401393040565"><ele>316.0</ele><time>2026-04-11T07:45:27.999Z</time></trkpt><trkpt lat="44.77091773256506" lon="7.816490588984675"><ele>316.00000000000006</ele><time>2026-04-11T07:45:28.999Z</time></trkpt><trkpt lat="44.77094225885816" lon="7.816576551565157"><ele>316.0</ele><time>2026-04-11T07:45:29.999Z</time></trkpt><trkpt lat="44.770957083351874" lon="7.816670648741304"><ele>316.0</ele><time>2026-04-11T07:45:30.999Z</time></trkpt><trkpt lat="44.770985527963695" lon="7.816760527896522"><ele>316.0</ele><time>2026-04-11T07:45:31.999Z</time></trkpt><trkpt lat="44.77101660901926" lon="7.816848127774657"><ele>316.0</ele><time>2026-04-11T07:45:32.999Z</time></trkpt><trkpt lat="44.77104569841785" lon="7.816930114303857"><ele>316.00000000000006</ele><time>2026-04-11T07:45:33.999Z</time></trkpt><trkpt lat="44.77107601069673" lon="7.817015547435887"><ele>316.0</ele><time>2026-04-11T07:45:34.999Z</time></trkpt><trkpt lat="44.77110759524001" lon="7.817099813409244"><ele>316.00000000000006</ele><time>2026-04-11T07:45:35.999Z</time></trkpt><trkpt lat="44.771140435186865" lon="7.817183262881528"><ele>316.0</ele><time>2026-04-11T07:45:36.999Z</time></trkpt><trkpt lat="44.77117981983238" lon="7.8172686963351365"><ele>316.0</ele><time>2026-04-11T07:45:37.999Z</time></trkpt><trkpt lat="44.77121865701651" lon="7.817351192513405"><ele>316.0</ele><time>2026-04-11T07:45:38.999Z</time></trkpt><trkpt lat="44.77125803703325" lon="7.817434841747781"><ele>316.0</ele><time>2026-04-11T07:45:39.999Z</time></trkpt><trkpt lat="44.77129629599053" lon="7.81751610967134"><ele>316.00000000000006</ele><time>2026-04-11T07:45:40.999Z</time></trkpt><trkpt lat="44.77133401115422" lon="7.8175962225100415"><ele>316.0</ele><time>2026-04-11T07:45:41.999Z</time></trkpt><trkpt lat="44.77137374815227" lon="7.817680630028336"><ele>316.00000000000006</ele><time>2026-04-11T07:45:42.999Z</time></trkpt><trkpt lat="44.77141236224976" lon="7.8177626523345385"><ele>316.0</ele><time>2026-04-11T07:45:43.999Z</time></trkpt><trkpt lat="44.77145078077199" lon="7.817846964137091"><ele>316.0</ele><time>2026-04-11T07:45:44.999Z</time></trkpt><trkpt lat="44.77148775913302" lon="7.817929454319556"><ele>316.0</ele><time>2026-04-11T07:45:45.999Z</time></trkpt><trkpt lat="44.77153687911126" lon="7.818000661131553"><ele>316.0</ele><time>2026-04-11T07:45:46.999Z</time></trkpt><trkpt lat="44.771569736618375" lon="7.818085884075843"><ele>316.00000000000006</ele><time>2026-04-11T07:45:47.999Z</time></trkpt><trkpt lat="44.771605799301796" lon="7.818178437677464"><ele>316.0</ele><time>2026-04-11T07:45:48.999Z</time></trkpt><trkpt lat="44.77161553723874" lon="7.81827855570058"><ele>316.00000000000006</ele><time>2026-04-11T07:45:49.999Z</time></trkpt><trkpt lat="44.77163805214731" lon="7.818368241497922"><ele>316.0</ele><time>2026-04-11T07:45:50.999Z</time></trkpt><trkpt lat="44.77165881792108" lon="7.818462558623201"><ele>316.0</ele><time>2026-04-11T07:45:51.999Z</time></trkpt><trkpt lat="44.77167955782817" lon="7.818559842389891"><ele>316.0</ele><time>2026-04-11T07:45:52.999Z</time></trkpt><trkpt lat="44.7717008899378" lon="7.818659884384173"><ele>316.0</ele><time>2026-04-11T07:45:53.999Z</time></trkpt><trkpt lat="44.77172131243603" lon="7.818755660540416"><ele>316.00000000000006</ele><time>2026-04-11T07:45:54.999Z</time></trkpt><trkpt lat="44.771756258368356" lon="7.818848880891761"><ele>316.0</ele><time>2026-04-11T07:45:55.999Z</time></trkpt><trkpt lat="44.77176225421353" lon="7.818952731154743"><ele>316.28571428571433</ele><time>2026-04-11T07:45:56.999Z</time></trkpt><trkpt lat="44.77178217393839" lon="7.819051235280779"><ele>316.57142857142856</ele><time>2026-04-11T07:45:57.999Z</time></trkpt><trkpt lat="44.771816845412026" lon="7.819143406218171"><ele>316.8571428571429</ele><time>2026-04-11T07:45:58.999Z</time></trkpt><trkpt lat="44.771836382534225" lon="7.819239407914386"><ele>317.14285714285717</ele><time>2026-04-11T07:45:59.999Z</time></trkpt><trkpt lat="44.77185791195137" lon="7.81933411352333"><ele>317.42857142857144</ele><time>2026-04-11T07:46:00.999Z</time></trkpt><trkpt lat="44.77186269252858" lon="7.819433732634917"><ele>317.7142857142857</ele><time>2026-04-11T07:46:01.999Z</time></trkpt><trkpt lat="44.771883207838535" lon="7.819523958313297"><ele>318.0</ele><time>2026-04-11T07:46:02.999Z</time></trkpt><trkpt lat="44.77190331504463" lon="7.819615370421268"><ele>318.6666666666667</ele><time>2026-04-11T07:46:03.999Z</time></trkpt><trkpt lat="44.77192183885743" lon="7.819702225986416"><ele>319.3333333333333</ele><time>2026-04-11T07:46:04.999Z</time></trkpt><trkpt lat="44.77194009641427" lon="7.8197878331202135"><ele>320.0</ele><time>2026-04-11T07:46:05.999Z</time></trkpt><trkpt lat="44.77195972383621" lon="7.819879863356908"><ele>320.66666666666663</ele><time>2026-04-11T07:46:06.999Z</time></trkpt><trkpt lat="44.771999685533025" lon="7.820053306354906"><ele>321.3333333333333</ele><time>2026-04-11T07:46:08.999Z</time></trkpt><trkpt lat="44.77201802921631" lon="7.820142098670255"><ele>322.0</ele><time>2026-04-11T07:46:09.999Z</time></trkpt><trkpt lat="44.772040902642104" lon="7.820310401139858"><ele>322.0</ele><time>2026-04-11T07:46:11.999Z</time></trkpt><trkpt lat="44.772013996382555" lon="7.820469921392453"><ele>322.0</ele><time>2026-04-11T07:46:13.999Z</time></trkpt><trkpt lat="44.77192982982799" lon="7.820574298142678"><ele>322.0</ele><time>2026-04-11T07:46:15.999Z</time></trkpt><trkpt lat="44.771823333875375" lon="7.820630025262101"><ele>322.0</ele><time>2026-04-11T07:46:17.999Z</time></trkpt><trkpt lat="44.77172229035674" lon="7.820715136717968"><ele>322.0</ele><time>2026-04-11T07:46:19.999Z</time></trkpt><trkpt lat="44.771614988666066" lon="7.820780662125637"><ele>322.0</ele><time>2026-04-11T07:46:21.999Z</time></trkpt><trkpt lat="44.771560540419806" lon="7.820928394579317"><ele>322.0</ele><time>2026-04-11T07:46:23.999Z</time></trkpt><trkpt lat="44.771529586267334" lon="7.821079911676926"><ele>322.0</ele><time>2026-04-11T07:46:25.999Z</time></trkpt><trkpt lat="44.771530038290415" lon="7.821233435523072"><ele>322.0</ele><time>2026-04-11T07:46:27.999Z</time></trkpt><trkpt lat="44.7715491704874" lon="7.821395094646907"><ele>322.0</ele><time>2026-04-11T07:46:29.999Z</time></trkpt><trkpt lat="44.771578302925874" lon="7.821562197974884"><ele>322.0</ele><time>2026-04-11T07:46:32Z</time></trkpt><trkpt lat="44.7715894213562" lon="7.821650255817518"><ele>322.0</ele><time>2026-04-11T07:46:33Z</time></trkpt><trkpt lat="44.77160109355928" lon="7.821742864449144"><ele>322.0</ele><time>2026-04-11T07:46:34Z</time></trkpt><trkpt lat="44.771610816361516" lon="7.821840592772363"><ele>322.0</ele><time>2026-04-11T07:46:35Z</time></trkpt><trkpt lat="44.771623131432676" lon="7.821936793199397"><ele>321.85714285714283</ele><time>2026-04-11T07:46:36Z</time></trkpt><trkpt lat="44.771634821595605" lon="7.822033010294482"><ele>321.7142857142857</ele><time>2026-04-11T07:46:37Z</time></trkpt><trkpt lat="44.77164676248708" lon="7.822126607554388"><ele>321.57142857142856</ele><time>2026-04-11T07:46:38Z</time></trkpt><trkpt lat="44.771658326851195" lon="7.8222214067879285"><ele>321.42857142857144</ele><time>2026-04-11T07:46:39Z</time></trkpt><trkpt lat="44.771667776323554" lon="7.822314139992409"><ele>321.2857142857143</ele><time>2026-04-11T07:46:40Z</time></trkpt><trkpt lat="44.77167641149547" lon="7.82240936587721"><ele>321.1428571428571</ele><time>2026-04-11T07:46:41Z</time></trkpt><trkpt lat="44.77168705893655" lon="7.8225016515211685"><ele>321.0</ele><time>2026-04-11T07:46:42Z</time></trkpt><trkpt lat="44.77169890800375" lon="7.822592421583738"><ele>321.5</ele><time>2026-04-11T07:46:43Z</time></trkpt><trkpt lat="44.77171018073408" lon="7.8226844499993"><ele>322.0</ele><time>2026-04-11T07:46:44Z</time></trkpt><trkpt lat="44.771716911290035" lon="7.822778295428489"><ele>322.5</ele><time>2026-04-11T07:46:45Z</time></trkpt><trkpt lat="44.77172064846403" lon="7.822871267023669"><ele>323.0</ele><time>2026-04-11T07:46:46Z</time></trkpt><trkpt lat="44.77172713971633" lon="7.822962185937895"><ele>323.5</ele><time>2026-04-11T07:46:47Z</time></trkpt><trkpt lat="44.77173031134112" lon="7.8231428001899035"><ele>324.0</ele><time>2026-04-11T07:46:49Z</time></trkpt><trkpt lat="44.771706371273716" lon="7.8232300468627"><ele>324.0</ele><time>2026-04-11T07:46:50Z</time></trkpt><trkpt lat="44.77167548982328" lon="7.823399475223519"><ele>324.0</ele><time>2026-04-11T07:46:52Z</time></trkpt><trkpt lat="44.771656952812414" lon="7.823485869076676"><ele>324.0</ele><time>2026-04-11T07:46:53Z</time></trkpt><trkpt lat="44.7716217001479" lon="7.823656708225264"><ele>324.0</ele><time>2026-04-11T07:46:55Z</time></trkpt><trkpt lat="44.771590930278784" lon="7.823823717024037"><ele>324.0</ele><time>2026-04-11T07:46:57Z</time></trkpt><trkpt lat="44.77157026603183" lon="7.823994090739532"><ele>323.75</ele><time>2026-04-11T07:46:59Z</time></trkpt><trkpt lat="44.77152816919217" lon="7.824155892540114"><ele>323.5</ele><time>2026-04-11T07:47:01Z</time></trkpt><trkpt lat="44.77146374094729" lon="7.824298820818798"><ele>323.25</ele><time>2026-04-11T07:47:03Z</time></trkpt><trkpt lat="44.77142213561004" lon="7.824459027401438"><ele>323.0</ele><time>2026-04-11T07:47:05Z</time></trkpt><trkpt lat="44.77134669313432" lon="7.824595212679866"><ele>323.0</ele><time>2026-04-11T07:47:07Z</time></trkpt><trkpt lat="44.77128063447179" lon="7.8247399022202355"><ele>323.0</ele><time>2026-04-11T07:47:09Z</time></trkpt><trkpt lat="44.77120952329258" lon="7.824880265136262"><ele>323.0</ele><time>2026-04-11T07:47:11Z</time></trkpt><trkpt lat="44.77117043822876" lon="7.824949938506315"><ele>323.0</ele><time>2026-04-11T07:47:12Z</time></trkpt><trkpt lat="44.77109774307894" lon="7.825086264243798"><ele>323.0</ele><time>2026-04-11T07:47:14Z</time></trkpt><trkpt lat="44.77104366257554" lon="7.825233593833582"><ele>323.59999999999997</ele><time>2026-04-11T07:47:16Z</time></trkpt><trkpt lat="44.77099052233327" lon="7.825375536670235"><ele>324.2</ele><time>2026-04-11T07:47:18Z</time></trkpt><trkpt lat="44.7709410640418" lon="7.825521391513932"><ele>324.8</ele><time>2026-04-11T07:47:20Z</time></trkpt><trkpt lat="44.77089595304372" lon="7.825593230465403"><ele>325.4</ele><time>2026-04-11T07:47:21Z</time></trkpt><trkpt lat="44.77083939017232" lon="7.825696507446127"><ele>326.0</ele><time>2026-04-11T07:47:23Z</time></trkpt><trkpt lat="44.770775540869096" lon="7.8257945160165905"><ele>326.0</ele><time>2026-04-11T07:47:25Z</time></trkpt><trkpt lat="44.7706827099715" lon="7.825842332275976"><ele>326.0</ele><time>2026-04-11T07:47:27Z</time></trkpt><trkpt lat="44.77058852400075" lon="7.8258863539088575"><ele>326.0</ele><time>2026-04-11T07:47:28.999Z</time></trkpt><trkpt lat="44.77048516141606" lon="7.825914451398175"><ele>326.0</ele><time>2026-04-11T07:47:30.999Z</time></trkpt><trkpt lat="44.77037210004776" lon="7.825937556738382"><ele>326.0</ele><time>2026-04-11T07:47:32.999Z</time></trkpt><trkpt lat="44.7702624689432" lon="7.82595932359147"><ele>326.6</ele><time>2026-04-11T07:47:34.999Z</time></trkpt><trkpt lat="44.770154515654426" lon="7.8259795115781365"><ele>327.20000000000005</ele><time>2026-04-11T07:47:36.999Z</time></trkpt><trkpt lat="44.77004619688506" lon="7.826001394272409"><ele>327.79999999999995</ele><time>2026-04-11T07:47:38.999Z</time></trkpt><trkpt lat="44.76993959167252" lon="7.826023293703398"><ele>328.4</ele><time>2026-04-11T07:47:40.999Z</time></trkpt><trkpt lat="44.769828897326825" lon="7.826046033146106"><ele>329.0</ele><time>2026-04-11T07:47:42.999Z</time></trkpt><trkpt lat="44.769717389425324" lon="7.826068939714192"><ele>329.0</ele><time>2026-04-11T07:47:44.999Z</time></trkpt><trkpt lat="44.76960843304668" lon="7.826089048924641"><ele>329.0</ele><time>2026-04-11T07:47:46.999Z</time></trkpt><trkpt lat="44.76949356734897" lon="7.826108863554666"><ele>329.0</ele><time>2026-04-11T07:47:48.999Z</time></trkpt><trkpt lat="44.769377669378585" lon="7.826149584086875"><ele>329.0</ele><time>2026-04-11T07:47:50.999Z</time></trkpt><trkpt lat="44.7692631863277" lon="7.826145624268116"><ele>329.25</ele><time>2026-04-11T07:47:52.999Z</time></trkpt><trkpt lat="44.76914976274248" lon="7.8261718031440655"><ele>329.5</ele><time>2026-04-11T07:47:54.999Z</time></trkpt><trkpt lat="44.769038888836036" lon="7.826205298432107"><ele>329.75</ele><time>2026-04-11T07:47:56.999Z</time></trkpt><trkpt lat="44.768933316368255" lon="7.826281391746523"><ele>330.0</ele><time>2026-04-11T07:47:58.999Z</time></trkpt><trkpt lat="44.76886769592512" lon="7.826431472141604"><ele>330.0</ele><time>2026-04-11T07:48:00.999Z</time></trkpt><trkpt lat="44.76891558618882" lon="7.82661569175029"><ele>330.0</ele><time>2026-04-11T07:48:02.999Z</time></trkpt><trkpt lat="44.76897989206754" lon="7.826755883163338"><ele>330.0</ele><time>2026-04-11T07:48:04.999Z</time></trkpt><trkpt lat="44.769053711513784" lon="7.826883032372537"><ele>330.0</ele><time>2026-04-11T07:48:06.999Z</time></trkpt><trkpt lat="44.7691132690552" lon="7.827020175842715"><ele>330.0</ele><time>2026-04-11T07:48:08.999Z</time></trkpt><trkpt lat="44.76916047021827" lon="7.827168045577217"><ele>330.0</ele><time>2026-04-11T07:48:10.999Z</time></trkpt><trkpt lat="44.769197401946876" lon="7.827310017221731"><ele>330.0</ele><time>2026-04-11T07:48:12.999Z</time></trkpt><trkpt lat="44.76922879735107" lon="7.827449836843474"><ele>330.0</ele><time>2026-04-11T07:48:14.999Z</time></trkpt><trkpt lat="44.769249557457734" lon="7.827587294887885"><ele>330.0</ele><time>2026-04-11T07:48:16.999Z</time></trkpt><trkpt lat="44.76926100737598" lon="7.827731703548781"><ele>330.0</ele><time>2026-04-11T07:48:18.999Z</time></trkpt><trkpt lat="44.76928714466775" lon="7.827892141707967"><ele>330.0</ele><time>2026-04-11T07:48:20.999Z</time></trkpt><trkpt lat="44.76930299432436" lon="7.82798608286462"><ele>330.0</ele><time>2026-04-11T07:48:21.999Z</time></trkpt><trkpt lat="44.7693171030633" lon="7.828077782516331"><ele>330.0</ele><time>2026-04-11T07:48:22.999Z</time></trkpt><trkpt lat="44.76933231860293" lon="7.828176182525391"><ele>330.0</ele><time>2026-04-11T07:48:23.999Z</time></trkpt><trkpt lat="44.76934802842721" lon="7.8282743470403195"><ele>330.0</ele><time>2026-04-11T07:48:24.999Z</time></trkpt><trkpt lat="44.76936695676648" lon="7.828374507032873"><ele>330.00000000000006</ele><time>2026-04-11T07:48:25.999Z</time></trkpt><trkpt lat="44.76938809656296" lon="7.828468214311723"><ele>330.0</ele><time>2026-04-11T07:48:26.999Z</time></trkpt><trkpt lat="44.76940793613967" lon="7.8285691081323225"><ele>330.0</ele><time>2026-04-11T07:48:27.999Z</time></trkpt><trkpt lat="44.769425654805204" lon="7.828671551882887"><ele>330.0</ele><time>2026-04-11T07:48:28.999Z</time></trkpt><trkpt lat="44.769445373767475" lon="7.828775116020393"><ele>330.0</ele><time>2026-04-11T07:48:29.999Z</time></trkpt><trkpt lat="44.76946449844893" lon="7.828875614861997"><ele>330.00000000000006</ele><time>2026-04-11T07:48:30.999Z</time></trkpt><trkpt lat="44.76948362406726" lon="7.828977480082545"><ele>330.0</ele><time>2026-04-11T07:48:31.999Z</time></trkpt><trkpt lat="44.769503950918406" lon="7.829076078244861"><ele>329.7142857142857</ele><time>2026-04-11T07:48:32.999Z</time></trkpt><trkpt lat="44.76952372658484" lon="7.829172883755816"><ele>329.42857142857144</ele><time>2026-04-11T07:48:33.999Z</time></trkpt><trkpt lat="44.769539025285454" lon="7.829270145512014"><ele>329.1428571428571</ele><time>2026-04-11T07:48:34.999Z</time></trkpt><trkpt lat="44.769557879194394" lon="7.829369874784047"><ele>328.8571428571429</ele><time>2026-04-11T07:48:35.999Z</time></trkpt><trkpt lat="44.76957652595731" lon="7.82947175682129"><ele>328.57142857142856</ele><time>2026-04-11T07:48:37Z</time></trkpt><trkpt lat="44.769595277336244" lon="7.829571998471331"><ele>328.2857142857143</ele><time>2026-04-11T07:48:38Z</time></trkpt><trkpt lat="44.769609792324346" lon="7.829669796492952"><ele>328.0</ele><time>2026-04-11T07:48:39Z</time></trkpt><trkpt lat="44.769622818338746" lon="7.829772102603058"><ele>327.99999999999994</ele><time>2026-04-11T07:48:40Z</time></trkpt><trkpt lat="44.769636481577955" lon="7.829870605910444"><ele>328.0</ele><time>2026-04-11T07:48:41Z</time></trkpt><trkpt lat="44.769652404984164" lon="7.829968463233221"><ele>328.0</ele><time>2026-04-11T07:48:42Z</time></trkpt><trkpt lat="44.76966397383606" lon="7.830064103320037"><ele>328.0</ele><time>2026-04-11T07:48:43Z</time></trkpt><trkpt lat="44.769674974254634" lon="7.830162201862536"><ele>328.0</ele><time>2026-04-11T07:48:44Z</time></trkpt><trkpt lat="44.76968479956094" lon="7.830258428076114"><ele>327.99999999999994</ele><time>2026-04-11T07:48:45Z</time></trkpt><trkpt lat="44.76968989197909" lon="7.830354802285305"><ele>328.0</ele><time>2026-04-11T07:48:46Z</time></trkpt><trkpt lat="44.76965442555178" lon="7.83044839341311"><ele>327.99999999999994</ele><time>2026-04-11T07:48:47Z</time></trkpt><trkpt lat="44.76960085552462" lon="7.830599487359066"><ele>328.0</ele><time>2026-04-11T07:48:49Z</time></trkpt><trkpt lat="44.76957872386061" lon="7.8306885102514014"><ele>328.0</ele><time>2026-04-11T07:48:50Z</time></trkpt><trkpt lat="44.76952054929047" lon="7.830738067255864"><ele>328.0</ele><time>2026-04-11T07:48:51Z</time></trkpt><trkpt lat="44.76946233757203" lon="7.83077185409461"><ele>328.0</ele><time>2026-04-11T07:48:52Z</time></trkpt><trkpt lat="44.769403300270376" lon="7.830804300985184"><ele>327.99999999999994</ele><time>2026-04-11T07:48:53Z</time></trkpt><trkpt lat="44.769342072277816" lon="7.830838013232183"><ele>328.0</ele><time>2026-04-11T07:48:54Z</time></trkpt><trkpt lat="44.769224770258475" lon="7.830903140178781"><ele>327.99999999999994</ele><time>2026-04-11T07:48:56Z</time></trkpt><trkpt lat="44.76916434997225" lon="7.830937347073773"><ele>328.0</ele><time>2026-04-11T07:48:57Z</time></trkpt><trkpt lat="44.76910581914697" lon="7.830971648176671"><ele>328.0</ele><time>2026-04-11T07:48:58Z</time></trkpt><trkpt lat="44.76904694866928" lon="7.83100945789176"><ele>328.0</ele><time>2026-04-11T07:48:59Z</time></trkpt><trkpt lat="44.76898903313823" lon="7.831044866745184"><ele>328.0</ele><time>2026-04-11T07:49:00Z</time></trkpt><trkpt lat="44.76893097328273" lon="7.831080064863234"><ele>327.99999999999994</ele><time>2026-04-11T07:49:01Z</time></trkpt><trkpt lat="44.76881649639343" lon="7.831147723964018"><ele>328.0</ele><time>2026-04-11T07:49:03Z</time></trkpt><trkpt lat="44.76870696664605" lon="7.8312193370718575"><ele>328.25</ele><time>2026-04-11T07:49:05Z</time></trkpt><trkpt lat="44.768597255209365" lon="7.831288698079272"><ele>328.5</ele><time>2026-04-11T07:49:07Z</time></trkpt><trkpt lat="44.76848846279426" lon="7.831357181960729"><ele>328.75</ele><time>2026-04-11T07:49:09Z</time></trkpt><trkpt lat="44.768383699445266" lon="7.831433193381812"><ele>329.0</ele><time>2026-04-11T07:49:11Z</time></trkpt><trkpt lat="44.76828010677124" lon="7.831510308857531"><ele>329.4</ele><time>2026-04-11T07:49:13Z</time></trkpt><trkpt lat="44.76822224270746" lon="7.831552413057807"><ele>329.79999999999995</ele><time>2026-04-11T07:49:14Z</time></trkpt><trkpt lat="44.768115994782185" lon="7.8316408503932164"><ele>330.20000000000005</ele><time>2026-04-11T07:49:16Z</time></trkpt><trkpt lat="44.76801483635684" lon="7.831745134126462"><ele>330.6</ele><time>2026-04-11T07:49:18Z</time></trkpt><trkpt lat="44.76792010842444" lon="7.831859850083296"><ele>331.0</ele><time>2026-04-11T07:49:20Z</time></trkpt><trkpt lat="44.76783117912657" lon="7.831973050908482"><ele>331.0</ele><time>2026-04-11T07:49:22Z</time></trkpt><trkpt lat="44.76774445170123" lon="7.832087844545085"><ele>331.0</ele><time>2026-04-11T07:49:24Z</time></trkpt><trkpt lat="44.76766285487567" lon="7.832210704996218"><ele>331.0</ele><time>2026-04-11T07:49:25.999Z</time></trkpt><trkpt lat="44.767591267452" lon="7.832351344905716"><ele>331.0</ele><time>2026-04-11T07:49:27.999Z</time></trkpt><trkpt lat="44.76749889422216" lon="7.832458055917227"><ele>331.5</ele><time>2026-04-11T07:49:29.999Z</time></trkpt><trkpt lat="44.76741647159191" lon="7.832580493155764"><ele>332.0</ele><time>2026-04-11T07:49:31.999Z</time></trkpt><trkpt lat="44.76733772370218" lon="7.832709174504167"><ele>332.5</ele><time>2026-04-11T07:49:33.999Z</time></trkpt><trkpt lat="44.76726678332746" lon="7.83285056971818"><ele>333.0</ele><time>2026-04-11T07:49:35.999Z</time></trkpt><trkpt lat="44.767230082411615" lon="7.833022321002247"><ele>333.14285714285717</ele><time>2026-04-11T07:49:37.999Z</time></trkpt><trkpt lat="44.767238013533415" lon="7.833122290029785"><ele>333.2857142857143</ele><time>2026-04-11T07:49:38.999Z</time></trkpt><trkpt lat="44.76725697871481" lon="7.833219449712843"><ele>333.42857142857144</ele><time>2026-04-11T07:49:39.999Z</time></trkpt><trkpt lat="44.7672753961784" lon="7.833313601228895"><ele>333.57142857142856</ele><time>2026-04-11T07:49:40.999Z</time></trkpt><trkpt lat="44.76728873205786" lon="7.833408310375873"><ele>333.7142857142857</ele><time>2026-04-11T07:49:41.999Z</time></trkpt><trkpt lat="44.76729558051729" lon="7.833503270919969"><ele>333.85714285714283</ele><time>2026-04-11T07:49:42.999Z</time></trkpt><trkpt lat="44.76730395442574" lon="7.833604402436079"><ele>334.0</ele><time>2026-04-11T07:49:43.999Z</time></trkpt><trkpt lat="44.7673132516431" lon="7.833705436291489"><ele>334.42857142857144</ele><time>2026-04-11T07:49:44.999Z</time></trkpt><trkpt lat="44.76732039568" lon="7.833796009045694"><ele>334.8571428571429</ele><time>2026-04-11T07:49:45.999Z</time></trkpt><trkpt lat="44.767325264000284" lon="7.833886997360418"><ele>335.28571428571433</ele><time>2026-04-11T07:49:46.999Z</time></trkpt><trkpt lat="44.767316743817396" lon="7.833981715947496"><ele>335.7142857142857</ele><time>2026-04-11T07:49:47.999Z</time></trkpt><trkpt lat="44.76730883327455" lon="7.834072388893509"><ele>336.14285714285717</ele><time>2026-04-11T07:49:48.999Z</time></trkpt><trkpt lat="44.767306120943175" lon="7.8341684372055855"><ele>336.5714285714286</ele><time>2026-04-11T07:49:49.999Z</time></trkpt><trkpt lat="44.76730401020081" lon="7.8342613425376255"><ele>337.0</ele><time>2026-04-11T07:49:50.999Z</time></trkpt><trkpt lat="44.767300878033176" lon="7.834355780722949"><ele>337.0</ele><time>2026-04-11T07:49:51.999Z</time></trkpt><trkpt lat="44.76729362201894" lon="7.834447511513263"><ele>337.0</ele><time>2026-04-11T07:49:52.999Z</time></trkpt><trkpt lat="44.76725869944471" lon="7.834531247579513"><ele>337.0</ele><time>2026-04-11T07:49:53.999Z</time></trkpt><trkpt lat="44.76725291444917" lon="7.834620018213603"><ele>337.0</ele><time>2026-04-11T07:49:54.999Z</time></trkpt><trkpt lat="44.76724704758878" lon="7.8347100450659015"><ele>337.0</ele><time>2026-04-11T07:49:55.999Z</time></trkpt><trkpt lat="44.76723376657618" lon="7.834883332701212"><ele>337.0</ele><time>2026-04-11T07:49:57.999Z</time></trkpt><trkpt lat="44.7672550443654" lon="7.8349688662668955"><ele>337.0</ele><time>2026-04-11T07:49:58.999Z</time></trkpt><trkpt lat="44.767246529659815" lon="7.835134796755544"><ele>337.0</ele><time>2026-04-11T07:50:00.999Z</time></trkpt><trkpt lat="44.76723210710968" lon="7.835301891053028"><ele>337.0</ele><time>2026-04-11T07:50:02.999Z</time></trkpt><trkpt lat="44.76721068379861" lon="7.835473250164448"><ele>337.0</ele><time>2026-04-11T07:50:04.999Z</time></trkpt><trkpt lat="44.76719874210079" lon="7.835563544522099"><ele>337.0</ele><time>2026-04-11T07:50:05.999Z</time></trkpt><trkpt lat="44.767188562896926" lon="7.83565289292086"><ele>337.0</ele><time>2026-04-11T07:50:06.999Z</time></trkpt><trkpt lat="44.76717768670488" lon="7.8357437746372"><ele>337.0</ele><time>2026-04-11T07:50:07.999Z</time></trkpt><trkpt lat="44.76716066803376" lon="7.835919747698003"><ele>337.0</ele><time>2026-04-11T07:50:09.999Z</time></trkpt><trkpt lat="44.767143815039546" lon="7.836088478168703"><ele>337.0</ele><time>2026-04-11T07:50:11.999Z</time></trkpt><trkpt lat="44.76713279651786" lon="7.836176468057705"><ele>337.0</ele><time>2026-04-11T07:50:12.999Z</time></trkpt><trkpt lat="44.76711890826409" lon="7.836348732323417"><ele>337.0</ele><time>2026-04-11T07:50:14.999Z</time></trkpt><trkpt lat="44.7671140219265" lon="7.836440138215338"><ele>337.0</ele><time>2026-04-11T07:50:15.999Z</time></trkpt><trkpt lat="44.76711149742786" lon="7.836529546102477"><ele>337.0</ele><time>2026-04-11T07:50:16.999Z</time></trkpt><trkpt lat="44.76710784976859" lon="7.836700222804217"><ele>337.0</ele><time>2026-04-11T07:50:18.999Z</time></trkpt><trkpt lat="44.7671182307694" lon="7.8368523086906166"><ele>337.0</ele><time>2026-04-11T07:50:20.999Z</time></trkpt><trkpt lat="44.76714131917815" lon="7.837005795284439"><ele>336.6</ele><time>2026-04-11T07:50:22.999Z</time></trkpt><trkpt lat="44.76719109755867" lon="7.837138845152136"><ele>336.20000000000005</ele><time>2026-04-11T07:50:24.999Z</time></trkpt><trkpt lat="44.76724674774359" lon="7.83727083867165"><ele>335.8</ele><time>2026-04-11T07:50:26.999Z</time></trkpt><trkpt lat="44.767307086483655" lon="7.837418613491527"><ele>335.4</ele><time>2026-04-11T07:50:28.999Z</time></trkpt><trkpt lat="44.767343658694514" lon="7.8375085348811355"><ele>335.0</ele><time>2026-04-11T07:50:29.999Z</time></trkpt><trkpt lat="44.7673803604003" lon="7.8375977034815465"><ele>334.6</ele><time>2026-04-11T07:50:30.999Z</time></trkpt><trkpt lat="44.767421106608616" lon="7.837693477533306"><ele>334.2</ele><time>2026-04-11T07:50:31.999Z</time></trkpt><trkpt lat="44.76746752276421" lon="7.837799591806596"><ele>333.79999999999995</ele><time>2026-04-11T07:50:32.999Z</time></trkpt><trkpt lat="44.76751872410178" lon="7.837906236940069"><ele>333.4</ele><time>2026-04-11T07:50:33.999Z</time></trkpt><trkpt lat="44.76757945088862" lon="7.838016858764876"><ele>333.0</ele><time>2026-04-11T07:50:34.999Z</time></trkpt><trkpt lat="44.76766473122912" lon="7.838102032833333"><ele>332.0</ele><time>2026-04-11T07:50:35.999Z</time></trkpt><trkpt lat="44.7677334041262" lon="7.838203358428061"><ele>331.0</ele><time>2026-04-11T07:50:36.999Z</time></trkpt><trkpt lat="44.767807633731394" lon="7.838292528033522"><ele>330.0</ele><time>2026-04-11T07:50:37.999Z</time></trkpt><trkpt lat="44.76786577469103" lon="7.838388973428219"><ele>329.0</ele><time>2026-04-11T07:50:38.999Z</time></trkpt><trkpt lat="44.767930831173906" lon="7.838466268720362"><ele>328.0</ele><time>2026-04-11T07:50:39.999Z</time></trkpt><trkpt lat="44.7680026067154" lon="7.838545234986462"><ele>328.0</ele><time>2026-04-11T07:50:40.999Z</time></trkpt><trkpt lat="44.768079928385646" lon="7.8386175219562135"><ele>328.0</ele><time>2026-04-11T07:50:41.999Z</time></trkpt><trkpt lat="44.76815561200825" lon="7.838684512592185"><ele>328.0</ele><time>2026-04-11T07:50:43Z</time></trkpt><trkpt lat="44.76822768730202" lon="7.838752334739234"><ele>328.0</ele><time>2026-04-11T07:50:44Z</time></trkpt><trkpt lat="44.768298031084704" lon="7.838818527846819"><ele>328.0</ele><time>2026-04-11T07:50:45Z</time></trkpt><trkpt lat="44.76837045358345" lon="7.838879129344958"><ele>328.0</ele><time>2026-04-11T07:50:46Z</time></trkpt><trkpt lat="44.76841093412402" lon="7.838990368805985"><ele>328.0</ele><time>2026-04-11T07:50:47Z</time></trkpt><trkpt lat="44.76843008561654" lon="7.839106466640591"><ele>328.0</ele><time>2026-04-11T07:50:48Z</time></trkpt><trkpt lat="44.76841691832967" lon="7.839228095429563"><ele>328.0</ele><time>2026-04-11T07:50:49Z</time></trkpt><trkpt lat="44.76839843913874" lon="7.8393391269312"><ele>328.0</ele><time>2026-04-11T07:50:50Z</time></trkpt><trkpt lat="44.768376599502545" lon="7.839444964273587"><ele>328.0</ele><time>2026-04-11T07:50:51Z</time></trkpt><trkpt lat="44.76836091554108" lon="7.839543030283779"><ele>328.0</ele><time>2026-04-11T07:50:52Z</time></trkpt><trkpt lat="44.76835173223726" lon="7.839640568646261"><ele>328.66666666666663</ele><time>2026-04-11T07:50:53Z</time></trkpt><trkpt lat="44.76833843932145" lon="7.839730622394596"><ele>329.3333333333333</ele><time>2026-04-11T07:50:54Z</time></trkpt><trkpt lat="44.768322091562204" lon="7.839816478752117"><ele>330.0</ele><time>2026-04-11T07:50:55Z</time></trkpt><trkpt lat="44.7682730542618" lon="7.8399572566933795"><ele>330.6666666666667</ele><time>2026-04-11T07:50:57Z</time></trkpt><trkpt lat="44.76822781576253" lon="7.840092103461286"><ele>331.33333333333337</ele><time>2026-04-11T07:50:59Z</time></trkpt><trkpt lat="44.76817440736758" lon="7.840212547655979"><ele>332.0</ele><time>2026-04-11T07:51:01Z</time></trkpt><trkpt lat="44.76811608918717" lon="7.840334739598228"><ele>332.75</ele><time>2026-04-11T07:51:03Z</time></trkpt><trkpt lat="44.76805059316756" lon="7.840447497528205"><ele>333.5</ele><time>2026-04-11T07:51:05Z</time></trkpt><trkpt lat="44.76799005585878" lon="7.840584096142941"><ele>334.25</ele><time>2026-04-11T07:51:07Z</time></trkpt><trkpt lat="44.76789467607186" lon="7.840682539415789"><ele>335.0</ele><time>2026-04-11T07:51:09Z</time></trkpt><trkpt lat="44.767809560544634" lon="7.840789528254885"><ele>335.0</ele><time>2026-04-11T07:51:11Z</time></trkpt><trkpt lat="44.76773093057866" lon="7.8409080893128875"><ele>335.0</ele><time>2026-04-11T07:51:13Z</time></trkpt><trkpt lat="44.76767608310159" lon="7.841043638814762"><ele>335.0</ele><time>2026-04-11T07:51:15Z</time></trkpt><trkpt lat="44.76764603156968" lon="7.841186198754653"><ele>335.0</ele><time>2026-04-11T07:51:17Z</time></trkpt><trkpt lat="44.76761390772689" lon="7.841327133435192"><ele>335.0</ele><time>2026-04-11T07:51:19Z</time></trkpt><trkpt lat="44.76762181075939" lon="7.841480156200763"><ele>335.6</ele><time>2026-04-11T07:51:21Z</time></trkpt><trkpt lat="44.767616279717586" lon="7.841636898508765"><ele>336.2</ele><time>2026-04-11T07:51:23Z</time></trkpt><trkpt lat="44.76764138949636" lon="7.841780456980413"><ele>336.79999999999995</ele><time>2026-04-11T07:51:25Z</time></trkpt><trkpt lat="44.7676724658613" lon="7.841911464499953"><ele>337.4</ele><time>2026-04-11T07:51:27Z</time></trkpt><trkpt lat="44.76770916179415" lon="7.842031685777658"><ele>338.0</ele><time>2026-04-11T07:51:28.999Z</time></trkpt><trkpt lat="44.76775815461753" lon="7.842129660257184"><ele>338.0</ele><time>2026-04-11T07:51:30.999Z</time></trkpt><trkpt lat="44.76778379499061" lon="7.842231867529703"><ele>338.0</ele><time>2026-04-11T07:51:32.999Z</time></trkpt><trkpt lat="44.76781774685369" lon="7.8423289008007595"><ele>338.0</ele><time>2026-04-11T07:51:34.999Z</time></trkpt><trkpt lat="44.76784600777129" lon="7.842429816730376"><ele>338.0</ele><time>2026-04-11T07:51:36.999Z</time></trkpt><trkpt lat="44.76787194226161" lon="7.842524535753377"><ele>338.0</ele><time>2026-04-11T07:51:38.999Z</time></trkpt><trkpt lat="44.7679041501756" lon="7.842616071571802"><ele>338.0</ele><time>2026-04-11T07:51:40.999Z</time></trkpt><trkpt lat="44.767936145409664" lon="7.842735902491528"><ele>338.2</ele><time>2026-04-11T07:51:42.999Z</time></trkpt><trkpt lat="44.76798806157368" lon="7.84291673093515"><ele>338.4</ele><time>2026-04-11T07:51:45.999Z</time></trkpt><trkpt lat="44.767964662626134" lon="7.843026434372519"><ele>338.59999999999997</ele><time>2026-04-11T07:51:47.999Z</time></trkpt><trkpt lat="44.767909142700795" lon="7.843126034817675"><ele>338.79999999999995</ele><time>2026-04-11T07:51:49.999Z</time></trkpt><trkpt lat="44.767851444258596" lon="7.8432276873710975"><ele>339.0</ele><time>2026-04-11T07:51:51.999Z</time></trkpt><trkpt lat="44.76778008636855" lon="7.8433179094278325"><ele>339.0</ele><time>2026-04-11T07:51:53.999Z</time></trkpt><trkpt lat="44.76769950921531" lon="7.843398850755672"><ele>339.0</ele><time>2026-04-11T07:51:55.999Z</time></trkpt><trkpt lat="44.767606989146906" lon="7.843490088893965"><ele>339.0</ele><time>2026-04-11T07:51:57.999Z</time></trkpt><trkpt lat="44.76755538648529" lon="7.843541571226208"><ele>339.0</ele><time>2026-04-11T07:51:58.999Z</time></trkpt><trkpt lat="44.767491391433715" lon="7.8435538493646355"><ele>339.0</ele><time>2026-04-11T07:51:59.999Z</time></trkpt><trkpt lat="44.767399066767425" lon="7.84363873097838"><ele>339.4</ele><time>2026-04-11T07:52:01.999Z</time></trkpt><trkpt lat="44.76731274936444" lon="7.84371850254151"><ele>339.79999999999995</ele><time>2026-04-11T07:52:03.999Z</time></trkpt><trkpt lat="44.76722002369588" lon="7.843820733516675"><ele>340.20000000000005</ele><time>2026-04-11T07:52:05.999Z</time></trkpt><trkpt lat="44.76714186698841" lon="7.843912616736263"><ele>340.6</ele><time>2026-04-11T07:52:07.999Z</time></trkpt><trkpt lat="44.76705619888711" lon="7.844003811221387"><ele>341.0</ele><time>2026-04-11T07:52:09.999Z</time></trkpt><trkpt lat="44.766970310018976" lon="7.844086264334135"><ele>341.0</ele><time>2026-04-11T07:52:11.999Z</time></trkpt><trkpt lat="44.76688469085024" lon="7.844171604427299"><ele>341.0</ele><time>2026-04-11T07:52:13.999Z</time></trkpt><trkpt lat="44.76679883427106" lon="7.84425940636458"><ele>341.0</ele><time>2026-04-11T07:52:15.999Z</time></trkpt><trkpt lat="44.76671093767532" lon="7.844343573985271"><ele>341.0</ele><time>2026-04-11T07:52:17.999Z</time></trkpt><trkpt lat="44.76662129771339" lon="7.844434149944081"><ele>341.0</ele><time>2026-04-11T07:52:19.999Z</time></trkpt><trkpt lat="44.76652999613299" lon="7.84451480611224"><ele>341.6</ele><time>2026-04-11T07:52:21.999Z</time></trkpt><trkpt lat="44.76644340349291" lon="7.844607834423343"><ele>342.20000000000005</ele><time>2026-04-11T07:52:23.999Z</time></trkpt><trkpt lat="44.766358889808174" lon="7.8446957364533265"><ele>342.79999999999995</ele><time>2026-04-11T07:52:25.999Z</time></trkpt><trkpt lat="44.766272456096644" lon="7.844781185448813"><ele>343.4</ele><time>2026-04-11T07:52:27.999Z</time></trkpt><trkpt lat="44.76618458331546" lon="7.8448625421496985"><ele>344.0</ele><time>2026-04-11T07:52:29.999Z</time></trkpt><trkpt lat="44.76609705615611" lon="7.8449470721125945"><ele>344.6</ele><time>2026-04-11T07:52:31.999Z</time></trkpt><trkpt lat="44.76600798456856" lon="7.845029770782616"><ele>345.2</ele><time>2026-04-11T07:52:33.999Z</time></trkpt><trkpt lat="44.76592063583579" lon="7.845118085784497"><ele>345.8</ele><time>2026-04-11T07:52:35.999Z</time></trkpt><trkpt lat="44.7658600013647" lon="7.845236746814048"><ele>346.40000000000003</ele><time>2026-04-11T07:52:37.999Z</time></trkpt><trkpt lat="44.76584092287476" lon="7.8453990390085195"><ele>347.0</ele><time>2026-04-11T07:52:39.999Z</time></trkpt><trkpt lat="44.76588041116735" lon="7.845473198512594"><ele>346.8</ele><time>2026-04-11T07:52:40.999Z</time></trkpt><trkpt lat="44.765916675800206" lon="7.845554997851936"><ele>346.6</ele><time>2026-04-11T07:52:41.999Z</time></trkpt><trkpt lat="44.765992878940416" lon="7.845691970298751"><ele>346.40000000000003</ele><time>2026-04-11T07:52:43.999Z</time></trkpt><trkpt lat="44.766085841661685" lon="7.845802646397368"><ele>346.20000000000005</ele><time>2026-04-11T07:52:45.999Z</time></trkpt><trkpt lat="44.76616672457409" lon="7.845926154166412"><ele>346.0</ele><time>2026-04-11T07:52:47.999Z</time></trkpt><trkpt lat="44.76623705574862" lon="7.846050535094523"><ele>346.0</ele><time>2026-04-11T07:52:50Z</time></trkpt><trkpt lat="44.766299304161485" lon="7.846182261607063"><ele>346.0</ele><time>2026-04-11T07:52:52Z</time></trkpt><trkpt lat="44.76635820218171" lon="7.846318237487491"><ele>346.0</ele><time>2026-04-11T07:52:54Z</time></trkpt><trkpt lat="44.766422776467365" lon="7.8464520112506495"><ele>346.0</ele><time>2026-04-11T07:52:56Z</time></trkpt><trkpt lat="44.766481002260065" lon="7.846584313997291"><ele>346.0</ele><time>2026-04-11T07:52:58Z</time></trkpt><trkpt lat="44.766531204511494" lon="7.846716274321995"><ele>346.0</ele><time>2026-04-11T07:53:00Z</time></trkpt><trkpt lat="44.76658815117482" lon="7.846831828698331"><ele>346.0</ele><time>2026-04-11T07:53:02Z</time></trkpt><trkpt lat="44.76664155335187" lon="7.8469489198038005"><ele>346.0</ele><time>2026-04-11T07:53:04Z</time></trkpt><trkpt lat="44.7666918215701" lon="7.847062848264653"><ele>346.0</ele><time>2026-04-11T07:53:06Z</time></trkpt><trkpt lat="44.76673981536795" lon="7.8471746683823556"><ele>346.0</ele><time>2026-04-11T07:53:08Z</time></trkpt><trkpt lat="44.766788406464876" lon="7.847280999750979"><ele>346.0</ele><time>2026-04-11T07:53:10Z</time></trkpt><trkpt lat="44.76683743458724" lon="7.847381193544036"><ele>346.0</ele><time>2026-04-11T07:53:12Z</time></trkpt><trkpt lat="44.76687486164771" lon="7.84748737460208"><ele>346.0</ele><time>2026-04-11T07:53:14Z</time></trkpt><trkpt lat="44.76684363238558" lon="7.847604033136685"><ele>346.0</ele><time>2026-04-11T07:53:16Z</time></trkpt><trkpt lat="44.76679618246762" lon="7.84767894265201"><ele>346.0</ele><time>2026-04-11T07:53:17.999Z</time></trkpt><trkpt lat="44.766739855230014" lon="7.847734091667692"><ele>346.0</ele><time>2026-04-11T07:53:19.999Z</time></trkpt><trkpt lat="44.76667596879493" lon="7.847801096832075"><ele>346.0</ele><time>2026-04-11T07:53:21.999Z</time></trkpt><trkpt lat="44.766603792621495" lon="7.847870932339969"><ele>346.0</ele><time>2026-04-11T07:53:23.999Z</time></trkpt><trkpt lat="44.76653353715247" lon="7.847933379052353"><ele>346.0</ele><time>2026-04-11T07:53:25.999Z</time></trkpt><trkpt lat="44.766466852823704" lon="7.848011995739411"><ele>346.0</ele><time>2026-04-11T07:53:27.999Z</time></trkpt><trkpt lat="44.76638667466576" lon="7.848084657827969"><ele>346.0</ele><time>2026-04-11T07:53:29.999Z</time></trkpt><trkpt lat="44.76630247344375" lon="7.848152778002548"><ele>346.0</ele><time>2026-04-11T07:53:31.999Z</time></trkpt><trkpt lat="44.766195361486474" lon="7.848150674994725"><ele>346.0</ele><time>2026-04-11T07:53:33.999Z</time></trkpt><trkpt lat="44.76609809026128" lon="7.848055880931261"><ele>346.0</ele><time>2026-04-11T07:53:35.999Z</time></trkpt><trkpt lat="44.765997893577065" lon="7.848020162462633"><ele>346.0</ele><time>2026-04-11T07:53:37.999Z</time></trkpt><trkpt lat="44.76589571890526" lon="7.8480025416057035"><ele>346.0</ele><time>2026-04-11T07:53:39.999Z</time></trkpt><trkpt lat="44.7658176703245" lon="7.847945073201319"><ele>345.8333333333333</ele><time>2026-04-11T07:53:41.999Z</time></trkpt><trkpt lat="44.76575142993255" lon="7.847907423487313"><ele>345.66666666666663</ele><time>2026-04-11T07:53:43.999Z</time></trkpt><trkpt lat="44.76568830823318" lon="7.847892164030247"><ele>345.5</ele><time>2026-04-11T07:53:45.999Z</time></trkpt><trkpt lat="44.76561401129768" lon="7.847874000961244"><ele>345.3333333333333</ele><time>2026-04-11T07:53:47.999Z</time></trkpt><trkpt lat="44.76552828523773" lon="7.847855520048512"><ele>345.1666666666667</ele><time>2026-04-11T07:53:49.999Z</time></trkpt><trkpt lat="44.765463725497916" lon="7.847898683875572"><ele>345.0</ele><time>2026-04-11T07:53:51.999Z</time></trkpt><trkpt lat="44.76539986727176" lon="7.848336952780715"><ele>345.0</ele><time>2026-04-11T07:53:52.999Z</time></trkpt><trkpt lat="44.765353366726316" lon="7.848421518355888"><ele>345.0</ele><time>2026-04-11T07:53:54.999Z</time></trkpt><trkpt lat="44.765334989602266" lon="7.848576602415926"><ele>345.0</ele><time>2026-04-11T07:53:56.999Z</time></trkpt><trkpt lat="44.76533335185683" lon="7.848727321327077"><ele>345.0</ele><time>2026-04-11T07:53:58.999Z</time></trkpt><trkpt lat="44.765439407131126" lon="7.848856391871559"><ele>345.0</ele><time>2026-04-11T07:54:00.999Z</time></trkpt><trkpt lat="44.76548679029282" lon="7.848933887524834"><ele>345.14285714285717</ele><time>2026-04-11T07:54:01.999Z</time></trkpt><trkpt lat="44.76552726601215" lon="7.8490260389429185"><ele>345.2857142857143</ele><time>2026-04-11T07:54:02.999Z</time></trkpt><trkpt lat="44.76554949917114" lon="7.849124008919127"><ele>345.42857142857144</ele><time>2026-04-11T07:54:03.999Z</time></trkpt><trkpt lat="44.76556761185007" lon="7.849225242466393"><ele>345.57142857142856</ele><time>2026-04-11T07:54:04.999Z</time></trkpt><trkpt lat="44.765598041485326" lon="7.849315609330096"><ele>345.7142857142857</ele><time>2026-04-11T07:54:05.999Z</time></trkpt><trkpt lat="44.76561741238888" lon="7.849407947921124"><ele>345.85714285714283</ele><time>2026-04-11T07:54:06.999Z</time></trkpt><trkpt lat="44.76564392873571" lon="7.849494923579454"><ele>346.0</ele><time>2026-04-11T07:54:07.999Z</time></trkpt><trkpt lat="44.765673294278805" lon="7.849581075936192"><ele>346.0</ele><time>2026-04-11T07:54:08.999Z</time></trkpt><trkpt lat="44.7656989020436" lon="7.849665943296846"><ele>346.0</ele><time>2026-04-11T07:54:09.999Z</time></trkpt><trkpt lat="44.76572347429589" lon="7.849753921006009"><ele>346.0</ele><time>2026-04-11T07:54:10.999Z</time></trkpt><trkpt lat="44.76576609896923" lon="7.849896289439565"><ele>346.0</ele><time>2026-04-11T07:54:12.999Z</time></trkpt><trkpt lat="44.76579945418405" lon="7.850010059676787"><ele>346.0</ele><time>2026-04-11T07:54:14.999Z</time></trkpt><trkpt lat="44.765865843728214" lon="7.850063371800179"><ele>346.0</ele><time>2026-04-11T07:54:16.999Z</time></trkpt><trkpt lat="44.76592079242867" lon="7.850156218842574"><ele>345.6</ele><time>2026-04-11T07:54:18.999Z</time></trkpt><trkpt lat="44.766005718312236" lon="7.850237684404616"><ele>345.20000000000005</ele><time>2026-04-11T07:54:20.999Z</time></trkpt><trkpt lat="44.76606771034497" lon="7.850257107330224"><ele>344.79999999999995</ele><time>2026-04-11T07:54:21.999Z</time></trkpt><trkpt lat="44.7661663752719" lon="7.850288309957343"><ele>344.4</ele><time>2026-04-11T07:54:23.999Z</time></trkpt><trkpt lat="44.7662887725588" lon="7.850330196280878"><ele>344.0</ele><time>2026-04-11T07:54:25.999Z</time></trkpt><trkpt lat="44.76640627554782" lon="7.850341359223003"><ele>343.33333333333337</ele><time>2026-04-11T07:54:27.999Z</time></trkpt><trkpt lat="44.7664795730328" lon="7.850365144901473"><ele>342.6666666666667</ele><time>2026-04-11T07:54:28.999Z</time></trkpt><trkpt lat="44.766562048117024" lon="7.850394372389923"><ele>342.0</ele><time>2026-04-11T07:54:29.999Z</time></trkpt><trkpt lat="44.766650823841786" lon="7.850437037825771"><ele>341.3333333333333</ele><time>2026-04-11T07:54:30.999Z</time></trkpt><trkpt lat="44.76673108262509" lon="7.850482245135133"><ele>340.66666666666663</ele><time>2026-04-11T07:54:31.999Z</time></trkpt><trkpt lat="44.76681727422897" lon="7.85053417960798"><ele>340.0</ele><time>2026-04-11T07:54:32.999Z</time></trkpt><trkpt lat="44.76688290268208" lon="7.850582320146734"><ele>339.7142857142857</ele><time>2026-04-11T07:54:33.999Z</time></trkpt><trkpt lat="44.766926819350154" lon="7.8506602147544475"><ele>339.4285714285714</ele><time>2026-04-11T07:54:34.999Z</time></trkpt><trkpt lat="44.76694625185655" lon="7.850767090677506"><ele>339.1428571428571</ele><time>2026-04-11T07:54:35.999Z</time></trkpt><trkpt lat="44.76696673548536" lon="7.850871318396102"><ele>338.8571428571429</ele><time>2026-04-11T07:54:36.999Z</time></trkpt><trkpt lat="44.76696328763865" lon="7.850962584889834"><ele>338.57142857142856</ele><time>2026-04-11T07:54:37.999Z</time></trkpt><trkpt lat="44.766945114537364" lon="7.851055668487049"><ele>338.2857142857143</ele><time>2026-04-11T07:54:38.999Z</time></trkpt><trkpt lat="44.766926265474055" lon="7.8511657242499995"><ele>338.0</ele><time>2026-04-11T07:54:39.999Z</time></trkpt><trkpt lat="44.766919612371204" lon="7.85126035944113"><ele>338.0</ele><time>2026-04-11T07:54:40.999Z</time></trkpt><trkpt lat="44.76698791205637" lon="7.8513636936637266"><ele>338.0</ele><time>2026-04-11T07:54:42.999Z</time></trkpt><trkpt lat="44.767062965572805" lon="7.851392217029872"><ele>338.0</ele><time>2026-04-11T07:54:44.999Z</time></trkpt><trkpt lat="44.7670844871536" lon="7.851503626047151"><ele>338.0</ele><time>2026-04-11T07:54:48.999Z</time></trkpt><trkpt lat="44.76709359510288" lon="7.8516166743642115"><ele>338.0</ele><time>2026-04-11T07:54:51.999Z</time></trkpt><trkpt lat="44.767116878792564" lon="7.851734756827504"><ele>338.0</ele><time>2026-04-11T07:54:55Z</time></trkpt><trkpt lat="44.767128933250966" lon="7.852032540433514"><ele>337.8571428571429</ele><time>2026-04-11T07:54:58Z</time></trkpt><trkpt lat="44.76709528541146" lon="7.85211270373389"><ele>337.7142857142857</ele><time>2026-04-11T07:54:59Z</time></trkpt><trkpt lat="44.767076879564904" lon="7.852205053559475"><ele>337.57142857142856</ele><time>2026-04-11T07:55:00Z</time></trkpt><trkpt lat="44.76706106884347" lon="7.852301515956081"><ele>337.42857142857144</ele><time>2026-04-11T07:55:01Z</time></trkpt><trkpt lat="44.76703899339047" lon="7.852413622786285"><ele>337.2857142857143</ele><time>2026-04-11T07:55:02Z</time></trkpt><trkpt lat="44.767005204445745" lon="7.852505025274938"><ele>337.14285714285717</ele><time>2026-04-11T07:55:03Z</time></trkpt><trkpt lat="44.766965044207524" lon="7.85259681003214"><ele>337.0</ele><time>2026-04-11T07:55:04Z</time></trkpt><trkpt lat="44.76694089234755" lon="7.852705948764677"><ele>336.3333333333333</ele><time>2026-04-11T07:55:05Z</time></trkpt><trkpt lat="44.76692362350623" lon="7.852802664135126"><ele>335.66666666666663</ele><time>2026-04-11T07:55:06Z</time></trkpt><trkpt lat="44.76691634724415" lon="7.852892928005775"><ele>335.0</ele><time>2026-04-11T07:55:07Z</time></trkpt><trkpt lat="44.76691058097593" lon="7.852982178322593"><ele>334.3333333333333</ele><time>2026-04-11T07:55:08Z</time></trkpt><trkpt lat="44.76690858385455" lon="7.853130546618822"><ele>333.6666666666667</ele><time>2026-04-11T07:55:10Z</time></trkpt><trkpt lat="44.76689360899976" lon="7.8533086461175525"><ele>333.0</ele><time>2026-04-11T07:55:12Z</time></trkpt><trkpt lat="44.766861678344945" lon="7.853474546606358"><ele>333.1666666666667</ele><time>2026-04-11T07:55:14Z</time></trkpt><trkpt lat="44.766860160571206" lon="7.853570846792596"><ele>333.3333333333333</ele><time>2026-04-11T07:55:15Z</time></trkpt><trkpt lat="44.76688430191056" lon="7.853670617624285"><ele>333.5</ele><time>2026-04-11T07:55:16Z</time></trkpt><trkpt lat="44.76687226434202" lon="7.85384704150477"><ele>333.66666666666663</ele><time>2026-04-11T07:55:17.999Z</time></trkpt><trkpt lat="44.766841955468855" lon="7.853950778049744"><ele>333.8333333333333</ele><time>2026-04-11T07:55:18.999Z</time></trkpt><trkpt lat="44.76681425699502" lon="7.854057990520229"><ele>334.0</ele><time>2026-04-11T07:55:19.999Z</time></trkpt><trkpt lat="44.76671460067365" lon="7.854130133094488"><ele>334.0</ele><time>2026-04-11T07:55:21.999Z</time></trkpt><trkpt lat="44.7666286511133" lon="7.854190443461654"><ele>334.0</ele><time>2026-04-11T07:55:23.999Z</time></trkpt><trkpt lat="44.76652623437638" lon="7.854213010761024"><ele>334.0</ele><time>2026-04-11T07:55:25.999Z</time></trkpt><trkpt lat="44.76645821341534" lon="7.854209329447936"><ele>334.0</ele><time>2026-04-11T07:55:26.999Z</time></trkpt><trkpt lat="44.76634334599387" lon="7.854196288353621"><ele>334.0</ele><time>2026-04-11T07:55:28.999Z</time></trkpt><trkpt lat="44.766276447030144" lon="7.854204586859279"><ele>334.0</ele><time>2026-04-11T07:55:30.999Z</time></trkpt><trkpt lat="44.76620725348566" lon="7.854207876974345"><ele>334.0</ele><time>2026-04-11T07:55:32.999Z</time></trkpt><trkpt lat="44.766144601103115" lon="7.854217277456718"><ele>334.0</ele><time>2026-04-11T07:55:34.999Z</time></trkpt><trkpt lat="44.766118897543954" lon="7.854315561163458"><ele>334.0</ele><time>2026-04-11T07:55:36.999Z</time></trkpt><trkpt lat="44.76597072725481" lon="7.85448976108752"><ele>334.0</ele><time>2026-04-11T07:55:38.999Z</time></trkpt><trkpt lat="44.7659019083797" lon="7.854534274152881"><ele>334.16666666666663</ele><time>2026-04-11T07:55:39.999Z</time></trkpt><trkpt lat="44.765808455374135" lon="7.85457901355665"><ele>334.3333333333333</ele><time>2026-04-11T07:55:41.999Z</time></trkpt><trkpt lat="44.76572585696769" lon="7.854621794974456"><ele>334.5</ele><time>2026-04-11T07:55:43.999Z</time></trkpt><trkpt lat="44.76566412788885" lon="7.854642254143939"><ele>334.6666666666667</ele><time>2026-04-11T07:55:45.999Z</time></trkpt><trkpt lat="44.765601328736736" lon="7.854696285092379"><ele>334.83333333333337</ele><time>2026-04-11T07:55:47.999Z</time></trkpt><trkpt lat="44.76552616093807" lon="7.854735546114563"><ele>335.0</ele><time>2026-04-11T07:55:49.999Z</time></trkpt><trkpt lat="44.7654271034491" lon="7.85476450872176"><ele>335.0</ele><time>2026-04-11T07:55:51.999Z</time></trkpt><trkpt lat="44.76532955651334" lon="7.854799399480963"><ele>335.0</ele><time>2026-04-11T07:55:53.999Z</time></trkpt><trkpt lat="44.76523531305999" lon="7.854788320503367"><ele>335.0</ele><time>2026-04-11T07:55:55.999Z</time></trkpt><trkpt lat="44.765148945423825" lon="7.854706630840338"><ele>335.0</ele><time>2026-04-11T07:55:57.999Z</time></trkpt><trkpt lat="44.76509835685091" lon="7.85462738264319"><ele>335.0</ele><time>2026-04-11T07:55:59.999Z</time></trkpt><trkpt lat="44.765102672847945" lon="7.85453158289687"><ele>335.0</ele><time>2026-04-11T07:56:02.999Z</time></trkpt><trkpt lat="44.765116278152725" lon="7.8543947934154"><ele>336.8</ele><time>2026-04-11T07:56:04.999Z</time></trkpt><trkpt lat="44.76511107132427" lon="7.85426651602937"><ele>338.6</ele><time>2026-04-11T07:56:05.999Z</time></trkpt><trkpt lat="44.76511639508032" lon="7.85411107236788"><ele>340.4</ele><time>2026-04-11T07:56:07.999Z</time></trkpt><trkpt lat="44.76505339327989" lon="7.854028932055793"><ele>342.2</ele><time>2026-04-11T07:56:09.999Z</time></trkpt><trkpt lat="44.7649685289671" lon="7.854022344670005"><ele>344.0</ele><time>2026-04-11T07:56:11.999Z</time></trkpt><trkpt lat="44.76486784208117" lon="7.854018697098304"><ele>344.0</ele><time>2026-04-11T07:56:13.999Z</time></trkpt><trkpt lat="44.76478353893747" lon="7.854021334717304"><ele>344.0</ele><time>2026-04-11T07:56:15.999Z</time></trkpt><trkpt lat="44.76470281592576" lon="7.853970232322472"><ele>344.0</ele><time>2026-04-11T07:56:18.999Z</time></trkpt><trkpt lat="44.76465579308341" lon="7.853881622374576"><ele>344.0</ele><time>2026-04-11T07:56:20.999Z</time></trkpt><trkpt lat="44.76463601160694" lon="7.8537581091200135"><ele>344.0</ele><time>2026-04-11T07:56:22.999Z</time></trkpt><trkpt lat="44.76461590329522" lon="7.8536344319477305"><ele>344.0</ele><time>2026-04-11T07:56:24.999Z</time></trkpt><trkpt lat="44.76461779585511" lon="7.8535265620630685"><ele>344.33333333333337</ele><time>2026-04-11T07:56:27.999Z</time></trkpt><trkpt lat="44.76461230462485" lon="7.853432638945394"><ele>344.6666666666667</ele><time>2026-04-11T07:56:29.999Z</time></trkpt><trkpt lat="44.76461294186267" lon="7.853330984869418"><ele>345.0</ele><time>2026-04-11T07:56:31.999Z</time></trkpt><trkpt lat="44.764604065984926" lon="7.85322512917668"><ele>345.3333333333333</ele><time>2026-04-11T07:56:33.999Z</time></trkpt><trkpt lat="44.76459606955026" lon="7.853100661716421"><ele>345.66666666666663</ele><time>2026-04-11T07:56:34.999Z</time></trkpt><trkpt lat="44.764597093352506" lon="7.85297013202207"><ele>346.0</ele><time>2026-04-11T07:56:36.999Z</time></trkpt><trkpt lat="44.76456399700727" lon="7.85283291317023"><ele>346.0</ele><time>2026-04-11T07:56:38.999Z</time></trkpt><trkpt lat="44.764489619227724" lon="7.852724193663062"><ele>346.0</ele><time>2026-04-11T07:56:40.999Z</time></trkpt><trkpt lat="44.764417144379536" lon="7.852677752062125"><ele>346.0</ele><time>2026-04-11T07:56:42.999Z</time></trkpt><trkpt lat="44.76432943950922" lon="7.852645422771914"><ele>346.0</ele><time>2026-04-11T07:56:46.999Z</time></trkpt><trkpt lat="44.7642415391276" lon="7.852680510116487"><ele>346.0</ele><time>2026-04-11T07:56:49.999Z</time></trkpt><trkpt lat="44.76416663803241" lon="7.852751361341434"><ele>347.16666666666663</ele><time>2026-04-11T07:56:51.999Z</time></trkpt><trkpt lat="44.76411702742964" lon="7.8528625489434445"><ele>348.3333333333333</ele><time>2026-04-11T07:56:53.999Z</time></trkpt><trkpt lat="44.76408753116999" lon="7.852959317209896"><ele>349.5</ele><time>2026-04-11T07:56:55.999Z</time></trkpt><trkpt lat="44.7640400629665" lon="7.853062883981623"><ele>350.6666666666667</ele><time>2026-04-11T07:56:58.999Z</time></trkpt><trkpt lat="44.76397335100166" lon="7.853093021087566"><ele>351.83333333333337</ele><time>2026-04-11T07:57:01Z</time></trkpt><trkpt lat="44.76388735849834" lon="7.852996639221285"><ele>353.0</ele><time>2026-04-11T07:57:03Z</time></trkpt><trkpt lat="44.76376769482577" lon="7.852939262624334"><ele>353.0</ele><time>2026-04-11T07:57:05.001Z</time></trkpt><trkpt lat="44.763661458324385" lon="7.852933771208346"><ele>353.0</ele><time>2026-04-11T07:57:07.001Z</time></trkpt><trkpt lat="44.76360119528278" lon="7.852877225252429"><ele>353.0</ele><time>2026-04-11T07:57:08.001Z</time></trkpt><trkpt lat="44.76354367529157" lon="7.8528204836795465"><ele>353.0</ele><time>2026-04-11T07:57:09.001Z</time></trkpt><trkpt lat="44.7634603909794" lon="7.852704096092591"><ele>353.0</ele><time>2026-04-11T07:57:11.001Z</time></trkpt><trkpt lat="44.763409679438375" lon="7.852597341854664"><ele>352.5</ele><time>2026-04-11T07:57:13.001Z</time></trkpt><trkpt lat="44.763357455974045" lon="7.852532714065663"><ele>352.0</ele><time>2026-04-11T07:57:14.001Z</time></trkpt><trkpt lat="44.76329776585332" lon="7.852439177209193"><ele>351.5</ele><time>2026-04-11T07:57:16.001Z</time></trkpt><trkpt lat="44.76321950124154" lon="7.852301139202939"><ele>351.0</ele><time>2026-04-11T07:57:18.001Z</time></trkpt><trkpt lat="44.76315266338912" lon="7.85228202368087"><ele>350.5</ele><time>2026-04-11T07:57:19Z</time></trkpt><trkpt lat="44.76307284528294" lon="7.852254015058665"><ele>350.0</ele><time>2026-04-11T07:57:20Z</time></trkpt><trkpt lat="44.76300806666002" lon="7.852230670145938"><ele>350.0</ele><time>2026-04-11T07:57:21Z</time></trkpt><trkpt lat="44.76293323060036" lon="7.8522228336236966"><ele>350.0</ele><time>2026-04-11T07:57:22Z</time></trkpt><trkpt lat="44.76285255161475" lon="7.852180877324479"><ele>350.0</ele><time>2026-04-11T07:57:23Z</time></trkpt><trkpt lat="44.7627707281146" lon="7.852150312724594"><ele>350.0</ele><time>2026-04-11T07:57:24Z</time></trkpt><trkpt lat="44.76268291353166" lon="7.8521081897705844"><ele>350.0</ele><time>2026-04-11T07:57:25Z</time></trkpt><trkpt lat="44.762591071238006" lon="7.852060526162082"><ele>350.0</ele><time>2026-04-11T07:57:26Z</time></trkpt><trkpt lat="44.76249589962183" lon="7.852000645729381"><ele>348.8</ele><time>2026-04-11T07:57:27Z</time></trkpt><trkpt lat="44.762403023732304" lon="7.851950932939422"><ele>347.6</ele><time>2026-04-11T07:57:28Z</time></trkpt><trkpt lat="44.76229197193851" lon="7.851894159280937"><ele>346.4</ele><time>2026-04-11T07:57:29Z</time></trkpt><trkpt lat="44.762182598467646" lon="7.851844352445422"><ele>345.2</ele><time>2026-04-11T07:57:30Z</time></trkpt><trkpt lat="44.7620718271464" lon="7.851830803275867"><ele>344.0</ele><time>2026-04-11T07:57:31Z</time></trkpt><trkpt lat="44.76196567075776" lon="7.851799883104239"><ele>344.4</ele><time>2026-04-11T07:57:32Z</time></trkpt><trkpt lat="44.76187476779599" lon="7.8517635533640915"><ele>344.79999999999995</ele><time>2026-04-11T07:57:33Z</time></trkpt><trkpt lat="44.76180728957604" lon="7.851855440046017"><ele>345.20000000000005</ele><time>2026-04-11T07:57:34Z</time></trkpt><trkpt lat="44.76170893706325" lon="7.85166712227547"><ele>345.6</ele><time>2026-04-11T07:57:35Z</time></trkpt><trkpt lat="44.761635139743824" lon="7.8516246936349345"><ele>346.0</ele><time>2026-04-11T07:57:36Z</time></trkpt><trkpt lat="44.76156551581362" lon="7.851594386278935"><ele>346.0</ele><time>2026-04-11T07:57:37Z</time></trkpt><trkpt lat="44.76149712002107" lon="7.851559974007622"><ele>346.0</ele><time>2026-04-11T07:57:38Z</time></trkpt><trkpt lat="44.76142830079625" lon="7.8515324335223236"><ele>346.0</ele><time>2026-04-11T07:57:39Z</time></trkpt><trkpt lat="44.761353260107" lon="7.851512351445872"><ele>346.0</ele><time>2026-04-11T07:57:40Z</time></trkpt><trkpt lat="44.761280286561735" lon="7.851484504904444"><ele>346.0</ele><time>2026-04-11T07:57:41Z</time></trkpt><trkpt lat="44.76121611918005" lon="7.851455597169918"><ele>346.0</ele><time>2026-04-11T07:57:42Z</time></trkpt><trkpt lat="44.761149753319586" lon="7.851418787693541"><ele>346.0</ele><time>2026-04-11T07:57:43Z</time></trkpt><trkpt lat="44.761084074679616" lon="7.851386804359714"><ele>347.8</ele><time>2026-04-11T07:57:44Z</time></trkpt><trkpt lat="44.76101866293609" lon="7.851359011794551"><ele>349.6</ele><time>2026-04-11T07:57:45Z</time></trkpt><trkpt lat="44.760894532685604" lon="7.851378979466809"><ele>351.4</ele><time>2026-04-11T07:57:47Z</time></trkpt><trkpt lat="44.76082785296059" lon="7.851395637354938"><ele>353.2</ele><time>2026-04-11T07:57:48Z</time></trkpt><trkpt lat="44.76076810648373" lon="7.851445203816069"><ele>355.0</ele><time>2026-04-11T07:57:49Z</time></trkpt><trkpt lat="44.7606470778385" lon="7.851473987881325"><ele>355.0</ele><time>2026-04-11T07:57:51Z</time></trkpt><trkpt lat="44.76058159379612" lon="7.851489409988752"><ele>355.0</ele><time>2026-04-11T07:57:52Z</time></trkpt><trkpt lat="44.76051780323436" lon="7.8515102151362175"><ele>355.0</ele><time>2026-04-11T07:57:53Z</time></trkpt><trkpt lat="44.760410541226484" lon="7.851578404916249"><ele>355.0</ele><time>2026-04-11T07:57:55Z</time></trkpt><trkpt lat="44.76034700556212" lon="7.8516117456243935"><ele>355.0</ele><time>2026-04-11T07:57:56Z</time></trkpt><trkpt lat="44.76028996943588" lon="7.851658897041965"><ele>355.0</ele><time>2026-04-11T07:57:57Z</time></trkpt><trkpt lat="44.76023793893729" lon="7.851709773427713"><ele>355.0</ele><time>2026-04-11T07:57:58Z</time></trkpt><trkpt lat="44.76012407700701" lon="7.851769242469947"><ele>356.4</ele><time>2026-04-11T07:58:00Z</time></trkpt><trkpt lat="44.760015668930414" lon="7.85179122982387"><ele>357.8</ele><time>2026-04-11T07:58:02Z</time></trkpt><trkpt lat="44.75991008705234" lon="7.851779542615591"><ele>359.20000000000005</ele><time>2026-04-11T07:58:04Z</time></trkpt><trkpt lat="44.75980569850816" lon="7.85178208900998"><ele>360.6</ele><time>2026-04-11T07:58:06Z</time></trkpt><trkpt lat="44.75972433825452" lon="7.851810223222702"><ele>362.0</ele><time>2026-04-11T07:58:08Z</time></trkpt><trkpt lat="44.75964248537502" lon="7.851852660907178"><ele>362.0</ele><time>2026-04-11T07:58:10Z</time></trkpt><trkpt lat="44.75957772776406" lon="7.851886267051836"><ele>362.0</ele><time>2026-04-11T07:58:12Z</time></trkpt><trkpt lat="44.759493537657654" lon="7.851889772323681"><ele>362.0</ele><time>2026-04-11T07:58:15Z</time></trkpt><trkpt lat="44.75944529767754" lon="7.851829056729139"><ele>362.0</ele><time>2026-04-11T07:58:18Z</time></trkpt><trkpt lat="44.759396484615884" lon="7.851759635645353"><ele>362.0</ele><time>2026-04-11T07:58:21Z</time></trkpt><trkpt lat="44.759332928451514" lon="7.851679246759791"><ele>362.0</ele><time>2026-04-11T07:58:24Z</time></trkpt><trkpt lat="44.759267031172705" lon="7.851596081831786"><ele>362.6666666666667</ele><time>2026-04-11T07:58:27Z</time></trkpt><trkpt lat="44.75919263303293" lon="7.851516227428802"><ele>363.33333333333337</ele><time>2026-04-11T07:58:30Z</time></trkpt><trkpt lat="44.75911270355653" lon="7.851534406852521"><ele>364.0</ele><time>2026-04-11T07:58:33Z</time></trkpt><trkpt lat="44.75903275139133" lon="7.851547306933001"><ele>364.6666666666667</ele><time>2026-04-11T07:58:36Z</time></trkpt><trkpt lat="44.75897585717251" lon="7.851467278433243"><ele>365.3333333333333</ele><time>2026-04-11T07:58:39Z</time></trkpt><trkpt lat="44.75892319697541" lon="7.8513625681763575"><ele>366.0</ele><time>2026-04-11T07:58:42Z</time></trkpt><trkpt lat="44.75888021912593" lon="7.851261103610607"><ele>366.0</ele><time>2026-04-11T07:58:45Z</time></trkpt><trkpt lat="44.758839684080954" lon="7.8511647122392425"><ele>366.0</ele><time>2026-04-11T07:58:48Z</time></trkpt><trkpt lat="44.758775984109356" lon="7.85106977833468"><ele>366.0</ele><time>2026-04-11T07:58:51Z</time></trkpt><trkpt lat="44.75871999342648" lon="7.850985995910094"><ele>366.0</ele><time>2026-04-11T07:58:54Z</time></trkpt><trkpt lat="44.758657940102864" lon="7.850949139984003"><ele>366.0</ele><time>2026-04-11T07:58:57Z</time></trkpt><trkpt lat="44.758616093075965" lon="7.850860102153965"><ele>366.0</ele><time>2026-04-11T07:58:59Z</time></trkpt><trkpt lat="44.75857862319044" lon="7.850773844146652"><ele>366.7142857142857</ele><time>2026-04-11T07:59:01Z</time></trkpt><trkpt lat="44.758537942119865" lon="7.850705107076831"><ele>367.42857142857144</ele><time>2026-04-11T07:59:03Z</time></trkpt><trkpt lat="44.758470457459445" lon="7.850664188691359"><ele>368.1428571428571</ele><time>2026-04-11T07:59:05Z</time></trkpt><trkpt lat="44.75841658360744" lon="7.850614338287219"><ele>368.8571428571429</ele><time>2026-04-11T07:59:07Z</time></trkpt><trkpt lat="44.75834597353082" lon="7.850550373734946"><ele>369.57142857142856</ele><time>2026-04-11T07:59:09Z</time></trkpt><trkpt lat="44.75829323470638" lon="7.850498674414509"><ele>370.2857142857143</ele><time>2026-04-11T07:59:11Z</time></trkpt><trkpt lat="44.75822649021393" lon="7.8504756187419"><ele>371.0</ele><time>2026-04-11T07:59:13Z</time></trkpt><trkpt lat="44.7581209703778" lon="7.850434625007402"><ele>371.5</ele><time>2026-04-11T07:59:16Z</time></trkpt><trkpt lat="44.758053782811665" lon="7.850398457751451"><ele>372.0</ele><time>2026-04-11T07:59:18Z</time></trkpt><trkpt lat="44.75797288139348" lon="7.85036399961351"><ele>372.5</ele><time>2026-04-11T07:59:21Z</time></trkpt><trkpt lat="44.75788042104377" lon="7.850337276387265"><ele>373.0</ele><time>2026-04-11T07:59:24Z</time></trkpt><trkpt lat="44.757802848144514" lon="7.85032666863732"><ele>373.5</ele><time>2026-04-11T07:59:27Z</time></trkpt><trkpt lat="44.75773834612283" lon="7.850323639718623"><ele>374.0</ele><time>2026-04-11T07:59:30Z</time></trkpt><trkpt lat="44.75767465533205" lon="7.85029951146681"><ele>374.1428571428571</ele><time>2026-04-11T07:59:33Z</time></trkpt><trkpt lat="44.75762024753" lon="7.850254696482919"><ele>374.28571428571433</ele><time>2026-04-11T07:59:36Z</time></trkpt><trkpt lat="44.75756839919928" lon="7.850188727567163"><ele>374.42857142857144</ele><time>2026-04-11T07:59:39Z</time></trkpt><trkpt lat="44.75752069342266" lon="7.850109189577226"><ele>374.57142857142856</ele><time>2026-04-11T07:59:42Z</time></trkpt><trkpt lat="44.75746613143618" lon="7.850017689609676"><ele>374.71428571428567</ele><time>2026-04-11T07:59:46Z</time></trkpt><trkpt lat="44.75741681403872" lon="7.849941774401093"><ele>374.8571428571429</ele><time>2026-04-11T07:59:49Z</time></trkpt><trkpt lat="44.75735670566521" lon="7.849875715673776"><ele>375.0</ele><time>2026-04-11T07:59:52Z</time></trkpt><trkpt lat="44.75727305858569" lon="7.84988356329464"><ele>375.0</ele><time>2026-04-11T07:59:55Z</time></trkpt><trkpt lat="44.75719029547421" lon="7.849957750900851"><ele>375.0</ele><time>2026-04-11T07:59:58Z</time></trkpt><trkpt lat="44.75700929791153" lon="7.8500009408664955"><ele>375.0</ele><time>2026-04-11T08:00:00Z</time></trkpt><trkpt lat="44.756943707037806" lon="7.850098758290035"><ele>375.0</ele><time>2026-04-11T08:00:02Z</time></trkpt><trkpt lat="44.75689681687298" lon="7.850208225293087"><ele>375.0</ele><time>2026-04-11T08:00:04Z</time></trkpt><trkpt lat="44.75686393468208" lon="7.8503347117076805"><ele>375.0</ele><time>2026-04-11T08:00:06Z</time></trkpt><trkpt lat="44.756841167235116" lon="7.8504688216163245"><ele>375.0</ele><time>2026-04-11T08:00:08Z</time></trkpt><trkpt lat="44.756832828407255" lon="7.850610903228712"><ele>375.0</ele><time>2026-04-11T08:00:10Z</time></trkpt><trkpt lat="44.75682641481864" lon="7.850761179449425"><ele>375.0</ele><time>2026-04-11T08:00:12Z</time></trkpt><trkpt lat="44.75682386459365" lon="7.8509141719159405"><ele>375.0</ele><time>2026-04-11T08:00:14Z</time></trkpt><trkpt lat="44.75682719124765" lon="7.85107476530852"><ele>375.0</ele><time>2026-04-11T08:00:16Z</time></trkpt><trkpt lat="44.75683508266978" lon="7.8512417416152065"><ele>375.0</ele><time>2026-04-11T08:00:18Z</time></trkpt><trkpt lat="44.75682603127478" lon="7.851435059639518"><ele>375.0</ele><time>2026-04-11T08:00:20Z</time></trkpt><trkpt lat="44.75681509544244" lon="7.851588198280716"><ele>375.0</ele><time>2026-04-11T08:00:22Z</time></trkpt><trkpt lat="44.75681346918652" lon="7.851738727267064"><ele>375.0</ele><time>2026-04-11T08:00:24Z</time></trkpt><trkpt lat="44.756808170731354" lon="7.85189511353213"><ele>375.0</ele><time>2026-04-11T08:00:26Z</time></trkpt><trkpt lat="44.75679925997063" lon="7.852045893399251"><ele>375.0</ele><time>2026-04-11T08:00:28Z</time></trkpt><trkpt lat="44.756777228137025" lon="7.852201184306208"><ele>375.0</ele><time>2026-04-11T08:00:30Z</time></trkpt><trkpt lat="44.756761872461745" lon="7.852367264724754"><ele>375.6666666666667</ele><time>2026-04-11T08:00:32Z</time></trkpt><trkpt lat="44.75675667735676" lon="7.8525405113922035"><ele>376.3333333333333</ele><time>2026-04-11T08:00:34Z</time></trkpt><trkpt lat="44.756775255147936" lon="7.852636518507336"><ele>377.0</ele><time>2026-04-11T08:00:35Z</time></trkpt><trkpt lat="44.7568014718034" lon="7.852739216249642"><ele>377.66666666666663</ele><time>2026-04-11T08:00:36Z</time></trkpt><trkpt lat="44.756827745211226" lon="7.852830579420396"><ele>378.3333333333333</ele><time>2026-04-11T08:00:37Z</time></trkpt><trkpt lat="44.75685019920951" lon="7.852920664090664"><ele>379.0</ele><time>2026-04-11T08:00:38Z</time></trkpt><trkpt lat="44.75685469322214" lon="7.853029676808982"><ele>379.28571428571433</ele><time>2026-04-11T08:00:39Z</time></trkpt><trkpt lat="44.7568378213102" lon="7.853133411273623"><ele>379.57142857142856</ele><time>2026-04-11T08:00:40Z</time></trkpt><trkpt lat="44.75681807279991" lon="7.853223258818109"><ele>379.8571428571429</ele><time>2026-04-11T08:00:41Z</time></trkpt><trkpt lat="44.75679150630814" lon="7.853317317172691"><ele>380.14285714285717</ele><time>2026-04-11T08:00:42Z</time></trkpt><trkpt lat="44.75675699466621" lon="7.8534141805297555"><ele>380.42857142857144</ele><time>2026-04-11T08:00:43Z</time></trkpt><trkpt lat="44.756732561346354" lon="7.853517341659666"><ele>380.7142857142857</ele><time>2026-04-11T08:00:44Z</time></trkpt><trkpt lat="44.75670448484357" lon="7.853604789454432"><ele>381.0</ele><time>2026-04-11T08:00:45Z</time></trkpt><trkpt lat="44.75667305423447" lon="7.853694980359692"><ele>381.5</ele><time>2026-04-11T08:00:46Z</time></trkpt><trkpt lat="44.756641526083534" lon="7.853783401507284"><ele>382.0</ele><time>2026-04-11T08:00:47Z</time></trkpt><trkpt lat="44.756609793804415" lon="7.853878108417518"><ele>382.5</ele><time>2026-04-11T08:00:48Z</time></trkpt><trkpt lat="44.75658632077776" lon="7.853966474361666"><ele>383.0</ele><time>2026-04-11T08:00:49Z</time></trkpt><trkpt lat="44.75656447524572" lon="7.854117837019037"><ele>383.5</ele><time>2026-04-11T08:00:51Z</time></trkpt><trkpt lat="44.75655821400295" lon="7.854232845736927"><ele>384.0</ele><time>2026-04-11T08:00:53Z</time></trkpt><trkpt lat="44.756535906767674" lon="7.854340971148916"><ele>384.3333333333333</ele><time>2026-04-11T08:00:55Z</time></trkpt><trkpt lat="44.75650377551344" lon="7.854457969038065"><ele>384.66666666666663</ele><time>2026-04-11T08:00:57Z</time></trkpt><trkpt lat="44.756452210492355" lon="7.8545765054727275"><ele>385.0</ele><time>2026-04-11T08:00:59Z</time></trkpt><trkpt lat="44.756384446136565" lon="7.854676940240104"><ele>385.3333333333333</ele><time>2026-04-11T08:01:01Z</time></trkpt><trkpt lat="44.75635458874878" lon="7.854775128758221"><ele>385.66666666666663</ele><time>2026-04-11T08:01:03Z</time></trkpt><trkpt lat="44.75631220085587" lon="7.854852570458856"><ele>386.0</ele><time>2026-04-11T08:01:05Z</time></trkpt><trkpt lat="44.75626395726929" lon="7.854950742247263"><ele>385.99999999999994</ele><time>2026-04-11T08:01:07Z</time></trkpt><trkpt lat="44.75622692934871" lon="7.855032596417627"><ele>386.0</ele><time>2026-04-11T08:01:09Z</time></trkpt><trkpt lat="44.756156234393416" lon="7.855121018182311"><ele>386.0</ele><time>2026-04-11T08:01:11Z</time></trkpt><trkpt lat="44.75611104539365" lon="7.855185113371634"><ele>386.0</ele><time>2026-04-11T08:01:12Z</time></trkpt><trkpt lat="44.75606369544123" lon="7.855247960025547"><ele>385.99999999999994</ele><time>2026-04-11T08:01:13Z</time></trkpt><trkpt lat="44.755970711058836" lon="7.8553480928095825"><ele>386.0</ele><time>2026-04-11T08:01:15Z</time></trkpt><trkpt lat="44.75590473826736" lon="7.85545274543105"><ele>386.20000000000005</ele><time>2026-04-11T08:01:17Z</time></trkpt><trkpt lat="44.75587149441568" lon="7.85553350790357"><ele>386.40000000000003</ele><time>2026-04-11T08:01:19Z</time></trkpt><trkpt lat="44.75579802068977" lon="7.855710061330741"><ele>386.6</ele><time>2026-04-11T08:01:21Z</time></trkpt><trkpt lat="44.755742786596684" lon="7.855859366037775"><ele>386.8</ele><time>2026-04-11T08:01:23Z</time></trkpt><trkpt lat="44.755707326312404" lon="7.855936158740137"><ele>387.0</ele><time>2026-04-11T08:01:24Z</time></trkpt><trkpt lat="44.75562393538369" lon="7.856071150750431"><ele>387.20000000000005</ele><time>2026-04-11T08:01:26Z</time></trkpt><trkpt lat="44.755586452836425" lon="7.856142533755835"><ele>387.4</ele><time>2026-04-11T08:01:27Z</time></trkpt><trkpt lat="44.755546063383115" lon="7.856307959336132"><ele>387.6</ele><time>2026-04-11T08:01:29Z</time></trkpt><trkpt lat="44.75551832241244" lon="7.8563911459654365"><ele>387.79999999999995</ele><time>2026-04-11T08:01:30Z</time></trkpt><trkpt lat="44.755460763229166" lon="7.856536393612835"><ele>388.0</ele><time>2026-04-11T08:01:32Z</time></trkpt><trkpt lat="44.75541246211056" lon="7.856681658865456"><ele>387.4</ele><time>2026-04-11T08:01:34Z</time></trkpt><trkpt lat="44.75536823292361" lon="7.856835361244513"><ele>386.79999999999995</ele><time>2026-04-11T08:01:36Z</time></trkpt><trkpt lat="44.75532789836294" lon="7.856966512068854"><ele>386.2</ele><time>2026-04-11T08:01:38Z</time></trkpt><trkpt lat="44.75531485355754" lon="7.857104364331485"><ele>385.6</ele><time>2026-04-11T08:01:40Z</time></trkpt><trkpt lat="44.75533871690879" lon="7.857190594328789"><ele>385.0</ele><time>2026-04-11T08:01:41Z</time></trkpt><trkpt lat="44.75538686199266" lon="7.857296614645339"><ele>385.0</ele><time>2026-04-11T08:01:43Z</time></trkpt><trkpt lat="44.75550638124434" lon="7.857251624445553"><ele>385.0</ele><time>2026-04-11T08:01:45Z</time></trkpt><trkpt lat="44.755620806326505" lon="7.8572455597820285"><ele>385.0</ele><time>2026-04-11T08:01:47Z</time></trkpt><trkpt lat="44.75575359145717" lon="7.857240807750279"><ele>385.0</ele><time>2026-04-11T08:01:49Z</time></trkpt><trkpt lat="44.75583132260408" lon="7.857218620834452"><ele>385.0</ele><time>2026-04-11T08:01:50Z</time></trkpt><trkpt lat="44.75589469625381" lon="7.857183004771416"><ele>385.0</ele><time>2026-04-11T08:01:51Z</time></trkpt><trkpt lat="44.75595727427126" lon="7.857152183694623"><ele>385.0</ele><time>2026-04-11T08:01:52Z</time></trkpt><trkpt lat="44.75602577387687" lon="7.857123645430213"><ele>385.0</ele><time>2026-04-11T08:01:53Z</time></trkpt><trkpt lat="44.756087210726285" lon="7.85709446155247"><ele>385.0</ele><time>2026-04-11T08:01:54Z</time></trkpt><trkpt lat="44.756153865014674" lon="7.857066901888309"><ele>385.0</ele><time>2026-04-11T08:01:55Z</time></trkpt><trkpt lat="44.75621879787063" lon="7.857069666198763"><ele>385.0</ele><time>2026-04-11T08:01:56Z</time></trkpt><trkpt lat="44.756333443635036" lon="7.857068884135903"><ele>384.50000000000006</ele><time>2026-04-11T08:01:58Z</time></trkpt><trkpt lat="44.75644891014497" lon="7.857066406813928"><ele>384.0</ele><time>2026-04-11T08:02:00Z</time></trkpt><trkpt lat="44.75651125114348" lon="7.857043989266014"><ele>383.5</ele><time>2026-04-11T08:02:01Z</time></trkpt><trkpt lat="44.756614749129845" lon="7.85696872616266"><ele>383.0</ele><time>2026-04-11T08:02:03Z</time></trkpt><trkpt lat="44.75664423569892" lon="7.856888912272453"><ele>382.5</ele><time>2026-04-11T08:02:04Z</time></trkpt><trkpt lat="44.75663840997466" lon="7.856796994297823"><ele>382.0</ele><time>2026-04-11T08:02:05Z</time></trkpt><trkpt lat="44.756721122776895" lon="7.856689400450998"><ele>382.0</ele><time>2026-04-11T08:02:08Z</time></trkpt><trkpt lat="44.75682982447205" lon="7.856659869684908"><ele>382.0</ele><time>2026-04-11T08:02:10Z</time></trkpt><trkpt lat="44.75692893874971" lon="7.85657168446294"><ele>382.0</ele><time>2026-04-11T08:02:12Z</time></trkpt><trkpt lat="44.75701548400021" lon="7.856488678946684"><ele>382.0</ele><time>2026-04-11T08:02:14Z</time></trkpt><trkpt lat="44.75708831912739" lon="7.856435750464958"><ele>382.0</ele><time>2026-04-11T08:02:16Z</time></trkpt><trkpt lat="44.757188852820775" lon="7.856417317036158"><ele>379.8333333333333</ele><time>2026-04-11T08:02:18Z</time></trkpt><trkpt lat="44.7572967325543" lon="7.856411064873787"><ele>377.66666666666663</ele><time>2026-04-11T08:02:20Z</time></trkpt><trkpt lat="44.75734958857418" lon="7.856318068909249"><ele>375.5</ele><time>2026-04-11T08:02:22Z</time></trkpt><trkpt lat="44.7573531918957" lon="7.856224003199729"><ele>373.3333333333333</ele><time>2026-04-11T08:02:25Z</time></trkpt><trkpt lat="44.75731338464231" lon="7.856130788237352"><ele>371.1666666666667</ele><time>2026-04-11T08:02:28Z</time></trkpt><trkpt lat="44.757244585201576" lon="7.856059662111689"><ele>369.0</ele><time>2026-04-11T08:02:32Z</time></trkpt><trkpt lat="44.75719098085181" lon="7.856012268843083"><ele>369.3333333333333</ele><time>2026-04-11T08:02:34Z</time></trkpt><trkpt lat="44.75714275751946" lon="7.8559357627254585"><ele>369.6666666666667</ele><time>2026-04-11T08:02:36Z</time></trkpt><trkpt lat="44.75719803221947" lon="7.855830316915057"><ele>370.0</ele><time>2026-04-11T08:02:39Z</time></trkpt><trkpt lat="44.75725146248053" lon="7.855765653991911"><ele>370.33333333333337</ele><time>2026-04-11T08:02:41Z</time></trkpt><trkpt lat="44.75731547089061" lon="7.8556992728078505"><ele>370.6666666666667</ele><time>2026-04-11T08:02:43Z</time></trkpt><trkpt lat="44.7573984836126" lon="7.855583110797207"><ele>371.0</ele><time>2026-04-11T08:02:45Z</time></trkpt><trkpt lat="44.75745107597791" lon="7.855513796760418"><ele>371.0</ele><time>2026-04-11T08:02:46Z</time></trkpt><trkpt lat="44.757504926395235" lon="7.855464079216406"><ele>371.0</ele><time>2026-04-11T08:02:47Z</time></trkpt><trkpt lat="44.75759925373709" lon="7.855358071692072"><ele>371.0</ele><time>2026-04-11T08:02:49Z</time></trkpt><trkpt lat="44.75763614573947" lon="7.855277958396737"><ele>371.0</ele><time>2026-04-11T08:02:50Z</time></trkpt><trkpt lat="44.757681592615064" lon="7.855204711108883"><ele>371.0</ele><time>2026-04-11T08:02:51Z</time></trkpt><trkpt lat="44.75774243940563" lon="7.855165761416449"><ele>371.0</ele><time>2026-04-11T08:02:52Z</time></trkpt><trkpt lat="44.75781361306421" lon="7.855167664588167"><ele>370.20000000000005</ele><time>2026-04-11T08:02:53Z</time></trkpt><trkpt lat="44.7578788839116" lon="7.855192556631066"><ele>369.40000000000003</ele><time>2026-04-11T08:02:54Z</time></trkpt><trkpt lat="44.75799077461407" lon="7.855262519783432"><ele>368.6</ele><time>2026-04-11T08:02:56Z</time></trkpt><trkpt lat="44.7580925629437" lon="7.855305106333211"><ele>367.8</ele><time>2026-04-11T08:02:58Z</time></trkpt><trkpt lat="44.75817361674876" lon="7.855353399585078"><ele>367.0</ele><time>2026-04-11T08:03:00Z</time></trkpt><trkpt lat="44.75826939319186" lon="7.855387310950597"><ele>367.0</ele><time>2026-04-11T08:03:02Z</time></trkpt><trkpt lat="44.75834186745963" lon="7.855398686812942"><ele>367.0</ele><time>2026-04-11T08:03:04Z</time></trkpt><trkpt lat="44.75841125742766" lon="7.855380664281791"><ele>367.0</ele><time>2026-04-11T08:03:06Z</time></trkpt><trkpt lat="44.75848879622023" lon="7.855313818065233"><ele>367.0</ele><time>2026-04-11T08:03:08Z</time></trkpt><trkpt lat="44.75855653432379" lon="7.855240788763419"><ele>367.0</ele><time>2026-04-11T08:03:10Z</time></trkpt><trkpt lat="44.758615986174256" lon="7.85518829214963"><ele>367.0</ele><time>2026-04-11T08:03:13Z</time></trkpt><trkpt lat="44.75870083542546" lon="7.855093903277226"><ele>367.3333333333333</ele><time>2026-04-11T08:03:14Z</time></trkpt><trkpt lat="44.75878894855834" lon="7.855027528952149"><ele>367.66666666666663</ele><time>2026-04-11T08:03:16Z</time></trkpt><trkpt lat="44.75886388117567" lon="7.854966546691024"><ele>368.0</ele><time>2026-04-11T08:03:18Z</time></trkpt><trkpt lat="44.758924921469216" lon="7.8549298011164135"><ele>368.3333333333333</ele><time>2026-04-11T08:03:20Z</time></trkpt><trkpt lat="44.758997954225116" lon="7.854872179972853"><ele>368.6666666666667</ele><time>2026-04-11T08:03:23Z</time></trkpt><trkpt lat="44.75907358491904" lon="7.854824206291157"><ele>369.0</ele><time>2026-04-11T08:03:26Z</time></trkpt><trkpt lat="44.75913306201929" lon="7.854784803913633"><ele>369.0</ele><time>2026-04-11T08:03:28Z</time></trkpt><trkpt lat="44.75920547212244" lon="7.854731710392654"><ele>369.0</ele><time>2026-04-11T08:03:30Z</time></trkpt><trkpt lat="44.7592824128844" lon="7.8547077564390335"><ele>369.0</ele><time>2026-04-11T08:03:32Z</time></trkpt><trkpt lat="44.759366414160276" lon="7.854690068463346"><ele>369.0</ele><time>2026-04-11T08:03:34Z</time></trkpt><trkpt lat="44.75943154195205" lon="7.854730415026031"><ele>369.0</ele><time>2026-04-11T08:03:36Z</time></trkpt><trkpt lat="44.759494849265174" lon="7.85474045525143"><ele>369.0</ele><time>2026-04-11T08:03:38Z</time></trkpt><trkpt lat="44.7595688664031" lon="7.8547168540798395"><ele>369.0</ele><time>2026-04-11T08:03:41Z</time></trkpt><trkpt lat="44.759638078576906" lon="7.854722541235174"><ele>369.0</ele><time>2026-04-11T08:03:44Z</time></trkpt><trkpt lat="44.75970871915362" lon="7.854699655199618"><ele>369.0</ele><time>2026-04-11T08:03:48Z</time></trkpt><trkpt lat="44.75973547934555" lon="7.854785516214586"><ele>369.0</ele><time>2026-04-11T08:03:54Z</time></trkpt><trkpt lat="44.75969771986174" lon="7.854882409518208"><ele>369.0</ele><time>2026-04-11T08:03:57Z</time></trkpt><trkpt lat="44.75964180692838" lon="7.855007348460274"><ele>369.0</ele><time>2026-04-11T08:03:59Z</time></trkpt><trkpt lat="44.759607575020254" lon="7.855106678749888"><ele>369.3333333333333</ele><time>2026-04-11T08:04:01Z</time></trkpt><trkpt lat="44.75957746795122" lon="7.8552088022171045"><ele>369.6666666666667</ele><time>2026-04-11T08:04:03Z</time></trkpt><trkpt lat="44.75953923898554" lon="7.855312993592681"><ele>370.0</ele><time>2026-04-11T08:04:05Z</time></trkpt><trkpt lat="44.759500357379736" lon="7.855410080202578"><ele>370.33333333333337</ele><time>2026-04-11T08:04:07Z</time></trkpt><trkpt lat="44.75945977456587" lon="7.855512973033115"><ele>370.6666666666667</ele><time>2026-04-11T08:04:09Z</time></trkpt><trkpt lat="44.759414583847374" lon="7.85560761509611"><ele>371.0</ele><time>2026-04-11T08:04:11Z</time></trkpt><trkpt lat="44.75938117969245" lon="7.855713893677209"><ele>371.6666666666667</ele><time>2026-04-11T08:04:13Z</time></trkpt><trkpt lat="44.759349810584766" lon="7.8558130436440585"><ele>372.33333333333337</ele><time>2026-04-11T08:04:15Z</time></trkpt><trkpt lat="44.75931903223607" lon="7.855910427841443"><ele>373.0</ele><time>2026-04-11T08:04:17Z</time></trkpt><trkpt lat="44.759284946936" lon="7.856020609385182"><ele>373.6666666666667</ele><time>2026-04-11T08:04:19Z</time></trkpt><trkpt lat="44.75926047067723" lon="7.856123007132741"><ele>374.3333333333333</ele><time>2026-04-11T08:04:22Z</time></trkpt><trkpt lat="44.75923477831961" lon="7.8562269193745475"><ele>375.0</ele><time>2026-04-11T08:04:23Z</time></trkpt><trkpt lat="44.75920899401737" lon="7.856346492735692"><ele>375.8</ele><time>2026-04-11T08:04:25Z</time></trkpt><trkpt lat="44.759173953189126" lon="7.856466618813612"><ele>376.6</ele><time>2026-04-11T08:04:27Z</time></trkpt><trkpt lat="44.75913701433654" lon="7.856581848820465"><ele>377.4</ele><time>2026-04-11T08:04:29Z</time></trkpt><trkpt lat="44.75910274750196" lon="7.85670447505507"><ele>378.2</ele><time>2026-04-11T08:04:31Z</time></trkpt><trkpt lat="44.75906572035985" lon="7.856833080272921"><ele>379.0</ele><time>2026-04-11T08:04:33Z</time></trkpt><trkpt lat="44.75903026383015" lon="7.856961179195221"><ele>379.4</ele><time>2026-04-11T08:04:35Z</time></trkpt><trkpt lat="44.75898551973126" lon="7.857086387019218"><ele>379.79999999999995</ele><time>2026-04-11T08:04:37Z</time></trkpt><trkpt lat="44.75894542370977" lon="7.857216651704128"><ele>380.20000000000005</ele><time>2026-04-11T08:04:39Z</time></trkpt><trkpt lat="44.758907724255266" lon="7.857342223171051"><ele>380.6</ele><time>2026-04-11T08:04:41Z</time></trkpt><trkpt lat="44.75885058037548" lon="7.857396782049562"><ele>381.0</ele><time>2026-04-11T08:04:42Z</time></trkpt><trkpt lat="44.75880494209146" lon="7.857524729805773"><ele>381.6</ele><time>2026-04-11T08:04:44Z</time></trkpt><trkpt lat="44.75876065934285" lon="7.857648194531299"><ele>382.20000000000005</ele><time>2026-04-11T08:04:46Z</time></trkpt><trkpt lat="44.758724415769606" lon="7.857749245312854"><ele>382.79999999999995</ele><time>2026-04-11T08:04:48Z</time></trkpt><trkpt lat="44.75868310148412" lon="7.85786496576211"><ele>383.4</ele><time>2026-04-11T08:04:50Z</time></trkpt><trkpt lat="44.758645817068384" lon="7.857970570474414"><ele>384.0</ele><time>2026-04-11T08:04:52Z</time></trkpt><trkpt lat="44.75859384085017" lon="7.8581177883354245"><ele>384.0</ele><time>2026-04-11T08:04:55Z</time></trkpt><trkpt lat="44.7585505847789" lon="7.858240307014186"><ele>384.0</ele><time>2026-04-11T08:04:57Z</time></trkpt><trkpt lat="44.758512645377266" lon="7.858347767256465"><ele>384.0</ele><time>2026-04-11T08:04:59Z</time></trkpt><trkpt lat="44.75847580832464" lon="7.858452104692896"><ele>384.0</ele><time>2026-04-11T08:05:01Z</time></trkpt><trkpt lat="44.75843972772168" lon="7.858554510171418"><ele>384.0</ele><time>2026-04-11T08:05:03Z</time></trkpt><trkpt lat="44.758409588587334" lon="7.85864204801097"><ele>384.0</ele><time>2026-04-11T08:05:05Z</time></trkpt><trkpt lat="44.75837091859324" lon="7.8587543636758435"><ele>384.2</ele><time>2026-04-11T08:05:07Z</time></trkpt><trkpt lat="44.75833156362476" lon="7.85886976234985"><ele>384.4</ele><time>2026-04-11T08:05:09Z</time></trkpt><trkpt lat="44.75832832597506" lon="7.859013931675069"><ele>384.6</ele><time>2026-04-11T08:05:11Z</time></trkpt><trkpt lat="44.75827916225792" lon="7.859130949672932"><ele>384.8</ele><time>2026-04-11T08:05:12.999Z</time></trkpt><trkpt lat="44.75823580894775" lon="7.85926659042613"><ele>385.0</ele><time>2026-04-11T08:05:14.999Z</time></trkpt><trkpt lat="44.75819142699741" lon="7.859407040338361"><ele>385.0</ele><time>2026-04-11T08:05:16.999Z</time></trkpt><trkpt lat="44.758113940690215" lon="7.859512958568125"><ele>385.0</ele><time>2026-04-11T08:05:18.999Z</time></trkpt><trkpt lat="44.758068844296936" lon="7.859642884045857"><ele>385.0</ele><time>2026-04-11T08:05:20.999Z</time></trkpt><trkpt lat="44.75802506428736" lon="7.8597628994274364"><ele>385.0</ele><time>2026-04-11T08:05:22.999Z</time></trkpt><trkpt lat="44.75798056196834" lon="7.859880416155421"><ele>385.0</ele><time>2026-04-11T08:05:25Z</time></trkpt><trkpt lat="44.757936862489174" lon="7.8599870823782565"><ele>385.00000000000006</ele><time>2026-04-11T08:05:27Z</time></trkpt><trkpt lat="44.75789005362934" lon="7.86008819382455"><ele>385.0</ele><time>2026-04-11T08:05:29Z</time></trkpt><trkpt lat="44.757837443629555" lon="7.860197189120369"><ele>385.0</ele><time>2026-04-11T08:05:31Z</time></trkpt><trkpt lat="44.75777889957021" lon="7.8603032417873235"><ele>385.0</ele><time>2026-04-11T08:05:33Z</time></trkpt><trkpt lat="44.75771552760849" lon="7.860388733468256"><ele>385.00000000000006</ele><time>2026-04-11T08:05:35Z</time></trkpt><trkpt lat="44.75764610739461" lon="7.860460780194586"><ele>385.0</ele><time>2026-04-11T08:05:37Z</time></trkpt><trkpt lat="44.75757271037715" lon="7.86053127856647"><ele>385.50000000000006</ele><time>2026-04-11T08:05:39Z</time></trkpt><trkpt lat="44.75749787876303" lon="7.86061137302533"><ele>386.0</ele><time>2026-04-11T08:05:41Z</time></trkpt><trkpt lat="44.757421365658374" lon="7.860685375691496"><ele>386.5</ele><time>2026-04-11T08:05:43Z</time></trkpt><trkpt lat="44.75734602147707" lon="7.8607345843656695"><ele>387.0</ele><time>2026-04-11T08:05:45Z</time></trkpt><trkpt lat="44.75733809309909" lon="7.8608450206023015"><ele>387.50000000000006</ele><time>2026-04-11T08:05:46Z</time></trkpt><trkpt lat="44.75725046721274" lon="7.860900120344396"><ele>388.0</ele><time>2026-04-11T08:05:48Z</time></trkpt><trkpt lat="44.75716312738262" lon="7.860933087998926"><ele>387.6666666666667</ele><time>2026-04-11T08:05:51Z</time></trkpt><trkpt lat="44.757077797811625" lon="7.8609600913695505"><ele>387.33333333333337</ele><time>2026-04-11T08:05:53Z</time></trkpt><trkpt lat="44.75698056444368" lon="7.860969485632737"><ele>387.0</ele><time>2026-04-11T08:05:55Z</time></trkpt><trkpt lat="44.756909629971695" lon="7.860987102294537"><ele>386.66666666666663</ele><time>2026-04-11T08:05:57Z</time></trkpt><trkpt lat="44.756833259532144" lon="7.861002274661222"><ele>386.3333333333333</ele><time>2026-04-11T08:05:59Z</time></trkpt><trkpt lat="44.756757084513076" lon="7.861005275918992"><ele>386.0</ele><time>2026-04-11T08:06:02Z</time></trkpt><trkpt lat="44.75667822688186" lon="7.861033195269318"><ele>386.0</ele><time>2026-04-11T08:06:05Z</time></trkpt><trkpt lat="44.7564771568532" lon="7.861078197207065"><ele>386.0</ele><time>2026-04-11T08:06:07Z</time></trkpt><trkpt lat="44.75637333333396" lon="7.861118683741693"><ele>386.0</ele><time>2026-04-11T08:06:09Z</time></trkpt><trkpt lat="44.75627626021794" lon="7.8611695665216486"><ele>386.0</ele><time>2026-04-11T08:06:11Z</time></trkpt><trkpt lat="44.756193970459044" lon="7.861228902226556"><ele>386.0</ele><time>2026-04-11T08:06:13Z</time></trkpt><trkpt lat="44.756100154024985" lon="7.861276008295987"><ele>386.0</ele><time>2026-04-11T08:06:15Z</time></trkpt><trkpt lat="44.75600083247942" lon="7.861321196131791"><ele>386.0</ele><time>2026-04-11T08:06:17Z</time></trkpt><trkpt lat="44.75590594840428" lon="7.861371172478776"><ele>386.0</ele><time>2026-04-11T08:06:19Z</time></trkpt><trkpt lat="44.755818177934515" lon="7.8613986434628655"><ele>386.0</ele><time>2026-04-11T08:06:21Z</time></trkpt><trkpt lat="44.755705653412896" lon="7.861442887687634"><ele>386.6</ele><time>2026-04-11T08:06:23Z</time></trkpt><trkpt lat="44.755602863460396" lon="7.861505302144444"><ele>387.20000000000005</ele><time>2026-04-11T08:06:25Z</time></trkpt><trkpt lat="44.75553602535558" lon="7.861544393118671"><ele>387.79999999999995</ele><time>2026-04-11T08:06:26Z</time></trkpt><trkpt lat="44.75545978412123" lon="7.861523497471201"><ele>388.4</ele><time>2026-04-11T08:06:27Z</time></trkpt><trkpt lat="44.755366538515254" lon="7.861607881057709"><ele>389.0</ele><time>2026-04-11T08:06:29Z</time></trkpt><trkpt lat="44.755282416458996" lon="7.861690780192223"><ele>389.4</ele><time>2026-04-11T08:06:31Z</time></trkpt><trkpt lat="44.755190883908" lon="7.861783627457231"><ele>389.79999999999995</ele><time>2026-04-11T08:06:33Z</time></trkpt><trkpt lat="44.755104657619015" lon="7.861872889554065"><ele>390.20000000000005</ele><time>2026-04-11T08:06:35Z</time></trkpt><trkpt lat="44.755014698360405" lon="7.861968336714645"><ele>390.6</ele><time>2026-04-11T08:06:37Z</time></trkpt><trkpt lat="44.75492923897946" lon="7.862059988023509"><ele>391.0</ele><time>2026-04-11T08:06:39Z</time></trkpt><trkpt lat="44.75484819089961" lon="7.86214778364654"><ele>391.0</ele><time>2026-04-11T08:06:41Z</time></trkpt><trkpt lat="44.75476201150022" lon="7.8622413074553705"><ele>391.0</ele><time>2026-04-11T08:06:43Z</time></trkpt><trkpt lat="44.75467193375316" lon="7.862339061792334"><ele>391.0</ele><time>2026-04-11T08:06:45Z</time></trkpt><trkpt lat="44.75458712802031" lon="7.862433697843568"><ele>391.0</ele><time>2026-04-11T08:06:47Z</time></trkpt><trkpt lat="44.7545084996324" lon="7.862523857261368"><ele>391.0</ele><time>2026-04-11T08:06:49Z</time></trkpt><trkpt lat="44.754430039704914" lon="7.862619523848583"><ele>392.0</ele><time>2026-04-11T08:06:51Z</time></trkpt><trkpt lat="44.75435500873401" lon="7.86271742687408"><ele>393.0</ele><time>2026-04-11T08:06:53Z</time></trkpt><trkpt lat="44.754283305377754" lon="7.862816275356075"><ele>394.0</ele><time>2026-04-11T08:06:55Z</time></trkpt><trkpt lat="44.754236803957" lon="7.86294663643331"><ele>395.0</ele><time>2026-04-11T08:06:57Z</time></trkpt><trkpt lat="44.75416957826159" lon="7.863047793998897"><ele>396.0</ele><time>2026-04-11T08:06:59Z</time></trkpt><trkpt lat="44.7540957923936" lon="7.863144215818454"><ele>396.0</ele><time>2026-04-11T08:07:01Z</time></trkpt><trkpt lat="44.75403136016187" lon="7.863243889082062"><ele>396.0</ele><time>2026-04-11T08:07:03Z</time></trkpt><trkpt lat="44.75397286206244" lon="7.863345901082715"><ele>396.0</ele><time>2026-04-11T08:07:05Z</time></trkpt><trkpt lat="44.75394321009578" lon="7.863425242356284"><ele>396.0</ele><time>2026-04-11T08:07:07Z</time></trkpt><trkpt lat="44.75388619743659" lon="7.863499207430168"><ele>396.0</ele><time>2026-04-11T08:07:09Z</time></trkpt><trkpt lat="44.753834508225545" lon="7.863601473332809"><ele>396.0</ele><time>2026-04-11T08:07:11Z</time></trkpt><trkpt lat="44.75376608655141" lon="7.863680390456254"><ele>396.0</ele><time>2026-04-11T08:07:13Z</time></trkpt><trkpt lat="44.75370190661327" lon="7.863726827919519"><ele>396.0</ele><time>2026-04-11T08:07:15Z</time></trkpt><trkpt lat="44.7536255155377" lon="7.863721857936513"><ele>396.0</ele><time>2026-04-11T08:07:17.999Z</time></trkpt><trkpt lat="44.75353448172567" lon="7.863747946309358"><ele>396.0</ele><time>2026-04-11T08:07:20.999Z</time></trkpt><trkpt lat="44.75347322623434" lon="7.863771870081181"><ele>396.0</ele><time>2026-04-11T08:07:22.999Z</time></trkpt><trkpt lat="44.753405304122765" lon="7.8637803649508164"><ele>396.0</ele><time>2026-04-11T08:07:24.999Z</time></trkpt><trkpt lat="44.7533258614906" lon="7.863787308280533"><ele>396.0</ele><time>2026-04-11T08:07:27.999Z</time></trkpt><trkpt lat="44.75323955738024" lon="7.863811978911509"><ele>396.0</ele><time>2026-04-11T08:07:31Z</time></trkpt><trkpt lat="44.753162417940096" lon="7.8638220533764525"><ele>396.0</ele><time>2026-04-11T08:07:34Z</time></trkpt><trkpt lat="44.75307977258308" lon="7.863839747185908"><ele>396.0</ele><time>2026-04-11T08:07:37Z</time></trkpt><trkpt lat="44.75299226962766" lon="7.863859239619357"><ele>396.0</ele><time>2026-04-11T08:07:40Z</time></trkpt><trkpt lat="44.75290641820466" lon="7.863840458235277"><ele>396.0</ele><time>2026-04-11T08:07:43Z</time></trkpt><trkpt lat="44.752823128711356" lon="7.86385867951491"><ele>396.0</ele><time>2026-04-11T08:07:46Z</time></trkpt><trkpt lat="44.752753211966116" lon="7.863885208520511"><ele>396.0</ele><time>2026-04-11T08:07:48Z</time></trkpt><trkpt lat="44.75268376128216" lon="7.863901590868977"><ele>396.0</ele><time>2026-04-11T08:07:49Z</time></trkpt><trkpt lat="44.752574273405706" lon="7.863929691813058"><ele>396.0</ele><time>2026-04-11T08:07:51Z</time></trkpt><trkpt lat="44.752478911940344" lon="7.863950503914029"><ele>396.0</ele><time>2026-04-11T08:07:53Z</time></trkpt><trkpt lat="44.752393722847025" lon="7.863964951071627"><ele>396.0</ele><time>2026-04-11T08:07:54Z</time></trkpt><trkpt lat="44.75227386993886" lon="7.863978535911041"><ele>396.0</ele><time>2026-04-11T08:07:56Z</time></trkpt><trkpt lat="44.75220264029293" lon="7.863982693937797"><ele>396.0</ele><time>2026-04-11T08:07:58Z</time></trkpt><trkpt lat="44.752135399375796" lon="7.863985687493568"><ele>396.0</ele><time>2026-04-11T08:08:00Z</time></trkpt><trkpt lat="44.752064232643455" lon="7.864003330453986"><ele>396.0</ele><time>2026-04-11T08:08:02Z</time></trkpt><trkpt lat="44.751851350938985" lon="7.8640032929726145"><ele>396.0</ele><time>2026-04-11T08:08:04Z</time></trkpt><trkpt lat="44.751762261502314" lon="7.864000098542015"><ele>396.1666666666667</ele><time>2026-04-11T08:08:07Z</time></trkpt><trkpt lat="44.75169965741483" lon="7.863960934985952"><ele>396.33333333333337</ele><time>2026-04-11T08:08:09Z</time></trkpt><trkpt lat="44.75167056609904" lon="7.863867001942044"><ele>396.5</ele><time>2026-04-11T08:08:11Z</time></trkpt><trkpt lat="44.751689051634195" lon="7.863761799784217"><ele>396.6666666666667</ele><time>2026-04-11T08:08:13Z</time></trkpt><trkpt lat="44.75169925082075" lon="7.863638237623752"><ele>396.83333333333337</ele><time>2026-04-11T08:08:16Z</time></trkpt><trkpt lat="44.75170853504754" lon="7.863523163054019"><ele>397.0</ele><time>2026-04-11T08:08:19Z</time></trkpt><trkpt lat="44.75170674777006" lon="7.86342129919991"><ele>396.33333333333337</ele><time>2026-04-11T08:08:21Z</time></trkpt><trkpt lat="44.751682324365326" lon="7.863305063994249"><ele>395.6666666666667</ele><time>2026-04-11T08:08:23Z</time></trkpt><trkpt lat="44.75166641847983" lon="7.863179739015335"><ele>395.0</ele><time>2026-04-11T08:08:25Z</time></trkpt><trkpt lat="44.75166090423248" lon="7.86307124065007"><ele>394.33333333333337</ele><time>2026-04-11T08:08:27Z</time></trkpt><trkpt lat="44.751644339056554" lon="7.862958518337594"><ele>393.6666666666667</ele><time>2026-04-11T08:08:29Z</time></trkpt><trkpt lat="44.75162101947634" lon="7.862846029221858"><ele>393.0</ele><time>2026-04-11T08:08:31Z</time></trkpt><trkpt lat="44.75161543564338" lon="7.862729881902602"><ele>393.5</ele><time>2026-04-11T08:08:33Z</time></trkpt><trkpt lat="44.75160003045649" lon="7.862613563230344"><ele>394.0</ele><time>2026-04-11T08:08:35Z</time></trkpt><trkpt lat="44.75161325133432" lon="7.862507212931382"><ele>394.5</ele><time>2026-04-11T08:08:37Z</time></trkpt><trkpt lat="44.75164752617769" lon="7.862403330439254"><ele>395.0</ele><time>2026-04-11T08:08:39Z</time></trkpt><trkpt lat="44.75171571709338" lon="7.862292302394866"><ele>395.5</ele><time>2026-04-11T08:08:41Z</time></trkpt><trkpt lat="44.75173786177882" lon="7.862208845803872"><ele>396.0</ele><time>2026-04-11T08:08:42Z</time></trkpt><trkpt lat="44.75179786869336" lon="7.862115523365828"><ele>396.0</ele><time>2026-04-11T08:08:44Z</time></trkpt><trkpt lat="44.75179997771514" lon="7.861952036784531"><ele>396.0</ele><time>2026-04-11T08:08:46Z</time></trkpt><trkpt lat="44.75179020516752" lon="7.861859657070653"><ele>396.0</ele><time>2026-04-11T08:08:47Z</time></trkpt><trkpt lat="44.75173510240626" lon="7.861694048963649"><ele>396.0</ele><time>2026-04-11T08:08:49Z</time></trkpt><trkpt lat="44.75167533218099" lon="7.861572566186736"><ele>396.0</ele><time>2026-04-11T08:08:51Z</time></trkpt><trkpt lat="44.75164124437394" lon="7.861393608824906"><ele>396.20000000000005</ele><time>2026-04-11T08:08:53Z</time></trkpt><trkpt lat="44.75157313564593" lon="7.861254619924933"><ele>396.40000000000003</ele><time>2026-04-11T08:08:55Z</time></trkpt><trkpt lat="44.75151600569074" lon="7.861082664364762"><ele>396.6</ele><time>2026-04-11T08:08:57Z</time></trkpt><trkpt lat="44.751509406111936" lon="7.860969902827771"><ele>396.8</ele><time>2026-04-11T08:08:58Z</time></trkpt><trkpt lat="44.75149406943811" lon="7.8608685557108835"><ele>397.0</ele><time>2026-04-11T08:08:59Z</time></trkpt><trkpt lat="44.75146619116698" lon="7.860764121029891"><ele>396.40000000000003</ele><time>2026-04-11T08:09:00Z</time></trkpt><trkpt lat="44.75141138827635" lon="7.860619736536718"><ele>395.8</ele><time>2026-04-11T08:09:02Z</time></trkpt><trkpt lat="44.75137184192837" lon="7.86045824036377"><ele>395.2</ele><time>2026-04-11T08:09:04Z</time></trkpt><trkpt lat="44.75136337028795" lon="7.860348525456942"><ele>394.6</ele><time>2026-04-11T08:09:05Z</time></trkpt><trkpt lat="44.75134189504045" lon="7.860256553136849"><ele>394.0</ele><time>2026-04-11T08:09:06Z</time></trkpt><trkpt lat="44.75131074759314" lon="7.860175579855039"><ele>393.57142857142856</ele><time>2026-04-11T08:09:07Z</time></trkpt><trkpt lat="44.75126427492421" lon="7.8601038450057485"><ele>393.14285714285717</ele><time>2026-04-11T08:09:08Z</time></trkpt><trkpt lat="44.75121685250409" lon="7.860044223093363"><ele>392.71428571428567</ele><time>2026-04-11T08:09:09Z</time></trkpt><trkpt lat="44.75117981327936" lon="7.859956233169312"><ele>392.2857142857143</ele><time>2026-04-11T08:09:10Z</time></trkpt><trkpt lat="44.751164231393055" lon="7.859849695744936"><ele>391.85714285714283</ele><time>2026-04-11T08:09:11Z</time></trkpt><trkpt lat="44.751176918676926" lon="7.85975022763245"><ele>391.4285714285714</ele><time>2026-04-11T08:09:12Z</time></trkpt><trkpt lat="44.75118761411575" lon="7.859651693391066"><ele>391.0</ele><time>2026-04-11T08:09:13Z</time></trkpt><trkpt lat="44.75118986629155" lon="7.859553926230931"><ele>391.0</ele><time>2026-04-11T08:09:14Z</time></trkpt><trkpt lat="44.751185614044005" lon="7.859460309303452"><ele>391.0</ele><time>2026-04-11T08:09:15Z</time></trkpt><trkpt lat="44.75116496217387" lon="7.859286674744696"><ele>391.0</ele><time>2026-04-11T08:09:17Z</time></trkpt><trkpt lat="44.75115109725778" lon="7.859199598560617"><ele>391.0</ele><time>2026-04-11T08:09:18Z</time></trkpt><trkpt lat="44.75115246995976" lon="7.859031788964204"><ele>391.0</ele><time>2026-04-11T08:09:20Z</time></trkpt><trkpt lat="44.75117693320422" lon="7.858883156116627"><ele>390.0</ele><time>2026-04-11T08:09:22Z</time></trkpt><trkpt lat="44.751236531606715" lon="7.858739578834463"><ele>389.0</ele><time>2026-04-11T08:09:24Z</time></trkpt><trkpt lat="44.75125789220159" lon="7.858579044171285"><ele>388.0</ele><time>2026-04-11T08:09:25.999Z</time></trkpt><trkpt lat="44.751243683496455" lon="7.858488434092942"><ele>387.0</ele><time>2026-04-11T08:09:26.999Z</time></trkpt><trkpt lat="44.75125902795304" lon="7.858323978430096"><ele>386.0</ele><time>2026-04-11T08:09:28.999Z</time></trkpt><trkpt lat="44.751258920047114" lon="7.858221159976461"><ele>385.8333333333333</ele><time>2026-04-11T08:09:29.999Z</time></trkpt><trkpt lat="44.75125903735566" lon="7.8581248190779425"><ele>385.66666666666663</ele><time>2026-04-11T08:09:30.999Z</time></trkpt><trkpt lat="44.75125085458683" lon="7.858029311823443"><ele>385.5</ele><time>2026-04-11T08:09:31.999Z</time></trkpt><trkpt lat="44.75122335504036" lon="7.8579246402553675"><ele>385.33333333333337</ele><time>2026-04-11T08:09:32.999Z</time></trkpt><trkpt lat="44.75118402393535" lon="7.857835354705581"><ele>385.1666666666667</ele><time>2026-04-11T08:09:33.999Z</time></trkpt><trkpt lat="44.75117319139105" lon="7.857716884178848"><ele>385.0</ele><time>2026-04-11T08:09:36Z</time></trkpt><trkpt lat="44.75119948592356" lon="7.857558140636701"><ele>384.6666666666667</ele><time>2026-04-11T08:09:38Z</time></trkpt><trkpt lat="44.75120567661433" lon="7.857459098183343"><ele>384.33333333333337</ele><time>2026-04-11T08:09:39Z</time></trkpt><trkpt lat="44.75121868527616" lon="7.857368389703104"><ele>384.0</ele><time>2026-04-11T08:09:40Z</time></trkpt><trkpt lat="44.751269978316124" lon="7.857200422740232"><ele>383.6666666666667</ele><time>2026-04-11T08:09:42Z</time></trkpt><trkpt lat="44.751287543682274" lon="7.857099645730867"><ele>383.33333333333337</ele><time>2026-04-11T08:09:43Z</time></trkpt><trkpt lat="44.751297671676724" lon="7.856986271468036"><ele>383.0</ele><time>2026-04-11T08:09:44Z</time></trkpt><trkpt lat="44.75131768780506" lon="7.856877600389106"><ele>382.1666666666667</ele><time>2026-04-11T08:09:45Z</time></trkpt><trkpt lat="44.751336012652814" lon="7.856767040923851"><ele>381.33333333333337</ele><time>2026-04-11T08:09:46Z</time></trkpt><trkpt lat="44.751341382071246" lon="7.8566600757487475"><ele>380.5</ele><time>2026-04-11T08:09:47Z</time></trkpt><trkpt lat="44.75133571060005" lon="7.856542438669391"><ele>379.6666666666667</ele><time>2026-04-11T08:09:48Z</time></trkpt><trkpt lat="44.75134987329504" lon="7.8564367227097565"><ele>378.8333333333333</ele><time>2026-04-11T08:09:49Z</time></trkpt><trkpt lat="44.7513784505035" lon="7.856322015023729"><ele>378.0</ele><time>2026-04-11T08:09:50Z</time></trkpt><trkpt lat="44.751400725025675" lon="7.856214407837876"><ele>378.0</ele><time>2026-04-11T08:09:51Z</time></trkpt><trkpt lat="44.751415559925995" lon="7.856104402706735"><ele>378.0</ele><time>2026-04-11T08:09:52Z</time></trkpt><trkpt lat="44.75142481876987" lon="7.856002126410562"><ele>378.0</ele><time>2026-04-11T08:09:53Z</time></trkpt><trkpt lat="44.75143957174306" lon="7.855892457225829"><ele>378.0</ele><time>2026-04-11T08:09:54Z</time></trkpt><trkpt lat="44.7514633398296" lon="7.855785736518755"><ele>378.0</ele><time>2026-04-11T08:09:55Z</time></trkpt><trkpt lat="44.7514995140828" lon="7.855675109042733"><ele>378.0</ele><time>2026-04-11T08:09:56Z</time></trkpt><trkpt lat="44.7515381163301" lon="7.855573922130386"><ele>377.6666666666667</ele><time>2026-04-11T08:09:57Z</time></trkpt><trkpt lat="44.75157419344046" lon="7.855474311177536"><ele>377.3333333333333</ele><time>2026-04-11T08:09:58Z</time></trkpt><trkpt lat="44.75160601084733" lon="7.855367038151277"><ele>377.0</ele><time>2026-04-11T08:09:59Z</time></trkpt><trkpt lat="44.75164537528408" lon="7.855266530824379"><ele>376.66666666666663</ele><time>2026-04-11T08:10:00Z</time></trkpt><trkpt lat="44.75168405702384" lon="7.855181070272148"><ele>376.3333333333333</ele><time>2026-04-11T08:10:01Z</time></trkpt><trkpt lat="44.751723341842926" lon="7.855014993236532"><ele>376.0</ele><time>2026-04-11T08:10:03Z</time></trkpt><trkpt lat="44.75175267325072" lon="7.854913842699369"><ele>375.0</ele><time>2026-04-11T08:10:04Z</time></trkpt><trkpt lat="44.7517939907118" lon="7.854818057493149"><ele>374.0</ele><time>2026-04-11T08:10:05Z</time></trkpt><trkpt lat="44.751879166546345" lon="7.854719235317176"><ele>373.0</ele><time>2026-04-11T08:10:07Z</time></trkpt><trkpt lat="44.751934727335794" lon="7.854619275974542"><ele>372.0</ele><time>2026-04-11T08:10:09Z</time></trkpt><trkpt lat="44.751946450016476" lon="7.8545274915072625"><ele>371.0</ele><time>2026-04-11T08:10:10Z</time></trkpt><trkpt lat="44.75195154868863" lon="7.854418658458588"><ele>370.0</ele><time>2026-04-11T08:10:11Z</time></trkpt><trkpt lat="44.75196009779525" lon="7.854323473013788"><ele>367.66666666666663</ele><time>2026-04-11T08:10:12Z</time></trkpt><trkpt lat="44.75196526488716" lon="7.854224538909452"><ele>365.3333333333333</ele><time>2026-04-11T08:10:13Z</time></trkpt><trkpt lat="44.75200032149737" lon="7.85414067397226"><ele>363.0</ele><time>2026-04-11T08:10:14Z</time></trkpt><trkpt lat="44.75205413511771" lon="7.854076408776517"><ele>360.6666666666667</ele><time>2026-04-11T08:10:15Z</time></trkpt><trkpt lat="44.752069741417344" lon="7.853932654732555"><ele>358.33333333333337</ele><time>2026-04-11T08:10:17Z</time></trkpt><trkpt lat="44.7520938868554" lon="7.853777271363133"><ele>356.0</ele><time>2026-04-11T08:10:19Z</time></trkpt><trkpt lat="44.752270464401825" lon="7.853845851347012"><ele>356.0</ele><time>2026-04-11T08:10:23Z</time></trkpt><trkpt lat="44.752325040397814" lon="7.853896552260854"><ele>356.0</ele><time>2026-04-11T08:10:24Z</time></trkpt><trkpt lat="44.75238452951618" lon="7.85395196078218"><ele>356.0</ele><time>2026-04-11T08:10:25Z</time></trkpt><trkpt lat="44.75242601565305" lon="7.854023216819185"><ele>356.0</ele><time>2026-04-11T08:10:26Z</time></trkpt><trkpt lat="44.75249956967318" lon="7.854017920139532"><ele>356.0</ele><time>2026-04-11T08:10:28Z</time></trkpt><trkpt lat="44.75250391116948" lon="7.853823927001382"><ele>356.0</ele><time>2026-04-11T08:10:30Z</time></trkpt><trkpt lat="44.75250107374778" lon="7.853721736892544"><ele>356.0</ele><time>2026-04-11T08:10:31Z</time></trkpt><trkpt lat="44.752473888254656" lon="7.853615366897164"><ele>356.0</ele><time>2026-04-11T08:10:32Z</time></trkpt><trkpt lat="44.752470753973306" lon="7.8534589696935475"><ele>356.0</ele><time>2026-04-11T08:10:34Z</time></trkpt><trkpt lat="44.75242736653249" lon="7.853321618550816"><ele>356.0</ele><time>2026-04-11T08:10:35Z</time></trkpt><trkpt lat="44.75236402543079" lon="7.853196625068045"><ele>356.0</ele><time>2026-04-11T08:10:36Z</time></trkpt><trkpt lat="44.752324943731274" lon="7.853082739855463"><ele>355.6666666666667</ele><time>2026-04-11T08:10:37Z</time></trkpt><trkpt lat="44.75228687010453" lon="7.852960312210761"><ele>355.33333333333337</ele><time>2026-04-11T08:10:38Z</time></trkpt><trkpt lat="44.75223692032053" lon="7.8528500062021696"><ele>355.0</ele><time>2026-04-11T08:10:39Z</time></trkpt><trkpt lat="44.75218118877824" lon="7.852753620893986"><ele>354.6666666666667</ele><time>2026-04-11T08:10:40Z</time></trkpt><trkpt lat="44.75211987352317" lon="7.852696237289476"><ele>354.3333333333333</ele><time>2026-04-11T08:10:41Z</time></trkpt><trkpt lat="44.7520475350448" lon="7.852625906623628"><ele>354.0</ele><time>2026-04-11T08:10:42Z</time></trkpt><trkpt lat="44.75195576500348" lon="7.852603008649442"><ele>353.5</ele><time>2026-04-11T08:10:43Z</time></trkpt><trkpt lat="44.75187926761359" lon="7.852614681441737"><ele>353.0</ele><time>2026-04-11T08:10:44Z</time></trkpt><trkpt lat="44.751821174634905" lon="7.852685271069652"><ele>352.5</ele><time>2026-04-11T08:10:45Z</time></trkpt><trkpt lat="44.751765458312434" lon="7.852761902746121"><ele>352.0</ele><time>2026-04-11T08:10:46Z</time></trkpt><trkpt lat="44.75170316073614" lon="7.8528197855142166"><ele>351.5</ele><time>2026-04-11T08:10:47Z</time></trkpt><trkpt lat="44.75162747838669" lon="7.852870650969931"><ele>351.0</ele><time>2026-04-11T08:10:48Z</time></trkpt><trkpt lat="44.751534667760644" lon="7.852914242270299"><ele>351.0</ele><time>2026-04-11T08:10:49Z</time></trkpt><trkpt lat="44.75144794510273" lon="7.8529678366182685"><ele>351.0</ele><time>2026-04-11T08:10:50Z</time></trkpt><trkpt lat="44.75137396822128" lon="7.852999945699254"><ele>351.0</ele><time>2026-04-11T08:10:51Z</time></trkpt><trkpt lat="44.75129695417232" lon="7.853036417720534"><ele>351.0</ele><time>2026-04-11T08:10:52Z</time></trkpt><trkpt lat="44.75122126425447" lon="7.853076224152837"><ele>351.0</ele><time>2026-04-11T08:10:53Z</time></trkpt><trkpt lat="44.75114934376517" lon="7.853121035252871"><ele>351.0</ele><time>2026-04-11T08:10:54Z</time></trkpt><trkpt lat="44.75109171852862" lon="7.853180266849448"><ele>350.8333333333333</ele><time>2026-04-11T08:10:55Z</time></trkpt><trkpt lat="44.751040067846375" lon="7.853270444261875"><ele>350.6666666666667</ele><time>2026-04-11T08:10:56Z</time></trkpt><trkpt lat="44.751017533106975" lon="7.853383222889915"><ele>350.5</ele><time>2026-04-11T08:10:57Z</time></trkpt><trkpt lat="44.751002816002185" lon="7.853486107561419"><ele>350.33333333333337</ele><time>2026-04-11T08:10:58Z</time></trkpt><trkpt lat="44.75097128199333" lon="7.853578890220336"><ele>350.1666666666667</ele><time>2026-04-11T08:10:59Z</time></trkpt><trkpt lat="44.750915004074855" lon="7.853662163370869"><ele>350.0</ele><time>2026-04-11T08:11:00Z</time></trkpt><trkpt lat="44.75086013182644" lon="7.8537332008554515"><ele>350.0</ele><time>2026-04-11T08:11:01Z</time></trkpt><trkpt lat="44.750761490286315" lon="7.853871499499529"><ele>350.0</ele><time>2026-04-11T08:11:03Z</time></trkpt><trkpt lat="44.750722678327854" lon="7.853949543795511"><ele>350.0</ele><time>2026-04-11T08:11:04Z</time></trkpt><trkpt lat="44.75064951039832" lon="7.854024644935779"><ele>350.0</ele><time>2026-04-11T08:11:06Z</time></trkpt><trkpt lat="44.75058442451134" lon="7.854040765443294"><ele>350.0</ele><time>2026-04-11T08:11:10Z</time></trkpt><trkpt lat="44.75051079162224" lon="7.854095610189893"><ele>350.0</ele><time>2026-04-11T08:11:15Z</time></trkpt><trkpt lat="44.75044696048798" lon="7.854167450966842"><ele>350.0</ele><time>2026-04-11T08:11:22Z</time></trkpt><trkpt lat="44.7503867123416" lon="7.854221480937032"><ele>350.0</ele><time>2026-04-11T08:11:25Z</time></trkpt><trkpt lat="44.75029374428483" lon="7.854280219807225"><ele>350.0</ele><time>2026-04-11T08:11:27.999Z</time></trkpt><trkpt lat="44.75023755340502" lon="7.854359938323269"><ele>350.0</ele><time>2026-04-11T08:11:29.999Z</time></trkpt><trkpt lat="44.750239228639295" lon="7.854462799611983"><ele>350.0</ele><time>2026-04-11T08:11:31.999Z</time></trkpt><trkpt lat="44.75022256476276" lon="7.85457700194021"><ele>350.0</ele><time>2026-04-11T08:11:33.999Z</time></trkpt><trkpt lat="44.75021529612413" lon="7.854669483352588"><ele>349.7142857142857</ele><time>2026-04-11T08:11:38.999Z</time></trkpt><trkpt lat="44.750202728278374" lon="7.854761478467409"><ele>349.42857142857144</ele><time>2026-04-11T08:11:50Z</time></trkpt><trkpt lat="44.750206339986455" lon="7.85485192722323"><ele>349.1428571428571</ele><time>2026-04-11T08:12:00Z</time></trkpt><trkpt lat="44.75016130365182" lon="7.8549184091142985"><ele>348.8571428571429</ele><time>2026-04-11T08:12:06Z</time></trkpt><trkpt lat="44.75008848274668" lon="7.854993627338039"><ele>348.57142857142856</ele><time>2026-04-11T08:12:10Z</time></trkpt><trkpt lat="44.75003259804335" lon="7.8550416013010915"><ele>348.2857142857143</ele><time>2026-04-11T08:12:12Z</time></trkpt><trkpt lat="44.74998902991703" lon="7.8551285460805"><ele>348.0</ele><time>2026-04-11T08:12:14Z</time></trkpt><trkpt lat="44.74993613007824" lon="7.855215351702811"><ele>349.0</ele><time>2026-04-11T08:12:16Z</time></trkpt><trkpt lat="44.74987245181857" lon="7.855313803922809"><ele>350.0</ele><time>2026-04-11T08:12:18Z</time></trkpt><trkpt lat="44.74982508059409" lon="7.855398287761668"><ele>351.0</ele><time>2026-04-11T08:12:21Z</time></trkpt><trkpt lat="44.74977900178915" lon="7.855463945624225"><ele>352.0</ele><time>2026-04-11T08:12:23Z</time></trkpt><trkpt lat="44.749745295880594" lon="7.855579992248112"><ele>353.0</ele><time>2026-04-11T08:12:26Z</time></trkpt><trkpt lat="44.74971852599876" lon="7.855685004928489"><ele>354.0</ele><time>2026-04-11T08:12:28Z</time></trkpt><trkpt lat="44.74968314537743" lon="7.855783115743474"><ele>354.0</ele><time>2026-04-11T08:12:31Z</time></trkpt><trkpt lat="44.749645449553086" lon="7.85588347138722"><ele>354.0</ele><time>2026-04-11T08:12:34Z</time></trkpt><trkpt lat="44.74962753537135" lon="7.855971771209472"><ele>354.0</ele><time>2026-04-11T08:12:36Z</time></trkpt><trkpt lat="44.74958471228859" lon="7.856094114344965"><ele>354.0</ele><time>2026-04-11T08:12:38Z</time></trkpt><trkpt lat="44.74955883026945" lon="7.856199219163243"><ele>354.0</ele><time>2026-04-11T08:12:40Z</time></trkpt><trkpt lat="44.749508232398" lon="7.856318701607908"><ele>354.0</ele><time>2026-04-11T08:12:42Z</time></trkpt><trkpt lat="44.74948250543613" lon="7.856425693087518"><ele>353.3333333333333</ele><time>2026-04-11T08:12:44Z</time></trkpt><trkpt lat="44.749478088649575" lon="7.8565244669302565"><ele>352.6666666666667</ele><time>2026-04-11T08:12:46Z</time></trkpt><trkpt lat="44.749451447335744" lon="7.85661823096495"><ele>352.0</ele><time>2026-04-11T08:12:49Z</time></trkpt><trkpt lat="44.74945128177612" lon="7.856730619307511"><ele>351.33333333333337</ele><time>2026-04-11T08:12:51Z</time></trkpt><trkpt lat="44.74943359698229" lon="7.856848753947031"><ele>350.6666666666667</ele><time>2026-04-11T08:12:54Z</time></trkpt><trkpt lat="44.749377110115454" lon="7.856921413308938"><ele>350.0</ele><time>2026-04-11T08:12:57Z</time></trkpt><trkpt lat="44.74932407763119" lon="7.857009009151928"><ele>350.0</ele><time>2026-04-11T08:12:59Z</time></trkpt><trkpt lat="44.74925830369707" lon="7.857107388044438"><ele>350.0</ele><time>2026-04-11T08:13:00Z</time></trkpt><trkpt lat="44.749186666388255" lon="7.857197475002253"><ele>350.0</ele><time>2026-04-11T08:13:02Z</time></trkpt><trkpt lat="44.7491155737686" lon="7.857285079385774"><ele>350.0</ele><time>2026-04-11T08:13:04Z</time></trkpt><trkpt lat="44.74904069270526" lon="7.857359979917373"><ele>350.0</ele><time>2026-04-11T08:13:06Z</time></trkpt><trkpt lat="44.74896909946732" lon="7.857444598945777"><ele>350.0</ele><time>2026-04-11T08:13:08Z</time></trkpt><trkpt lat="44.748895921697944" lon="7.8575373056460345"><ele>350.0</ele><time>2026-04-11T08:13:10Z</time></trkpt><trkpt lat="44.7488252794331" lon="7.85762877780638"><ele>350.0</ele><time>2026-04-11T08:13:12Z</time></trkpt><trkpt lat="44.74874958993137" lon="7.8577276025076985"><ele>350.0</ele><time>2026-04-11T08:13:14Z</time></trkpt><trkpt lat="44.748664129931896" lon="7.8578261833022465"><ele>350.0</ele><time>2026-04-11T08:13:16Z</time></trkpt><trkpt lat="44.74859246133341" lon="7.857943042980653"><ele>349.5</ele><time>2026-04-11T08:13:18Z</time></trkpt><trkpt lat="44.74854454259646" lon="7.858033502647041"><ele>349.0</ele><time>2026-04-11T08:13:20Z</time></trkpt><trkpt lat="44.74847345950382" lon="7.8580264405933145"><ele>348.5</ele><time>2026-04-11T08:13:22Z</time></trkpt><trkpt lat="44.74841052006415" lon="7.858018323958044"><ele>348.0</ele><time>2026-04-11T08:13:23Z</time></trkpt><trkpt lat="44.74829536937955" lon="7.858023481993075"><ele>347.5</ele><time>2026-04-11T08:13:25Z</time></trkpt><trkpt lat="44.74818100175584" lon="7.8580439970416665"><ele>347.0</ele><time>2026-04-11T08:13:26.999Z</time></trkpt><trkpt lat="44.748075549370284" lon="7.858077248232826"><ele>347.0</ele><time>2026-04-11T08:13:28.999Z</time></trkpt><trkpt lat="44.74798227281136" lon="7.858156098965878"><ele>347.0</ele><time>2026-04-11T08:13:30.999Z</time></trkpt><trkpt lat="44.7478974078194" lon="7.858257136193243"><ele>347.0</ele><time>2026-04-11T08:13:32.999Z</time></trkpt><trkpt lat="44.74782547771446" lon="7.85835753141156"><ele>347.0</ele><time>2026-04-11T08:13:34.999Z</time></trkpt><trkpt lat="44.74777541342134" lon="7.858493608174599"><ele>347.0</ele><time>2026-04-11T08:13:36.999Z</time></trkpt><trkpt lat="44.7476865194467" lon="7.85861948955729"><ele>347.6666666666667</ele><time>2026-04-11T08:13:38.999Z</time></trkpt><trkpt lat="44.74762938170901" lon="7.858662174349766"><ele>348.33333333333337</ele><time>2026-04-11T08:13:39.999Z</time></trkpt><trkpt lat="44.74756909673079" lon="7.8586979370689685"><ele>349.0</ele><time>2026-04-11T08:13:40.999Z</time></trkpt><trkpt lat="44.74750387439125" lon="7.85874637950312"><ele>349.6666666666667</ele><time>2026-04-11T08:13:41.999Z</time></trkpt><trkpt lat="44.74739509503532" lon="7.85881320034104"><ele>350.3333333333333</ele><time>2026-04-11T08:13:43.999Z</time></trkpt><trkpt lat="44.74729016700406" lon="7.858866395035516"><ele>351.0</ele><time>2026-04-11T08:13:45.999Z</time></trkpt><trkpt lat="44.747187392568925" lon="7.858915071534477"><ele>351.0</ele><time>2026-04-11T08:13:48Z</time></trkpt><trkpt lat="44.747094043204505" lon="7.8589592067775325"><ele>351.0</ele><time>2026-04-11T08:13:50Z</time></trkpt><trkpt lat="44.74699553749511" lon="7.8590332374320155"><ele>351.0</ele><time>2026-04-11T08:13:52Z</time></trkpt><trkpt lat="44.746900167873434" lon="7.859125714644835"><ele>351.0</ele><time>2026-04-11T08:13:54Z</time></trkpt><trkpt lat="44.74683214217696" lon="7.859247447617369"><ele>351.0</ele><time>2026-04-11T08:13:56Z</time></trkpt><trkpt lat="44.74676681411341" lon="7.859353773335737"><ele>351.4</ele><time>2026-04-11T08:13:58Z</time></trkpt><trkpt lat="44.746692579518374" lon="7.859472186492574"><ele>351.8</ele><time>2026-04-11T08:14:00Z</time></trkpt><trkpt lat="44.74664914491889" lon="7.859537570200826"><ele>352.2</ele><time>2026-04-11T08:14:02Z</time></trkpt><trkpt lat="44.746551490900806" lon="7.859681429688627"><ele>352.59999999999997</ele><time>2026-04-11T08:14:04Z</time></trkpt><trkpt lat="44.74648394307178" lon="7.859788909746473"><ele>353.0</ele><time>2026-04-11T08:14:06Z</time></trkpt><trkpt lat="44.74641862970032" lon="7.8599024752883"><ele>353.0</ele><time>2026-04-11T08:14:08Z</time></trkpt><trkpt lat="44.74635839752529" lon="7.860016267733105"><ele>353.0</ele><time>2026-04-11T08:14:10Z</time></trkpt><trkpt lat="44.746303901956864" lon="7.860119642344393"><ele>353.0</ele><time>2026-04-11T08:14:12Z</time></trkpt><trkpt lat="44.74624936785599" lon="7.8602183991715355"><ele>353.0</ele><time>2026-04-11T08:14:14Z</time></trkpt><trkpt lat="44.74619289022442" lon="7.860320400147253"><ele>353.0</ele><time>2026-04-11T08:14:16Z</time></trkpt><trkpt lat="44.746145749942926" lon="7.860414640506261"><ele>353.0</ele><time>2026-04-11T08:14:18Z</time></trkpt><trkpt lat="44.746114788275904" lon="7.860526904379126"><ele>353.0</ele><time>2026-04-11T08:14:20Z</time></trkpt><trkpt lat="44.746075383217935" lon="7.8606373167099655"><ele>353.0</ele><time>2026-04-11T08:14:22Z</time></trkpt><trkpt lat="44.746047829216614" lon="7.860753902756588"><ele>353.0</ele><time>2026-04-11T08:14:24Z</time></trkpt><trkpt lat="44.74601156910732" lon="7.8608681129939"><ele>353.0</ele><time>2026-04-11T08:14:26Z</time></trkpt><trkpt lat="44.74597575497873" lon="7.860983031009484"><ele>353.0</ele><time>2026-04-11T08:14:28Z</time></trkpt><trkpt lat="44.7459323758142" lon="7.861109411887306"><ele>354.25</ele><time>2026-04-11T08:14:31Z</time></trkpt><trkpt lat="44.74586791428913" lon="7.861272538250767"><ele>355.5</ele><time>2026-04-11T08:14:33Z</time></trkpt><trkpt lat="44.745815725338595" lon="7.861399504690943"><ele>356.75</ele><time>2026-04-11T08:14:35Z</time></trkpt><trkpt lat="44.74576848904955" lon="7.861528284216391"><ele>358.0</ele><time>2026-04-11T08:14:37Z</time></trkpt><trkpt lat="44.745714135863594" lon="7.861673272535223"><ele>359.4</ele><time>2026-04-11T08:14:39Z</time></trkpt><trkpt lat="44.745665032817044" lon="7.86182467554916"><ele>360.79999999999995</ele><time>2026-04-11T08:14:41Z</time></trkpt><trkpt lat="44.74561172799531" lon="7.86197988359532"><ele>362.2</ele><time>2026-04-11T08:14:43Z</time></trkpt><trkpt lat="44.74556239815812" lon="7.862116007137959"><ele>363.6</ele><time>2026-04-11T08:14:45Z</time></trkpt><trkpt lat="44.745527045941245" lon="7.8622339898674625"><ele>365.0</ele><time>2026-04-11T08:14:47Z</time></trkpt><trkpt lat="44.745484772237624" lon="7.862370918500681"><ele>365.0</ele><time>2026-04-11T08:14:49Z</time></trkpt><trkpt lat="44.74543405578368" lon="7.862518401585908"><ele>365.0</ele><time>2026-04-11T08:14:51Z</time></trkpt><trkpt lat="44.74539804576281" lon="7.862641273674225"><ele>365.0</ele><time>2026-04-11T08:14:53Z</time></trkpt><trkpt lat="44.745376458274485" lon="7.862767294288301"><ele>365.0</ele><time>2026-04-11T08:14:55Z</time></trkpt><trkpt lat="44.74534248588157" lon="7.862856660169689"><ele>365.0</ele><time>2026-04-11T08:14:56Z</time></trkpt><trkpt lat="44.74522357370001" lon="7.862956749988145"><ele>363.8571428571429</ele><time>2026-04-11T08:14:58Z</time></trkpt><trkpt lat="44.74515238584607" lon="7.862990401695879"><ele>362.7142857142857</ele><time>2026-04-11T08:14:59Z</time></trkpt><trkpt lat="44.745085976923804" lon="7.86301395614746"><ele>361.57142857142856</ele><time>2026-04-11T08:15:00Z</time></trkpt><trkpt lat="44.745006161012114" lon="7.863043631051653"><ele>360.42857142857144</ele><time>2026-04-11T08:15:01Z</time></trkpt><trkpt lat="44.7449384939774" lon="7.86302711925671"><ele>359.2857142857143</ele><time>2026-04-11T08:15:02Z</time></trkpt><trkpt lat="44.74487182471268" lon="7.862991309769893"><ele>358.14285714285717</ele><time>2026-04-11T08:15:03Z</time></trkpt><trkpt lat="44.744825879291426" lon="7.862925533556138"><ele>357.0</ele><time>2026-04-11T08:15:04Z</time></trkpt><trkpt lat="44.74473322734409" lon="7.862827917092454"><ele>357.0</ele><time>2026-04-11T08:15:06Z</time></trkpt><trkpt lat="44.744645510767114" lon="7.8627298096240965"><ele>357.0</ele><time>2026-04-11T08:15:08Z</time></trkpt><trkpt lat="44.744541757567355" lon="7.8626578836853795"><ele>357.0</ele><time>2026-04-11T08:15:10Z</time></trkpt><trkpt lat="44.74444061189027" lon="7.862601306016065"><ele>357.0</ele><time>2026-04-11T08:15:12Z</time></trkpt><trkpt lat="44.74434810203863" lon="7.862566709199999"><ele>357.0</ele><time>2026-04-11T08:15:14Z</time></trkpt><trkpt lat="44.74424701120891" lon="7.862598291568486"><ele>356.6</ele><time>2026-04-11T08:15:16Z</time></trkpt><trkpt lat="44.74415324634812" lon="7.86266049697154"><ele>356.20000000000005</ele><time>2026-04-11T08:15:18Z</time></trkpt><trkpt lat="44.74406117919791" lon="7.862707204923953"><ele>355.8</ele><time>2026-04-11T08:15:20Z</time></trkpt><trkpt lat="44.743998128019925" lon="7.862707194434517"><ele>355.4</ele><time>2026-04-11T08:15:21Z</time></trkpt><trkpt lat="44.74393457196935" lon="7.86269291901857"><ele>355.0</ele><time>2026-04-11T08:15:22Z</time></trkpt><trkpt lat="44.74383158250478" lon="7.862429077712591"><ele>354.8</ele><time>2026-04-11T08:15:22.999Z</time></trkpt><trkpt lat="44.74374284337993" lon="7.862464938457273"><ele>354.6</ele><time>2026-04-11T08:15:24.999Z</time></trkpt><trkpt lat="44.743650805311745" lon="7.862500112341083"><ele>354.4</ele><time>2026-04-11T08:15:26.999Z</time></trkpt><trkpt lat="44.74355478049026" lon="7.862533436159385"><ele>354.2</ele><time>2026-04-11T08:15:28.999Z</time></trkpt><trkpt lat="44.743442929086726" lon="7.862580026640415"><ele>354.0</ele><time>2026-04-11T08:15:30.999Z</time></trkpt><trkpt lat="44.743379300334375" lon="7.862620936898551"><ele>354.0</ele><time>2026-04-11T08:15:31.999Z</time></trkpt><trkpt lat="44.74329057482287" lon="7.862709078829789"><ele>354.0</ele><time>2026-04-11T08:15:33.999Z</time></trkpt><trkpt lat="44.74324310722772" lon="7.862841522009991"><ele>354.0</ele><time>2026-04-11T08:15:35.999Z</time></trkpt><trkpt lat="44.743186646019225" lon="7.862948110062131"><ele>354.0</ele><time>2026-04-11T08:15:37.999Z</time></trkpt><trkpt lat="44.74313685158755" lon="7.863069786097209"><ele>354.0</ele><time>2026-04-11T08:15:39.999Z</time></trkpt><trkpt lat="44.743077535888546" lon="7.863179531611878"><ele>354.0</ele><time>2026-04-11T08:15:41.999Z</time></trkpt><trkpt lat="44.743025931150726" lon="7.8632869163716"><ele>354.0</ele><time>2026-04-11T08:15:43.999Z</time></trkpt><trkpt lat="44.74297245731953" lon="7.863379944582705"><ele>354.0</ele><time>2026-04-11T08:15:45.999Z</time></trkpt><trkpt lat="44.742935430467796" lon="7.863479594621883"><ele>354.0</ele><time>2026-04-11T08:15:47.999Z</time></trkpt><trkpt lat="44.742885797279094" lon="7.863579610362284"><ele>354.0</ele><time>2026-04-11T08:15:49.999Z</time></trkpt><trkpt lat="44.74283881495841" lon="7.8636976520702815"><ele>354.0</ele><time>2026-04-11T08:15:51.999Z</time></trkpt><trkpt lat="44.74279241523685" lon="7.863812232427048"><ele>354.25</ele><time>2026-04-11T08:15:54Z</time></trkpt><trkpt lat="44.74274266723112" lon="7.863912815183077"><ele>354.5</ele><time>2026-04-11T08:15:56Z</time></trkpt><trkpt lat="44.742611548185025" lon="7.864095992531649"><ele>354.75</ele><time>2026-04-11T08:15:59Z</time></trkpt><trkpt lat="44.74250513412928" lon="7.864144587217072"><ele>355.0</ele><time>2026-04-11T08:16:01Z</time></trkpt><trkpt lat="44.74242782740173" lon="7.864237853882748"><ele>355.4</ele><time>2026-04-11T08:16:03Z</time></trkpt><trkpt lat="44.74235018005934" lon="7.864331531508248"><ele>355.8</ele><time>2026-04-11T08:16:05Z</time></trkpt><trkpt lat="44.742273020976185" lon="7.864424620073375"><ele>356.20000000000005</ele><time>2026-04-11T08:16:07Z</time></trkpt><trkpt lat="44.742201343938156" lon="7.864511094764833"><ele>356.6</ele><time>2026-04-11T08:16:09Z</time></trkpt><trkpt lat="44.74213074562918" lon="7.864596268139305"><ele>357.0</ele><time>2026-04-11T08:16:11Z</time></trkpt><trkpt lat="44.74205506994444" lon="7.864687567011011"><ele>357.0</ele><time>2026-04-11T08:16:13Z</time></trkpt><trkpt lat="44.7419790082174" lon="7.864779331582912"><ele>357.0</ele><time>2026-04-11T08:16:15Z</time></trkpt><trkpt lat="44.74189425380462" lon="7.864881494414494"><ele>357.0</ele><time>2026-04-11T08:16:17Z</time></trkpt><trkpt lat="44.74182048696124" lon="7.8649695272808575"><ele>357.0</ele><time>2026-04-11T08:16:19Z</time></trkpt><trkpt lat="44.74174477123278" lon="7.865059887436409"><ele>357.0</ele><time>2026-04-11T08:16:21Z</time></trkpt><trkpt lat="44.741672769133885" lon="7.8651441136749805"><ele>357.0</ele><time>2026-04-11T08:16:23Z</time></trkpt><trkpt lat="44.74160243037974" lon="7.865225120249574"><ele>357.0</ele><time>2026-04-11T08:16:25Z</time></trkpt><trkpt lat="44.74154530846656" lon="7.86531763266771"><ele>357.0</ele><time>2026-04-11T08:16:27Z</time></trkpt><trkpt lat="44.74147180535413" lon="7.865384897556014"><ele>357.0</ele><time>2026-04-11T08:16:29Z</time></trkpt><trkpt lat="44.741411493284204" lon="7.865428184550619"><ele>357.0</ele><time>2026-04-11T08:16:30Z</time></trkpt><trkpt lat="44.7413263813362" lon="7.865513719951721"><ele>357.0</ele><time>2026-04-11T08:16:32Z</time></trkpt><trkpt lat="44.74123594174182" lon="7.865619712436951"><ele>357.0</ele><time>2026-04-11T08:16:34Z</time></trkpt><trkpt lat="44.741154684322865" lon="7.8657396757182525"><ele>357.0</ele><time>2026-04-11T08:16:36Z</time></trkpt><trkpt lat="44.74108160172785" lon="7.865862828423555"><ele>357.0</ele><time>2026-04-11T08:16:38Z</time></trkpt><trkpt lat="44.74101606667784" lon="7.865997993298637"><ele>357.0</ele><time>2026-04-11T08:16:40Z</time></trkpt><trkpt lat="44.74096124154015" lon="7.866126254178818"><ele>358.0</ele><time>2026-04-11T08:16:42Z</time></trkpt><trkpt lat="44.74090908992792" lon="7.866249965775487"><ele>359.0</ele><time>2026-04-11T08:16:44Z</time></trkpt><trkpt lat="44.74085720573287" lon="7.866373038356878"><ele>360.0</ele><time>2026-04-11T08:16:46Z</time></trkpt><trkpt lat="44.74080463766727" lon="7.866497733120727"><ele>361.0</ele><time>2026-04-11T08:16:48Z</time></trkpt><trkpt lat="44.74077438958646" lon="7.86664271730833"><ele>362.0</ele><time>2026-04-11T08:16:50Z</time></trkpt><trkpt lat="44.74069955093245" lon="7.866736437113209"><ele>362.0</ele><time>2026-04-11T08:16:52Z</time></trkpt><trkpt lat="44.74062321149712" lon="7.866827751109011"><ele>362.0</ele><time>2026-04-11T08:16:54Z</time></trkpt><trkpt lat="44.740559637845756" lon="7.866927301441717"><ele>362.0</ele><time>2026-04-11T08:16:56Z</time></trkpt><trkpt lat="44.740464639395434" lon="7.867008687004802"><ele>362.0</ele><time>2026-04-11T08:16:58Z</time></trkpt><trkpt lat="44.740383754308766" lon="7.8671035131085105"><ele>362.0</ele><time>2026-04-11T08:17:00Z</time></trkpt><trkpt lat="44.74030294729032" lon="7.867198684675453"><ele>362.0</ele><time>2026-04-11T08:17:02Z</time></trkpt><trkpt lat="44.74022268536426" lon="7.8672918061848955"><ele>362.0</ele><time>2026-04-11T08:17:04Z</time></trkpt><trkpt lat="44.7401422724363" lon="7.867384801355489"><ele>362.0</ele><time>2026-04-11T08:17:06Z</time></trkpt><trkpt lat="44.7400597721989" lon="7.8674804224030055"><ele>362.0</ele><time>2026-04-11T08:17:08Z</time></trkpt><trkpt lat="44.73997404105303" lon="7.867571904712607"><ele>362.0</ele><time>2026-04-11T08:17:10Z</time></trkpt><trkpt lat="44.739903438083694" lon="7.867662440014992"><ele>361.6666666666667</ele><time>2026-04-11T08:17:12Z</time></trkpt><trkpt lat="44.73981596982522" lon="7.86776654269913"><ele>361.33333333333337</ele><time>2026-04-11T08:17:14Z</time></trkpt><trkpt lat="44.73972557428044" lon="7.867880162567669"><ele>361.0</ele><time>2026-04-11T08:17:15.999Z</time></trkpt><trkpt lat="44.73966933963521" lon="7.867945336353051"><ele>360.6666666666667</ele><time>2026-04-11T08:17:16.999Z</time></trkpt><trkpt lat="44.73962081599831" lon="7.8680110784229855"><ele>360.3333333333333</ele><time>2026-04-11T08:17:17.999Z</time></trkpt><trkpt lat="44.73956923979609" lon="7.868065663387944"><ele>360.0</ele><time>2026-04-11T08:17:18.999Z</time></trkpt><trkpt lat="44.73951555885655" lon="7.868132714608159"><ele>360.0</ele><time>2026-04-11T08:17:19.999Z</time></trkpt><trkpt lat="44.739420743590244" lon="7.8682425776553995"><ele>360.0</ele><time>2026-04-11T08:17:21.999Z</time></trkpt><trkpt lat="44.739329162759624" lon="7.868361000049433"><ele>360.0</ele><time>2026-04-11T08:17:23.999Z</time></trkpt><trkpt lat="44.73923819493799" lon="7.86847037202752"><ele>360.0</ele><time>2026-04-11T08:17:25.999Z</time></trkpt><trkpt lat="44.73914544341679" lon="7.868579075352027"><ele>360.0</ele><time>2026-04-11T08:17:27.999Z</time></trkpt><trkpt lat="44.73905047636534" lon="7.868679475646365"><ele>360.0</ele><time>2026-04-11T08:17:29.999Z</time></trkpt><trkpt lat="44.73895234872948" lon="7.868780526884382"><ele>360.0</ele><time>2026-04-11T08:17:31.999Z</time></trkpt><trkpt lat="44.73885910942209" lon="7.86888276753201"><ele>360.0</ele><time>2026-04-11T08:17:33.999Z</time></trkpt><trkpt lat="44.73876710887095" lon="7.868969221742241"><ele>360.0</ele><time>2026-04-11T08:17:35.999Z</time></trkpt><trkpt lat="44.73867253328791" lon="7.8690530338467575"><ele>360.0</ele><time>2026-04-11T08:17:37.999Z</time></trkpt><trkpt lat="44.73857819216066" lon="7.869120298012529"><ele>360.0</ele><time>2026-04-11T08:17:39.999Z</time></trkpt><trkpt lat="44.738484959679866" lon="7.869183908396201"><ele>360.0</ele><time>2026-04-11T08:17:41.999Z</time></trkpt><trkpt lat="44.73838502246744" lon="7.869239355242484"><ele>360.0</ele><time>2026-04-11T08:17:43.999Z</time></trkpt><trkpt lat="44.73829849261822" lon="7.869333275179196"><ele>360.25</ele><time>2026-04-11T08:17:45.999Z</time></trkpt><trkpt lat="44.73821180488821" lon="7.869433554463565"><ele>360.5</ele><time>2026-04-11T08:17:47.999Z</time></trkpt><trkpt lat="44.738138933788825" lon="7.869557381808908"><ele>360.75</ele><time>2026-04-11T08:17:49.999Z</time></trkpt><trkpt lat="44.738064316073896" lon="7.8696884612936335"><ele>361.0</ele><time>2026-04-11T08:17:51.999Z</time></trkpt><trkpt lat="44.73798597933287" lon="7.869811212337241"><ele>361.0</ele><time>2026-04-11T08:17:53.999Z</time></trkpt><trkpt lat="44.73790848368671" lon="7.869925406400328"><ele>361.0</ele><time>2026-04-11T08:17:55.999Z</time></trkpt><trkpt lat="44.73782320058213" lon="7.870033423356215"><ele>361.0</ele><time>2026-04-11T08:17:57.999Z</time></trkpt><trkpt lat="44.73774168932599" lon="7.870139096690239"><ele>361.0</ele><time>2026-04-11T08:18:00Z</time></trkpt><trkpt lat="44.737651192844496" lon="7.870238198016473"><ele>361.6</ele><time>2026-04-11T08:18:02Z</time></trkpt><trkpt lat="44.737549300942824" lon="7.870351115661744"><ele>362.20000000000005</ele><time>2026-04-11T08:18:04Z</time></trkpt><trkpt lat="44.73746265055892" lon="7.870433546416146"><ele>362.79999999999995</ele><time>2026-04-11T08:18:06Z</time></trkpt><trkpt lat="44.73737455551331" lon="7.870519150755732"><ele>363.4</ele><time>2026-04-11T08:18:08Z</time></trkpt><trkpt lat="44.73729206165327" lon="7.870597464879305"><ele>364.0</ele><time>2026-04-11T08:18:10Z</time></trkpt><trkpt lat="44.73721688191251" lon="7.870690260402822"><ele>364.0</ele><time>2026-04-11T08:18:12Z</time></trkpt><trkpt lat="44.73715129736201" lon="7.870798459929349"><ele>364.0</ele><time>2026-04-11T08:18:14Z</time></trkpt><trkpt lat="44.737077265448804" lon="7.870916993216197"><ele>364.0</ele><time>2026-04-11T08:18:16Z</time></trkpt><trkpt lat="44.7369947089852" lon="7.871044229196492"><ele>364.0</ele><time>2026-04-11T08:18:18Z</time></trkpt><trkpt lat="44.73690455326509" lon="7.871170920326109"><ele>364.2</ele><time>2026-04-11T08:18:20Z</time></trkpt><trkpt lat="44.736860189780266" lon="7.871237006828781"><ele>364.4</ele><time>2026-04-11T08:18:21Z</time></trkpt><trkpt lat="44.73677375148386" lon="7.871363013785009"><ele>364.6</ele><time>2026-04-11T08:18:23Z</time></trkpt><trkpt lat="44.73672842856818" lon="7.871446782474978"><ele>364.8</ele><time>2026-04-11T08:18:24Z</time></trkpt><trkpt lat="44.73668944259551" lon="7.871522756694589"><ele>365.0</ele><time>2026-04-11T08:18:25Z</time></trkpt><trkpt lat="44.736627714712846" lon="7.871684704798762"><ele>365.00000000000006</ele><time>2026-04-11T08:18:27Z</time></trkpt><trkpt lat="44.73659372087498" lon="7.871771875814746"><ele>365.0</ele><time>2026-04-11T08:18:28Z</time></trkpt><trkpt lat="44.73655580125215" lon="7.8718430057148545"><ele>365.0</ele><time>2026-04-11T08:18:29Z</time></trkpt><trkpt lat="44.736520193437016" lon="7.871928120219765"><ele>365.0</ele><time>2026-04-11T08:18:30Z</time></trkpt><trkpt lat="44.73648456191554" lon="7.872009985853867"><ele>365.0</ele><time>2026-04-11T08:18:31Z</time></trkpt><trkpt lat="44.736446184874126" lon="7.872088324096364"><ele>365.00000000000006</ele><time>2026-04-11T08:18:32Z</time></trkpt><trkpt lat="44.736400093143324" lon="7.872167289602767"><ele>365.0</ele><time>2026-04-11T08:18:33Z</time></trkpt><trkpt lat="44.73636312131406" lon="7.872246721719537"><ele>365.1666666666667</ele><time>2026-04-11T08:18:34Z</time></trkpt><trkpt lat="44.73631846686061" lon="7.872313181802191"><ele>365.33333333333337</ele><time>2026-04-11T08:18:35Z</time></trkpt><trkpt lat="44.7362796043964" lon="7.872383897193819"><ele>365.5</ele><time>2026-04-11T08:18:36Z</time></trkpt><trkpt lat="44.73623979984137" lon="7.872456373331345"><ele>365.6666666666667</ele><time>2026-04-11T08:18:37Z</time></trkpt><trkpt lat="44.73616371791216" lon="7.872583310621401"><ele>365.8333333333333</ele><time>2026-04-11T08:18:39Z</time></trkpt><trkpt lat="44.736091005052884" lon="7.872707575957568"><ele>366.0</ele><time>2026-04-11T08:18:41Z</time></trkpt><trkpt lat="44.73602114596623" lon="7.8728350511461755"><ele>366.20000000000005</ele><time>2026-04-11T08:18:43Z</time></trkpt><trkpt lat="44.73594558254428" lon="7.8729543583803006"><ele>366.40000000000003</ele><time>2026-04-11T08:18:45Z</time></trkpt><trkpt lat="44.73586384651705" lon="7.873063328200685"><ele>366.6</ele><time>2026-04-11T08:18:47Z</time></trkpt><trkpt lat="44.73578736963976" lon="7.873173454982643"><ele>366.8</ele><time>2026-04-11T08:18:49Z</time></trkpt><trkpt lat="44.73570941862553" lon="7.873278105523181"><ele>367.0</ele><time>2026-04-11T08:18:51Z</time></trkpt><trkpt lat="44.73563552220493" lon="7.873394411579074"><ele>367.25</ele><time>2026-04-11T08:18:53Z</time></trkpt><trkpt lat="44.73555319279815" lon="7.873501137871185"><ele>367.5</ele><time>2026-04-11T08:18:55Z</time></trkpt><trkpt lat="44.73546731768588" lon="7.873619632637936"><ele>367.75</ele><time>2026-04-11T08:18:57Z</time></trkpt><trkpt lat="44.735383339734604" lon="7.87372765595118"><ele>368.0</ele><time>2026-04-11T08:18:59Z</time></trkpt><trkpt lat="44.73529738031202" lon="7.873845532918602"><ele>368.0</ele><time>2026-04-11T08:19:01Z</time></trkpt><trkpt lat="44.73522111611474" lon="7.873968633794494"><ele>368.0</ele><time>2026-04-11T08:19:03Z</time></trkpt><trkpt lat="44.7351399469197" lon="7.874075524348494"><ele>368.0</ele><time>2026-04-11T08:19:05Z</time></trkpt><trkpt lat="44.73506095923582" lon="7.874175960953302"><ele>368.0</ele><time>2026-04-11T08:19:06.999Z</time></trkpt><trkpt lat="44.73497724317923" lon="7.874264714220339"><ele>368.0</ele><time>2026-04-11T08:19:08.999Z</time></trkpt><trkpt lat="44.734881979934805" lon="7.874359519689142"><ele>368.2</ele><time>2026-04-11T08:19:10.999Z</time></trkpt><trkpt lat="44.734784685146586" lon="7.874470955914692"><ele>368.4</ele><time>2026-04-11T08:19:12.999Z</time></trkpt><trkpt lat="44.73473507125672" lon="7.874530035811246"><ele>368.59999999999997</ele><time>2026-04-11T08:19:13.999Z</time></trkpt><trkpt lat="44.73463439998407" lon="7.8746464817469795"><ele>368.79999999999995</ele><time>2026-04-11T08:19:15.999Z</time></trkpt><trkpt lat="44.73453148945861" lon="7.8747463042731605"><ele>369.0</ele><time>2026-04-11T08:19:17.999Z</time></trkpt><trkpt lat="44.73447823630735" lon="7.874794750448249"><ele>369.0</ele><time>2026-04-11T08:19:18.999Z</time></trkpt><trkpt lat="44.73442389443499" lon="7.874843750109014"><ele>369.0</ele><time>2026-04-11T08:19:19.999Z</time></trkpt><trkpt lat="44.73437176135935" lon="7.874903305212297"><ele>369.0</ele><time>2026-04-11T08:19:20.999Z</time></trkpt><trkpt lat="44.73431657457317" lon="7.874962897028591"><ele>369.0</ele><time>2026-04-11T08:19:21.999Z</time></trkpt><trkpt lat="44.734262147234446" lon="7.87501488449469"><ele>369.0</ele><time>2026-04-11T08:19:22.999Z</time></trkpt><trkpt lat="44.73421120154805" lon="7.87507654859769"><ele>369.0</ele><time>2026-04-11T08:19:23.999Z</time></trkpt><trkpt lat="44.734162457244224" lon="7.875138813525323"><ele>369.0</ele><time>2026-04-11T08:19:24.999Z</time></trkpt><trkpt lat="44.73411713954954" lon="7.875208285282573"><ele>369.2857142857143</ele><time>2026-04-11T08:19:25.999Z</time></trkpt><trkpt lat="44.73406852862427" lon="7.8752673636016315"><ele>369.57142857142856</ele><time>2026-04-11T08:19:26.999Z</time></trkpt><trkpt lat="44.734019516923524" lon="7.8753246403245045"><ele>369.8571428571429</ele><time>2026-04-11T08:19:27.999Z</time></trkpt><trkpt lat="44.73397157827241" lon="7.87538509106061"><ele>370.1428571428571</ele><time>2026-04-11T08:19:28.999Z</time></trkpt><trkpt lat="44.73392723698866" lon="7.87545078458035"><ele>370.42857142857144</ele><time>2026-04-11T08:19:29.999Z</time></trkpt><trkpt lat="44.73387714475398" lon="7.8755208838663355"><ele>370.7142857142857</ele><time>2026-04-11T08:19:30.999Z</time></trkpt><trkpt lat="44.73378546954746" lon="7.875634425819232"><ele>371.0</ele><time>2026-04-11T08:19:32.999Z</time></trkpt><trkpt lat="44.73368752464425" lon="7.875765181261952"><ele>371.0</ele><time>2026-04-11T08:19:34.999Z</time></trkpt><trkpt lat="44.73363763825909" lon="7.875822815739175"><ele>371.0</ele><time>2026-04-11T08:19:35.999Z</time></trkpt><trkpt lat="44.73359016059258" lon="7.875883970762204"><ele>371.0</ele><time>2026-04-11T08:19:36.999Z</time></trkpt><trkpt lat="44.73353728186646" lon="7.875941919902533"><ele>371.0</ele><time>2026-04-11T08:19:37.999Z</time></trkpt><trkpt lat="44.733483664232566" lon="7.875989610822075"><ele>371.0</ele><time>2026-04-11T08:19:38.999Z</time></trkpt><trkpt lat="44.73339258432118" lon="7.876107326108307"><ele>371.0</ele><time>2026-04-11T08:19:40.999Z</time></trkpt><trkpt lat="44.733342184910455" lon="7.876173659065318"><ele>371.2857142857143</ele><time>2026-04-11T08:19:41.999Z</time></trkpt><trkpt lat="44.73329187196216" lon="7.876237078470927"><ele>371.57142857142856</ele><time>2026-04-11T08:19:42.999Z</time></trkpt><trkpt lat="44.73323663264428" lon="7.876292918712307"><ele>371.8571428571429</ele><time>2026-04-11T08:19:43.999Z</time></trkpt><trkpt lat="44.73318323027599" lon="7.876349186793712"><ele>372.1428571428571</ele><time>2026-04-11T08:19:44.999Z</time></trkpt><trkpt lat="44.73312695928348" lon="7.876403916787378"><ele>372.42857142857144</ele><time>2026-04-11T08:19:45.999Z</time></trkpt><trkpt lat="44.73307032398304" lon="7.8764593194456065"><ele>372.7142857142857</ele><time>2026-04-11T08:19:46.999Z</time></trkpt><trkpt lat="44.73301113476023" lon="7.876511224048384"><ele>373.0</ele><time>2026-04-11T08:19:47.999Z</time></trkpt><trkpt lat="44.73295258459042" lon="7.8765557944152365"><ele>373.0</ele><time>2026-04-11T08:19:48.999Z</time></trkpt><trkpt lat="44.732890862782384" lon="7.876595021684193"><ele>373.0</ele><time>2026-04-11T08:19:49.999Z</time></trkpt><trkpt lat="44.73283061961403" lon="7.876632312846787"><ele>373.0</ele><time>2026-04-11T08:19:50.999Z</time></trkpt><trkpt lat="44.732770334289576" lon="7.876666126634383"><ele>373.0</ele><time>2026-04-11T08:19:51.999Z</time></trkpt><trkpt lat="44.732710931930185" lon="7.876698618153309"><ele>373.0</ele><time>2026-04-11T08:19:52.999Z</time></trkpt><trkpt lat="44.73265021498888" lon="7.876726061928358"><ele>373.0</ele><time>2026-04-11T08:19:53.999Z</time></trkpt><trkpt lat="44.73258985466773" lon="7.87675136352129"><ele>373.0</ele><time>2026-04-11T08:19:54.999Z</time></trkpt><trkpt lat="44.732472820312054" lon="7.876803746094577"><ele>373.0</ele><time>2026-04-11T08:19:56.999Z</time></trkpt><trkpt lat="44.73235772252661" lon="7.8768393999027735"><ele>373.0</ele><time>2026-04-11T08:19:58.999Z</time></trkpt><trkpt lat="44.7322395852451" lon="7.8768472761141854"><ele>373.0</ele><time>2026-04-11T08:20:00.999Z</time></trkpt><trkpt lat="44.73211875729885" lon="7.876844308750978"><ele>373.0</ele><time>2026-04-11T08:20:02.999Z</time></trkpt><trkpt lat="44.732000413562524" lon="7.876845894824646"><ele>373.5</ele><time>2026-04-11T08:20:04.999Z</time></trkpt><trkpt lat="44.73188874377213" lon="7.876874434287119"><ele>374.0</ele><time>2026-04-11T08:20:07Z</time></trkpt><trkpt lat="44.73177821410692" lon="7.876916103501418"><ele>374.5</ele><time>2026-04-11T08:20:09Z</time></trkpt><trkpt lat="44.73166598903241" lon="7.87695359996582"><ele>375.0</ele><time>2026-04-11T08:20:11Z</time></trkpt><trkpt lat="44.73155128662255" lon="7.876994897154543"><ele>375.0</ele><time>2026-04-11T08:20:13Z</time></trkpt><trkpt lat="44.731492057617174" lon="7.877034056720834"><ele>375.0</ele><time>2026-04-11T08:20:14Z</time></trkpt><trkpt lat="44.73137155908583" lon="7.87709741922564"><ele>375.0</ele><time>2026-04-11T08:20:16Z</time></trkpt><trkpt lat="44.731306026005626" lon="7.877126342731046"><ele>375.0</ele><time>2026-04-11T08:20:17Z</time></trkpt><trkpt lat="44.73123902620792" lon="7.877145966194334"><ele>375.0</ele><time>2026-04-11T08:20:18Z</time></trkpt><trkpt lat="44.73117207867024" lon="7.877155941641157"><ele>375.0</ele><time>2026-04-11T08:20:19Z</time></trkpt><trkpt lat="44.7311050419398" lon="7.877173220594942"><ele>375.0</ele><time>2026-04-11T08:20:20Z</time></trkpt><trkpt lat="44.73103628515931" lon="7.877198427706795"><ele>375.0</ele><time>2026-04-11T08:20:21Z</time></trkpt><trkpt lat="44.730968177663065" lon="7.877227068443832"><ele>375.0</ele><time>2026-04-11T08:20:22Z</time></trkpt><trkpt lat="44.7309017486577" lon="7.877255777454975"><ele>375.0</ele><time>2026-04-11T08:20:23Z</time></trkpt><trkpt lat="44.730831953259454" lon="7.877278645357003"><ele>375.0</ele><time>2026-04-11T08:20:24Z</time></trkpt><trkpt lat="44.7307097199361" lon="7.8773396267861155"><ele>375.0</ele><time>2026-04-11T08:20:26Z</time></trkpt><trkpt lat="44.73064048276887" lon="7.877366009139859"><ele>375.0</ele><time>2026-04-11T08:20:27Z</time></trkpt><trkpt lat="44.730523122133526" lon="7.877409908985949"><ele>375.0</ele><time>2026-04-11T08:20:29Z</time></trkpt><trkpt lat="44.7304612856907" lon="7.877430845426584"><ele>375.0</ele><time>2026-04-11T08:20:30Z</time></trkpt><trkpt lat="44.73039999980671" lon="7.877451332800501"><ele>375.0</ele><time>2026-04-11T08:20:31Z</time></trkpt><trkpt lat="44.73033811995843" lon="7.877472603419154"><ele>375.0</ele><time>2026-04-11T08:20:32Z</time></trkpt><trkpt lat="44.730276398645465" lon="7.87749580797559"><ele>375.0</ele><time>2026-04-11T08:20:33Z</time></trkpt><trkpt lat="44.730209759523" lon="7.877515930295145"><ele>375.0</ele><time>2026-04-11T08:20:34Z</time></trkpt><trkpt lat="44.73008403670188" lon="7.877562194375671"><ele>375.4</ele><time>2026-04-11T08:20:36Z</time></trkpt><trkpt lat="44.72995965789098" lon="7.877598294308821"><ele>375.8</ele><time>2026-04-11T08:20:38Z</time></trkpt><trkpt lat="44.7298381331233" lon="7.877644427471158"><ele>376.20000000000005</ele><time>2026-04-11T08:20:40Z</time></trkpt><trkpt lat="44.72977575327072" lon="7.877670635133715"><ele>376.6</ele><time>2026-04-11T08:20:41Z</time></trkpt><trkpt lat="44.72971135603912" lon="7.877691917237445"><ele>377.0</ele><time>2026-04-11T08:20:42Z</time></trkpt><trkpt lat="44.72959164772249" lon="7.877748621590322"><ele>377.8</ele><time>2026-04-11T08:20:44Z</time></trkpt><trkpt lat="44.72947175955474" lon="7.877791383819745"><ele>378.6</ele><time>2026-04-11T08:20:46Z</time></trkpt><trkpt lat="44.729350010800815" lon="7.877829387006597"><ele>379.40000000000003</ele><time>2026-04-11T08:20:48Z</time></trkpt><trkpt lat="44.729283766571214" lon="7.877839152157904"><ele>380.20000000000005</ele><time>2026-04-11T08:20:49Z</time></trkpt><trkpt lat="44.729161685430405" lon="7.877830520343971"><ele>381.0</ele><time>2026-04-11T08:20:51Z</time></trkpt><trkpt lat="44.72909606132697" lon="7.877821341436979"><ele>381.0</ele><time>2026-04-11T08:20:52Z</time></trkpt><trkpt lat="44.72903039407408" lon="7.877808574464289"><ele>381.0</ele><time>2026-04-11T08:20:53Z</time></trkpt><trkpt lat="44.7289654600308" lon="7.87779731283306"><ele>381.0</ele><time>2026-04-11T08:20:54Z</time></trkpt><trkpt lat="44.72890224462674" lon="7.877782833119443"><ele>381.0</ele><time>2026-04-11T08:20:55Z</time></trkpt><trkpt lat="44.72877477553387" lon="7.8777582623958695"><ele>381.0</ele><time>2026-04-11T08:20:57Z</time></trkpt><trkpt lat="44.72870896311812" lon="7.877754070653243"><ele>381.0</ele><time>2026-04-11T08:20:58Z</time></trkpt><trkpt lat="44.72864175954713" lon="7.877755755266454"><ele>381.0</ele><time>2026-04-11T08:20:59Z</time></trkpt><trkpt lat="44.72857955778731" lon="7.877769884135838"><ele>381.0</ele><time>2026-04-11T08:21:00Z</time></trkpt><trkpt lat="44.728516326215" lon="7.877784565163974"><ele>381.0</ele><time>2026-04-11T08:21:01Z</time></trkpt><trkpt lat="44.72845414186938" lon="7.877808261299481"><ele>381.0</ele><time>2026-04-11T08:21:02Z</time></trkpt><trkpt lat="44.72833675182532" lon="7.87786863170412"><ele>381.0</ele><time>2026-04-11T08:21:04Z</time></trkpt><trkpt lat="44.728276393092905" lon="7.8778999164980075"><ele>381.0</ele><time>2026-04-11T08:21:04.999Z</time></trkpt><trkpt lat="44.72815718270426" lon="7.877945849562196"><ele>380.85714285714283</ele><time>2026-04-11T08:21:06.999Z</time></trkpt><trkpt lat="44.728038065193246" lon="7.8779951294258925"><ele>380.7142857142857</ele><time>2026-04-11T08:21:08.999Z</time></trkpt><trkpt lat="44.72797583908186" lon="7.8780220864071735"><ele>380.57142857142856</ele><time>2026-04-11T08:21:09.999Z</time></trkpt><trkpt lat="44.72791524161242" lon="7.8780468519872535"><ele>380.42857142857144</ele><time>2026-04-11T08:21:10.999Z</time></trkpt><trkpt lat="44.727853657586785" lon="7.878073298788625"><ele>380.28571428571433</ele><time>2026-04-11T08:21:11.999Z</time></trkpt><trkpt lat="44.72779154534176" lon="7.8781004597705016"><ele>380.14285714285717</ele><time>2026-04-11T08:21:12.999Z</time></trkpt><trkpt lat="44.72773077617733" lon="7.87812665087218"><ele>380.0</ele><time>2026-04-11T08:21:13.999Z</time></trkpt><trkpt lat="44.727610185941685" lon="7.878176077047103"><ele>380.42857142857144</ele><time>2026-04-11T08:21:15.999Z</time></trkpt><trkpt lat="44.727488679209145" lon="7.878219584753423"><ele>380.8571428571429</ele><time>2026-04-11T08:21:17.999Z</time></trkpt><trkpt lat="44.72742728319114" lon="7.878244127694908"><ele>381.2857142857143</ele><time>2026-04-11T08:21:18.999Z</time></trkpt><trkpt lat="44.727365835000214" lon="7.878266990735012"><ele>381.7142857142857</ele><time>2026-04-11T08:21:19.999Z</time></trkpt><trkpt lat="44.727303952373276" lon="7.878290527564901"><ele>382.1428571428571</ele><time>2026-04-11T08:21:20.999Z</time></trkpt><trkpt lat="44.7272414921554" lon="7.878315052577412"><ele>382.57142857142856</ele><time>2026-04-11T08:21:21.999Z</time></trkpt><trkpt lat="44.72717778765608" lon="7.878340998136798"><ele>383.0</ele><time>2026-04-11T08:21:22.999Z</time></trkpt><trkpt lat="44.727056854416915" lon="7.878387048741121"><ele>383.0</ele><time>2026-04-11T08:21:24.999Z</time></trkpt><trkpt lat="44.72693629143478" lon="7.878432014523583"><ele>383.0</ele><time>2026-04-11T08:21:26.999Z</time></trkpt><trkpt lat="44.7268746941681" lon="7.878457686353957"><ele>383.0</ele><time>2026-04-11T08:21:27.999Z</time></trkpt><trkpt lat="44.72681437131008" lon="7.878484417657347"><ele>383.0</ele><time>2026-04-11T08:21:28.999Z</time></trkpt><trkpt lat="44.726694453472454" lon="7.878509030798126"><ele>383.0</ele><time>2026-04-11T08:21:30.999Z</time></trkpt><trkpt lat="44.72663292757515" lon="7.878557923593638"><ele>383.0</ele><time>2026-04-11T08:21:31.999Z</time></trkpt><trkpt lat="44.72657200016318" lon="7.878584030645112"><ele>383.0</ele><time>2026-04-11T08:21:32.999Z</time></trkpt><trkpt lat="44.726507627171614" lon="7.878590917982352"><ele>383.0</ele><time>2026-04-11T08:21:33.999Z</time></trkpt><trkpt lat="44.72640707615166" lon="7.8786771903496415"><ele>383.0</ele><time>2026-04-11T08:21:35.999Z</time></trkpt><trkpt lat="44.726348425590785" lon="7.878723963427319"><ele>383.0</ele><time>2026-04-11T08:21:36.999Z</time></trkpt><trkpt lat="44.726233195007154" lon="7.878775909114783"><ele>383.0</ele><time>2026-04-11T08:21:38.999Z</time></trkpt><trkpt lat="44.72612052916356" lon="7.878845741575761"><ele>383.59999999999997</ele><time>2026-04-11T08:21:40.999Z</time></trkpt><trkpt lat="44.726008947114195" lon="7.8789165689616585"><ele>384.2</ele><time>2026-04-11T08:21:42.999Z</time></trkpt><trkpt lat="44.72595152207149" lon="7.878953534768656"><ele>384.8</ele><time>2026-04-11T08:21:43.999Z</time></trkpt><trkpt lat="44.725837636049384" lon="7.87902684579301"><ele>385.4</ele><time>2026-04-11T08:21:45.999Z</time></trkpt><trkpt lat="44.72574130700627" lon="7.879113715226807"><ele>386.0</ele><time>2026-04-11T08:21:47.999Z</time></trkpt><trkpt lat="44.72562934576876" lon="7.879161676025148"><ele>386.0</ele><time>2026-04-11T08:21:49.999Z</time></trkpt><trkpt lat="44.72553424578048" lon="7.879225058516713"><ele>386.0</ele><time>2026-04-11T08:21:51.999Z</time></trkpt><trkpt lat="44.7254398383926" lon="7.879289500664289"><ele>386.0</ele><time>2026-04-11T08:21:53.999Z</time></trkpt><trkpt lat="44.72535867468998" lon="7.879367360190749"><ele>386.0</ele><time>2026-04-11T08:21:55.999Z</time></trkpt><trkpt lat="44.72525737368506" lon="7.879421491125629"><ele>386.0</ele><time>2026-04-11T08:21:57.999Z</time></trkpt><trkpt lat="44.72516687823462" lon="7.87947808300319"><ele>385.8</ele><time>2026-04-11T08:21:59.999Z</time></trkpt><trkpt lat="44.72507502357555" lon="7.879528974794529"><ele>385.6</ele><time>2026-04-11T08:22:01.999Z</time></trkpt><trkpt lat="44.72498481899308" lon="7.879572999259948"><ele>385.4</ele><time>2026-04-11T08:22:03.999Z</time></trkpt><trkpt lat="44.72489678184997" lon="7.8796151796961"><ele>385.2</ele><time>2026-04-11T08:22:05.999Z</time></trkpt><trkpt lat="44.72481099662859" lon="7.879669471375457"><ele>385.0</ele><time>2026-04-11T08:22:07.999Z</time></trkpt><trkpt lat="44.72473068410386" lon="7.879709821549555"><ele>385.0</ele><time>2026-04-11T08:22:09.999Z</time></trkpt><trkpt lat="44.72464315547453" lon="7.879722183084041"><ele>385.0</ele><time>2026-04-11T08:22:12Z</time></trkpt><trkpt lat="44.72455991913783" lon="7.879757771685118"><ele>385.0</ele><time>2026-04-11T08:22:14Z</time></trkpt><trkpt lat="44.72447523802183" lon="7.879794726741937"><ele>385.0</ele><time>2026-04-11T08:22:16Z</time></trkpt><trkpt lat="44.72439181293854" lon="7.879863991538031"><ele>385.0</ele><time>2026-04-11T08:22:18Z</time></trkpt><trkpt lat="44.724299670887454" lon="7.879903062735773"><ele>385.4</ele><time>2026-04-11T08:22:20Z</time></trkpt><trkpt lat="44.72420554950624" lon="7.879948085973907"><ele>385.8</ele><time>2026-04-11T08:22:22Z</time></trkpt><trkpt lat="44.72411322305743" lon="7.880012890513263"><ele>386.20000000000005</ele><time>2026-04-11T08:22:24Z</time></trkpt><trkpt lat="44.724011882493905" lon="7.880045799276099"><ele>386.6</ele><time>2026-04-11T08:22:26Z</time></trkpt><trkpt lat="44.723921843306385" lon="7.8801075390349045"><ele>387.0</ele><time>2026-04-11T08:22:28Z</time></trkpt><trkpt lat="44.72383642939765" lon="7.880173826882887"><ele>387.40000000000003</ele><time>2026-04-11T08:22:30Z</time></trkpt><trkpt lat="44.72374241315715" lon="7.8802242582931425"><ele>387.8</ele><time>2026-04-11T08:22:32Z</time></trkpt><trkpt lat="44.723652093230925" lon="7.880284732787809"><ele>388.2</ele><time>2026-04-11T08:22:34Z</time></trkpt><trkpt lat="44.72356335900137" lon="7.880347177249813"><ele>388.6</ele><time>2026-04-11T08:22:36Z</time></trkpt><trkpt lat="44.723482176462596" lon="7.880425830043252"><ele>389.0</ele><time>2026-04-11T08:22:38Z</time></trkpt><trkpt lat="44.723394044263394" lon="7.8804748038048364"><ele>389.0</ele><time>2026-04-11T08:22:40Z</time></trkpt><trkpt lat="44.72330458994013" lon="7.880532060507573"><ele>389.0</ele><time>2026-04-11T08:22:42Z</time></trkpt><trkpt lat="44.72321865711517" lon="7.880597685861143"><ele>389.0</ele><time>2026-04-11T08:22:44Z</time></trkpt><trkpt lat="44.72312504125842" lon="7.880634859581948"><ele>389.0</ele><time>2026-04-11T08:22:46Z</time></trkpt><trkpt lat="44.72303628288316" lon="7.880701634890463"><ele>389.0</ele><time>2026-04-11T08:22:48Z</time></trkpt><trkpt lat="44.72294332399498" lon="7.880759873437252"><ele>388.99999999999994</ele><time>2026-04-11T08:22:50Z</time></trkpt><trkpt lat="44.722841254841455" lon="7.88082219772514"><ele>389.0</ele><time>2026-04-11T08:22:52Z</time></trkpt><trkpt lat="44.722732381182965" lon="7.880887235327153"><ele>389.0</ele><time>2026-04-11T08:22:54Z</time></trkpt><trkpt lat="44.72267453443789" lon="7.880928064352036"><ele>389.0</ele><time>2026-04-11T08:22:55Z</time></trkpt><trkpt lat="44.7226118788341" lon="7.880966905960535"><ele>388.99999999999994</ele><time>2026-04-11T08:22:55.999Z</time></trkpt><trkpt lat="44.72254369299599" lon="7.881009423182313"><ele>389.0</ele><time>2026-04-11T08:22:56.999Z</time></trkpt><trkpt lat="44.72247258164045" lon="7.881050540233064"><ele>391.0</ele><time>2026-04-11T08:22:57.999Z</time></trkpt><trkpt lat="44.72238928206669" lon="7.88107128129648"><ele>393.0</ele><time>2026-04-11T08:22:58.999Z</time></trkpt><trkpt lat="44.722300770017696" lon="7.881083116254913"><ele>395.0</ele><time>2026-04-11T08:22:59.999Z</time></trkpt><trkpt lat="44.72221326315127" lon="7.881076063551334"><ele>397.0</ele><time>2026-04-11T08:23:00.999Z</time></trkpt><trkpt lat="44.7221244619589" lon="7.881014884059495"><ele>399.0</ele><time>2026-04-11T08:23:01.999Z</time></trkpt><trkpt lat="44.722040282619375" lon="7.880943597007009"><ele>396.2</ele><time>2026-04-11T08:23:02.999Z</time></trkpt><trkpt lat="44.72195985701206" lon="7.88086635081624"><ele>393.4</ele><time>2026-04-11T08:23:03.999Z</time></trkpt><trkpt lat="44.72186693943643" lon="7.880805311533573"><ele>390.6</ele><time>2026-04-11T08:23:04.999Z</time></trkpt><trkpt lat="44.72177330664217" lon="7.880783004864103"><ele>387.8</ele><time>2026-04-11T08:23:05.999Z</time></trkpt><trkpt lat="44.72167091348024" lon="7.8807818459488415"><ele>385.0</ele><time>2026-04-11T08:23:06.999Z</time></trkpt><trkpt lat="44.72157613949323" lon="7.880800136574985"><ele>383.8</ele><time>2026-04-11T08:23:07.999Z</time></trkpt><trkpt lat="44.72148540022839" lon="7.880813430980565"><ele>382.6</ele><time>2026-04-11T08:23:08.999Z</time></trkpt><trkpt lat="44.72139578302222" lon="7.880832852861909"><ele>381.4</ele><time>2026-04-11T08:23:09.999Z</time></trkpt><trkpt lat="44.72130185382027" lon="7.88084733014337"><ele>380.2</ele><time>2026-04-11T08:23:10.999Z</time></trkpt><trkpt lat="44.72120836238537" lon="7.880857984006772"><ele>379.0</ele><time>2026-04-11T08:23:11.999Z</time></trkpt><trkpt lat="44.72111986733936" lon="7.880869156250865"><ele>378.8333333333333</ele><time>2026-04-11T08:23:12.999Z</time></trkpt><trkpt lat="44.721033358146" lon="7.880864899221841"><ele>378.66666666666663</ele><time>2026-04-11T08:23:13.999Z</time></trkpt><trkpt lat="44.72095209901427" lon="7.880866059966057"><ele>378.5</ele><time>2026-04-11T08:23:14.999Z</time></trkpt><trkpt lat="44.720865873714544" lon="7.880885651412552"><ele>378.3333333333333</ele><time>2026-04-11T08:23:15.999Z</time></trkpt><trkpt lat="44.7207829439953" lon="7.880895147296514"><ele>378.1666666666667</ele><time>2026-04-11T08:23:16.999Z</time></trkpt><trkpt lat="44.720693226868036" lon="7.880920576428578"><ele>378.0</ele><time>2026-04-11T08:23:17.999Z</time></trkpt><trkpt lat="44.72062955077837" lon="7.8809680248923994"><ele>376.3333333333333</ele><time>2026-04-11T08:23:18.999Z</time></trkpt><trkpt lat="44.72058786189382" lon="7.881055047930693"><ele>374.6666666666667</ele><time>2026-04-11T08:23:50.999Z</time></trkpt><trkpt lat="44.72053304109595" lon="7.881157360700176"><ele>373.0</ele><time>2026-04-11T08:23:53.999Z</time></trkpt><trkpt lat="44.72046891006106" lon="7.8811805127934615"><ele>371.33333333333337</ele><time>2026-04-11T08:26:59.999Z</time></trkpt><trkpt lat="44.72038749937341" lon="7.881195017961925"><ele>369.6666666666667</ele><time>2026-04-11T08:27:02.999Z</time></trkpt><trkpt lat="44.72033133634189" lon="7.881272231774913"><ele>368.0</ele><time>2026-04-11T08:27:04.999Z</time></trkpt><trkpt lat="44.72026746583895" lon="7.8813609260839135"><ele>368.79999999999995</ele><time>2026-04-11T08:27:06.999Z</time></trkpt><trkpt lat="44.72020577978879" lon="7.881449982578308"><ele>369.6</ele><time>2026-04-11T08:27:08.999Z</time></trkpt><trkpt lat="44.72014436685944" lon="7.88154844200829"><ele>370.4</ele><time>2026-04-11T08:27:10.999Z</time></trkpt><trkpt lat="44.72007756048585" lon="7.881679250027143"><ele>371.20000000000005</ele><time>2026-04-11T08:27:12.999Z</time></trkpt><trkpt lat="44.72002115076908" lon="7.881749852834211"><ele>372.0</ele><time>2026-04-11T08:27:13.999Z</time></trkpt><trkpt lat="44.71996302050137" lon="7.881828779001622"><ele>370.40000000000003</ele><time>2026-04-11T08:27:14.999Z</time></trkpt><trkpt lat="44.719901973765744" lon="7.88191677733791"><ele>368.8</ele><time>2026-04-11T08:27:15.999Z</time></trkpt><trkpt lat="44.71984277896711" lon="7.8820148026702865"><ele>367.2</ele><time>2026-04-11T08:27:16.999Z</time></trkpt><trkpt lat="44.71978327079613" lon="7.882123220913283"><ele>365.6</ele><time>2026-04-11T08:27:17.999Z</time></trkpt><trkpt lat="44.71972887413381" lon="7.8822443880115935"><ele>364.0</ele><time>2026-04-11T08:27:18.999Z</time></trkpt><trkpt lat="44.71968945237021" lon="7.882383874979314"><ele>364.0</ele><time>2026-04-11T08:27:19.999Z</time></trkpt><trkpt lat="44.71966609352145" lon="7.882524200312341"><ele>364.0</ele><time>2026-04-11T08:27:20.999Z</time></trkpt><trkpt lat="44.71965567647431" lon="7.882669224618465"><ele>364.0</ele><time>2026-04-11T08:27:21.999Z</time></trkpt><trkpt lat="44.71964599652444" lon="7.8828128407372375"><ele>364.0</ele><time>2026-04-11T08:27:22.999Z</time></trkpt><trkpt lat="44.71963611035359" lon="7.882953889121512"><ele>364.0</ele><time>2026-04-11T08:27:23.999Z</time></trkpt><trkpt lat="44.71962467602548" lon="7.883089461770376"><ele>361.4</ele><time>2026-04-11T08:27:24.999Z</time></trkpt><trkpt lat="44.71961368943195" lon="7.883211874129143"><ele>358.79999999999995</ele><time>2026-04-11T08:27:25.999Z</time></trkpt><trkpt lat="44.71960725459724" lon="7.883331099030838"><ele>356.20000000000005</ele><time>2026-04-11T08:27:26.999Z</time></trkpt><trkpt lat="44.71959809341983" lon="7.88342967187963"><ele>353.6</ele><time>2026-04-11T08:27:27.999Z</time></trkpt><trkpt lat="44.71954140835889" lon="7.883564801327849"><ele>351.0</ele><time>2026-04-11T08:27:29.999Z</time></trkpt><trkpt lat="44.71948079745778" lon="7.883674595311718"><ele>352.0</ele><time>2026-04-11T08:27:31.999Z</time></trkpt><trkpt lat="44.719371497440264" lon="7.883784966795088"><ele>353.0</ele><time>2026-04-11T08:27:33.999Z</time></trkpt><trkpt lat="44.71931181754522" lon="7.883853915323109"><ele>354.0</ele><time>2026-04-11T08:27:34.999Z</time></trkpt><trkpt lat="44.719254839946" lon="7.883927314445166"><ele>355.0</ele><time>2026-04-11T08:27:35.999Z</time></trkpt><trkpt lat="44.71919705378359" lon="7.883994137124996"><ele>356.0</ele><time>2026-04-11T08:27:36.999Z</time></trkpt><trkpt lat="44.71913387429387" lon="7.884069944963128"><ele>357.0</ele><time>2026-04-11T08:27:37.999Z</time></trkpt><trkpt lat="44.719070672307645" lon="7.884128696729059"><ele>357.0</ele><time>2026-04-11T08:27:38.999Z</time></trkpt><trkpt lat="44.718985044635126" lon="7.884153672484939"><ele>357.0</ele><time>2026-04-11T08:27:39.999Z</time></trkpt><trkpt lat="44.71889761251958" lon="7.884199937820429"><ele>357.0</ele><time>2026-04-11T08:27:40.999Z</time></trkpt><trkpt lat="44.7188098982393" lon="7.884240291477009"><ele>357.0</ele><time>2026-04-11T08:27:41.999Z</time></trkpt><trkpt lat="44.71872046885906" lon="7.884288004697542"><ele>357.0</ele><time>2026-04-11T08:27:42.999Z</time></trkpt><trkpt lat="44.71863005797104" lon="7.884344160169603"><ele>354.6</ele><time>2026-04-11T08:27:43.999Z</time></trkpt><trkpt lat="44.718531351599054" lon="7.884393406495462"><ele>352.20000000000005</ele><time>2026-04-11T08:27:44.999Z</time></trkpt><trkpt lat="44.718431739134125" lon="7.88444268951493"><ele>349.8</ele><time>2026-04-11T08:27:45.999Z</time></trkpt><trkpt lat="44.718330019731305" lon="7.884481688250525"><ele>347.4</ele><time>2026-04-11T08:27:46.999Z</time></trkpt><trkpt lat="44.71823345219884" lon="7.884517632677072"><ele>345.0</ele><time>2026-04-11T08:27:47.999Z</time></trkpt><trkpt lat="44.718137079436005" lon="7.884554184557072"><ele>345.0</ele><time>2026-04-11T08:27:48.999Z</time></trkpt><trkpt lat="44.718045544614064" lon="7.884602337490766"><ele>345.0</ele><time>2026-04-11T08:27:49.999Z</time></trkpt><trkpt lat="44.71796188890124" lon="7.88468150177455"><ele>345.0</ele><time>2026-04-11T08:27:50.999Z</time></trkpt><trkpt lat="44.717881968289014" lon="7.884796758224056"><ele>345.0</ele><time>2026-04-11T08:27:51.999Z</time></trkpt><trkpt lat="44.71779568090138" lon="7.884894474109794"><ele>345.0</ele><time>2026-04-11T08:27:52.999Z</time></trkpt><trkpt lat="44.71770164883185" lon="7.884994372979393"><ele>344.25</ele><time>2026-04-11T08:27:53.999Z</time></trkpt><trkpt lat="44.71759887320499" lon="7.885078983963025"><ele>343.5</ele><time>2026-04-11T08:27:54.999Z</time></trkpt><trkpt lat="44.717515855368084" lon="7.885182482254584"><ele>342.75</ele><time>2026-04-11T08:27:55.999Z</time></trkpt><trkpt lat="44.71743463875773" lon="7.885286474564376"><ele>342.0</ele><time>2026-04-11T08:27:56.999Z</time></trkpt><trkpt lat="44.717338475708196" lon="7.885361815487054"><ele>342.0</ele><time>2026-04-11T08:27:57.999Z</time></trkpt><trkpt lat="44.71723124028885" lon="7.885427298569945"><ele>342.0</ele><time>2026-04-11T08:27:58.999Z</time></trkpt><trkpt lat="44.717116507413266" lon="7.885465427854219"><ele>342.0</ele><time>2026-04-11T08:27:59.999Z</time></trkpt><trkpt lat="44.71699890631116" lon="7.885494063360514"><ele>342.0</ele><time>2026-04-11T08:28:00.999Z</time></trkpt><trkpt lat="44.716886065885156" lon="7.885542085160877"><ele>339.8</ele><time>2026-04-11T08:28:01.999Z</time></trkpt><trkpt lat="44.71677136749157" lon="7.885601194908594"><ele>337.6</ele><time>2026-04-11T08:28:02.999Z</time></trkpt><trkpt lat="44.716662018088954" lon="7.8856477839776975"><ele>335.40000000000003</ele><time>2026-04-11T08:28:03.999Z</time></trkpt><trkpt lat="44.71655809049358" lon="7.885640369160667"><ele>333.20000000000005</ele><time>2026-04-11T08:28:04.999Z</time></trkpt><trkpt lat="44.71647808562448" lon="7.885581411459044"><ele>331.0</ele><time>2026-04-11T08:28:05.999Z</time></trkpt><trkpt lat="44.71643572110429" lon="7.885464492170971"><ele>331.0</ele><time>2026-04-11T08:28:06.999Z</time></trkpt><trkpt lat="44.71646285701326" lon="7.885333706587985"><ele>331.0</ele><time>2026-04-11T08:28:07.999Z</time></trkpt><trkpt lat="44.71646606642559" lon="7.885221202169333"><ele>331.0</ele><time>2026-04-11T08:28:08.999Z</time></trkpt><trkpt lat="44.71645388551887" lon="7.88512941806838"><ele>331.0</ele><time>2026-04-11T08:28:09.999Z</time></trkpt><trkpt lat="44.71635270995853" lon="7.885086049017483"><ele>331.0</ele><time>2026-04-11T08:28:10.999Z</time></trkpt><trkpt lat="44.716278969654624" lon="7.885172208929047"><ele>331.0</ele><time>2026-04-11T08:28:11.999Z</time></trkpt><trkpt lat="44.71625355945273" lon="7.88529041388891"><ele>331.0</ele><time>2026-04-11T08:28:12.999Z</time></trkpt><trkpt lat="44.71625934242895" lon="7.8854151578102"><ele>331.0</ele><time>2026-04-11T08:28:13.999Z</time></trkpt><trkpt lat="44.71623927498953" lon="7.885540734191893"><ele>331.0</ele><time>2026-04-11T08:28:14.999Z</time></trkpt><trkpt lat="44.716180066741025" lon="7.885639077236858"><ele>331.0</ele><time>2026-04-11T08:28:15.999Z</time></trkpt><trkpt lat="44.71610171490473" lon="7.885695658149625"><ele>331.0</ele><time>2026-04-11T08:28:16.999Z</time></trkpt><trkpt lat="44.71599106995218" lon="7.885784190350234"><ele>329.6</ele><time>2026-04-11T08:28:17.999Z</time></trkpt><trkpt lat="44.71591038547696" lon="7.8858905784784055"><ele>328.20000000000005</ele><time>2026-04-11T08:28:18.999Z</time></trkpt><trkpt lat="44.715849271250136" lon="7.886021460723064"><ele>326.79999999999995</ele><time>2026-04-11T08:28:19.999Z</time></trkpt><trkpt lat="44.715791036020576" lon="7.8861541106302315"><ele>325.4</ele><time>2026-04-11T08:28:20.999Z</time></trkpt><trkpt lat="44.71572197347834" lon="7.886275654744419"><ele>324.0</ele><time>2026-04-11T08:28:21.999Z</time></trkpt><trkpt lat="44.71562544157322" lon="7.886376258826746"><ele>324.0</ele><time>2026-04-11T08:28:22.999Z</time></trkpt><trkpt lat="44.71551451965327" lon="7.886442725715625"><ele>324.0</ele><time>2026-04-11T08:28:23.999Z</time></trkpt><trkpt lat="44.71540312476945" lon="7.88651230313643"><ele>324.0</ele><time>2026-04-11T08:28:24.999Z</time></trkpt><trkpt lat="44.71528727166461" lon="7.886566486418314"><ele>324.0</ele><time>2026-04-11T08:28:25.999Z</time></trkpt><trkpt lat="44.71516380131036" lon="7.886593323541615"><ele>320.5</ele><time>2026-04-11T08:28:26.999Z</time></trkpt><trkpt lat="44.71503991429248" lon="7.886614154740438"><ele>317.0</ele><time>2026-04-11T08:28:27.999Z</time></trkpt><trkpt lat="44.71491203897849" lon="7.886642456478096"><ele>313.5</ele><time>2026-04-11T08:28:28.999Z</time></trkpt><trkpt lat="44.7147837347418" lon="7.886668602784171"><ele>310.0</ele><time>2026-04-11T08:28:29.999Z</time></trkpt><trkpt lat="44.714660608524724" lon="7.886682505926156"><ele>310.0</ele><time>2026-04-11T08:28:30.999Z</time></trkpt><trkpt lat="44.71453241420138" lon="7.8867054424343745"><ele>310.0</ele><time>2026-04-11T08:28:31.999Z</time></trkpt><trkpt lat="44.714406015750505" lon="7.886731971908684"><ele>310.0</ele><time>2026-04-11T08:28:32.999Z</time></trkpt><trkpt lat="44.7142805132686" lon="7.886782798990424"><ele>310.0</ele><time>2026-04-11T08:28:33.999Z</time></trkpt><trkpt lat="44.714182271997046" lon="7.886906972357792"><ele>308.75</ele><time>2026-04-11T08:28:34.999Z</time></trkpt><trkpt lat="44.71410029736553" lon="7.887061797704687"><ele>307.5</ele><time>2026-04-11T08:28:35.999Z</time></trkpt><trkpt lat="44.714020668976346" lon="7.887217380683793"><ele>306.25</ele><time>2026-04-11T08:28:36.999Z</time></trkpt><trkpt lat="44.71396112090189" lon="7.88735678198113"><ele>305.0</ele><time>2026-04-11T08:28:37.999Z</time></trkpt><trkpt lat="44.71389951209513" lon="7.887468433324436"><ele>305.0</ele><time>2026-04-11T08:28:38.999Z</time></trkpt><trkpt lat="44.71384218909747" lon="7.887526226707007"><ele>305.0</ele><time>2026-04-11T08:28:39.999Z</time></trkpt><trkpt lat="44.7137779411495" lon="7.887539965566974"><ele>305.0</ele><time>2026-04-11T08:28:40.999Z</time></trkpt><trkpt lat="44.71371545890145" lon="7.887472430745147"><ele>305.0</ele><time>2026-04-11T08:28:50.999Z</time></trkpt><trkpt lat="44.71363902566848" lon="7.887553896552949"><ele>305.0</ele><time>2026-04-11T08:28:53.999Z</time></trkpt><trkpt lat="44.71360973374413" lon="7.8876530573452435"><ele>305.0</ele><time>2026-04-11T08:28:55.999Z</time></trkpt><trkpt lat="44.713571137944015" lon="7.887732632808642"><ele>303.33333333333337</ele><time>2026-04-11T08:28:57.999Z</time></trkpt><trkpt lat="44.71353574986878" lon="7.8878244260987165"><ele>301.6666666666667</ele><time>2026-04-11T08:28:59.999Z</time></trkpt><trkpt lat="44.71348957733496" lon="7.887918539580122"><ele>300.0</ele><time>2026-04-11T08:29:02.999Z</time></trkpt><trkpt lat="44.71344226285332" lon="7.888012086114213"><ele>298.3333333333333</ele><time>2026-04-11T08:29:05.999Z</time></trkpt><trkpt lat="44.71343287539968" lon="7.888103586869772"><ele>296.66666666666663</ele><time>2026-04-11T08:29:08.999Z</time></trkpt><trkpt lat="44.71349034700153" lon="7.8880564928392545"><ele>295.0</ele><time>2026-04-11T08:29:10.999Z</time></trkpt><trkpt lat="44.71352840557762" lon="7.887936543965335"><ele>295.0</ele><time>2026-04-11T08:29:12.999Z</time></trkpt><trkpt lat="44.713568899990044" lon="7.887831628665502"><ele>295.0</ele><time>2026-04-11T08:29:14.999Z</time></trkpt><trkpt lat="44.71350377082761" lon="7.887789756543811"><ele>295.0</ele><time>2026-04-11T08:29:16.999Z</time></trkpt><trkpt lat="44.713446695969836" lon="7.887889989279736"><ele>295.0</ele><time>2026-04-11T08:29:18.999Z</time></trkpt><trkpt lat="44.713376562349794" lon="7.888014489910876"><ele>295.0</ele><time>2026-04-11T08:29:20.999Z</time></trkpt><trkpt lat="44.713335295758604" lon="7.888087406836116"><ele>295.0</ele><time>2026-04-11T08:29:21.999Z</time></trkpt><trkpt lat="44.71328944240666" lon="7.888169774615456"><ele>295.0</ele><time>2026-04-11T08:29:22.999Z</time></trkpt><trkpt lat="44.71324428777721" lon="7.888260745914423"><ele>295.0</ele><time>2026-04-11T08:29:23.999Z</time></trkpt><trkpt lat="44.71319294321166" lon="7.888357463850632"><ele>295.0</ele><time>2026-04-11T08:29:24.999Z</time></trkpt><trkpt lat="44.7131337986174" lon="7.8884548407061095"><ele>295.0</ele><time>2026-04-11T08:29:25.999Z</time></trkpt><trkpt lat="44.713062729513425" lon="7.888542016234451"><ele>295.0</ele><time>2026-04-11T08:29:26.999Z</time></trkpt><trkpt lat="44.712969984539825" lon="7.888611151818195"><ele>295.0</ele><time>2026-04-11T08:29:27.999Z</time></trkpt><trkpt lat="44.712875782610425" lon="7.888689537066052"><ele>295.0</ele><time>2026-04-11T08:29:28.999Z</time></trkpt><trkpt lat="44.71278201450472" lon="7.888786943328293"><ele>295.0</ele><time>2026-04-11T08:29:29.999Z</time></trkpt><trkpt lat="44.71267832772091" lon="7.8888777996295945"><ele>295.0</ele><time>2026-04-11T08:29:30.999Z</time></trkpt><trkpt lat="44.7125635976809" lon="7.888959444470502"><ele>291.0</ele><time>2026-04-11T08:29:31.999Z</time></trkpt><trkpt lat="44.712435714299055" lon="7.889017239736148"><ele>287.0</ele><time>2026-04-11T08:29:32.999Z</time></trkpt><trkpt lat="44.71229235348352" lon="7.889045134119284"><ele>283.0</ele><time>2026-04-11T08:29:33.999Z</time></trkpt><trkpt lat="44.71214709058672" lon="7.889083079617679"><ele>279.0</ele><time>2026-04-11T08:29:34.999Z</time></trkpt><trkpt lat="44.71199686746768" lon="7.889129808716434"><ele>274.3333333333333</ele><time>2026-04-11T08:29:35.999Z</time></trkpt><trkpt lat="44.71184161778096" lon="7.889174963694251"><ele>269.66666666666663</ele><time>2026-04-11T08:29:36.999Z</time></trkpt><trkpt lat="44.711683570890415" lon="7.889221381403648"><ele>265.0</ele><time>2026-04-11T08:29:37.999Z</time></trkpt><trkpt lat="44.71151935045727" lon="7.889271311512189"><ele>265.0</ele><time>2026-04-11T08:29:38.999Z</time></trkpt><trkpt lat="44.71135132704203" lon="7.889318339808975"><ele>265.0</ele><time>2026-04-11T08:29:39.999Z</time></trkpt><trkpt lat="44.71118223701974" lon="7.88936444636201"><ele>265.0</ele><time>2026-04-11T08:29:40.999Z</time></trkpt><trkpt lat="44.711017803175594" lon="7.889418359789516"><ele>262.0</ele><time>2026-04-11T08:29:41.999Z</time></trkpt><trkpt lat="44.71085552555799" lon="7.889495643726185"><ele>259.0</ele><time>2026-04-11T08:29:42.999Z</time></trkpt><trkpt lat="44.71069465708251" lon="7.889587900649364"><ele>256.0</ele><time>2026-04-11T08:29:43.999Z</time></trkpt><trkpt lat="44.71053689640713" lon="7.889679169603253"><ele>256.0</ele><time>2026-04-11T08:29:44.999Z</time></trkpt><trkpt lat="44.71036940517172" lon="7.889736461862263"><ele>256.0</ele><time>2026-04-11T08:29:45.999Z</time></trkpt><trkpt lat="44.71019569696446" lon="7.889733158789675"><ele>256.0</ele><time>2026-04-11T08:29:46.999Z</time></trkpt><trkpt lat="44.71002378286724" lon="7.889705734932847"><ele>254.0</ele><time>2026-04-11T08:29:47.999Z</time></trkpt><trkpt lat="44.709857227306024" lon="7.8896752224680196"><ele>252.0</ele><time>2026-04-11T08:29:48.999Z</time></trkpt><trkpt lat="44.70969069874224" lon="7.889657451381709"><ele>250.0</ele><time>2026-04-11T08:29:49.999Z</time></trkpt><trkpt lat="44.709520668603105" lon="7.889643107517129"><ele>248.33333333333331</ele><time>2026-04-11T08:29:50.999Z</time></trkpt><trkpt lat="44.70935103106554" lon="7.889633815793757"><ele>246.66666666666669</ele><time>2026-04-11T08:29:51.999Z</time></trkpt><trkpt lat="44.709181568802045" lon="7.889624476641486"><ele>245.0</ele><time>2026-04-11T08:29:52.999Z</time></trkpt><trkpt lat="44.709017794852564" lon="7.889605588577795"><ele>245.0</ele><time>2026-04-11T08:29:53.999Z</time></trkpt><trkpt lat="44.70885798772572" lon="7.889578272973463"><ele>245.0</ele><time>2026-04-11T08:29:54.999Z</time></trkpt><trkpt lat="44.70869920940873" lon="7.889547553576395"><ele>245.0</ele><time>2026-04-11T08:29:55.999Z</time></trkpt><trkpt lat="44.708545707728724" lon="7.889517972002002"><ele>244.0</ele><time>2026-04-11T08:29:56.999Z</time></trkpt><trkpt lat="44.708395075248" lon="7.8894917123800345"><ele>243.0</ele><time>2026-04-11T08:29:57.999Z</time></trkpt><trkpt lat="44.70824518110255" lon="7.889471518443864"><ele>242.0</ele><time>2026-04-11T08:29:58.999Z</time></trkpt><trkpt lat="44.708100447283734" lon="7.889448044805522"><ele>241.0</ele><time>2026-04-11T08:29:59.999Z</time></trkpt><trkpt lat="44.70795978019454" lon="7.889420865149405"><ele>241.0</ele><time>2026-04-11T08:30:00.999Z</time></trkpt><trkpt lat="44.70782511282213" lon="7.8893915853506655"><ele>241.0</ele><time>2026-04-11T08:30:01.999Z</time></trkpt><trkpt lat="44.707692942602385" lon="7.889360955972874"><ele>241.0</ele><time>2026-04-11T08:30:02.999Z</time></trkpt><trkpt lat="44.70756416958435" lon="7.889336451212803"><ele>241.0</ele><time>2026-04-11T08:30:03.999Z</time></trkpt><trkpt lat="44.707433898321206" lon="7.889316351035477"><ele>241.5</ele><time>2026-04-11T08:30:04.999Z</time></trkpt><trkpt lat="44.7073100869683" lon="7.889291623129299"><ele>242.0</ele><time>2026-04-11T08:30:05.999Z</time></trkpt><trkpt lat="44.707188518478326" lon="7.889259480733002"><ele>242.5</ele><time>2026-04-11T08:30:06.999Z</time></trkpt><trkpt lat="44.707065965053" lon="7.889225641140301"><ele>243.0</ele><time>2026-04-11T08:30:07.999Z</time></trkpt><trkpt lat="44.70694302851605" lon="7.8892014986745265"><ele>241.0</ele><time>2026-04-11T08:30:08.999Z</time></trkpt><trkpt lat="44.70681718143339" lon="7.889174188588612"><ele>239.0</ele><time>2026-04-11T08:30:09.999Z</time></trkpt><trkpt lat="44.70669109666593" lon="7.88914852365609"><ele>237.0</ele><time>2026-04-11T08:30:10.999Z</time></trkpt><trkpt lat="44.70656480961459" lon="7.889125861522877"><ele>235.0</ele><time>2026-04-11T08:30:11.999Z</time></trkpt><trkpt lat="44.706439492344195" lon="7.889108458450533"><ele>235.0</ele><time>2026-04-11T08:30:12.999Z</time></trkpt><trkpt lat="44.70631617994985" lon="7.889102411798774"><ele>235.0</ele><time>2026-04-11T08:30:13.999Z</time></trkpt><trkpt lat="44.70619583035776" lon="7.889113354753581"><ele>235.0</ele><time>2026-04-11T08:30:14.999Z</time></trkpt><trkpt lat="44.70608196967558" lon="7.889147515485106"><ele>235.0</ele><time>2026-04-11T08:30:15.999Z</time></trkpt><trkpt lat="44.705973281506914" lon="7.8891864642089375"><ele>234.6</ele><time>2026-04-11T08:30:16.999Z</time></trkpt><trkpt lat="44.70586451829897" lon="7.889217034445661"><ele>234.2</ele><time>2026-04-11T08:30:17.999Z</time></trkpt><trkpt lat="44.70575789796971" lon="7.889245853416443"><ele>233.8</ele><time>2026-04-11T08:30:18.999Z</time></trkpt><trkpt lat="44.70564903742303" lon="7.889268283856527"><ele>233.4</ele><time>2026-04-11T08:30:19.999Z</time></trkpt><trkpt lat="44.705539561327356" lon="7.889292343407654"><ele>233.0</ele><time>2026-04-11T08:30:20.999Z</time></trkpt><trkpt lat="44.70542915861381" lon="7.889316948722431"><ele>234.25</ele><time>2026-04-11T08:30:21.999Z</time></trkpt><trkpt lat="44.70531675745896" lon="7.889340267848249"><ele>235.5</ele><time>2026-04-11T08:30:22.999Z</time></trkpt><trkpt lat="44.70520441915868" lon="7.88936758553625"><ele>236.75</ele><time>2026-04-11T08:30:23.999Z</time></trkpt><trkpt lat="44.70509074559032" lon="7.889394784509372"><ele>238.0</ele><time>2026-04-11T08:30:24.999Z</time></trkpt><trkpt lat="44.704977956034746" lon="7.889415932507642"><ele>238.0</ele><time>2026-04-11T08:30:25.999Z</time></trkpt><trkpt lat="44.704862776843626" lon="7.889428706991015"><ele>238.0</ele><time>2026-04-11T08:30:26.999Z</time></trkpt><trkpt lat="44.70474727149627" lon="7.889436619689838"><ele>238.0</ele><time>2026-04-11T08:30:27.999Z</time></trkpt><trkpt lat="44.70463416796277" lon="7.889446319942569"><ele>238.0</ele><time>2026-04-11T08:30:28.999Z</time></trkpt><trkpt lat="44.70452502518614" lon="7.88945450910292"><ele>236.0</ele><time>2026-04-11T08:30:29.999Z</time></trkpt><trkpt lat="44.704403733204316" lon="7.8894688194368054"><ele>234.0</ele><time>2026-04-11T08:30:30.999Z</time></trkpt><trkpt lat="44.70428289577796" lon="7.88949698415006"><ele>232.0</ele><time>2026-04-11T08:30:31.999Z</time></trkpt><trkpt lat="44.70416342968777" lon="7.889502855709357"><ele>230.0</ele><time>2026-04-11T08:30:32.999Z</time></trkpt><trkpt lat="44.7040444416312" lon="7.889519133183287"><ele>230.0</ele><time>2026-04-11T08:30:34Z</time></trkpt><trkpt lat="44.70392656550761" lon="7.889546266258864"><ele>230.0</ele><time>2026-04-11T08:30:35Z</time></trkpt><trkpt lat="44.703811491075356" lon="7.889537323312736"><ele>230.0</ele><time>2026-04-11T08:30:36Z</time></trkpt><trkpt lat="44.703698385128135" lon="7.889529277540822"><ele>230.0</ele><time>2026-04-11T08:30:37Z</time></trkpt><trkpt lat="44.703588767822474" lon="7.889538859084355"><ele>229.0</ele><time>2026-04-11T08:30:38Z</time></trkpt><trkpt lat="44.70347948042241" lon="7.889567830286382"><ele>228.0</ele><time>2026-04-11T08:30:39Z</time></trkpt><trkpt lat="44.70337340962868" lon="7.889587176852352"><ele>227.0</ele><time>2026-04-11T08:30:40Z</time></trkpt><trkpt lat="44.703264446449104" lon="7.889601433462419"><ele>226.0</ele><time>2026-04-11T08:30:41Z</time></trkpt><trkpt lat="44.70315756278299" lon="7.889617121511767"><ele>225.0</ele><time>2026-04-11T08:30:42Z</time></trkpt><trkpt lat="44.703054860961814" lon="7.889631440489519"><ele>225.0</ele><time>2026-04-11T08:30:43Z</time></trkpt><trkpt lat="44.70295170560825" lon="7.889648377700309"><ele>225.0</ele><time>2026-04-11T08:30:44Z</time></trkpt><trkpt lat="44.702850740968" lon="7.889665745827882"><ele>225.0</ele><time>2026-04-11T08:30:45Z</time></trkpt><trkpt lat="44.70275547944379" lon="7.889671991492393"><ele>225.0</ele><time>2026-04-11T08:30:46Z</time></trkpt><trkpt lat="44.70265767411336" lon="7.889671042737187"><ele>225.0</ele><time>2026-04-11T08:30:47Z</time></trkpt><trkpt lat="44.70256224971896" lon="7.88966694518961"><ele>225.0</ele><time>2026-04-11T08:30:48Z</time></trkpt><trkpt lat="44.702472933842884" lon="7.889630248572209"><ele>225.0</ele><time>2026-04-11T08:30:49Z</time></trkpt><trkpt lat="44.702392866732914" lon="7.889643302841787"><ele>225.0</ele><time>2026-04-11T08:30:50Z</time></trkpt><trkpt lat="44.702335155524814" lon="7.889470954483943"><ele>225.0</ele><time>2026-04-11T08:30:51Z</time></trkpt><trkpt lat="44.70228901887026" lon="7.88935827932499"><ele>225.0</ele><time>2026-04-11T08:30:52Z</time></trkpt><trkpt lat="44.70225528943854" lon="7.889238021798518"><ele>225.0</ele><time>2026-04-11T08:30:53Z</time></trkpt><trkpt lat="44.70221136266918" lon="7.889129496182211"><ele>225.0</ele><time>2026-04-11T08:30:54Z</time></trkpt><trkpt lat="44.70216566640682" lon="7.889021116889458"><ele>225.0</ele><time>2026-04-11T08:30:55Z</time></trkpt><trkpt lat="44.70212323752496" lon="7.888907757106143"><ele>225.0</ele><time>2026-04-11T08:30:56Z</time></trkpt><trkpt lat="44.7020862113824" lon="7.888793785504122"><ele>225.0</ele><time>2026-04-11T08:30:57Z</time></trkpt><trkpt lat="44.7020509799579" lon="7.888678165653292"><ele>225.0</ele><time>2026-04-11T08:30:58Z</time></trkpt><trkpt lat="44.70201444525677" lon="7.888563865403741"><ele>225.0</ele><time>2026-04-11T08:30:59Z</time></trkpt><trkpt lat="44.70197428104905" lon="7.88845174816274"><ele>225.0</ele><time>2026-04-11T08:31:00Z</time></trkpt><trkpt lat="44.70194168242839" lon="7.8883393224794265"><ele>225.0</ele><time>2026-04-11T08:31:01Z</time></trkpt><trkpt lat="44.70191118218324" lon="7.888230962784619"><ele>225.0</ele><time>2026-04-11T08:31:01.999Z</time></trkpt><trkpt lat="44.70187922268007" lon="7.888124858508697"><ele>225.0</ele><time>2026-04-11T08:31:02.999Z</time></trkpt><trkpt lat="44.701845222357804" lon="7.8880213639789085"><ele>225.0</ele><time>2026-04-11T08:31:03.999Z</time></trkpt><trkpt lat="44.70180976721858" lon="7.887921332256895"><ele>224.66666666666666</ele><time>2026-04-11T08:31:04.999Z</time></trkpt><trkpt lat="44.70177583730225" lon="7.8878225080507125"><ele>224.33333333333331</ele><time>2026-04-11T08:31:05.999Z</time></trkpt><trkpt lat="44.701743122069374" lon="7.887723158232883"><ele>224.0</ele><time>2026-04-11T08:31:06.999Z</time></trkpt><trkpt lat="44.70170571496224" lon="7.887629981746804"><ele>223.66666666666666</ele><time>2026-04-11T08:31:07.999Z</time></trkpt><trkpt lat="44.70165848198047" lon="7.8875429675306"><ele>223.33333333333331</ele><time>2026-04-11T08:31:08.999Z</time></trkpt><trkpt lat="44.70160553589172" lon="7.887469793522762"><ele>223.0</ele><time>2026-04-11T08:31:09.999Z</time></trkpt><trkpt lat="44.70155488335464" lon="7.8873896295599275"><ele>222.99999999999997</ele><time>2026-04-11T08:31:10.999Z</time></trkpt><trkpt lat="44.701511013642" lon="7.887305885325573"><ele>223.0</ele><time>2026-04-11T08:31:11.999Z</time></trkpt><trkpt lat="44.701465885217736" lon="7.88722265771201"><ele>223.0</ele><time>2026-04-11T08:31:12.999Z</time></trkpt><trkpt lat="44.70142007048336" lon="7.88713404028351"><ele>223.0</ele><time>2026-04-11T08:31:13.999Z</time></trkpt><trkpt lat="44.701374687624295" lon="7.887049958084713"><ele>222.99999999999997</ele><time>2026-04-11T08:31:14.999Z</time></trkpt><trkpt lat="44.701326840691145" lon="7.8869623121867605"><ele>223.0</ele><time>2026-04-11T08:31:15.999Z</time></trkpt><trkpt lat="44.70128116016992" lon="7.886877159748334"><ele>223.0</ele><time>2026-04-11T08:31:16.999Z</time></trkpt><trkpt lat="44.70123268250618" lon="7.886797611910262"><ele>223.0</ele><time>2026-04-11T08:31:17.999Z</time></trkpt><trkpt lat="44.701184640154175" lon="7.886725011299098"><ele>223.0</ele><time>2026-04-11T08:31:18.999Z</time></trkpt><trkpt lat="44.7011354228907" lon="7.886645667271271"><ele>223.0</ele><time>2026-04-11T08:31:19.999Z</time></trkpt><trkpt lat="44.7010885846885" lon="7.886568170878721"><ele>223.0</ele><time>2026-04-11T08:31:20.999Z</time></trkpt><trkpt lat="44.701042366861955" lon="7.886488899623554"><ele>223.0</ele><time>2026-04-11T08:31:21.999Z</time></trkpt><trkpt lat="44.70099720019659" lon="7.886413251616166"><ele>223.0</ele><time>2026-04-11T08:31:22.999Z</time></trkpt><trkpt lat="44.70095118863343" lon="7.886337466762215"><ele>223.0</ele><time>2026-04-11T08:31:23.999Z</time></trkpt><trkpt lat="44.70090297772848" lon="7.886264581711262"><ele>223.0</ele><time>2026-04-11T08:31:24.999Z</time></trkpt><trkpt lat="44.70085717244175" lon="7.886185787493476"><ele>223.0</ele><time>2026-04-11T08:31:25.999Z</time></trkpt><trkpt lat="44.700810616753515" lon="7.88611153899243"><ele>223.0</ele><time>2026-04-11T08:31:26.999Z</time></trkpt><trkpt lat="44.700761027503404" lon="7.8860413210115405"><ele>223.0</ele><time>2026-04-11T08:31:27.999Z</time></trkpt><trkpt lat="44.70070947704074" lon="7.885973750244975"><ele>223.0</ele><time>2026-04-11T08:31:28.999Z</time></trkpt><trkpt lat="44.7006567988485" lon="7.88590932619749"><ele>223.0</ele><time>2026-04-11T08:31:29.999Z</time></trkpt><trkpt lat="44.70060846667651" lon="7.885844197349442"><ele>222.99999999999997</ele><time>2026-04-11T08:31:30.999Z</time></trkpt><trkpt lat="44.70056415227594" lon="7.885777563495378"><ele>223.0</ele><time>2026-04-11T08:31:31.999Z</time></trkpt><trkpt lat="44.700518880298" lon="7.885711181875076"><ele>223.0</ele><time>2026-04-11T08:31:32.999Z</time></trkpt><trkpt lat="44.70041801151691" lon="7.885619228335406"><ele>223.0</ele><time>2026-04-11T08:31:34.999Z</time></trkpt><trkpt lat="44.70035095634141" lon="7.885661509185186"><ele>222.99999999999997</ele><time>2026-04-11T08:31:35.999Z</time></trkpt><trkpt lat="44.70029231988808" lon="7.885717510121331"><ele>223.0</ele><time>2026-04-11T08:31:36.999Z</time></trkpt><trkpt lat="44.70023956909112" lon="7.885769752758344"><ele>222.83333333333331</ele><time>2026-04-11T08:31:37.999Z</time></trkpt><trkpt lat="44.70016470806452" lon="7.8857602985195845"><ele>222.66666666666666</ele><time>2026-04-11T08:31:38.999Z</time></trkpt><trkpt lat="44.700089930831254" lon="7.885750609598458"><ele>222.5</ele><time>2026-04-11T08:31:39.999Z</time></trkpt><trkpt lat="44.70001716047353" lon="7.885767151459297"><ele>222.33333333333331</ele><time>2026-04-11T08:31:40.999Z</time></trkpt><trkpt lat="44.69993822344516" lon="7.885812350961213"><ele>222.16666666666666</ele><time>2026-04-11T08:31:41.999Z</time></trkpt><trkpt lat="44.699868483709736" lon="7.885843216720642"><ele>222.0</ele><time>2026-04-11T08:31:42.999Z</time></trkpt><trkpt lat="44.69980544057242" lon="7.885880592945766"><ele>222.0</ele><time>2026-04-11T08:31:43.999Z</time></trkpt><trkpt lat="44.69973979160366" lon="7.885920887822603"><ele>222.0</ele><time>2026-04-11T08:31:44.999Z</time></trkpt><trkpt lat="44.699672630419634" lon="7.885963094499105"><ele>222.0</ele><time>2026-04-11T08:31:45.999Z</time></trkpt><trkpt lat="44.69960423598455" lon="7.886001117915604"><ele>222.0</ele><time>2026-04-11T08:31:46.999Z</time></trkpt><trkpt lat="44.69954075910581" lon="7.88604107028043"><ele>222.0</ele><time>2026-04-11T08:31:47.999Z</time></trkpt><trkpt lat="44.699474106082945" lon="7.886082027261633"><ele>222.0</ele><time>2026-04-11T08:31:48.999Z</time></trkpt><trkpt lat="44.69940906477044" lon="7.886124719777425"><ele>222.0</ele><time>2026-04-11T08:31:49.999Z</time></trkpt><trkpt lat="44.69934281053455" lon="7.886163761765872"><ele>221.7142857142857</ele><time>2026-04-11T08:31:50.999Z</time></trkpt><trkpt lat="44.699277782131475" lon="7.886207142090586"><ele>221.42857142857144</ele><time>2026-04-11T08:31:51.999Z</time></trkpt><trkpt lat="44.69921271571999" lon="7.886252626882259"><ele>221.14285714285714</ele><time>2026-04-11T08:31:52.999Z</time></trkpt><trkpt lat="44.69913905496984" lon="7.8862752468204835"><ele>220.85714285714283</ele><time>2026-04-11T08:31:53.999Z</time></trkpt><trkpt lat="44.69907909374645" lon="7.886337559651488"><ele>220.57142857142856</ele><time>2026-04-11T08:31:54.999Z</time></trkpt><trkpt lat="44.69901040180758" lon="7.886378404821957"><ele>220.28571428571428</ele><time>2026-04-11T08:31:55.999Z</time></trkpt><trkpt lat="44.69894314242555" lon="7.886417920240148"><ele>220.0</ele><time>2026-04-11T08:31:56.999Z</time></trkpt><trkpt lat="44.69887642444671" lon="7.8864611706203185"><ele>219.99999999999997</ele><time>2026-04-11T08:31:57.999Z</time></trkpt><trkpt lat="44.698809983869694" lon="7.886508172010838"><ele>220.0</ele><time>2026-04-11T08:31:58.999Z</time></trkpt><trkpt lat="44.69874445015207" lon="7.886556850235514"><ele>220.0</ele><time>2026-04-11T08:31:59.999Z</time></trkpt><trkpt lat="44.69867974948636" lon="7.8866046349593395"><ele>220.0</ele><time>2026-04-11T08:32:00.999Z</time></trkpt><trkpt lat="44.69861470047464" lon="7.886654829219967"><ele>220.0</ele><time>2026-04-11T08:32:01.999Z</time></trkpt><trkpt lat="44.69854824898784" lon="7.886702484309979"><ele>219.99999999999997</ele><time>2026-04-11T08:32:02.999Z</time></trkpt><trkpt lat="44.69847947466098" lon="7.886747441349022"><ele>220.0</ele><time>2026-04-11T08:32:03.999Z</time></trkpt><trkpt lat="44.69840920534891" lon="7.886790753003084"><ele>219.66666666666666</ele><time>2026-04-11T08:32:04.999Z</time></trkpt><trkpt lat="44.69834023657796" lon="7.886832652847892"><ele>219.33333333333331</ele><time>2026-04-11T08:32:05.999Z</time></trkpt><trkpt lat="44.698269386351065" lon="7.886870756310933"><ele>219.0</ele><time>2026-04-11T08:32:06.999Z</time></trkpt><trkpt lat="44.69819471419516" lon="7.8869013199940055"><ele>218.66666666666669</ele><time>2026-04-11T08:32:07.999Z</time></trkpt><trkpt lat="44.69812221679738" lon="7.886930237031283"><ele>218.33333333333334</ele><time>2026-04-11T08:32:09Z</time></trkpt><trkpt lat="44.69804982554732" lon="7.886962079944908"><ele>218.0</ele><time>2026-04-11T08:32:10Z</time></trkpt><trkpt lat="44.69797936741579" lon="7.886985544531146"><ele>218.0</ele><time>2026-04-11T08:32:11Z</time></trkpt><trkpt lat="44.6979067220022" lon="7.887013898349398"><ele>218.0</ele><time>2026-04-11T08:32:12Z</time></trkpt><trkpt lat="44.697844343372935" lon="7.887039098977924"><ele>218.0</ele><time>2026-04-11T08:32:13Z</time></trkpt><trkpt lat="44.697774828378286" lon="7.887068859089279"><ele>218.0</ele><time>2026-04-11T08:32:14Z</time></trkpt><trkpt lat="44.69769345263481" lon="7.887092330577447"><ele>218.0</ele><time>2026-04-11T08:32:15Z</time></trkpt><trkpt lat="44.69761979703068" lon="7.88712115715716"><ele>218.0</ele><time>2026-04-11T08:32:16Z</time></trkpt><trkpt lat="44.69755077733072" lon="7.88714932988639"><ele>218.0</ele><time>2026-04-11T08:32:17Z</time></trkpt><trkpt lat="44.697483689173005" lon="7.8871836739990355"><ele>218.16666666666669</ele><time>2026-04-11T08:32:18Z</time></trkpt><trkpt lat="44.69738426259054" lon="7.887220097846441"><ele>218.33333333333334</ele><time>2026-04-11T08:32:20Z</time></trkpt><trkpt lat="44.697325568233914" lon="7.887168786281931"><ele>218.5</ele><time>2026-04-11T08:32:32Z</time></trkpt><trkpt lat="44.69722381185567" lon="7.887175189233325"><ele>218.66666666666669</ele><time>2026-04-11T08:32:35Z</time></trkpt><trkpt lat="44.697117842639486" lon="7.887205418566473"><ele>218.83333333333334</ele><time>2026-04-11T08:32:37Z</time></trkpt><trkpt lat="44.69706210686539" lon="7.887252639022174"><ele>219.0</ele><time>2026-04-11T08:32:38Z</time></trkpt><trkpt lat="44.69700830391466" lon="7.887305372416821"><ele>219.0</ele><time>2026-04-11T08:32:39Z</time></trkpt><trkpt lat="44.696952045742464" lon="7.887348886608272"><ele>219.0</ele><time>2026-04-11T08:32:40.001Z</time></trkpt><trkpt lat="44.6968926356127" lon="7.887397807929769"><ele>219.0</ele><time>2026-04-11T08:32:41.001Z</time></trkpt><trkpt lat="44.69683033486181" lon="7.887449491609148"><ele>219.0</ele><time>2026-04-11T08:32:42.001Z</time></trkpt><trkpt lat="44.6967654615339" lon="7.887502446619973"><ele>219.0</ele><time>2026-04-11T08:32:43.001Z</time></trkpt><trkpt lat="44.69670047074062" lon="7.887553055125875"><ele>219.0</ele><time>2026-04-11T08:32:44.001Z</time></trkpt><trkpt lat="44.69663492495627" lon="7.887606240912309"><ele>219.0</ele><time>2026-04-11T08:32:45.001Z</time></trkpt><trkpt lat="44.69657143173495" lon="7.8876670008155605"><ele>218.66666666666666</ele><time>2026-04-11T08:32:46.001Z</time></trkpt><trkpt lat="44.696504857879475" lon="7.887723834889685"><ele>218.33333333333331</ele><time>2026-04-11T08:32:47.001Z</time></trkpt><trkpt lat="44.69643800657875" lon="7.887779368288384"><ele>218.0</ele><time>2026-04-11T08:32:48.001Z</time></trkpt><trkpt lat="44.69637212821387" lon="7.887835439195513"><ele>217.66666666666666</ele><time>2026-04-11T08:32:49.001Z</time></trkpt><trkpt lat="44.696305003167396" lon="7.887895394533978"><ele>217.33333333333331</ele><time>2026-04-11T08:32:50.001Z</time></trkpt><trkpt lat="44.69623606281705" lon="7.887950707348619"><ele>217.0</ele><time>2026-04-11T08:32:51.001Z</time></trkpt><trkpt lat="44.696155872955224" lon="7.887968208040623"><ele>216.83333333333331</ele><time>2026-04-11T08:32:52.001Z</time></trkpt><trkpt lat="44.69607308225582" lon="7.8879610735779835"><ele>216.66666666666666</ele><time>2026-04-11T08:32:53.001Z</time></trkpt><trkpt lat="44.6959914760497" lon="7.887973340571477"><ele>216.5</ele><time>2026-04-11T08:32:54.001Z</time></trkpt><trkpt lat="44.6959100259225" lon="7.8879989255849425"><ele>216.33333333333331</ele><time>2026-04-11T08:32:55.001Z</time></trkpt><trkpt lat="44.695826593631445" lon="7.8880244773604264"><ele>216.16666666666666</ele><time>2026-04-11T08:32:56.001Z</time></trkpt><trkpt lat="44.69574529922696" lon="7.888049080899653"><ele>216.0</ele><time>2026-04-11T08:32:57.001Z</time></trkpt><trkpt lat="44.695662025554206" lon="7.8880816240428"><ele>216.0</ele><time>2026-04-11T08:32:58.001Z</time></trkpt><trkpt lat="44.69558071247105" lon="7.888119156067761"><ele>216.0</ele><time>2026-04-11T08:32:59.001Z</time></trkpt><trkpt lat="44.6954972871383" lon="7.888153561669882"><ele>216.0</ele><time>2026-04-11T08:33:00.001Z</time></trkpt><trkpt lat="44.69541289167136" lon="7.888191147300895"><ele>216.0</ele><time>2026-04-11T08:33:01.001Z</time></trkpt><trkpt lat="44.695327404330754" lon="7.888227773186958"><ele>216.0</ele><time>2026-04-11T08:33:02.001Z</time></trkpt><trkpt lat="44.695240165256514" lon="7.888264913652183"><ele>216.0</ele><time>2026-04-11T08:33:03.001Z</time></trkpt><trkpt lat="44.69515625128929" lon="7.888302975308885"><ele>215.66666666666666</ele><time>2026-04-11T08:33:04.001Z</time></trkpt><trkpt lat="44.69506932626289" lon="7.888331952069259"><ele>215.33333333333331</ele><time>2026-04-11T08:33:05.001Z</time></trkpt><trkpt lat="44.69498196767883" lon="7.888357235044599"><ele>215.0</ele><time>2026-04-11T08:33:06.001Z</time></trkpt><trkpt lat="44.69489444349223" lon="7.888381806016835"><ele>214.66666666666666</ele><time>2026-04-11T08:33:07Z</time></trkpt><trkpt lat="44.6948104066559" lon="7.888408599486415"><ele>214.33333333333331</ele><time>2026-04-11T08:33:08Z</time></trkpt><trkpt lat="44.694726309449315" lon="7.888441179174406"><ele>214.0</ele><time>2026-04-11T08:33:09Z</time></trkpt><trkpt lat="44.69464375438623" lon="7.888468503859723"><ele>213.83333333333331</ele><time>2026-04-11T08:33:10Z</time></trkpt><trkpt lat="44.69455952827355" lon="7.888488643681418"><ele>213.66666666666666</ele><time>2026-04-11T08:33:11Z</time></trkpt><trkpt lat="44.694476459790714" lon="7.888510947039393"><ele>213.5</ele><time>2026-04-11T08:33:12Z</time></trkpt><trkpt lat="44.69438992544481" lon="7.888535829485752"><ele>213.33333333333331</ele><time>2026-04-11T08:33:13Z</time></trkpt><trkpt lat="44.694309788575055" lon="7.888568989413768"><ele>213.16666666666666</ele><time>2026-04-11T08:33:14Z</time></trkpt><trkpt lat="44.694229204870155" lon="7.88860430890383"><ele>213.0</ele><time>2026-04-11T08:33:15Z</time></trkpt><trkpt lat="44.69414965012736" lon="7.888652077300409"><ele>213.0</ele><time>2026-04-11T08:33:16Z</time></trkpt><trkpt lat="44.69407502404411" lon="7.888711864338235"><ele>213.0</ele><time>2026-04-11T08:33:17Z</time></trkpt><trkpt lat="44.69399825488985" lon="7.888767260529644"><ele>213.0</ele><time>2026-04-11T08:33:18Z</time></trkpt><trkpt lat="44.69392061458741" lon="7.888815645826357"><ele>213.0</ele><time>2026-04-11T08:33:19Z</time></trkpt><trkpt lat="44.6938470368032" lon="7.888869390849159"><ele>213.0</ele><time>2026-04-11T08:33:20Z</time></trkpt><trkpt lat="44.69376559394486" lon="7.8889325387951645"><ele>213.0</ele><time>2026-04-11T08:33:21Z</time></trkpt><trkpt lat="44.6936932512496" lon="7.889001967490571"><ele>213.0</ele><time>2026-04-11T08:33:22Z</time></trkpt><trkpt lat="44.69362809396827" lon="7.889084601447641"><ele>213.0</ele><time>2026-04-11T08:33:23Z</time></trkpt><trkpt lat="44.693556211780596" lon="7.889167637659471"><ele>213.0</ele><time>2026-04-11T08:33:24Z</time></trkpt><trkpt lat="44.69348103942426" lon="7.889237530636011"><ele>213.0</ele><time>2026-04-11T08:33:25Z</time></trkpt><trkpt lat="44.693407698713905" lon="7.889316382583978"><ele>213.0</ele><time>2026-04-11T08:33:26Z</time></trkpt><trkpt lat="44.69333263822883" lon="7.889392933468111"><ele>212.2</ele><time>2026-04-11T08:33:27Z</time></trkpt><trkpt lat="44.693257267364736" lon="7.889465252313963"><ele>211.4</ele><time>2026-04-11T08:33:28Z</time></trkpt><trkpt lat="44.693180884770705" lon="7.88953673664675"><ele>210.6</ele><time>2026-04-11T08:33:29Z</time></trkpt><trkpt lat="44.69310384278093" lon="7.88960859433002"><ele>209.79999999999998</ele><time>2026-04-11T08:33:30Z</time></trkpt><trkpt lat="44.69302858163535" lon="7.8896767714196505"><ele>209.0</ele><time>2026-04-11T08:33:31Z</time></trkpt><trkpt lat="44.69294839375341" lon="7.8897418629479805"><ele>209.0</ele><time>2026-04-11T08:33:32Z</time></trkpt><trkpt lat="44.69286854223296" lon="7.889808445393483"><ele>209.0</ele><time>2026-04-11T08:33:33Z</time></trkpt><trkpt lat="44.69278871318307" lon="7.8898773760699745"><ele>209.0</ele><time>2026-04-11T08:33:34Z</time></trkpt><trkpt lat="44.69271014346658" lon="7.889949979164937"><ele>209.0</ele><time>2026-04-11T08:33:35Z</time></trkpt><trkpt lat="44.69262928694988" lon="7.8900217612001"><ele>209.0</ele><time>2026-04-11T08:33:36Z</time></trkpt><trkpt lat="44.69255001202649" lon="7.890088523121681"><ele>209.0</ele><time>2026-04-11T08:33:37Z</time></trkpt><trkpt lat="44.69247045722384" lon="7.890157384018349"><ele>209.0</ele><time>2026-04-11T08:33:38Z</time></trkpt><trkpt lat="44.69239330149312" lon="7.890227058757249"><ele>209.0</ele><time>2026-04-11T08:33:39Z</time></trkpt><trkpt lat="44.69231348513706" lon="7.890297116873766"><ele>209.0</ele><time>2026-04-11T08:33:40Z</time></trkpt><trkpt lat="44.69223590444233" lon="7.890368213203238"><ele>209.0</ele><time>2026-04-11T08:33:41Z</time></trkpt><trkpt lat="44.69215748355663" lon="7.890436321288605"><ele>209.0</ele><time>2026-04-11T08:33:42Z</time></trkpt><trkpt lat="44.692078106248886" lon="7.890506120791832"><ele>209.0</ele><time>2026-04-11T08:33:43Z</time></trkpt><trkpt lat="44.69199715976146" lon="7.8905736965742586"><ele>209.0</ele><time>2026-04-11T08:33:44Z</time></trkpt><trkpt lat="44.691916950614825" lon="7.890642898626017"><ele>209.0</ele><time>2026-04-11T08:33:45Z</time></trkpt><trkpt lat="44.691838552821174" lon="7.890711818583076"><ele>209.0</ele><time>2026-04-11T08:33:46Z</time></trkpt><trkpt lat="44.691759672411465" lon="7.89077816910628"><ele>208.6</ele><time>2026-04-11T08:33:47Z</time></trkpt><trkpt lat="44.69168252808916" lon="7.890851213138963"><ele>208.2</ele><time>2026-04-11T08:33:48Z</time></trkpt><trkpt lat="44.691606410443576" lon="7.8909255818692055"><ele>207.79999999999998</ele><time>2026-04-11T08:33:49Z</time></trkpt><trkpt lat="44.69152238734526" lon="7.890980578465511"><ele>207.39999999999998</ele><time>2026-04-11T08:33:50Z</time></trkpt><trkpt lat="44.69145375573792" lon="7.89107073986447"><ele>207.0</ele><time>2026-04-11T08:33:51Z</time></trkpt><trkpt lat="44.691374168273214" lon="7.8911369518158185"><ele>207.0</ele><time>2026-04-11T08:33:52Z</time></trkpt><trkpt lat="44.69129588822015" lon="7.891204554154922"><ele>207.0</ele><time>2026-04-11T08:33:53Z</time></trkpt><trkpt lat="44.691222547031856" lon="7.891276095986942"><ele>207.0</ele><time>2026-04-11T08:33:54Z</time></trkpt><trkpt lat="44.691149604849315" lon="7.891348542270196"><ele>207.0</ele><time>2026-04-11T08:33:55Z</time></trkpt><trkpt lat="44.69107238724956" lon="7.891412950392089"><ele>207.0</ele><time>2026-04-11T08:33:56Z</time></trkpt><trkpt lat="44.69099476611707" lon="7.891469495139925"><ele>207.0</ele><time>2026-04-11T08:33:57Z</time></trkpt><trkpt lat="44.690910356687326" lon="7.891516301222574"><ele>207.0</ele><time>2026-04-11T08:33:58Z</time></trkpt><trkpt lat="44.69082334261004" lon="7.891545061174472"><ele>207.0</ele><time>2026-04-11T08:33:59Z</time></trkpt><trkpt lat="44.690735330271096" lon="7.891559760905283"><ele>207.0</ele><time>2026-04-11T08:34:00Z</time></trkpt><trkpt lat="44.69065007332539" lon="7.8915748116211315"><ele>207.0</ele><time>2026-04-11T08:34:01Z</time></trkpt><trkpt lat="44.690565988665995" lon="7.891587528545689"><ele>207.0</ele><time>2026-04-11T08:34:02Z</time></trkpt><trkpt lat="44.690483118583494" lon="7.891601956259593"><ele>207.0</ele><time>2026-04-11T08:34:03Z</time></trkpt><trkpt lat="44.69039700930973" lon="7.891616916616609"><ele>207.0</ele><time>2026-04-11T08:34:04Z</time></trkpt><trkpt lat="44.69031241326336" lon="7.8916385402179285"><ele>207.0</ele><time>2026-04-11T08:34:05Z</time></trkpt><trkpt lat="44.69022736475051" lon="7.891661785091559"><ele>207.0</ele><time>2026-04-11T08:34:06Z</time></trkpt><trkpt lat="44.69014173240193" lon="7.891688947543824"><ele>207.0</ele><time>2026-04-11T08:34:07Z</time></trkpt><trkpt lat="44.69005721209449" lon="7.89172256370551"><ele>207.0</ele><time>2026-04-11T08:34:08Z</time></trkpt><trkpt lat="44.689974811695336" lon="7.891757503315592"><ele>207.0</ele><time>2026-04-11T08:34:09Z</time></trkpt><trkpt lat="44.68988660992009" lon="7.8917855534320775"><ele>206.5</ele><time>2026-04-11T08:34:10Z</time></trkpt><trkpt lat="44.689800904534" lon="7.891812987218653"><ele>206.0</ele><time>2026-04-11T08:34:11Z</time></trkpt><trkpt lat="44.68971293201152" lon="7.891840106948546"><ele>205.5</ele><time>2026-04-11T08:34:12Z</time></trkpt><trkpt lat="44.68962703298189" lon="7.891865198984369"><ele>205.0</ele><time>2026-04-11T08:34:13Z</time></trkpt><trkpt lat="44.689537710758515" lon="7.89189234778044"><ele>204.5</ele><time>2026-04-11T08:34:14Z</time></trkpt><trkpt lat="44.68944880283457" lon="7.891916774604318"><ele>204.0</ele><time>2026-04-11T08:34:15Z</time></trkpt><trkpt lat="44.689360636640956" lon="7.891941600546502"><ele>203.79999999999998</ele><time>2026-04-11T08:34:16Z</time></trkpt><trkpt lat="44.689271262193614" lon="7.8919642609129"><ele>203.6</ele><time>2026-04-11T08:34:17Z</time></trkpt><trkpt lat="44.689182758591976" lon="7.891986150218082"><ele>203.4</ele><time>2026-04-11T08:34:18Z</time></trkpt><trkpt lat="44.689093405837625" lon="7.8920084973764"><ele>203.2</ele><time>2026-04-11T08:34:19Z</time></trkpt><trkpt lat="44.68900463053344" lon="7.892032614800367"><ele>203.0</ele><time>2026-04-11T08:34:20Z</time></trkpt><trkpt lat="44.68891695347391" lon="7.892057950386013"><ele>203.00000000000003</ele><time>2026-04-11T08:34:21Z</time></trkpt><trkpt lat="44.68882989222173" lon="7.892086105476258"><ele>203.0</ele><time>2026-04-11T08:34:22Z</time></trkpt><trkpt lat="44.68874190028832" lon="7.892114588648877"><ele>203.0</ele><time>2026-04-11T08:34:23Z</time></trkpt><trkpt lat="44.688655228491726" lon="7.89214356263989"><ele>203.0</ele><time>2026-04-11T08:34:24Z</time></trkpt><trkpt lat="44.68856810545152" lon="7.892171745973779"><ele>203.00000000000003</ele><time>2026-04-11T08:34:25Z</time></trkpt><trkpt lat="44.68848053051865" lon="7.892198663784377"><ele>203.0</ele><time>2026-04-11T08:34:26Z</time></trkpt><trkpt lat="44.68839236584983" lon="7.892217045486675"><ele>203.00000000000003</ele><time>2026-04-11T08:34:27Z</time></trkpt><trkpt lat="44.688304842124396" lon="7.892241215138808"><ele>203.0</ele><time>2026-04-11T08:34:28Z</time></trkpt><trkpt lat="44.68821920906462" lon="7.892270500647223"><ele>203.0</ele><time>2026-04-11T08:34:29Z</time></trkpt><trkpt lat="44.68813173776474" lon="7.892297297837475"><ele>203.0</ele><time>2026-04-11T08:34:30Z</time></trkpt><trkpt lat="44.68804448819009" lon="7.8923177268057545"><ele>203.00000000000003</ele><time>2026-04-11T08:34:31Z</time></trkpt><trkpt lat="44.6879602791144" lon="7.892342135128306"><ele>203.0</ele><time>2026-04-11T08:34:32Z</time></trkpt><trkpt lat="44.68787586051379" lon="7.892367493526852"><ele>203.00000000000003</ele><time>2026-04-11T08:34:33Z</time></trkpt><trkpt lat="44.68779330897115" lon="7.892391812388527"><ele>203.0</ele><time>2026-04-11T08:34:34Z</time></trkpt><trkpt lat="44.687708954166226" lon="7.892416905062249"><ele>203.0</ele><time>2026-04-11T08:34:35Z</time></trkpt><trkpt lat="44.687622924705636" lon="7.892446328539856"><ele>203.0</ele><time>2026-04-11T08:34:36Z</time></trkpt><trkpt lat="44.68753946486478" lon="7.892474725074016"><ele>203.00000000000003</ele><time>2026-04-11T08:34:37Z</time></trkpt><trkpt lat="44.6874534263902" lon="7.892497403979908"><ele>203.0</ele><time>2026-04-11T08:34:38Z</time></trkpt><trkpt lat="44.68737134796517" lon="7.892522686787189"><ele>203.00000000000003</ele><time>2026-04-11T08:34:39Z</time></trkpt><trkpt lat="44.68728532649724" lon="7.892547974334184"><ele>203.0</ele><time>2026-04-11T08:34:40Z</time></trkpt><trkpt lat="44.687201908851215" lon="7.892574133464688"><ele>203.0</ele><time>2026-04-11T08:34:41Z</time></trkpt><trkpt lat="44.687116623507954" lon="7.892604599884223"><ele>203.0</ele><time>2026-04-11T08:34:42Z</time></trkpt><trkpt lat="44.68703425740675" lon="7.892632119489102"><ele>203.00000000000003</ele><time>2026-04-11T08:34:43Z</time></trkpt><trkpt lat="44.686953001139564" lon="7.8926504240765585"><ele>203.0</ele><time>2026-04-11T08:34:44Z</time></trkpt><trkpt lat="44.686869995008365" lon="7.892677785436586"><ele>202.83333333333334</ele><time>2026-04-11T08:34:45Z</time></trkpt><trkpt lat="44.68678856824425" lon="7.892708692740829"><ele>202.66666666666669</ele><time>2026-04-11T08:34:46.001Z</time></trkpt><trkpt lat="44.686708611075865" lon="7.892735976329108"><ele>202.5</ele><time>2026-04-11T08:34:47.001Z</time></trkpt><trkpt lat="44.68662508092545" lon="7.892762324441129"><ele>202.33333333333331</ele><time>2026-04-11T08:34:48.001Z</time></trkpt><trkpt lat="44.686542418296526" lon="7.892784055493743"><ele>202.16666666666666</ele><time>2026-04-11T08:34:49.001Z</time></trkpt><trkpt lat="44.68646166135434" lon="7.892806546672155"><ele>202.0</ele><time>2026-04-11T08:34:50.001Z</time></trkpt><trkpt lat="44.68638279629647" lon="7.892827893474938"><ele>201.99999999999997</ele><time>2026-04-11T08:34:51.001Z</time></trkpt><trkpt lat="44.68630582807809" lon="7.89285526905006"><ele>202.0</ele><time>2026-04-11T08:34:52.001Z</time></trkpt><trkpt lat="44.68622643311818" lon="7.892884539069389"><ele>202.0</ele><time>2026-04-11T08:34:53.001Z</time></trkpt><trkpt lat="44.68614338705981" lon="7.892911119853884"><ele>202.0</ele><time>2026-04-11T08:34:54.001Z</time></trkpt><trkpt lat="44.68606191323003" lon="7.89293629113783"><ele>201.99999999999997</ele><time>2026-04-11T08:34:55.001Z</time></trkpt><trkpt lat="44.685983549348194" lon="7.892964817289657"><ele>202.0</ele><time>2026-04-11T08:34:56.001Z</time></trkpt><trkpt lat="44.68590740573296" lon="7.892996409890193"><ele>201.99999999999997</ele><time>2026-04-11T08:34:57.001Z</time></trkpt><trkpt lat="44.685830827570825" lon="7.89302870097911"><ele>202.0</ele><time>2026-04-11T08:34:58.001Z</time></trkpt><trkpt lat="44.685755730843134" lon="7.893057158234345"><ele>202.0</ele><time>2026-04-11T08:34:59.001Z</time></trkpt><trkpt lat="44.68567169571664" lon="7.893055158905895"><ele>202.0</ele><time>2026-04-11T08:35:00.001Z</time></trkpt><trkpt lat="44.68560477459405" lon="7.893086609321411"><ele>201.99999999999997</ele><time>2026-04-11T08:35:01.001Z</time></trkpt><trkpt lat="44.68550370989524" lon="7.893107376304051"><ele>202.0</ele><time>2026-04-11T08:35:03.001Z</time></trkpt><trkpt lat="44.68541427015419" lon="7.893121916774998"><ele>201.99999999999997</ele><time>2026-04-11T08:35:06.001Z</time></trkpt><trkpt lat="44.68528651327014" lon="7.8931705519935935"><ele>202.0</ele><time>2026-04-11T08:35:08Z</time></trkpt><trkpt lat="44.68522302959662" lon="7.893189971524443"><ele>202.0</ele><time>2026-04-11T08:35:09Z</time></trkpt><trkpt lat="44.68515467863428" lon="7.89321230229261"><ele>202.0</ele><time>2026-04-11T08:35:10Z</time></trkpt><trkpt lat="44.685087569019295" lon="7.893232305549812"><ele>201.99999999999997</ele><time>2026-04-11T08:35:11Z</time></trkpt><trkpt lat="44.68501859918181" lon="7.893253432208571"><ele>202.0</ele><time>2026-04-11T08:35:12Z</time></trkpt><trkpt lat="44.68495336525341" lon="7.893273147243488"><ele>202.0</ele><time>2026-04-11T08:35:13Z</time></trkpt><trkpt lat="44.68487939276176" lon="7.893295451383228"><ele>202.0</ele><time>2026-04-11T08:35:14Z</time></trkpt><trkpt lat="44.68480797560388" lon="7.893313155010862"><ele>202.0</ele><time>2026-04-11T08:35:15Z</time></trkpt><trkpt lat="44.68473521004888" lon="7.893335105153957"><ele>202.0</ele><time>2026-04-11T08:35:16Z</time></trkpt><trkpt lat="44.68466333794707" lon="7.893368837383824"><ele>202.0</ele><time>2026-04-11T08:35:17Z</time></trkpt><trkpt lat="44.68459958359336" lon="7.893421814118"><ele>202.0</ele><time>2026-04-11T08:35:18Z</time></trkpt><trkpt lat="44.684539531810955" lon="7.89348189153337"><ele>202.0</ele><time>2026-04-11T08:35:19Z</time></trkpt><trkpt lat="44.6844799420667" lon="7.89353301447714"><ele>202.14285714285714</ele><time>2026-04-11T08:35:20Z</time></trkpt><trkpt lat="44.68441664211794" lon="7.893580422117816"><ele>202.28571428571428</ele><time>2026-04-11T08:35:21Z</time></trkpt><trkpt lat="44.684349962199235" lon="7.893620009878099"><ele>202.42857142857144</ele><time>2026-04-11T08:35:22Z</time></trkpt><trkpt lat="44.68429202001896" lon="7.893671602289248"><ele>202.57142857142856</ele><time>2026-04-11T08:35:23Z</time></trkpt><trkpt lat="44.68422554218066" lon="7.893708690242512"><ele>202.71428571428572</ele><time>2026-04-11T08:35:24Z</time></trkpt><trkpt lat="44.684160256201466" lon="7.893754889193269"><ele>202.85714285714286</ele><time>2026-04-11T08:35:25Z</time></trkpt><trkpt lat="44.68409715031289" lon="7.8938070539621625"><ele>203.0</ele><time>2026-04-11T08:35:26Z</time></trkpt><trkpt lat="44.68403116500241" lon="7.893850633868187"><ele>203.0</ele><time>2026-04-11T08:35:27Z</time></trkpt><trkpt lat="44.68396279707418" lon="7.893893099016806"><ele>203.0</ele><time>2026-04-11T08:35:28Z</time></trkpt><trkpt lat="44.68390128338542" lon="7.893942422044571"><ele>203.0</ele><time>2026-04-11T08:35:29Z</time></trkpt><trkpt lat="44.68383800265598" lon="7.893995934442025"><ele>203.0</ele><time>2026-04-11T08:35:30Z</time></trkpt><trkpt lat="44.68377165660172" lon="7.894045288133512"><ele>203.0</ele><time>2026-04-11T08:35:31Z</time></trkpt><trkpt lat="44.68371087418326" lon="7.894078679424415"><ele>203.0</ele><time>2026-04-11T08:35:32Z</time></trkpt><trkpt lat="44.68364899550953" lon="7.8941280832596386"><ele>203.0</ele><time>2026-04-11T08:35:33Z</time></trkpt><trkpt lat="44.68359088998255" lon="7.894162156316003"><ele>203.0</ele><time>2026-04-11T08:35:34Z</time></trkpt><trkpt lat="44.68353668700387" lon="7.894208325813858"><ele>203.0</ele><time>2026-04-11T08:35:35Z</time></trkpt><trkpt lat="44.68343078102208" lon="7.894288307914799"><ele>203.0</ele><time>2026-04-11T08:35:37Z</time></trkpt><trkpt lat="44.68332901792868" lon="7.894368665583839"><ele>203.0</ele><time>2026-04-11T08:35:39Z</time></trkpt><trkpt lat="44.68323316326044" lon="7.894447488455764"><ele>203.0</ele><time>2026-04-11T08:35:41Z</time></trkpt><trkpt lat="44.68312988068597" lon="7.894515693303676"><ele>203.0</ele><time>2026-04-11T08:35:43Z</time></trkpt><trkpt lat="44.68303369429586" lon="7.894596142990121"><ele>203.0</ele><time>2026-04-11T08:35:45Z</time></trkpt><trkpt lat="44.68294303454923" lon="7.894685216463156"><ele>203.0</ele><time>2026-04-11T08:35:47Z</time></trkpt><trkpt lat="44.68287214575862" lon="7.894778568717566"><ele>203.0</ele><time>2026-04-11T08:35:49Z</time></trkpt><trkpt lat="44.68281798150079" lon="7.894888309052684"><ele>203.0</ele><time>2026-04-11T08:35:51Z</time></trkpt><trkpt lat="44.68277679350232" lon="7.894973676696723"><ele>203.0</ele><time>2026-04-11T08:35:53Z</time></trkpt><trkpt lat="44.68279819303437" lon="7.895134818884055"><ele>203.0</ele><time>2026-04-11T08:35:55Z</time></trkpt><trkpt lat="44.68286220449757" lon="7.895205855433591"><ele>203.0</ele><time>2026-04-11T08:35:57Z</time></trkpt><trkpt lat="44.68298778340336" lon="7.894982382588753"><ele>203.0</ele><time>2026-04-11T08:35:59Z</time></trkpt><trkpt lat="44.68296162822762" lon="7.894853038428735"><ele>203.0</ele><time>2026-04-11T08:36:01Z</time></trkpt><trkpt lat="44.68287652657778" lon="7.894797850734708"><ele>203.0</ele><time>2026-04-11T08:36:03Z</time></trkpt><trkpt lat="44.68279682410434" lon="7.894870280970399"><ele>203.0</ele><time>2026-04-11T08:36:05Z</time></trkpt><trkpt lat="44.68279117567242" lon="7.895016883176357"><ele>203.0</ele><time>2026-04-11T08:36:07Z</time></trkpt><trkpt lat="44.682861911490654" lon="7.895149266009811"><ele>203.0</ele><time>2026-04-11T08:36:09Z</time></trkpt><trkpt lat="44.68295574904757" lon="7.895258550506228"><ele>203.0</ele><time>2026-04-11T08:36:11Z</time></trkpt><trkpt lat="44.68304432245029" lon="7.895364983066206"><ele>203.0</ele><time>2026-04-11T08:36:13Z</time></trkpt><trkpt lat="44.68313802250519" lon="7.895480170829007"><ele>203.0</ele><time>2026-04-11T08:36:15Z</time></trkpt><trkpt lat="44.6832364710019" lon="7.895580095971061"><ele>203.0</ele><time>2026-04-11T08:36:17Z</time></trkpt><trkpt lat="44.68326715208319" lon="7.89566778799207"><ele>203.0</ele><time>2026-04-11T08:36:18Z</time></trkpt><trkpt lat="44.68335767241359" lon="7.895780317523351"><ele>203.0</ele><time>2026-04-11T08:36:20Z</time></trkpt><trkpt lat="44.68341138370281" lon="7.895827455287024"><ele>203.0</ele><time>2026-04-11T08:36:21Z</time></trkpt><trkpt lat="44.68346300990058" lon="7.895884696042602"><ele>203.0</ele><time>2026-04-11T08:36:22Z</time></trkpt><trkpt lat="44.683560766961506" lon="7.8959932548045595"><ele>203.0</ele><time>2026-04-11T08:36:24Z</time></trkpt><trkpt lat="44.683610915983294" lon="7.89605002911383"><ele>203.0</ele><time>2026-04-11T08:36:25Z</time></trkpt><trkpt lat="44.683660193040424" lon="7.896107921641681"><ele>203.0</ele><time>2026-04-11T08:36:26Z</time></trkpt><trkpt lat="44.683707984570376" lon="7.896171278936896"><ele>203.0</ele><time>2026-04-11T08:36:27Z</time></trkpt><trkpt lat="44.683757715707685" lon="7.896230092896282"><ele>202.85714285714286</ele><time>2026-04-11T08:36:28Z</time></trkpt><trkpt lat="44.683805119488355" lon="7.896290938850101"><ele>202.71428571428572</ele><time>2026-04-11T08:36:29Z</time></trkpt><trkpt lat="44.68385435481196" lon="7.8963515274794895"><ele>202.57142857142856</ele><time>2026-04-11T08:36:30Z</time></trkpt><trkpt lat="44.68390452972959" lon="7.896414537377175"><ele>202.42857142857144</ele><time>2026-04-11T08:36:31Z</time></trkpt><trkpt lat="44.68395384837146" lon="7.896473018022016"><ele>202.28571428571428</ele><time>2026-04-11T08:36:32Z</time></trkpt><trkpt lat="44.68400499560808" lon="7.896525515389472"><ele>202.14285714285714</ele><time>2026-04-11T08:36:33Z</time></trkpt><trkpt lat="44.68405840007598" lon="7.8965820143149115"><ele>202.0</ele><time>2026-04-11T08:36:34Z</time></trkpt><trkpt lat="44.68410954095526" lon="7.896643010136129"><ele>202.0</ele><time>2026-04-11T08:36:35Z</time></trkpt><trkpt lat="44.68415803169464" lon="7.896701171411783"><ele>202.0</ele><time>2026-04-11T08:36:36Z</time></trkpt><trkpt lat="44.684210943719044" lon="7.896761360368048"><ele>202.0</ele><time>2026-04-11T08:36:37Z</time></trkpt><trkpt lat="44.68425899813215" lon="7.896820679132495"><ele>202.0</ele><time>2026-04-11T08:36:38Z</time></trkpt><trkpt lat="44.68431029759091" lon="7.896881611537643"><ele>202.0</ele><time>2026-04-11T08:36:39Z</time></trkpt><trkpt lat="44.684361003365616" lon="7.896940511425906"><ele>202.0</ele><time>2026-04-11T08:36:40Z</time></trkpt><trkpt lat="44.684415093790875" lon="7.896998543789499"><ele>202.0</ele><time>2026-04-11T08:36:41Z</time></trkpt><trkpt lat="44.68450794196536" lon="7.897116409958411"><ele>201.85714285714286</ele><time>2026-04-11T08:36:43Z</time></trkpt><trkpt lat="44.684561809647455" lon="7.8971757018638025"><ele>201.71428571428572</ele><time>2026-04-11T08:36:44Z</time></trkpt><trkpt lat="44.68461365104688" lon="7.897236600487763"><ele>201.57142857142856</ele><time>2026-04-11T08:36:45Z</time></trkpt><trkpt lat="44.684662785580656" lon="7.897295841685855"><ele>201.42857142857144</ele><time>2026-04-11T08:36:46Z</time></trkpt><trkpt lat="44.68471456760974" lon="7.89735077838457"><ele>201.2857142857143</ele><time>2026-04-11T08:36:47Z</time></trkpt><trkpt lat="44.684767651226224" lon="7.897402570826924"><ele>201.14285714285714</ele><time>2026-04-11T08:36:48Z</time></trkpt><trkpt lat="44.684822883447026" lon="7.897449790005037"><ele>201.0</ele><time>2026-04-11T08:36:49Z</time></trkpt><trkpt lat="44.68490856025587" lon="7.8975309429063865"><ele>200.66666666666666</ele><time>2026-04-11T08:36:51Z</time></trkpt><trkpt lat="44.68486056823026" lon="7.897683168619149"><ele>200.33333333333331</ele><time>2026-04-11T08:36:54.001Z</time></trkpt><trkpt lat="44.684808614295235" lon="7.897739372834541"><ele>200.0</ele><time>2026-04-11T08:36:55.001Z</time></trkpt><trkpt lat="44.68472303485629" lon="7.897863275339597"><ele>199.66666666666666</ele><time>2026-04-11T08:36:57.001Z</time></trkpt><trkpt lat="44.68467877020666" lon="7.897944848130328"><ele>199.33333333333331</ele><time>2026-04-11T08:36:58.001Z</time></trkpt><trkpt lat="44.68463733146844" lon="7.898020979562222"><ele>199.0</ele><time>2026-04-11T08:36:59.001Z</time></trkpt><trkpt lat="44.68459783587109" lon="7.898101816546922"><ele>198.99999999999997</ele><time>2026-04-11T08:37:00.001Z</time></trkpt><trkpt lat="44.68456002310193" lon="7.898188382865879"><ele>199.0</ele><time>2026-04-11T08:37:01.001Z</time></trkpt><trkpt lat="44.68452548081235" lon="7.898276536626448"><ele>199.0</ele><time>2026-04-11T08:37:02.001Z</time></trkpt><trkpt lat="44.684489416797966" lon="7.8983639660300575"><ele>199.0</ele><time>2026-04-11T08:37:03.001Z</time></trkpt><trkpt lat="44.68445451619508" lon="7.898454356288924"><ele>199.0</ele><time>2026-04-11T08:37:04.001Z</time></trkpt><trkpt lat="44.68442229706191" lon="7.898543458561725"><ele>198.99999999999997</ele><time>2026-04-11T08:37:05.001Z</time></trkpt><trkpt lat="44.684385310728565" lon="7.898637471946861"><ele>199.0</ele><time>2026-04-11T08:37:06.001Z</time></trkpt><trkpt lat="44.68434940926586" lon="7.898730104635273"><ele>198.83333333333331</ele><time>2026-04-11T08:37:07Z</time></trkpt><trkpt lat="44.68431601688068" lon="7.898828577450177"><ele>198.66666666666666</ele><time>2026-04-11T08:37:08Z</time></trkpt><trkpt lat="44.68428405611762" lon="7.898927587757177"><ele>198.5</ele><time>2026-04-11T08:37:09Z</time></trkpt><trkpt lat="44.684253876416626" lon="7.899031445257764"><ele>198.33333333333331</ele><time>2026-04-11T08:37:10Z</time></trkpt><trkpt lat="44.68422403397834" lon="7.899134731985826"><ele>198.16666666666666</ele><time>2026-04-11T08:37:11Z</time></trkpt><trkpt lat="44.68419208286915" lon="7.899243472130272"><ele>198.0</ele><time>2026-04-11T08:37:12Z</time></trkpt><trkpt lat="44.68416279037605" lon="7.899357554004204"><ele>197.66666666666666</ele><time>2026-04-11T08:37:13Z</time></trkpt><trkpt lat="44.68413491644754" lon="7.899473158613514"><ele>197.33333333333331</ele><time>2026-04-11T08:37:14Z</time></trkpt><trkpt lat="44.68410962174983" lon="7.899589824516888"><ele>197.0</ele><time>2026-04-11T08:37:15Z</time></trkpt><trkpt lat="44.68408263688889" lon="7.89970746150067"><ele>196.66666666666666</ele><time>2026-04-11T08:37:16Z</time></trkpt><trkpt lat="44.68405973323097" lon="7.899825195145167"><ele>196.33333333333331</ele><time>2026-04-11T08:37:17Z</time></trkpt><trkpt lat="44.68403802320023" lon="7.8999448312269385"><ele>196.0</ele><time>2026-04-11T08:37:18Z</time></trkpt><trkpt lat="44.684016427509114" lon="7.900065513295962"><ele>195.83333333333331</ele><time>2026-04-11T08:37:19Z</time></trkpt><trkpt lat="44.68399742004801" lon="7.900186720376927"><ele>195.66666666666666</ele><time>2026-04-11T08:37:20Z</time></trkpt><trkpt lat="44.68398041143293" lon="7.9003079471417745"><ele>195.5</ele><time>2026-04-11T08:37:21Z</time></trkpt><trkpt lat="44.68396471884221" lon="7.900429018486878"><ele>195.33333333333331</ele><time>2026-04-11T08:37:22Z</time></trkpt><trkpt lat="44.68394701974179" lon="7.900549664342011"><ele>195.16666666666666</ele><time>2026-04-11T08:37:23Z</time></trkpt><trkpt lat="44.68392786317213" lon="7.900673445110632"><ele>195.0</ele><time>2026-04-11T08:37:24Z</time></trkpt><trkpt lat="44.68391588708441" lon="7.900797067972088"><ele>195.0</ele><time>2026-04-11T08:37:25Z</time></trkpt><trkpt lat="44.68390562652628" lon="7.900921458342825"><ele>195.0</ele><time>2026-04-11T08:37:26Z</time></trkpt><trkpt lat="44.68389527850371" lon="7.901045013523608"><ele>195.0</ele><time>2026-04-11T08:37:27Z</time></trkpt><trkpt lat="44.68388481011029" lon="7.901168770948062"><ele>195.0</ele><time>2026-04-11T08:37:28Z</time></trkpt><trkpt lat="44.68387494891948" lon="7.901292230205319"><ele>195.0</ele><time>2026-04-11T08:37:29Z</time></trkpt><trkpt lat="44.68386801979174" lon="7.90141654433392"><ele>195.0</ele><time>2026-04-11T08:37:30Z</time></trkpt><trkpt lat="44.68386041167657" lon="7.901542343163953"><ele>195.0</ele><time>2026-04-11T08:37:31Z</time></trkpt><trkpt lat="44.683850289427795" lon="7.901666304567247"><ele>195.0</ele><time>2026-04-11T08:37:32Z</time></trkpt><trkpt lat="44.68383956996415" lon="7.901796090452323"><ele>195.0</ele><time>2026-04-11T08:37:33Z</time></trkpt><trkpt lat="44.683830856010935" lon="7.9019242545390895"><ele>195.0</ele><time>2026-04-11T08:37:34Z</time></trkpt><trkpt lat="44.683821644780586" lon="7.9020524993452606"><ele>195.0</ele><time>2026-04-11T08:37:35Z</time></trkpt><trkpt lat="44.683811143164" lon="7.902185381761541"><ele>195.0</ele><time>2026-04-11T08:37:36Z</time></trkpt><trkpt lat="44.68380216390707" lon="7.902318180985459"><ele>195.0</ele><time>2026-04-11T08:37:37Z</time></trkpt><trkpt lat="44.68379187172346" lon="7.9024517968163845"><ele>195.0</ele><time>2026-04-11T08:37:38Z</time></trkpt><trkpt lat="44.68377892980131" lon="7.902585688655868"><ele>195.0</ele><time>2026-04-11T08:37:39Z</time></trkpt><trkpt lat="44.683769536717634" lon="7.902718781709818"><ele>195.0</ele><time>2026-04-11T08:37:40Z</time></trkpt><trkpt lat="44.683760190976464" lon="7.902853656544727"><ele>195.0</ele><time>2026-04-11T08:37:41Z</time></trkpt><trkpt lat="44.6837525726172" lon="7.90298627835076"><ele>195.0</ele><time>2026-04-11T08:37:42Z</time></trkpt><trkpt lat="44.68374348652184" lon="7.903117011575936"><ele>195.0</ele><time>2026-04-11T08:37:43Z</time></trkpt><trkpt lat="44.683735907806636" lon="7.903249748203791"><ele>195.0</ele><time>2026-04-11T08:37:44Z</time></trkpt><trkpt lat="44.683725667843184" lon="7.903382245100054"><ele>195.0</ele><time>2026-04-11T08:37:45Z</time></trkpt><trkpt lat="44.683711506287196" lon="7.90351663948297"><ele>195.0</ele><time>2026-04-11T08:37:46Z</time></trkpt><trkpt lat="44.68370217378921" lon="7.903649939929603"><ele>195.0</ele><time>2026-04-11T08:37:47Z</time></trkpt><trkpt lat="44.68369358618979" lon="7.903781981394752"><ele>195.0</ele><time>2026-04-11T08:37:48Z</time></trkpt><trkpt lat="44.68368271403778" lon="7.903914344688174"><ele>195.0</ele><time>2026-04-11T08:37:49Z</time></trkpt><trkpt lat="44.683671328853244" lon="7.904046896085806"><ele>195.0</ele><time>2026-04-11T08:37:50Z</time></trkpt><trkpt lat="44.68366176009922" lon="7.904177609813069"><ele>194.8</ele><time>2026-04-11T08:37:51Z</time></trkpt><trkpt lat="44.68365233162357" lon="7.904308457643285"><ele>194.6</ele><time>2026-04-11T08:37:52Z</time></trkpt><trkpt lat="44.6836422745926" lon="7.904436665819622"><ele>194.39999999999998</ele><time>2026-04-11T08:37:53Z</time></trkpt><trkpt lat="44.68363039588277" lon="7.90456459095011"><ele>194.2</ele><time>2026-04-11T08:37:54Z</time></trkpt><trkpt lat="44.68362205241459" lon="7.9046928396212275"><ele>194.0</ele><time>2026-04-11T08:37:55Z</time></trkpt><trkpt lat="44.683612693107534" lon="7.904816908470579"><ele>194.00000000000003</ele><time>2026-04-11T08:37:56Z</time></trkpt><trkpt lat="44.68360043502116" lon="7.904940755020874"><ele>194.0</ele><time>2026-04-11T08:37:57Z</time></trkpt><trkpt lat="44.683590646062086" lon="7.905061065951986"><ele>194.0</ele><time>2026-04-11T08:37:58Z</time></trkpt><trkpt lat="44.68358044544072" lon="7.905183867529847"><ele>194.0</ele><time>2026-04-11T08:37:59Z</time></trkpt><trkpt lat="44.68357442162622" lon="7.905305893010494"><ele>194.00000000000003</ele><time>2026-04-11T08:38:00Z</time></trkpt><trkpt lat="44.683567177872305" lon="7.9054291692511205"><ele>194.0</ele><time>2026-04-11T08:38:01Z</time></trkpt><trkpt lat="44.68355692637742" lon="7.905551705823998"><ele>194.00000000000003</ele><time>2026-04-11T08:38:02Z</time></trkpt><trkpt lat="44.68354611217827" lon="7.9056711593608915"><ele>194.0</ele><time>2026-04-11T08:38:03Z</time></trkpt><trkpt lat="44.68353803601823" lon="7.905791923774721"><ele>194.0</ele><time>2026-04-11T08:38:04Z</time></trkpt><trkpt lat="44.68352980043451" lon="7.905911896578324"><ele>194.0</ele><time>2026-04-11T08:38:05Z</time></trkpt><trkpt lat="44.6835223536067" lon="7.906035608022259"><ele>194.00000000000003</ele><time>2026-04-11T08:38:06Z</time></trkpt><trkpt lat="44.68351621525562" lon="7.906159076815388"><ele>194.0</ele><time>2026-04-11T08:38:07Z</time></trkpt><trkpt lat="44.68351645922274" lon="7.90628167266608"><ele>193.83333333333334</ele><time>2026-04-11T08:38:08Z</time></trkpt><trkpt lat="44.683520784047744" lon="7.906405048373548"><ele>193.66666666666669</ele><time>2026-04-11T08:38:09Z</time></trkpt><trkpt lat="44.683527631664354" lon="7.906531289144883"><ele>193.5</ele><time>2026-04-11T08:38:10Z</time></trkpt><trkpt lat="44.683540998770745" lon="7.906655120608391"><ele>193.33333333333331</ele><time>2026-04-11T08:38:11Z</time></trkpt><trkpt lat="44.683562170562354" lon="7.906777543931121"><ele>193.16666666666666</ele><time>2026-04-11T08:38:12Z</time></trkpt><trkpt lat="44.683593049390076" lon="7.9068963662104705"><ele>193.0</ele><time>2026-04-11T08:38:13Z</time></trkpt><trkpt lat="44.68362967363858" lon="7.907011913721749"><ele>193.0</ele><time>2026-04-11T08:38:14Z</time></trkpt><trkpt lat="44.683668298975704" lon="7.907126552030158"><ele>193.0</ele><time>2026-04-11T08:38:15Z</time></trkpt><trkpt lat="44.68371072721398" lon="7.90723835709825"><ele>193.0</ele><time>2026-04-11T08:38:16Z</time></trkpt><trkpt lat="44.683754885241335" lon="7.907350189555962"><ele>193.0</ele><time>2026-04-11T08:38:17Z</time></trkpt><trkpt lat="44.68379956285266" lon="7.907460916098028"><ele>193.0</ele><time>2026-04-11T08:38:18Z</time></trkpt><trkpt lat="44.683843816842746" lon="7.907571106185247"><ele>192.8</ele><time>2026-04-11T08:38:19Z</time></trkpt><trkpt lat="44.68388969834508" lon="7.907682567942065"><ele>192.60000000000002</ele><time>2026-04-11T08:38:20Z</time></trkpt><trkpt lat="44.68393787250281" lon="7.907793939410252"><ele>192.39999999999998</ele><time>2026-04-11T08:38:21Z</time></trkpt><trkpt lat="44.68398520197095" lon="7.907905675945021"><ele>192.2</ele><time>2026-04-11T08:38:22Z</time></trkpt><trkpt lat="44.684030155728536" lon="7.908019989074719"><ele>192.0</ele><time>2026-04-11T08:38:23Z</time></trkpt><trkpt lat="44.68407524869465" lon="7.908134943225376"><ele>192.0</ele><time>2026-04-11T08:38:24Z</time></trkpt><trkpt lat="44.68412086539875" lon="7.908249940344224"><ele>192.0</ele><time>2026-04-11T08:38:25Z</time></trkpt><trkpt lat="44.68416743832322" lon="7.908363887116205"><ele>192.0</ele><time>2026-04-11T08:38:26Z</time></trkpt><trkpt lat="44.68421500010674" lon="7.908477313991268"><ele>192.0</ele><time>2026-04-11T08:38:27Z</time></trkpt><trkpt lat="44.68426159240124" lon="7.908591412968791"><ele>192.0</ele><time>2026-04-11T08:38:28Z</time></trkpt><trkpt lat="44.68430706286556" lon="7.908704835896232"><ele>192.0</ele><time>2026-04-11T08:38:29Z</time></trkpt><trkpt lat="44.684353163049884" lon="7.90881917928532"><ele>192.0</ele><time>2026-04-11T08:38:30Z</time></trkpt><trkpt lat="44.68440070698733" lon="7.908933346950976"><ele>192.0</ele><time>2026-04-11T08:38:31Z</time></trkpt><trkpt lat="44.68444778619976" lon="7.909049725942834"><ele>192.0</ele><time>2026-04-11T08:38:32Z</time></trkpt><trkpt lat="44.684495037470946" lon="7.909164642006484"><ele>192.0</ele><time>2026-04-11T08:38:33Z</time></trkpt><trkpt lat="44.68454449908757" lon="7.909282604121912"><ele>192.39999999999998</ele><time>2026-04-11T08:38:34Z</time></trkpt><trkpt lat="44.68459420606123" lon="7.909398084868049"><ele>192.79999999999998</ele><time>2026-04-11T08:38:35Z</time></trkpt><trkpt lat="44.68464378075477" lon="7.909517043473775"><ele>193.2</ele><time>2026-04-11T08:38:36Z</time></trkpt><trkpt lat="44.684691760433914" lon="7.909635966901722"><ele>193.6</ele><time>2026-04-11T08:38:37Z</time></trkpt><trkpt lat="44.68473922295412" lon="7.909754738701878"><ele>194.0</ele><time>2026-04-11T08:38:38Z</time></trkpt><trkpt lat="44.68478842126173" lon="7.909874712821843"><ele>194.0</ele><time>2026-04-11T08:38:39Z</time></trkpt><trkpt lat="44.68483630747059" lon="7.909992566277596"><ele>194.0</ele><time>2026-04-11T08:38:40Z</time></trkpt><trkpt lat="44.68488490732354" lon="7.910110945430498"><ele>194.0</ele><time>2026-04-11T08:38:41Z</time></trkpt><trkpt lat="44.68493210581535" lon="7.910230868510381"><ele>194.0</ele><time>2026-04-11T08:38:42Z</time></trkpt><trkpt lat="44.68497924166164" lon="7.910351047625415"><ele>194.0</ele><time>2026-04-11T08:38:43Z</time></trkpt><trkpt lat="44.68502600083889" lon="7.9104703636394085"><ele>194.2</ele><time>2026-04-11T08:38:44Z</time></trkpt><trkpt lat="44.6850746375519" lon="7.9105875502059115"><ele>194.39999999999998</ele><time>2026-04-11T08:38:45Z</time></trkpt><trkpt lat="44.68512393246117" lon="7.910707129790706"><ele>194.6</ele><time>2026-04-11T08:38:46Z</time></trkpt><trkpt lat="44.685171650299424" lon="7.91082573043841"><ele>194.8</ele><time>2026-04-11T08:38:47Z</time></trkpt><trkpt lat="44.68521988359115" lon="7.910943760793893"><ele>195.0</ele><time>2026-04-11T08:38:48Z</time></trkpt><trkpt lat="44.685265420250225" lon="7.911059925013925"><ele>194.4</ele><time>2026-04-11T08:38:49Z</time></trkpt><trkpt lat="44.68531277282654" lon="7.911176275574184"><ele>193.8</ele><time>2026-04-11T08:38:50Z</time></trkpt><trkpt lat="44.68535914248015" lon="7.9112914722294425"><ele>193.2</ele><time>2026-04-11T08:38:51Z</time></trkpt><trkpt lat="44.68540381939696" lon="7.9114002725545225"><ele>192.6</ele><time>2026-04-11T08:38:52Z</time></trkpt><trkpt lat="44.685426873070064" lon="7.911483434845253"><ele>192.0</ele><time>2026-04-11T08:38:53Z</time></trkpt><trkpt lat="44.685479250772126" lon="7.911623721682685"><ele>191.99999999999997</ele><time>2026-04-11T08:38:55Z</time></trkpt><trkpt lat="44.68551949613452" lon="7.911692541471623"><ele>192.0</ele><time>2026-04-11T08:38:56Z</time></trkpt><trkpt lat="44.68555270483713" lon="7.911775989494253"><ele>192.0</ele><time>2026-04-11T08:38:57Z</time></trkpt><trkpt lat="44.68556981634146" lon="7.9118710277475754"><ele>192.0</ele><time>2026-04-11T08:38:58Z</time></trkpt><trkpt lat="44.68557795276593" lon="7.911970962164619"><ele>192.0</ele><time>2026-04-11T08:38:59Z</time></trkpt><trkpt lat="44.68558423288929" lon="7.912067503756702"><ele>191.99999999999997</ele><time>2026-04-11T08:39:00Z</time></trkpt><trkpt lat="44.68556910495938" lon="7.912162422757991"><ele>192.0</ele><time>2026-04-11T08:39:01Z</time></trkpt><trkpt lat="44.685547047923855" lon="7.91225244330457"><ele>191.66666666666666</ele><time>2026-04-11T08:39:02Z</time></trkpt><trkpt lat="44.68551675864802" lon="7.912332764288591"><ele>191.33333333333334</ele><time>2026-04-11T08:39:03Z</time></trkpt><trkpt lat="44.6854735489137" lon="7.912406211945788"><ele>191.0</ele><time>2026-04-11T08:39:04Z</time></trkpt><trkpt lat="44.68542643246225" lon="7.912468907281652"><ele>190.66666666666669</ele><time>2026-04-11T08:39:05Z</time></trkpt><trkpt lat="44.68537400513761" lon="7.912519897237029"><ele>190.33333333333334</ele><time>2026-04-11T08:39:06Z</time></trkpt><trkpt lat="44.6852675830469" lon="7.912614702587094"><ele>190.0</ele><time>2026-04-11T08:39:08Z</time></trkpt><trkpt lat="44.685210294898184" lon="7.912656542909686"><ele>189.42857142857144</ele><time>2026-04-11T08:39:09Z</time></trkpt><trkpt lat="44.685152571345704" lon="7.91269710019268"><ele>188.85714285714286</ele><time>2026-04-11T08:39:10Z</time></trkpt><trkpt lat="44.685094090444345" lon="7.912741375906492"><ele>188.28571428571428</ele><time>2026-04-11T08:39:11Z</time></trkpt><trkpt lat="44.68503627400913" lon="7.91278528166828"><ele>187.71428571428572</ele><time>2026-04-11T08:39:12Z</time></trkpt><trkpt lat="44.684979736690906" lon="7.912831695989626"><ele>187.14285714285714</ele><time>2026-04-11T08:39:13Z</time></trkpt><trkpt lat="44.684921346302104" lon="7.912875150303702"><ele>186.57142857142858</ele><time>2026-04-11T08:39:14Z</time></trkpt><trkpt lat="44.684863834989144" lon="7.9129189290526725"><ele>186.0</ele><time>2026-04-11T08:39:15Z</time></trkpt><trkpt lat="44.684804321842215" lon="7.9129622787112055"><ele>186.00000000000003</ele><time>2026-04-11T08:39:16Z</time></trkpt><trkpt lat="44.684745825913986" lon="7.913003731602376"><ele>186.0</ele><time>2026-04-11T08:39:17Z</time></trkpt><trkpt lat="44.68468802337266" lon="7.9130476273861525"><ele>186.0</ele><time>2026-04-11T08:39:18Z</time></trkpt><trkpt lat="44.684629634835126" lon="7.9130913021053155"><ele>186.0</ele><time>2026-04-11T08:39:19Z</time></trkpt><trkpt lat="44.6845711271257" lon="7.913136051625153"><ele>186.0</ele><time>2026-04-11T08:39:20Z</time></trkpt><trkpt lat="44.68451678273251" lon="7.913184093618886"><ele>186.00000000000003</ele><time>2026-04-11T08:39:21Z</time></trkpt><trkpt lat="44.68445531000743" lon="7.91322805563118"><ele>186.0</ele><time>2026-04-11T08:39:22Z</time></trkpt><trkpt lat="44.68440020922832" lon="7.913273743341626"><ele>185.85714285714286</ele><time>2026-04-11T08:39:23Z</time></trkpt><trkpt lat="44.68434113662083" lon="7.913317987038431"><ele>185.71428571428572</ele><time>2026-04-11T08:39:24Z</time></trkpt><trkpt lat="44.684282170639825" lon="7.913362070886599"><ele>185.57142857142856</ele><time>2026-04-11T08:39:25Z</time></trkpt><trkpt lat="44.68422369530743" lon="7.913406358485263"><ele>185.42857142857144</ele><time>2026-04-11T08:39:26Z</time></trkpt><trkpt lat="44.68416293890361" lon="7.913450961136762"><ele>185.28571428571428</ele><time>2026-04-11T08:39:27Z</time></trkpt><trkpt lat="44.684100315893296" lon="7.913498521936081"><ele>185.14285714285714</ele><time>2026-04-11T08:39:28Z</time></trkpt><trkpt lat="44.68403847577086" lon="7.913547148585001"><ele>185.0</ele><time>2026-04-11T08:39:29Z</time></trkpt><trkpt lat="44.68397670481263" lon="7.9135959444844115"><ele>184.99999999999997</ele><time>2026-04-11T08:39:30Z</time></trkpt><trkpt lat="44.68391338958581" lon="7.91364378709296"><ele>185.0</ele><time>2026-04-11T08:39:31Z</time></trkpt><trkpt lat="44.68384944758879" lon="7.913690608738671"><ele>185.0</ele><time>2026-04-11T08:39:32Z</time></trkpt><trkpt lat="44.68378464793949" lon="7.913740318453562"><ele>185.0</ele><time>2026-04-11T08:39:33Z</time></trkpt><trkpt lat="44.68372140848247" lon="7.9137869118378665"><ele>185.0</ele><time>2026-04-11T08:39:34Z</time></trkpt><trkpt lat="44.68365355816596" lon="7.913836180025219"><ele>184.99999999999997</ele><time>2026-04-11T08:39:35Z</time></trkpt><trkpt lat="44.683586681221165" lon="7.913886946599091"><ele>185.0</ele><time>2026-04-11T08:39:36Z</time></trkpt><trkpt lat="44.68351740826397" lon="7.913936754637926"><ele>185.0</ele><time>2026-04-11T08:39:37Z</time></trkpt><trkpt lat="44.683445997957875" lon="7.9139869194101315"><ele>185.0</ele><time>2026-04-11T08:39:38Z</time></trkpt><trkpt lat="44.68337253941748" lon="7.9140418363898855"><ele>185.0</ele><time>2026-04-11T08:39:39Z</time></trkpt><trkpt lat="44.683300568353886" lon="7.914097834407499"><ele>185.0</ele><time>2026-04-11T08:39:40Z</time></trkpt><trkpt lat="44.6832285521923" lon="7.914154238442131"><ele>185.0</ele><time>2026-04-11T08:39:41Z</time></trkpt><trkpt lat="44.683155944291315" lon="7.914208894665596"><ele>185.0</ele><time>2026-04-11T08:39:42Z</time></trkpt><trkpt lat="44.68308356097669" lon="7.914266405057162"><ele>185.0</ele><time>2026-04-11T08:39:43Z</time></trkpt><trkpt lat="44.68301350962983" lon="7.91432747085762"><ele>185.0</ele><time>2026-04-11T08:39:44Z</time></trkpt><trkpt lat="44.682946553284374" lon="7.9144007236532365"><ele>185.0</ele><time>2026-04-11T08:39:45Z</time></trkpt><trkpt lat="44.68288294831705" lon="7.914477728769165"><ele>185.0</ele><time>2026-04-11T08:39:46Z</time></trkpt><trkpt lat="44.682818993423" lon="7.914553604195837"><ele>185.0</ele><time>2026-04-11T08:39:47Z</time></trkpt><trkpt lat="44.682755695871855" lon="7.91462738944935"><ele>185.0</ele><time>2026-04-11T08:39:48Z</time></trkpt><trkpt lat="44.68269211069673" lon="7.914703491731465"><ele>185.0</ele><time>2026-04-11T08:39:49Z</time></trkpt><trkpt lat="44.68263106417335" lon="7.914778026064192"><ele>185.0</ele><time>2026-04-11T08:39:50Z</time></trkpt><trkpt lat="44.682567206389145" lon="7.9148546050145105"><ele>185.0</ele><time>2026-04-11T08:39:51Z</time></trkpt><trkpt lat="44.68250388779541" lon="7.914927399290336"><ele>185.0</ele><time>2026-04-11T08:39:52Z</time></trkpt><trkpt lat="44.6824365034497" lon="7.915003620367672"><ele>185.0</ele><time>2026-04-11T08:39:53Z</time></trkpt><trkpt lat="44.68237185930342" lon="7.91507793272215"><ele>185.0</ele><time>2026-04-11T08:39:54Z</time></trkpt><trkpt lat="44.682307478160155" lon="7.915156209998451"><ele>185.0</ele><time>2026-04-11T08:39:55Z</time></trkpt><trkpt lat="44.68224282045805" lon="7.915236010191065"><ele>185.0</ele><time>2026-04-11T08:39:56Z</time></trkpt><trkpt lat="44.68217894974104" lon="7.915317045561162"><ele>185.0</ele><time>2026-04-11T08:39:57Z</time></trkpt><trkpt lat="44.682116216265726" lon="7.915396207460706"><ele>185.0</ele><time>2026-04-11T08:39:58Z</time></trkpt><trkpt lat="44.68205121629652" lon="7.915474864892196"><ele>185.0</ele><time>2026-04-11T08:39:59Z</time></trkpt><trkpt lat="44.68198571594683" lon="7.915553134927215"><ele>185.0</ele><time>2026-04-11T08:40:00Z</time></trkpt><trkpt lat="44.68191992847156" lon="7.915630996165672"><ele>185.0</ele><time>2026-04-11T08:40:01Z</time></trkpt><trkpt lat="44.681854373338695" lon="7.915707511808622"><ele>185.0</ele><time>2026-04-11T08:40:02Z</time></trkpt><trkpt lat="44.68179147326185" lon="7.9157886859887645"><ele>185.0</ele><time>2026-04-11T08:40:03Z</time></trkpt><trkpt lat="44.68172459604145" lon="7.915867948639734"><ele>185.0</ele><time>2026-04-11T08:40:04Z</time></trkpt><trkpt lat="44.6816587312379" lon="7.915946013477857"><ele>185.0</ele><time>2026-04-11T08:40:05Z</time></trkpt><trkpt lat="44.68159182276667" lon="7.91602283413375"><ele>185.0</ele><time>2026-04-11T08:40:06Z</time></trkpt><trkpt lat="44.681526773728436" lon="7.916099957257422"><ele>184.83333333333331</ele><time>2026-04-11T08:40:07Z</time></trkpt><trkpt lat="44.681460784077906" lon="7.916179368342536"><ele>184.66666666666666</ele><time>2026-04-11T08:40:08Z</time></trkpt><trkpt lat="44.68139411283321" lon="7.916258581211684"><ele>184.5</ele><time>2026-04-11T08:40:09Z</time></trkpt><trkpt lat="44.68132925490019" lon="7.916338973964328"><ele>184.33333333333334</ele><time>2026-04-11T08:40:10Z</time></trkpt><trkpt lat="44.681263619839456" lon="7.916419806758736"><ele>184.16666666666669</ele><time>2026-04-11T08:40:11Z</time></trkpt><trkpt lat="44.681199522051735" lon="7.91649930270993"><ele>184.0</ele><time>2026-04-11T08:40:12Z</time></trkpt><trkpt lat="44.68113504737851" lon="7.9165762540593265"><ele>184.0</ele><time>2026-04-11T08:40:13Z</time></trkpt><trkpt lat="44.68106923829663" lon="7.916655300634367"><ele>184.0</ele><time>2026-04-11T08:40:14Z</time></trkpt><trkpt lat="44.68100469490862" lon="7.916734196070415"><ele>184.0</ele><time>2026-04-11T08:40:15Z</time></trkpt><trkpt lat="44.68094020584949" lon="7.91681300599503"><ele>184.0</ele><time>2026-04-11T08:40:16Z</time></trkpt><trkpt lat="44.68087657299773" lon="7.916890805760024"><ele>184.0</ele><time>2026-04-11T08:40:17Z</time></trkpt><trkpt lat="44.68081188660284" lon="7.916969019595218"><ele>184.0</ele><time>2026-04-11T08:40:18Z</time></trkpt><trkpt lat="44.68074783186035" lon="7.917048585042531"><ele>184.0</ele><time>2026-04-11T08:40:19Z</time></trkpt><trkpt lat="44.68068159792975" lon="7.917125997664276"><ele>184.0</ele><time>2026-04-11T08:40:20Z</time></trkpt><trkpt lat="44.680614927297974" lon="7.917201321839975"><ele>184.0</ele><time>2026-04-11T08:40:21Z</time></trkpt><trkpt lat="44.680551656657016" lon="7.91728093356923"><ele>184.0</ele><time>2026-04-11T08:40:22Z</time></trkpt><trkpt lat="44.680488813090456" lon="7.91736187026218"><ele>184.0</ele><time>2026-04-11T08:40:23Z</time></trkpt><trkpt lat="44.6804240661682" lon="7.917441796690378"><ele>184.0</ele><time>2026-04-11T08:40:24Z</time></trkpt><trkpt lat="44.68035858426052" lon="7.917520301013706"><ele>183.83333333333334</ele><time>2026-04-11T08:40:25Z</time></trkpt><trkpt lat="44.680293936443604" lon="7.917596828070536"><ele>183.66666666666669</ele><time>2026-04-11T08:40:26Z</time></trkpt><trkpt lat="44.6802309432889" lon="7.917671420054854"><ele>183.5</ele><time>2026-04-11T08:40:27Z</time></trkpt><trkpt lat="44.68016653004175" lon="7.917748968967004"><ele>183.33333333333334</ele><time>2026-04-11T08:40:28Z</time></trkpt><trkpt lat="44.68010294749007" lon="7.917824152256159"><ele>183.16666666666666</ele><time>2026-04-11T08:40:29Z</time></trkpt><trkpt lat="44.680037270778286" lon="7.917898150619117"><ele>183.0</ele><time>2026-04-11T08:40:30Z</time></trkpt><trkpt lat="44.67997113500579" lon="7.917971931655853"><ele>183.66666666666666</ele><time>2026-04-11T08:40:31Z</time></trkpt><trkpt lat="44.67990563284942" lon="7.918044829603647"><ele>184.33333333333334</ele><time>2026-04-11T08:40:32Z</time></trkpt><trkpt lat="44.67983876171439" lon="7.918116801551812"><ele>185.0</ele><time>2026-04-11T08:40:33Z</time></trkpt><trkpt lat="44.67977023478555" lon="7.918184086853792"><ele>185.66666666666669</ele><time>2026-04-11T08:40:34Z</time></trkpt><trkpt lat="44.67970040933357" lon="7.918248674135196"><ele>186.33333333333334</ele><time>2026-04-11T08:40:35Z</time></trkpt><trkpt lat="44.67962583755434" lon="7.918300358321304"><ele>187.0</ele><time>2026-04-11T08:40:36Z</time></trkpt><trkpt lat="44.6795453069612" lon="7.918350653220449"><ele>187.0</ele><time>2026-04-11T08:40:37Z</time></trkpt><trkpt lat="44.679469029254825" lon="7.918394690515746"><ele>187.0</ele><time>2026-04-11T08:40:38Z</time></trkpt><trkpt lat="44.67939613595491" lon="7.918427207024246"><ele>187.0</ele><time>2026-04-11T08:40:39Z</time></trkpt><trkpt lat="44.67931220518769" lon="7.91844803388328"><ele>187.0</ele><time>2026-04-11T08:40:40Z</time></trkpt><trkpt lat="44.679232706604" lon="7.9184613488400695"><ele>187.0</ele><time>2026-04-11T08:40:41Z</time></trkpt><trkpt lat="44.67915469146449" lon="7.9184751137963145"><ele>187.0</ele><time>2026-04-11T08:40:42Z</time></trkpt><trkpt lat="44.679079815519316" lon="7.918488238373688"><ele>187.28571428571428</ele><time>2026-04-11T08:40:43Z</time></trkpt><trkpt lat="44.67900406158092" lon="7.91849596253775"><ele>187.57142857142858</ele><time>2026-04-11T08:40:44Z</time></trkpt><trkpt lat="44.678931647942505" lon="7.918501062686138"><ele>187.85714285714286</ele><time>2026-04-11T08:40:45Z</time></trkpt><trkpt lat="44.67885895842496" lon="7.918506082435876"><ele>188.14285714285714</ele><time>2026-04-11T08:40:46Z</time></trkpt><trkpt lat="44.67878736994691" lon="7.918512260240106"><ele>188.42857142857144</ele><time>2026-04-11T08:40:47Z</time></trkpt><trkpt lat="44.67871523113531" lon="7.918521300342703"><ele>188.71428571428572</ele><time>2026-04-11T08:40:48Z</time></trkpt><trkpt lat="44.67864698403232" lon="7.918538605794037"><ele>189.0</ele><time>2026-04-11T08:40:49Z</time></trkpt><trkpt lat="44.67857915746994" lon="7.918549829197474"><ele>190.0</ele><time>2026-04-11T08:40:50Z</time></trkpt><trkpt lat="44.67851234799525" lon="7.918554025147431"><ele>191.0</ele><time>2026-04-11T08:40:51Z</time></trkpt><trkpt lat="44.678390421893475" lon="7.918573074371092"><ele>192.0</ele><time>2026-04-11T08:40:53Z</time></trkpt><trkpt lat="44.67827870338611" lon="7.91857435653357"><ele>193.0</ele><time>2026-04-11T08:40:55Z</time></trkpt><trkpt lat="44.67817406921268" lon="7.918584103144687"><ele>194.0</ele><time>2026-04-11T08:40:57Z</time></trkpt><trkpt lat="44.67807982355586" lon="7.918604189215802"><ele>194.00000000000003</ele><time>2026-04-11T08:40:59Z</time></trkpt><trkpt lat="44.6779902760473" lon="7.918611842635402"><ele>194.0</ele><time>2026-04-11T08:41:01Z</time></trkpt><trkpt lat="44.67790565002892" lon="7.918625195580638"><ele>194.0</ele><time>2026-04-11T08:41:03Z</time></trkpt><trkpt lat="44.677829262308755" lon="7.918621680047804"><ele>194.0</ele><time>2026-04-11T08:41:05Z</time></trkpt><trkpt lat="44.67775334457219" lon="7.918626171598975"><ele>194.00000000000003</ele><time>2026-04-11T08:41:07Z</time></trkpt><trkpt lat="44.677683093354005" lon="7.918638755328388"><ele>194.0</ele><time>2026-04-11T08:41:09Z</time></trkpt><trkpt lat="44.677610048271234" lon="7.918646015760933"><ele>195.14285714285714</ele><time>2026-04-11T08:41:11Z</time></trkpt><trkpt lat="44.67754238869579" lon="7.918658026493566"><ele>196.2857142857143</ele><time>2026-04-11T08:41:13Z</time></trkpt><trkpt lat="44.677472767030686" lon="7.918665539505778"><ele>197.42857142857144</ele><time>2026-04-11T08:41:15Z</time></trkpt><trkpt lat="44.67740222511068" lon="7.918668555261587"><ele>198.57142857142856</ele><time>2026-04-11T08:41:17Z</time></trkpt><trkpt lat="44.67733470978881" lon="7.918678157718989"><ele>199.71428571428572</ele><time>2026-04-11T08:41:19Z</time></trkpt><trkpt lat="44.67726728418343" lon="7.918687112147812"><ele>200.85714285714286</ele><time>2026-04-11T08:41:21Z</time></trkpt><trkpt lat="44.67717224278531" lon="7.918692105755844"><ele>202.0</ele><time>2026-04-11T08:41:24Z</time></trkpt><trkpt lat="44.677085084341925" lon="7.918666982939135"><ele>201.99999999999997</ele><time>2026-04-11T08:41:27Z</time></trkpt><trkpt lat="44.6770072390175" lon="7.918636041585104"><ele>202.0</ele><time>2026-04-11T08:41:30Z</time></trkpt><trkpt lat="44.67693779539044" lon="7.918579194674801"><ele>202.0</ele><time>2026-04-11T08:41:33Z</time></trkpt><trkpt lat="44.67688627061379" lon="7.918523057080249"><ele>202.0</ele><time>2026-04-11T08:41:36Z</time></trkpt><trkpt lat="44.676821074510734" lon="7.918456362223237"><ele>201.99999999999997</ele><time>2026-04-11T08:41:39Z</time></trkpt><trkpt lat="44.67675959315752" lon="7.91838586937757"><ele>202.0</ele><time>2026-04-11T08:41:42Z</time></trkpt><trkpt lat="44.67669944569859" lon="7.918311916504281"><ele>203.16666666666666</ele><time>2026-04-11T08:41:45Z</time></trkpt><trkpt lat="44.67663724088209" lon="7.918239598837732"><ele>204.33333333333331</ele><time>2026-04-11T08:41:48Z</time></trkpt><trkpt lat="44.676579305143946" lon="7.91816958395639"><ele>205.5</ele><time>2026-04-11T08:41:50Z</time></trkpt><trkpt lat="44.676516226610794" lon="7.918107555643373"><ele>206.66666666666669</ele><time>2026-04-11T08:41:52Z</time></trkpt><trkpt lat="44.676453800169476" lon="7.918053797863409"><ele>207.83333333333334</ele><time>2026-04-11T08:41:54Z</time></trkpt><trkpt lat="44.676403738579126" lon="7.917992970881028"><ele>209.0</ele><time>2026-04-11T08:41:56Z</time></trkpt><trkpt lat="44.67633561203656" lon="7.917909565207068"><ele>209.00000000000003</ele><time>2026-04-11T08:41:59Z</time></trkpt><trkpt lat="44.676278581006834" lon="7.917858815564891"><ele>209.0</ele><time>2026-04-11T08:42:02Z</time></trkpt><trkpt lat="44.676201183612335" lon="7.91777965836716"><ele>209.0</ele><time>2026-04-11T08:42:05Z</time></trkpt><trkpt lat="44.67613748001658" lon="7.917705185232341"><ele>209.0</ele><time>2026-04-11T08:42:08Z</time></trkpt><trkpt lat="44.67607872501489" lon="7.917640746523796"><ele>209.00000000000003</ele><time>2026-04-11T08:42:10Z</time></trkpt><trkpt lat="44.67601206575709" lon="7.917564362289059"><ele>209.0</ele><time>2026-04-11T08:42:13Z</time></trkpt><trkpt lat="44.6759502457987" lon="7.917497624104126"><ele>210.33333333333334</ele><time>2026-04-11T08:42:16Z</time></trkpt><trkpt lat="44.675890918290484" lon="7.917428443620942"><ele>211.66666666666669</ele><time>2026-04-11T08:42:18Z</time></trkpt><trkpt lat="44.675819848336474" lon="7.917331337926348"><ele>213.0</ele><time>2026-04-11T08:42:21Z</time></trkpt><trkpt lat="44.67577251907406" lon="7.917264219243992"><ele>214.33333333333331</ele><time>2026-04-11T08:42:23Z</time></trkpt><trkpt lat="44.67571243979984" lon="7.917204145859205"><ele>215.66666666666666</ele><time>2026-04-11T08:42:25Z</time></trkpt><trkpt lat="44.67562438649825" lon="7.917117725157207"><ele>217.0</ele><time>2026-04-11T08:42:26Z</time></trkpt><trkpt lat="44.67556240948276" lon="7.917038836542566"><ele>216.99999999999997</ele><time>2026-04-11T08:42:28Z</time></trkpt><trkpt lat="44.675503774875835" lon="7.91697444768501"><ele>217.0</ele><time>2026-04-11T08:42:30Z</time></trkpt><trkpt lat="44.67544102341768" lon="7.91691075814132"><ele>217.0</ele><time>2026-04-11T08:42:32Z</time></trkpt><trkpt lat="44.675383377164124" lon="7.916838749362816"><ele>217.0</ele><time>2026-04-11T08:42:34Z</time></trkpt><trkpt lat="44.675323548337836" lon="7.9167656726212"><ele>216.99999999999997</ele><time>2026-04-11T08:42:36Z</time></trkpt><trkpt lat="44.675255660687526" lon="7.916705072718872"><ele>217.0</ele><time>2026-04-11T08:42:38Z</time></trkpt><trkpt lat="44.67519254593379" lon="7.916637833193225"><ele>217.99999999999997</ele><time>2026-04-11T08:42:40Z</time></trkpt><trkpt lat="44.6751287860736" lon="7.9165615146874835"><ele>219.0</ele><time>2026-04-11T08:42:42Z</time></trkpt><trkpt lat="44.675056246211" lon="7.9164998498323795"><ele>220.0</ele><time>2026-04-11T08:42:44Z</time></trkpt><trkpt lat="44.675005514138164" lon="7.916437159230083"><ele>221.0</ele><time>2026-04-11T08:42:46Z</time></trkpt><trkpt lat="44.67494200042769" lon="7.9163640602839624"><ele>221.99999999999997</ele><time>2026-04-11T08:42:48Z</time></trkpt><trkpt lat="44.67487750210897" lon="7.9162955189126425"><ele>223.0</ele><time>2026-04-11T08:42:50Z</time></trkpt><trkpt lat="44.67480805465258" lon="7.916216628180819"><ele>223.0</ele><time>2026-04-11T08:42:52Z</time></trkpt><trkpt lat="44.67473810417625" lon="7.916136486641529"><ele>223.0</ele><time>2026-04-11T08:42:54Z</time></trkpt><trkpt lat="44.67466185631605" lon="7.916052804304348"><ele>223.0</ele><time>2026-04-11T08:42:56Z</time></trkpt><trkpt lat="44.67459010656107" lon="7.915968000368528"><ele>223.0</ele><time>2026-04-11T08:42:58Z</time></trkpt><trkpt lat="44.67451911216471" lon="7.915881600084624"><ele>223.0</ele><time>2026-04-11T08:42:59.999Z</time></trkpt><trkpt lat="44.67445306287965" lon="7.915780098123729"><ele>224.2</ele><time>2026-04-11T08:43:01.999Z</time></trkpt><trkpt lat="44.67439346532638" lon="7.915671593753991"><ele>225.4</ele><time>2026-04-11T08:43:03.999Z</time></trkpt><trkpt lat="44.67433680835112" lon="7.915560953900618"><ele>226.59999999999997</ele><time>2026-04-11T08:43:05.999Z</time></trkpt><trkpt lat="44.67429113433558" lon="7.915447087349139"><ele>227.79999999999998</ele><time>2026-04-11T08:43:07.999Z</time></trkpt><trkpt lat="44.67425938213721" lon="7.915302175490057"><ele>229.0</ele><time>2026-04-11T08:43:10Z</time></trkpt><trkpt lat="44.6742192643289" lon="7.915180333599971"><ele>229.0</ele><time>2026-04-11T08:43:12Z</time></trkpt><trkpt lat="44.67417975849055" lon="7.915053686536228"><ele>228.99999999999997</ele><time>2026-04-11T08:43:14Z</time></trkpt><trkpt lat="44.674142166585426" lon="7.914926185883856"><ele>228.99999999999997</ele><time>2026-04-11T08:43:16Z</time></trkpt><trkpt lat="44.674102873510485" lon="7.914795805937992"><ele>229.0</ele><time>2026-04-11T08:43:18Z</time></trkpt><trkpt lat="44.674059520685255" lon="7.91466170656133"><ele>229.0</ele><time>2026-04-11T08:43:20Z</time></trkpt><trkpt lat="44.67401978747625" lon="7.914527721445181"><ele>229.0</ele><time>2026-04-11T08:43:22Z</time></trkpt><trkpt lat="44.67397700944622" lon="7.914404452283855"><ele>228.99999999999997</ele><time>2026-04-11T08:43:24Z</time></trkpt><trkpt lat="44.67393390151537" lon="7.914278405008467"><ele>228.99999999999997</ele><time>2026-04-11T08:43:26Z</time></trkpt><trkpt lat="44.673890485920666" lon="7.914159044554995"><ele>229.0</ele><time>2026-04-11T08:43:28Z</time></trkpt><trkpt lat="44.67384136879976" lon="7.91405457852078"><ele>229.0</ele><time>2026-04-11T08:43:30Z</time></trkpt><trkpt lat="44.67377212124166" lon="7.913957695515064"><ele>229.2</ele><time>2026-04-11T08:43:32Z</time></trkpt><trkpt lat="44.67370128115804" lon="7.913842999646066"><ele>229.39999999999998</ele><time>2026-04-11T08:43:34Z</time></trkpt><trkpt lat="44.6736405945014" lon="7.913746026624537"><ele>229.6</ele><time>2026-04-11T08:43:36Z</time></trkpt><trkpt lat="44.673573434776465" lon="7.9136662262606645"><ele>229.8</ele><time>2026-04-11T08:43:38Z</time></trkpt><trkpt lat="44.67351411316348" lon="7.9135817730163724"><ele>230.0</ele><time>2026-04-11T08:43:40Z</time></trkpt><trkpt lat="44.67345358648907" lon="7.913488909752418"><ele>230.66666666666669</ele><time>2026-04-11T08:43:42Z</time></trkpt><trkpt lat="44.6733773237882" lon="7.91336621310497"><ele>231.33333333333334</ele><time>2026-04-11T08:43:44Z</time></trkpt><trkpt lat="44.673297049244624" lon="7.913239169750795"><ele>232.0</ele><time>2026-04-11T08:43:46Z</time></trkpt><trkpt lat="44.67325306743759" lon="7.9131683044199805"><ele>232.66666666666669</ele><time>2026-04-11T08:43:47Z</time></trkpt><trkpt lat="44.673216546761026" lon="7.913094363202702"><ele>233.33333333333334</ele><time>2026-04-11T08:43:48Z</time></trkpt><trkpt lat="44.67317643353109" lon="7.9130159297992275"><ele>234.0</ele><time>2026-04-11T08:43:49Z</time></trkpt><trkpt lat="44.67313927516499" lon="7.912942276236446"><ele>234.0</ele><time>2026-04-11T08:43:50Z</time></trkpt><trkpt lat="44.67309648221051" lon="7.912841492711375"><ele>234.0</ele><time>2026-04-11T08:43:51Z</time></trkpt><trkpt lat="44.67305299342432" lon="7.912752742979604"><ele>234.0</ele><time>2026-04-11T08:43:52Z</time></trkpt><trkpt lat="44.67301742200538" lon="7.912676297733669"><ele>234.0</ele><time>2026-04-11T08:43:53Z</time></trkpt><trkpt lat="44.67298422419429" lon="7.912595765800477"><ele>234.0</ele><time>2026-04-11T08:43:54Z</time></trkpt><trkpt lat="44.672923390034946" lon="7.912438104684186"><ele>234.0</ele><time>2026-04-11T08:43:56Z</time></trkpt><trkpt lat="44.672860847040404" lon="7.912292015082876"><ele>233.5</ele><time>2026-04-11T08:43:58Z</time></trkpt><trkpt lat="44.67279307163718" lon="7.912155904238959"><ele>233.0</ele><time>2026-04-11T08:44:00Z</time></trkpt><trkpt lat="44.6727244734965" lon="7.912025324586199"><ele>232.5</ele><time>2026-04-11T08:44:02Z</time></trkpt><trkpt lat="44.67265499445866" lon="7.911898702233666"><ele>232.0</ele><time>2026-04-11T08:44:04Z</time></trkpt><trkpt lat="44.672582095976736" lon="7.911774057043321"><ele>233.75</ele><time>2026-04-11T08:44:06Z</time></trkpt><trkpt lat="44.672500958651526" lon="7.911666266140921"><ele>235.5</ele><time>2026-04-11T08:44:08Z</time></trkpt><trkpt lat="44.67241940845741" lon="7.911548804701749"><ele>237.25</ele><time>2026-04-11T08:44:10Z</time></trkpt><trkpt lat="44.67233555562425" lon="7.911428564595508"><ele>239.0</ele><time>2026-04-11T08:44:12Z</time></trkpt><trkpt lat="44.67225362616221" lon="7.9113090920601525"><ele>239.0</ele><time>2026-04-11T08:44:14Z</time></trkpt><trkpt lat="44.67217392147798" lon="7.911183196273537"><ele>238.99999999999997</ele><time>2026-04-11T08:44:16Z</time></trkpt><trkpt lat="44.67208972555969" lon="7.911069387756799"><ele>238.99999999999997</ele><time>2026-04-11T08:44:18Z</time></trkpt><trkpt lat="44.67199694547843" lon="7.910961793770621"><ele>239.0</ele><time>2026-04-11T08:44:20Z</time></trkpt><trkpt lat="44.671941510912696" lon="7.910918946296943"><ele>239.0</ele><time>2026-04-11T08:44:21Z</time></trkpt><trkpt lat="44.67182061643139" lon="7.910845922747862"><ele>239.33333333333334</ele><time>2026-04-11T08:44:23Z</time></trkpt><trkpt lat="44.67169040617274" lon="7.910841455486574"><ele>239.66666666666669</ele><time>2026-04-11T08:44:25Z</time></trkpt><trkpt lat="44.67156627061689" lon="7.910826100609832"><ele>240.0</ele><time>2026-04-11T08:44:27Z</time></trkpt><trkpt lat="44.6715024313526" lon="7.910820572308431"><ele>240.33333333333331</ele><time>2026-04-11T08:44:28Z</time></trkpt><trkpt lat="44.67143903953412" lon="7.9108207112747335"><ele>240.66666666666666</ele><time>2026-04-11T08:44:29Z</time></trkpt><trkpt lat="44.67137498654144" lon="7.910815024349314"><ele>241.0</ele><time>2026-04-11T08:44:30Z</time></trkpt><trkpt lat="44.671312021478066" lon="7.910813997450975"><ele>241.0</ele><time>2026-04-11T08:44:31Z</time></trkpt><trkpt lat="44.67124659854844" lon="7.910813052533961"><ele>241.00000000000003</ele><time>2026-04-11T08:44:32Z</time></trkpt><trkpt lat="44.67112089270207" lon="7.91081814018754"><ele>241.00000000000003</ele><time>2026-04-11T08:44:34Z</time></trkpt><trkpt lat="44.67099893069698" lon="7.9108063459946925"><ele>241.0</ele><time>2026-04-11T08:44:36Z</time></trkpt><trkpt lat="44.670879173594955" lon="7.9108102535732865"><ele>241.0</ele><time>2026-04-11T08:44:38Z</time></trkpt><trkpt lat="44.670759525499186" lon="7.910801873548965"><ele>241.5</ele><time>2026-04-11T08:44:40Z</time></trkpt><trkpt lat="44.67064287193634" lon="7.910802469851038"><ele>242.0</ele><time>2026-04-11T08:44:42Z</time></trkpt><trkpt lat="44.67052713127223" lon="7.9108023382728785"><ele>242.5</ele><time>2026-04-11T08:44:44Z</time></trkpt><trkpt lat="44.67041851570422" lon="7.9108027323245915"><ele>243.0</ele><time>2026-04-11T08:44:46Z</time></trkpt><trkpt lat="44.67030935841248" lon="7.91079370009347"><ele>244.2</ele><time>2026-04-11T08:44:48Z</time></trkpt><trkpt lat="44.6702058137394" lon="7.91079138769658"><ele>245.4</ele><time>2026-04-11T08:44:50Z</time></trkpt><trkpt lat="44.6701075416472" lon="7.910782935696309"><ele>246.59999999999997</ele><time>2026-04-11T08:44:52Z</time></trkpt><trkpt lat="44.67001045528294" lon="7.910775051802466"><ele>247.79999999999998</ele><time>2026-04-11T08:44:54Z</time></trkpt><trkpt lat="44.66991808928502" lon="7.910754832488504"><ele>249.0</ele><time>2026-04-11T08:44:55.999Z</time></trkpt><trkpt lat="44.66982476022582" lon="7.9107367671540345"><ele>249.0</ele><time>2026-04-11T08:44:57.999Z</time></trkpt><trkpt lat="44.6697325026997" lon="7.910703290716566"><ele>248.99999999999997</ele><time>2026-04-11T08:44:59.999Z</time></trkpt><trkpt lat="44.66964540485068" lon="7.9106674489035"><ele>248.99999999999997</ele><time>2026-04-11T08:45:01.999Z</time></trkpt><trkpt lat="44.669554962964185" lon="7.910620494443898"><ele>249.0</ele><time>2026-04-11T08:45:03.999Z</time></trkpt><trkpt lat="44.66946887874916" lon="7.910584970654"><ele>249.0</ele><time>2026-04-11T08:45:05.999Z</time></trkpt><trkpt lat="44.669381888763816" lon="7.9105408970359745"><ele>249.6</ele><time>2026-04-11T08:45:07.999Z</time></trkpt><trkpt lat="44.66929743194089" lon="7.9105009076759325"><ele>250.2</ele><time>2026-04-11T08:45:09.999Z</time></trkpt><trkpt lat="44.66921215585041" lon="7.910453832781338"><ele>250.79999999999998</ele><time>2026-04-11T08:45:11.999Z</time></trkpt><trkpt lat="44.669126507389535" lon="7.91041448420576"><ele>251.39999999999998</ele><time>2026-04-11T08:45:13.999Z</time></trkpt><trkpt lat="44.6690395847159" lon="7.910368427194199"><ele>252.0</ele><time>2026-04-11T08:45:16Z</time></trkpt><trkpt lat="44.66895519249661" lon="7.91032856909949"><ele>252.0</ele><time>2026-04-11T08:45:18Z</time></trkpt><trkpt lat="44.66887275428246" lon="7.910287220305396"><ele>252.0</ele><time>2026-04-11T08:45:20Z</time></trkpt><trkpt lat="44.668785321586775" lon="7.910256943206082"><ele>252.0</ele><time>2026-04-11T08:45:22Z</time></trkpt><trkpt lat="44.668707332867626" lon="7.910210574462138"><ele>252.0</ele><time>2026-04-11T08:45:24Z</time></trkpt><trkpt lat="44.66863089198608" lon="7.910169736728818"><ele>252.0</ele><time>2026-04-11T08:45:26Z</time></trkpt><trkpt lat="44.66855278360399" lon="7.9101345883774705"><ele>252.0</ele><time>2026-04-11T08:45:28Z</time></trkpt><trkpt lat="44.6684739110128" lon="7.9100911609818505"><ele>253.39999999999998</ele><time>2026-04-11T08:45:30Z</time></trkpt><trkpt lat="44.668394027303286" lon="7.910044257058832"><ele>254.79999999999998</ele><time>2026-04-11T08:45:32Z</time></trkpt><trkpt lat="44.66831370111473" lon="7.910006519133997"><ele>256.2</ele><time>2026-04-11T08:45:34Z</time></trkpt><trkpt lat="44.66821906983211" lon="7.909958708797716"><ele>257.59999999999997</ele><time>2026-04-11T08:45:37Z</time></trkpt><trkpt lat="44.66813080841554" lon="7.909911971420521"><ele>259.0</ele><time>2026-04-11T08:45:39Z</time></trkpt><trkpt lat="44.6680455550756" lon="7.90987190198936"><ele>259.0</ele><time>2026-04-11T08:45:41Z</time></trkpt><trkpt lat="44.667964896908494" lon="7.909830973356645"><ele>259.0</ele><time>2026-04-11T08:45:43Z</time></trkpt><trkpt lat="44.667883658594235" lon="7.909792735378841"><ele>259.0</ele><time>2026-04-11T08:45:45Z</time></trkpt><trkpt lat="44.66780367494767" lon="7.909757821595533"><ele>259.0</ele><time>2026-04-11T08:45:47Z</time></trkpt><trkpt lat="44.66771588060565" lon="7.909722449549001"><ele>259.0</ele><time>2026-04-11T08:45:49Z</time></trkpt><trkpt lat="44.66764268990299" lon="7.90967131523815"><ele>259.0</ele><time>2026-04-11T08:45:51Z</time></trkpt><trkpt lat="44.667558495321344" lon="7.9096368520396405"><ele>259.5</ele><time>2026-04-11T08:45:53Z</time></trkpt><trkpt lat="44.6674741312068" lon="7.909589570354602"><ele>260.0</ele><time>2026-04-11T08:45:55Z</time></trkpt><trkpt lat="44.66739566956095" lon="7.9095475188404025"><ele>260.5</ele><time>2026-04-11T08:45:57Z</time></trkpt><trkpt lat="44.667309161414025" lon="7.909514282975051"><ele>261.0</ele><time>2026-04-11T08:45:59Z</time></trkpt><trkpt lat="44.6672244216318" lon="7.909499591192085"><ele>261.5</ele><time>2026-04-11T08:46:01Z</time></trkpt><trkpt lat="44.6671406227213" lon="7.9095223122162786"><ele>262.0</ele><time>2026-04-11T08:46:03Z</time></trkpt><trkpt lat="44.667045649593966" lon="7.909578412615405"><ele>262.0</ele><time>2026-04-11T08:46:05Z</time></trkpt><trkpt lat="44.666960685079246" lon="7.909657725534295"><ele>262.0</ele><time>2026-04-11T08:46:07Z</time></trkpt><trkpt lat="44.666881338664595" lon="7.90974214715241"><ele>262.0</ele><time>2026-04-11T08:46:09Z</time></trkpt><trkpt lat="44.66679774301024" lon="7.909814818708962"><ele>262.0</ele><time>2026-04-11T08:46:11Z</time></trkpt><trkpt lat="44.66672266332206" lon="7.909894161993074"><ele>262.0</ele><time>2026-04-11T08:46:13Z</time></trkpt><trkpt lat="44.66666120287463" lon="7.909993116901375"><ele>262.8</ele><time>2026-04-11T08:46:15Z</time></trkpt><trkpt lat="44.66658802855943" lon="7.91006906772305"><ele>263.6</ele><time>2026-04-11T08:46:17Z</time></trkpt><trkpt lat="44.66651802192665" lon="7.910149309298105"><ele>264.40000000000003</ele><time>2026-04-11T08:46:19Z</time></trkpt><trkpt lat="44.66644637921437" lon="7.91022690080708"><ele>265.2</ele><time>2026-04-11T08:46:21Z</time></trkpt><trkpt lat="44.666376862512706" lon="7.910309712142746"><ele>266.0</ele><time>2026-04-11T08:46:23Z</time></trkpt><trkpt lat="44.66631055867575" lon="7.910394619198641"><ele>266.0</ele><time>2026-04-11T08:46:25Z</time></trkpt><trkpt lat="44.66624409503375" lon="7.910473302746194"><ele>266.0</ele><time>2026-04-11T08:46:27Z</time></trkpt><trkpt lat="44.66618103223691" lon="7.9105613250588185"><ele>266.0</ele><time>2026-04-11T08:46:29Z</time></trkpt><trkpt lat="44.666123997162984" lon="7.910655828444622"><ele>266.0</ele><time>2026-04-11T08:46:31Z</time></trkpt><trkpt lat="44.666069918989116" lon="7.910744132579934"><ele>266.0</ele><time>2026-04-11T08:46:33Z</time></trkpt><trkpt lat="44.66602347503565" lon="7.910837187414257"><ele>266.0</ele><time>2026-04-11T08:46:35Z</time></trkpt><trkpt lat="44.66598188938834" lon="7.910928086680332"><ele>268.33333333333337</ele><time>2026-04-11T08:46:37Z</time></trkpt><trkpt lat="44.665933403348326" lon="7.910988740173603"><ele>270.6666666666667</ele><time>2026-04-11T08:46:39Z</time></trkpt><trkpt lat="44.66588476723874" lon="7.9111117156340685"><ele>273.0</ele><time>2026-04-11T08:46:41Z</time></trkpt><trkpt lat="44.66584815776051" lon="7.911203032118404"><ele>275.3333333333333</ele><time>2026-04-11T08:46:43Z</time></trkpt><trkpt lat="44.66582133365575" lon="7.911294948633502"><ele>277.66666666666663</ele><time>2026-04-11T08:46:46Z</time></trkpt><trkpt lat="44.66579099926345" lon="7.91139052055652"><ele>280.0</ele><time>2026-04-11T08:46:47Z</time></trkpt><trkpt lat="44.665768827907144" lon="7.9114789931278375"><ele>280.0</ele><time>2026-04-11T08:46:49Z</time></trkpt><trkpt lat="44.66573051079298" lon="7.911573622760063"><ele>280.0</ele><time>2026-04-11T08:46:51Z</time></trkpt><trkpt lat="44.66569181841664" lon="7.911677436292492"><ele>280.0</ele><time>2026-04-11T08:46:53Z</time></trkpt><trkpt lat="44.66565757888352" lon="7.911796126491431"><ele>280.0</ele><time>2026-04-11T08:46:55Z</time></trkpt><trkpt lat="44.66562103460929" lon="7.911907113599104"><ele>280.0</ele><time>2026-04-11T08:46:56.999Z</time></trkpt><trkpt lat="44.66558836430967" lon="7.912012085813392"><ele>280.0</ele><time>2026-04-11T08:46:58.999Z</time></trkpt><trkpt lat="44.66554427249716" lon="7.91211430675365"><ele>280.8333333333333</ele><time>2026-04-11T08:47:00.999Z</time></trkpt><trkpt lat="44.665512542221656" lon="7.912222838133497"><ele>281.66666666666663</ele><time>2026-04-11T08:47:02.999Z</time></trkpt><trkpt lat="44.66547286742476" lon="7.9123236350708925"><ele>282.5</ele><time>2026-04-11T08:47:04.999Z</time></trkpt><trkpt lat="44.66544891604674" lon="7.912421760359052"><ele>283.3333333333333</ele><time>2026-04-11T08:47:06.999Z</time></trkpt><trkpt lat="44.66541460540325" lon="7.912520538125009"><ele>284.1666666666667</ele><time>2026-04-11T08:47:08.999Z</time></trkpt><trkpt lat="44.66537674987229" lon="7.912617871219395"><ele>285.0</ele><time>2026-04-11T08:47:10.999Z</time></trkpt><trkpt lat="44.665329879329214" lon="7.912707459913799"><ele>285.57142857142856</ele><time>2026-04-11T08:47:12.999Z</time></trkpt><trkpt lat="44.66528828244813" lon="7.912788269822534"><ele>286.14285714285717</ele><time>2026-04-11T08:47:14.999Z</time></trkpt><trkpt lat="44.665233949136116" lon="7.912855269364223"><ele>286.7142857142857</ele><time>2026-04-11T08:47:16.999Z</time></trkpt><trkpt lat="44.66518051265211" lon="7.912918286405039"><ele>287.2857142857143</ele><time>2026-04-11T08:47:18.999Z</time></trkpt><trkpt lat="44.66512871670309" lon="7.912983973955651"><ele>287.85714285714283</ele><time>2026-04-11T08:47:20.999Z</time></trkpt><trkpt lat="44.6650771324634" lon="7.91304432212766"><ele>288.42857142857144</ele><time>2026-04-11T08:47:23Z</time></trkpt><trkpt lat="44.665013741248906" lon="7.91309099074415"><ele>289.0</ele><time>2026-04-11T08:47:25Z</time></trkpt><trkpt lat="44.664953988930236" lon="7.9131445135794864"><ele>289.7142857142857</ele><time>2026-04-11T08:47:27Z</time></trkpt><trkpt lat="44.66489533834517" lon="7.913198356617082"><ele>290.42857142857144</ele><time>2026-04-11T08:47:29Z</time></trkpt><trkpt lat="44.66482649503885" lon="7.913257254889655"><ele>291.1428571428571</ele><time>2026-04-11T08:47:31Z</time></trkpt><trkpt lat="44.6647658561996" lon="7.913307631471622"><ele>291.8571428571429</ele><time>2026-04-11T08:47:33Z</time></trkpt><trkpt lat="44.66469608303115" lon="7.913322660616005"><ele>292.57142857142856</ele><time>2026-04-11T08:47:35Z</time></trkpt><trkpt lat="44.66462096058038" lon="7.91333603716276"><ele>293.2857142857143</ele><time>2026-04-11T08:47:37Z</time></trkpt><trkpt lat="44.6645506569656" lon="7.913357194942239"><ele>294.0</ele><time>2026-04-11T08:47:39Z</time></trkpt><trkpt lat="44.66448155589452" lon="7.9133802085132805"><ele>295.2857142857143</ele><time>2026-04-11T08:47:41Z</time></trkpt><trkpt lat="44.66441365871311" lon="7.913435411735718"><ele>296.57142857142856</ele><time>2026-04-11T08:47:43Z</time></trkpt><trkpt lat="44.66435018693544" lon="7.91350194853162"><ele>297.8571428571429</ele><time>2026-04-11T08:47:45Z</time></trkpt><trkpt lat="44.66429704226883" lon="7.913572655465966"><ele>299.1428571428571</ele><time>2026-04-11T08:47:47Z</time></trkpt><trkpt lat="44.66425588142149" lon="7.913656863028739"><ele>300.42857142857144</ele><time>2026-04-11T08:47:49Z</time></trkpt><trkpt lat="44.664213652758676" lon="7.913737979062063"><ele>301.7142857142857</ele><time>2026-04-11T08:47:51Z</time></trkpt><trkpt lat="44.66416880339146" lon="7.91381648741471"><ele>303.0</ele><time>2026-04-11T08:47:53Z</time></trkpt><trkpt lat="44.664126450994786" lon="7.913902329024804"><ele>303.0</ele><time>2026-04-11T08:47:55Z</time></trkpt><trkpt lat="44.664085883598055" lon="7.913990060127846"><ele>303.0</ele><time>2026-04-11T08:47:57Z</time></trkpt><trkpt lat="44.66404338483691" lon="7.914073852755919"><ele>303.0</ele><time>2026-04-11T08:47:59Z</time></trkpt><trkpt lat="44.663997044456394" lon="7.914169185653263"><ele>303.0</ele><time>2026-04-11T08:48:02Z</time></trkpt><trkpt lat="44.66394562292449" lon="7.914293660095996"><ele>303.0</ele><time>2026-04-11T08:48:04Z</time></trkpt><trkpt lat="44.6639052832811" lon="7.914364242714586"><ele>303.0</ele><time>2026-04-11T08:48:06Z</time></trkpt><trkpt lat="44.66386362543045" lon="7.914440726677716"><ele>303.7142857142857</ele><time>2026-04-11T08:48:08Z</time></trkpt><trkpt lat="44.66382024637039" lon="7.9145102544415"><ele>304.42857142857144</ele><time>2026-04-11T08:48:10Z</time></trkpt><trkpt lat="44.663775090668814" lon="7.91457953959314"><ele>305.1428571428571</ele><time>2026-04-11T08:48:12Z</time></trkpt><trkpt lat="44.66372825858056" lon="7.914638864581289"><ele>305.8571428571429</ele><time>2026-04-11T08:48:14Z</time></trkpt><trkpt lat="44.66367987405262" lon="7.914695933332335"><ele>306.57142857142856</ele><time>2026-04-11T08:48:16Z</time></trkpt><trkpt lat="44.66363039082858" lon="7.914760535698068"><ele>307.2857142857143</ele><time>2026-04-11T08:48:18Z</time></trkpt><trkpt lat="44.663583694128484" lon="7.9148203389085285"><ele>308.0</ele><time>2026-04-11T08:48:20Z</time></trkpt><trkpt lat="44.663536440015356" lon="7.914888191772394"><ele>308.0</ele><time>2026-04-11T08:48:22Z</time></trkpt><trkpt lat="44.663479098426215" lon="7.914924964292073"><ele>308.0</ele><time>2026-04-11T08:48:24Z</time></trkpt><trkpt lat="44.66343216245407" lon="7.914995784896536"><ele>308.0</ele><time>2026-04-11T08:48:27Z</time></trkpt><trkpt lat="44.66337658698236" lon="7.915071929970821"><ele>308.0</ele><time>2026-04-11T08:48:28Z</time></trkpt><trkpt lat="44.66332388845446" lon="7.915133388480301"><ele>308.0</ele><time>2026-04-11T08:48:30Z</time></trkpt><trkpt lat="44.66327386313465" lon="7.915195950098505"><ele>308.0</ele><time>2026-04-11T08:48:32Z</time></trkpt><trkpt lat="44.66321726062983" lon="7.91525792190026"><ele>308.0</ele><time>2026-04-11T08:48:34Z</time></trkpt><trkpt lat="44.663162253786176" lon="7.915319677005862"><ele>309.42857142857144</ele><time>2026-04-11T08:48:36Z</time></trkpt><trkpt lat="44.66311529614026" lon="7.915388722598119"><ele>310.8571428571429</ele><time>2026-04-11T08:48:38Z</time></trkpt><trkpt lat="44.66306669149603" lon="7.915453856120712"><ele>312.2857142857143</ele><time>2026-04-11T08:48:40Z</time></trkpt><trkpt lat="44.66301556571813" lon="7.915513498963254"><ele>313.7142857142857</ele><time>2026-04-11T08:48:42Z</time></trkpt><trkpt lat="44.66296202150307" lon="7.915580739236118"><ele>315.14285714285717</ele><time>2026-04-11T08:48:44Z</time></trkpt><trkpt lat="44.66291384061651" lon="7.915647371778556"><ele>316.57142857142856</ele><time>2026-04-11T08:48:46Z</time></trkpt><trkpt lat="44.66284708854575" lon="7.915700951886883"><ele>318.0</ele><time>2026-04-11T08:48:48Z</time></trkpt><trkpt lat="44.66280319923176" lon="7.915767216836542"><ele>318.6666666666667</ele><time>2026-04-11T08:48:50.999Z</time></trkpt><trkpt lat="44.66272191019796" lon="7.915927068658062"><ele>319.3333333333333</ele><time>2026-04-11T08:48:53.999Z</time></trkpt><trkpt lat="44.66266784987647" lon="7.915993644527381"><ele>320.0</ele><time>2026-04-11T08:48:55.999Z</time></trkpt><trkpt lat="44.662630801161164" lon="7.916070731847826"><ele>320.66666666666663</ele><time>2026-04-11T08:48:57.999Z</time></trkpt><trkpt lat="44.66259165167997" lon="7.916149329561251"><ele>321.3333333333333</ele><time>2026-04-11T08:48:59.999Z</time></trkpt><trkpt lat="44.662560705865765" lon="7.916239124827559"><ele>322.0</ele><time>2026-04-11T08:49:01.999Z</time></trkpt><trkpt lat="44.6625363033587" lon="7.916341159113621"><ele>322.0</ele><time>2026-04-11T08:49:03.999Z</time></trkpt><trkpt lat="44.66251598867708" lon="7.916438485419776"><ele>322.0</ele><time>2026-04-11T08:49:05.999Z</time></trkpt><trkpt lat="44.66249370332828" lon="7.916544123977287"><ele>322.0</ele><time>2026-04-11T08:49:07.999Z</time></trkpt><trkpt lat="44.66247420847096" lon="7.9166437910715"><ele>322.0</ele><time>2026-04-11T08:49:09.999Z</time></trkpt><trkpt lat="44.66242408452928" lon="7.9167539894936585"><ele>322.0</ele><time>2026-04-11T08:49:12.999Z</time></trkpt><trkpt lat="44.662403659414174" lon="7.916842650131114"><ele>322.0</ele><time>2026-04-11T08:49:14.999Z</time></trkpt><trkpt lat="44.662376286569774" lon="7.91693782385297"><ele>323.0</ele><time>2026-04-11T08:49:16.999Z</time></trkpt><trkpt lat="44.66234968084466" lon="7.917036827573914"><ele>324.0</ele><time>2026-04-11T08:49:18.999Z</time></trkpt><trkpt lat="44.66231781232987" lon="7.917124688971565"><ele>325.0</ele><time>2026-04-11T08:49:20.999Z</time></trkpt><trkpt lat="44.66228860265732" lon="7.9172264538540915"><ele>326.0</ele><time>2026-04-11T08:49:22.999Z</time></trkpt><trkpt lat="44.66226256702383" lon="7.917324814816609"><ele>327.0</ele><time>2026-04-11T08:49:24.999Z</time></trkpt><trkpt lat="44.662245004336285" lon="7.917417835570227"><ele>328.0</ele><time>2026-04-11T08:49:26.999Z</time></trkpt><trkpt lat="44.6622173525924" lon="7.917504975613582"><ele>329.0</ele><time>2026-04-11T08:49:30Z</time></trkpt><trkpt lat="44.662208644406746" lon="7.917600230394747"><ele>329.83333333333337</ele><time>2026-04-11T08:49:32Z</time></trkpt><trkpt lat="44.66228466648864" lon="7.917758089034074"><ele>330.6666666666667</ele><time>2026-04-11T08:49:35Z</time></trkpt><trkpt lat="44.6623288316093" lon="7.917839828443886"><ele>331.5</ele><time>2026-04-11T08:49:37Z</time></trkpt><trkpt lat="44.662371535430346" lon="7.917917404699723"><ele>332.3333333333333</ele><time>2026-04-11T08:49:39Z</time></trkpt><trkpt lat="44.66240830421179" lon="7.9180079018357"><ele>333.16666666666663</ele><time>2026-04-11T08:49:41Z</time></trkpt><trkpt lat="44.66244622680586" lon="7.918103266332411"><ele>334.0</ele><time>2026-04-11T08:49:43Z</time></trkpt><trkpt lat="44.6624897130779" lon="7.918198750307355"><ele>334.0</ele><time>2026-04-11T08:49:45Z</time></trkpt><trkpt lat="44.662527724429815" lon="7.918298909583166"><ele>334.0</ele><time>2026-04-11T08:49:47Z</time></trkpt><trkpt lat="44.66256599624141" lon="7.918419431235473"><ele>334.0</ele><time>2026-04-11T08:49:50Z</time></trkpt><trkpt lat="44.66261498505529" lon="7.918517790854739"><ele>334.0</ele><time>2026-04-11T08:49:52Z</time></trkpt><trkpt lat="44.66266052775346" lon="7.918610129503434"><ele>334.0</ele><time>2026-04-11T08:49:54Z</time></trkpt><trkpt lat="44.66270731583962" lon="7.918713087590578"><ele>334.0</ele><time>2026-04-11T08:49:56Z</time></trkpt><trkpt lat="44.662756278345725" lon="7.918829941139602"><ele>334.0</ele><time>2026-04-11T08:49:58Z</time></trkpt><trkpt lat="44.66280402165522" lon="7.918935827622019"><ele>334.0</ele><time>2026-04-11T08:50:00Z</time></trkpt><trkpt lat="44.6628510977744" lon="7.919043626489054"><ele>334.0</ele><time>2026-04-11T08:50:02Z</time></trkpt><trkpt lat="44.66291748275869" lon="7.919188096764616"><ele>334.0</ele><time>2026-04-11T08:50:05Z</time></trkpt><trkpt lat="44.662949171308256" lon="7.9192737465419"><ele>334.0</ele><time>2026-04-11T08:50:07Z</time></trkpt><trkpt lat="44.66302335523761" lon="7.919421828115889"><ele>334.0</ele><time>2026-04-11T08:50:09Z</time></trkpt><trkpt lat="44.66305347267941" lon="7.919533916380276"><ele>334.0</ele><time>2026-04-11T08:50:11Z</time></trkpt><trkpt lat="44.663078101987935" lon="7.919650281193413"><ele>334.0</ele><time>2026-04-11T08:50:13Z</time></trkpt><trkpt lat="44.66309518957842" lon="7.919768895122799"><ele>334.0</ele><time>2026-04-11T08:50:15Z</time></trkpt><trkpt lat="44.66310490312122" lon="7.919885180537704"><ele>334.0</ele><time>2026-04-11T08:50:17Z</time></trkpt><trkpt lat="44.6631063606586" lon="7.920002192615357"><ele>334.0</ele><time>2026-04-11T08:50:19Z</time></trkpt><trkpt lat="44.66311156336024" lon="7.920113518660832"><ele>334.8333333333333</ele><time>2026-04-11T08:50:21Z</time></trkpt><trkpt lat="44.66310579386892" lon="7.920228390703906"><ele>335.66666666666663</ele><time>2026-04-11T08:50:23Z</time></trkpt><trkpt lat="44.663109833217284" lon="7.920347106077725"><ele>336.5</ele><time>2026-04-11T08:50:25Z</time></trkpt><trkpt lat="44.663112031485454" lon="7.920465881785239"><ele>337.3333333333333</ele><time>2026-04-11T08:50:27Z</time></trkpt><trkpt lat="44.66309550623926" lon="7.920583096808414"><ele>338.1666666666667</ele><time>2026-04-11T08:50:29Z</time></trkpt><trkpt lat="44.663099193781484" lon="7.920700570231415"><ele>339.0</ele><time>2026-04-11T08:50:31Z</time></trkpt><trkpt lat="44.663101991939286" lon="7.920818516771776"><ele>339.8333333333333</ele><time>2026-04-11T08:50:33Z</time></trkpt><trkpt lat="44.66310333788076" lon="7.920938062146846"><ele>340.6666666666667</ele><time>2026-04-11T08:50:35Z</time></trkpt><trkpt lat="44.66310709887136" lon="7.921059203037458"><ele>341.5</ele><time>2026-04-11T08:50:37Z</time></trkpt><trkpt lat="44.663112969927454" lon="7.9211770374060295"><ele>342.33333333333337</ele><time>2026-04-11T08:50:39Z</time></trkpt><trkpt lat="44.6631243873403" lon="7.921294381512223"><ele>343.1666666666667</ele><time>2026-04-11T08:50:41Z</time></trkpt><trkpt lat="44.663134720986456" lon="7.921420103443525"><ele>344.0</ele><time>2026-04-11T08:50:43Z</time></trkpt><trkpt lat="44.66314378067766" lon="7.921549653303045"><ele>344.0</ele><time>2026-04-11T08:50:45Z</time></trkpt><trkpt lat="44.663152804940665" lon="7.921676711851884"><ele>344.0</ele><time>2026-04-11T08:50:47Z</time></trkpt><trkpt lat="44.66316590559207" lon="7.921808205705808"><ele>344.0</ele><time>2026-04-11T08:50:48.999Z</time></trkpt><trkpt lat="44.66316712628792" lon="7.921944440675547"><ele>344.0</ele><time>2026-04-11T08:50:50.999Z</time></trkpt><trkpt lat="44.66318471564978" lon="7.922086165655267"><ele>344.0</ele><time>2026-04-11T08:50:52.999Z</time></trkpt><trkpt lat="44.66319591664" lon="7.922204814559125"><ele>345.4</ele><time>2026-04-11T08:50:54.999Z</time></trkpt><trkpt lat="44.66320216531612" lon="7.92234105102405"><ele>346.79999999999995</ele><time>2026-04-11T08:50:56.999Z</time></trkpt><trkpt lat="44.66322327821077" lon="7.922475390668757"><ele>348.20000000000005</ele><time>2026-04-11T08:50:58.999Z</time></trkpt><trkpt lat="44.66324021389523" lon="7.922607715908661"><ele>349.6</ele><time>2026-04-11T08:51:00.999Z</time></trkpt><trkpt lat="44.66326155877924" lon="7.922733515596582"><ele>351.0</ele><time>2026-04-11T08:51:02.999Z</time></trkpt><trkpt lat="44.66329655117841" lon="7.922854276057752"><ele>351.4</ele><time>2026-04-11T08:51:04.999Z</time></trkpt><trkpt lat="44.66333473394138" lon="7.922972121009627"><ele>351.8</ele><time>2026-04-11T08:51:06.999Z</time></trkpt><trkpt lat="44.66338347788494" lon="7.923091084672806"><ele>352.2</ele><time>2026-04-11T08:51:08.999Z</time></trkpt><trkpt lat="44.6634334208336" lon="7.923216737418135"><ele>352.59999999999997</ele><time>2026-04-11T08:51:10.999Z</time></trkpt><trkpt lat="44.663476201201874" lon="7.923300219277591"><ele>353.0</ele><time>2026-04-11T08:51:12.999Z</time></trkpt><trkpt lat="44.66356006128377" lon="7.923428288795154"><ele>353.4</ele><time>2026-04-11T08:51:13.999Z</time></trkpt><trkpt lat="44.66359450838269" lon="7.923503203792227"><ele>353.79999999999995</ele><time>2026-04-11T08:51:14.999Z</time></trkpt><trkpt lat="44.66365922742652" lon="7.92364579473"><ele>354.2</ele><time>2026-04-11T08:51:16.999Z</time></trkpt><trkpt lat="44.66369245120208" lon="7.923722383857486"><ele>354.6</ele><time>2026-04-11T08:51:17.999Z</time></trkpt><trkpt lat="44.66376387679092" lon="7.923865465807918"><ele>355.0</ele><time>2026-04-11T08:51:19.999Z</time></trkpt><trkpt lat="44.663841662500815" lon="7.924004830952569"><ele>354.5</ele><time>2026-04-11T08:51:21.999Z</time></trkpt><trkpt lat="44.663878990302564" lon="7.924078370419217"><ele>354.0</ele><time>2026-04-11T08:51:22.999Z</time></trkpt><trkpt lat="44.66390112898732" lon="7.924165758847273"><ele>353.5</ele><time>2026-04-11T08:51:23.999Z</time></trkpt><trkpt lat="44.66393733365294" lon="7.924242551493534"><ele>353.0</ele><time>2026-04-11T08:51:24.999Z</time></trkpt><trkpt lat="44.66400514845254" lon="7.924389022166353"><ele>352.5</ele><time>2026-04-11T08:51:26.999Z</time></trkpt><trkpt lat="44.66406734933627" lon="7.92453675323249"><ele>352.0</ele><time>2026-04-11T08:51:28.999Z</time></trkpt><trkpt lat="44.66413593188422" lon="7.924672468100326"><ele>352.0</ele><time>2026-04-11T08:51:30.999Z</time></trkpt><trkpt lat="44.66416096080491" lon="7.9248133422996165"><ele>352.0</ele><time>2026-04-11T08:51:32.999Z</time></trkpt><trkpt lat="44.664207088689174" lon="7.9249467638495"><ele>352.0</ele><time>2026-04-11T08:51:35Z</time></trkpt><trkpt lat="44.66424304037647" lon="7.925073916942288"><ele>352.0</ele><time>2026-04-11T08:51:37Z</time></trkpt><trkpt lat="44.664283554317336" lon="7.925193469936788"><ele>352.0</ele><time>2026-04-11T08:51:39Z</time></trkpt><trkpt lat="44.664319723607235" lon="7.925313014661233"><ele>351.5</ele><time>2026-04-11T08:51:41Z</time></trkpt><trkpt lat="44.66433446161751" lon="7.925417257498768"><ele>351.0</ele><time>2026-04-11T08:51:43Z</time></trkpt><trkpt lat="44.6643700637092" lon="7.92551937590411"><ele>350.5</ele><time>2026-04-11T08:51:45Z</time></trkpt><trkpt lat="44.6644114970564" lon="7.925640408189171"><ele>350.0</ele><time>2026-04-11T08:51:47Z</time></trkpt><trkpt lat="44.66444440529422" lon="7.925744615081431"><ele>349.5</ele><time>2026-04-11T08:51:49Z</time></trkpt><trkpt lat="44.66447804082265" lon="7.925846511768314"><ele>349.0</ele><time>2026-04-11T08:51:51Z</time></trkpt><trkpt lat="44.664509660025054" lon="7.925951260326358"><ele>350.4</ele><time>2026-04-11T08:51:53Z</time></trkpt><trkpt lat="44.664546433329654" lon="7.926056939064817"><ele>351.79999999999995</ele><time>2026-04-11T08:51:55Z</time></trkpt><trkpt lat="44.66459003898897" lon="7.926218063513795"><ele>353.20000000000005</ele><time>2026-04-11T08:51:58Z</time></trkpt><trkpt lat="44.664617872723184" lon="7.926316427933801"><ele>354.6</ele><time>2026-04-11T08:52:00Z</time></trkpt><trkpt lat="44.664646502214836" lon="7.92643712374152"><ele>356.0</ele><time>2026-04-11T08:52:02Z</time></trkpt><trkpt lat="44.66468259343627" lon="7.926571356535239"><ele>356.0</ele><time>2026-04-11T08:52:04Z</time></trkpt><trkpt lat="44.66472172836321" lon="7.926707333274213"><ele>356.0</ele><time>2026-04-11T08:52:06Z</time></trkpt><trkpt lat="44.66476907778035" lon="7.926829373547551"><ele>356.0</ele><time>2026-04-11T08:52:08Z</time></trkpt><trkpt lat="44.664805816548046" lon="7.9269534658875225"><ele>356.0</ele><time>2026-04-11T08:52:10Z</time></trkpt><trkpt lat="44.664839297730396" lon="7.927072523105053"><ele>356.0</ele><time>2026-04-11T08:52:12Z</time></trkpt><trkpt lat="44.664874107246824" lon="7.92719532335628"><ele>356.6</ele><time>2026-04-11T08:52:14Z</time></trkpt><trkpt lat="44.66491073239272" lon="7.92730692593594"><ele>357.20000000000005</ele><time>2026-04-11T08:52:16Z</time></trkpt><trkpt lat="44.664945184584646" lon="7.927421191619523"><ele>357.79999999999995</ele><time>2026-04-11T08:52:18Z</time></trkpt><trkpt lat="44.66497884557089" lon="7.927539829377866"><ele>358.4</ele><time>2026-04-11T08:52:20Z</time></trkpt><trkpt lat="44.6650096720119" lon="7.9276569973496445"><ele>359.0</ele><time>2026-04-11T08:52:22Z</time></trkpt><trkpt lat="44.6650415307667" lon="7.927782566090502"><ele>359.2</ele><time>2026-04-11T08:52:24Z</time></trkpt><trkpt lat="44.66508455759845" lon="7.927924570548786"><ele>359.4</ele><time>2026-04-11T08:52:26Z</time></trkpt><trkpt lat="44.665123730951336" lon="7.928048406158341"><ele>359.6</ele><time>2026-04-11T08:52:28Z</time></trkpt><trkpt lat="44.665165726462455" lon="7.928196669268302"><ele>359.8</ele><time>2026-04-11T08:52:30Z</time></trkpt><trkpt lat="44.66520576124164" lon="7.928323988626449"><ele>360.0</ele><time>2026-04-11T08:52:32Z</time></trkpt><trkpt lat="44.66524795751005" lon="7.928463305051931"><ele>359.4</ele><time>2026-04-11T08:52:34Z</time></trkpt><trkpt lat="44.66528907381256" lon="7.928609559188381"><ele>358.8</ele><time>2026-04-11T08:52:36Z</time></trkpt><trkpt lat="44.665334380194224" lon="7.928755818053655"><ele>358.20000000000005</ele><time>2026-04-11T08:52:38Z</time></trkpt><trkpt lat="44.665384044050036" lon="7.92890140404212"><ele>357.6</ele><time>2026-04-11T08:52:40Z</time></trkpt><trkpt lat="44.665394747463" lon="7.929019268179642"><ele>357.0</ele><time>2026-04-11T08:52:41.999Z</time></trkpt><trkpt lat="44.66530959915326" lon="7.928985016009036"><ele>357.1666666666667</ele><time>2026-04-11T08:52:44.999Z</time></trkpt><trkpt lat="44.66523507849076" lon="7.928883219865891"><ele>357.3333333333333</ele><time>2026-04-11T08:52:47.999Z</time></trkpt><trkpt lat="44.665173075978835" lon="7.928818615384475"><ele>357.5</ele><time>2026-04-11T08:52:49.999Z</time></trkpt><trkpt lat="44.66511129398498" lon="7.928750861326675"><ele>357.66666666666663</ele><time>2026-04-11T08:52:51.999Z</time></trkpt><trkpt lat="44.66504518162967" lon="7.928691551565822"><ele>357.8333333333333</ele><time>2026-04-11T08:52:53.999Z</time></trkpt><trkpt lat="44.66497664552808" lon="7.928626608541552"><ele>358.0</ele><time>2026-04-11T08:52:55.999Z</time></trkpt><trkpt lat="44.66490877623072" lon="7.928556584583141"><ele>358.0</ele><time>2026-04-11T08:52:57.999Z</time></trkpt><trkpt lat="44.66484467575833" lon="7.9284844892950765"><ele>358.0</ele><time>2026-04-11T08:52:59.999Z</time></trkpt><trkpt lat="44.66478096201537" lon="7.92842392944121"><ele>358.0</ele><time>2026-04-11T08:53:01.999Z</time></trkpt><trkpt lat="44.66470996642374" lon="7.928356354078957"><ele>358.0</ele><time>2026-04-11T08:53:03.999Z</time></trkpt><trkpt lat="44.66464418650518" lon="7.928287418525291"><ele>358.0</ele><time>2026-04-11T08:53:05.999Z</time></trkpt><trkpt lat="44.66458284420867" lon="7.928219100056606"><ele>358.0</ele><time>2026-04-11T08:53:07.999Z</time></trkpt><trkpt lat="44.6645186187269" lon="7.9281371470154784"><ele>358.3333333333333</ele><time>2026-04-11T08:53:09.999Z</time></trkpt><trkpt lat="44.66445491031056" lon="7.928046281065152"><ele>358.66666666666663</ele><time>2026-04-11T08:53:11.999Z</time></trkpt><trkpt lat="44.66437835909963" lon="7.927965132911096"><ele>359.0</ele><time>2026-04-11T08:53:13.999Z</time></trkpt><trkpt lat="44.66430391969371" lon="7.927892560700342"><ele>359.3333333333333</ele><time>2026-04-11T08:53:15.999Z</time></trkpt><trkpt lat="44.66423841065965" lon="7.927820381424503"><ele>359.6666666666667</ele><time>2026-04-11T08:53:17.999Z</time></trkpt><trkpt lat="44.664174148172" lon="7.927765313227091"><ele>360.0</ele><time>2026-04-11T08:53:19.999Z</time></trkpt><trkpt lat="44.66408673424085" lon="7.927705423218478"><ele>360.6666666666667</ele><time>2026-04-11T08:53:22.999Z</time></trkpt><trkpt lat="44.664018069108856" lon="7.927669775416116"><ele>361.3333333333333</ele><time>2026-04-11T08:53:24.999Z</time></trkpt><trkpt lat="44.66395590162776" lon="7.9276368703083975"><ele>362.0</ele><time>2026-04-11T08:53:26.999Z</time></trkpt><trkpt lat="44.66389338202982" lon="7.927598125233638"><ele>362.66666666666663</ele><time>2026-04-11T08:53:28.999Z</time></trkpt><trkpt lat="44.663806562603995" lon="7.9275529350656635"><ele>363.3333333333333</ele><time>2026-04-11T08:53:31.999Z</time></trkpt><trkpt lat="44.66370922478033" lon="7.9274885477770445"><ele>364.0</ele><time>2026-04-11T08:53:34.999Z</time></trkpt><trkpt lat="44.663642314203834" lon="7.9274506557775295"><ele>365.66666666666663</ele><time>2026-04-11T08:53:37.999Z</time></trkpt><trkpt lat="44.66356185302176" lon="7.927416498466394"><ele>367.3333333333333</ele><time>2026-04-11T08:53:41Z</time></trkpt><trkpt lat="44.66348966160459" lon="7.927388056321017"><ele>369.0</ele><time>2026-04-11T08:53:43Z</time></trkpt><trkpt lat="44.66341726620126" lon="7.927363903958083"><ele>370.6666666666667</ele><time>2026-04-11T08:53:46Z</time></trkpt><trkpt lat="44.66335416392109" lon="7.927346343501289"><ele>372.33333333333337</ele><time>2026-04-11T08:53:48Z</time></trkpt><trkpt lat="44.66327622619276" lon="7.92734403315893"><ele>374.0</ele><time>2026-04-11T08:53:51Z</time></trkpt><trkpt lat="44.66319220337259" lon="7.927334519670267"><ele>374.0</ele><time>2026-04-11T08:53:54Z</time></trkpt><trkpt lat="44.66311601814185" lon="7.927340689303525"><ele>374.0</ele><time>2026-04-11T08:53:57Z</time></trkpt><trkpt lat="44.66303111335288" lon="7.927343314057498"><ele>374.0</ele><time>2026-04-11T08:54:00Z</time></trkpt><trkpt lat="44.66296229361811" lon="7.927345943939723"><ele>374.0</ele><time>2026-04-11T08:54:02Z</time></trkpt><trkpt lat="44.66287855808489" lon="7.927345317526659"><ele>374.0</ele><time>2026-04-11T08:54:05Z</time></trkpt><trkpt lat="44.662814241336356" lon="7.927354170782129"><ele>374.0</ele><time>2026-04-11T08:54:07Z</time></trkpt><trkpt lat="44.662749576296264" lon="7.927355912207669"><ele>374.0</ele><time>2026-04-11T08:54:09Z</time></trkpt><trkpt lat="44.662681369216514" lon="7.927351043624106"><ele>374.83333333333337</ele><time>2026-04-11T08:54:11Z</time></trkpt><trkpt lat="44.66261729507221" lon="7.9273472473706645"><ele>375.6666666666667</ele><time>2026-04-11T08:54:13Z</time></trkpt><trkpt lat="44.66255395647581" lon="7.927342029221636"><ele>376.5</ele><time>2026-04-11T08:54:15Z</time></trkpt><trkpt lat="44.6624804477548" lon="7.927336124329815"><ele>377.3333333333333</ele><time>2026-04-11T08:54:18Z</time></trkpt><trkpt lat="44.66240027106911" lon="7.927317384387024"><ele>378.16666666666663</ele><time>2026-04-11T08:54:21Z</time></trkpt><trkpt lat="44.6623158668149" lon="7.927301138850419"><ele>379.0</ele><time>2026-04-11T08:54:23.999Z</time></trkpt><trkpt lat="44.662227300630356" lon="7.927292065156149"><ele>379.00000000000006</ele><time>2026-04-11T08:54:26.999Z</time></trkpt><trkpt lat="44.66215603434859" lon="7.927278522660719"><ele>379.0</ele><time>2026-04-11T08:54:29.999Z</time></trkpt><trkpt lat="44.66208856487361" lon="7.927259795045407"><ele>379.0</ele><time>2026-04-11T08:54:32.999Z</time></trkpt><trkpt lat="44.662022919098234" lon="7.927244935162678"><ele>379.0</ele><time>2026-04-11T08:54:35.999Z</time></trkpt><trkpt lat="44.66195932737573" lon="7.927227198427043"><ele>379.0</ele><time>2026-04-11T08:54:38.999Z</time></trkpt><trkpt lat="44.66189673865397" lon="7.927212306535874"><ele>379.00000000000006</ele><time>2026-04-11T08:54:40.999Z</time></trkpt><trkpt lat="44.66183253421044" lon="7.927197164325825"><ele>379.0</ele><time>2026-04-11T08:54:43.999Z</time></trkpt><trkpt lat="44.66176060225327" lon="7.927179253317755"><ele>380.0</ele><time>2026-04-11T08:54:47.999Z</time></trkpt><trkpt lat="44.66168293807179" lon="7.927168354769777"><ele>381.0</ele><time>2026-04-11T08:54:50.999Z</time></trkpt><trkpt lat="44.66160888979316" lon="7.927170764439421"><ele>382.0</ele><time>2026-04-11T08:54:53.999Z</time></trkpt><trkpt lat="44.66154271580933" lon="7.927187695176416"><ele>383.0</ele><time>2026-04-11T08:54:56.999Z</time></trkpt><trkpt lat="44.661465909624845" lon="7.927191987347224"><ele>384.00000000000006</ele><time>2026-04-11T08:54:59.999Z</time></trkpt><trkpt lat="44.661388578049824" lon="7.927202084091268"><ele>385.0</ele><time>2026-04-11T08:55:02.999Z</time></trkpt><trkpt lat="44.66130936086606" lon="7.927215358735515"><ele>385.00000000000006</ele><time>2026-04-11T08:55:05.999Z</time></trkpt><trkpt lat="44.66122588386318" lon="7.9272211665500105"><ele>385.0</ele><time>2026-04-11T08:55:08.999Z</time></trkpt><trkpt lat="44.66114588711602" lon="7.9272330548326755"><ele>385.0</ele><time>2026-04-11T08:55:11.999Z</time></trkpt><trkpt lat="44.661066318769834" lon="7.927233644097224"><ele>385.0</ele><time>2026-04-11T08:55:14.999Z</time></trkpt><trkpt lat="44.6609869882096" lon="7.927237322837979"><ele>385.00000000000006</ele><time>2026-04-11T08:55:17.999Z</time></trkpt><trkpt lat="44.66089990004268" lon="7.927238724065446"><ele>385.0</ele><time>2026-04-11T08:55:20.999Z</time></trkpt><trkpt lat="44.66083670709623" lon="7.927244564074953"><ele>386.1666666666667</ele><time>2026-04-11T08:55:22.999Z</time></trkpt><trkpt lat="44.660740042297554" lon="7.927248123547439"><ele>387.33333333333337</ele><time>2026-04-11T08:55:25.999Z</time></trkpt><trkpt lat="44.6606704590197" lon="7.927252055680895"><ele>388.5</ele><time>2026-04-11T08:55:27.999Z</time></trkpt><trkpt lat="44.660597508064455" lon="7.927247883268437"><ele>389.66666666666663</ele><time>2026-04-11T08:55:29.999Z</time></trkpt><trkpt lat="44.66050943051349" lon="7.927207991575517"><ele>390.8333333333333</ele><time>2026-04-11T08:55:32.999Z</time></trkpt><trkpt lat="44.6604412184477" lon="7.927216653744702"><ele>392.0</ele><time>2026-04-11T08:55:34.999Z</time></trkpt><trkpt lat="44.66034780282177" lon="7.927207625999734"><ele>392.99999999999994</ele><time>2026-04-11T08:55:37.999Z</time></trkpt><trkpt lat="44.660259267416286" lon="7.927201739120249"><ele>394.0</ele><time>2026-04-11T08:55:40.999Z</time></trkpt><trkpt lat="44.660169863624596" lon="7.927186713223189"><ele>395.0</ele><time>2026-04-11T08:55:43.999Z</time></trkpt><trkpt lat="44.660087479749414" lon="7.927178364320886"><ele>396.0</ele><time>2026-04-11T08:55:47Z</time></trkpt><trkpt lat="44.66000013932895" lon="7.92717368927444"><ele>396.99999999999994</ele><time>2026-04-11T08:55:50Z</time></trkpt><trkpt lat="44.659915085953656" lon="7.927164222970616"><ele>398.0</ele><time>2026-04-11T08:55:53Z</time></trkpt><trkpt lat="44.65982470402018" lon="7.927165434166345"><ele>397.99999999999994</ele><time>2026-04-11T08:55:56Z</time></trkpt><trkpt lat="44.65973512179344" lon="7.927164138758848"><ele>398.0</ele><time>2026-04-11T08:55:59Z</time></trkpt><trkpt lat="44.65964862300901" lon="7.927157867412854"><ele>398.0</ele><time>2026-04-11T08:56:02Z</time></trkpt><trkpt lat="44.65955776532221" lon="7.927129231697783"><ele>398.0</ele><time>2026-04-11T08:56:05Z</time></trkpt><trkpt lat="44.65949143695728" lon="7.9271186744745155"><ele>397.99999999999994</ele><time>2026-04-11T08:56:07Z</time></trkpt><trkpt lat="44.659424863909216" lon="7.927121047373988"><ele>398.0</ele><time>2026-04-11T08:56:09Z</time></trkpt><trkpt lat="44.65933074547362" lon="7.927099465827467"><ele>398.66666666666663</ele><time>2026-04-11T08:56:12Z</time></trkpt><trkpt lat="44.65926681780507" lon="7.927087343160045"><ele>399.3333333333333</ele><time>2026-04-11T08:56:14Z</time></trkpt><trkpt lat="44.65919684903936" lon="7.92707504872939"><ele>400.0</ele><time>2026-04-11T08:56:16Z</time></trkpt><trkpt lat="44.65912394404214" lon="7.927060923209446"><ele>400.66666666666663</ele><time>2026-04-11T08:56:18Z</time></trkpt><trkpt lat="44.65904300488277" lon="7.92705220442929"><ele>401.3333333333333</ele><time>2026-04-11T08:56:20Z</time></trkpt><trkpt lat="44.65895673743854" lon="7.9270378085060305"><ele>402.0</ele><time>2026-04-11T08:56:22Z</time></trkpt><trkpt lat="44.65886769930889" lon="7.927006895488628"><ele>402.0</ele><time>2026-04-11T08:56:24Z</time></trkpt><trkpt lat="44.65875703407615" lon="7.9269891847922205"><ele>402.0</ele><time>2026-04-11T08:56:26Z</time></trkpt><trkpt lat="44.658668580902486" lon="7.9269866046507085"><ele>402.0</ele><time>2026-04-11T08:56:28Z</time></trkpt><trkpt lat="44.658579958743815" lon="7.926973799176309"><ele>402.0</ele><time>2026-04-11T08:56:30Z</time></trkpt><trkpt lat="44.65848783361357" lon="7.926967167121606"><ele>402.0</ele><time>2026-04-11T08:56:32Z</time></trkpt><trkpt lat="44.65840071205642" lon="7.926953230764388"><ele>401.3333333333333</ele><time>2026-04-11T08:56:34Z</time></trkpt><trkpt lat="44.65831745587382" lon="7.92693560570022"><ele>400.66666666666663</ele><time>2026-04-11T08:56:36Z</time></trkpt><trkpt lat="44.65823569522941" lon="7.926918512435027"><ele>400.0</ele><time>2026-04-11T08:56:38Z</time></trkpt><trkpt lat="44.65815813283047" lon="7.926908653893198"><ele>399.3333333333333</ele><time>2026-04-11T08:56:40Z</time></trkpt><trkpt lat="44.65807729129407" lon="7.926910403677287"><ele>398.66666666666663</ele><time>2026-04-11T08:56:41.999Z</time></trkpt><trkpt lat="44.65800183423241" lon="7.926897795404728"><ele>398.0</ele><time>2026-04-11T08:56:43.999Z</time></trkpt><trkpt lat="44.65792097387608" lon="7.926900652075769"><ele>398.0</ele><time>2026-04-11T08:56:45.999Z</time></trkpt><trkpt lat="44.657831979357475" lon="7.926895082762557"><ele>398.0</ele><time>2026-04-11T08:56:47.999Z</time></trkpt><trkpt lat="44.6577438229803" lon="7.9268840532746845"><ele>398.0</ele><time>2026-04-11T08:56:49.999Z</time></trkpt><trkpt lat="44.65764937077068" lon="7.926872686813137"><ele>398.0</ele><time>2026-04-11T08:56:51.999Z</time></trkpt><trkpt lat="44.65754858944243" lon="7.926906902308302"><ele>398.0</ele><time>2026-04-11T08:56:53.999Z</time></trkpt><trkpt lat="44.65743176171273" lon="7.92695843894925"><ele>398.0</ele><time>2026-04-11T08:56:55.999Z</time></trkpt><trkpt lat="44.65731261231839" lon="7.926951908588924"><ele>398.0</ele><time>2026-04-11T08:56:57.999Z</time></trkpt><trkpt lat="44.6572041113157" lon="7.926943050773531"><ele>398.0</ele><time>2026-04-11T08:56:59.999Z</time></trkpt><trkpt lat="44.65709971916191" lon="7.926934550896826"><ele>398.0</ele><time>2026-04-11T08:57:01.999Z</time></trkpt><trkpt lat="44.656998417150966" lon="7.9269378215327135"><ele>398.0</ele><time>2026-04-11T08:57:03.999Z</time></trkpt><trkpt lat="44.656886800092785" lon="7.926951382309026"><ele>399.4</ele><time>2026-04-11T08:57:05.999Z</time></trkpt><trkpt lat="44.65677076078341" lon="7.926987313429906"><ele>400.79999999999995</ele><time>2026-04-11T08:57:07.999Z</time></trkpt><trkpt lat="44.65670782433054" lon="7.927004842478917"><ele>402.2</ele><time>2026-04-11T08:57:08.999Z</time></trkpt><trkpt lat="44.6565863256233" lon="7.927029629689092"><ele>403.6</ele><time>2026-04-11T08:57:10.999Z</time></trkpt><trkpt lat="44.656473049406216" lon="7.927093237073346"><ele>405.0</ele><time>2026-04-11T08:57:12.999Z</time></trkpt><trkpt lat="44.65637040011245" lon="7.927160577979998"><ele>405.0</ele><time>2026-04-11T08:57:14.999Z</time></trkpt><trkpt lat="44.6562616919499" lon="7.927215538560588"><ele>405.0</ele><time>2026-04-11T08:57:16.999Z</time></trkpt><trkpt lat="44.65615010521143" lon="7.927246703172247"><ele>405.0</ele><time>2026-04-11T08:57:18.999Z</time></trkpt><trkpt lat="44.656037010731836" lon="7.927277148797427"><ele>405.0</ele><time>2026-04-11T08:57:20.999Z</time></trkpt><trkpt lat="44.65593559625355" lon="7.927286608412386"><ele>405.0</ele><time>2026-04-11T08:57:22.999Z</time></trkpt><trkpt lat="44.65583810283866" lon="7.927306394548576"><ele>405.8333333333333</ele><time>2026-04-11T08:57:24.999Z</time></trkpt><trkpt lat="44.655751037706295" lon="7.927319601660093"><ele>406.66666666666663</ele><time>2026-04-11T08:57:26.999Z</time></trkpt><trkpt lat="44.65566646823713" lon="7.927339092536794"><ele>407.5</ele><time>2026-04-11T08:57:28.999Z</time></trkpt><trkpt lat="44.655574113578304" lon="7.9273499719927125"><ele>408.3333333333333</ele><time>2026-04-11T08:57:30.999Z</time></trkpt><trkpt lat="44.65548737685108" lon="7.927357102285203"><ele>409.16666666666663</ele><time>2026-04-11T08:57:32.999Z</time></trkpt><trkpt lat="44.65540587271087" lon="7.927373438128707"><ele>410.0</ele><time>2026-04-11T08:57:34.999Z</time></trkpt><trkpt lat="44.655323740191136" lon="7.927391614749857"><ele>411.16666666666663</ele><time>2026-04-11T08:57:36.999Z</time></trkpt><trkpt lat="44.6552411759809" lon="7.92740320998328"><ele>412.3333333333333</ele><time>2026-04-11T08:57:38.999Z</time></trkpt><trkpt lat="44.65515899198644" lon="7.927420617308079"><ele>413.5</ele><time>2026-04-11T08:57:40.999Z</time></trkpt><trkpt lat="44.65508174871884" lon="7.927425251239551"><ele>414.66666666666663</ele><time>2026-04-11T08:57:42.999Z</time></trkpt><trkpt lat="44.65500315412547" lon="7.927440835030074"><ele>415.8333333333333</ele><time>2026-04-11T08:57:44.999Z</time></trkpt><trkpt lat="44.65492380851367" lon="7.927441775249627"><ele>417.0</ele><time>2026-04-11T08:57:46.999Z</time></trkpt><trkpt lat="44.65483775779485" lon="7.92743976613869"><ele>417.0</ele><time>2026-04-11T08:57:48.999Z</time></trkpt><trkpt lat="44.65475942592414" lon="7.927431193021115"><ele>417.0</ele><time>2026-04-11T08:57:51Z</time></trkpt><trkpt lat="44.654687366499466" lon="7.927408750357235"><ele>417.0</ele><time>2026-04-11T08:57:53Z</time></trkpt><trkpt lat="44.65461403927615" lon="7.927386732250455"><ele>417.0</ele><time>2026-04-11T08:57:55Z</time></trkpt><trkpt lat="44.65453203976369" lon="7.92742405832503"><ele>417.0</ele><time>2026-04-11T08:57:57Z</time></trkpt><trkpt lat="44.65447601749723" lon="7.927495058480546"><ele>417.0</ele><time>2026-04-11T08:57:59Z</time></trkpt><trkpt lat="44.65441578184006" lon="7.927560581648972"><ele>417.7142857142857</ele><time>2026-04-11T08:58:01Z</time></trkpt><trkpt lat="44.65435973283323" lon="7.927620317915936"><ele>418.4285714285714</ele><time>2026-04-11T08:58:03Z</time></trkpt><trkpt lat="44.65431077686727" lon="7.927687027933822"><ele>419.1428571428571</ele><time>2026-04-11T08:58:05Z</time></trkpt><trkpt lat="44.65424061978073" lon="7.927730411172793"><ele>419.8571428571429</ele><time>2026-04-11T08:58:07Z</time></trkpt><trkpt lat="44.65417435959567" lon="7.927770549131734"><ele>420.57142857142856</ele><time>2026-04-11T08:58:09Z</time></trkpt><trkpt lat="44.65410730982205" lon="7.9277959152599236"><ele>421.2857142857143</ele><time>2026-04-11T08:58:11Z</time></trkpt><trkpt lat="44.654044286859296" lon="7.92783728514694"><ele>422.0</ele><time>2026-04-11T08:58:13Z</time></trkpt><trkpt lat="44.653956325436376" lon="7.927904178639472"><ele>422.0</ele><time>2026-04-11T08:58:16Z</time></trkpt><trkpt lat="44.65389446666097" lon="7.927937141189313"><ele>422.0</ele><time>2026-04-11T08:58:18Z</time></trkpt><trkpt lat="44.65383572978527" lon="7.927975535105907"><ele>422.0</ele><time>2026-04-11T08:58:20Z</time></trkpt><trkpt lat="44.65377544624869" lon="7.928019177483721"><ele>422.0</ele><time>2026-04-11T08:58:22Z</time></trkpt><trkpt lat="44.653713328968145" lon="7.928063394274993"><ele>422.0</ele><time>2026-04-11T08:58:24Z</time></trkpt><trkpt lat="44.65365552905682" lon="7.928105302806775"><ele>422.0</ele><time>2026-04-11T08:58:26Z</time></trkpt><trkpt lat="44.65359180336926" lon="7.928144117091335"><ele>422.0</ele><time>2026-04-11T08:58:29Z</time></trkpt><trkpt lat="44.65353121862042" lon="7.928191875557606"><ele>423.8333333333333</ele><time>2026-04-11T08:58:31Z</time></trkpt><trkpt lat="44.65345317445718" lon="7.928227157051502"><ele>425.66666666666663</ele><time>2026-04-11T08:58:34Z</time></trkpt><trkpt lat="44.653371923244485" lon="7.9282387845883076"><ele>427.5</ele><time>2026-04-11T08:58:37Z</time></trkpt><trkpt lat="44.65329035235356" lon="7.928232276629172"><ele>429.33333333333337</ele><time>2026-04-11T08:58:40Z</time></trkpt><trkpt lat="44.65322747581833" lon="7.928205403059457"><ele>431.1666666666667</ele><time>2026-04-11T08:58:42.999Z</time></trkpt><trkpt lat="44.65314615693794" lon="7.928208015404531"><ele>433.0</ele><time>2026-04-11T08:58:46.999Z</time></trkpt><trkpt lat="44.65307727905339" lon="7.9282142440128"><ele>433.00000000000006</ele><time>2026-04-11T08:58:49.999Z</time></trkpt><trkpt lat="44.65299626277964" lon="7.928226714821532"><ele>433.0</ele><time>2026-04-11T08:58:53.999Z</time></trkpt><trkpt lat="44.65292409373183" lon="7.928241068109486"><ele>433.0</ele><time>2026-04-11T08:58:57.999Z</time></trkpt><trkpt lat="44.65284430681271" lon="7.9282633460270455"><ele>433.0</ele><time>2026-04-11T08:59:01.999Z</time></trkpt><trkpt lat="44.65275857317479" lon="7.928291615408825"><ele>433.00000000000006</ele><time>2026-04-11T08:59:05.999Z</time></trkpt><trkpt lat="44.652691616550584" lon="7.928351612934449"><ele>433.0</ele><time>2026-04-11T08:59:09.999Z</time></trkpt><trkpt lat="44.652644357100115" lon="7.928434546507398"><ele>433.83333333333337</ele><time>2026-04-11T08:59:12.999Z</time></trkpt><trkpt lat="44.65260765621837" lon="7.928518072547245"><ele>434.6666666666667</ele><time>2026-04-11T08:59:15.999Z</time></trkpt><trkpt lat="44.65256130296155" lon="7.9286115136484945"><ele>435.5</ele><time>2026-04-11T08:59:18.999Z</time></trkpt><trkpt lat="44.65250516074959" lon="7.928709026852888"><ele>436.33333333333337</ele><time>2026-04-11T08:59:21.999Z</time></trkpt><trkpt lat="44.65244559803284" lon="7.928778506406004"><ele>437.1666666666667</ele><time>2026-04-11T08:59:24.999Z</time></trkpt><trkpt lat="44.65241163149334" lon="7.928861139484127"><ele>438.0</ele><time>2026-04-11T08:59:26.999Z</time></trkpt><trkpt lat="44.65236220361497" lon="7.928968286586397"><ele>438.0</ele><time>2026-04-11T08:59:29.999Z</time></trkpt><trkpt lat="44.65235772290295" lon="7.92906252246423"><ele>437.99999999999994</ele><time>2026-04-11T08:59:31.999Z</time></trkpt><trkpt lat="44.65238977032933" lon="7.929157598802699"><ele>437.99999999999994</ele><time>2026-04-11T08:59:33.999Z</time></trkpt><trkpt lat="44.65248389800463" lon="7.929257230343743"><ele>438.0</ele><time>2026-04-11T08:59:34.999Z</time></trkpt><trkpt lat="44.65254095148912" lon="7.929295911960488"><ele>438.0</ele><time>2026-04-11T08:59:35.999Z</time></trkpt><trkpt lat="44.652656722544336" lon="7.929367526119789"><ele>436.8333333333333</ele><time>2026-04-11T08:59:37.999Z</time></trkpt><trkpt lat="44.65267346602625" lon="7.929539933655659"><ele>435.66666666666663</ele><time>2026-04-11T08:59:39.999Z</time></trkpt><trkpt lat="44.652714420506946" lon="7.929615538752787"><ele>434.5</ele><time>2026-04-11T08:59:41.999Z</time></trkpt><trkpt lat="44.65275730017043" lon="7.9296995304423525"><ele>433.3333333333333</ele><time>2026-04-11T08:59:43.999Z</time></trkpt><trkpt lat="44.6528226741107" lon="7.929705491524925"><ele>432.16666666666663</ele><time>2026-04-11T09:00:10Z</time></trkpt><trkpt lat="44.652863268146845" lon="7.929637534677748"><ele>431.0</ele><time>2026-04-11T09:00:22Z</time></trkpt><trkpt lat="44.65281781755603" lon="7.92954574466757"><ele>431.0</ele><time>2026-04-11T09:00:26Z</time></trkpt><trkpt lat="44.65273883105426" lon="7.929517343043744"><ele>431.0</ele><time>2026-04-11T09:01:40.999Z</time></trkpt><trkpt lat="44.6528086429498" lon="7.929510799111502"><ele>431.0</ele><time>2026-04-11T09:02:24.999Z</time></trkpt><trkpt lat="44.65273142219034" lon="7.9295331115601515"><ele>431.0</ele><time>2026-04-11T09:04:33.999Z</time></trkpt><trkpt lat="44.6526867050646" lon="7.929446403423207"><ele>431.0</ele><time>2026-04-11T09:04:42.999Z</time></trkpt><trkpt lat="44.65263820434108" lon="7.929388886092987"><ele>431.0</ele><time>2026-04-11T09:04:45.999Z</time></trkpt><trkpt lat="44.65257745487478" lon="7.929324593364269"><ele>431.0</ele><time>2026-04-11T09:04:48.999Z</time></trkpt><trkpt lat="44.652498637959695" lon="7.929281733854638"><ele>432.16666666666663</ele><time>2026-04-11T09:04:51.999Z</time></trkpt><trkpt lat="44.65243342931467" lon="7.92922447195686"><ele>433.3333333333333</ele><time>2026-04-11T09:04:54.999Z</time></trkpt><trkpt lat="44.65237634178431" lon="7.929153795121037"><ele>434.5</ele><time>2026-04-11T09:04:57.999Z</time></trkpt><trkpt lat="44.65234367944423" lon="7.929056374561272"><ele>435.66666666666663</ele><time>2026-04-11T09:05:00.999Z</time></trkpt><trkpt lat="44.65231303225063" lon="7.92897559234576"><ele>436.8333333333333</ele><time>2026-04-11T09:05:03.999Z</time></trkpt><trkpt lat="44.652257191541224" lon="7.928891219425859"><ele>438.0</ele><time>2026-04-11T09:05:07.999Z</time></trkpt><trkpt lat="44.65218690618174" lon="7.9288373163684644"><ele>438.0</ele><time>2026-04-11T09:05:11.999Z</time></trkpt><trkpt lat="44.65212835039108" lon="7.928780994327921"><ele>438.0</ele><time>2026-04-11T09:05:15.999Z</time></trkpt><trkpt lat="44.652050059799194" lon="7.928745419779005"><ele>438.0</ele><time>2026-04-11T09:05:19.999Z</time></trkpt><trkpt lat="44.65198328636439" lon="7.928697137515076"><ele>438.0</ele><time>2026-04-11T09:05:23.999Z</time></trkpt><trkpt lat="44.65190874878621" lon="7.928645790665391"><ele>438.0</ele><time>2026-04-11T09:05:27.999Z</time></trkpt><trkpt lat="44.651846457019396" lon="7.928604889099321"><ele>438.0</ele><time>2026-04-11T09:05:30.999Z</time></trkpt><trkpt lat="44.65178117010523" lon="7.928556943878196"><ele>437.6666666666667</ele><time>2026-04-11T09:05:32.999Z</time></trkpt><trkpt lat="44.65169801662776" lon="7.928500146198449"><ele>437.33333333333337</ele><time>2026-04-11T09:05:35.999Z</time></trkpt><trkpt lat="44.65163997881328" lon="7.9284629739788475"><ele>437.0</ele><time>2026-04-11T09:05:37.999Z</time></trkpt><trkpt lat="44.65155542878928" lon="7.928420274771343"><ele>436.6666666666667</ele><time>2026-04-11T09:05:40.999Z</time></trkpt><trkpt lat="44.65146977971644" lon="7.928394427119631"><ele>436.33333333333337</ele><time>2026-04-11T09:05:43.999Z</time></trkpt><trkpt lat="44.65140691033387" lon="7.9283806024260794"><ele>436.0</ele><time>2026-04-11T09:05:45.999Z</time></trkpt><trkpt lat="44.651320954928245" lon="7.928362035045731"><ele>437.50000000000006</ele><time>2026-04-11T09:05:48.999Z</time></trkpt><trkpt lat="44.65123980371686" lon="7.928322567812466"><ele>439.0</ele><time>2026-04-11T09:05:51.999Z</time></trkpt><trkpt lat="44.651160450570494" lon="7.9282964813358126"><ele>440.5</ele><time>2026-04-11T09:05:54.999Z</time></trkpt><trkpt lat="44.65107992538065" lon="7.928251884133517"><ele>442.0</ele><time>2026-04-11T09:05:57.999Z</time></trkpt><trkpt lat="44.65098482819485" lon="7.9282277831442824"><ele>443.50000000000006</ele><time>2026-04-11T09:06:00.999Z</time></trkpt><trkpt lat="44.65089417729362" lon="7.928227479006584"><ele>445.0</ele><time>2026-04-11T09:06:03.999Z</time></trkpt><trkpt lat="44.65080331578389" lon="7.928222219437267"><ele>445.14285714285717</ele><time>2026-04-11T09:06:06.999Z</time></trkpt><trkpt lat="44.65072942270567" lon="7.928212837421265"><ele>445.2857142857143</ele><time>2026-04-11T09:06:09.999Z</time></trkpt><trkpt lat="44.65064379822629" lon="7.9282098723489245"><ele>445.42857142857144</ele><time>2026-04-11T09:06:12.999Z</time></trkpt><trkpt lat="44.650576262932105" lon="7.928193874063538"><ele>445.57142857142856</ele><time>2026-04-11T09:06:14.999Z</time></trkpt><trkpt lat="44.65051061334906" lon="7.92818151787454"><ele>445.71428571428567</ele><time>2026-04-11T09:06:16.999Z</time></trkpt><trkpt lat="44.65043630822797" lon="7.928169352366318"><ele>445.85714285714283</ele><time>2026-04-11T09:06:18.999Z</time></trkpt><trkpt lat="44.65036433358149" lon="7.928141094319759"><ele>446.0</ele><time>2026-04-11T09:06:20.999Z</time></trkpt><trkpt lat="44.65029386414177" lon="7.92811128367687"><ele>446.57142857142856</ele><time>2026-04-11T09:06:22.999Z</time></trkpt><trkpt lat="44.650218332667514" lon="7.928086268898763"><ele>447.1428571428571</ele><time>2026-04-11T09:06:24.999Z</time></trkpt><trkpt lat="44.65015326480165" lon="7.928054542097747"><ele>447.7142857142858</ele><time>2026-04-11T09:06:26.999Z</time></trkpt><trkpt lat="44.65008668154463" lon="7.928021924033733"><ele>448.28571428571433</ele><time>2026-04-11T09:06:28.999Z</time></trkpt><trkpt lat="44.65001897530204" lon="7.927995651259768"><ele>448.8571428571429</ele><time>2026-04-11T09:06:30.999Z</time></trkpt><trkpt lat="44.6499523342576" lon="7.927978508210128"><ele>449.4285714285715</ele><time>2026-04-11T09:06:32.999Z</time></trkpt><trkpt lat="44.64988398289393" lon="7.927963517475609"><ele>450.00000000000006</ele><time>2026-04-11T09:06:34.999Z</time></trkpt><trkpt lat="44.649817320824646" lon="7.927947545627395"><ele>450.0</ele><time>2026-04-11T09:06:36.999Z</time></trkpt><trkpt lat="44.64975149730672" lon="7.927934389788297"><ele>450.0</ele><time>2026-04-11T09:06:39Z</time></trkpt><trkpt lat="44.64968620535037" lon="7.927900544892826"><ele>450.0</ele><time>2026-04-11T09:06:41Z</time></trkpt><trkpt lat="44.64962221741238" lon="7.927865853222247"><ele>450.0</ele><time>2026-04-11T09:06:43Z</time></trkpt><trkpt lat="44.6495379475137" lon="7.927815847224368"><ele>450.0</ele><time>2026-04-11T09:06:46Z</time></trkpt><trkpt lat="44.64945048881303" lon="7.927809305981554"><ele>450.0</ele><time>2026-04-11T09:06:49Z</time></trkpt><trkpt lat="44.64937003730284" lon="7.927795497483175"><ele>451.1666666666667</ele><time>2026-04-11T09:06:52Z</time></trkpt><trkpt lat="44.64927843104768" lon="7.927780774990011"><ele>452.33333333333337</ele><time>2026-04-11T09:06:56Z</time></trkpt><trkpt lat="44.649216322269204" lon="7.927757900565419"><ele>453.5</ele><time>2026-04-11T09:06:59Z</time></trkpt><trkpt lat="44.649147025243806" lon="7.927780614330636"><ele>454.6666666666667</ele><time>2026-04-11T09:07:03Z</time></trkpt><trkpt lat="44.6490673321934" lon="7.927808810793072"><ele>455.83333333333337</ele><time>2026-04-11T09:07:07Z</time></trkpt><trkpt lat="44.64897335231132" lon="7.927836334171831"><ele>457.0</ele><time>2026-04-11T09:07:11Z</time></trkpt><trkpt lat="44.64889857570784" lon="7.927849628723724"><ele>457.0</ele><time>2026-04-11T09:07:14Z</time></trkpt><trkpt lat="44.64877691986519" lon="7.9278631989199075"><ele>457.00000000000006</ele><time>2026-04-11T09:07:17Z</time></trkpt><trkpt lat="44.64867940648645" lon="7.9278819267194285"><ele>457.00000000000006</ele><time>2026-04-11T09:07:19Z</time></trkpt><trkpt lat="44.64857939948729" lon="7.927899609227851"><ele>457.0</ele><time>2026-04-11T09:07:21Z</time></trkpt><trkpt lat="44.64846631335281" lon="7.927900894235175"><ele>457.0</ele><time>2026-04-11T09:07:23Z</time></trkpt><trkpt lat="44.64834859518133" lon="7.927898942557855"><ele>457.5</ele><time>2026-04-11T09:07:25Z</time></trkpt><trkpt lat="44.64822582577617" lon="7.927903832012008"><ele>458.0</ele><time>2026-04-11T09:07:27Z</time></trkpt><trkpt lat="44.64810074761373" lon="7.927913827727987"><ele>458.5</ele><time>2026-04-11T09:07:29Z</time></trkpt><trkpt lat="44.64797865231291" lon="7.92791758828705"><ele>459.0</ele><time>2026-04-11T09:07:31Z</time></trkpt><trkpt lat="44.647861120866814" lon="7.927926827046105"><ele>458.6</ele><time>2026-04-11T09:07:33Z</time></trkpt><trkpt lat="44.64774119734273" lon="7.927938786927068"><ele>458.2</ele><time>2026-04-11T09:07:35Z</time></trkpt><trkpt lat="44.64766509408353" lon="7.9279442562275255"><ele>457.80000000000007</ele><time>2026-04-11T09:07:36Z</time></trkpt><trkpt lat="44.64755014666263" lon="7.927940352254391"><ele>457.40000000000003</ele><time>2026-04-11T09:07:38Z</time></trkpt><trkpt lat="44.64743650993653" lon="7.927957031523845"><ele>457.0</ele><time>2026-04-11T09:07:40Z</time></trkpt><trkpt lat="44.64732740761626" lon="7.9279666840604435"><ele>457.0</ele><time>2026-04-11T09:07:42Z</time></trkpt><trkpt lat="44.64721144914946" lon="7.927973711570956"><ele>457.0</ele><time>2026-04-11T09:07:44Z</time></trkpt><trkpt lat="44.6470964347552" lon="7.9279786002879264"><ele>457.0</ele><time>2026-04-11T09:07:46Z</time></trkpt><trkpt lat="44.64697969426312" lon="7.927994898538048"><ele>457.0</ele><time>2026-04-11T09:07:48Z</time></trkpt><trkpt lat="44.646859603890384" lon="7.928011688172392"><ele>457.83333333333337</ele><time>2026-04-11T09:07:50Z</time></trkpt><trkpt lat="44.64673473801388" lon="7.928031824393842"><ele>458.6666666666667</ele><time>2026-04-11T09:07:52Z</time></trkpt><trkpt lat="44.64667211772164" lon="7.92804710307066"><ele>459.5</ele><time>2026-04-11T09:07:53Z</time></trkpt><trkpt lat="44.64660921953867" lon="7.928061311617792"><ele>460.33333333333337</ele><time>2026-04-11T09:07:54Z</time></trkpt><trkpt lat="44.64648455412698" lon="7.928085024867978"><ele>461.1666666666667</ele><time>2026-04-11T09:07:56Z</time></trkpt><trkpt lat="44.64642034030865" lon="7.928097336443775"><ele>462.0</ele><time>2026-04-11T09:07:57Z</time></trkpt><trkpt lat="44.646356079430525" lon="7.928108550663545"><ele>462.0</ele><time>2026-04-11T09:07:58Z</time></trkpt><trkpt lat="44.646293403361426" lon="7.928120513526668"><ele>462.0</ele><time>2026-04-11T09:07:59Z</time></trkpt><trkpt lat="44.64623043044613" lon="7.928132460829337"><ele>462.0</ele><time>2026-04-11T09:08:00Z</time></trkpt><trkpt lat="44.64616784603396" lon="7.928146857945667"><ele>462.0</ele><time>2026-04-11T09:08:01Z</time></trkpt><trkpt lat="44.64610526741792" lon="7.928160860844152"><ele>462.0</ele><time>2026-04-11T09:08:02Z</time></trkpt><trkpt lat="44.64604085950268" lon="7.928177778438643"><ele>462.0</ele><time>2026-04-11T09:08:03Z</time></trkpt><trkpt lat="44.64597700630844" lon="7.9281935517435125"><ele>462.0</ele><time>2026-04-11T09:08:04Z</time></trkpt><trkpt lat="44.64591067611497" lon="7.928203524470407"><ele>462.5</ele><time>2026-04-11T09:08:05Z</time></trkpt><trkpt lat="44.64584684721239" lon="7.928218287793657"><ele>463.0</ele><time>2026-04-11T09:08:06Z</time></trkpt><trkpt lat="44.6457844032585" lon="7.928230545153009"><ele>463.5</ele><time>2026-04-11T09:08:07Z</time></trkpt><trkpt lat="44.6456701702847" lon="7.928236059885977"><ele>464.0</ele><time>2026-04-11T09:08:09Z</time></trkpt><trkpt lat="44.64559518445221" lon="7.928170223585391"><ele>464.5</ele><time>2026-04-11T09:08:11Z</time></trkpt><trkpt lat="44.645524496878934" lon="7.928301076092384"><ele>465.0</ele><time>2026-04-11T09:08:12Z</time></trkpt><trkpt lat="44.64544790586076" lon="7.928406494610151"><ele>465.0</ele><time>2026-04-11T09:08:14Z</time></trkpt><trkpt lat="44.6453817256686" lon="7.928502989906876"><ele>465.0</ele><time>2026-04-11T09:08:16Z</time></trkpt><trkpt lat="44.645319148138114" lon="7.928589681979429"><ele>465.0</ele><time>2026-04-11T09:08:18Z</time></trkpt><trkpt lat="44.645273774010086" lon="7.928661308157674"><ele>465.0</ele><time>2026-04-11T09:08:20Z</time></trkpt><trkpt lat="44.645223135108985" lon="7.928735759749094"><ele>465.0</ele><time>2026-04-11T09:09:25Z</time></trkpt><trkpt lat="44.645161964132726" lon="7.928817969661191"><ele>465.0</ele><time>2026-04-11T09:09:28Z</time></trkpt><trkpt lat="44.64511182700658" lon="7.9288864329452675"><ele>465.6666666666667</ele><time>2026-04-11T09:09:30Z</time></trkpt><trkpt lat="44.645053978923734" lon="7.92896302702219"><ele>466.33333333333337</ele><time>2026-04-11T09:09:32Z</time></trkpt><trkpt lat="44.644987801148076" lon="7.929043123034825"><ele>467.0</ele><time>2026-04-11T09:09:34Z</time></trkpt><trkpt lat="44.64492844801585" lon="7.929128261114759"><ele>467.6666666666667</ele><time>2026-04-11T09:09:36Z</time></trkpt><trkpt lat="44.644871714310334" lon="7.9292058883278305"><ele>468.33333333333337</ele><time>2026-04-11T09:09:38Z</time></trkpt><trkpt lat="44.64481664077186" lon="7.9292845816572965"><ele>469.0</ele><time>2026-04-11T09:09:40Z</time></trkpt><trkpt lat="44.64476284656961" lon="7.929355289728437"><ele>469.00000000000006</ele><time>2026-04-11T09:09:42Z</time></trkpt><trkpt lat="44.64470872928502" lon="7.929419774527418"><ele>469.0</ele><time>2026-04-11T09:09:44Z</time></trkpt><trkpt lat="44.644654639126145" lon="7.929487588796746"><ele>469.0</ele><time>2026-04-11T09:09:47Z</time></trkpt><trkpt lat="44.64458305967142" lon="7.9295774997890325"><ele>469.0</ele><time>2026-04-11T09:09:50Z</time></trkpt><trkpt lat="44.64450372615603" lon="7.92969277710191"><ele>469.00000000000006</ele><time>2026-04-11T09:09:53Z</time></trkpt><trkpt lat="44.64445477608674" lon="7.929754287225229"><ele>469.0</ele><time>2026-04-11T09:09:55Z</time></trkpt><trkpt lat="44.64439489896785" lon="7.929828356210882"><ele>469.57142857142856</ele><time>2026-04-11T09:09:58Z</time></trkpt><trkpt lat="44.64433765450895" lon="7.929895222997811"><ele>470.1428571428571</ele><time>2026-04-11T09:10:01Z</time></trkpt><trkpt lat="44.644275366201704" lon="7.929953418728395"><ele>470.7142857142857</ele><time>2026-04-11T09:10:04Z</time></trkpt><trkpt lat="44.644214246924534" lon="7.929996754694218"><ele>471.2857142857143</ele><time>2026-04-11T09:10:07Z</time></trkpt><trkpt lat="44.6441489560504" lon="7.9300224324076485"><ele>471.85714285714283</ele><time>2026-04-11T09:10:10Z</time></trkpt><trkpt lat="44.64408023472437" lon="7.930047616909154"><ele>472.42857142857144</ele><time>2026-04-11T09:10:13Z</time></trkpt><trkpt lat="44.64400372804122" lon="7.93005434145236"><ele>473.0</ele><time>2026-04-11T09:10:16Z</time></trkpt><trkpt lat="44.643919317392246" lon="7.93005141520493"><ele>472.99999999999994</ele><time>2026-04-11T09:10:19Z</time></trkpt><trkpt lat="44.643834028705285" lon="7.930048192773776"><ele>473.0</ele><time>2026-04-11T09:10:22Z</time></trkpt><trkpt lat="44.64373787645462" lon="7.930047511323326"><ele>473.0</ele><time>2026-04-11T09:10:24Z</time></trkpt><trkpt lat="44.64380889610595" lon="7.9300960158665905"><ele>473.0</ele><time>2026-04-11T09:10:31.001Z</time></trkpt><trkpt lat="44.64387170274176" lon="7.930108705154358"><ele>472.99999999999994</ele><time>2026-04-11T09:10:33.001Z</time></trkpt><trkpt lat="44.64395945474617" lon="7.930147002351496"><ele>473.0</ele><time>2026-04-11T09:10:36.001Z</time></trkpt><trkpt lat="44.64400089512841" lon="7.930249008023763"><ele>474.49999999999994</ele><time>2026-04-11T09:10:39.001Z</time></trkpt><trkpt lat="44.64401651270909" lon="7.930364409451948"><ele>476.0</ele><time>2026-04-11T09:10:42.001Z</time></trkpt><trkpt lat="44.64394837034858" lon="7.930437992971985"><ele>477.5</ele><time>2026-04-11T09:10:45.001Z</time></trkpt><trkpt lat="44.643900763329626" lon="7.930522355106938"><ele>479.0</ele><time>2026-04-11T09:10:48.001Z</time></trkpt><trkpt lat="44.64383952572549" lon="7.93060267645538"><ele>480.49999999999994</ele><time>2026-04-11T09:10:51.001Z</time></trkpt><trkpt lat="44.64378309364836" lon="7.930683397871438"><ele>482.0</ele><time>2026-04-11T09:10:54Z</time></trkpt><trkpt lat="44.643719549222254" lon="7.930765938831862"><ele>481.99999999999994</ele><time>2026-04-11T09:10:57Z</time></trkpt><trkpt lat="44.643657630954" lon="7.9308439737454135"><ele>482.0</ele><time>2026-04-11T09:11:00Z</time></trkpt><trkpt lat="44.64359289759847" lon="7.930914621330988"><ele>482.0</ele><time>2026-04-11T09:11:03Z</time></trkpt><trkpt lat="44.64353200345933" lon="7.931002765471162"><ele>482.0</ele><time>2026-04-11T09:11:06Z</time></trkpt><trkpt lat="44.643487051258425" lon="7.931070626552333"><ele>481.99999999999994</ele><time>2026-04-11T09:11:09Z</time></trkpt><trkpt lat="44.643432837831455" lon="7.931149580067127"><ele>482.0</ele><time>2026-04-11T09:11:12Z</time></trkpt><trkpt lat="44.643377553429055" lon="7.93123130398168"><ele>483.16666666666663</ele><time>2026-04-11T09:11:16Z</time></trkpt><trkpt lat="44.6433200016636" lon="7.931306390919334"><ele>484.3333333333333</ele><time>2026-04-11T09:11:18Z</time></trkpt><trkpt lat="44.64325318670051" lon="7.931399485474056"><ele>485.5</ele><time>2026-04-11T09:11:21Z</time></trkpt><trkpt lat="44.643207027114975" lon="7.931466491612299"><ele>486.66666666666663</ele><time>2026-04-11T09:11:23Z</time></trkpt><trkpt lat="44.64315552197707" lon="7.931522849165331"><ele>487.8333333333333</ele><time>2026-04-11T09:11:25Z</time></trkpt><trkpt lat="44.64308770954749" lon="7.9316097423170255"><ele>489.0</ele><time>2026-04-11T09:11:28Z</time></trkpt><trkpt lat="44.643037051191286" lon="7.931671207366891"><ele>488.6666666666667</ele><time>2026-04-11T09:11:30Z</time></trkpt><trkpt lat="44.642972543754404" lon="7.9317582133562725"><ele>488.33333333333337</ele><time>2026-04-11T09:11:33Z</time></trkpt><trkpt lat="44.64291371346119" lon="7.931840778281713"><ele>488.0</ele><time>2026-04-11T09:11:36Z</time></trkpt><trkpt lat="44.642854544039224" lon="7.93192071902454"><ele>487.6666666666667</ele><time>2026-04-11T09:11:39Z</time></trkpt><trkpt lat="44.64279468701246" lon="7.932000347491054"><ele>487.33333333333337</ele><time>2026-04-11T09:11:42Z</time></trkpt><trkpt lat="44.64273406510144" lon="7.9320799738798655"><ele>487.0</ele><time>2026-04-11T09:11:45Z</time></trkpt><trkpt lat="44.64267511127033" lon="7.932158987656909"><ele>488.42857142857144</ele><time>2026-04-11T09:11:48Z</time></trkpt><trkpt lat="44.642612139236974" lon="7.93222881286643"><ele>489.85714285714283</ele><time>2026-04-11T09:11:51Z</time></trkpt><trkpt lat="44.64254708429897" lon="7.932290943123058"><ele>491.2857142857143</ele><time>2026-04-11T09:11:54Z</time></trkpt><trkpt lat="44.6424884875566" lon="7.932342592469629"><ele>492.7142857142857</ele><time>2026-04-11T09:11:57Z</time></trkpt><trkpt lat="44.642424293175374" lon="7.9323893903945395"><ele>494.1428571428571</ele><time>2026-04-11T09:12:00Z</time></trkpt><trkpt lat="44.64236435555143" lon="7.9324264524994765"><ele>495.57142857142856</ele><time>2026-04-11T09:12:02Z</time></trkpt><trkpt lat="44.64228651287423" lon="7.932461533288872"><ele>497.0</ele><time>2026-04-11T09:12:05Z</time></trkpt><trkpt lat="44.64221038007077" lon="7.9325077232515895"><ele>496.99999999999994</ele><time>2026-04-11T09:12:07Z</time></trkpt><trkpt lat="44.64208895014485" lon="7.9325456762300135"><ele>497.0</ele><time>2026-04-11T09:12:10Z</time></trkpt><trkpt lat="44.64201207893081" lon="7.9325855894051"><ele>497.0</ele><time>2026-04-11T09:12:12Z</time></trkpt><trkpt lat="44.641938663782526" lon="7.932617909230101"><ele>497.0</ele><time>2026-04-11T09:12:14Z</time></trkpt><trkpt lat="44.641860630131355" lon="7.932652162603613"><ele>496.99999999999994</ele><time>2026-04-11T09:12:16Z</time></trkpt><trkpt lat="44.641788619880565" lon="7.932679814977224"><ele>497.0</ele><time>2026-04-11T09:12:18Z</time></trkpt><trkpt lat="44.64171558146713" lon="7.932713110084701"><ele>496.8</ele><time>2026-04-11T09:12:20Z</time></trkpt><trkpt lat="44.64163845284026" lon="7.9327467860299725"><ele>496.6</ele><time>2026-04-11T09:12:22Z</time></trkpt><trkpt lat="44.64155779144948" lon="7.93278748513115"><ele>496.40000000000003</ele><time>2026-04-11T09:12:24Z</time></trkpt><trkpt lat="44.641465931402685" lon="7.9328230664024115"><ele>496.20000000000005</ele><time>2026-04-11T09:12:26Z</time></trkpt><trkpt lat="44.641375740197155" lon="7.932871835485713"><ele>496.0</ele><time>2026-04-11T09:12:28Z</time></trkpt><trkpt lat="44.64127138294405" lon="7.9329229523750415"><ele>496.0</ele><time>2026-04-11T09:12:30Z</time></trkpt><trkpt lat="44.64116707666645" lon="7.932977009166554"><ele>496.0</ele><time>2026-04-11T09:12:32.001Z</time></trkpt><trkpt lat="44.641061058495715" lon="7.93304407626124"><ele>496.0</ele><time>2026-04-11T09:12:34.001Z</time></trkpt><trkpt lat="44.641001309262805" lon="7.933077988331506"><ele>496.0</ele><time>2026-04-11T09:12:35.001Z</time></trkpt><trkpt lat="44.64089061142585" lon="7.9331505396322735"><ele>496.0</ele><time>2026-04-11T09:12:37.001Z</time></trkpt><trkpt lat="44.640831267682664" lon="7.933186477640321"><ele>496.42857142857144</ele><time>2026-04-11T09:12:38.001Z</time></trkpt><trkpt lat="44.64077065532642" lon="7.933214347915819"><ele>496.8571428571429</ele><time>2026-04-11T09:12:39.001Z</time></trkpt><trkpt lat="44.64071083559011" lon="7.933246906421622"><ele>497.28571428571433</ele><time>2026-04-11T09:12:40.001Z</time></trkpt><trkpt lat="44.64065104590969" lon="7.933284080703974"><ele>497.7142857142858</ele><time>2026-04-11T09:12:41.001Z</time></trkpt><trkpt lat="44.640588402427376" lon="7.933323947612366"><ele>498.14285714285717</ele><time>2026-04-11T09:12:42.001Z</time></trkpt><trkpt lat="44.640527810656764" lon="7.933356796633127"><ele>498.57142857142867</ele><time>2026-04-11T09:12:43.001Z</time></trkpt><trkpt lat="44.640462851813616" lon="7.9333873454023305"><ele>499.00000000000006</ele><time>2026-04-11T09:12:44.001Z</time></trkpt><trkpt lat="44.64040094546639" lon="7.933422148231814"><ele>498.4285714285715</ele><time>2026-04-11T09:12:45.001Z</time></trkpt><trkpt lat="44.64034805130557" lon="7.933472311110101"><ele>497.8571428571429</ele><time>2026-04-11T09:12:46.001Z</time></trkpt><trkpt lat="44.6402776526249" lon="7.933512514665508"><ele>497.2857142857143</ele><time>2026-04-11T09:12:47.001Z</time></trkpt><trkpt lat="44.64020850776902" lon="7.933547093972915"><ele>496.7142857142857</ele><time>2026-04-11T09:12:48.001Z</time></trkpt><trkpt lat="44.640142941510845" lon="7.933586123023481"><ele>496.1428571428571</ele><time>2026-04-11T09:12:49.001Z</time></trkpt><trkpt lat="44.640075310417224" lon="7.933619611252945"><ele>495.5714285714285</ele><time>2026-04-11T09:12:50.001Z</time></trkpt><trkpt lat="44.640003113913764" lon="7.9336510899355455"><ele>494.99999999999994</ele><time>2026-04-11T09:12:51.001Z</time></trkpt><trkpt lat="44.6399353173518" lon="7.933688919061626"><ele>494.99999999999994</ele><time>2026-04-11T09:12:52.001Z</time></trkpt><trkpt lat="44.63987046634693" lon="7.933732640209893"><ele>495.0</ele><time>2026-04-11T09:12:53.001Z</time></trkpt><trkpt lat="44.63980027299271" lon="7.933765213667321"><ele>494.99999999999994</ele><time>2026-04-11T09:12:54.001Z</time></trkpt><trkpt lat="44.63972942260937" lon="7.933803047874146"><ele>494.99999999999994</ele><time>2026-04-11T09:12:55.001Z</time></trkpt><trkpt lat="44.63966363673917" lon="7.93384640940924"><ele>495.0</ele><time>2026-04-11T09:12:56.001Z</time></trkpt><trkpt lat="44.639594156437326" lon="7.933887790599549"><ele>494.99999999999994</ele><time>2026-04-11T09:12:57.001Z</time></trkpt><trkpt lat="44.63952632174899" lon="7.933933668722876"><ele>494.99999999999994</ele><time>2026-04-11T09:12:58.001Z</time></trkpt><trkpt lat="44.63946013179617" lon="7.933979228740318"><ele>495.71428571428567</ele><time>2026-04-11T09:12:59.001Z</time></trkpt><trkpt lat="44.6393977114688" lon="7.934032106524492"><ele>496.42857142857144</ele><time>2026-04-11T09:13:00.001Z</time></trkpt><trkpt lat="44.63933413433395" lon="7.934074049218461"><ele>497.1428571428571</ele><time>2026-04-11T09:13:01.001Z</time></trkpt><trkpt lat="44.63927610420407" lon="7.9341122942383215"><ele>497.85714285714283</ele><time>2026-04-11T09:13:02.001Z</time></trkpt><trkpt lat="44.63919174211781" lon="7.934167280922207"><ele>498.57142857142856</ele><time>2026-04-11T09:13:04Z</time></trkpt><trkpt lat="44.63911061195491" lon="7.934183142034489"><ele>499.2857142857143</ele><time>2026-04-11T09:13:08Z</time></trkpt><trkpt lat="44.639047822035735" lon="7.934217228842767"><ele>500.0</ele><time>2026-04-11T09:13:10Z</time></trkpt><trkpt lat="44.638983957407014" lon="7.934234486384029"><ele>499.99999999999994</ele><time>2026-04-11T09:13:12Z</time></trkpt><trkpt lat="44.63891134657775" lon="7.934238316483427"><ele>500.0</ele><time>2026-04-11T09:13:15Z</time></trkpt><trkpt lat="44.63883768469651" lon="7.93426559691131"><ele>500.0</ele><time>2026-04-11T09:13:17Z</time></trkpt><trkpt lat="44.638769436123134" lon="7.934297612111944"><ele>500.0</ele><time>2026-04-11T09:13:19Z</time></trkpt><trkpt lat="44.638699944036304" lon="7.934323496554184"><ele>499.99999999999994</ele><time>2026-04-11T09:13:21Z</time></trkpt><trkpt lat="44.63861227011125" lon="7.934365051342387"><ele>500.0</ele><time>2026-04-11T09:13:24Z</time></trkpt><trkpt lat="44.638553341547905" lon="7.934408857475072"><ele>499.99999999999994</ele><time>2026-04-11T09:13:26Z</time></trkpt><trkpt lat="44.63846765445453" lon="7.9344377161526225"><ele>500.0</ele><time>2026-04-11T09:13:29Z</time></trkpt><trkpt lat="44.63839361690217" lon="7.934467991403522"><ele>500.0</ele><time>2026-04-11T09:13:31Z</time></trkpt><trkpt lat="44.638317448590534" lon="7.934488400660956"><ele>500.0</ele><time>2026-04-11T09:13:34Z</time></trkpt><trkpt lat="44.63822435345767" lon="7.9344955026492245"><ele>499.99999999999994</ele><time>2026-04-11T09:13:38Z</time></trkpt><trkpt lat="44.63815835108441" lon="7.934509652047337"><ele>500.0</ele><time>2026-04-11T09:13:41Z</time></trkpt><trkpt lat="44.638077170948534" lon="7.934521160268398"><ele>500.0</ele><time>2026-04-11T09:13:44Z</time></trkpt><trkpt lat="44.63800199713537" lon="7.934565854918994"><ele>500.0</ele><time>2026-04-11T09:13:49Z</time></trkpt><trkpt lat="44.63793508397666" lon="7.9345953641716065"><ele>500.0</ele><time>2026-04-11T09:13:53Z</time></trkpt><trkpt lat="44.6378868454626" lon="7.934534644225438"><ele>500.0</ele><time>2026-04-11T09:13:57Z</time></trkpt><trkpt lat="44.637857304401095" lon="7.934452794423162"><ele>500.0</ele><time>2026-04-11T09:14:00Z</time></trkpt><trkpt lat="44.637796765475876" lon="7.934413385068891"><ele>500.0</ele><time>2026-04-11T09:14:03Z</time></trkpt><trkpt lat="44.63772983630147" lon="7.934473326531319"><ele>500.0</ele><time>2026-04-11T09:14:06Z</time></trkpt><trkpt lat="44.63765568664493" lon="7.934544902596291"><ele>498.99999999999994</ele><time>2026-04-11T09:14:09Z</time></trkpt><trkpt lat="44.637599584208104" lon="7.934669917149421"><ele>498.0</ele><time>2026-04-11T09:14:12Z</time></trkpt><trkpt lat="44.63755939436641" lon="7.934747463751563"><ele>497.0</ele><time>2026-04-11T09:14:15Z</time></trkpt><trkpt lat="44.637570835911376" lon="7.93484955224762"><ele>496.0</ele><time>2026-04-11T09:14:18Z</time></trkpt><trkpt lat="44.63751336322985" lon="7.934773884641327"><ele>494.99999999999994</ele><time>2026-04-11T09:15:50Z</time></trkpt><trkpt lat="44.637478027187846" lon="7.934689606808774"><ele>494.0</ele><time>2026-04-11T09:15:53Z</time></trkpt><trkpt lat="44.63744424824524" lon="7.934610608027396"><ele>494.0</ele><time>2026-04-11T09:15:56Z</time></trkpt><trkpt lat="44.63736711048694" lon="7.934594553722759"><ele>494.0</ele><time>2026-04-11T09:16:00Z</time></trkpt><trkpt lat="44.63743101552913" lon="7.93458857422984"><ele>494.0</ele><time>2026-04-11T09:22:04Z</time></trkpt><trkpt lat="44.637496382878076" lon="7.934602061798422"><ele>494.0</ele><time>2026-04-11T09:22:08Z</time></trkpt><trkpt lat="44.63756011746037" lon="7.934604181379232"><ele>494.0</ele><time>2026-04-11T09:22:13Z</time></trkpt><trkpt lat="44.637572773827266" lon="7.934696816690403"><ele>494.0</ele><time>2026-04-11T09:22:19Z</time></trkpt><trkpt lat="44.63762812248482" lon="7.934752563620729"><ele>494.0</ele><time>2026-04-11T09:22:24Z</time></trkpt><trkpt lat="44.637685568107756" lon="7.934713464945189"><ele>494.0</ele><time>2026-04-11T09:22:28Z</time></trkpt><trkpt lat="44.637702562735754" lon="7.934626059562435"><ele>494.0</ele><time>2026-04-11T09:22:35Z</time></trkpt><trkpt lat="44.637697437570935" lon="7.934537799066497"><ele>494.0</ele><time>2026-04-11T09:22:40Z</time></trkpt><trkpt lat="44.63767293060625" lon="7.9344359736070755"><ele>494.0</ele><time>2026-04-11T09:23:40Z</time></trkpt><trkpt lat="44.6376216863827" lon="7.934375294502438"><ele>494.0</ele><time>2026-04-11T09:23:44Z</time></trkpt><trkpt lat="44.63757862836876" lon="7.934289679405738"><ele>494.0</ele><time>2026-04-11T09:24:53.999Z</time></trkpt><trkpt lat="44.63759694990289" lon="7.934174754713138"><ele>494.0</ele><time>2026-04-11T09:24:56.999Z</time></trkpt><trkpt lat="44.63763312702093" lon="7.934094715777899"><ele>496.49999999999994</ele><time>2026-04-11T09:24:58.999Z</time></trkpt><trkpt lat="44.63763544380904" lon="7.933999606759489"><ele>499.0</ele><time>2026-04-11T09:25:02.999Z</time></trkpt><trkpt lat="44.637559030864196" lon="7.933925832757256"><ele>501.5</ele><time>2026-04-11T09:25:05.999Z</time></trkpt><trkpt lat="44.637501882301635" lon="7.9338584286493425"><ele>504.0</ele><time>2026-04-11T09:25:08Z</time></trkpt><trkpt lat="44.6374311318703" lon="7.933764310664162"><ele>506.49999999999994</ele><time>2026-04-11T09:25:10Z</time></trkpt><trkpt lat="44.63734900482719" lon="7.933665815980426"><ele>509.0</ele><time>2026-04-11T09:25:12Z</time></trkpt><trkpt lat="44.637262697167294" lon="7.933568508656186"><ele>508.99999999999994</ele><time>2026-04-11T09:25:14Z</time></trkpt><trkpt lat="44.63719900248407" lon="7.933487111864844"><ele>509.0</ele><time>2026-04-11T09:25:16Z</time></trkpt><trkpt lat="44.63712215492524" lon="7.933429379122294"><ele>509.0</ele><time>2026-04-11T09:25:18Z</time></trkpt><trkpt lat="44.63705901615163" lon="7.933445834531993"><ele>509.0</ele><time>2026-04-11T09:25:21Z</time></trkpt><trkpt lat="44.637055515727226" lon="7.933357344354164"><ele>508.99999999999994</ele><time>2026-04-11T09:25:25Z</time></trkpt><trkpt lat="44.636994146643545" lon="7.933414020910657"><ele>509.0</ele><time>2026-04-11T09:25:36Z</time></trkpt><trkpt lat="44.63696017532879" lon="7.933536943826574"><ele>505.79999999999995</ele><time>2026-04-11T09:25:40Z</time></trkpt><trkpt lat="44.636900616698235" lon="7.933489834337916"><ele>502.59999999999997</ele><time>2026-04-11T09:25:43Z</time></trkpt><trkpt lat="44.63688816843953" lon="7.933341206133612"><ele>499.4</ele><time>2026-04-11T09:25:45Z</time></trkpt><trkpt lat="44.63686838723676" lon="7.933180965032237"><ele>496.2</ele><time>2026-04-11T09:25:47Z</time></trkpt><trkpt lat="44.636891925176705" lon="7.93305194704104"><ele>493.0</ele><time>2026-04-11T09:25:49Z</time></trkpt><trkpt lat="44.63692713624236" lon="7.932926437766502"><ele>494.2</ele><time>2026-04-11T09:25:51Z</time></trkpt><trkpt lat="44.636973557018415" lon="7.9328021519571505"><ele>495.4</ele><time>2026-04-11T09:25:53Z</time></trkpt><trkpt lat="44.63700444344467" lon="7.932702669164062"><ele>496.59999999999997</ele><time>2026-04-11T09:25:58Z</time></trkpt><trkpt lat="44.637051161733595" lon="7.932602198423498"><ele>497.79999999999995</ele><time>2026-04-11T09:26:01Z</time></trkpt><trkpt lat="44.637091637330734" lon="7.932489670542467"><ele>499.0</ele><time>2026-04-11T09:26:03Z</time></trkpt><trkpt lat="44.63716481450466" lon="7.932375993068527"><ele>499.00000000000006</ele><time>2026-04-11T09:26:05Z</time></trkpt><trkpt lat="44.63722323444178" lon="7.932316004637937"><ele>499.0</ele><time>2026-04-11T09:26:07Z</time></trkpt><trkpt lat="44.63716490348022" lon="7.932239705129899"><ele>499.0</ele><time>2026-04-11T09:26:10Z</time></trkpt><trkpt lat="44.637093653270696" lon="7.932154480083069"><ele>499.0</ele><time>2026-04-11T09:26:12Z</time></trkpt><trkpt lat="44.637011159803066" lon="7.932113876201419"><ele>499.00000000000006</ele><time>2026-04-11T09:26:14Z</time></trkpt><trkpt lat="44.63695502029284" lon="7.9321851946358635"><ele>499.0</ele><time>2026-04-11T09:26:16Z</time></trkpt><trkpt lat="44.63690992216518" lon="7.932278467467339"><ele>498.00000000000006</ele><time>2026-04-11T09:26:18Z</time></trkpt><trkpt lat="44.63684842072018" lon="7.932347223700244"><ele>497.0</ele><time>2026-04-11T09:26:20Z</time></trkpt><trkpt lat="44.63679048605291" lon="7.932431398829626"><ele>496.0</ele><time>2026-04-11T09:26:23Z</time></trkpt><trkpt lat="44.63673220221367" lon="7.932539150041395"><ele>495.0</ele><time>2026-04-11T09:26:26Z</time></trkpt><trkpt lat="44.6366604795627" lon="7.932680829930116"><ele>494.00000000000006</ele><time>2026-04-11T09:26:28Z</time></trkpt><trkpt lat="44.6366252126446" lon="7.9327615951340436"><ele>493.0</ele><time>2026-04-11T09:26:29Z</time></trkpt><trkpt lat="44.63656509401423" lon="7.932902382178011"><ele>493.00000000000006</ele><time>2026-04-11T09:26:31Z</time></trkpt><trkpt lat="44.63651642501263" lon="7.932979649477212"><ele>493.0</ele><time>2026-04-11T09:26:33Z</time></trkpt><trkpt lat="44.636485040652545" lon="7.932859401826634"><ele>493.0</ele><time>2026-04-11T09:26:36Z</time></trkpt><trkpt lat="44.63651990139248" lon="7.932698353006867"><ele>493.0</ele><time>2026-04-11T09:26:38Z</time></trkpt><trkpt lat="44.63654260163425" lon="7.932609228729397"><ele>493.00000000000006</ele><time>2026-04-11T09:26:39Z</time></trkpt><trkpt lat="44.63657224515552" lon="7.932514690397718"><ele>493.0</ele><time>2026-04-11T09:26:39.999Z</time></trkpt><trkpt lat="44.63660255274325" lon="7.932413677153786"><ele>492.1666666666667</ele><time>2026-04-11T09:26:40.999Z</time></trkpt><trkpt lat="44.63663488607151" lon="7.93231134502279"><ele>491.33333333333337</ele><time>2026-04-11T09:26:41.999Z</time></trkpt><trkpt lat="44.636673693222264" lon="7.9322090314532065"><ele>490.5</ele><time>2026-04-11T09:26:42.999Z</time></trkpt><trkpt lat="44.636709667165945" lon="7.9321074529626365"><ele>489.66666666666663</ele><time>2026-04-11T09:26:43.999Z</time></trkpt><trkpt lat="44.63674246794212" lon="7.932013762068408"><ele>488.8333333333333</ele><time>2026-04-11T09:26:44.999Z</time></trkpt><trkpt lat="44.63676470268211" lon="7.931903952875817"><ele>488.0</ele><time>2026-04-11T09:26:46.999Z</time></trkpt><trkpt lat="44.63671096307692" lon="7.931844053961616"><ele>487.99999999999994</ele><time>2026-04-11T09:26:48.999Z</time></trkpt><trkpt lat="44.63666450275709" lon="7.931782824866747"><ele>488.0</ele><time>2026-04-11T09:26:49.999Z</time></trkpt><trkpt lat="44.63659285890272" lon="7.9317415418499735"><ele>488.0</ele><time>2026-04-11T09:26:50.999Z</time></trkpt><trkpt lat="44.636509935016484" lon="7.931730859823575"><ele>488.0</ele><time>2026-04-11T09:26:51.999Z</time></trkpt><trkpt lat="44.63643335736729" lon="7.931701219346437"><ele>487.99999999999994</ele><time>2026-04-11T09:26:52.999Z</time></trkpt><trkpt lat="44.6363546162127" lon="7.931674120532586"><ele>488.0</ele><time>2026-04-11T09:26:53.999Z</time></trkpt><trkpt lat="44.636271641443386" lon="7.931653380507576"><ele>486.3333333333333</ele><time>2026-04-11T09:26:54.999Z</time></trkpt><trkpt lat="44.63618769634874" lon="7.931633910295995"><ele>484.66666666666663</ele><time>2026-04-11T09:26:55.999Z</time></trkpt><trkpt lat="44.63610172330193" lon="7.931621609510814"><ele>483.0</ele><time>2026-04-11T09:26:56.999Z</time></trkpt><trkpt lat="44.636011466878266" lon="7.931599062430983"><ele>481.33333333333337</ele><time>2026-04-11T09:26:57.999Z</time></trkpt><trkpt lat="44.63592119348222" lon="7.931580918207155"><ele>479.6666666666667</ele><time>2026-04-11T09:26:58.999Z</time></trkpt><trkpt lat="44.63582975910007" lon="7.931554785303366"><ele>478.0</ele><time>2026-04-11T09:26:59.999Z</time></trkpt><trkpt lat="44.63573949185311" lon="7.931524341662154"><ele>477.0</ele><time>2026-04-11T09:27:00.999Z</time></trkpt><trkpt lat="44.63564590734967" lon="7.931489089154495"><ele>475.99999999999994</ele><time>2026-04-11T09:27:01.999Z</time></trkpt><trkpt lat="44.635558761348264" lon="7.93143769105924"><ele>474.99999999999994</ele><time>2026-04-11T09:27:02.999Z</time></trkpt><trkpt lat="44.63547455431952" lon="7.931364733398845"><ele>474.0</ele><time>2026-04-11T09:27:03.999Z</time></trkpt><trkpt lat="44.63540324772833" lon="7.931276255829948"><ele>473.0</ele><time>2026-04-11T09:27:04.999Z</time></trkpt><trkpt lat="44.635365093583125" lon="7.9311933505674785"><ele>472.2</ele><time>2026-04-11T09:27:05.999Z</time></trkpt><trkpt lat="44.635194775362486" lon="7.931318110584219"><ele>471.4</ele><time>2026-04-11T09:27:06.999Z</time></trkpt><trkpt lat="44.635129441832795" lon="7.931348378459444"><ele>470.59999999999997</ele><time>2026-04-11T09:27:07.999Z</time></trkpt><trkpt lat="44.63506903801682" lon="7.931374965902235"><ele>469.79999999999995</ele><time>2026-04-11T09:27:13Z</time></trkpt><trkpt lat="44.63510018530246" lon="7.9314644198594"><ele>469.0</ele><time>2026-04-11T09:27:16Z</time></trkpt><trkpt lat="44.63518027218119" lon="7.9313903486350315"><ele>469.00000000000006</ele><time>2026-04-11T09:27:18Z</time></trkpt><trkpt lat="44.635258920874854" lon="7.931354392085335"><ele>469.0</ele><time>2026-04-11T09:27:20Z</time></trkpt><trkpt lat="44.635295005722774" lon="7.931431580860925"><ele>469.0</ele><time>2026-04-11T09:27:22Z</time></trkpt><trkpt lat="44.63523481262169" lon="7.931511152250024"><ele>469.0</ele><time>2026-04-11T09:27:23Z</time></trkpt><trkpt lat="44.635160447695846" lon="7.931548211304365"><ele>469.00000000000006</ele><time>2026-04-11T09:27:24Z</time></trkpt><trkpt lat="44.635087979512875" lon="7.9315921199574255"><ele>469.0</ele><time>2026-04-11T09:27:25Z</time></trkpt><trkpt lat="44.63501596433091" lon="7.931649465157156"><ele>469.0</ele><time>2026-04-11T09:27:26Z</time></trkpt><trkpt lat="44.6349409287599" lon="7.931723033649705"><ele>469.0</ele><time>2026-04-11T09:27:27Z</time></trkpt><trkpt lat="44.63485919582959" lon="7.9317969584904215"><ele>469.0</ele><time>2026-04-11T09:27:28Z</time></trkpt><trkpt lat="44.63476893182812" lon="7.931874320886662"><ele>469.0</ele><time>2026-04-11T09:27:29Z</time></trkpt><trkpt lat="44.63467385755596" lon="7.931961282687666"><ele>469.0</ele><time>2026-04-11T09:27:30Z</time></trkpt><trkpt lat="44.634574156322074" lon="7.932048708588669"><ele>467.0</ele><time>2026-04-11T09:27:31Z</time></trkpt><trkpt lat="44.634472722378106" lon="7.932140690933631"><ele>465.0</ele><time>2026-04-11T09:27:32Z</time></trkpt><trkpt lat="44.63437666277719" lon="7.932223747397202"><ele>463.0</ele><time>2026-04-11T09:27:33Z</time></trkpt><trkpt lat="44.63427978230334" lon="7.932309112216615"><ele>461.0</ele><time>2026-04-11T09:27:34Z</time></trkpt><trkpt lat="44.634181021103885" lon="7.932408424828416"><ele>459.5</ele><time>2026-04-11T09:27:35Z</time></trkpt><trkpt lat="44.634082777394596" lon="7.932522101743677"><ele>458.0</ele><time>2026-04-11T09:27:36Z</time></trkpt><trkpt lat="44.63398825531334" lon="7.932648971621167"><ele>456.5</ele><time>2026-04-11T09:27:37Z</time></trkpt><trkpt lat="44.633896093565475" lon="7.932783999746945"><ele>455.0</ele><time>2026-04-11T09:27:38Z</time></trkpt><trkpt lat="44.633800727988" lon="7.9329091793091004"><ele>452.5</ele><time>2026-04-11T09:27:39Z</time></trkpt><trkpt lat="44.63369667265326" lon="7.933024577477586"><ele>450.0</ele><time>2026-04-11T09:27:40Z</time></trkpt><trkpt lat="44.633592605501946" lon="7.933139094159293"><ele>447.5</ele><time>2026-04-11T09:27:41Z</time></trkpt><trkpt lat="44.633487454800495" lon="7.933251858765965"><ele>445.0</ele><time>2026-04-11T09:27:42Z</time></trkpt><trkpt lat="44.633380128929204" lon="7.93336085765252"><ele>440.5</ele><time>2026-04-11T09:27:43Z</time></trkpt><trkpt lat="44.63326282698667" lon="7.933444829003658"><ele>436.0</ele><time>2026-04-11T09:27:44Z</time></trkpt><trkpt lat="44.63313469388856" lon="7.933512984428217"><ele>431.5</ele><time>2026-04-11T09:27:45Z</time></trkpt><trkpt lat="44.63299542863813" lon="7.9335571283634305"><ele>427.0</ele><time>2026-04-11T09:27:46Z</time></trkpt><trkpt lat="44.632849032671025" lon="7.933578461074962"><ele>426.75</ele><time>2026-04-11T09:27:47Z</time></trkpt><trkpt lat="44.63270132241723" lon="7.93358799986528"><ele>426.5</ele><time>2026-04-11T09:27:48Z</time></trkpt><trkpt lat="44.632571343075604" lon="7.93362634807241"><ele>426.25</ele><time>2026-04-11T09:27:49Z</time></trkpt><trkpt lat="44.63246153520483" lon="7.933708416855758"><ele>426.0</ele><time>2026-04-11T09:27:50Z</time></trkpt><trkpt lat="44.63236521994764" lon="7.933829761467857"><ele>426.0</ele><time>2026-04-11T09:27:51Z</time></trkpt><trkpt lat="44.63226890803945" lon="7.933950950355307"><ele>426.0</ele><time>2026-04-11T09:27:52Z</time></trkpt><trkpt lat="44.63215873826993" lon="7.934040334961195"><ele>426.0</ele><time>2026-04-11T09:27:53Z</time></trkpt><trkpt lat="44.63205288240459" lon="7.934102673214818"><ele>426.0</ele><time>2026-04-11T09:27:54Z</time></trkpt><trkpt lat="44.631957296033534" lon="7.934157672597788"><ele>423.4</ele><time>2026-04-11T09:27:55Z</time></trkpt><trkpt lat="44.6318654820222" lon="7.93423610179829"><ele>420.8</ele><time>2026-04-11T09:27:56Z</time></trkpt><trkpt lat="44.631788818676455" lon="7.934337898614857"><ele>418.2</ele><time>2026-04-11T09:27:57Z</time></trkpt><trkpt lat="44.6317269217049" lon="7.934445806325319"><ele>415.59999999999997</ele><time>2026-04-11T09:27:58Z</time></trkpt><trkpt lat="44.63165952673171" lon="7.9345520293461265"><ele>413.0</ele><time>2026-04-11T09:27:59Z</time></trkpt><trkpt lat="44.63158369414671" lon="7.934644434035369"><ele>413.0</ele><time>2026-04-11T09:28:00Z</time></trkpt><trkpt lat="44.63150134203001" lon="7.934732054830265"><ele>413.0</ele><time>2026-04-11T09:28:01Z</time></trkpt><trkpt lat="44.63141491671755" lon="7.934809140542089"><ele>413.0</ele><time>2026-04-11T09:28:02Z</time></trkpt><trkpt lat="44.631330777317245" lon="7.934887235369238"><ele>413.0</ele><time>2026-04-11T09:28:03Z</time></trkpt><trkpt lat="44.63124642192209" lon="7.934972257713216"><ele>413.0</ele><time>2026-04-11T09:28:04Z</time></trkpt><trkpt lat="44.63116398475906" lon="7.935062700060447"><ele>411.5</ele><time>2026-04-11T09:28:05Z</time></trkpt><trkpt lat="44.631083327396745" lon="7.935167161001365"><ele>410.0</ele><time>2026-04-11T09:28:06Z</time></trkpt><trkpt lat="44.630983166795396" lon="7.935246438627435"><ele>408.5</ele><time>2026-04-11T09:28:07Z</time></trkpt><trkpt lat="44.630883372451315" lon="7.935332946341175"><ele>407.0</ele><time>2026-04-11T09:28:08Z</time></trkpt><trkpt lat="44.630791827235264" lon="7.935447506459673"><ele>407.0</ele><time>2026-04-11T09:28:09Z</time></trkpt><trkpt lat="44.63068159450827" lon="7.935525418782031"><ele>407.0</ele><time>2026-04-11T09:28:10Z</time></trkpt><trkpt lat="44.630577571207546" lon="7.935610807687807"><ele>407.0</ele><time>2026-04-11T09:28:11Z</time></trkpt><trkpt lat="44.630468757225145" lon="7.935694894948107"><ele>407.0</ele><time>2026-04-11T09:28:12Z</time></trkpt><trkpt lat="44.630361596048736" lon="7.935764405673656"><ele>408.75</ele><time>2026-04-11T09:28:13Z</time></trkpt><trkpt lat="44.630253656089536" lon="7.935837035747405"><ele>410.5</ele><time>2026-04-11T09:28:14Z</time></trkpt><trkpt lat="44.63015103733191" lon="7.935933743743291"><ele>412.25</ele><time>2026-04-11T09:28:15Z</time></trkpt><trkpt lat="44.630056283348516" lon="7.936036708794254"><ele>414.0</ele><time>2026-04-11T09:28:16Z</time></trkpt><trkpt lat="44.629959213563545" lon="7.936136592588467"><ele>410.79999999999995</ele><time>2026-04-11T09:28:17Z</time></trkpt><trkpt lat="44.62986377409394" lon="7.936222392090324"><ele>407.59999999999997</ele><time>2026-04-11T09:28:18Z</time></trkpt><trkpt lat="44.629767584643425" lon="7.9362966950246285"><ele>404.4</ele><time>2026-04-11T09:28:19Z</time></trkpt><trkpt lat="44.629672138690836" lon="7.936359712727223"><ele>401.2</ele><time>2026-04-11T09:28:20Z</time></trkpt><trkpt lat="44.62957765423912" lon="7.93641087681671"><ele>398.0</ele><time>2026-04-11T09:28:21Z</time></trkpt><trkpt lat="44.62948490016741" lon="7.9364582816514515"><ele>399.59999999999997</ele><time>2026-04-11T09:28:22Z</time></trkpt><trkpt lat="44.62938761151217" lon="7.936501807959079"><ele>401.2</ele><time>2026-04-11T09:28:23Z</time></trkpt><trkpt lat="44.62929017075641" lon="7.936544162311572"><ele>402.8</ele><time>2026-04-11T09:28:24Z</time></trkpt><trkpt lat="44.629194772219805" lon="7.936586654797508"><ele>404.4</ele><time>2026-04-11T09:28:25Z</time></trkpt><trkpt lat="44.62910168361614" lon="7.936636586625081"><ele>406.0</ele><time>2026-04-11T09:28:26Z</time></trkpt><trkpt lat="44.62901222066525" lon="7.936684675203022"><ele>403.8</ele><time>2026-04-11T09:28:27Z</time></trkpt><trkpt lat="44.628925698758444" lon="7.936730958664895"><ele>401.6</ele><time>2026-04-11T09:28:28Z</time></trkpt><trkpt lat="44.62884146285165" lon="7.936784973195724"><ele>399.4</ele><time>2026-04-11T09:28:29Z</time></trkpt><trkpt lat="44.628761970838795" lon="7.936838833653436"><ele>397.2</ele><time>2026-04-11T09:28:30Z</time></trkpt><trkpt lat="44.628680848340196" lon="7.936898539401874"><ele>395.0</ele><time>2026-04-11T09:28:31Z</time></trkpt><trkpt lat="44.628603705005126" lon="7.936989737168287"><ele>395.0</ele><time>2026-04-11T09:28:31.999Z</time></trkpt><trkpt lat="44.62855254615512" lon="7.937120968472959"><ele>395.0</ele><time>2026-04-11T09:28:32.999Z</time></trkpt><trkpt lat="44.62854652533335" lon="7.937284803452869"><ele>395.0</ele><time>2026-04-11T09:28:33.999Z</time></trkpt><trkpt lat="44.628581409829216" lon="7.937457749041242"><ele>395.0</ele><time>2026-04-11T09:28:34.999Z</time></trkpt><trkpt lat="44.6286280970684" lon="7.93761972268797"><ele>392.25</ele><time>2026-04-11T09:28:35.999Z</time></trkpt><trkpt lat="44.628641686475056" lon="7.937789359871259"><ele>389.5</ele><time>2026-04-11T09:28:36.999Z</time></trkpt><trkpt lat="44.62861658849545" lon="7.937976833490127"><ele>386.75</ele><time>2026-04-11T09:28:37.999Z</time></trkpt><trkpt lat="44.628596602782316" lon="7.938163915227456"><ele>384.0</ele><time>2026-04-11T09:28:38.999Z</time></trkpt><trkpt lat="44.628588372350045" lon="7.938348254328121"><ele>381.0</ele><time>2026-04-11T09:28:39.999Z</time></trkpt><trkpt lat="44.62856309311348" lon="7.938512714273128"><ele>378.0</ele><time>2026-04-11T09:28:40.999Z</time></trkpt><trkpt lat="44.62851175655378" lon="7.938653626895393"><ele>375.0</ele><time>2026-04-11T09:28:41.999Z</time></trkpt><trkpt lat="44.62843740245128" lon="7.938769399536894"><ele>372.0</ele><time>2026-04-11T09:28:42.999Z</time></trkpt><trkpt lat="44.62838118909976" lon="7.938879898846125"><ele>369.0</ele><time>2026-04-11T09:28:43.999Z</time></trkpt><trkpt lat="44.628379217358315" lon="7.939034738618599"><ele>369.0</ele><time>2026-04-11T09:28:44.999Z</time></trkpt><trkpt lat="44.62842208392511" lon="7.939213830065742"><ele>369.0</ele><time>2026-04-11T09:28:45.999Z</time></trkpt><trkpt lat="44.628423803522004" lon="7.939407528940376"><ele>369.0</ele><time>2026-04-11T09:28:46.999Z</time></trkpt><trkpt lat="44.628428177339835" lon="7.9396151211532136"><ele>369.0</ele><time>2026-04-11T09:28:47.999Z</time></trkpt><trkpt lat="44.62841889197358" lon="7.939825869732891"><ele>365.6666666666667</ele><time>2026-04-11T09:28:48.999Z</time></trkpt><trkpt lat="44.6284098024415" lon="7.940038314783863"><ele>362.33333333333337</ele><time>2026-04-11T09:28:49.999Z</time></trkpt><trkpt lat="44.628400835506866" lon="7.940250717462708"><ele>359.0</ele><time>2026-04-11T09:28:50.999Z</time></trkpt><trkpt lat="44.62838593088224" lon="7.940463906622254"><ele>357.25</ele><time>2026-04-11T09:28:51.999Z</time></trkpt><trkpt lat="44.628368911463845" lon="7.940679110819807"><ele>355.5</ele><time>2026-04-11T09:28:52.999Z</time></trkpt><trkpt lat="44.62835589063597" lon="7.940892347461972"><ele>353.75</ele><time>2026-04-11T09:28:53.999Z</time></trkpt><trkpt lat="44.628348568467246" lon="7.9410821998203955"><ele>352.0</ele><time>2026-04-11T09:28:54.999Z</time></trkpt><trkpt lat="44.62834711157465" lon="7.941239184688311"><ele>350.40000000000003</ele><time>2026-04-11T09:28:55.999Z</time></trkpt><trkpt lat="44.62836142083447" lon="7.941369479352792"><ele>348.8</ele><time>2026-04-11T09:28:56.999Z</time></trkpt><trkpt lat="44.628402418905075" lon="7.941500100351031"><ele>347.2</ele><time>2026-04-11T09:28:57.999Z</time></trkpt><trkpt lat="44.62846674900223" lon="7.941622599637595"><ele>345.6</ele><time>2026-04-11T09:28:58.999Z</time></trkpt><trkpt lat="44.628527663543444" lon="7.941753489181477"><ele>344.0</ele><time>2026-04-11T09:28:59.999Z</time></trkpt><trkpt lat="44.62853575094379" lon="7.941912243733168"><ele>342.75</ele><time>2026-04-11T09:29:00.999Z</time></trkpt><trkpt lat="44.62854019486583" lon="7.942070869584505"><ele>341.5</ele><time>2026-04-11T09:29:01.999Z</time></trkpt><trkpt lat="44.62854323051904" lon="7.942232696331152"><ele>340.25</ele><time>2026-04-11T09:29:02.999Z</time></trkpt><trkpt lat="44.62854303875506" lon="7.942393479022659"><ele>339.0</ele><time>2026-04-11T09:29:03.999Z</time></trkpt><trkpt lat="44.62855802292508" lon="7.942554499211017"><ele>337.0</ele><time>2026-04-11T09:29:04.999Z</time></trkpt><trkpt lat="44.62857256722522" lon="7.942710930029346"><ele>335.0</ele><time>2026-04-11T09:29:05.999Z</time></trkpt><trkpt lat="44.62858056634844" lon="7.942859084419047"><ele>333.0</ele><time>2026-04-11T09:29:06.999Z</time></trkpt><trkpt lat="44.6285648890957" lon="7.942974103687679"><ele>331.0</ele><time>2026-04-11T09:29:07.999Z</time></trkpt><trkpt lat="44.62852339853241" lon="7.94305245725076"><ele>329.0</ele><time>2026-04-11T09:29:08.999Z</time></trkpt><trkpt lat="44.628455892827155" lon="7.943090797228448"><ele>327.0</ele><time>2026-04-11T09:29:09.999Z</time></trkpt><trkpt lat="44.62837042972156" lon="7.943065086391505"><ele>327.0</ele><time>2026-04-11T09:29:10.999Z</time></trkpt><trkpt lat="44.628294802981934" lon="7.943035861829614"><ele>327.0</ele><time>2026-04-11T09:29:11.999Z</time></trkpt><trkpt lat="44.62822184711921" lon="7.943090278930948"><ele>327.0</ele><time>2026-04-11T09:29:12.999Z</time></trkpt><trkpt lat="44.62818088060481" lon="7.943208841755522"><ele>327.0</ele><time>2026-04-11T09:29:13.999Z</time></trkpt><trkpt lat="44.628175011067974" lon="7.943344309837203"><ele>327.0</ele><time>2026-04-11T09:29:14.999Z</time></trkpt><trkpt lat="44.62817814429271" lon="7.94346116779682"><ele>327.0</ele><time>2026-04-11T09:29:15.999Z</time></trkpt><trkpt lat="44.62818051017581" lon="7.9435749990099715"><ele>325.6666666666667</ele><time>2026-04-11T09:29:16.999Z</time></trkpt><trkpt lat="44.62817103072901" lon="7.943674730352563"><ele>324.3333333333333</ele><time>2026-04-11T09:29:17.999Z</time></trkpt><trkpt lat="44.62815912824578" lon="7.94377379710538"><ele>323.0</ele><time>2026-04-11T09:29:19Z</time></trkpt><trkpt lat="44.62814631266822" lon="7.943870149089359"><ele>321.66666666666663</ele><time>2026-04-11T09:29:20Z</time></trkpt><trkpt lat="44.628118377299685" lon="7.944035466529061"><ele>320.3333333333333</ele><time>2026-04-11T09:29:22Z</time></trkpt><trkpt lat="44.62807186451635" lon="7.94416865913339"><ele>319.0</ele><time>2026-04-11T09:29:24Z</time></trkpt><trkpt lat="44.62807542941427" lon="7.944297252587909"><ele>319.0</ele><time>2026-04-11T09:29:26Z</time></trkpt><trkpt lat="44.62806423214885" lon="7.944420559160382"><ele>319.0</ele><time>2026-04-11T09:29:28Z</time></trkpt><trkpt lat="44.62806757190643" lon="7.944579197788742"><ele>319.0</ele><time>2026-04-11T09:29:30Z</time></trkpt><trkpt lat="44.62807073512797" lon="7.9447294509100335"><ele>319.0</ele><time>2026-04-11T09:29:32Z</time></trkpt><trkpt lat="44.628089411177996" lon="7.944876530322349"><ele>319.0</ele><time>2026-04-11T09:29:34Z</time></trkpt><trkpt lat="44.62807875405872" lon="7.945030875457625"><ele>318.5</ele><time>2026-04-11T09:29:36Z</time></trkpt><trkpt lat="44.628106015417146" lon="7.945190431919267"><ele>318.0</ele><time>2026-04-11T09:29:38Z</time></trkpt><trkpt lat="44.62810909495197" lon="7.945288088714115"><ele>317.5</ele><time>2026-04-11T09:29:39Z</time></trkpt><trkpt lat="44.62811319072522" lon="7.945389476290274"><ele>317.0</ele><time>2026-04-11T09:29:40Z</time></trkpt><trkpt lat="44.62811085051125" lon="7.945497778622074"><ele>316.5</ele><time>2026-04-11T09:29:41Z</time></trkpt><trkpt lat="44.62811759695512" lon="7.945612627626528"><ele>316.0</ele><time>2026-04-11T09:29:42Z</time></trkpt><trkpt lat="44.628131915202765" lon="7.945731199647167"><ele>316.0</ele><time>2026-04-11T09:29:43Z</time></trkpt><trkpt lat="44.62815445772524" lon="7.9458556298709375"><ele>316.0</ele><time>2026-04-11T09:29:44Z</time></trkpt><trkpt lat="44.62818030848202" lon="7.945981993105556"><ele>316.0</ele><time>2026-04-11T09:29:45Z</time></trkpt><trkpt lat="44.628205506699395" lon="7.946107593311674"><ele>316.0</ele><time>2026-04-11T09:29:46Z</time></trkpt><trkpt lat="44.62823350972905" lon="7.946236012920037"><ele>316.0</ele><time>2026-04-11T09:29:47Z</time></trkpt><trkpt lat="44.62826133072622" lon="7.946368635115611"><ele>315.0</ele><time>2026-04-11T09:29:48Z</time></trkpt><trkpt lat="44.628291862295" lon="7.946494503567919"><ele>314.0</ele><time>2026-04-11T09:29:49Z</time></trkpt><trkpt lat="44.62831573345192" lon="7.946609911320986"><ele>313.0</ele><time>2026-04-11T09:29:50Z</time></trkpt><trkpt lat="44.62833534018094" lon="7.946719933049097"><ele>312.0</ele><time>2026-04-11T09:29:51Z</time></trkpt><trkpt lat="44.628340543805656" lon="7.946815465792853"><ele>311.0</ele><time>2026-04-11T09:29:52Z</time></trkpt><trkpt lat="44.62831612389369" lon="7.946913445351264"><ele>310.0</ele><time>2026-04-11T09:29:53Z</time></trkpt><trkpt lat="44.62825467235175" lon="7.947017477119373"><ele>307.25</ele><time>2026-04-11T09:29:54Z</time></trkpt><trkpt lat="44.628183601914415" lon="7.947122033813186"><ele>304.5</ele><time>2026-04-11T09:29:55Z</time></trkpt><trkpt lat="44.62809325658458" lon="7.947207612428314"><ele>301.75</ele><time>2026-04-11T09:29:56Z</time></trkpt><trkpt lat="44.62801725572661" lon="7.947328066922333"><ele>299.0</ele><time>2026-04-11T09:29:57Z</time></trkpt><trkpt lat="44.62791520214643" lon="7.947424798461412"><ele>296.5</ele><time>2026-04-11T09:29:58Z</time></trkpt><trkpt lat="44.62780929972863" lon="7.9475169976526905"><ele>294.0</ele><time>2026-04-11T09:29:59Z</time></trkpt><trkpt lat="44.62770874664628" lon="7.947596271182324"><ele>291.5</ele><time>2026-04-11T09:30:00Z</time></trkpt><trkpt lat="44.62761904682628" lon="7.94767856174185"><ele>289.0</ele><time>2026-04-11T09:30:01Z</time></trkpt><trkpt lat="44.62753823926074" lon="7.947791871704341"><ele>288.0</ele><time>2026-04-11T09:30:02Z</time></trkpt><trkpt lat="44.62746585228465" lon="7.947930559428137"><ele>287.0</ele><time>2026-04-11T09:30:03Z</time></trkpt><trkpt lat="44.627399706889555" lon="7.948094137262152"><ele>286.0</ele><time>2026-04-11T09:30:04Z</time></trkpt><trkpt lat="44.62733435970486" lon="7.9482647312090275"><ele>285.0</ele><time>2026-04-11T09:30:05Z</time></trkpt><trkpt lat="44.62727225566258" lon="7.94843969880343"><ele>281.5</ele><time>2026-04-11T09:30:06Z</time></trkpt><trkpt lat="44.62720801416804" lon="7.948605209255269"><ele>278.0</ele><time>2026-04-11T09:30:07Z</time></trkpt><trkpt lat="44.62714667857666" lon="7.9487817598647945"><ele>274.5</ele><time>2026-04-11T09:30:08Z</time></trkpt><trkpt lat="44.62709993340597" lon="7.948986111173902"><ele>271.0</ele><time>2026-04-11T09:30:09Z</time></trkpt><trkpt lat="44.62705659057476" lon="7.949198730159857"><ele>266.66666666666663</ele><time>2026-04-11T09:30:10Z</time></trkpt><trkpt lat="44.62701741284757" lon="7.9494096219286305"><ele>262.3333333333333</ele><time>2026-04-11T09:30:11Z</time></trkpt><trkpt lat="44.62696946797138" lon="7.949629973335727"><ele>258.0</ele><time>2026-04-11T09:30:12Z</time></trkpt><trkpt lat="44.626922220562825" lon="7.949855335533285"><ele>255.0</ele><time>2026-04-11T09:30:13Z</time></trkpt><trkpt lat="44.62687036489846" lon="7.95008303872497"><ele>252.0</ele><time>2026-04-11T09:30:14Z</time></trkpt><trkpt lat="44.626832041053426" lon="7.950287051214377"><ele>249.0</ele><time>2026-04-11T09:30:15Z</time></trkpt><trkpt lat="44.6268051626555" lon="7.950478450252517"><ele>249.0</ele><time>2026-04-11T09:30:16Z</time></trkpt><trkpt lat="44.62679077936943" lon="7.950645293652996"><ele>249.0</ele><time>2026-04-11T09:30:17Z</time></trkpt><trkpt lat="44.626759331685825" lon="7.950781121094006"><ele>249.0</ele><time>2026-04-11T09:30:18Z</time></trkpt><trkpt lat="44.62675058449559" lon="7.950894581525805"><ele>249.0</ele><time>2026-04-11T09:30:19Z</time></trkpt><trkpt lat="44.62678915677275" lon="7.950978976229774"><ele>249.0</ele><time>2026-04-11T09:30:20Z</time></trkpt><trkpt lat="44.626852754874925" lon="7.951026484161479"><ele>249.0</ele><time>2026-04-11T09:30:21Z</time></trkpt><trkpt lat="44.62695186014984" lon="7.951028567473054"><ele>245.66666666666666</ele><time>2026-04-11T09:30:22Z</time></trkpt><trkpt lat="44.62703815816223" lon="7.951063135483985"><ele>242.33333333333331</ele><time>2026-04-11T09:30:23Z</time></trkpt><trkpt lat="44.62712949166192" lon="7.95108967749707"><ele>239.0</ele><time>2026-04-11T09:30:24Z</time></trkpt><trkpt lat="44.62721571730429" lon="7.951118422547543"><ele>235.66666666666666</ele><time>2026-04-11T09:30:25Z</time></trkpt><trkpt lat="44.6272647101687" lon="7.951215072393518"><ele>232.33333333333331</ele><time>2026-04-11T09:30:25.999Z</time></trkpt><trkpt lat="44.627257339544684" lon="7.951315643454067"><ele>229.0</ele><time>2026-04-11T09:30:26.999Z</time></trkpt><trkpt lat="44.6272218237794" lon="7.951408819896107"><ele>229.0</ele><time>2026-04-11T09:30:27.999Z</time></trkpt><trkpt lat="44.62715155353058" lon="7.95148700789914"><ele>228.99999999999997</ele><time>2026-04-11T09:30:28.999Z</time></trkpt><trkpt lat="44.6270951102952" lon="7.951601009478394"><ele>228.99999999999997</ele><time>2026-04-11T09:30:29.999Z</time></trkpt><trkpt lat="44.6270279253188" lon="7.951711957697735"><ele>229.0</ele><time>2026-04-11T09:30:30.999Z</time></trkpt><trkpt lat="44.62695666700951" lon="7.9518299954341805"><ele>229.0</ele><time>2026-04-11T09:30:31.999Z</time></trkpt><trkpt lat="44.62688233432869" lon="7.951959269028396"><ele>227.5</ele><time>2026-04-11T09:30:32.999Z</time></trkpt><trkpt lat="44.62680436162567" lon="7.952096612752652"><ele>226.0</ele><time>2026-04-11T09:30:33.999Z</time></trkpt><trkpt lat="44.62671650380846" lon="7.952232450308872"><ele>224.5</ele><time>2026-04-11T09:30:34.999Z</time></trkpt><trkpt lat="44.62663838467641" lon="7.952358570097263"><ele>223.0</ele><time>2026-04-11T09:30:35.999Z</time></trkpt><trkpt lat="44.626588437185944" lon="7.952474611419054"><ele>222.8</ele><time>2026-04-11T09:30:36.999Z</time></trkpt><trkpt lat="44.62655380542096" lon="7.952588819953874"><ele>222.60000000000002</ele><time>2026-04-11T09:30:37.999Z</time></trkpt><trkpt lat="44.6265384489775" lon="7.9527201448156895"><ele>222.39999999999998</ele><time>2026-04-11T09:30:38.999Z</time></trkpt><trkpt lat="44.626544435274674" lon="7.952866123494791"><ele>222.2</ele><time>2026-04-11T09:30:39.999Z</time></trkpt><trkpt lat="44.62656684048709" lon="7.953013714440381"><ele>222.0</ele><time>2026-04-11T09:30:40.999Z</time></trkpt><trkpt lat="44.62662262502727" lon="7.9531463778869735"><ele>222.0</ele><time>2026-04-11T09:30:41.999Z</time></trkpt><trkpt lat="44.62668207199092" lon="7.953269476484476"><ele>222.0</ele><time>2026-04-11T09:30:42.999Z</time></trkpt><trkpt lat="44.62673536480299" lon="7.9533924525297"><ele>222.0</ele><time>2026-04-11T09:30:43.999Z</time></trkpt><trkpt lat="44.62678929397365" lon="7.953514998636898"><ele>222.0</ele><time>2026-04-11T09:30:44.999Z</time></trkpt><trkpt lat="44.62685117566653" lon="7.95362840074888"><ele>222.0</ele><time>2026-04-11T09:30:45.999Z</time></trkpt><trkpt lat="44.626917515745966" lon="7.9537339548690635"><ele>222.0</ele><time>2026-04-11T09:30:46.999Z</time></trkpt><trkpt lat="44.62696922160751" lon="7.953852788935234"><ele>222.0</ele><time>2026-04-11T09:30:47.999Z</time></trkpt><trkpt lat="44.62703701396393" lon="7.953946187674507"><ele>222.0</ele><time>2026-04-11T09:30:48.999Z</time></trkpt><trkpt lat="44.627083276333614" lon="7.954062727110841"><ele>222.0</ele><time>2026-04-11T09:30:49.999Z</time></trkpt><trkpt lat="44.62713667253584" lon="7.954167744721797"><ele>222.0</ele><time>2026-04-11T09:30:50.999Z</time></trkpt><trkpt lat="44.62719212188009" lon="7.954270467942004"><ele>221.66666666666666</ele><time>2026-04-11T09:30:51.999Z</time></trkpt><trkpt lat="44.627248876670784" lon="7.954374059801811"><ele>221.33333333333331</ele><time>2026-04-11T09:30:52.999Z</time></trkpt><trkpt lat="44.627302242798166" lon="7.954472678479991"><ele>221.0</ele><time>2026-04-11T09:30:53.999Z</time></trkpt><trkpt lat="44.62735804318659" lon="7.9545648759042935"><ele>220.66666666666666</ele><time>2026-04-11T09:30:54.999Z</time></trkpt><trkpt lat="44.62741178056266" lon="7.954657921828956"><ele>220.33333333333331</ele><time>2026-04-11T09:30:55.999Z</time></trkpt><trkpt lat="44.62746898688866" lon="7.9547490744289036"><ele>220.0</ele><time>2026-04-11T09:30:56.999Z</time></trkpt><trkpt lat="44.627526541144" lon="7.954835335008223"><ele>219.99999999999997</ele><time>2026-04-11T09:30:57.999Z</time></trkpt><trkpt lat="44.62758782957439" lon="7.95491077134916"><ele>220.0</ele><time>2026-04-11T09:30:58.999Z</time></trkpt><trkpt lat="44.62765434553074" lon="7.954981649820338"><ele>220.0</ele><time>2026-04-11T09:30:59.999Z</time></trkpt><trkpt lat="44.62772053582838" lon="7.955058854556114"><ele>220.0</ele><time>2026-04-11T09:31:00.999Z</time></trkpt><trkpt lat="44.62778064783151" lon="7.955132400796561"><ele>219.99999999999997</ele><time>2026-04-11T09:31:01.999Z</time></trkpt><trkpt lat="44.62783126424392" lon="7.955219155805883"><ele>220.0</ele><time>2026-04-11T09:31:02.999Z</time></trkpt><trkpt lat="44.62789155319712" lon="7.955277362616609"><ele>219.25</ele><time>2026-04-11T09:31:03.999Z</time></trkpt><trkpt lat="44.627935141789735" lon="7.955359306384912"><ele>218.5</ele><time>2026-04-11T09:31:05.999Z</time></trkpt><trkpt lat="44.628052962548075" lon="7.9551589746279845"><ele>217.75</ele><time>2026-04-11T09:31:07.999Z</time></trkpt><trkpt lat="44.6281128318343" lon="7.955007505457882"><ele>217.0</ele><time>2026-04-11T09:31:09.999Z</time></trkpt><trkpt lat="44.62818947504878" lon="7.954873035270838"><ele>217.0</ele><time>2026-04-11T09:31:11.999Z</time></trkpt><trkpt lat="44.62827501902689" lon="7.954746670839041"><ele>217.0</ele><time>2026-04-11T09:31:13.999Z</time></trkpt><trkpt lat="44.62834972633812" lon="7.954619117361214"><ele>217.0</ele><time>2026-04-11T09:31:15.999Z</time></trkpt><trkpt lat="44.628439992371845" lon="7.954509871291135"><ele>217.0</ele><time>2026-04-11T09:31:17.999Z</time></trkpt><trkpt lat="44.62853652648788" lon="7.954412000079614"><ele>217.0</ele><time>2026-04-11T09:31:19.999Z</time></trkpt><trkpt lat="44.62863240790605" lon="7.9543264543803565"><ele>217.0</ele><time>2026-04-11T09:31:21.999Z</time></trkpt><trkpt lat="44.62872884112155" lon="7.954251089385922"><ele>217.0</ele><time>2026-04-11T09:31:23.999Z</time></trkpt><trkpt lat="44.628816864643234" lon="7.954166064781989"><ele>217.0</ele><time>2026-04-11T09:31:26Z</time></trkpt><trkpt lat="44.62890908459613" lon="7.9540808148919195"><ele>217.0</ele><time>2026-04-11T09:31:28Z</time></trkpt><trkpt lat="44.629001209207" lon="7.954007821268575"><ele>218.2</ele><time>2026-04-11T09:31:30Z</time></trkpt><trkpt lat="44.629086989094624" lon="7.9539346495687555"><ele>219.39999999999998</ele><time>2026-04-11T09:31:32Z</time></trkpt><trkpt lat="44.62916956976057" lon="7.953864595170791"><ele>220.60000000000002</ele><time>2026-04-11T09:31:35Z</time></trkpt><trkpt lat="44.6292580303452" lon="7.953799754922902"><ele>221.8</ele><time>2026-04-11T09:31:36Z</time></trkpt><trkpt lat="44.62932755880873" lon="7.953740002866036"><ele>223.0</ele><time>2026-04-11T09:31:38Z</time></trkpt><trkpt lat="44.62939892213017" lon="7.95368137975534"><ele>222.99999999999997</ele><time>2026-04-11T09:31:40Z</time></trkpt><trkpt lat="44.62946598461692" lon="7.953616625879972"><ele>223.0</ele><time>2026-04-11T09:31:42Z</time></trkpt><trkpt lat="44.62952843118488" lon="7.953552704751428"><ele>223.0</ele><time>2026-04-11T09:31:44Z</time></trkpt><trkpt lat="44.62958852258284" lon="7.953493746365316"><ele>223.0</ele><time>2026-04-11T09:31:46Z</time></trkpt><trkpt lat="44.629655417948314" lon="7.953443643853953"><ele>222.99999999999997</ele><time>2026-04-11T09:31:48Z</time></trkpt><trkpt lat="44.62971882687299" lon="7.953387229582358"><ele>223.0</ele><time>2026-04-11T09:31:50Z</time></trkpt><trkpt lat="44.62978341207728" lon="7.95333335349681"><ele>223.83333333333331</ele><time>2026-04-11T09:31:52Z</time></trkpt><trkpt lat="44.62984617140322" lon="7.953271000040924"><ele>224.66666666666666</ele><time>2026-04-11T09:31:54Z</time></trkpt><trkpt lat="44.629893077033906" lon="7.953207865158601"><ele>225.5</ele><time>2026-04-11T09:31:56Z</time></trkpt><trkpt lat="44.629959978355096" lon="7.9531269054983955"><ele>226.33333333333331</ele><time>2026-04-11T09:31:58Z</time></trkpt><trkpt lat="44.63001270825978" lon="7.9530467325592635"><ele>227.16666666666666</ele><time>2026-04-11T09:32:00Z</time></trkpt><trkpt lat="44.630066990058786" lon="7.95296475381994"><ele>228.0</ele><time>2026-04-11T09:32:02Z</time></trkpt><trkpt lat="44.63012582728949" lon="7.952879198358104"><ele>228.0</ele><time>2026-04-11T09:32:04Z</time></trkpt><trkpt lat="44.63017942791951" lon="7.952784276421953"><ele>228.0</ele><time>2026-04-11T09:32:06Z</time></trkpt><trkpt lat="44.6302314791169" lon="7.952708460985376"><ele>228.0</ele><time>2026-04-11T09:32:08Z</time></trkpt><trkpt lat="44.63029347353789" lon="7.952627029956806"><ele>228.0</ele><time>2026-04-11T09:32:10Z</time></trkpt><trkpt lat="44.630347761792216" lon="7.952534703592188"><ele>228.0</ele><time>2026-04-11T09:32:12Z</time></trkpt><trkpt lat="44.63039591602201" lon="7.952436988738279"><ele>228.0</ele><time>2026-04-11T09:32:14Z</time></trkpt><trkpt lat="44.63044737563753" lon="7.952344845028123"><ele>228.33333333333334</ele><time>2026-04-11T09:32:16Z</time></trkpt><trkpt lat="44.63047798183031" lon="7.952253347517716"><ele>228.66666666666669</ele><time>2026-04-11T09:32:18Z</time></trkpt><trkpt lat="44.630519488555514" lon="7.952155248783011"><ele>229.0</ele><time>2026-04-11T09:32:20Z</time></trkpt><trkpt lat="44.630549199258006" lon="7.9520481368441365"><ele>229.33333333333334</ele><time>2026-04-11T09:32:22Z</time></trkpt><trkpt lat="44.63058536399148" lon="7.951941847374057"><ele>229.66666666666669</ele><time>2026-04-11T09:32:23.999Z</time></trkpt><trkpt lat="44.63061775517224" lon="7.9518348906128615"><ele>230.0</ele><time>2026-04-11T09:32:25.999Z</time></trkpt><trkpt lat="44.63065558853676" lon="7.951735596639265"><ele>229.83333333333334</ele><time>2026-04-11T09:32:27.999Z</time></trkpt><trkpt lat="44.63071164143335" lon="7.951650668518167"><ele>229.66666666666669</ele><time>2026-04-11T09:32:29.999Z</time></trkpt><trkpt lat="44.63077671375634" lon="7.951565973052022"><ele>229.5</ele><time>2026-04-11T09:32:31.999Z</time></trkpt><trkpt lat="44.63084546912691" lon="7.951482826945195"><ele>229.33333333333331</ele><time>2026-04-11T09:32:33.999Z</time></trkpt><trkpt lat="44.63092011429918" lon="7.951411483838351"><ele>229.16666666666666</ele><time>2026-04-11T09:32:35.999Z</time></trkpt><trkpt lat="44.631001557654145" lon="7.951355982158288"><ele>229.0</ele><time>2026-04-11T09:32:37.999Z</time></trkpt><trkpt lat="44.63107815095765" lon="7.951285588980796"><ele>229.39999999999998</ele><time>2026-04-11T09:32:39.999Z</time></trkpt><trkpt lat="44.63116020396833" lon="7.951220106316555"><ele>229.79999999999998</ele><time>2026-04-11T09:32:41.999Z</time></trkpt><trkpt lat="44.63125362864861" lon="7.951147819906471"><ele>230.20000000000002</ele><time>2026-04-11T09:32:43.999Z</time></trkpt><trkpt lat="44.63132712814651" lon="7.951070990229422"><ele>230.60000000000002</ele><time>2026-04-11T09:32:45.999Z</time></trkpt><trkpt lat="44.63140626208918" lon="7.951012119893529"><ele>231.0</ele><time>2026-04-11T09:32:47.999Z</time></trkpt><trkpt lat="44.631478351548026" lon="7.9509446367226895"><ele>231.0</ele><time>2026-04-11T09:32:49.999Z</time></trkpt><trkpt lat="44.63153777287755" lon="7.950876000388946"><ele>231.0</ele><time>2026-04-11T09:32:51.999Z</time></trkpt><trkpt lat="44.63160986836208" lon="7.950830009295708"><ele>231.0</ele><time>2026-04-11T09:32:53.999Z</time></trkpt><trkpt lat="44.63167944525011" lon="7.950768877871878"><ele>231.0</ele><time>2026-04-11T09:32:55.999Z</time></trkpt><trkpt lat="44.63174232294514" lon="7.950697994019623"><ele>231.0</ele><time>2026-04-11T09:32:57.999Z</time></trkpt><trkpt lat="44.63180672585864" lon="7.9506319712136655"><ele>231.0</ele><time>2026-04-11T09:32:59.999Z</time></trkpt><trkpt lat="44.63187047060071" lon="7.950559816691993"><ele>230.85714285714286</ele><time>2026-04-11T09:33:01.999Z</time></trkpt><trkpt lat="44.6319328787924" lon="7.950492611816952"><ele>230.71428571428572</ele><time>2026-04-11T09:33:03.999Z</time></trkpt><trkpt lat="44.631997862083516" lon="7.950427600105813"><ele>230.57142857142856</ele><time>2026-04-11T09:33:05.999Z</time></trkpt><trkpt lat="44.63206667443625" lon="7.950361081308781"><ele>230.42857142857142</ele><time>2026-04-11T09:33:07.999Z</time></trkpt><trkpt lat="44.632125475660246" lon="7.950325412193556"><ele>230.28571428571428</ele><time>2026-04-11T09:33:09.999Z</time></trkpt><trkpt lat="44.63218721681153" lon="7.950287610090921"><ele>230.1428571428571</ele><time>2026-04-11T09:33:11.999Z</time></trkpt><trkpt lat="44.632241157156095" lon="7.950219832700327"><ele>229.99999999999997</ele><time>2026-04-11T09:33:14.999Z</time></trkpt><trkpt lat="44.63231293790908" lon="7.950134614901586"><ele>230.99999999999997</ele><time>2026-04-11T09:33:16.999Z</time></trkpt><trkpt lat="44.63235763243662" lon="7.950063355087708"><ele>232.0</ele><time>2026-04-11T09:33:18.999Z</time></trkpt><trkpt lat="44.632418804385686" lon="7.949983476346667"><ele>232.99999999999997</ele><time>2026-04-11T09:33:20.999Z</time></trkpt><trkpt lat="44.632479508891684" lon="7.949909730808042"><ele>233.99999999999997</ele><time>2026-04-11T09:33:23.999Z</time></trkpt><trkpt lat="44.632541010730385" lon="7.949830686826934"><ele>235.0</ele><time>2026-04-11T09:33:25.999Z</time></trkpt><trkpt lat="44.6325853623497" lon="7.9497661197257425"><ele>235.99999999999997</ele><time>2026-04-11T09:33:27.999Z</time></trkpt><trkpt lat="44.632637473885744" lon="7.949703481052693"><ele>236.99999999999997</ele><time>2026-04-11T09:33:31Z</time></trkpt><trkpt lat="44.63269857707273" lon="7.949622088031544"><ele>237.0</ele><time>2026-04-11T09:33:34Z</time></trkpt><trkpt lat="44.63275814897721" lon="7.949530262897445"><ele>237.0</ele><time>2026-04-11T09:33:37Z</time></trkpt><trkpt lat="44.632811699029574" lon="7.949445169016145"><ele>237.0</ele><time>2026-04-11T09:33:40Z</time></trkpt><trkpt lat="44.632856039752234" lon="7.949358672610336"><ele>237.0</ele><time>2026-04-11T09:33:43Z</time></trkpt><trkpt lat="44.632935972778796" lon="7.9492382328636975"><ele>237.0</ele><time>2026-04-11T09:33:44Z</time></trkpt><trkpt lat="44.63297431061096" lon="7.949165525857099"><ele>237.0</ele><time>2026-04-11T09:33:46Z</time></trkpt><trkpt lat="44.633005127417924" lon="7.949082126659581"><ele>238.83333333333334</ele><time>2026-04-11T09:33:48Z</time></trkpt><trkpt lat="44.6330201402769" lon="7.948994757731576"><ele>240.66666666666669</ele><time>2026-04-11T09:33:51Z</time></trkpt><trkpt lat="44.63305120578362" lon="7.948917694493868"><ele>242.5</ele><time>2026-04-11T09:33:53Z</time></trkpt><trkpt lat="44.63308921578277" lon="7.948807722413692"><ele>244.33333333333334</ele><time>2026-04-11T09:33:56Z</time></trkpt><trkpt lat="44.633121759961206" lon="7.948694966116602"><ele>246.16666666666669</ele><time>2026-04-11T09:33:59Z</time></trkpt><trkpt lat="44.63315762532112" lon="7.948596427551663"><ele>248.0</ele><time>2026-04-11T09:34:02Z</time></trkpt><trkpt lat="44.63319351883574" lon="7.948488505831136"><ele>248.00000000000003</ele><time>2026-04-11T09:34:05Z</time></trkpt><trkpt lat="44.63322528282918" lon="7.948404455470723"><ele>248.0</ele><time>2026-04-11T09:34:08Z</time></trkpt><trkpt lat="44.6332749005369" lon="7.9482961612534275"><ele>248.0</ele><time>2026-04-11T09:34:11Z</time></trkpt><trkpt lat="44.633310953425244" lon="7.9482177853870954"><ele>248.0</ele><time>2026-04-11T09:34:13Z</time></trkpt><trkpt lat="44.63337829387288" lon="7.9480687156942675"><ele>248.00000000000003</ele><time>2026-04-11T09:34:14.999Z</time></trkpt><trkpt lat="44.6334244119504" lon="7.9479547074724515"><ele>248.0</ele><time>2026-04-11T09:34:17.999Z</time></trkpt><trkpt lat="44.63345845411754" lon="7.947874904277792"><ele>247.42857142857144</ele><time>2026-04-11T09:34:19.999Z</time></trkpt><trkpt lat="44.63349163734836" lon="7.947793614041757"><ele>246.8571428571429</ele><time>2026-04-11T09:34:21.999Z</time></trkpt><trkpt lat="44.633528464748764" lon="7.94771013684966"><ele>246.28571428571428</ele><time>2026-04-11T09:34:23.999Z</time></trkpt><trkpt lat="44.6335640967405" lon="7.947624209700394"><ele>245.71428571428572</ele><time>2026-04-11T09:34:25.999Z</time></trkpt><trkpt lat="44.633596294490346" lon="7.947543512806625"><ele>245.14285714285714</ele><time>2026-04-11T09:34:27.999Z</time></trkpt><trkpt lat="44.633624341740365" lon="7.94746271235825"><ele>244.57142857142856</ele><time>2026-04-11T09:34:29.999Z</time></trkpt><trkpt lat="44.633670305400685" lon="7.947344303358564"><ele>243.99999999999997</ele><time>2026-04-11T09:34:32.999Z</time></trkpt><trkpt lat="44.633702720505305" lon="7.947231520755404"><ele>245.49999999999997</ele><time>2026-04-11T09:34:35.999Z</time></trkpt><trkpt lat="44.633728472069095" lon="7.947150088992179"><ele>247.0</ele><time>2026-04-11T09:34:37.999Z</time></trkpt><trkpt lat="44.63375868483618" lon="7.9470668394076585"><ele>248.5</ele><time>2026-04-11T09:34:39.999Z</time></trkpt><trkpt lat="44.63378406537571" lon="7.9469857441472955"><ele>250.0</ele><time>2026-04-11T09:34:41.999Z</time></trkpt><trkpt lat="44.633814559085415" lon="7.9468666099397085"><ele>251.49999999999997</ele><time>2026-04-11T09:34:44.999Z</time></trkpt><trkpt lat="44.63385753732242" lon="7.946757529626698"><ele>253.0</ele><time>2026-04-11T09:34:48.999Z</time></trkpt><trkpt lat="44.63390988553093" lon="7.946630560107552"><ele>253.16666666666666</ele><time>2026-04-11T09:34:51.999Z</time></trkpt><trkpt lat="44.63395484731916" lon="7.946537953431273"><ele>253.33333333333331</ele><time>2026-04-11T09:34:55.999Z</time></trkpt><trkpt lat="44.633994229497105" lon="7.94643803253865"><ele>253.5</ele><time>2026-04-11T09:34:59.999Z</time></trkpt><trkpt lat="44.634021702694824" lon="7.946358024275268"><ele>253.66666666666669</ele><time>2026-04-11T09:35:02.999Z</time></trkpt><trkpt lat="44.634044387495926" lon="7.946263443615188"><ele>253.83333333333334</ele><time>2026-04-11T09:35:06.999Z</time></trkpt><trkpt lat="44.63407845308581" lon="7.946167279530291"><ele>254.0</ele><time>2026-04-11T09:35:10.999Z</time></trkpt><trkpt lat="44.63408622172004" lon="7.946057160834885"><ele>254.0</ele><time>2026-04-11T09:35:15.999Z</time></trkpt><trkpt lat="44.63408212522099" lon="7.945947616502201"><ele>254.0</ele><time>2026-04-11T09:35:20.999Z</time></trkpt><trkpt lat="44.63407483068292" lon="7.945851838564501"><ele>254.0</ele><time>2026-04-11T09:35:25.999Z</time></trkpt><trkpt lat="44.63407124639165" lon="7.945762536748827"><ele>254.0</ele><time>2026-04-11T09:35:29.999Z</time></trkpt><trkpt lat="44.634051238702654" lon="7.945669093379119"><ele>254.0</ele><time>2026-04-11T09:35:34.999Z</time></trkpt><trkpt lat="44.634031491130784" lon="7.945564975753902"><ele>254.0</ele><time>2026-04-11T09:35:40Z</time></trkpt><trkpt lat="44.63400731200159" lon="7.945462785068377"><ele>254.0</ele><time>2026-04-11T09:35:45Z</time></trkpt><trkpt lat="44.63399036330245" lon="7.945370536091202"><ele>255.0</ele><time>2026-04-11T09:35:50Z</time></trkpt><trkpt lat="44.63396910520719" lon="7.945276672157889"><ele>256.0</ele><time>2026-04-11T09:35:55Z</time></trkpt><trkpt lat="44.6339614081102" lon="7.9451698840078775"><ele>257.0</ele><time>2026-04-11T09:36:00Z</time></trkpt><trkpt lat="44.633952221809025" lon="7.945079324639131"><ele>258.0</ele><time>2026-04-11T09:36:05Z</time></trkpt><trkpt lat="44.63394879370542" lon="7.944972671017569"><ele>259.0</ele><time>2026-04-11T09:36:09.999Z</time></trkpt><trkpt lat="44.63394317958145" lon="7.944872626074262"><ele>260.0</ele><time>2026-04-11T09:36:14.999Z</time></trkpt><trkpt lat="44.63395017372189" lon="7.944761564442717"><ele>261.0</ele><time>2026-04-11T09:36:20.999Z</time></trkpt><trkpt lat="44.63395140816895" lon="7.944667739554532"><ele>263.0</ele><time>2026-04-11T09:36:25.999Z</time></trkpt><trkpt lat="44.634012647646514" lon="7.944614665065454"><ele>265.0</ele><time>2026-04-11T09:36:31.999Z</time></trkpt><trkpt lat="44.63405550495629" lon="7.944693739758998"><ele>267.0</ele><time>2026-04-11T09:36:34.999Z</time></trkpt><trkpt lat="44.634112138192485" lon="7.944770785178066"><ele>269.0</ele><time>2026-04-11T09:36:36.999Z</time></trkpt><trkpt lat="44.63418168693455" lon="7.944852029079173"><ele>271.0</ele><time>2026-04-11T09:36:37.999Z</time></trkpt><trkpt lat="44.6342710672829" lon="7.9449678269739685"><ele>273.0</ele><time>2026-04-11T09:36:39.999Z</time></trkpt><trkpt lat="44.634325360226015" lon="7.945023917554786"><ele>273.5</ele><time>2026-04-11T09:36:40.999Z</time></trkpt><trkpt lat="44.63437823259836" lon="7.945077289258485"><ele>274.0</ele><time>2026-04-11T09:36:41.999Z</time></trkpt><trkpt lat="44.63443174230164" lon="7.9451250935807405"><ele>274.5</ele><time>2026-04-11T09:36:42.999Z</time></trkpt><trkpt lat="44.63450688660127" lon="7.945170193480523"><ele>275.0</ele><time>2026-04-11T09:36:43.999Z</time></trkpt><trkpt lat="44.63461363253076" lon="7.945226286333037"><ele>275.5</ele><time>2026-04-11T09:36:45.999Z</time></trkpt><trkpt lat="44.63469311168355" lon="7.945329007452312"><ele>276.0</ele><time>2026-04-11T09:36:47.999Z</time></trkpt><trkpt lat="44.63477317521899" lon="7.9453994726698784"><ele>276.0</ele><time>2026-04-11T09:36:49.999Z</time></trkpt><trkpt lat="44.634846509868304" lon="7.945470733540821"><ele>276.0</ele><time>2026-04-11T09:36:51.999Z</time></trkpt><trkpt lat="44.63490912191165" lon="7.945544665321409"><ele>276.0</ele><time>2026-04-11T09:36:53.999Z</time></trkpt><trkpt lat="44.63495898982317" lon="7.945607919107146"><ele>276.0</ele><time>2026-04-11T09:36:55.999Z</time></trkpt><trkpt lat="44.63502246203226" lon="7.945691746004641"><ele>276.0</ele><time>2026-04-11T09:36:58.999Z</time></trkpt><trkpt lat="44.63506802065898" lon="7.9457533598507775"><ele>276.0</ele><time>2026-04-11T09:37:00.999Z</time></trkpt><trkpt lat="44.635129424794094" lon="7.9458377836024"><ele>275.2857142857143</ele><time>2026-04-11T09:37:03.999Z</time></trkpt><trkpt lat="44.63520344299038" lon="7.945907574270297"><ele>274.5714285714286</ele><time>2026-04-11T09:37:06.999Z</time></trkpt><trkpt lat="44.63524931849201" lon="7.945972369023496"><ele>273.8571428571429</ele><time>2026-04-11T09:37:09.999Z</time></trkpt><trkpt lat="44.63529474971077" lon="7.946035307033333"><ele>273.14285714285717</ele><time>2026-04-11T09:37:11.999Z</time></trkpt><trkpt lat="44.6353286304693" lon="7.946117232788245"><ele>272.42857142857144</ele><time>2026-04-11T09:37:13.999Z</time></trkpt><trkpt lat="44.6354039475629" lon="7.946184717936273"><ele>271.7142857142857</ele><time>2026-04-11T09:37:16.999Z</time></trkpt><trkpt lat="44.635452968231895" lon="7.946250570972259"><ele>271.0</ele><time>2026-04-11T09:37:18.999Z</time></trkpt><trkpt lat="44.63550203214221" lon="7.946317832718917"><ele>273.7142857142857</ele><time>2026-04-11T09:37:20.999Z</time></trkpt><trkpt lat="44.63555589729617" lon="7.946388709213289"><ele>276.42857142857144</ele><time>2026-04-11T09:37:22.999Z</time></trkpt><trkpt lat="44.6356037258932" lon="7.946448486292684"><ele>279.14285714285717</ele><time>2026-04-11T09:37:24.999Z</time></trkpt><trkpt lat="44.63566471602397" lon="7.946510250533308"><ele>281.8571428571429</ele><time>2026-04-11T09:37:27.999Z</time></trkpt><trkpt lat="44.63571539670595" lon="7.946574675794225"><ele>284.5714285714286</ele><time>2026-04-11T09:37:29.999Z</time></trkpt><trkpt lat="44.63576999039492" lon="7.946642274826862"><ele>287.2857142857143</ele><time>2026-04-11T09:37:31.999Z</time></trkpt><trkpt lat="44.6358138533882" lon="7.946715340401545"><ele>290.0</ele><time>2026-04-11T09:37:33.999Z</time></trkpt><trkpt lat="44.63585078203335" lon="7.9467929242740265"><ele>290.1666666666667</ele><time>2026-04-11T09:37:35.999Z</time></trkpt><trkpt lat="44.63588000345933" lon="7.946872365935266"><ele>290.33333333333337</ele><time>2026-04-11T09:37:37.999Z</time></trkpt><trkpt lat="44.635913116001426" lon="7.946950521402159"><ele>290.5</ele><time>2026-04-11T09:37:39.999Z</time></trkpt><trkpt lat="44.63595401511012" lon="7.947063761199769"><ele>290.6666666666667</ele><time>2026-04-11T09:37:43Z</time></trkpt><trkpt lat="44.63599229925947" lon="7.947179531024168"><ele>290.8333333333333</ele><time>2026-04-11T09:37:46Z</time></trkpt><trkpt lat="44.63602192140661" lon="7.9472930329795535"><ele>291.0</ele><time>2026-04-11T09:37:49Z</time></trkpt><trkpt lat="44.63605135806039" lon="7.947398978827241"><ele>291.0</ele><time>2026-04-11T09:37:52Z</time></trkpt><trkpt lat="44.636090003529866" lon="7.947509236360619"><ele>291.0</ele><time>2026-04-11T09:37:55Z</time></trkpt><trkpt lat="44.63612647749884" lon="7.94760745239325"><ele>291.0</ele><time>2026-04-11T09:37:58Z</time></trkpt><trkpt lat="44.63614988381722" lon="7.9477230310082785"><ele>291.0</ele><time>2026-04-11T09:38:01Z</time></trkpt><trkpt lat="44.636186073594146" lon="7.947825989479187"><ele>291.0</ele><time>2026-04-11T09:38:03.999Z</time></trkpt><trkpt lat="44.63623892354009" lon="7.947925577210356"><ele>291.0</ele><time>2026-04-11T09:38:06.999Z</time></trkpt><trkpt lat="44.63631489843676" lon="7.9479594698890565"><ele>293.0</ele><time>2026-04-11T09:38:09.999Z</time></trkpt><trkpt lat="44.636390938205324" lon="7.947956681612464"><ele>295.0</ele><time>2026-04-11T09:38:13.999Z</time></trkpt><trkpt lat="44.636451776389876" lon="7.947919188836896"><ele>297.0</ele><time>2026-04-11T09:38:17.999Z</time></trkpt><trkpt lat="44.63650335086048" lon="7.947861311490233"><ele>299.0</ele><time>2026-04-11T09:38:21.999Z</time></trkpt><trkpt lat="44.63653288045659" lon="7.947779675940819"><ele>301.0</ele><time>2026-04-11T09:38:25.999Z</time></trkpt><trkpt lat="44.63655651759544" lon="7.947697331565576"><ele>303.0</ele><time>2026-04-11T09:38:29.999Z</time></trkpt><trkpt lat="44.636585331915754" lon="7.947606437756773"><ele>305.0</ele><time>2026-04-11T09:38:33.999Z</time></trkpt><trkpt lat="44.63661174599496" lon="7.947503530988664"><ele>305.0</ele><time>2026-04-11T09:38:37.999Z</time></trkpt><trkpt lat="44.636648558522445" lon="7.947401910070687"><ele>305.0</ele><time>2026-04-11T09:38:41.999Z</time></trkpt><trkpt lat="44.636695079553526" lon="7.947321605403533"><ele>305.0</ele><time>2026-04-11T09:38:44.999Z</time></trkpt><trkpt lat="44.636704322687315" lon="7.947409966348672"><ele>305.0</ele><time>2026-04-11T09:38:47.999Z</time></trkpt><trkpt lat="44.63666946962989" lon="7.947538009743541"><ele>305.0</ele><time>2026-04-11T09:38:50.999Z</time></trkpt><trkpt lat="44.63665853195325" lon="7.947656078214369"><ele>305.0</ele><time>2026-04-11T09:38:52.999Z</time></trkpt><trkpt lat="44.636655687235304" lon="7.947855874449093"><ele>305.6</ele><time>2026-04-11T09:38:54.999Z</time></trkpt><trkpt lat="44.636666356764685" lon="7.948018631095855"><ele>306.2</ele><time>2026-04-11T09:38:56.999Z</time></trkpt><trkpt lat="44.63669665275957" lon="7.948194714361423"><ele>306.8</ele><time>2026-04-11T09:38:58.999Z</time></trkpt><trkpt lat="44.636725089975144" lon="7.948283078514417"><ele>307.4</ele><time>2026-04-11T09:38:59.999Z</time></trkpt><trkpt lat="44.636755794109035" lon="7.9483749598466815"><ele>308.0</ele><time>2026-04-11T09:39:00.999Z</time></trkpt><trkpt lat="44.63678516450989" lon="7.948472676339544"><ele>308.6666666666667</ele><time>2026-04-11T09:39:01.999Z</time></trkpt><trkpt lat="44.63682120665863" lon="7.948572757980507"><ele>309.33333333333337</ele><time>2026-04-11T09:39:02.999Z</time></trkpt><trkpt lat="44.63686560832241" lon="7.94867325062048"><ele>310.0</ele><time>2026-04-11T09:39:03.999Z</time></trkpt><trkpt lat="44.63691497425464" lon="7.948776700323304"><ele>310.6666666666667</ele><time>2026-04-11T09:39:04.999Z</time></trkpt><trkpt lat="44.63696795926576" lon="7.948879230853911"><ele>311.3333333333333</ele><time>2026-04-11T09:39:05.999Z</time></trkpt><trkpt lat="44.637020871204804" lon="7.948982796075261"><ele>312.0</ele><time>2026-04-11T09:39:06.999Z</time></trkpt><trkpt lat="44.6370704565263" lon="7.949098463051185"><ele>307.4</ele><time>2026-04-11T09:39:07.999Z</time></trkpt><trkpt lat="44.63711794387732" lon="7.94921734489831"><ele>302.79999999999995</ele><time>2026-04-11T09:39:08.999Z</time></trkpt><trkpt lat="44.637167238653284" lon="7.94934041510512"><ele>298.2</ele><time>2026-04-11T09:39:09.999Z</time></trkpt><trkpt lat="44.63721694617708" lon="7.949467444683477"><ele>293.59999999999997</ele><time>2026-04-11T09:39:10.999Z</time></trkpt><trkpt lat="44.63726137826056" lon="7.949601004502217"><ele>289.0</ele><time>2026-04-11T09:39:11.999Z</time></trkpt><trkpt lat="44.637289694565794" lon="7.949744537780724"><ele>289.0</ele><time>2026-04-11T09:39:12.999Z</time></trkpt><trkpt lat="44.63729941532802" lon="7.949896469676631"><ele>289.0</ele><time>2026-04-11T09:39:13.999Z</time></trkpt><trkpt lat="44.637299228044554" lon="7.9500476751521125"><ele>289.0</ele><time>2026-04-11T09:39:14.999Z</time></trkpt><trkpt lat="44.63728875913224" lon="7.95019646486815"><ele>289.0</ele><time>2026-04-11T09:39:15.999Z</time></trkpt><trkpt lat="44.63727054117306" lon="7.950344498016866"><ele>289.0</ele><time>2026-04-11T09:39:16.999Z</time></trkpt><trkpt lat="44.637249059722585" lon="7.950493869639369"><ele>288.59999999999997</ele><time>2026-04-11T09:39:17.999Z</time></trkpt><trkpt lat="44.63722883180252" lon="7.950644459004563"><ele>288.2</ele><time>2026-04-11T09:39:18.999Z</time></trkpt><trkpt lat="44.637210312702834" lon="7.950796923537087"><ele>287.79999999999995</ele><time>2026-04-11T09:39:19.999Z</time></trkpt><trkpt lat="44.63719161846114" lon="7.950951605206012"><ele>287.4</ele><time>2026-04-11T09:39:20.999Z</time></trkpt><trkpt lat="44.637153292693995" lon="7.951095539297548"><ele>287.0</ele><time>2026-04-11T09:39:21.999Z</time></trkpt><trkpt lat="44.63707088642974" lon="7.9512036815094715"><ele>287.0</ele><time>2026-04-11T09:39:22.999Z</time></trkpt><trkpt lat="44.63699277448616" lon="7.95131760503431"><ele>287.0</ele><time>2026-04-11T09:39:23.999Z</time></trkpt><trkpt lat="44.636886736226145" lon="7.951385797747075"><ele>287.0</ele><time>2026-04-11T09:39:24.999Z</time></trkpt><trkpt lat="44.636782996884676" lon="7.951450916834642"><ele>287.0</ele><time>2026-04-11T09:39:25.999Z</time></trkpt><trkpt lat="44.6366796006365" lon="7.951518157874758"><ele>287.0</ele><time>2026-04-11T09:39:26.999Z</time></trkpt><trkpt lat="44.63657727108621" lon="7.951580509475904"><ele>287.0</ele><time>2026-04-11T09:39:27.999Z</time></trkpt><trkpt lat="44.6364750917638" lon="7.951646523606935"><ele>287.0</ele><time>2026-04-11T09:39:28.999Z</time></trkpt><trkpt lat="44.636374480195165" lon="7.951713923080844"><ele>287.0</ele><time>2026-04-11T09:39:29.999Z</time></trkpt><trkpt lat="44.63627395171994" lon="7.951783286813516"><ele>287.0</ele><time>2026-04-11T09:39:30.999Z</time></trkpt><trkpt lat="44.636177810564455" lon="7.9518536750243936"><ele>286.6</ele><time>2026-04-11T09:39:31.999Z</time></trkpt><trkpt lat="44.636078217999206" lon="7.95192330663198"><ele>286.2</ele><time>2026-04-11T09:39:32.999Z</time></trkpt><trkpt lat="44.63597816039067" lon="7.9519867352902125"><ele>285.8</ele><time>2026-04-11T09:39:33.999Z</time></trkpt><trkpt lat="44.635876854245915" lon="7.95204732701404"><ele>285.4</ele><time>2026-04-11T09:39:34.999Z</time></trkpt><trkpt lat="44.6357839549864" lon="7.952123673216739"><ele>285.0</ele><time>2026-04-11T09:39:35.999Z</time></trkpt><trkpt lat="44.635703802027024" lon="7.952228962447946"><ele>285.0</ele><time>2026-04-11T09:39:36.999Z</time></trkpt><trkpt lat="44.63563866691578" lon="7.952353941561049"><ele>285.0</ele><time>2026-04-11T09:39:37.999Z</time></trkpt><trkpt lat="44.63559067302554" lon="7.95249155245365"><ele>285.0</ele><time>2026-04-11T09:39:38.999Z</time></trkpt><trkpt lat="44.635570523569385" lon="7.952644644273111"><ele>285.0</ele><time>2026-04-11T09:39:39.999Z</time></trkpt><trkpt lat="44.63557216087639" lon="7.952802594269499"><ele>285.0</ele><time>2026-04-11T09:39:40.999Z</time></trkpt><trkpt lat="44.635600019495506" lon="7.952955547205911"><ele>284.2</ele><time>2026-04-11T09:39:41.999Z</time></trkpt><trkpt lat="44.635651301207666" lon="7.953095363433756"><ele>283.4</ele><time>2026-04-11T09:39:42.999Z</time></trkpt><trkpt lat="44.63572871415115" lon="7.953208127051613"><ele>282.6</ele><time>2026-04-11T09:39:43.999Z</time></trkpt><trkpt lat="44.635817579522666" lon="7.953302322167076"><ele>281.8</ele><time>2026-04-11T09:39:44.999Z</time></trkpt><trkpt lat="44.63591015323466" lon="7.953382565617157"><ele>281.0</ele><time>2026-04-11T09:39:45.999Z</time></trkpt><trkpt lat="44.63600203722805" lon="7.9534549231541325"><ele>280.0</ele><time>2026-04-11T09:39:46.999Z</time></trkpt><trkpt lat="44.636084400198094" lon="7.953554986236081"><ele>279.0</ele><time>2026-04-11T09:39:47.999Z</time></trkpt><trkpt lat="44.636173404384984" lon="7.95363290790783"><ele>278.0</ele><time>2026-04-11T09:39:48.999Z</time></trkpt><trkpt lat="44.63627129269399" lon="7.953694130965896"><ele>277.0</ele><time>2026-04-11T09:39:49.999Z</time></trkpt><trkpt lat="44.636359930917784" lon="7.953778304030969"><ele>276.0</ele><time>2026-04-11T09:39:50.999Z</time></trkpt><trkpt lat="44.63644947316662" lon="7.95385931934129"><ele>276.0</ele><time>2026-04-11T09:39:51.999Z</time></trkpt><trkpt lat="44.636535387255364" lon="7.953940999548405"><ele>276.0</ele><time>2026-04-11T09:39:52.999Z</time></trkpt><trkpt lat="44.63661896821551" lon="7.954027003554081"><ele>276.0</ele><time>2026-04-11T09:39:53.999Z</time></trkpt><trkpt lat="44.636687982355454" lon="7.954134985715617"><ele>276.0</ele><time>2026-04-11T09:39:54.999Z</time></trkpt><trkpt lat="44.63676788351172" lon="7.954217738363592"><ele>276.0</ele><time>2026-04-11T09:39:55.999Z</time></trkpt><trkpt lat="44.63682363321004" lon="7.954335970135404"><ele>274.6</ele><time>2026-04-11T09:39:56.999Z</time></trkpt><trkpt lat="44.636886963648585" lon="7.95444725233643"><ele>273.20000000000005</ele><time>2026-04-11T09:39:57.999Z</time></trkpt><trkpt lat="44.63694748921038" lon="7.954565661351214"><ele>271.79999999999995</ele><time>2026-04-11T09:39:58.999Z</time></trkpt><trkpt lat="44.63700595643381" lon="7.954684780108208"><ele>270.4</ele><time>2026-04-11T09:39:59.999Z</time></trkpt><trkpt lat="44.637068904628585" lon="7.954799836062354"><ele>269.0</ele><time>2026-04-11T09:40:00.999Z</time></trkpt><trkpt lat="44.63711959687692" lon="7.9549228847142075"><ele>269.0</ele><time>2026-04-11T09:40:01.999Z</time></trkpt><trkpt lat="44.63715776613874" lon="7.95502770043296"><ele>269.0</ele><time>2026-04-11T09:40:02.999Z</time></trkpt><trkpt lat="44.63717573037312" lon="7.9551385277092885"><ele>269.0</ele><time>2026-04-11T09:40:03.999Z</time></trkpt><trkpt lat="44.63719861315557" lon="7.955239620630351"><ele>269.0</ele><time>2026-04-11T09:40:04.999Z</time></trkpt><trkpt lat="44.63733830608212" lon="7.9552510405294905"><ele>269.0</ele><time>2026-04-11T09:40:05.999Z</time></trkpt><trkpt lat="44.63739835626436" lon="7.955281716103252"><ele>269.0</ele><time>2026-04-11T09:40:06.999Z</time></trkpt><trkpt lat="44.637465659922064" lon="7.955307017225641"><ele>269.0</ele><time>2026-04-11T09:40:08.999Z</time></trkpt><trkpt lat="44.6373722722076" lon="7.9552667222899425"><ele>269.0</ele><time>2026-04-11T09:40:15.999Z</time></trkpt><trkpt lat="44.637297831129764" lon="7.955223931820923"><ele>269.0</ele><time>2026-04-11T09:40:17.999Z</time></trkpt><trkpt lat="44.637297535097325" lon="7.955100247487576"><ele>269.0</ele><time>2026-04-11T09:40:19.999Z</time></trkpt><trkpt lat="44.63730186209571" lon="7.955011347509704"><ele>269.0</ele><time>2026-04-11T09:40:20.999Z</time></trkpt><trkpt lat="44.63733028255675" lon="7.954930199672975"><ele>269.0</ele><time>2026-04-11T09:40:21.999Z</time></trkpt><trkpt lat="44.63734047606903" lon="7.954831865814531"><ele>269.0</ele><time>2026-04-11T09:40:22.999Z</time></trkpt><trkpt lat="44.63735072742152" lon="7.9547264308676064"><ele>269.0</ele><time>2026-04-11T09:40:23.999Z</time></trkpt><trkpt lat="44.63737486709581" lon="7.954617482808008"><ele>269.0</ele><time>2026-04-11T09:40:24.999Z</time></trkpt><trkpt lat="44.637389200488926" lon="7.954501556435359"><ele>269.0</ele><time>2026-04-11T09:40:25.999Z</time></trkpt><trkpt lat="44.63739626906366" lon="7.954375239050793"><ele>269.0</ele><time>2026-04-11T09:40:26.999Z</time></trkpt><trkpt lat="44.63739708340609" lon="7.9542446891987355"><ele>269.0</ele><time>2026-04-11T09:40:27.999Z</time></trkpt><trkpt lat="44.63740080310247" lon="7.954109045005031"><ele>268.2</ele><time>2026-04-11T09:40:28.999Z</time></trkpt><trkpt lat="44.637414937245985" lon="7.953988849128486"><ele>267.4</ele><time>2026-04-11T09:40:29.999Z</time></trkpt><trkpt lat="44.6374470683611" lon="7.953891013437898"><ele>266.6</ele><time>2026-04-11T09:40:30.999Z</time></trkpt><trkpt lat="44.63751248707148" lon="7.953810110109049"><ele>265.8</ele><time>2026-04-11T09:40:31.999Z</time></trkpt><trkpt lat="44.63761736815783" lon="7.953797159189159"><ele>265.0</ele><time>2026-04-11T09:40:33Z</time></trkpt><trkpt lat="44.63771536098583" lon="7.9537580453318"><ele>263.0</ele><time>2026-04-11T09:40:34Z</time></trkpt><trkpt lat="44.637815160013005" lon="7.9537212582281605"><ele>261.0</ele><time>2026-04-11T09:40:35Z</time></trkpt><trkpt lat="44.63791946990037" lon="7.953683171527807"><ele>259.0</ele><time>2026-04-11T09:40:36Z</time></trkpt><trkpt lat="44.638023750693264" lon="7.953623875341957"><ele>257.0</ele><time>2026-04-11T09:40:37Z</time></trkpt><trkpt lat="44.63813534584004" lon="7.9535818611745075"><ele>255.0</ele><time>2026-04-11T09:40:38Z</time></trkpt><trkpt lat="44.63824867546377" lon="7.953540596188869"><ele>255.0</ele><time>2026-04-11T09:40:39Z</time></trkpt><trkpt lat="44.63836099552578" lon="7.953480145006442"><ele>255.0</ele><time>2026-04-11T09:40:40Z</time></trkpt><trkpt lat="44.638476567765686" lon="7.9534241530253125"><ele>255.0</ele><time>2026-04-11T09:40:41Z</time></trkpt><trkpt lat="44.63859655086536" lon="7.953375129116394"><ele>255.0</ele><time>2026-04-11T09:40:42Z</time></trkpt><trkpt lat="44.63871777151968" lon="7.953323798242416"><ele>253.0</ele><time>2026-04-11T09:40:43Z</time></trkpt><trkpt lat="44.63884000806888" lon="7.953285418038578"><ele>251.0</ele><time>2026-04-11T09:40:44Z</time></trkpt><trkpt lat="44.63897087148816" lon="7.953275682564587"><ele>249.0</ele><time>2026-04-11T09:40:45Z</time></trkpt><trkpt lat="44.63910076059457" lon="7.953300589306318"><ele>247.0</ele><time>2026-04-11T09:40:46Z</time></trkpt><trkpt lat="44.63922849397448" lon="7.953345997018415"><ele>247.0</ele><time>2026-04-11T09:40:47Z</time></trkpt><trkpt lat="44.639356622858564" lon="7.953400581376364"><ele>247.0</ele><time>2026-04-11T09:40:48Z</time></trkpt><trkpt lat="44.639490027686925" lon="7.9533700662886355"><ele>247.0</ele><time>2026-04-11T09:40:49Z</time></trkpt><trkpt lat="44.63962018995041" lon="7.953366944719624"><ele>247.0</ele><time>2026-04-11T09:40:50Z</time></trkpt><trkpt lat="44.63974462619273" lon="7.95338210854896"><ele>246.0</ele><time>2026-04-11T09:40:51Z</time></trkpt><trkpt lat="44.63987714076972" lon="7.953389920507447"><ele>245.0</ele><time>2026-04-11T09:40:52Z</time></trkpt><trkpt lat="44.63998913792129" lon="7.953410621470332"><ele>244.0</ele><time>2026-04-11T09:40:53Z</time></trkpt><trkpt lat="44.64010713565419" lon="7.953406792060729"><ele>243.0</ele><time>2026-04-11T09:40:54Z</time></trkpt><trkpt lat="44.64021873042384" lon="7.953386521068529"><ele>242.0</ele><time>2026-04-11T09:40:55Z</time></trkpt><trkpt lat="44.640325328049336" lon="7.953376413475471"><ele>241.0</ele><time>2026-04-11T09:40:56Z</time></trkpt><trkpt lat="44.640428881646216" lon="7.953386477578846"><ele>240.0</ele><time>2026-04-11T09:40:57Z</time></trkpt><trkpt lat="44.64053571036728" lon="7.953419671424216"><ele>239.0</ele><time>2026-04-11T09:40:58Z</time></trkpt><trkpt lat="44.640641449276195" lon="7.953455168102874"><ele>238.0</ele><time>2026-04-11T09:40:59Z</time></trkpt><trkpt lat="44.640743300230596" lon="7.953470450653066"><ele>238.0</ele><time>2026-04-11T09:41:00Z</time></trkpt><trkpt lat="44.6408354870889" lon="7.953494747557961"><ele>238.0</ele><time>2026-04-11T09:41:01Z</time></trkpt><trkpt lat="44.64093211424838" lon="7.953509205953685"><ele>238.0</ele><time>2026-04-11T09:41:02Z</time></trkpt><trkpt lat="44.64103040392763" lon="7.953503428302952"><ele>238.0</ele><time>2026-04-11T09:41:03Z</time></trkpt><trkpt lat="44.64112837751102" lon="7.953505053895914"><ele>238.0</ele><time>2026-04-11T09:41:04Z</time></trkpt><trkpt lat="44.641228557811495" lon="7.953519404610943"><ele>237.60000000000002</ele><time>2026-04-11T09:41:05Z</time></trkpt><trkpt lat="44.64132820332624" lon="7.953533855876795"><ele>237.20000000000002</ele><time>2026-04-11T09:41:06Z</time></trkpt><trkpt lat="44.64142806204473" lon="7.953545154460353"><ele>236.8</ele><time>2026-04-11T09:41:07Z</time></trkpt><trkpt lat="44.641521127201685" lon="7.95353363675543"><ele>236.4</ele><time>2026-04-11T09:41:08Z</time></trkpt><trkpt lat="44.64161048250292" lon="7.953505691944304"><ele>236.0</ele><time>2026-04-11T09:41:09Z</time></trkpt><trkpt lat="44.641701668361776" lon="7.953477957621659"><ele>236.0</ele><time>2026-04-11T09:41:10Z</time></trkpt><trkpt lat="44.64179850164383" lon="7.953446593897406"><ele>236.00000000000003</ele><time>2026-04-11T09:41:11Z</time></trkpt><trkpt lat="44.64190058459181" lon="7.9534268375505786"><ele>236.00000000000003</ele><time>2026-04-11T09:41:12Z</time></trkpt><trkpt lat="44.641999353049584" lon="7.953400826515971"><ele>236.0</ele><time>2026-04-11T09:41:13Z</time></trkpt><trkpt lat="44.64211436212243" lon="7.953372235542114"><ele>236.0</ele><time>2026-04-11T09:41:14Z</time></trkpt><trkpt lat="44.642221879411956" lon="7.953350899717494"><ele>235.20000000000002</ele><time>2026-04-11T09:41:15Z</time></trkpt><trkpt lat="44.64232468066238" lon="7.953327106470243"><ele>234.40000000000003</ele><time>2026-04-11T09:41:16Z</time></trkpt><trkpt lat="44.64244191601076" lon="7.953287810166368"><ele>233.6</ele><time>2026-04-11T09:41:17Z</time></trkpt><trkpt lat="44.64254289305015" lon="7.953244067606186"><ele>232.8</ele><time>2026-04-11T09:41:18Z</time></trkpt><trkpt lat="44.64264340357698" lon="7.953193691743693"><ele>232.0</ele><time>2026-04-11T09:41:19Z</time></trkpt><trkpt lat="44.64273914358966" lon="7.953153101777347"><ele>230.8</ele><time>2026-04-11T09:41:20Z</time></trkpt><trkpt lat="44.64284810650057" lon="7.953113988126965"><ele>229.6</ele><time>2026-04-11T09:41:21Z</time></trkpt><trkpt lat="44.64295111678567" lon="7.953059993062468"><ele>228.40000000000003</ele><time>2026-04-11T09:41:22Z</time></trkpt><trkpt lat="44.64304292040553" lon="7.952997042291986"><ele>227.20000000000002</ele><time>2026-04-11T09:41:23Z</time></trkpt><trkpt lat="44.64312818338124" lon="7.952915302100363"><ele>226.0</ele><time>2026-04-11T09:41:24Z</time></trkpt><trkpt lat="44.64320562176655" lon="7.952833207749223"><ele>226.0</ele><time>2026-04-11T09:41:25Z</time></trkpt><trkpt lat="44.64328462053733" lon="7.952747894767062"><ele>226.00000000000003</ele><time>2026-04-11T09:41:26Z</time></trkpt><trkpt lat="44.64337048539445" lon="7.952666211328245"><ele>226.00000000000003</ele><time>2026-04-11T09:41:27Z</time></trkpt><trkpt lat="44.64347352090573" lon="7.952585027589221"><ele>226.0</ele><time>2026-04-11T09:41:28Z</time></trkpt><trkpt lat="44.64357691502158" lon="7.952511652286552"><ele>226.0</ele><time>2026-04-11T09:41:29Z</time></trkpt><trkpt lat="44.643673068428804" lon="7.9524377155399915"><ele>225.20000000000002</ele><time>2026-04-11T09:41:30Z</time></trkpt><trkpt lat="44.6437559455854" lon="7.952345252056608"><ele>224.40000000000003</ele><time>2026-04-11T09:41:31Z</time></trkpt><trkpt lat="44.64382249519186" lon="7.952231737512722"><ele>223.6</ele><time>2026-04-11T09:41:32Z</time></trkpt><trkpt lat="44.64387291811581" lon="7.952100700349315"><ele>222.8</ele><time>2026-04-11T09:41:33Z</time></trkpt><trkpt lat="44.64391664378139" lon="7.951966603425923"><ele>222.0</ele><time>2026-04-11T09:41:34Z</time></trkpt><trkpt lat="44.64396315701249" lon="7.951849787348364"><ele>222.0</ele><time>2026-04-11T09:41:35Z</time></trkpt><trkpt lat="44.644028277145075" lon="7.951773484475432"><ele>222.0</ele><time>2026-04-11T09:41:36Z</time></trkpt><trkpt lat="44.64410287496692" lon="7.951725252239931"><ele>222.0</ele><time>2026-04-11T09:41:37Z</time></trkpt><trkpt lat="44.64414716716705" lon="7.951654462444008"><ele>222.0</ele><time>2026-04-11T09:41:38Z</time></trkpt><trkpt lat="44.6442134501643" lon="7.951659688900767"><ele>222.0</ele><time>2026-04-11T09:41:39Z</time></trkpt><trkpt lat="44.644312164351" lon="7.951826700268935"><ele>222.0</ele><time>2026-04-11T09:41:41Z</time></trkpt><trkpt lat="44.6443515064702" lon="7.951934170238929"><ele>222.0</ele><time>2026-04-11T09:41:42Z</time></trkpt><trkpt lat="44.64437976327534" lon="7.952038453236396"><ele>222.0</ele><time>2026-04-11T09:41:43Z</time></trkpt><trkpt lat="44.64440724496736" lon="7.952142435246971"><ele>222.0</ele><time>2026-04-11T09:41:44Z</time></trkpt><trkpt lat="44.644432813530756" lon="7.9522572606302795"><ele>222.0</ele><time>2026-04-11T09:41:45Z</time></trkpt><trkpt lat="44.64444689941949" lon="7.952371991213193"><ele>222.0</ele><time>2026-04-11T09:41:46Z</time></trkpt><trkpt lat="44.644451424177824" lon="7.952476440373237"><ele>223.16666666666666</ele><time>2026-04-11T09:41:47Z</time></trkpt><trkpt lat="44.64447122255568" lon="7.952575684172892"><ele>224.33333333333331</ele><time>2026-04-11T09:41:48Z</time></trkpt><trkpt lat="44.64449247353102" lon="7.952674734785789"><ele>225.5</ele><time>2026-04-11T09:41:49Z</time></trkpt><trkpt lat="44.64451668330134" lon="7.952790189873801"><ele>226.66666666666666</ele><time>2026-04-11T09:41:50Z</time></trkpt><trkpt lat="44.64453873114996" lon="7.952902016983961"><ele>227.83333333333331</ele><time>2026-04-11T09:41:51Z</time></trkpt><trkpt lat="44.64456456089718" lon="7.953008805482718"><ele>229.0</ele><time>2026-04-11T09:41:52Z</time></trkpt><trkpt lat="44.644588546231404" lon="7.953114247071857"><ele>228.99999999999997</ele><time>2026-04-11T09:41:53Z</time></trkpt><trkpt lat="44.64462260342087" lon="7.953224686710766"><ele>229.0</ele><time>2026-04-11T09:41:54Z</time></trkpt><trkpt lat="44.644656330860954" lon="7.953318792869534"><ele>229.0</ele><time>2026-04-11T09:41:55Z</time></trkpt><trkpt lat="44.6446944840345" lon="7.953409189734692"><ele>229.0</ele><time>2026-04-11T09:41:56Z</time></trkpt><trkpt lat="44.644740335415726" lon="7.953490798188915"><ele>228.99999999999997</ele><time>2026-04-11T09:41:57Z</time></trkpt><trkpt lat="44.644792328146075" lon="7.953569329358852"><ele>229.0</ele><time>2026-04-11T09:41:58Z</time></trkpt><trkpt lat="44.64483451187742" lon="7.953649818896033"><ele>227.66666666666666</ele><time>2026-04-11T09:41:59Z</time></trkpt><trkpt lat="44.6448757400395" lon="7.9537395388573735"><ele>226.33333333333331</ele><time>2026-04-11T09:42:00Z</time></trkpt><trkpt lat="44.64492340051511" lon="7.9538208585005385"><ele>225.0</ele><time>2026-04-11T09:42:01Z</time></trkpt><trkpt lat="44.64496944307487" lon="7.9538983488368205"><ele>223.66666666666669</ele><time>2026-04-11T09:42:02Z</time></trkpt><trkpt lat="44.64501470640806" lon="7.953985902626644"><ele>222.33333333333334</ele><time>2026-04-11T09:42:03Z</time></trkpt><trkpt lat="44.64506199952487" lon="7.954067502114236"><ele>221.0</ele><time>2026-04-11T09:42:04Z</time></trkpt><trkpt lat="44.64510967306066" lon="7.954156805930543"><ele>220.50000000000003</ele><time>2026-04-11T09:42:05Z</time></trkpt><trkpt lat="44.64516169559451" lon="7.954237215691528"><ele>220.0</ele><time>2026-04-11T09:42:06Z</time></trkpt><trkpt lat="44.64521365874156" lon="7.954323401109141"><ele>219.5</ele><time>2026-04-11T09:42:07Z</time></trkpt><trkpt lat="44.64527604526646" lon="7.9543947567979645"><ele>219.0</ele><time>2026-04-11T09:42:08Z</time></trkpt><trkpt lat="44.645342707996384" lon="7.954460982677608"><ele>218.50000000000003</ele><time>2026-04-11T09:42:09Z</time></trkpt><trkpt lat="44.64541135358706" lon="7.954521109125356"><ele>218.0</ele><time>2026-04-11T09:42:10Z</time></trkpt><trkpt lat="44.64548371063663" lon="7.954575579535599"><ele>218.00000000000003</ele><time>2026-04-11T09:42:11Z</time></trkpt><trkpt lat="44.64555627703373" lon="7.95462693936037"><ele>218.0</ele><time>2026-04-11T09:42:12Z</time></trkpt><trkpt lat="44.64563195518608" lon="7.95467682589907"><ele>218.0</ele><time>2026-04-11T09:42:13Z</time></trkpt><trkpt lat="44.64570869904553" lon="7.9547300372417755"><ele>218.0</ele><time>2026-04-11T09:42:14Z</time></trkpt><trkpt lat="44.64578584051309" lon="7.954786732587222"><ele>218.00000000000003</ele><time>2026-04-11T09:42:15Z</time></trkpt><trkpt lat="44.64586949645362" lon="7.954840799430811"><ele>218.0</ele><time>2026-04-11T09:42:16Z</time></trkpt><trkpt lat="44.64594722644585" lon="7.954907685823826"><ele>218.0</ele><time>2026-04-11T09:42:17Z</time></trkpt><trkpt lat="44.64602521527451" lon="7.954979284629293"><ele>218.0</ele><time>2026-04-11T09:42:18Z</time></trkpt><trkpt lat="44.64610191841669" lon="7.9550535904828"><ele>218.0</ele><time>2026-04-11T09:42:19Z</time></trkpt><trkpt lat="44.64618642466495" lon="7.95511928667719"><ele>218.0</ele><time>2026-04-11T09:42:20Z</time></trkpt><trkpt lat="44.6462693075118" lon="7.955180180173877"><ele>218.0</ele><time>2026-04-11T09:42:21Z</time></trkpt><trkpt lat="44.646353644726474" lon="7.955249897395991"><ele>217.0</ele><time>2026-04-11T09:42:22Z</time></trkpt><trkpt lat="44.646431318365785" lon="7.95532403142353"><ele>216.0</ele><time>2026-04-11T09:42:23Z</time></trkpt><trkpt lat="44.64651106375641" lon="7.955389508383453"><ele>215.0</ele><time>2026-04-11T09:42:24Z</time></trkpt><trkpt lat="44.64658980725247" lon="7.955455464778359"><ele>214.0</ele><time>2026-04-11T09:42:25Z</time></trkpt><trkpt lat="44.646668295306256" lon="7.955519634337356"><ele>213.0</ele><time>2026-04-11T09:42:26Z</time></trkpt><trkpt lat="44.64674234557008" lon="7.955581430874024"><ele>213.0</ele><time>2026-04-11T09:42:27Z</time></trkpt><trkpt lat="44.646823005740984" lon="7.9556418780516465"><ele>213.0</ele><time>2026-04-11T09:42:28Z</time></trkpt><trkpt lat="44.64691092161522" lon="7.955689251436459"><ele>213.0</ele><time>2026-04-11T09:42:29Z</time></trkpt><trkpt lat="44.646991436642125" lon="7.955754784308553"><ele>213.0</ele><time>2026-04-11T09:42:30Z</time></trkpt><trkpt lat="44.64707255735573" lon="7.955816410044176"><ele>213.0</ele><time>2026-04-11T09:42:31Z</time></trkpt><trkpt lat="44.64715195886706" lon="7.955884952745983"><ele>213.0</ele><time>2026-04-11T09:42:32Z</time></trkpt><trkpt lat="44.64722241440086" lon="7.95597001548425"><ele>213.0</ele><time>2026-04-11T09:42:33Z</time></trkpt><trkpt lat="44.647290723706725" lon="7.9560555404451625"><ele>213.0</ele><time>2026-04-11T09:42:34Z</time></trkpt><trkpt lat="44.64735876644463" lon="7.956137429134659"><ele>213.0</ele><time>2026-04-11T09:42:35Z</time></trkpt><trkpt lat="44.64742768644658" lon="7.956218619748228"><ele>213.0</ele><time>2026-04-11T09:42:36Z</time></trkpt><trkpt lat="44.647506255777564" lon="7.956292737665303"><ele>213.0</ele><time>2026-04-11T09:42:37Z</time></trkpt><trkpt lat="44.64758420629177" lon="7.956363852350656"><ele>213.0</ele><time>2026-04-11T09:42:38Z</time></trkpt><trkpt lat="44.64765965990978" lon="7.956431571271099"><ele>213.0</ele><time>2026-04-11T09:42:39Z</time></trkpt><trkpt lat="44.647731728779775" lon="7.956497001401763"><ele>213.0</ele><time>2026-04-11T09:42:40Z</time></trkpt><trkpt lat="44.64780018900474" lon="7.956567481984653"><ele>213.0</ele><time>2026-04-11T09:42:41Z</time></trkpt><trkpt lat="44.64786212359711" lon="7.956643692965806"><ele>213.0</ele><time>2026-04-11T09:42:42Z</time></trkpt><trkpt lat="44.64791808749156" lon="7.9567326064447395"><ele>212.16666666666666</ele><time>2026-04-11T09:42:43Z</time></trkpt><trkpt lat="44.6479579638082" lon="7.956840159795677"><ele>211.33333333333331</ele><time>2026-04-11T09:42:44Z</time></trkpt><trkpt lat="44.647982263542275" lon="7.956956392377328"><ele>210.5</ele><time>2026-04-11T09:42:45Z</time></trkpt><trkpt lat="44.64800751005368" lon="7.957074248242131"><ele>209.66666666666666</ele><time>2026-04-11T09:42:46Z</time></trkpt><trkpt lat="44.64803518101185" lon="7.95718971441176"><ele>208.83333333333331</ele><time>2026-04-11T09:42:47Z</time></trkpt><trkpt lat="44.64805716693326" lon="7.9572988707058085"><ele>208.0</ele><time>2026-04-11T09:42:48Z</time></trkpt><trkpt lat="44.64808452317376" lon="7.957411823250762"><ele>207.99999999999997</ele><time>2026-04-11T09:42:49Z</time></trkpt><trkpt lat="44.64811947399481" lon="7.957513784033812"><ele>208.0</ele><time>2026-04-11T09:42:50Z</time></trkpt><trkpt lat="44.64814674579108" lon="7.957614320732584"><ele>208.0</ele><time>2026-04-11T09:42:51Z</time></trkpt><trkpt lat="44.64817482833523" lon="7.957704349383375"><ele>208.0</ele><time>2026-04-11T09:42:52Z</time></trkpt><trkpt lat="44.64820375617544" lon="7.957805737518016"><ele>207.99999999999997</ele><time>2026-04-11T09:42:53Z</time></trkpt><trkpt lat="44.648236393830295" lon="7.9579260331666575"><ele>208.0</ele><time>2026-04-11T09:42:54Z</time></trkpt><trkpt lat="44.64826874896585" lon="7.9580291981409665"><ele>207.83333333333331</ele><time>2026-04-11T09:42:55Z</time></trkpt><trkpt lat="44.64830696543059" lon="7.958123500787879"><ele>207.66666666666666</ele><time>2026-04-11T09:42:56Z</time></trkpt><trkpt lat="44.648343001619544" lon="7.9582173124332884"><ele>207.5</ele><time>2026-04-11T09:42:57Z</time></trkpt><trkpt lat="44.64837309414673" lon="7.958314886556167"><ele>207.33333333333331</ele><time>2026-04-11T09:42:58Z</time></trkpt><trkpt lat="44.64840510258735" lon="7.9584147263466685"><ele>207.16666666666666</ele><time>2026-04-11T09:42:59Z</time></trkpt><trkpt lat="44.64844118621263" lon="7.958508497030741"><ele>207.0</ele><time>2026-04-11T09:43:00Z</time></trkpt><trkpt lat="44.64847645258794" lon="7.958605260990359"><ele>207.0</ele><time>2026-04-11T09:43:01Z</time></trkpt><trkpt lat="44.64851204556832" lon="7.958698743042527"><ele>207.0</ele><time>2026-04-11T09:43:02Z</time></trkpt><trkpt lat="44.64854611964976" lon="7.958795412813918"><ele>207.0</ele><time>2026-04-11T09:43:03Z</time></trkpt><trkpt lat="44.64857915593355" lon="7.958891815178797"><ele>207.0</ele><time>2026-04-11T09:43:04Z</time></trkpt><trkpt lat="44.64861106547467" lon="7.95898637183458"><ele>207.0</ele><time>2026-04-11T09:43:05Z</time></trkpt><trkpt lat="44.64864234553824" lon="7.9590837778829835"><ele>207.0</ele><time>2026-04-11T09:43:06Z</time></trkpt><trkpt lat="44.648672436213" lon="7.959179729226077"><ele>206.66666666666666</ele><time>2026-04-11T09:43:07Z</time></trkpt><trkpt lat="44.6487027773301" lon="7.959278210322725"><ele>206.33333333333331</ele><time>2026-04-11T09:43:08Z</time></trkpt><trkpt lat="44.648733688168385" lon="7.959371927800194"><ele>206.0</ele><time>2026-04-11T09:43:09Z</time></trkpt><trkpt lat="44.648762689755614" lon="7.9594705969895"><ele>205.66666666666666</ele><time>2026-04-11T09:43:10Z</time></trkpt><trkpt lat="44.64878851687516" lon="7.959570013250841"><ele>205.33333333333331</ele><time>2026-04-11T09:43:11Z</time></trkpt><trkpt lat="44.64882665479478" lon="7.959662295180883"><ele>205.0</ele><time>2026-04-11T09:43:12Z</time></trkpt><trkpt lat="44.64888946094026" lon="7.9597241107161505"><ele>205.0</ele><time>2026-04-11T09:43:13Z</time></trkpt><trkpt lat="44.64897011253711" lon="7.959727966749784"><ele>205.0</ele><time>2026-04-11T09:43:14Z</time></trkpt><trkpt lat="44.64904472035913" lon="7.9596834022026615"><ele>205.0</ele><time>2026-04-11T09:43:15Z</time></trkpt><trkpt lat="44.64910879397831" lon="7.9596456631843155"><ele>205.0</ele><time>2026-04-11T09:43:16Z</time></trkpt><trkpt lat="44.64917562664036" lon="7.959615987661523"><ele>205.0</ele><time>2026-04-11T09:43:17Z</time></trkpt><trkpt lat="44.649242533675114" lon="7.959589649580994"><ele>205.0</ele><time>2026-04-11T09:43:18Z</time></trkpt><trkpt lat="44.64930924833657" lon="7.959559116185893"><ele>205.0</ele><time>2026-04-11T09:43:19Z</time></trkpt><trkpt lat="44.649374373318615" lon="7.959532392118529"><ele>205.0</ele><time>2026-04-11T09:43:20Z</time></trkpt><trkpt lat="44.649439614698814" lon="7.959507171749164"><ele>205.0</ele><time>2026-04-11T09:43:21Z</time></trkpt><trkpt lat="44.64950503471486" lon="7.959490173820587"><ele>205.0</ele><time>2026-04-11T09:43:22Z</time></trkpt><trkpt lat="44.64956783881325" lon="7.959498246683272"><ele>205.0</ele><time>2026-04-11T09:43:23Z</time></trkpt><trkpt lat="44.64962700229618" lon="7.959543083050581"><ele>205.0</ele><time>2026-04-11T09:43:24Z</time></trkpt><trkpt lat="44.649659178931635" lon="7.959625607276545"><ele>205.0</ele><time>2026-04-11T09:43:25Z</time></trkpt><trkpt lat="44.64968147960201" lon="7.95971599501079"><ele>205.0</ele><time>2026-04-11T09:43:26Z</time></trkpt><trkpt lat="44.649698919288404" lon="7.959811318826174"><ele>205.42857142857144</ele><time>2026-04-11T09:43:27Z</time></trkpt><trkpt lat="44.649722955032296" lon="7.959900504056381"><ele>205.85714285714283</ele><time>2026-04-11T09:43:28Z</time></trkpt><trkpt lat="44.64975619428486" lon="7.959982644007448"><ele>206.28571428571428</ele><time>2026-04-11T09:43:29Z</time></trkpt><trkpt lat="44.64978397210743" lon="7.960071345882778"><ele>206.71428571428572</ele><time>2026-04-11T09:43:30Z</time></trkpt><trkpt lat="44.64981357379566" lon="7.960156392914496"><ele>207.14285714285717</ele><time>2026-04-11T09:43:31Z</time></trkpt><trkpt lat="44.6498421166179" lon="7.960246506250654"><ele>207.57142857142856</ele><time>2026-04-11T09:43:32Z</time></trkpt><trkpt lat="44.64986916351914" lon="7.960331100667647"><ele>208.0</ele><time>2026-04-11T09:43:33Z</time></trkpt><trkpt lat="44.6498998372739" lon="7.960418245846478"><ele>208.0</ele><time>2026-04-11T09:43:34Z</time></trkpt><trkpt lat="44.649927620049425" lon="7.960509266654796"><ele>208.0</ele><time>2026-04-11T09:43:35Z</time></trkpt><trkpt lat="44.649954370084835" lon="7.960597368581864"><ele>208.0</ele><time>2026-04-11T09:43:36Z</time></trkpt><trkpt lat="44.64998710642325" lon="7.9606865581860635"><ele>208.0</ele><time>2026-04-11T09:43:37Z</time></trkpt><trkpt lat="44.650013684346135" lon="7.960774385186248"><ele>208.0</ele><time>2026-04-11T09:43:38Z</time></trkpt><trkpt lat="44.65004163609847" lon="7.960866155311845"><ele>208.0</ele><time>2026-04-11T09:43:39Z</time></trkpt><trkpt lat="44.65006609449702" lon="7.9609581685942885"><ele>208.0</ele><time>2026-04-11T09:43:40Z</time></trkpt><trkpt lat="44.65009090732892" lon="7.961052175878873"><ele>207.28571428571428</ele><time>2026-04-11T09:43:41Z</time></trkpt><trkpt lat="44.65011989847258" lon="7.961143634112405"><ele>206.57142857142858</ele><time>2026-04-11T09:43:42Z</time></trkpt><trkpt lat="44.650147134532865" lon="7.961235601842259"><ele>205.85714285714286</ele><time>2026-04-11T09:43:43Z</time></trkpt><trkpt lat="44.650173471562944" lon="7.961325365152348"><ele>205.14285714285714</ele><time>2026-04-11T09:43:44Z</time></trkpt><trkpt lat="44.650202432063786" lon="7.961418486901596"><ele>204.42857142857144</ele><time>2026-04-11T09:43:45Z</time></trkpt><trkpt lat="44.65022846626665" lon="7.9615130810248935"><ele>203.71428571428572</ele><time>2026-04-11T09:43:46Z</time></trkpt><trkpt lat="44.65025392805937" lon="7.961605179236176"><ele>203.0</ele><time>2026-04-11T09:43:47Z</time></trkpt><trkpt lat="44.650281353075876" lon="7.961696671284895"><ele>205.0</ele><time>2026-04-11T09:43:48Z</time></trkpt><trkpt lat="44.65030852583393" lon="7.961787875798907"><ele>207.0</ele><time>2026-04-11T09:43:49Z</time></trkpt><trkpt lat="44.65033357562231" lon="7.961885075143134"><ele>209.0</ele><time>2026-04-11T09:43:50Z</time></trkpt><trkpt lat="44.650357581144156" lon="7.9619800018230364"><ele>211.0</ele><time>2026-04-11T09:43:51Z</time></trkpt><trkpt lat="44.65038447011361" lon="7.962074004663376"><ele>213.0</ele><time>2026-04-11T09:43:52Z</time></trkpt><trkpt lat="44.650409466551146" lon="7.962168483656248"><ele>215.0</ele><time>2026-04-11T09:43:53Z</time></trkpt><trkpt lat="44.65043272580446" lon="7.9622619301012625"><ele>217.0</ele><time>2026-04-11T09:43:54Z</time></trkpt><trkpt lat="44.650452163353144" lon="7.962356484234968"><ele>217.0</ele><time>2026-04-11T09:43:55Z</time></trkpt><trkpt lat="44.65047007231526" lon="7.962452331900611"><ele>217.0</ele><time>2026-04-11T09:43:56Z</time></trkpt><trkpt lat="44.65048540181568" lon="7.962549225474435"><ele>217.0</ele><time>2026-04-11T09:43:57Z</time></trkpt><trkpt lat="44.65049606577538" lon="7.962644671875685"><ele>217.0</ele><time>2026-04-11T09:43:58Z</time></trkpt><trkpt lat="44.65050689182538" lon="7.962739857317743"><ele>217.0</ele><time>2026-04-11T09:43:59Z</time></trkpt><trkpt lat="44.65051793103772" lon="7.9628377398195225"><ele>217.0</ele><time>2026-04-11T09:44:00Z</time></trkpt><trkpt lat="44.65052897036637" lon="7.96293352473465"><ele>217.0</ele><time>2026-04-11T09:44:01Z</time></trkpt><trkpt lat="44.650544324609136" lon="7.963028125753153"><ele>216.28571428571428</ele><time>2026-04-11T09:44:02Z</time></trkpt><trkpt lat="44.650560603978036" lon="7.96312380103612"><ele>215.57142857142856</ele><time>2026-04-11T09:44:03Z</time></trkpt><trkpt lat="44.650579197135635" lon="7.963221876934896"><ele>214.85714285714286</ele><time>2026-04-11T09:44:04Z</time></trkpt><trkpt lat="44.6505992595718" lon="7.963317210893863"><ele>214.14285714285714</ele><time>2026-04-11T09:44:05Z</time></trkpt><trkpt lat="44.650619495402964" lon="7.963412706590619"><ele>213.42857142857142</ele><time>2026-04-11T09:44:06Z</time></trkpt><trkpt lat="44.650638824314434" lon="7.963511657648731"><ele>212.71428571428572</ele><time>2026-04-11T09:44:07Z</time></trkpt><trkpt lat="44.65066480304816" lon="7.963604056959589"><ele>212.0</ele><time>2026-04-11T09:44:08Z</time></trkpt><trkpt lat="44.65070037480069" lon="7.963692344586062"><ele>210.85714285714286</ele><time>2026-04-11T09:44:09Z</time></trkpt><trkpt lat="44.65074338565823" lon="7.963766868479668"><ele>209.7142857142857</ele><time>2026-04-11T09:44:10Z</time></trkpt><trkpt lat="44.650788847840154" lon="7.963840274052811"><ele>208.57142857142856</ele><time>2026-04-11T09:44:11Z</time></trkpt><trkpt lat="44.65083708229974" lon="7.963912059559836"><ele>207.42857142857144</ele><time>2026-04-11T09:44:12Z</time></trkpt><trkpt lat="44.65088798521229" lon="7.963978406395345"><ele>206.28571428571428</ele><time>2026-04-11T09:44:13Z</time></trkpt><trkpt lat="44.65094067522436" lon="7.964043505663856"><ele>205.14285714285714</ele><time>2026-04-11T09:44:14Z</time></trkpt><trkpt lat="44.65099349792261" lon="7.964109668513454"><ele>204.0</ele><time>2026-04-11T09:44:15Z</time></trkpt><trkpt lat="44.65104556491921" lon="7.964176139934349"><ele>203.71428571428572</ele><time>2026-04-11T09:44:16Z</time></trkpt><trkpt lat="44.65109893277888" lon="7.9642423946244"><ele>203.42857142857144</ele><time>2026-04-11T09:44:17Z</time></trkpt><trkpt lat="44.65115333457615" lon="7.964304435032454"><ele>203.14285714285714</ele><time>2026-04-11T09:44:18Z</time></trkpt><trkpt lat="44.65120742821836" lon="7.964364074167339"><ele>202.85714285714286</ele><time>2026-04-11T09:44:19Z</time></trkpt><trkpt lat="44.65126273001765" lon="7.964425933024594"><ele>202.57142857142856</ele><time>2026-04-11T09:44:20Z</time></trkpt><trkpt lat="44.651321955236426" lon="7.964475249756404"><ele>202.28571428571428</ele><time>2026-04-11T09:44:21Z</time></trkpt><trkpt lat="44.6513770499186" lon="7.964538898806476"><ele>202.0</ele><time>2026-04-11T09:44:22Z</time></trkpt><trkpt lat="44.65142297784168" lon="7.9646090932779305"><ele>201.85714285714286</ele><time>2026-04-11T09:44:23Z</time></trkpt><trkpt lat="44.65146944939746" lon="7.964680523423465"><ele>201.71428571428572</ele><time>2026-04-11T09:44:24Z</time></trkpt><trkpt lat="44.65152040608398" lon="7.964749876512668"><ele>201.57142857142856</ele><time>2026-04-11T09:44:25Z</time></trkpt><trkpt lat="44.651571683140084" lon="7.964815939682461"><ele>201.42857142857144</ele><time>2026-04-11T09:44:26Z</time></trkpt><trkpt lat="44.651623331276426" lon="7.964888705908939"><ele>201.2857142857143</ele><time>2026-04-11T09:44:27Z</time></trkpt><trkpt lat="44.65167308975209" lon="7.96496909795074"><ele>201.14285714285714</ele><time>2026-04-11T09:44:28Z</time></trkpt><trkpt lat="44.65171993956359" lon="7.9650434567143105"><ele>201.0</ele><time>2026-04-11T09:44:29Z</time></trkpt><trkpt lat="44.65176689555992" lon="7.965120407460596"><ele>201.0</ele><time>2026-04-11T09:44:30Z</time></trkpt><trkpt lat="44.651813802186965" lon="7.965195533385148"><ele>201.0</ele><time>2026-04-11T09:44:31Z</time></trkpt><trkpt lat="44.65186067588651" lon="7.96526996533981"><ele>201.0</ele><time>2026-04-11T09:44:32Z</time></trkpt><trkpt lat="44.65190909953932" lon="7.9653460079798855"><ele>201.0</ele><time>2026-04-11T09:44:33Z</time></trkpt><trkpt lat="44.651957168071654" lon="7.965422629964336"><ele>201.0</ele><time>2026-04-11T09:44:34Z</time></trkpt><trkpt lat="44.65200486442197" lon="7.965497019487056"><ele>201.0</ele><time>2026-04-11T09:44:35Z</time></trkpt><trkpt lat="44.65205403725385" lon="7.965571595844602"><ele>201.0</ele><time>2026-04-11T09:44:36Z</time></trkpt><trkpt lat="44.65210791878758" lon="7.965634799169299"><ele>200.28571428571428</ele><time>2026-04-11T09:44:37Z</time></trkpt><trkpt lat="44.65216160031725" lon="7.965700291463408"><ele>199.57142857142858</ele><time>2026-04-11T09:44:38Z</time></trkpt><trkpt lat="44.65221385110238" lon="7.96576748675519"><ele>198.85714285714286</ele><time>2026-04-11T09:44:39Z</time></trkpt><trkpt lat="44.65226827212706" lon="7.965834298562715"><ele>198.14285714285714</ele><time>2026-04-11T09:44:40Z</time></trkpt><trkpt lat="44.65232536700414" lon="7.965898941028483"><ele>197.42857142857144</ele><time>2026-04-11T09:44:41Z</time></trkpt><trkpt lat="44.65238380848263" lon="7.965963251900565"><ele>196.71428571428572</ele><time>2026-04-11T09:44:42Z</time></trkpt><trkpt lat="44.65243685963603" lon="7.966042890026391"><ele>196.0</ele><time>2026-04-11T09:44:43Z</time></trkpt><trkpt lat="44.65248245593612" lon="7.966132005784431"><ele>196.0</ele><time>2026-04-11T09:44:44Z</time></trkpt><trkpt lat="44.652515994988946" lon="7.966234578417969"><ele>196.0</ele><time>2026-04-11T09:44:45Z</time></trkpt><trkpt lat="44.6525372218236" lon="7.966356806916493"><ele>196.0</ele><time>2026-04-11T09:44:46Z</time></trkpt><trkpt lat="44.65255699344741" lon="7.9664881195441914"><ele>196.0</ele><time>2026-04-11T09:44:47Z</time></trkpt><trkpt lat="44.652568713977224" lon="7.966616488863254"><ele>196.0</ele><time>2026-04-11T09:44:48Z</time></trkpt><trkpt lat="44.652591758991285" lon="7.966748181942863"><ele>195.4</ele><time>2026-04-11T09:44:49Z</time></trkpt><trkpt lat="44.65263311020738" lon="7.966871398562408"><ele>194.8</ele><time>2026-04-11T09:44:50Z</time></trkpt><trkpt lat="44.65268699242481" lon="7.966983166857625"><ele>194.20000000000002</ele><time>2026-04-11T09:44:51Z</time></trkpt><trkpt lat="44.65274087041407" lon="7.967085869935396"><ele>193.60000000000002</ele><time>2026-04-11T09:44:52Z</time></trkpt><trkpt lat="44.65278121587892" lon="7.96719939435321"><ele>193.0</ele><time>2026-04-11T09:44:53Z</time></trkpt><trkpt lat="44.65281856577764" lon="7.967311996307132"><ele>192.99999999999997</ele><time>2026-04-11T09:44:54Z</time></trkpt><trkpt lat="44.6528586501007" lon="7.9674175976175166"><ele>193.0</ele><time>2026-04-11T09:44:55Z</time></trkpt><trkpt lat="44.652899350476986" lon="7.967520488944142"><ele>193.0</ele><time>2026-04-11T09:44:56Z</time></trkpt><trkpt lat="44.65294270279008" lon="7.967620121264927"><ele>193.0</ele><time>2026-04-11T09:44:57Z</time></trkpt><trkpt lat="44.65298544361522" lon="7.9677201744552155"><ele>192.99999999999997</ele><time>2026-04-11T09:44:58Z</time></trkpt><trkpt lat="44.65303277980093" lon="7.967816913762712"><ele>193.0</ele><time>2026-04-11T09:44:59Z</time></trkpt><trkpt lat="44.6530897291192" lon="7.967899917801999"><ele>192.99999999999997</ele><time>2026-04-11T09:45:00Z</time></trkpt><trkpt lat="44.65315948463296" lon="7.9679656195001485"><ele>193.0</ele><time>2026-04-11T09:45:01Z</time></trkpt><trkpt lat="44.65324099832141" lon="7.968001252232631"><ele>193.0</ele><time>2026-04-11T09:45:02Z</time></trkpt><trkpt lat="44.653324590089966" lon="7.968016868574396"><ele>193.0</ele><time>2026-04-11T09:45:03Z</time></trkpt><trkpt lat="44.653404937190814" lon="7.968017757018943"><ele>192.99999999999997</ele><time>2026-04-11T09:45:04Z</time></trkpt><trkpt lat="44.65348564427321" lon="7.968018878546321"><ele>193.0</ele><time>2026-04-11T09:45:05Z</time></trkpt><trkpt lat="44.65356390927176" lon="7.968023374820366"><ele>192.83333333333331</ele><time>2026-04-11T09:45:06Z</time></trkpt><trkpt lat="44.6536398978583" lon="7.968031280050706"><ele>192.66666666666666</ele><time>2026-04-11T09:45:07Z</time></trkpt><trkpt lat="44.653716253785056" lon="7.968057172322107"><ele>192.5</ele><time>2026-04-11T09:45:08Z</time></trkpt><trkpt lat="44.65379323885219" lon="7.968095926494487"><ele>192.33333333333331</ele><time>2026-04-11T09:45:09Z</time></trkpt><trkpt lat="44.65386448213799" lon="7.968144828168842"><ele>192.16666666666666</ele><time>2026-04-11T09:45:10Z</time></trkpt><trkpt lat="44.65394120901729" lon="7.968189725901544"><ele>192.0</ele><time>2026-04-11T09:45:11Z</time></trkpt><trkpt lat="44.65401740475337" lon="7.96820499122106"><ele>192.0</ele><time>2026-04-11T09:45:12Z</time></trkpt><trkpt lat="44.6540934659413" lon="7.968191596822911"><ele>192.0</ele><time>2026-04-11T09:45:13Z</time></trkpt><trkpt lat="44.654165205250166" lon="7.9681507558626565"><ele>192.0</ele><time>2026-04-11T09:45:14Z</time></trkpt><trkpt lat="44.654227633099914" lon="7.968082972297204"><ele>192.0</ele><time>2026-04-11T09:45:15Z</time></trkpt><trkpt lat="44.65427912797933" lon="7.968003068245453"><ele>192.0</ele><time>2026-04-11T09:45:16Z</time></trkpt><trkpt lat="44.65432668721912" lon="7.967925052956937"><ele>192.0</ele><time>2026-04-11T09:45:17Z</time></trkpt><trkpt lat="44.65437622258049" lon="7.967852223560878"><ele>192.0</ele><time>2026-04-11T09:45:18Z</time></trkpt><trkpt lat="44.65443692617292" lon="7.967803413643152"><ele>192.0</ele><time>2026-04-11T09:45:19Z</time></trkpt><trkpt lat="44.65453598294786" lon="7.967834558111525"><ele>192.0</ele><time>2026-04-11T09:45:21Z</time></trkpt><trkpt lat="44.6545477656624" lon="7.9679643836609895"><ele>192.0</ele><time>2026-04-11T09:45:23Z</time></trkpt><trkpt lat="44.65451815924368" lon="7.968067761263602"><ele>192.0</ele><time>2026-04-11T09:45:25Z</time></trkpt><trkpt lat="44.654440644893135" lon="7.968255391279885"><ele>192.16666666666666</ele><time>2026-04-11T09:45:28Z</time></trkpt><trkpt lat="44.6543737402737" lon="7.968442808499676"><ele>192.33333333333331</ele><time>2026-04-11T09:45:30Z</time></trkpt><trkpt lat="44.65434272454643" lon="7.968538054649836"><ele>192.5</ele><time>2026-04-11T09:45:31Z</time></trkpt><trkpt lat="44.65431946343014" lon="7.968630690551858"><ele>192.66666666666666</ele><time>2026-04-11T09:45:32Z</time></trkpt><trkpt lat="44.65429389312971" lon="7.968726331466034"><ele>192.83333333333331</ele><time>2026-04-11T09:45:33Z</time></trkpt><trkpt lat="44.65426927846063" lon="7.968824584953623"><ele>193.0</ele><time>2026-04-11T09:45:34Z</time></trkpt><trkpt lat="44.65425160945337" lon="7.9689284648873935"><ele>193.00000000000003</ele><time>2026-04-11T09:45:35Z</time></trkpt><trkpt lat="44.65423656877288" lon="7.969026824766645"><ele>193.0</ele><time>2026-04-11T09:45:36Z</time></trkpt><trkpt lat="44.654219655221695" lon="7.969127655131187"><ele>193.0</ele><time>2026-04-11T09:45:37Z</time></trkpt><trkpt lat="44.65420488597678" lon="7.969229254924056"><ele>193.0</ele><time>2026-04-11T09:45:38Z</time></trkpt><trkpt lat="44.654190175538304" lon="7.969328185996191"><ele>193.0</ele><time>2026-04-11T09:45:39Z</time></trkpt><trkpt lat="44.654172734347284" lon="7.96942810182925"><ele>193.00000000000003</ele><time>2026-04-11T09:45:40Z</time></trkpt><trkpt lat="44.65415364197002" lon="7.969526904294203"><ele>193.0</ele><time>2026-04-11T09:45:41Z</time></trkpt><trkpt lat="44.65413699321379" lon="7.969627531288667"><ele>192.85714285714286</ele><time>2026-04-11T09:45:42Z</time></trkpt><trkpt lat="44.654121443385385" lon="7.969726459988697"><ele>192.71428571428572</ele><time>2026-04-11T09:45:43Z</time></trkpt><trkpt lat="44.65410607571404" lon="7.9698279447316995"><ele>192.57142857142856</ele><time>2026-04-11T09:45:44Z</time></trkpt><trkpt lat="44.654092252071706" lon="7.969928298502409"><ele>192.42857142857144</ele><time>2026-04-11T09:45:45Z</time></trkpt><trkpt lat="44.654076936364355" lon="7.970028265613579"><ele>192.28571428571428</ele><time>2026-04-11T09:45:46Z</time></trkpt><trkpt lat="44.65406080801296" lon="7.970126930490997"><ele>192.14285714285714</ele><time>2026-04-11T09:45:47Z</time></trkpt><trkpt lat="44.654043610305834" lon="7.970225315307171"><ele>192.0</ele><time>2026-04-11T09:45:48Z</time></trkpt><trkpt lat="44.65402930301954" lon="7.970327171219952"><ele>191.99999999999997</ele><time>2026-04-11T09:45:49Z</time></trkpt><trkpt lat="44.65401507839042" lon="7.970425128372956"><ele>192.0</ele><time>2026-04-11T09:45:50Z</time></trkpt><trkpt lat="44.653999376120225" lon="7.970523995474195"><ele>192.0</ele><time>2026-04-11T09:45:51Z</time></trkpt><trkpt lat="44.653980663294966" lon="7.97062026177827"><ele>192.0</ele><time>2026-04-11T09:45:52Z</time></trkpt><trkpt lat="44.65396278256522" lon="7.970720629611103"><ele>192.0</ele><time>2026-04-11T09:45:53Z</time></trkpt><trkpt lat="44.65394693930951" lon="7.970817984469902"><ele>191.99999999999997</ele><time>2026-04-11T09:45:54Z</time></trkpt><trkpt lat="44.65393420985938" lon="7.970915849380153"><ele>192.0</ele><time>2026-04-11T09:45:55Z</time></trkpt><trkpt lat="44.65392266610708" lon="7.971013650409785"><ele>191.85714285714283</ele><time>2026-04-11T09:45:56Z</time></trkpt><trkpt lat="44.65391075257291" lon="7.971111688187185"><ele>191.71428571428572</ele><time>2026-04-11T09:45:57Z</time></trkpt><trkpt lat="44.653897014967136" lon="7.971208141641949"><ele>191.57142857142856</ele><time>2026-04-11T09:45:58Z</time></trkpt><trkpt lat="44.65388336247671" lon="7.971304137468943"><ele>191.42857142857142</ele><time>2026-04-11T09:45:59Z</time></trkpt><trkpt lat="44.65387263357957" lon="7.971401919033038"><ele>191.28571428571428</ele><time>2026-04-11T09:46:00Z</time></trkpt><trkpt lat="44.6538641224065" lon="7.971501927845588"><ele>191.14285714285714</ele><time>2026-04-11T09:46:01Z</time></trkpt><trkpt lat="44.65385451267067" lon="7.971596973600251"><ele>191.0</ele><time>2026-04-11T09:46:02Z</time></trkpt><trkpt lat="44.65384557081708" lon="7.971695519739039"><ele>191.0</ele><time>2026-04-11T09:46:03Z</time></trkpt><trkpt lat="44.65383828759756" lon="7.971794327283817"><ele>191.0</ele><time>2026-04-11T09:46:04Z</time></trkpt><trkpt lat="44.65383194580443" lon="7.971889390680853"><ele>191.0</ele><time>2026-04-11T09:46:05Z</time></trkpt><trkpt lat="44.65382900473762" lon="7.971989051923604"><ele>191.0</ele><time>2026-04-11T09:46:06Z</time></trkpt><trkpt lat="44.65382945993885" lon="7.972084940020504"><ele>191.0</ele><time>2026-04-11T09:46:07Z</time></trkpt><trkpt lat="44.653829712404196" lon="7.972184627693633"><ele>191.0</ele><time>2026-04-11T09:46:08Z</time></trkpt><trkpt lat="44.65382972801685" lon="7.972281741937582"><ele>191.0</ele><time>2026-04-11T09:46:09Z</time></trkpt><trkpt lat="44.653829785049105" lon="7.972380929535786"><ele>191.0</ele><time>2026-04-11T09:46:10Z</time></trkpt><trkpt lat="44.65383227410005" lon="7.972477475773709"><ele>191.0</ele><time>2026-04-11T09:46:11Z</time></trkpt><trkpt lat="44.65383195343532" lon="7.97257683161394"><ele>191.0</ele><time>2026-04-11T09:46:12Z</time></trkpt><trkpt lat="44.65383463155915" lon="7.972677073441595"><ele>191.0</ele><time>2026-04-11T09:46:13Z</time></trkpt><trkpt lat="44.653833913929574" lon="7.972777363716344"><ele>191.0</ele><time>2026-04-11T09:46:14Z</time></trkpt><trkpt lat="44.65383621004402" lon="7.9728726384706"><ele>191.0</ele><time>2026-04-11T09:46:15Z</time></trkpt><trkpt lat="44.65384278180562" lon="7.972968359237315"><ele>191.0</ele><time>2026-04-11T09:46:16Z</time></trkpt><trkpt lat="44.65385476939669" lon="7.973065141450725"><ele>191.42857142857144</ele><time>2026-04-11T09:46:17Z</time></trkpt><trkpt lat="44.65386877475582" lon="7.97316233093993"><ele>191.85714285714283</ele><time>2026-04-11T09:46:18Z</time></trkpt><trkpt lat="44.65387976767977" lon="7.973259652343939"><ele>192.28571428571428</ele><time>2026-04-11T09:46:19Z</time></trkpt><trkpt lat="44.653889235608894" lon="7.9733564949173825"><ele>192.71428571428572</ele><time>2026-04-11T09:46:20Z</time></trkpt><trkpt lat="44.65390128798197" lon="7.9734547100614375"><ele>193.14285714285717</ele><time>2026-04-11T09:46:21Z</time></trkpt><trkpt lat="44.65391444164263" lon="7.973552812309597"><ele>193.57142857142856</ele><time>2026-04-11T09:46:22Z</time></trkpt><trkpt lat="44.65392740116925" lon="7.9736509141681395"><ele>194.0</ele><time>2026-04-11T09:46:23Z</time></trkpt><trkpt lat="44.653937525239535" lon="7.973747478179954"><ele>194.14285714285714</ele><time>2026-04-11T09:46:24Z</time></trkpt><trkpt lat="44.65394877390499" lon="7.973846505878347"><ele>194.2857142857143</ele><time>2026-04-11T09:46:25Z</time></trkpt><trkpt lat="44.65396263333401" lon="7.973943572851804"><ele>194.42857142857144</ele><time>2026-04-11T09:46:26Z</time></trkpt><trkpt lat="44.65397963786147" lon="7.974039569286693"><ele>194.57142857142856</ele><time>2026-04-11T09:46:27Z</time></trkpt><trkpt lat="44.65399621777116" lon="7.9741333870276625"><ele>194.71428571428572</ele><time>2026-04-11T09:46:28Z</time></trkpt><trkpt lat="44.65400668443662" lon="7.974230135895664"><ele>194.85714285714286</ele><time>2026-04-11T09:46:29Z</time></trkpt><trkpt lat="44.654012005620615" lon="7.974326298719149"><ele>195.0</ele><time>2026-04-11T09:46:30Z</time></trkpt><trkpt lat="44.65402065765942" lon="7.974424565585008"><ele>194.71428571428572</ele><time>2026-04-11T09:46:31Z</time></trkpt><trkpt lat="44.65403189323527" lon="7.974521119742712"><ele>194.42857142857142</ele><time>2026-04-11T09:46:32Z</time></trkpt><trkpt lat="44.65404359411818" lon="7.974617472589576"><ele>194.14285714285717</ele><time>2026-04-11T09:46:33Z</time></trkpt><trkpt lat="44.654053507593375" lon="7.974716779337916"><ele>193.85714285714286</ele><time>2026-04-11T09:46:34Z</time></trkpt><trkpt lat="44.654065943090686" lon="7.974814571745079"><ele>193.57142857142858</ele><time>2026-04-11T09:46:35Z</time></trkpt><trkpt lat="44.65408024579277" lon="7.974914729159625"><ele>193.2857142857143</ele><time>2026-04-11T09:46:36Z</time></trkpt><trkpt lat="44.654093974301766" lon="7.975013725261392"><ele>193.0</ele><time>2026-04-11T09:46:37Z</time></trkpt><trkpt lat="44.654108281244866" lon="7.975114750158627"><ele>192.85714285714286</ele><time>2026-04-11T09:46:38Z</time></trkpt><trkpt lat="44.65412602618792" lon="7.975213239813957"><ele>192.71428571428572</ele><time>2026-04-11T09:46:39Z</time></trkpt><trkpt lat="44.65414091844259" lon="7.975310957952854"><ele>192.57142857142856</ele><time>2026-04-11T09:46:40Z</time></trkpt><trkpt lat="44.65415259744089" lon="7.975410067397289"><ele>192.42857142857144</ele><time>2026-04-11T09:46:41Z</time></trkpt><trkpt lat="44.65416405968173" lon="7.975511121944401"><ele>192.28571428571428</ele><time>2026-04-11T09:46:42Z</time></trkpt><trkpt lat="44.65417615443802" lon="7.975610447471865"><ele>192.14285714285714</ele><time>2026-04-11T09:46:43Z</time></trkpt><trkpt lat="44.65418637293562" lon="7.9757120994077555"><ele>192.0</ele><time>2026-04-11T09:46:44Z</time></trkpt><trkpt lat="44.65419704087699" lon="7.975813868294653"><ele>191.99999999999997</ele><time>2026-04-11T09:46:45Z</time></trkpt><trkpt lat="44.654206050317256" lon="7.975913735577602"><ele>192.0</ele><time>2026-04-11T09:46:46Z</time></trkpt><trkpt lat="44.654219158060975" lon="7.976014071984567"><ele>192.0</ele><time>2026-04-11T09:46:47Z</time></trkpt><trkpt lat="44.65422864010258" lon="7.976115248326922"><ele>192.0</ele><time>2026-04-11T09:46:48Z</time></trkpt><trkpt lat="44.65423992259424" lon="7.976214049811633"><ele>192.0</ele><time>2026-04-11T09:46:49Z</time></trkpt><trkpt lat="44.65425307179681" lon="7.976315252131953"><ele>191.99999999999997</ele><time>2026-04-11T09:46:50Z</time></trkpt><trkpt lat="44.654266231005934" lon="7.976417800601299"><ele>192.0</ele><time>2026-04-11T09:46:51Z</time></trkpt><trkpt lat="44.654278521333914" lon="7.976517276710763"><ele>191.99999999999997</ele><time>2026-04-11T09:46:52Z</time></trkpt><trkpt lat="44.654290425156056" lon="7.976619638261054"><ele>192.0</ele><time>2026-04-11T09:46:53Z</time></trkpt><trkpt lat="44.65430242826302" lon="7.976720455383794"><ele>192.0</ele><time>2026-04-11T09:46:54Z</time></trkpt><trkpt lat="44.65431979218798" lon="7.976806688051623"><ele>192.0</ele><time>2026-04-11T09:46:55Z</time></trkpt><trkpt lat="44.65432468439737" lon="7.976908744952746"><ele>192.0</ele><time>2026-04-11T09:46:56Z</time></trkpt><trkpt lat="44.654337505819434" lon="7.9770124143923296"><ele>191.99999999999997</ele><time>2026-04-11T09:46:57Z</time></trkpt><trkpt lat="44.65435280145565" lon="7.977113828778164"><ele>192.0</ele><time>2026-04-11T09:46:58Z</time></trkpt><trkpt lat="44.65436900136413" lon="7.977211607973296"><ele>192.14285714285714</ele><time>2026-04-11T09:46:59Z</time></trkpt><trkpt lat="44.654382453359965" lon="7.977310017959766"><ele>192.28571428571428</ele><time>2026-04-11T09:47:00Z</time></trkpt><trkpt lat="44.65439573744269" lon="7.977410567720115"><ele>192.42857142857144</ele><time>2026-04-11T09:47:01Z</time></trkpt><trkpt lat="44.654406871585884" lon="7.977511728426873"><ele>192.57142857142856</ele><time>2026-04-11T09:47:02Z</time></trkpt><trkpt lat="44.65441940459508" lon="7.97761162580466"><ele>192.71428571428572</ele><time>2026-04-11T09:47:03Z</time></trkpt><trkpt lat="44.654430687217825" lon="7.977712264178684"><ele>192.85714285714286</ele><time>2026-04-11T09:47:04Z</time></trkpt><trkpt lat="44.654443011037834" lon="7.977811592975771"><ele>193.0</ele><time>2026-04-11T09:47:05Z</time></trkpt><trkpt lat="44.6544565034545" lon="7.977911133541367"><ele>193.00000000000003</ele><time>2026-04-11T09:47:06Z</time></trkpt><trkpt lat="44.65446892996521" lon="7.978011119554936"><ele>193.0</ele><time>2026-04-11T09:47:07Z</time></trkpt><trkpt lat="44.654480788533974" lon="7.978111313400136"><ele>193.0</ele><time>2026-04-11T09:47:08Z</time></trkpt><trkpt lat="44.65449307730826" lon="7.978209327367914"><ele>193.0</ele><time>2026-04-11T09:47:09Z</time></trkpt><trkpt lat="44.65450320534527" lon="7.978308376048905"><ele>193.0</ele><time>2026-04-11T09:47:10Z</time></trkpt><trkpt lat="44.65451363873603" lon="7.978407227711083"><ele>193.00000000000003</ele><time>2026-04-11T09:47:11Z</time></trkpt><trkpt lat="44.65452676445412" lon="7.978506403732683"><ele>193.0</ele><time>2026-04-11T09:47:12Z</time></trkpt><trkpt lat="44.65453762893895" lon="7.9786026747810785"><ele>192.85714285714286</ele><time>2026-04-11T09:47:13Z</time></trkpt><trkpt lat="44.65454876395851" lon="7.978705312723711"><ele>192.71428571428572</ele><time>2026-04-11T09:47:14Z</time></trkpt><trkpt lat="44.654559800797855" lon="7.978802866708781"><ele>192.57142857142856</ele><time>2026-04-11T09:47:15Z</time></trkpt><trkpt lat="44.65457365328847" lon="7.978897452515993"><ele>192.42857142857144</ele><time>2026-04-11T09:47:16Z</time></trkpt><trkpt lat="44.6545866968653" lon="7.978995325891295"><ele>192.28571428571428</ele><time>2026-04-11T09:47:17Z</time></trkpt><trkpt lat="44.65460333077202" lon="7.9790928460250266"><ele>192.14285714285714</ele><time>2026-04-11T09:47:18Z</time></trkpt><trkpt lat="44.65461454138674" lon="7.979191082735562"><ele>192.0</ele><time>2026-04-11T09:47:19Z</time></trkpt><trkpt lat="44.65462814495104" lon="7.979293867247407"><ele>191.99999999999997</ele><time>2026-04-11T09:47:20Z</time></trkpt><trkpt lat="44.65463900331472" lon="7.979386222131908"><ele>192.0</ele><time>2026-04-11T09:47:21Z</time></trkpt><trkpt lat="44.654650696736745" lon="7.979477463425744"><ele>192.0</ele><time>2026-04-11T09:47:22Z</time></trkpt><trkpt lat="44.65466238521237" lon="7.979564934048782"><ele>192.0</ele><time>2026-04-11T09:47:23Z</time></trkpt><trkpt lat="44.65467575748339" lon="7.979657765959171"><ele>192.0</ele><time>2026-04-11T09:47:24Z</time></trkpt><trkpt lat="44.654684236220625" lon="7.979803671605472"><ele>191.99999999999997</ele><time>2026-04-11T09:47:26Z</time></trkpt><trkpt lat="44.65470522783579" lon="7.979895841272033"><ele>192.0</ele><time>2026-04-11T09:47:28Z</time></trkpt><trkpt lat="44.65463197477541" lon="7.979899168442887"><ele>192.0</ele><time>2026-04-11T09:47:37Z</time></trkpt><trkpt lat="44.6545610366672" lon="7.979872129367728"><ele>192.0</ele><time>2026-04-11T09:47:39Z</time></trkpt><trkpt lat="44.65447276340027" lon="7.9798236939507525"><ele>192.0</ele><time>2026-04-11T09:47:41Z</time></trkpt><trkpt lat="44.65437582186603" lon="7.979772298283098"><ele>192.0</ele><time>2026-04-11T09:47:43Z</time></trkpt><trkpt lat="44.654258637929644" lon="7.9797126107393686"><ele>192.0</ele><time>2026-04-11T09:47:45Z</time></trkpt><trkpt lat="44.65415099074764" lon="7.9796587470595695"><ele>192.5</ele><time>2026-04-11T09:47:47Z</time></trkpt><trkpt lat="44.654039949213534" lon="7.979603461030051"><ele>193.0</ele><time>2026-04-11T09:47:49Z</time></trkpt><trkpt lat="44.65393313298826" lon="7.979549608334961"><ele>193.5</ele><time>2026-04-11T09:47:51Z</time></trkpt><trkpt lat="44.65382224070419" lon="7.979499319505607"><ele>194.0</ele><time>2026-04-11T09:47:53Z</time></trkpt><trkpt lat="44.653711447001825" lon="7.97944471253303"><ele>194.39999999999998</ele><time>2026-04-11T09:47:55Z</time></trkpt><trkpt lat="44.653594067101295" lon="7.9793914051488395"><ele>194.8</ele><time>2026-04-11T09:47:57Z</time></trkpt><trkpt lat="44.653473699281896" lon="7.979343842907501"><ele>195.2</ele><time>2026-04-11T09:47:59Z</time></trkpt><trkpt lat="44.65341212688028" lon="7.9793205681308805"><ele>195.60000000000002</ele><time>2026-04-11T09:48:00Z</time></trkpt><trkpt lat="44.653291352167756" lon="7.9792692769490055"><ele>196.0</ele><time>2026-04-11T09:48:02Z</time></trkpt><trkpt lat="44.65323165072226" lon="7.979239081077375"><ele>195.99999999999997</ele><time>2026-04-11T09:48:03Z</time></trkpt><trkpt lat="44.653170796094706" lon="7.979212691738723"><ele>196.0</ele><time>2026-04-11T09:48:04Z</time></trkpt><trkpt lat="44.65310920986527" lon="7.97918722731807"><ele>196.0</ele><time>2026-04-11T09:48:05Z</time></trkpt><trkpt lat="44.65298384474283" lon="7.979139135280428"><ele>196.0</ele><time>2026-04-11T09:48:07Z</time></trkpt><trkpt lat="44.652867230874065" lon="7.979084654587044"><ele>195.99999999999997</ele><time>2026-04-11T09:48:09Z</time></trkpt><trkpt lat="44.65280697831197" lon="7.979056358600517"><ele>196.0</ele><time>2026-04-11T09:48:10Z</time></trkpt><trkpt lat="44.65268895033197" lon="7.979004917245004"><ele>196.0</ele><time>2026-04-11T09:48:12Z</time></trkpt><trkpt lat="44.65257247563562" lon="7.978951263229486"><ele>196.0</ele><time>2026-04-11T09:48:14Z</time></trkpt><trkpt lat="44.65245531383305" lon="7.978905856074115"><ele>196.0</ele><time>2026-04-11T09:48:16Z</time></trkpt><trkpt lat="44.65233621225004" lon="7.978871560981086"><ele>196.0</ele><time>2026-04-11T09:48:18Z</time></trkpt><trkpt lat="44.652214510373696" lon="7.9788550763280055"><ele>196.0</ele><time>2026-04-11T09:48:20Z</time></trkpt><trkpt lat="44.65208847107268" lon="7.978852938481589"><ele>196.0</ele><time>2026-04-11T09:48:22Z</time></trkpt><trkpt lat="44.65196894845025" lon="7.978877153727794"><ele>196.0</ele><time>2026-04-11T09:48:24Z</time></trkpt><trkpt lat="44.65185322633519" lon="7.978923637945595"><ele>196.0</ele><time>2026-04-11T09:48:26Z</time></trkpt><trkpt lat="44.6517411972984" lon="7.978990237914188"><ele>195.75</ele><time>2026-04-11T09:48:28Z</time></trkpt><trkpt lat="44.651630924533976" lon="7.979057180031168"><ele>195.5</ele><time>2026-04-11T09:48:30Z</time></trkpt><trkpt lat="44.65151630696818" lon="7.979128991968018"><ele>195.25</ele><time>2026-04-11T09:48:32Z</time></trkpt><trkpt lat="44.65139980220335" lon="7.9791940994821235"><ele>195.0</ele><time>2026-04-11T09:48:34Z</time></trkpt><trkpt lat="44.651285784156286" lon="7.979259548591853"><ele>195.0</ele><time>2026-04-11T09:48:36Z</time></trkpt><trkpt lat="44.65116980913793" lon="7.979313944101715"><ele>195.0</ele><time>2026-04-11T09:48:38Z</time></trkpt><trkpt lat="44.65105190900731" lon="7.979350398009939"><ele>195.0</ele><time>2026-04-11T09:48:40Z</time></trkpt><trkpt lat="44.65092925905979" lon="7.979382905946198"><ele>195.0</ele><time>2026-04-11T09:48:42Z</time></trkpt><trkpt lat="44.6508659101237" lon="7.979393654917209"><ele>195.0</ele><time>2026-04-11T09:48:43Z</time></trkpt><trkpt lat="44.65074477426336" lon="7.979401622053713"><ele>195.5</ele><time>2026-04-11T09:48:45Z</time></trkpt><trkpt lat="44.65062168550518" lon="7.979394074057773"><ele>196.0</ele><time>2026-04-11T09:48:47Z</time></trkpt><trkpt lat="44.65049672996661" lon="7.9793774717020405"><ele>196.5</ele><time>2026-04-11T09:48:49Z</time></trkpt><trkpt lat="44.650370658534456" lon="7.979366962886333"><ele>197.0</ele><time>2026-04-11T09:48:51Z</time></trkpt><trkpt lat="44.650244619042404" lon="7.979353510178008"><ele>197.0</ele><time>2026-04-11T09:48:53Z</time></trkpt><trkpt lat="44.6501805228548" lon="7.979346713353484"><ele>197.0</ele><time>2026-04-11T09:48:54Z</time></trkpt><trkpt lat="44.650115638968444" lon="7.9793432241718305"><ele>197.0</ele><time>2026-04-11T09:48:55Z</time></trkpt><trkpt lat="44.65005012564833" lon="7.979341111311606"><ele>197.0</ele><time>2026-04-11T09:48:56Z</time></trkpt><trkpt lat="44.649986184784204" lon="7.9793390309206345"><ele>197.0</ele><time>2026-04-11T09:48:57Z</time></trkpt><trkpt lat="44.64992115582765" lon="7.979338036230168"><ele>197.0</ele><time>2026-04-11T09:48:58Z</time></trkpt><trkpt lat="44.64985785048124" lon="7.979338839715395"><ele>197.0</ele><time>2026-04-11T09:48:59Z</time></trkpt><trkpt lat="44.64979287799299" lon="7.9793405144994"><ele>197.0</ele><time>2026-04-11T09:49:00Z</time></trkpt><trkpt lat="44.649729673972715" lon="7.979340714046906"><ele>197.0</ele><time>2026-04-11T09:49:01Z</time></trkpt><trkpt lat="44.649664414368274" lon="7.979336907993184"><ele>197.0</ele><time>2026-04-11T09:49:02Z</time></trkpt><trkpt lat="44.649601344141686" lon="7.979328938436716"><ele>197.0</ele><time>2026-04-11T09:49:03Z</time></trkpt><trkpt lat="44.649535207400326" lon="7.97932769946703"><ele>197.0</ele><time>2026-04-11T09:49:04Z</time></trkpt><trkpt lat="44.64947005582182" lon="7.979329204962131"><ele>197.0</ele><time>2026-04-11T09:49:05Z</time></trkpt><trkpt lat="44.64940671143037" lon="7.979332352752909"><ele>197.0</ele><time>2026-04-11T09:49:06Z</time></trkpt><trkpt lat="44.64934344485891" lon="7.97932623222345"><ele>197.00000000000003</ele><time>2026-04-11T09:49:07Z</time></trkpt><trkpt lat="44.64927973202766" lon="7.979319268179093"><ele>197.0</ele><time>2026-04-11T09:49:08Z</time></trkpt><trkpt lat="44.649143769495" lon="7.9792961259134705"><ele>197.0</ele><time>2026-04-11T09:49:10Z</time></trkpt><trkpt lat="44.64907987411139" lon="7.979290567838042"><ele>197.0</ele><time>2026-04-11T09:49:11Z</time></trkpt><trkpt lat="44.64896476789084" lon="7.979245024957686"><ele>197.00000000000003</ele><time>2026-04-11T09:49:13Z</time></trkpt><trkpt lat="44.6489025556679" lon="7.979225170666212"><ele>197.0</ele><time>2026-04-11T09:49:14Z</time></trkpt><trkpt lat="44.64878239471376" lon="7.9791791129160465"><ele>197.0</ele><time>2026-04-11T09:49:16Z</time></trkpt><trkpt lat="44.648664932417525" lon="7.979124329198414"><ele>197.0</ele><time>2026-04-11T09:49:18Z</time></trkpt><trkpt lat="44.648545783934395" lon="7.9790738099435945"><ele>197.0</ele><time>2026-04-11T09:49:20Z</time></trkpt><trkpt lat="44.64842881196849" lon="7.9790208092423685"><ele>197.0</ele><time>2026-04-11T09:49:22Z</time></trkpt><trkpt lat="44.648309889934616" lon="7.978971927816968"><ele>197.25</ele><time>2026-04-11T09:49:24Z</time></trkpt><trkpt lat="44.648192742715885" lon="7.9789265161586345"><ele>197.5</ele><time>2026-04-11T09:49:26Z</time></trkpt><trkpt lat="44.64807492244331" lon="7.978877504026721"><ele>197.75</ele><time>2026-04-11T09:49:28Z</time></trkpt><trkpt lat="44.64795966271426" lon="7.978823517336414"><ele>198.0</ele><time>2026-04-11T09:49:30Z</time></trkpt><trkpt lat="44.647848006554646" lon="7.978778925038455"><ele>199.0</ele><time>2026-04-11T09:49:32Z</time></trkpt><trkpt lat="44.647737208239754" lon="7.978737062774046"><ele>200.0</ele><time>2026-04-11T09:49:34Z</time></trkpt><trkpt lat="44.64767454450154" lon="7.978707593281326"><ele>201.0</ele><time>2026-04-11T09:49:35Z</time></trkpt><trkpt lat="44.647554365688144" lon="7.978666248536313"><ele>202.0</ele><time>2026-04-11T09:49:37Z</time></trkpt><trkpt lat="44.647436364684204" lon="7.978617212716952"><ele>203.0</ele><time>2026-04-11T09:49:39Z</time></trkpt><trkpt lat="44.64737490531718" lon="7.978589821453867"><ele>203.00000000000003</ele><time>2026-04-11T09:49:40Z</time></trkpt><trkpt lat="44.647314426835095" lon="7.978562920166286"><ele>203.0</ele><time>2026-04-11T09:49:41Z</time></trkpt><trkpt lat="44.64725528206972" lon="7.978526547936319"><ele>203.0</ele><time>2026-04-11T09:49:42Z</time></trkpt><trkpt lat="44.6471980646825" lon="7.978488115684168"><ele>203.0</ele><time>2026-04-11T09:49:43Z</time></trkpt><trkpt lat="44.64713895262108" lon="7.9784499562128"><ele>203.00000000000003</ele><time>2026-04-11T09:49:44Z</time></trkpt><trkpt lat="44.64702960166951" lon="7.978368193100056"><ele>203.0</ele><time>2026-04-11T09:49:46Z</time></trkpt><trkpt lat="44.64693941990471" lon="7.978246263029092"><ele>202.50000000000003</ele><time>2026-04-11T09:49:48Z</time></trkpt><trkpt lat="44.64691376058924" lon="7.978162631204331"><ele>202.0</ele><time>2026-04-11T09:49:49Z</time></trkpt><trkpt lat="44.64689577074881" lon="7.978074472708528"><ele>201.5</ele><time>2026-04-11T09:49:50Z</time></trkpt><trkpt lat="44.64683822080218" lon="7.977917098657936"><ele>201.0</ele><time>2026-04-11T09:49:52Z</time></trkpt><trkpt lat="44.64677824216117" lon="7.977872801777374"><ele>200.50000000000003</ele><time>2026-04-11T09:49:53Z</time></trkpt><trkpt lat="44.64670429220833" lon="7.977871304877028"><ele>200.0</ele><time>2026-04-11T09:49:54Z</time></trkpt><trkpt lat="44.64663538221274" lon="7.977915666558082"><ele>200.00000000000003</ele><time>2026-04-11T09:49:55Z</time></trkpt><trkpt lat="44.646584315565434" lon="7.977991633246336"><ele>200.0</ele><time>2026-04-11T09:49:56Z</time></trkpt><trkpt lat="44.64654812785942" lon="7.978074518315527"><ele>200.0</ele><time>2026-04-11T09:49:57Z</time></trkpt><trkpt lat="44.6465105995374" lon="7.978149573600193"><ele>200.0</ele><time>2026-04-11T09:49:58Z</time></trkpt><trkpt lat="44.646409865594634" lon="7.978255030697866"><ele>200.00000000000003</ele><time>2026-04-11T09:50:00Z</time></trkpt><trkpt lat="44.646346579520035" lon="7.978282373874816"><ele>200.0</ele><time>2026-04-11T09:50:01Z</time></trkpt><trkpt lat="44.64628666584711" lon="7.9783101189435675"><ele>200.00000000000003</ele><time>2026-04-11T09:50:02Z</time></trkpt><trkpt lat="44.64622606101741" lon="7.978339962291966"><ele>200.0</ele><time>2026-04-11T09:50:03Z</time></trkpt><trkpt lat="44.64616673857122" lon="7.9783698204396005"><ele>200.0</ele><time>2026-04-11T09:50:04Z</time></trkpt><trkpt lat="44.646107285637" lon="7.978401883011811"><ele>200.0</ele><time>2026-04-11T09:50:05Z</time></trkpt><trkpt lat="44.64604675819987" lon="7.978431556577596"><ele>200.00000000000003</ele><time>2026-04-11T09:50:06Z</time></trkpt><trkpt lat="44.64593267644389" lon="7.978488012205001"><ele>200.0</ele><time>2026-04-11T09:50:08Z</time></trkpt><trkpt lat="44.64581631735707" lon="7.9785432924427635"><ele>202.25</ele><time>2026-04-11T09:50:10Z</time></trkpt><trkpt lat="44.645703138693854" lon="7.978596605481498"><ele>204.5</ele><time>2026-04-11T09:50:12Z</time></trkpt><trkpt lat="44.64558816213792" lon="7.978660935278212"><ele>206.75</ele><time>2026-04-11T09:50:13.999Z</time></trkpt><trkpt lat="44.64547651374001" lon="7.978720783999371"><ele>209.0</ele><time>2026-04-11T09:50:15.999Z</time></trkpt><trkpt lat="44.645362370144674" lon="7.978772415046173"><ele>208.0</ele><time>2026-04-11T09:50:18Z</time></trkpt><trkpt lat="44.6452485711967" lon="7.978828356263642"><ele>207.0</ele><time>2026-04-11T09:50:20Z</time></trkpt><trkpt lat="44.64513450383345" lon="7.978888840463838"><ele>206.0</ele><time>2026-04-11T09:50:22Z</time></trkpt><trkpt lat="44.64502037626097" lon="7.978944624380278"><ele>205.0</ele><time>2026-04-11T09:50:24Z</time></trkpt><trkpt lat="44.64490908586579" lon="7.9790034651301625"><ele>205.0</ele><time>2026-04-11T09:50:26Z</time></trkpt><trkpt lat="44.64479461462175" lon="7.9790585068652975"><ele>205.0</ele><time>2026-04-11T09:50:28Z</time></trkpt><trkpt lat="44.64467964528969" lon="7.979122430645839"><ele>205.0</ele><time>2026-04-11T09:50:30Z</time></trkpt><trkpt lat="44.644565691586" lon="7.979186232218496"><ele>205.0</ele><time>2026-04-11T09:50:32Z</time></trkpt><trkpt lat="44.64445117012718" lon="7.979248076327856"><ele>206.75</ele><time>2026-04-11T09:50:34Z</time></trkpt><trkpt lat="44.64433679670987" lon="7.979313555418047"><ele>208.5</ele><time>2026-04-11T09:50:36Z</time></trkpt><trkpt lat="44.644225812406056" lon="7.979392286971761"><ele>210.25</ele><time>2026-04-11T09:50:38Z</time></trkpt><trkpt lat="44.64412408060403" lon="7.979488414506696"><ele>212.0</ele><time>2026-04-11T09:50:40Z</time></trkpt><trkpt lat="44.64402176283231" lon="7.9795925979642295"><ele>212.0</ele><time>2026-04-11T09:50:42Z</time></trkpt><trkpt lat="44.64396941862941" lon="7.979651103521917"><ele>212.0</ele><time>2026-04-11T09:50:43Z</time></trkpt><trkpt lat="44.64392012814464" lon="7.97970652840284"><ele>212.0</ele><time>2026-04-11T09:50:44Z</time></trkpt><trkpt lat="44.64386815878697" lon="7.979765595692167"><ele>212.0</ele><time>2026-04-11T09:50:45Z</time></trkpt><trkpt lat="44.643817195316565" lon="7.97982752556703"><ele>212.0</ele><time>2026-04-11T09:50:46Z</time></trkpt><trkpt lat="44.6437670578504" lon="7.9798849888078776"><ele>212.0</ele><time>2026-04-11T09:50:47Z</time></trkpt><trkpt lat="44.64371625797378" lon="7.979945084731696"><ele>212.0</ele><time>2026-04-11T09:50:48Z</time></trkpt><trkpt lat="44.64366864983036" lon="7.980007733272694"><ele>211.57142857142858</ele><time>2026-04-11T09:50:49Z</time></trkpt><trkpt lat="44.643619770794764" lon="7.980068832304948"><ele>211.14285714285714</ele><time>2026-04-11T09:50:50Z</time></trkpt><trkpt lat="44.64357031211297" lon="7.980130000144548"><ele>210.71428571428572</ele><time>2026-04-11T09:50:51Z</time></trkpt><trkpt lat="44.643520544868046" lon="7.980189146274797"><ele>210.28571428571428</ele><time>2026-04-11T09:50:52Z</time></trkpt><trkpt lat="44.64347301047248" lon="7.980249845463539"><ele>209.85714285714283</ele><time>2026-04-11T09:50:53Z</time></trkpt><trkpt lat="44.643422772482" lon="7.980311453894391"><ele>209.42857142857142</ele><time>2026-04-11T09:50:54Z</time></trkpt><trkpt lat="44.64337350801452" lon="7.980370398215326"><ele>209.0</ele><time>2026-04-11T09:50:55Z</time></trkpt><trkpt lat="44.64332243909431" lon="7.980429414441902"><ele>209.0</ele><time>2026-04-11T09:50:56Z</time></trkpt><trkpt lat="44.64327335068824" lon="7.980489191940459"><ele>209.0</ele><time>2026-04-11T09:50:57Z</time></trkpt><trkpt lat="44.64322349987035" lon="7.980553244148234"><ele>209.0</ele><time>2026-04-11T09:50:58Z</time></trkpt><trkpt lat="44.643173073103036" lon="7.980611873711284"><ele>209.0</ele><time>2026-04-11T09:50:59Z</time></trkpt><trkpt lat="44.643120322704036" lon="7.980667803676065"><ele>209.0</ele><time>2026-04-11T09:51:00Z</time></trkpt><trkpt lat="44.6430646162255" lon="7.980711238570595"><ele>209.0</ele><time>2026-04-11T09:51:01Z</time></trkpt><trkpt lat="44.643008505152835" lon="7.980767420574863"><ele>209.0</ele><time>2026-04-11T09:51:02Z</time></trkpt><trkpt lat="44.642952667161815" lon="7.980813387572374"><ele>209.00000000000003</ele><time>2026-04-11T09:51:03Z</time></trkpt><trkpt lat="44.64289709556155" lon="7.980856601347269"><ele>209.0</ele><time>2026-04-11T09:51:04Z</time></trkpt><trkpt lat="44.642785266711094" lon="7.980937918025999"><ele>209.0</ele><time>2026-04-11T09:51:06Z</time></trkpt><trkpt lat="44.64267468886083" lon="7.981014757364004"><ele>209.0</ele><time>2026-04-11T09:51:08Z</time></trkpt><trkpt lat="44.642619545919985" lon="7.981060202303683"><ele>209.00000000000003</ele><time>2026-04-11T09:51:09Z</time></trkpt><trkpt lat="44.642561725553804" lon="7.98109959716033"><ele>209.0</ele><time>2026-04-11T09:51:10Z</time></trkpt><trkpt lat="44.64250487585474" lon="7.981141076840582"><ele>209.0</ele><time>2026-04-11T09:51:11Z</time></trkpt><trkpt lat="44.64244933602708" lon="7.981185632350315"><ele>209.0</ele><time>2026-04-11T09:51:12Z</time></trkpt><trkpt lat="44.64239468997027" lon="7.981240104248154"><ele>209.0</ele><time>2026-04-11T09:51:13Z</time></trkpt><trkpt lat="44.64234364734548" lon="7.981299058328325"><ele>209.0</ele><time>2026-04-11T09:51:14Z</time></trkpt><trkpt lat="44.642294083135646" lon="7.9813614227872085"><ele>209.0</ele><time>2026-04-11T09:51:15Z</time></trkpt><trkpt lat="44.6422442147418" lon="7.9814281374994716"><ele>209.0</ele><time>2026-04-11T09:51:16Z</time></trkpt><trkpt lat="44.64219464564084" lon="7.981495642426791"><ele>209.0</ele><time>2026-04-11T09:51:17Z</time></trkpt><trkpt lat="44.64214500870454" lon="7.981562791419633"><ele>209.0</ele><time>2026-04-11T09:51:18Z</time></trkpt><trkpt lat="44.642092519783276" lon="7.981625963342569"><ele>209.0</ele><time>2026-04-11T09:51:19Z</time></trkpt><trkpt lat="44.642036951943645" lon="7.981687340016515"><ele>209.0</ele><time>2026-04-11T09:51:20Z</time></trkpt><trkpt lat="44.64197852294422" lon="7.981745614884256"><ele>209.0</ele><time>2026-04-11T09:51:21Z</time></trkpt><trkpt lat="44.641918542878514" lon="7.981797400965974"><ele>209.0</ele><time>2026-04-11T09:51:22Z</time></trkpt><trkpt lat="44.64185514948607" lon="7.981844061215994"><ele>209.0</ele><time>2026-04-11T09:51:23Z</time></trkpt><trkpt lat="44.641792802171395" lon="7.981887637248135"><ele>209.0</ele><time>2026-04-11T09:51:24Z</time></trkpt><trkpt lat="44.64173287043425" lon="7.981931528691765"><ele>209.0</ele><time>2026-04-11T09:51:25Z</time></trkpt><trkpt lat="44.64167267154677" lon="7.981974637284105"><ele>209.0</ele><time>2026-04-11T09:51:26Z</time></trkpt><trkpt lat="44.641607652153866" lon="7.982013670440395"><ele>209.0</ele><time>2026-04-11T09:51:27Z</time></trkpt><trkpt lat="44.64153831012919" lon="7.9820385051960026"><ele>209.0</ele><time>2026-04-11T09:51:28Z</time></trkpt><trkpt lat="44.64147136301441" lon="7.9820659209993305"><ele>209.0</ele><time>2026-04-11T09:51:29Z</time></trkpt><trkpt lat="44.64140583228302" lon="7.9820914889680745"><ele>209.0</ele><time>2026-04-11T09:51:30Z</time></trkpt><trkpt lat="44.64134051090603" lon="7.982113695232843"><ele>209.0</ele><time>2026-04-11T09:51:31Z</time></trkpt><trkpt lat="44.64127460854495" lon="7.9821361483575615"><ele>209.0</ele><time>2026-04-11T09:51:32Z</time></trkpt><trkpt lat="44.64120789985948" lon="7.982165374332336"><ele>209.0</ele><time>2026-04-11T09:51:33Z</time></trkpt><trkpt lat="44.64114255728884" lon="7.982188252915008"><ele>209.0</ele><time>2026-04-11T09:51:34Z</time></trkpt><trkpt lat="44.64107542904839" lon="7.982210544519899"><ele>209.0</ele><time>2026-04-11T09:51:35Z</time></trkpt><trkpt lat="44.64101147028408" lon="7.982241396364646"><ele>209.0</ele><time>2026-04-11T09:51:36Z</time></trkpt><trkpt lat="44.640947699510455" lon="7.982275034329262"><ele>209.0</ele><time>2026-04-11T09:51:37Z</time></trkpt><trkpt lat="44.640885300298464" lon="7.982307764962658"><ele>209.0</ele><time>2026-04-11T09:51:38Z</time></trkpt><trkpt lat="44.64081846639784" lon="7.982323947979907"><ele>208.85714285714286</ele><time>2026-04-11T09:51:39Z</time></trkpt><trkpt lat="44.64075379917225" lon="7.982346610923119"><ele>208.71428571428572</ele><time>2026-04-11T09:51:40Z</time></trkpt><trkpt lat="44.64068886439413" lon="7.98236936764151"><ele>208.57142857142856</ele><time>2026-04-11T09:51:41Z</time></trkpt><trkpt lat="44.64062391074147" lon="7.982392130974012"><ele>208.42857142857144</ele><time>2026-04-11T09:51:42Z</time></trkpt><trkpt lat="44.640558393128785" lon="7.982415091948596"><ele>208.2857142857143</ele><time>2026-04-11T09:51:43Z</time></trkpt><trkpt lat="44.64049365999486" lon="7.982437777992841"><ele>208.14285714285714</ele><time>2026-04-11T09:51:44Z</time></trkpt><trkpt lat="44.640431395010935" lon="7.982459599248851"><ele>208.0</ele><time>2026-04-11T09:51:45Z</time></trkpt><trkpt lat="44.640366864419306" lon="7.982481417099605"><ele>208.0</ele><time>2026-04-11T09:51:46Z</time></trkpt><trkpt lat="44.64030432214532" lon="7.982502727792606"><ele>208.0</ele><time>2026-04-11T09:51:47Z</time></trkpt><trkpt lat="44.640182496057584" lon="7.982542316013196"><ele>208.0</ele><time>2026-04-11T09:51:49Z</time></trkpt><trkpt lat="44.64006128096085" lon="7.9825803860333595"><ele>208.0</ele><time>2026-04-11T09:51:51Z</time></trkpt><trkpt lat="44.64001466682774" lon="7.98270264479351"><ele>208.0</ele><time>2026-04-11T09:51:52Z</time></trkpt><trkpt lat="44.63989101518254" lon="7.982739309773309"><ele>209.60000000000002</ele><time>2026-04-11T09:51:54Z</time></trkpt><trkpt lat="44.63982826395337" lon="7.982755242257271"><ele>211.20000000000002</ele><time>2026-04-11T09:51:55Z</time></trkpt><trkpt lat="44.639704719792846" lon="7.982777329011374"><ele>212.8</ele><time>2026-04-11T09:51:57Z</time></trkpt><trkpt lat="44.63958331053263" lon="7.982796780143115"><ele>214.4</ele><time>2026-04-11T09:51:59Z</time></trkpt><trkpt lat="44.63946040945591" lon="7.982814874190131"><ele>216.0</ele><time>2026-04-11T09:52:01Z</time></trkpt><trkpt lat="44.639341922542066" lon="7.982833568639306"><ele>216.0</ele><time>2026-04-11T09:52:03Z</time></trkpt><trkpt lat="44.639225116424505" lon="7.9828524193824535"><ele>216.0</ele><time>2026-04-11T09:52:05Z</time></trkpt><trkpt lat="44.639109294987044" lon="7.982874593043522"><ele>216.0</ele><time>2026-04-11T09:52:07Z</time></trkpt><trkpt lat="44.63899276871143" lon="7.982894513676021"><ele>216.0</ele><time>2026-04-11T09:52:09Z</time></trkpt><trkpt lat="44.63887940475178" lon="7.982910643401628"><ele>216.0</ele><time>2026-04-11T09:52:11Z</time></trkpt><trkpt lat="44.63876742527242" lon="7.982927655890614"><ele>216.00000000000003</ele><time>2026-04-11T09:52:13Z</time></trkpt><trkpt lat="44.63866076348234" lon="7.982965658047297"><ele>216.00000000000003</ele><time>2026-04-11T09:52:14.999Z</time></trkpt><trkpt lat="44.63856302897859" lon="7.983034819649115"><ele>216.0</ele><time>2026-04-11T09:52:16.999Z</time></trkpt><trkpt lat="44.6384868604555" lon="7.983134155500043"><ele>216.0</ele><time>2026-04-11T09:52:18.999Z</time></trkpt><trkpt lat="44.63841464837348" lon="7.983229779087023"><ele>216.8</ele><time>2026-04-11T09:52:20.999Z</time></trkpt><trkpt lat="44.63837398775202" lon="7.983363178762705"><ele>217.60000000000002</ele><time>2026-04-11T09:52:22.999Z</time></trkpt><trkpt lat="44.63832084296115" lon="7.983475641017246"><ele>218.4</ele><time>2026-04-11T09:52:25Z</time></trkpt><trkpt lat="44.63827337694385" lon="7.98358995948739"><ele>219.2</ele><time>2026-04-11T09:52:27Z</time></trkpt><trkpt lat="44.6382352986616" lon="7.98370887312743"><ele>220.0</ele><time>2026-04-11T09:52:29Z</time></trkpt><trkpt lat="44.638203734110206" lon="7.98382941079291"><ele>220.0</ele><time>2026-04-11T09:52:31Z</time></trkpt><trkpt lat="44.638188180105374" lon="7.983955018144745"><ele>220.0</ele><time>2026-04-11T09:52:33Z</time></trkpt><trkpt lat="44.63816990327203" lon="7.9840847748155115"><ele>220.0</ele><time>2026-04-11T09:52:35Z</time></trkpt><trkpt lat="44.638158380844935" lon="7.984211309380858"><ele>220.0</ele><time>2026-04-11T09:52:37Z</time></trkpt><trkpt lat="44.63816265802847" lon="7.984342311653167"><ele>220.0</ele><time>2026-04-11T09:52:39Z</time></trkpt><trkpt lat="44.638170323179885" lon="7.984471115011757"><ele>220.6</ele><time>2026-04-11T09:52:41Z</time></trkpt><trkpt lat="44.638185722698196" lon="7.984601095146384"><ele>221.2</ele><time>2026-04-11T09:52:43Z</time></trkpt><trkpt lat="44.63820208100946" lon="7.984728494009564"><ele>221.8</ele><time>2026-04-11T09:52:45Z</time></trkpt><trkpt lat="44.63822527081493" lon="7.9848511386435375"><ele>222.4</ele><time>2026-04-11T09:52:47Z</time></trkpt><trkpt lat="44.6382619635002" lon="7.984969963462505"><ele>223.0</ele><time>2026-04-11T09:52:49Z</time></trkpt><trkpt lat="44.63829836342974" lon="7.985084362699215"><ele>223.49999999999997</ele><time>2026-04-11T09:52:51Z</time></trkpt><trkpt lat="44.63833568094929" lon="7.9851894388885105"><ele>224.0</ele><time>2026-04-11T09:52:53Z</time></trkpt><trkpt lat="44.6383771851735" lon="7.985295614982164"><ele>224.5</ele><time>2026-04-11T09:52:55Z</time></trkpt><trkpt lat="44.63840982739167" lon="7.985375696064133"><ele>225.0</ele><time>2026-04-11T09:52:57Z</time></trkpt><trkpt lat="44.638442625360575" lon="7.9854722821863655"><ele>225.49999999999997</ele><time>2026-04-11T09:52:59Z</time></trkpt><trkpt lat="44.6384714270656" lon="7.985565970633953"><ele>226.0</ele><time>2026-04-11T09:53:01Z</time></trkpt><trkpt lat="44.638493909473965" lon="7.985658342157633"><ele>225.99999999999997</ele><time>2026-04-11T09:53:03Z</time></trkpt><trkpt lat="44.63851221535713" lon="7.9857571663032285"><ele>226.0</ele><time>2026-04-11T09:53:05Z</time></trkpt><trkpt lat="44.63853127076947" lon="7.985854398650277"><ele>226.0</ele><time>2026-04-11T09:53:07Z</time></trkpt><trkpt lat="44.63855022257173" lon="7.985951377440602"><ele>226.0</ele><time>2026-04-11T09:53:09Z</time></trkpt><trkpt lat="44.638560497696815" lon="7.986044178197956"><ele>225.99999999999997</ele><time>2026-04-11T09:53:11Z</time></trkpt><trkpt lat="44.638566577347824" lon="7.986173049760666"><ele>226.0</ele><time>2026-04-11T09:53:14Z</time></trkpt><trkpt lat="44.6385806879838" lon="7.9862766751561285"><ele>226.66666666666666</ele><time>2026-04-11T09:53:17Z</time></trkpt><trkpt lat="44.638576098510065" lon="7.986399004767744"><ele>227.33333333333331</ele><time>2026-04-11T09:53:20Z</time></trkpt><trkpt lat="44.63857177467583" lon="7.986526986043903"><ele>228.0</ele><time>2026-04-11T09:53:23Z</time></trkpt><trkpt lat="44.63856989929631" lon="7.986651633157436"><ele>228.66666666666669</ele><time>2026-04-11T09:53:26Z</time></trkpt><trkpt lat="44.638567912245655" lon="7.986769222728233"><ele>229.33333333333334</ele><time>2026-04-11T09:53:29Z</time></trkpt><trkpt lat="44.63855491634044" lon="7.986875992843719"><ele>230.0</ele><time>2026-04-11T09:53:32Z</time></trkpt><trkpt lat="44.63854489154841" lon="7.986989826933469"><ele>230.1428571428571</ele><time>2026-04-11T09:53:35Z</time></trkpt><trkpt lat="44.638536601275824" lon="7.987105844128324"><ele>230.28571428571428</ele><time>2026-04-11T09:53:38Z</time></trkpt><trkpt lat="44.63853504174273" lon="7.9872111593836825"><ele>230.42857142857142</ele><time>2026-04-11T09:53:41Z</time></trkpt><trkpt lat="44.6385414492504" lon="7.987303007389282"><ele>230.57142857142856</ele><time>2026-04-11T09:53:43Z</time></trkpt><trkpt lat="44.63854048060459" lon="7.987397713439548"><ele>230.71428571428572</ele><time>2026-04-11T09:53:45Z</time></trkpt><trkpt lat="44.638533929949865" lon="7.987496501642347"><ele>230.85714285714286</ele><time>2026-04-11T09:53:48Z</time></trkpt><trkpt lat="44.63853765174913" lon="7.9875897589272284"><ele>231.0</ele><time>2026-04-11T09:53:51Z</time></trkpt><trkpt lat="44.63854717576379" lon="7.987686161661884"><ele>231.71428571428572</ele><time>2026-04-11T09:53:54Z</time></trkpt><trkpt lat="44.63855210714011" lon="7.987778396013907"><ele>232.42857142857144</ele><time>2026-04-11T09:53:57Z</time></trkpt><trkpt lat="44.63854742579228" lon="7.987871958970605"><ele>233.14285714285714</ele><time>2026-04-11T09:54:00Z</time></trkpt><trkpt lat="44.63853039820999" lon="7.987968564264936"><ele>233.85714285714286</ele><time>2026-04-11T09:54:03Z</time></trkpt><trkpt lat="44.63852129400445" lon="7.988061549077238"><ele>234.57142857142858</ele><time>2026-04-11T09:54:06Z</time></trkpt><trkpt lat="44.63852803552923" lon="7.988150461731443"><ele>235.28571428571428</ele><time>2026-04-11T09:54:10.999Z</time></trkpt><trkpt lat="44.63847698836847" lon="7.988237359387837"><ele>236.0</ele><time>2026-04-11T09:54:27.999Z</time></trkpt><trkpt lat="44.63843620280256" lon="7.988312986242818"><ele>237.14285714285714</ele><time>2026-04-11T09:54:31Z</time></trkpt><trkpt lat="44.638404634967884" lon="7.988391445986523"><ele>238.28571428571428</ele><time>2026-04-11T09:54:33Z</time></trkpt><trkpt lat="44.63835048540971" lon="7.9884852384864224"><ele>239.42857142857142</ele><time>2026-04-11T09:54:36Z</time></trkpt><trkpt lat="44.63831684697169" lon="7.988564040376076"><ele>240.57142857142856</ele><time>2026-04-11T09:54:38Z</time></trkpt><trkpt lat="44.63827752576315" lon="7.988638619610867"><ele>241.71428571428572</ele><time>2026-04-11T09:54:40Z</time></trkpt><trkpt lat="44.63824649266046" lon="7.988721542909146"><ele>242.85714285714283</ele><time>2026-04-11T09:54:42Z</time></trkpt><trkpt lat="44.63818245502407" lon="7.9888021740893365"><ele>243.99999999999997</ele><time>2026-04-11T09:54:45Z</time></trkpt><trkpt lat="44.63813025460257" lon="7.988887187815105"><ele>243.99999999999997</ele><time>2026-04-11T09:54:48Z</time></trkpt><trkpt lat="44.63808001044107" lon="7.988943075182481"><ele>244.0</ele><time>2026-04-11T09:54:50Z</time></trkpt><trkpt lat="44.63803058500176" lon="7.9890017308383054"><ele>243.99999999999997</ele><time>2026-04-11T09:54:52Z</time></trkpt><trkpt lat="44.63796458856018" lon="7.9890734594580115"><ele>243.99999999999997</ele><time>2026-04-11T09:54:55Z</time></trkpt><trkpt lat="44.63790958986371" lon="7.98914930680341"><ele>244.0</ele><time>2026-04-11T09:54:58Z</time></trkpt><trkpt lat="44.637852022610446" lon="7.989236594424664"><ele>243.99999999999997</ele><time>2026-04-11T09:55:01Z</time></trkpt><trkpt lat="44.637800550144654" lon="7.989313660593062"><ele>243.99999999999997</ele><time>2026-04-11T09:55:03Z</time></trkpt><trkpt lat="44.637749464825774" lon="7.989400349973261"><ele>243.99999999999997</ele><time>2026-04-11T09:55:06Z</time></trkpt><trkpt lat="44.63768651592142" lon="7.989403892638756"><ele>244.0</ele><time>2026-04-11T09:55:46Z</time></trkpt><trkpt lat="44.63761587937301" lon="7.989426092045752"><ele>243.99999999999997</ele><time>2026-04-11T09:56:21.999Z</time></trkpt><trkpt lat="44.63768693865073" lon="7.9893978870619105"><ele>243.99999999999997</ele><time>2026-04-11T09:57:25Z</time></trkpt><trkpt lat="44.63774979994575" lon="7.989380164399284"><ele>244.0</ele><time>2026-04-11T09:57:28Z</time></trkpt><trkpt lat="44.63780242251996" lon="7.989306466480684"><ele>243.99999999999997</ele><time>2026-04-11T10:03:01.999Z</time></trkpt><trkpt lat="44.63785163157202" lon="7.989207559474366"><ele>243.99999999999997</ele><time>2026-04-11T10:03:04.999Z</time></trkpt><trkpt lat="44.637921514964134" lon="7.989150474926023"><ele>243.99999999999997</ele><time>2026-04-11T10:03:07.999Z</time></trkpt><trkpt lat="44.637967466024186" lon="7.989077143876463"><ele>244.0</ele><time>2026-04-11T10:03:09.999Z</time></trkpt><trkpt lat="44.638027915223915" lon="7.989014267448534"><ele>244.0</ele><time>2026-04-11T10:03:11.999Z</time></trkpt><trkpt lat="44.63809297694996" lon="7.9889419599376055"><ele>244.0</ele><time>2026-04-11T10:03:13.999Z</time></trkpt><trkpt lat="44.638151839079036" lon="7.988863422175222"><ele>243.99999999999997</ele><time>2026-04-11T10:03:16.999Z</time></trkpt><trkpt lat="44.63821763200781" lon="7.988781071903748"><ele>244.0</ele><time>2026-04-11T10:03:17.999Z</time></trkpt><trkpt lat="44.63828585579308" lon="7.988661909127413"><ele>244.0</ele><time>2026-04-11T10:03:19.999Z</time></trkpt><trkpt lat="44.63834462910995" lon="7.988547715433217"><ele>243.99999999999997</ele><time>2026-04-11T10:03:21.999Z</time></trkpt><trkpt lat="44.63840899475795" lon="7.98843155040057"><ele>243.99999999999997</ele><time>2026-04-11T10:03:23.999Z</time></trkpt><trkpt lat="44.6384771222551" lon="7.988312141087004"><ele>244.0</ele><time>2026-04-11T10:03:25.999Z</time></trkpt><trkpt lat="44.638537284184714" lon="7.988195355250838"><ele>244.0</ele><time>2026-04-11T10:03:27.999Z</time></trkpt><trkpt lat="44.638622868935876" lon="7.9881167285636625"><ele>244.99999999999997</ele><time>2026-04-11T10:03:29.999Z</time></trkpt><trkpt lat="44.638693264168786" lon="7.988038627500603"><ele>246.0</ele><time>2026-04-11T10:03:31.999Z</time></trkpt><trkpt lat="44.638733221713686" lon="7.9879166724106385"><ele>247.0</ele><time>2026-04-11T10:03:34.999Z</time></trkpt><trkpt lat="44.63875671577771" lon="7.987827263851645"><ele>248.0</ele><time>2026-04-11T10:03:36.999Z</time></trkpt><trkpt lat="44.63877123965835" lon="7.987725258884531"><ele>248.99999999999997</ele><time>2026-04-11T10:03:38.999Z</time></trkpt><trkpt lat="44.63879287734861" lon="7.987627660848946"><ele>250.0</ele><time>2026-04-11T10:03:41.999Z</time></trkpt><trkpt lat="44.63881875292333" lon="7.987532956501323"><ele>249.66666666666666</ele><time>2026-04-11T10:03:42.999Z</time></trkpt><trkpt lat="44.638821240682304" lon="7.987369718600702"><ele>249.33333333333331</ele><time>2026-04-11T10:03:44.999Z</time></trkpt><trkpt lat="44.638842449339705" lon="7.987253979931713"><ele>249.0</ele><time>2026-04-11T10:03:46.999Z</time></trkpt><trkpt lat="44.6388620111101" lon="7.987137816095449"><ele>248.66666666666669</ele><time>2026-04-11T10:03:48.999Z</time></trkpt><trkpt lat="44.638886566872415" lon="7.987038696994667"><ele>248.33333333333334</ele><time>2026-04-11T10:03:50.999Z</time></trkpt><trkpt lat="44.63889784507352" lon="7.986926004109763"><ele>248.0</ele><time>2026-04-11T10:03:52.999Z</time></trkpt><trkpt lat="44.63891155072532" lon="7.986820747640168"><ele>248.00000000000003</ele><time>2026-04-11T10:03:54.999Z</time></trkpt><trkpt lat="44.63892802995734" lon="7.9867100942204665"><ele>248.0</ele><time>2026-04-11T10:03:56.999Z</time></trkpt><trkpt lat="44.638939315784796" lon="7.986588099586361"><ele>248.0</ele><time>2026-04-11T10:03:58.999Z</time></trkpt><trkpt lat="44.63895069629834" lon="7.986463512815586"><ele>248.0</ele><time>2026-04-11T10:04:00.999Z</time></trkpt><trkpt lat="44.63896432150866" lon="7.986339954911174"><ele>248.00000000000003</ele><time>2026-04-11T10:04:02.999Z</time></trkpt><trkpt lat="44.638968982519785" lon="7.986243600772223"><ele>248.0</ele><time>2026-04-11T10:04:04.999Z</time></trkpt><trkpt lat="44.63897256909312" lon="7.986108880600924"><ele>245.75</ele><time>2026-04-11T10:04:06.999Z</time></trkpt><trkpt lat="44.639010975607604" lon="7.985844173644307"><ele>243.5</ele><time>2026-04-11T10:04:12.999Z</time></trkpt><trkpt lat="44.63901466819496" lon="7.985697899125701"><ele>241.25</ele><time>2026-04-11T10:04:14.999Z</time></trkpt><trkpt lat="44.63901325992012" lon="7.9855472327531185"><ele>239.0</ele><time>2026-04-11T10:04:16.999Z</time></trkpt><trkpt lat="44.63898798610701" lon="7.985401423290199"><ele>239.00000000000003</ele><time>2026-04-11T10:04:18.999Z</time></trkpt><trkpt lat="44.63895782479491" lon="7.985270228351983"><ele>239.0</ele><time>2026-04-11T10:04:20.999Z</time></trkpt><trkpt lat="44.638929191902264" lon="7.985152803033228"><ele>239.0</ele><time>2026-04-11T10:04:22.999Z</time></trkpt><trkpt lat="44.638898819588306" lon="7.985037565238277"><ele>239.0</ele><time>2026-04-11T10:04:24.999Z</time></trkpt><trkpt lat="44.6388711192294" lon="7.984916335357404"><ele>239.00000000000003</ele><time>2026-04-11T10:04:26.999Z</time></trkpt><trkpt lat="44.638859692128094" lon="7.984808249553698"><ele>239.0</ele><time>2026-04-11T10:04:28.999Z</time></trkpt><trkpt lat="44.638859377211645" lon="7.984712317451668"><ele>239.28571428571433</ele><time>2026-04-11T10:04:30.999Z</time></trkpt><trkpt lat="44.63886843112309" lon="7.984614613855734"><ele>239.57142857142858</ele><time>2026-04-11T10:04:32.999Z</time></trkpt><trkpt lat="44.63891358677159" lon="7.984542580909649"><ele>239.8571428571429</ele><time>2026-04-11T10:04:34.999Z</time></trkpt><trkpt lat="44.63898000380104" lon="7.984508762873069"><ele>240.14285714285717</ele><time>2026-04-11T10:04:36.999Z</time></trkpt><trkpt lat="44.639057411061906" lon="7.984488142668514"><ele>240.42857142857144</ele><time>2026-04-11T10:04:39.999Z</time></trkpt><trkpt lat="44.63912704498072" lon="7.984517512898091"><ele>240.71428571428572</ele><time>2026-04-11T10:04:42.999Z</time></trkpt><trkpt lat="44.639192870017176" lon="7.984583207467217"><ele>241.0</ele><time>2026-04-11T10:04:46.999Z</time></trkpt><trkpt lat="44.639266144102265" lon="7.984603367305129"><ele>241.0</ele><time>2026-04-11T10:04:50.999Z</time></trkpt><trkpt lat="44.639323352378355" lon="7.984648642234653"><ele>241.00000000000003</ele><time>2026-04-11T10:04:54.999Z</time></trkpt><trkpt lat="44.63938376509147" lon="7.984689362527139"><ele>241.0</ele><time>2026-04-11T10:04:58.999Z</time></trkpt><trkpt lat="44.63944244081682" lon="7.984724178416827"><ele>241.0</ele><time>2026-04-11T10:05:03Z</time></trkpt><trkpt lat="44.63950964291067" lon="7.9847548754474325"><ele>241.00000000000003</ele><time>2026-04-11T10:05:08Z</time></trkpt><trkpt lat="44.63958640072492" lon="7.984771233342585"><ele>241.0</ele><time>2026-04-11T10:05:13Z</time></trkpt><trkpt lat="44.63966058338432" lon="7.984787078739332"><ele>241.0</ele><time>2026-04-11T10:05:18Z</time></trkpt><trkpt lat="44.63974176841483" lon="7.984782158459596"><ele>243.8</ele><time>2026-04-11T10:05:23Z</time></trkpt><trkpt lat="44.63980766060717" lon="7.98476944606397"><ele>246.60000000000002</ele><time>2026-04-11T10:05:27Z</time></trkpt><trkpt lat="44.6398757158566" lon="7.984765334945329"><ele>249.4</ele><time>2026-04-11T10:05:30Z</time></trkpt><trkpt lat="44.639957962356476" lon="7.984744727157347"><ele>252.2</ele><time>2026-04-11T10:05:33Z</time></trkpt><trkpt lat="44.640120984994375" lon="7.9846758745697946"><ele>255.0</ele><time>2026-04-11T10:05:36Z</time></trkpt><trkpt lat="44.640210724140196" lon="7.984630795478802"><ele>253.4</ele><time>2026-04-11T10:05:38Z</time></trkpt><trkpt lat="44.64031652435331" lon="7.9846124834591565"><ele>251.8</ele><time>2026-04-11T10:05:40Z</time></trkpt><trkpt lat="44.640427638206" lon="7.984630101389048"><ele>250.2</ele><time>2026-04-11T10:05:42Z</time></trkpt><trkpt lat="44.64053796416768" lon="7.9846365827395624"><ele>248.6</ele><time>2026-04-11T10:05:44Z</time></trkpt><trkpt lat="44.64065217357527" lon="7.984655828076994"><ele>247.0</ele><time>2026-04-11T10:05:45.999Z</time></trkpt><trkpt lat="44.640749886906356" lon="7.984712685046303"><ele>247.0</ele><time>2026-04-11T10:05:47.999Z</time></trkpt><trkpt lat="44.6407847385729" lon="7.984850676007341"><ele>247.0</ele><time>2026-04-11T10:05:49.999Z</time></trkpt><trkpt lat="44.64079604213131" lon="7.984997012851336"><ele>247.0</ele><time>2026-04-11T10:05:51.999Z</time></trkpt><trkpt lat="44.640779424562176" lon="7.985135781048154"><ele>247.0</ele><time>2026-04-11T10:05:53.999Z</time></trkpt><trkpt lat="44.64075969162587" lon="7.985238628583397"><ele>247.0</ele><time>2026-04-11T10:05:54.999Z</time></trkpt><trkpt lat="44.64073903903925" lon="7.9853815849492085"><ele>248.39999999999998</ele><time>2026-04-11T10:05:56.999Z</time></trkpt><trkpt lat="44.64073639952922" lon="7.98554835660663"><ele>249.79999999999998</ele><time>2026-04-11T10:05:59.999Z</time></trkpt><trkpt lat="44.64072155271681" lon="7.985677615178405"><ele>251.2</ele><time>2026-04-11T10:06:01.999Z</time></trkpt><trkpt lat="44.64072868982946" lon="7.985808927519238"><ele>252.6</ele><time>2026-04-11T10:06:03.999Z</time></trkpt><trkpt lat="44.64074542682901" lon="7.985935687319216"><ele>254.0</ele><time>2026-04-11T10:06:05.999Z</time></trkpt><trkpt lat="44.64076948249373" lon="7.986056440777741"><ele>256.4</ele><time>2026-04-11T10:06:07.999Z</time></trkpt><trkpt lat="44.64080108042151" lon="7.986179935128664"><ele>258.79999999999995</ele><time>2026-04-11T10:06:09.999Z</time></trkpt><trkpt lat="44.64086958004685" lon="7.9862781184197384"><ele>261.20000000000005</ele><time>2026-04-11T10:06:11.999Z</time></trkpt><trkpt lat="44.640931030684854" lon="7.986378144849334"><ele>263.6</ele><time>2026-04-11T10:06:13.999Z</time></trkpt><trkpt lat="44.64100488571768" lon="7.986464417504317"><ele>266.0</ele><time>2026-04-11T10:06:15.999Z</time></trkpt><trkpt lat="44.64108509989604" lon="7.986539384592332"><ele>266.2</ele><time>2026-04-11T10:06:17.999Z</time></trkpt><trkpt lat="44.64117053917459" lon="7.986599931420834"><ele>266.40000000000003</ele><time>2026-04-11T10:06:19.999Z</time></trkpt><trkpt lat="44.641238047887185" lon="7.986667008431674"><ele>266.6</ele><time>2026-04-11T10:06:21.999Z</time></trkpt><trkpt lat="44.64132836213659" lon="7.986687224206564"><ele>266.8</ele><time>2026-04-11T10:06:23.999Z</time></trkpt><trkpt lat="44.641412173627806" lon="7.986704109341475"><ele>267.0</ele><time>2026-04-11T10:06:25.999Z</time></trkpt><trkpt lat="44.64153456372114" lon="7.986708631203532"><ele>267.0</ele><time>2026-04-11T10:06:27.999Z</time></trkpt><trkpt lat="44.64162004019425" lon="7.9867500690360576"><ele>267.0</ele><time>2026-04-11T10:06:29.999Z</time></trkpt><trkpt lat="44.64170845098952" lon="7.9867725243289245"><ele>267.0</ele><time>2026-04-11T10:06:31.999Z</time></trkpt><trkpt lat="44.64179285077405" lon="7.986788961152336"><ele>267.0</ele><time>2026-04-11T10:06:33.999Z</time></trkpt><trkpt lat="44.64187331848824" lon="7.986810631019611"><ele>267.0</ele><time>2026-04-11T10:06:35.999Z</time></trkpt><trkpt lat="44.6418490855499" lon="7.986937833087393"><ele>267.0</ele><time>2026-04-11T10:06:38.999Z</time></trkpt><trkpt lat="44.64182163395305" lon="7.987041775509027"><ele>267.0</ele><time>2026-04-11T10:06:40.999Z</time></trkpt><trkpt lat="44.641804681705615" lon="7.98714177664112"><ele>267.0</ele><time>2026-04-11T10:06:42.999Z</time></trkpt><trkpt lat="44.6417841956517" lon="7.987241690437176"><ele>267.0</ele><time>2026-04-11T10:06:44.999Z</time></trkpt><trkpt lat="44.641743737229504" lon="7.987370208074111"><ele>267.0</ele><time>2026-04-11T10:06:46.999Z</time></trkpt><trkpt lat="44.64172202348593" lon="7.9874590232220175"><ele>267.0</ele><time>2026-04-11T10:06:48.999Z</time></trkpt><trkpt lat="44.64169761812294" lon="7.987569616308277"><ele>267.0</ele><time>2026-04-11T10:06:50.999Z</time></trkpt><trkpt lat="44.64167536542822" lon="7.98766527444902"><ele>267.00000000000006</ele><time>2026-04-11T10:06:52.999Z</time></trkpt><trkpt lat="44.641651391193776" lon="7.987766565764675"><ele>267.0</ele><time>2026-04-11T10:06:54.999Z</time></trkpt><trkpt lat="44.64163083165404" lon="7.987862669974939"><ele>267.0</ele><time>2026-04-11T10:06:56.999Z</time></trkpt><trkpt lat="44.641609443622514" lon="7.987952288327621"><ele>267.0</ele><time>2026-04-11T10:06:58.999Z</time></trkpt><trkpt lat="44.64158891063948" lon="7.988043831059723"><ele>267.0</ele><time>2026-04-11T10:07:00.999Z</time></trkpt><trkpt lat="44.641565917188146" lon="7.988145010789968"><ele>267.00000000000006</ele><time>2026-04-11T10:07:03.999Z</time></trkpt><trkpt lat="44.64154647685356" lon="7.988237524028514"><ele>267.0</ele><time>2026-04-11T10:07:06Z</time></trkpt><trkpt lat="44.64152744491815" lon="7.988340011940154"><ele>266.5</ele><time>2026-04-11T10:07:08Z</time></trkpt><trkpt lat="44.6414980369373" lon="7.9884334539222"><ele>266.0</ele><time>2026-04-11T10:07:12Z</time></trkpt><trkpt lat="44.64147739743953" lon="7.988530126773733"><ele>265.5</ele><time>2026-04-11T10:07:15Z</time></trkpt><trkpt lat="44.64144697229627" lon="7.988647061259888"><ele>265.0</ele><time>2026-04-11T10:07:18Z</time></trkpt><trkpt lat="44.64142518213497" lon="7.988747520418387"><ele>264.5</ele><time>2026-04-11T10:07:21Z</time></trkpt><trkpt lat="44.64140104992551" lon="7.988839947940775"><ele>264.0</ele><time>2026-04-11T10:07:24Z</time></trkpt><trkpt lat="44.64137412131056" lon="7.98895865189142"><ele>264.0</ele><time>2026-04-11T10:07:27Z</time></trkpt><trkpt lat="44.64134701046582" lon="7.989060188910414"><ele>264.0</ele><time>2026-04-11T10:07:30Z</time></trkpt><trkpt lat="44.64131732176904" lon="7.989160569177566"><ele>264.0</ele><time>2026-04-11T10:07:33Z</time></trkpt><trkpt lat="44.64129478782096" lon="7.989270186171713"><ele>264.0</ele><time>2026-04-11T10:07:36Z</time></trkpt><trkpt lat="44.64126930191125" lon="7.989376918417407"><ele>264.0</ele><time>2026-04-11T10:07:39Z</time></trkpt><trkpt lat="44.641241977890076" lon="7.98947326904545"><ele>264.0</ele><time>2026-04-11T10:07:42Z</time></trkpt><trkpt lat="44.64119347094045" lon="7.989572906175766"><ele>266.3333333333333</ele><time>2026-04-11T10:07:45Z</time></trkpt><trkpt lat="44.64112184120474" lon="7.989651506936074"><ele>268.6666666666667</ele><time>2026-04-11T10:07:48Z</time></trkpt><trkpt lat="44.64104430180847" lon="7.989723762642694"><ele>271.0</ele><time>2026-04-11T10:07:51Z</time></trkpt><trkpt lat="44.6409829798288" lon="7.989775231308694"><ele>273.33333333333337</ele><time>2026-04-11T10:07:53Z</time></trkpt><trkpt lat="44.64092203614568" lon="7.989816957934977"><ele>275.6666666666667</ele><time>2026-04-11T10:07:55Z</time></trkpt><trkpt lat="44.640860456791025" lon="7.989862880656197"><ele>278.0</ele><time>2026-04-11T10:07:57Z</time></trkpt><trkpt lat="44.640807535940155" lon="7.989924546334916"><ele>278.0</ele><time>2026-04-11T10:08:01Z</time></trkpt><trkpt lat="44.64073359740206" lon="7.989968762671441"><ele>278.0</ele><time>2026-04-11T10:08:03Z</time></trkpt><trkpt lat="44.64056012660936" lon="7.990055126160676"><ele>278.0</ele><time>2026-04-11T10:08:05Z</time></trkpt><trkpt lat="44.640482900158354" lon="7.990111247846251"><ele>278.0</ele><time>2026-04-11T10:08:07Z</time></trkpt><trkpt lat="44.64039920864695" lon="7.990172008899487"><ele>278.0</ele><time>2026-04-11T10:08:09Z</time></trkpt><trkpt lat="44.64031884824783" lon="7.990225908552225"><ele>278.33333333333337</ele><time>2026-04-11T10:08:11Z</time></trkpt><trkpt lat="44.640237398020645" lon="7.990281798221253"><ele>278.6666666666667</ele><time>2026-04-11T10:08:13Z</time></trkpt><trkpt lat="44.64015757225773" lon="7.990338134126123"><ele>279.0</ele><time>2026-04-11T10:08:15Z</time></trkpt><trkpt lat="44.64007668055515" lon="7.9903963008751075"><ele>279.3333333333333</ele><time>2026-04-11T10:08:17Z</time></trkpt><trkpt lat="44.64000113858989" lon="7.990460920307903"><ele>279.66666666666663</ele><time>2026-04-11T10:08:18.999Z</time></trkpt><trkpt lat="44.63992871392136" lon="7.990530065981243"><ele>280.0</ele><time>2026-04-11T10:08:20.999Z</time></trkpt><trkpt lat="44.63985665746768" lon="7.990602899522998"><ele>280.0</ele><time>2026-04-11T10:08:22.999Z</time></trkpt><trkpt lat="44.639790762523496" lon="7.990714354415041"><ele>280.0</ele><time>2026-04-11T10:08:24.999Z</time></trkpt><trkpt lat="44.639724281210924" lon="7.990760006039247"><ele>280.0</ele><time>2026-04-11T10:08:26.999Z</time></trkpt><trkpt lat="44.63964570082583" lon="7.990744518886594"><ele>280.0</ele><time>2026-04-11T10:08:30.999Z</time></trkpt><trkpt lat="44.639590387961526" lon="7.990678303749663"><ele>280.0</ele><time>2026-04-11T10:08:33.999Z</time></trkpt><trkpt lat="44.63950257264422" lon="7.990639032504159"><ele>280.0</ele><time>2026-04-11T10:08:36.999Z</time></trkpt><trkpt lat="44.63943809430944" lon="7.990678474020236"><ele>280.7142857142857</ele><time>2026-04-11T10:08:38.999Z</time></trkpt><trkpt lat="44.639380119426384" lon="7.99073988953293"><ele>281.42857142857144</ele><time>2026-04-11T10:08:40.999Z</time></trkpt><trkpt lat="44.639321894438474" lon="7.990802279859212"><ele>282.1428571428571</ele><time>2026-04-11T10:08:42.999Z</time></trkpt><trkpt lat="44.639264048798466" lon="7.990868595017342"><ele>282.8571428571429</ele><time>2026-04-11T10:08:44.999Z</time></trkpt><trkpt lat="44.639213013215574" lon="7.990942144170976"><ele>283.57142857142856</ele><time>2026-04-11T10:08:46.999Z</time></trkpt><trkpt lat="44.63917147389415" lon="7.991023996926022"><ele>284.2857142857143</ele><time>2026-04-11T10:08:48.999Z</time></trkpt><trkpt lat="44.63913081284048" lon="7.991107318589594"><ele>285.0</ele><time>2026-04-11T10:08:50.999Z</time></trkpt><trkpt lat="44.63909033343441" lon="7.991190958972195"><ele>286.0</ele><time>2026-04-11T10:08:52.999Z</time></trkpt><trkpt lat="44.63905106011738" lon="7.991274692870304"><ele>287.0</ele><time>2026-04-11T10:08:54.999Z</time></trkpt><trkpt lat="44.63900753226445" lon="7.991362550093332"><ele>288.0</ele><time>2026-04-11T10:08:56.999Z</time></trkpt><trkpt lat="44.63896816238742" lon="7.991449342943397"><ele>289.0</ele><time>2026-04-11T10:08:58.999Z</time></trkpt><trkpt lat="44.63892988723412" lon="7.991534722000409"><ele>290.0</ele><time>2026-04-11T10:09:00.999Z</time></trkpt><trkpt lat="44.638889390885176" lon="7.991620566126246"><ele>291.0</ele><time>2026-04-11T10:09:02.999Z</time></trkpt><trkpt lat="44.63884694204601" lon="7.991706976716522"><ele>292.0</ele><time>2026-04-11T10:09:04.999Z</time></trkpt><trkpt lat="44.63880815583228" lon="7.991791107530469"><ele>292.0</ele><time>2026-04-11T10:09:06.999Z</time></trkpt><trkpt lat="44.638770181286304" lon="7.991871826020022"><ele>292.0</ele><time>2026-04-11T10:09:08.999Z</time></trkpt><trkpt lat="44.63873035689301" lon="7.99195039017644"><ele>292.0</ele><time>2026-04-11T10:09:10.999Z</time></trkpt><trkpt lat="44.63869717466165" lon="7.992027467760809"><ele>292.0</ele><time>2026-04-11T10:09:13Z</time></trkpt><trkpt lat="44.63864452139534" lon="7.992133875009611"><ele>292.0</ele><time>2026-04-11T10:09:16Z</time></trkpt><trkpt lat="44.63860999913941" lon="7.992212354134492"><ele>292.0</ele><time>2026-04-11T10:09:18Z</time></trkpt><trkpt lat="44.63857126010051" lon="7.9923019039386425"><ele>292.0</ele><time>2026-04-11T10:09:20Z</time></trkpt><trkpt lat="44.63854165820138" lon="7.992381909994592"><ele>292.16666666666663</ele><time>2026-04-11T10:09:22Z</time></trkpt><trkpt lat="44.638491489690736" lon="7.992477894754767"><ele>292.3333333333333</ele><time>2026-04-11T10:09:24Z</time></trkpt><trkpt lat="44.63841569355518" lon="7.992587443849492"><ele>292.5</ele><time>2026-04-11T10:09:26Z</time></trkpt><trkpt lat="44.63836919328271" lon="7.992648739116847"><ele>292.6666666666667</ele><time>2026-04-11T10:09:27Z</time></trkpt><trkpt lat="44.638322332524595" lon="7.9927086538645105"><ele>292.83333333333337</ele><time>2026-04-11T10:09:28Z</time></trkpt><trkpt lat="44.63827010789917" lon="7.9927759941228445"><ele>293.0</ele><time>2026-04-11T10:09:29Z</time></trkpt><trkpt lat="44.638206293539874" lon="7.992859258011306"><ele>292.4285714285714</ele><time>2026-04-11T10:09:30Z</time></trkpt><trkpt lat="44.63814833735128" lon="7.992929882928374"><ele>291.85714285714283</ele><time>2026-04-11T10:09:31Z</time></trkpt><trkpt lat="44.63807861439426" lon="7.992962566368582"><ele>291.2857142857143</ele><time>2026-04-11T10:09:32Z</time></trkpt><trkpt lat="44.63802768918979" lon="7.993029829615059"><ele>290.71428571428567</ele><time>2026-04-11T10:09:33Z</time></trkpt><trkpt lat="44.637982111251695" lon="7.993099863285191"><ele>290.1428571428571</ele><time>2026-04-11T10:09:34Z</time></trkpt><trkpt lat="44.63793930052141" lon="7.993178392720062"><ele>289.57142857142856</ele><time>2026-04-11T10:09:35Z</time></trkpt><trkpt lat="44.63789969084499" lon="7.993253398553074"><ele>289.0</ele><time>2026-04-11T10:09:36Z</time></trkpt><trkpt lat="44.63786192703825" lon="7.99332632595477"><ele>288.0</ele><time>2026-04-11T10:09:37Z</time></trkpt><trkpt lat="44.63783208022949" lon="7.993408583860353"><ele>287.0</ele><time>2026-04-11T10:09:38Z</time></trkpt><trkpt lat="44.637754765498606" lon="7.993532865013694"><ele>286.0</ele><time>2026-04-11T10:09:40Z</time></trkpt><trkpt lat="44.63766859134655" lon="7.993642183317383"><ele>285.0</ele><time>2026-04-11T10:09:42Z</time></trkpt><trkpt lat="44.637611879229006" lon="7.9937900486975595"><ele>284.0</ele><time>2026-04-11T10:09:44Z</time></trkpt><trkpt lat="44.63754874627007" lon="7.993918663068198"><ele>286.6666666666667</ele><time>2026-04-11T10:09:46Z</time></trkpt><trkpt lat="44.637491624391686" lon="7.994036684458916"><ele>289.33333333333337</ele><time>2026-04-11T10:09:48Z</time></trkpt><trkpt lat="44.63744233039569" lon="7.9941318749676125"><ele>292.0</ele><time>2026-04-11T10:09:50Z</time></trkpt><trkpt lat="44.63739094816909" lon="7.994197805443967"><ele>294.6666666666667</ele><time>2026-04-11T10:09:52Z</time></trkpt><trkpt lat="44.63733430838505" lon="7.994249875000705"><ele>297.3333333333333</ele><time>2026-04-11T10:09:55Z</time></trkpt><trkpt lat="44.63734370401784" lon="7.994351150943199"><ele>300.0</ele><time>2026-04-11T10:10:06Z</time></trkpt><trkpt lat="44.63730283683015" lon="7.994451777202901"><ele>300.3333333333333</ele><time>2026-04-11T10:10:11Z</time></trkpt><trkpt lat="44.637276042059774" lon="7.994534621319666"><ele>300.6666666666667</ele><time>2026-04-11T10:10:15Z</time></trkpt><trkpt lat="44.63724869685112" lon="7.994624664413818"><ele>301.0</ele><time>2026-04-11T10:10:19Z</time></trkpt><trkpt lat="44.63717878170084" lon="7.99469372145799"><ele>301.33333333333337</ele><time>2026-04-11T10:10:22.999Z</time></trkpt><trkpt lat="44.637092673006045" lon="7.994730354698503"><ele>301.6666666666667</ele><time>2026-04-11T10:10:26.999Z</time></trkpt><trkpt lat="44.637025600381385" lon="7.994807912328618"><ele>302.0</ele><time>2026-04-11T10:10:28.999Z</time></trkpt><trkpt lat="44.63695827165183" lon="7.994880310906222"><ele>302.6666666666667</ele><time>2026-04-11T10:10:29.999Z</time></trkpt><trkpt lat="44.63688118622556" lon="7.994935900629216"><ele>303.33333333333337</ele><time>2026-04-11T10:10:31.999Z</time></trkpt><trkpt lat="44.636790456270255" lon="7.994963326980895"><ele>304.0</ele><time>2026-04-11T10:10:33.999Z</time></trkpt><trkpt lat="44.63670119209633" lon="7.994992173839061"><ele>304.6666666666667</ele><time>2026-04-11T10:10:35.999Z</time></trkpt><trkpt lat="44.6366134935829" lon="7.995019963952561"><ele>305.3333333333333</ele><time>2026-04-11T10:10:37.999Z</time></trkpt><trkpt lat="44.636532412009274" lon="7.995055350371505"><ele>306.0</ele><time>2026-04-11T10:10:39.999Z</time></trkpt><trkpt lat="44.636456490044196" lon="7.995095175628764"><ele>306.1666666666667</ele><time>2026-04-11T10:10:41.999Z</time></trkpt><trkpt lat="44.63638330693478" lon="7.995135776583383"><ele>306.3333333333333</ele><time>2026-04-11T10:10:43.999Z</time></trkpt><trkpt lat="44.63631548731598" lon="7.995172465062404"><ele>306.5</ele><time>2026-04-11T10:10:45.999Z</time></trkpt><trkpt lat="44.63625105069736" lon="7.995208644739912"><ele>306.66666666666663</ele><time>2026-04-11T10:10:47.999Z</time></trkpt><trkpt lat="44.636171863755685" lon="7.9952666277996105"><ele>306.8333333333333</ele><time>2026-04-11T10:10:51.999Z</time></trkpt><trkpt lat="44.63609898788652" lon="7.995280865820367"><ele>307.0</ele><time>2026-04-11T10:10:54.999Z</time></trkpt><trkpt lat="44.636017062113154" lon="7.995262190841884"><ele>307.0</ele><time>2026-04-11T10:10:58.999Z</time></trkpt><trkpt lat="44.635960162221544" lon="7.995205573242849"><ele>307.0</ele><time>2026-04-11T10:11:01.999Z</time></trkpt><trkpt lat="44.63589006607928" lon="7.995153631562783"><ele>307.0</ele><time>2026-04-11T10:11:04.999Z</time></trkpt><trkpt lat="44.6358359678419" lon="7.995107531905487"><ele>307.0</ele><time>2026-04-11T10:11:06.999Z</time></trkpt><trkpt lat="44.635775804576696" lon="7.995065071217303"><ele>307.0</ele><time>2026-04-11T10:11:08.999Z</time></trkpt><trkpt lat="44.63570488776191" lon="7.995002498907796"><ele>307.0</ele><time>2026-04-11T10:11:10.999Z</time></trkpt><trkpt lat="44.63563103368988" lon="7.9949365714876395"><ele>307.8</ele><time>2026-04-11T10:11:12.999Z</time></trkpt><trkpt lat="44.635558026495254" lon="7.994869016013162"><ele>308.6</ele><time>2026-04-11T10:11:14.999Z</time></trkpt><trkpt lat="44.635490435203245" lon="7.994795457781202"><ele>309.40000000000003</ele><time>2026-04-11T10:11:16.999Z</time></trkpt><trkpt lat="44.63541909259605" lon="7.994689955767693"><ele>310.2</ele><time>2026-04-11T10:11:19Z</time></trkpt><trkpt lat="44.63536799386091" lon="7.994564125812898"><ele>311.0</ele><time>2026-04-11T10:11:21Z</time></trkpt><trkpt lat="44.635313281272346" lon="7.994444086358837"><ele>311.0</ele><time>2026-04-11T10:11:23Z</time></trkpt><trkpt lat="44.63524924342705" lon="7.994295034848997"><ele>311.0</ele><time>2026-04-11T10:11:26Z</time></trkpt><trkpt lat="44.6351827246715" lon="7.994203267375981"><ele>311.0</ele><time>2026-04-11T10:11:27Z</time></trkpt><trkpt lat="44.635116837583574" lon="7.994095410051454"><ele>311.0</ele><time>2026-04-11T10:11:29Z</time></trkpt><trkpt lat="44.635016134398164" lon="7.994022523169495"><ele>311.0</ele><time>2026-04-11T10:11:31Z</time></trkpt><trkpt lat="44.63493792514692" lon="7.994006298827319"><ele>311.0</ele><time>2026-04-11T10:11:32Z</time></trkpt><trkpt lat="44.63487069272216" lon="7.993977749654483"><ele>311.0</ele><time>2026-04-11T10:11:33Z</time></trkpt><trkpt lat="44.634802846883844" lon="7.993953524950742"><ele>311.0</ele><time>2026-04-11T10:11:34Z</time></trkpt><trkpt lat="44.634731965529504" lon="7.993928035967104"><ele>311.0</ele><time>2026-04-11T10:11:35Z</time></trkpt><trkpt lat="44.63466328725034" lon="7.993903339266525"><ele>311.0</ele><time>2026-04-11T10:11:36Z</time></trkpt><trkpt lat="44.63459816785518" lon="7.993856437986697"><ele>311.0</ele><time>2026-04-11T10:11:37Z</time></trkpt><trkpt lat="44.63452859931602" lon="7.993830757990598"><ele>311.0</ele><time>2026-04-11T10:11:38Z</time></trkpt><trkpt lat="44.634460097453776" lon="7.993801877584584"><ele>310.1666666666667</ele><time>2026-04-11T10:11:39Z</time></trkpt><trkpt lat="44.63439517573287" lon="7.993768340632987"><ele>309.33333333333337</ele><time>2026-04-11T10:11:40Z</time></trkpt><trkpt lat="44.63433643184889" lon="7.993720123999288"><ele>308.5</ele><time>2026-04-11T10:11:41Z</time></trkpt><trkpt lat="44.634276884691694" lon="7.9936797978463545"><ele>307.6666666666667</ele><time>2026-04-11T10:11:42Z</time></trkpt><trkpt lat="44.63422319293251" lon="7.993629038308317"><ele>306.8333333333333</ele><time>2026-04-11T10:11:43Z</time></trkpt><trkpt lat="44.63412821980107" lon="7.993531231697454"><ele>306.0</ele><time>2026-04-11T10:11:45Z</time></trkpt><trkpt lat="44.6340319085078" lon="7.993469287679964"><ele>306.0</ele><time>2026-04-11T10:11:47Z</time></trkpt><trkpt lat="44.63393604879588" lon="7.993378008115248"><ele>306.0</ele><time>2026-04-11T10:11:49Z</time></trkpt><trkpt lat="44.63384792794655" lon="7.9932830000884785"><ele>306.0</ele><time>2026-04-11T10:11:51Z</time></trkpt><trkpt lat="44.63377055958449" lon="7.993182933378372"><ele>306.0</ele><time>2026-04-11T10:11:53Z</time></trkpt><trkpt lat="44.63367720401817" lon="7.993116168844527"><ele>306.0</ele><time>2026-04-11T10:11:55Z</time></trkpt><trkpt lat="44.63358187111872" lon="7.993033160059294"><ele>306.40000000000003</ele><time>2026-04-11T10:11:57Z</time></trkpt><trkpt lat="44.63348098336798" lon="7.992966132027514"><ele>306.8</ele><time>2026-04-11T10:11:59Z</time></trkpt><trkpt lat="44.63339102274453" lon="7.992901878787381"><ele>307.20000000000005</ele><time>2026-04-11T10:12:01Z</time></trkpt><trkpt lat="44.633304063335224" lon="7.992822858041224"><ele>307.6</ele><time>2026-04-11T10:12:03Z</time></trkpt><trkpt lat="44.63320925064398" lon="7.992744188697277"><ele>308.0</ele><time>2026-04-11T10:12:05Z</time></trkpt><trkpt lat="44.63309864620029" lon="7.992755947123391"><ele>308.0</ele><time>2026-04-11T10:12:07Z</time></trkpt><trkpt lat="44.63298744829608" lon="7.9927522938351405"><ele>308.0</ele><time>2026-04-11T10:12:09Z</time></trkpt><trkpt lat="44.632881936599965" lon="7.992781898651503"><ele>308.0</ele><time>2026-04-11T10:12:11Z</time></trkpt><trkpt lat="44.632777103122905" lon="7.9927670856006765"><ele>308.0</ele><time>2026-04-11T10:12:12.999Z</time></trkpt><trkpt lat="44.63266337262483" lon="7.992757855195594"><ele>308.0</ele><time>2026-04-11T10:12:14.999Z</time></trkpt><trkpt lat="44.63259447978443" lon="7.992744971236966"><ele>307.0</ele><time>2026-04-11T10:12:15.999Z</time></trkpt><trkpt lat="44.632526009061095" lon="7.992728064967792"><ele>306.0</ele><time>2026-04-11T10:12:16.999Z</time></trkpt><trkpt lat="44.63245047767831" lon="7.99270661512038"><ele>305.0</ele><time>2026-04-11T10:12:17.999Z</time></trkpt><trkpt lat="44.632379975125886" lon="7.992685454812472"><ele>304.0</ele><time>2026-04-11T10:12:18.999Z</time></trkpt><trkpt lat="44.63231010522865" lon="7.992661784182223"><ele>303.0</ele><time>2026-04-11T10:12:19.999Z</time></trkpt><trkpt lat="44.63222935101789" lon="7.992632765661889"><ele>302.0</ele><time>2026-04-11T10:12:20.999Z</time></trkpt><trkpt lat="44.63214482062871" lon="7.992597069292081"><ele>302.0</ele><time>2026-04-11T10:12:21.999Z</time></trkpt><trkpt lat="44.6320598128509" lon="7.99256004291314"><ele>302.0</ele><time>2026-04-11T10:12:22.999Z</time></trkpt><trkpt lat="44.631974931747344" lon="7.992518671445472"><ele>302.0</ele><time>2026-04-11T10:12:23.999Z</time></trkpt><trkpt lat="44.631902828346135" lon="7.992458614307253"><ele>302.0</ele><time>2026-04-11T10:12:24.999Z</time></trkpt><trkpt lat="44.631805643840316" lon="7.992415295555276"><ele>302.0</ele><time>2026-04-11T10:12:25.999Z</time></trkpt><trkpt lat="44.63173222208014" lon="7.99241262469973"><ele>302.0</ele><time>2026-04-11T10:12:26.999Z</time></trkpt><trkpt lat="44.63167262279285" lon="7.992356046720049"><ele>301.6</ele><time>2026-04-11T10:12:28.999Z</time></trkpt><trkpt lat="44.6317397615816" lon="7.992432609070559"><ele>301.2</ele><time>2026-04-11T10:12:33.999Z</time></trkpt><trkpt lat="44.631823277011264" lon="7.992478880189851"><ele>300.8</ele><time>2026-04-11T10:12:35.999Z</time></trkpt><trkpt lat="44.63193418100815" lon="7.992469724051836"><ele>300.4</ele><time>2026-04-11T10:12:37.999Z</time></trkpt><trkpt lat="44.632048161485784" lon="7.99239510786606"><ele>300.0</ele><time>2026-04-11T10:12:39.999Z</time></trkpt><trkpt lat="44.63210102629104" lon="7.992332817629215"><ele>301.1666666666667</ele><time>2026-04-11T10:12:40.999Z</time></trkpt><trkpt lat="44.63214472022401" lon="7.99224805906286"><ele>302.3333333333333</ele><time>2026-04-11T10:12:41.999Z</time></trkpt><trkpt lat="44.632175169410445" lon="7.992147780797517"><ele>303.5</ele><time>2026-04-11T10:12:42.999Z</time></trkpt><trkpt lat="44.6321894831758" lon="7.9920361362412935"><ele>304.66666666666663</ele><time>2026-04-11T10:12:43.999Z</time></trkpt><trkpt lat="44.63218747119576" lon="7.991921341058989"><ele>305.8333333333333</ele><time>2026-04-11T10:12:44.999Z</time></trkpt><trkpt lat="44.63215200853721" lon="7.991804541674846"><ele>307.0</ele><time>2026-04-11T10:12:45.999Z</time></trkpt><trkpt lat="44.63210134751133" lon="7.991700524318528"><ele>305.8</ele><time>2026-04-11T10:12:46.999Z</time></trkpt><trkpt lat="44.63204551284394" lon="7.991603659904437"><ele>304.6</ele><time>2026-04-11T10:12:47.999Z</time></trkpt><trkpt lat="44.63199777051784" lon="7.991496068990943"><ele>303.40000000000003</ele><time>2026-04-11T10:12:48.999Z</time></trkpt><trkpt lat="44.6319317009029" lon="7.991407204191077"><ele>302.2</ele><time>2026-04-11T10:12:49.999Z</time></trkpt><trkpt lat="44.631853007738975" lon="7.991331198242698"><ele>301.0</ele><time>2026-04-11T10:12:50.999Z</time></trkpt><trkpt lat="44.63176356787913" lon="7.991279790935778"><ele>301.0</ele><time>2026-04-11T10:12:51.999Z</time></trkpt><trkpt lat="44.631681671190414" lon="7.991207455082882"><ele>301.0</ele><time>2026-04-11T10:12:52.999Z</time></trkpt><trkpt lat="44.631597440673005" lon="7.99112972913672"><ele>301.0</ele><time>2026-04-11T10:12:53.999Z</time></trkpt><trkpt lat="44.63151235221119" lon="7.991046074604934"><ele>301.0</ele><time>2026-04-11T10:12:54.999Z</time></trkpt><trkpt lat="44.631431439738556" lon="7.990950638839624"><ele>301.0</ele><time>2026-04-11T10:12:55.999Z</time></trkpt><trkpt lat="44.631359344149345" lon="7.990832210307468"><ele>298.25</ele><time>2026-04-11T10:12:56.999Z</time></trkpt><trkpt lat="44.63129343829712" lon="7.990702283975257"><ele>295.5</ele><time>2026-04-11T10:12:57.999Z</time></trkpt><trkpt lat="44.631244793910135" lon="7.9905580842472625"><ele>292.75</ele><time>2026-04-11T10:12:58.999Z</time></trkpt><trkpt lat="44.631214513576815" lon="7.9903990678448675"><ele>290.0</ele><time>2026-04-11T10:12:59.999Z</time></trkpt><trkpt lat="44.631186890359444" lon="7.990239268807407"><ele>290.0</ele><time>2026-04-11T10:13:00.999Z</time></trkpt><trkpt lat="44.631151500026235" lon="7.990082302070683"><ele>290.0</ele><time>2026-04-11T10:13:01.999Z</time></trkpt><trkpt lat="44.63110946281691" lon="7.989927794944488"><ele>290.0</ele><time>2026-04-11T10:13:02.999Z</time></trkpt><trkpt lat="44.63106856867353" lon="7.989772187616421"><ele>290.0</ele><time>2026-04-11T10:13:03.999Z</time></trkpt><trkpt lat="44.63102779693996" lon="7.989612867370941"><ele>290.25</ele><time>2026-04-11T10:13:04.999Z</time></trkpt><trkpt lat="44.630984853411995" lon="7.989455806144858"><ele>290.5</ele><time>2026-04-11T10:13:05.999Z</time></trkpt><trkpt lat="44.63094676958081" lon="7.989292585656154"><ele>290.75</ele><time>2026-04-11T10:13:06.999Z</time></trkpt><trkpt lat="44.630908596223186" lon="7.989130141190493"><ele>291.0</ele><time>2026-04-11T10:13:07.999Z</time></trkpt><trkpt lat="44.630867094213045" lon="7.988967198552422"><ele>289.25</ele><time>2026-04-11T10:13:08.999Z</time></trkpt><trkpt lat="44.63082559277956" lon="7.988802592882208"><ele>287.5</ele><time>2026-04-11T10:13:09.999Z</time></trkpt><trkpt lat="44.63078927314522" lon="7.988633710523564"><ele>285.75</ele><time>2026-04-11T10:13:10.999Z</time></trkpt><trkpt lat="44.630752742955096" lon="7.988463446123517"><ele>284.0</ele><time>2026-04-11T10:13:11.999Z</time></trkpt><trkpt lat="44.63071382970246" lon="7.988292317656149"><ele>282.0</ele><time>2026-04-11T10:13:12.999Z</time></trkpt><trkpt lat="44.63067835094793" lon="7.988116938161846"><ele>280.0</ele><time>2026-04-11T10:13:13.999Z</time></trkpt><trkpt lat="44.63065940114957" lon="7.987937747223228"><ele>278.0</ele><time>2026-04-11T10:13:14.999Z</time></trkpt><trkpt lat="44.630658034524814" lon="7.9877561879462435"><ele>276.0</ele><time>2026-04-11T10:13:15.999Z</time></trkpt><trkpt lat="44.63068345135635" lon="7.9875716815311275"><ele>275.5</ele><time>2026-04-11T10:13:16.999Z</time></trkpt><trkpt lat="44.63071979478024" lon="7.987390033896965"><ele>275.0</ele><time>2026-04-11T10:13:17.999Z</time></trkpt><trkpt lat="44.6307615818713" lon="7.987211131953111"><ele>274.5</ele><time>2026-04-11T10:13:18.999Z</time></trkpt><trkpt lat="44.63081323422081" lon="7.987053795839959"><ele>274.0</ele><time>2026-04-11T10:13:19.999Z</time></trkpt><trkpt lat="44.630906677386484" lon="7.98696096830274"><ele>274.0</ele><time>2026-04-11T10:13:20.999Z</time></trkpt><trkpt lat="44.63101255946334" lon="7.986887823380388"><ele>274.0</ele><time>2026-04-11T10:13:21.999Z</time></trkpt><trkpt lat="44.631134365288105" lon="7.98685391064072"><ele>274.0</ele><time>2026-04-11T10:13:22.999Z</time></trkpt><trkpt lat="44.631258970322705" lon="7.98686856356145"><ele>274.0</ele><time>2026-04-11T10:13:24Z</time></trkpt><trkpt lat="44.631361172778035" lon="7.986855738400043"><ele>270.4</ele><time>2026-04-11T10:13:25Z</time></trkpt><trkpt lat="44.63143556523667" lon="7.986801201369617"><ele>266.79999999999995</ele><time>2026-04-11T10:13:26Z</time></trkpt><trkpt lat="44.63146122047824" lon="7.986688747318257"><ele>263.20000000000005</ele><time>2026-04-11T10:13:27Z</time></trkpt><trkpt lat="44.63146768808833" lon="7.986561422952977"><ele>259.6</ele><time>2026-04-11T10:13:28Z</time></trkpt><trkpt lat="44.631354357666964" lon="7.986446004736529"><ele>256.0</ele><time>2026-04-11T10:13:29Z</time></trkpt><trkpt lat="44.6312146940847" lon="7.986487248213951"><ele>257.0</ele><time>2026-04-11T10:13:30Z</time></trkpt><trkpt lat="44.631112056714386" lon="7.986529961170135"><ele>258.0</ele><time>2026-04-11T10:13:31Z</time></trkpt><trkpt lat="44.63101515780078" lon="7.986555179447351"><ele>259.0</ele><time>2026-04-11T10:13:32Z</time></trkpt><trkpt lat="44.63091063690645" lon="7.98656512133982"><ele>260.0</ele><time>2026-04-11T10:13:33.001Z</time></trkpt><trkpt lat="44.63080278963783" lon="7.9865837794865255"><ele>261.0</ele><time>2026-04-11T10:13:34.001Z</time></trkpt><trkpt lat="44.630693762385405" lon="7.9866349932887815"><ele>264.25</ele><time>2026-04-11T10:13:35.001Z</time></trkpt><trkpt lat="44.63059666233484" lon="7.9867354445749035"><ele>267.5</ele><time>2026-04-11T10:13:36.001Z</time></trkpt><trkpt lat="44.6305072197242" lon="7.986852043622121"><ele>270.75</ele><time>2026-04-11T10:13:37.001Z</time></trkpt><trkpt lat="44.63043306580193" lon="7.986994567686059"><ele>274.0</ele><time>2026-04-11T10:13:38.001Z</time></trkpt><trkpt lat="44.630370544070864" lon="7.987144598831687"><ele>269.8</ele><time>2026-04-11T10:13:39.001Z</time></trkpt><trkpt lat="44.630307788814505" lon="7.987284141869567"><ele>265.59999999999997</ele><time>2026-04-11T10:13:40.001Z</time></trkpt><trkpt lat="44.63025214665635" lon="7.9874008732773865"><ele>261.4</ele><time>2026-04-11T10:13:41.001Z</time></trkpt><trkpt lat="44.63019247370522" lon="7.9874696613115805"><ele>257.2</ele><time>2026-04-11T10:13:42.001Z</time></trkpt><trkpt lat="44.63008853226302" lon="7.987501303547299"><ele>253.0</ele><time>2026-04-11T10:13:44.001Z</time></trkpt><trkpt lat="44.630045208690916" lon="7.987404422368534"><ele>253.0</ele><time>2026-04-11T10:13:45.001Z</time></trkpt><trkpt lat="44.630049699353776" lon="7.987276486100871"><ele>253.0</ele><time>2026-04-11T10:13:46.001Z</time></trkpt><trkpt lat="44.63011795132021" lon="7.987181058307585"><ele>253.0</ele><time>2026-04-11T10:13:47.001Z</time></trkpt><trkpt lat="44.63015657302839" lon="7.987060373295841"><ele>253.0</ele><time>2026-04-11T10:13:48.001Z</time></trkpt><trkpt lat="44.63021287535882" lon="7.986957428940362"><ele>253.0</ele><time>2026-04-11T10:13:49.001Z</time></trkpt><trkpt lat="44.63026464797335" lon="7.986841776648864"><ele>254.60000000000002</ele><time>2026-04-11T10:13:50.001Z</time></trkpt><trkpt lat="44.6303144286978" lon="7.986717772002422"><ele>256.20000000000005</ele><time>2026-04-11T10:13:51.001Z</time></trkpt><trkpt lat="44.63036448402241" lon="7.986592880167113"><ele>257.8</ele><time>2026-04-11T10:13:52.001Z</time></trkpt><trkpt lat="44.63041629299564" lon="7.986460806674952"><ele>259.40000000000003</ele><time>2026-04-11T10:13:53.001Z</time></trkpt><trkpt lat="44.630475478134805" lon="7.986335835561552"><ele>261.0</ele><time>2026-04-11T10:13:54.001Z</time></trkpt><trkpt lat="44.630542411448275" lon="7.986214326462802"><ele>261.0</ele><time>2026-04-11T10:13:55.001Z</time></trkpt><trkpt lat="44.63062505186762" lon="7.98611354114883"><ele>261.0</ele><time>2026-04-11T10:13:56.001Z</time></trkpt><trkpt lat="44.63072174328347" lon="7.986032071348175"><ele>261.0</ele><time>2026-04-11T10:13:57.001Z</time></trkpt><trkpt lat="44.6308268766384" lon="7.985974046111235"><ele>261.0</ele><time>2026-04-11T10:13:58.001Z</time></trkpt><trkpt lat="44.63093681386257" lon="7.985932169910484"><ele>261.0</ele><time>2026-04-11T10:13:59.001Z</time></trkpt><trkpt lat="44.63105130067016" lon="7.985892682798479"><ele>255.25</ele><time>2026-04-11T10:14:00.001Z</time></trkpt><trkpt lat="44.63116312706942" lon="7.985842525195204"><ele>249.5</ele><time>2026-04-11T10:14:01.001Z</time></trkpt><trkpt lat="44.63127678897979" lon="7.9857954822040815"><ele>243.75</ele><time>2026-04-11T10:14:02.001Z</time></trkpt><trkpt lat="44.63139384563855" lon="7.985743555407092"><ele>238.0</ele><time>2026-04-11T10:14:03Z</time></trkpt><trkpt lat="44.63151086306005" lon="7.985688711572281"><ele>238.0</ele><time>2026-04-11T10:14:04Z</time></trkpt><trkpt lat="44.63162795260608" lon="7.985640238834816"><ele>238.0</ele><time>2026-04-11T10:14:05Z</time></trkpt><trkpt lat="44.63175290747621" lon="7.985615487151163"><ele>238.0</ele><time>2026-04-11T10:14:06Z</time></trkpt><trkpt lat="44.63188093512247" lon="7.9856241135292745"><ele>238.0</ele><time>2026-04-11T10:14:07Z</time></trkpt><trkpt lat="44.63200474451512" lon="7.985669965294817"><ele>236.25</ele><time>2026-04-11T10:14:08Z</time></trkpt><trkpt lat="44.63212053542022" lon="7.9857576437452975"><ele>234.5</ele><time>2026-04-11T10:14:09Z</time></trkpt><trkpt lat="44.63223032235724" lon="7.9858618574108755"><ele>232.75</ele><time>2026-04-11T10:14:10Z</time></trkpt><trkpt lat="44.63233491336651" lon="7.985965900495278"><ele>231.0</ele><time>2026-04-11T10:14:11Z</time></trkpt><trkpt lat="44.63243585505499" lon="7.9860747960400955"><ele>231.0</ele><time>2026-04-11T10:14:12Z</time></trkpt><trkpt lat="44.63253286715377" lon="7.986174780766411"><ele>231.0</ele><time>2026-04-11T10:14:13Z</time></trkpt><trkpt lat="44.63263727975251" lon="7.986242101440107"><ele>231.0</ele><time>2026-04-11T10:14:14Z</time></trkpt><trkpt lat="44.63275426679168" lon="7.986233670151937"><ele>231.0</ele><time>2026-04-11T10:14:15Z</time></trkpt><trkpt lat="44.632863518694656" lon="7.986138847935233"><ele>229.75</ele><time>2026-04-11T10:14:16Z</time></trkpt><trkpt lat="44.632942963930724" lon="7.985990779354411"><ele>228.5</ele><time>2026-04-11T10:14:17Z</time></trkpt><trkpt lat="44.632998799583916" lon="7.98583101176897"><ele>227.25</ele><time>2026-04-11T10:14:18Z</time></trkpt><trkpt lat="44.63304958804217" lon="7.98567341555102"><ele>226.0</ele><time>2026-04-11T10:14:19Z</time></trkpt><trkpt lat="44.633110356399186" lon="7.985525808091785"><ele>225.20000000000002</ele><time>2026-04-11T10:14:20Z</time></trkpt><trkpt lat="44.633172881150436" lon="7.985379483600057"><ele>224.40000000000003</ele><time>2026-04-11T10:14:21Z</time></trkpt><trkpt lat="44.63322907413758" lon="7.985240835306974"><ele>223.6</ele><time>2026-04-11T10:14:22Z</time></trkpt><trkpt lat="44.63328006916208" lon="7.985137628795841"><ele>222.8</ele><time>2026-04-11T10:14:23Z</time></trkpt><trkpt lat="44.63334444120567" lon="7.985035645018474"><ele>222.0</ele><time>2026-04-11T10:14:25Z</time></trkpt><trkpt lat="44.63323095847513" lon="7.984868835256364"><ele>221.28571428571428</ele><time>2026-04-11T10:14:27Z</time></trkpt><trkpt lat="44.63316043674753" lon="7.984866658141917"><ele>220.57142857142858</ele><time>2026-04-11T10:14:28Z</time></trkpt><trkpt lat="44.633092842399485" lon="7.984878879596012"><ele>219.85714285714286</ele><time>2026-04-11T10:14:29Z</time></trkpt><trkpt lat="44.633030014407005" lon="7.984866324075186"><ele>219.14285714285714</ele><time>2026-04-11T10:14:30Z</time></trkpt><trkpt lat="44.632960885314375" lon="7.984858698560416"><ele>218.42857142857144</ele><time>2026-04-11T10:14:31Z</time></trkpt><trkpt lat="44.63289174116883" lon="7.984849500063429"><ele>217.71428571428572</ele><time>2026-04-11T10:14:32Z</time></trkpt><trkpt lat="44.63282271310757" lon="7.984837233730176"><ele>217.0</ele><time>2026-04-11T10:14:33Z</time></trkpt><trkpt lat="44.63275251748076" lon="7.984825949910058"><ele>216.85714285714286</ele><time>2026-04-11T10:14:34Z</time></trkpt><trkpt lat="44.632679759666665" lon="7.984812194161746"><ele>216.71428571428572</ele><time>2026-04-11T10:14:35Z</time></trkpt><trkpt lat="44.63260236343925" lon="7.984815629538454"><ele>216.57142857142856</ele><time>2026-04-11T10:14:36Z</time></trkpt><trkpt lat="44.6325309060536" lon="7.984797807866774"><ele>216.42857142857144</ele><time>2026-04-11T10:14:37Z</time></trkpt><trkpt lat="44.632463182926585" lon="7.984799340579114"><ele>216.28571428571428</ele><time>2026-04-11T10:14:38Z</time></trkpt><trkpt lat="44.63239518840806" lon="7.984817711789819"><ele>216.14285714285714</ele><time>2026-04-11T10:14:39Z</time></trkpt><trkpt lat="44.632324343561606" lon="7.984819116206522"><ele>216.0</ele><time>2026-04-11T10:14:40Z</time></trkpt><trkpt lat="44.6322553062545" lon="7.984827168743075"><ele>216.0</ele><time>2026-04-11T10:14:41Z</time></trkpt><trkpt lat="44.63218600579847" lon="7.984831427050765"><ele>216.0</ele><time>2026-04-11T10:14:42Z</time></trkpt><trkpt lat="44.63211727598028" lon="7.984838882187403"><ele>216.0</ele><time>2026-04-11T10:14:43Z</time></trkpt><trkpt lat="44.63204789757163" lon="7.984824152773155"><ele>216.0</ele><time>2026-04-11T10:14:44Z</time></trkpt><trkpt lat="44.63198238647496" lon="7.984843946570408"><ele>216.0</ele><time>2026-04-11T10:14:45Z</time></trkpt><trkpt lat="44.631915250459606" lon="7.984844559540958"><ele>216.0</ele><time>2026-04-11T10:14:46Z</time></trkpt><trkpt lat="44.631849317036384" lon="7.984851615818488"><ele>216.0</ele><time>2026-04-11T10:14:47Z</time></trkpt><trkpt lat="44.631784478659306" lon="7.984866264628242"><ele>216.57142857142856</ele><time>2026-04-11T10:14:48Z</time></trkpt><trkpt lat="44.63171868631247" lon="7.984851886148145"><ele>217.14285714285714</ele><time>2026-04-11T10:14:49Z</time></trkpt><trkpt lat="44.63165554454054" lon="7.984873713818144"><ele>217.71428571428572</ele><time>2026-04-11T10:14:50Z</time></trkpt><trkpt lat="44.63158972266929" lon="7.984869809178965"><ele>218.28571428571428</ele><time>2026-04-11T10:14:51Z</time></trkpt><trkpt lat="44.631526026346044" lon="7.984876434530081"><ele>218.85714285714286</ele><time>2026-04-11T10:14:52Z</time></trkpt><trkpt lat="44.63146227620979" lon="7.984887435267301"><ele>219.42857142857142</ele><time>2026-04-11T10:14:53Z</time></trkpt><trkpt lat="44.631397920299484" lon="7.984894270839569"><ele>220.0</ele><time>2026-04-11T10:14:54Z</time></trkpt><trkpt lat="44.63133334298194" lon="7.984897437777223"><ele>219.99999999999997</ele><time>2026-04-11T10:14:55Z</time></trkpt><trkpt lat="44.631211438277866" lon="7.984903072293692"><ele>220.0</ele><time>2026-04-11T10:14:57Z</time></trkpt><trkpt lat="44.63114177138332" lon="7.984907172910957"><ele>220.0</ele><time>2026-04-11T10:14:58Z</time></trkpt><trkpt lat="44.6310678653323" lon="7.984917843041719"><ele>220.0</ele><time>2026-04-11T10:14:59Z</time></trkpt><trkpt lat="44.631000430975654" lon="7.984926976807208"><ele>219.99999999999997</ele><time>2026-04-11T10:15:00Z</time></trkpt><trkpt lat="44.630929610257766" lon="7.984932348145897"><ele>220.0</ele><time>2026-04-11T10:15:01Z</time></trkpt><trkpt lat="44.6308576177713" lon="7.984936663355634"><ele>219.85714285714283</ele><time>2026-04-11T10:15:02Z</time></trkpt><trkpt lat="44.63078622805262" lon="7.984939933303187"><ele>219.71428571428572</ele><time>2026-04-11T10:15:03Z</time></trkpt><trkpt lat="44.63071374457912" lon="7.984943068003681"><ele>219.57142857142856</ele><time>2026-04-11T10:15:04Z</time></trkpt><trkpt lat="44.630638518781616" lon="7.9849438669686625"><ele>219.42857142857142</ele><time>2026-04-11T10:15:05Z</time></trkpt><trkpt lat="44.630562896365575" lon="7.984940315248578"><ele>219.28571428571428</ele><time>2026-04-11T10:15:06Z</time></trkpt><trkpt lat="44.63048901608369" lon="7.984932042830489"><ele>219.14285714285714</ele><time>2026-04-11T10:15:07Z</time></trkpt><trkpt lat="44.63041549264503" lon="7.984911157616624"><ele>219.0</ele><time>2026-04-11T10:15:08Z</time></trkpt><trkpt lat="44.630341960286955" lon="7.984885499026263"><ele>218.83333333333334</ele><time>2026-04-11T10:15:09Z</time></trkpt><trkpt lat="44.63027040902241" lon="7.984858510732592"><ele>218.66666666666669</ele><time>2026-04-11T10:15:10Z</time></trkpt><trkpt lat="44.630203614663635" lon="7.984807099574836"><ele>218.5</ele><time>2026-04-11T10:15:11Z</time></trkpt><trkpt lat="44.63013129526765" lon="7.984779640136401"><ele>218.33333333333334</ele><time>2026-04-11T10:15:12Z</time></trkpt><trkpt lat="44.630060112739734" lon="7.984753931929592"><ele>218.16666666666669</ele><time>2026-04-11T10:15:13Z</time></trkpt><trkpt lat="44.629986541046605" lon="7.9847294780986156"><ele>218.0</ele><time>2026-04-11T10:15:14Z</time></trkpt><trkpt lat="44.62991248474367" lon="7.984707840393318"><ele>218.00000000000003</ele><time>2026-04-11T10:15:15Z</time></trkpt><trkpt lat="44.629838932104676" lon="7.984686520063819"><ele>218.0</ele><time>2026-04-11T10:15:16Z</time></trkpt><trkpt lat="44.62976358917222" lon="7.984671230584133"><ele>218.0</ele><time>2026-04-11T10:15:17Z</time></trkpt><trkpt lat="44.62968768687922" lon="7.984662234517288"><ele>218.0</ele><time>2026-04-11T10:15:18Z</time></trkpt><trkpt lat="44.629609699201545" lon="7.9846670225742296"><ele>218.00000000000003</ele><time>2026-04-11T10:15:19Z</time></trkpt><trkpt lat="44.62953501432403" lon="7.984674001934079"><ele>218.0</ele><time>2026-04-11T10:15:20Z</time></trkpt><trkpt lat="44.62946273875702" lon="7.984681927405002"><ele>218.28571428571428</ele><time>2026-04-11T10:15:21Z</time></trkpt><trkpt lat="44.629389372068694" lon="7.984689993584773"><ele>218.57142857142858</ele><time>2026-04-11T10:15:22Z</time></trkpt><trkpt lat="44.62931491272619" lon="7.98469526829785"><ele>218.85714285714283</ele><time>2026-04-11T10:15:23Z</time></trkpt><trkpt lat="44.629243447347676" lon="7.984700330918878"><ele>219.14285714285714</ele><time>2026-04-11T10:15:24Z</time></trkpt><trkpt lat="44.62917248259721" lon="7.9847053580769485"><ele>219.42857142857142</ele><time>2026-04-11T10:15:25Z</time></trkpt><trkpt lat="44.62909934702921" lon="7.984710539013416"><ele>219.7142857142857</ele><time>2026-04-11T10:15:26Z</time></trkpt><trkpt lat="44.62902435592064" lon="7.984713644338188"><ele>220.0</ele><time>2026-04-11T10:15:27Z</time></trkpt><trkpt lat="44.62895401522437" lon="7.984715157327504"><ele>219.99999999999997</ele><time>2026-04-11T10:15:28Z</time></trkpt><trkpt lat="44.62888306595935" lon="7.984733490504267"><ele>220.0</ele><time>2026-04-11T10:15:29.001Z</time></trkpt><trkpt lat="44.62881314512231" lon="7.984729381158026"><ele>220.0</ele><time>2026-04-11T10:15:30.001Z</time></trkpt><trkpt lat="44.628741349900174" lon="7.984731667761409"><ele>220.0</ele><time>2026-04-11T10:15:31.001Z</time></trkpt><trkpt lat="44.62867043146869" lon="7.9847344592900305"><ele>220.0</ele><time>2026-04-11T10:15:32.001Z</time></trkpt><trkpt lat="44.62859899275139" lon="7.98471927386486"><ele>219.99999999999997</ele><time>2026-04-11T10:15:33.001Z</time></trkpt><trkpt lat="44.628528549055225" lon="7.984735129514408"><ele>220.0</ele><time>2026-04-11T10:15:34.001Z</time></trkpt><trkpt lat="44.62845855243972" lon="7.984756678738599"><ele>219.85714285714283</ele><time>2026-04-11T10:15:35.001Z</time></trkpt><trkpt lat="44.62839462256182" lon="7.9847985072105585"><ele>219.71428571428572</ele><time>2026-04-11T10:15:36.001Z</time></trkpt><trkpt lat="44.628326612539986" lon="7.984817008950982"><ele>219.57142857142856</ele><time>2026-04-11T10:15:37.001Z</time></trkpt><trkpt lat="44.628262352371095" lon="7.984836850383312"><ele>219.42857142857142</ele><time>2026-04-11T10:15:38.001Z</time></trkpt><trkpt lat="44.62819597134112" lon="7.9848608060367114"><ele>219.28571428571428</ele><time>2026-04-11T10:15:39.001Z</time></trkpt><trkpt lat="44.6281330332819" lon="7.984881087339209"><ele>219.14285714285714</ele><time>2026-04-11T10:15:40.001Z</time></trkpt><trkpt lat="44.628069081277324" lon="7.984894779287987"><ele>219.0</ele><time>2026-04-11T10:15:41.001Z</time></trkpt><trkpt lat="44.62800340562279" lon="7.984908026528604"><ele>219.0</ele><time>2026-04-11T10:15:42.001Z</time></trkpt><trkpt lat="44.62793732270169" lon="7.984920508317566"><ele>219.0</ele><time>2026-04-11T10:15:43.001Z</time></trkpt><trkpt lat="44.627871179119815" lon="7.984935257056869"><ele>219.0</ele><time>2026-04-11T10:15:44Z</time></trkpt><trkpt lat="44.62780458505258" lon="7.984953949570166"><ele>219.0</ele><time>2026-04-11T10:15:45Z</time></trkpt><trkpt lat="44.62773654627133" lon="7.984970573027071"><ele>219.0</ele><time>2026-04-11T10:15:46Z</time></trkpt><trkpt lat="44.627667623722594" lon="7.984982651857212"><ele>219.0</ele><time>2026-04-11T10:15:47Z</time></trkpt><trkpt lat="44.62759901973126" lon="7.984999090303067"><ele>219.0</ele><time>2026-04-11T10:15:48Z</time></trkpt><trkpt lat="44.6275295541695" lon="7.985014289598544"><ele>220.0</ele><time>2026-04-11T10:15:49Z</time></trkpt><trkpt lat="44.627460570766964" lon="7.9850306803791815"><ele>221.0</ele><time>2026-04-11T10:15:50Z</time></trkpt><trkpt lat="44.627392603285166" lon="7.985041848703075"><ele>222.0</ele><time>2026-04-11T10:15:51Z</time></trkpt><trkpt lat="44.62732367786012" lon="7.985056569638193"><ele>223.0</ele><time>2026-04-11T10:15:52Z</time></trkpt><trkpt lat="44.62725667537251" lon="7.985076843543326"><ele>224.0</ele><time>2026-04-11T10:15:53Z</time></trkpt><trkpt lat="44.62718769227346" lon="7.985093823049279"><ele>225.0</ele><time>2026-04-11T10:15:54Z</time></trkpt><trkpt lat="44.62711971958655" lon="7.985118822571026"><ele>226.0</ele><time>2026-04-11T10:15:55Z</time></trkpt><trkpt lat="44.62705029609821" lon="7.98514007125096"><ele>226.0</ele><time>2026-04-11T10:15:56Z</time></trkpt><trkpt lat="44.626982716369334" lon="7.985159805984462"><ele>226.0</ele><time>2026-04-11T10:15:57Z</time></trkpt><trkpt lat="44.62691557395958" lon="7.9851665911851475"><ele>226.0</ele><time>2026-04-11T10:15:58Z</time></trkpt><trkpt lat="44.62684721714255" lon="7.9851840093085045"><ele>226.0</ele><time>2026-04-11T10:15:59Z</time></trkpt><trkpt lat="44.626780863883134" lon="7.9852014359412715"><ele>226.0</ele><time>2026-04-11T10:16:00Z</time></trkpt><trkpt lat="44.626714103621936" lon="7.985225741594505"><ele>226.0</ele><time>2026-04-11T10:16:01Z</time></trkpt><trkpt lat="44.62664827919549" lon="7.985242269882727"><ele>226.0</ele><time>2026-04-11T10:16:02Z</time></trkpt><trkpt lat="44.626581603910395" lon="7.985261871549982"><ele>225.42857142857144</ele><time>2026-04-11T10:16:03Z</time></trkpt><trkpt lat="44.626515658864385" lon="7.985281679688467"><ele>224.85714285714283</ele><time>2026-04-11T10:16:04Z</time></trkpt><trkpt lat="44.62644825025923" lon="7.985298702707296"><ele>224.28571428571428</ele><time>2026-04-11T10:16:05Z</time></trkpt><trkpt lat="44.6263820210436" lon="7.985317174479589"><ele>223.71428571428572</ele><time>2026-04-11T10:16:06Z</time></trkpt><trkpt lat="44.62631611964627" lon="7.98533801408674"><ele>223.14285714285717</ele><time>2026-04-11T10:16:07Z</time></trkpt><trkpt lat="44.6262485191736" lon="7.985358372653118"><ele>222.57142857142856</ele><time>2026-04-11T10:16:08Z</time></trkpt><trkpt lat="44.62618537011732" lon="7.9853905346868155"><ele>222.0</ele><time>2026-04-11T10:16:09Z</time></trkpt><trkpt lat="44.626123864629186" lon="7.985433438561435"><ele>221.7142857142857</ele><time>2026-04-11T10:16:10Z</time></trkpt><trkpt lat="44.626065032454584" lon="7.985477726957793"><ele>221.42857142857144</ele><time>2026-04-11T10:16:11Z</time></trkpt><trkpt lat="44.62600213866708" lon="7.98551632434798"><ele>221.14285714285714</ele><time>2026-04-11T10:16:12Z</time></trkpt><trkpt lat="44.62594623765849" lon="7.985563221951253"><ele>220.85714285714283</ele><time>2026-04-11T10:16:13Z</time></trkpt><trkpt lat="44.62589388160197" lon="7.985618213006389"><ele>220.57142857142856</ele><time>2026-04-11T10:16:14Z</time></trkpt><trkpt lat="44.62584156761384" lon="7.98567698039144"><ele>220.28571428571428</ele><time>2026-04-11T10:16:15Z</time></trkpt><trkpt lat="44.62578595816923" lon="7.985726509455974"><ele>220.0</ele><time>2026-04-11T10:16:16Z</time></trkpt><trkpt lat="44.62573032272452" lon="7.985775133238018"><ele>219.99999999999997</ele><time>2026-04-11T10:16:17Z</time></trkpt><trkpt lat="44.62567394075162" lon="7.98582594476569"><ele>220.0</ele><time>2026-04-11T10:16:18Z</time></trkpt><trkpt lat="44.625616943410684" lon="7.98587199193868"><ele>220.0</ele><time>2026-04-11T10:16:19Z</time></trkpt><trkpt lat="44.625564670942346" lon="7.9859274583783275"><ele>220.0</ele><time>2026-04-11T10:16:20Z</time></trkpt><trkpt lat="44.6255116347739" lon="7.985976511126415"><ele>219.99999999999997</ele><time>2026-04-11T10:16:21Z</time></trkpt><trkpt lat="44.62540286258717" lon="7.98605999282572"><ele>220.0</ele><time>2026-04-11T10:16:23Z</time></trkpt><trkpt lat="44.62528961230204" lon="7.986131741941562"><ele>220.42857142857142</ele><time>2026-04-11T10:16:25Z</time></trkpt><trkpt lat="44.62522857091335" lon="7.986155139676394"><ele>220.85714285714286</ele><time>2026-04-11T10:16:26Z</time></trkpt><trkpt lat="44.62516008266668" lon="7.986166008148077"><ele>221.28571428571428</ele><time>2026-04-11T10:16:27Z</time></trkpt><trkpt lat="44.62508856694564" lon="7.986172843435817"><ele>221.71428571428572</ele><time>2026-04-11T10:16:28Z</time></trkpt><trkpt lat="44.62501828724159" lon="7.98618584202133"><ele>222.14285714285714</ele><time>2026-04-11T10:16:29Z</time></trkpt><trkpt lat="44.62494784170319" lon="7.986201860754475"><ele>222.57142857142856</ele><time>2026-04-11T10:16:30Z</time></trkpt><trkpt lat="44.6248747589214" lon="7.98619315844812"><ele>223.0</ele><time>2026-04-11T10:16:31Z</time></trkpt><trkpt lat="44.62480125397485" lon="7.986223654768085"><ele>223.0</ele><time>2026-04-11T10:16:32Z</time></trkpt><trkpt lat="44.62472897087706" lon="7.986222295210328"><ele>223.0</ele><time>2026-04-11T10:16:33Z</time></trkpt><trkpt lat="44.624653252176714" lon="7.986227785146769"><ele>223.0</ele><time>2026-04-11T10:16:34Z</time></trkpt><trkpt lat="44.62458194052652" lon="7.986225655016771"><ele>223.0</ele><time>2026-04-11T10:16:35Z</time></trkpt><trkpt lat="44.624511304833696" lon="7.98621690915509"><ele>223.0</ele><time>2026-04-11T10:16:36Z</time></trkpt><trkpt lat="44.62444095789849" lon="7.986197744052299"><ele>223.0</ele><time>2026-04-11T10:16:37Z</time></trkpt><trkpt lat="44.624368900947395" lon="7.986176397650744"><ele>223.0</ele><time>2026-04-11T10:16:38Z</time></trkpt><trkpt lat="44.62429950378544" lon="7.986149978017851"><ele>223.14285714285714</ele><time>2026-04-11T10:16:39Z</time></trkpt><trkpt lat="44.62423724417412" lon="7.986097681111487"><ele>223.28571428571428</ele><time>2026-04-11T10:16:40Z</time></trkpt><trkpt lat="44.62417242022057" lon="7.9860604553055135"><ele>223.42857142857144</ele><time>2026-04-11T10:16:41Z</time></trkpt><trkpt lat="44.624105188439984" lon="7.986019398509517"><ele>223.57142857142856</ele><time>2026-04-11T10:16:42Z</time></trkpt><trkpt lat="44.62403953130453" lon="7.985979303271644"><ele>223.71428571428572</ele><time>2026-04-11T10:16:43Z</time></trkpt><trkpt lat="44.62398804458319" lon="7.985907992989975"><ele>223.85714285714286</ele><time>2026-04-11T10:16:44Z</time></trkpt><trkpt lat="44.62393000972952" lon="7.985844316179485"><ele>224.0</ele><time>2026-04-11T10:16:45Z</time></trkpt><trkpt lat="44.62387252747104" lon="7.985779881576252"><ele>223.57142857142858</ele><time>2026-04-11T10:16:46Z</time></trkpt><trkpt lat="44.623817632939996" lon="7.985712917823926"><ele>223.14285714285714</ele><time>2026-04-11T10:16:47Z</time></trkpt><trkpt lat="44.62376305380904" lon="7.985643148634748"><ele>222.71428571428572</ele><time>2026-04-11T10:16:48Z</time></trkpt><trkpt lat="44.62370829955882" lon="7.9855744361054715"><ele>222.28571428571428</ele><time>2026-04-11T10:16:49Z</time></trkpt><trkpt lat="44.62364440168072" lon="7.985519391749784"><ele>221.85714285714286</ele><time>2026-04-11T10:16:50Z</time></trkpt><trkpt lat="44.623596858667256" lon="7.985437432784441"><ele>221.42857142857144</ele><time>2026-04-11T10:16:51Z</time></trkpt><trkpt lat="44.623567405208874" lon="7.985342794369489"><ele>221.0</ele><time>2026-04-11T10:16:52Z</time></trkpt><trkpt lat="44.62354744719867" lon="7.98524324047064"><ele>221.00000000000003</ele><time>2026-04-11T10:16:53Z</time></trkpt><trkpt lat="44.62353190533942" lon="7.985146077193086"><ele>221.0</ele><time>2026-04-11T10:16:54Z</time></trkpt><trkpt lat="44.62351579642532" lon="7.985047864282358"><ele>221.0</ele><time>2026-04-11T10:16:55Z</time></trkpt><trkpt lat="44.623499089080234" lon="7.984953887247472"><ele>221.0</ele><time>2026-04-11T10:16:56Z</time></trkpt><trkpt lat="44.62348031202719" lon="7.984862375665535"><ele>221.0</ele><time>2026-04-11T10:16:57Z</time></trkpt><trkpt lat="44.62346141236336" lon="7.984771485317093"><ele>221.00000000000003</ele><time>2026-04-11T10:16:58Z</time></trkpt><trkpt lat="44.62343631168467" lon="7.9846821901830785"><ele>221.0</ele><time>2026-04-11T10:16:59Z</time></trkpt><trkpt lat="44.62340727299222" lon="7.984598496303647"><ele>221.14285714285717</ele><time>2026-04-11T10:17:00Z</time></trkpt><trkpt lat="44.623371885510764" lon="7.984516612824345"><ele>221.28571428571428</ele><time>2026-04-11T10:17:01Z</time></trkpt><trkpt lat="44.62334027512217" lon="7.984434568380149"><ele>221.42857142857144</ele><time>2026-04-11T10:17:02Z</time></trkpt><trkpt lat="44.6232744707557" lon="7.984394092983826"><ele>221.57142857142858</ele><time>2026-04-11T10:17:03Z</time></trkpt><trkpt lat="44.62322813534411" lon="7.984330157426149"><ele>221.71428571428572</ele><time>2026-04-11T10:17:04Z</time></trkpt><trkpt lat="44.623167632315756" lon="7.984295947935251"><ele>221.85714285714286</ele><time>2026-04-11T10:17:05Z</time></trkpt><trkpt lat="44.62310484349114" lon="7.984286291127788"><ele>222.0</ele><time>2026-04-11T10:17:06Z</time></trkpt><trkpt lat="44.62299199931904" lon="7.984229183801989"><ele>222.0</ele><time>2026-04-11T10:17:08Z</time></trkpt><trkpt lat="44.622881316118665" lon="7.9841805608828205"><ele>222.0</ele><time>2026-04-11T10:17:10Z</time></trkpt><trkpt lat="44.62277458749346" lon="7.984134119911245"><ele>222.0</ele><time>2026-04-11T10:17:12Z</time></trkpt><trkpt lat="44.622668939804186" lon="7.9840911878989305"><ele>222.0</ele><time>2026-04-11T10:17:14Z</time></trkpt><trkpt lat="44.62256083515319" lon="7.984056676797717"><ele>222.0</ele><time>2026-04-11T10:17:16Z</time></trkpt><trkpt lat="44.62245414448085" lon="7.984016689162569"><ele>222.8</ele><time>2026-04-11T10:17:18Z</time></trkpt><trkpt lat="44.62234827821881" lon="7.9839848423342685"><ele>223.6</ele><time>2026-04-11T10:17:20Z</time></trkpt><trkpt lat="44.62224443200307" lon="7.983954846985314"><ele>224.40000000000003</ele><time>2026-04-11T10:17:22Z</time></trkpt><trkpt lat="44.62213643850988" lon="7.983946183283915"><ele>225.20000000000002</ele><time>2026-04-11T10:17:24Z</time></trkpt><trkpt lat="44.62203169005572" lon="7.983947695015842"><ele>226.0</ele><time>2026-04-11T10:17:26Z</time></trkpt><trkpt lat="44.62192504229644" lon="7.983960618120067"><ele>226.0</ele><time>2026-04-11T10:17:28Z</time></trkpt><trkpt lat="44.621819054681254" lon="7.983984833880009"><ele>226.00000000000003</ele><time>2026-04-11T10:17:30Z</time></trkpt><trkpt lat="44.62170965762074" lon="7.983993235536598"><ele>226.00000000000003</ele><time>2026-04-11T10:17:32Z</time></trkpt><trkpt lat="44.62160199656844" lon="7.984023367523962"><ele>226.0</ele><time>2026-04-11T10:17:34Z</time></trkpt><trkpt lat="44.62149324836236" lon="7.984052449185301"><ele>226.0</ele><time>2026-04-11T10:17:36Z</time></trkpt><trkpt lat="44.621382865771295" lon="7.984074310107228"><ele>226.0</ele><time>2026-04-11T10:17:38Z</time></trkpt><trkpt lat="44.62126736629434" lon="7.9840873236119725"><ele>226.0</ele><time>2026-04-11T10:17:40Z</time></trkpt><trkpt lat="44.62114940015376" lon="7.984097424435682"><ele>226.0</ele><time>2026-04-11T10:17:42Z</time></trkpt><trkpt lat="44.62103198805023" lon="7.984102395270847"><ele>226.0</ele><time>2026-04-11T10:17:44Z</time></trkpt><trkpt lat="44.62091315331827" lon="7.984098482093393"><ele>225.75</ele><time>2026-04-11T10:17:46Z</time></trkpt><trkpt lat="44.62079949749209" lon="7.984080294536845"><ele>225.5</ele><time>2026-04-11T10:17:48Z</time></trkpt><trkpt lat="44.620686744416375" lon="7.984052261897248"><ele>225.25</ele><time>2026-04-11T10:17:50Z</time></trkpt><trkpt lat="44.620577727299825" lon="7.984013021152635"><ele>225.0</ele><time>2026-04-11T10:17:52Z</time></trkpt><trkpt lat="44.62046154349451" lon="7.983986787042612"><ele>225.0</ele><time>2026-04-11T10:17:54Z</time></trkpt><trkpt lat="44.62034647047046" lon="7.983983572222074"><ele>225.0</ele><time>2026-04-11T10:17:56Z</time></trkpt><trkpt lat="44.62023665282183" lon="7.9840193438741816"><ele>225.0</ele><time>2026-04-11T10:17:58Z</time></trkpt><trkpt lat="44.620132966802814" lon="7.9840511678670065"><ele>225.0</ele><time>2026-04-11T10:18:00Z</time></trkpt><trkpt lat="44.620038018141145" lon="7.9840946865517015"><ele>225.0</ele><time>2026-04-11T10:18:02Z</time></trkpt><trkpt lat="44.619945555539466" lon="7.984137691359444"><ele>224.8</ele><time>2026-04-11T10:18:04Z</time></trkpt><trkpt lat="44.619852065945615" lon="7.984159545781912"><ele>224.6</ele><time>2026-04-11T10:18:06Z</time></trkpt><trkpt lat="44.61976874070961" lon="7.9841884980021085"><ele>224.39999999999998</ele><time>2026-04-11T10:18:08Z</time></trkpt><trkpt lat="44.619691287167825" lon="7.98419866264945"><ele>224.2</ele><time>2026-04-11T10:18:10Z</time></trkpt><trkpt lat="44.619613221673106" lon="7.984324247555455"><ele>224.0</ele><time>2026-04-11T10:18:12Z</time></trkpt><trkpt lat="44.6195234158036" lon="7.984380569914569"><ele>224.39999999999998</ele><time>2026-04-11T10:18:14Z</time></trkpt><trkpt lat="44.619428085059646" lon="7.984431536733713"><ele>224.79999999999998</ele><time>2026-04-11T10:18:16Z</time></trkpt><trkpt lat="44.619316455260254" lon="7.984441955114403"><ele>225.20000000000002</ele><time>2026-04-11T10:18:18Z</time></trkpt><trkpt lat="44.61921230173988" lon="7.984498488260444"><ele>225.60000000000002</ele><time>2026-04-11T10:18:20Z</time></trkpt><trkpt lat="44.61910769822874" lon="7.984555265615851"><ele>226.0</ele><time>2026-04-11T10:18:22Z</time></trkpt><trkpt lat="44.61900074734901" lon="7.984614023567415"><ele>226.0</ele><time>2026-04-11T10:18:24Z</time></trkpt><trkpt lat="44.61888910174661" lon="7.984675700893663"><ele>226.00000000000003</ele><time>2026-04-11T10:18:26Z</time></trkpt><trkpt lat="44.61877629025124" lon="7.98473802233876"><ele>226.00000000000003</ele><time>2026-04-11T10:18:28Z</time></trkpt><trkpt lat="44.61866282129203" lon="7.984800708724269"><ele>226.0</ele><time>2026-04-11T10:18:30Z</time></trkpt><trkpt lat="44.61860319000723" lon="7.984833651383464"><ele>226.0</ele><time>2026-04-11T10:18:31Z</time></trkpt><trkpt lat="44.618485222295476" lon="7.9848988214367305"><ele>225.83333333333331</ele><time>2026-04-11T10:18:33Z</time></trkpt><trkpt lat="44.61842450716596" lon="7.984932362623862"><ele>225.66666666666666</ele><time>2026-04-11T10:18:34Z</time></trkpt><trkpt lat="44.61836387620095" lon="7.984965857570201"><ele>225.5</ele><time>2026-04-11T10:18:35Z</time></trkpt><trkpt lat="44.618305057287124" lon="7.984998351358053"><ele>225.33333333333331</ele><time>2026-04-11T10:18:36Z</time></trkpt><trkpt lat="44.618184762359085" lon="7.985060770296575"><ele>225.16666666666666</ele><time>2026-04-11T10:18:38Z</time></trkpt><trkpt lat="44.6181234560171" lon="7.985091794415167"><ele>225.0</ele><time>2026-04-11T10:18:39Z</time></trkpt><trkpt lat="44.61806077595329" lon="7.985122244280449"><ele>225.00000000000003</ele><time>2026-04-11T10:18:40Z</time></trkpt><trkpt lat="44.61799706075252" lon="7.985151440500741"><ele>225.0</ele><time>2026-04-11T10:18:41Z</time></trkpt><trkpt lat="44.617932600031274" lon="7.9851784599247955"><ele>225.00000000000003</ele><time>2026-04-11T10:18:42Z</time></trkpt><trkpt lat="44.617862877497465" lon="7.985205650249987"><ele>225.00000000000003</ele><time>2026-04-11T10:18:43Z</time></trkpt><trkpt lat="44.61779422971039" lon="7.9852324214398225"><ele>225.0</ele><time>2026-04-11T10:18:44Z</time></trkpt><trkpt lat="44.617722172573075" lon="7.98526052220424"><ele>225.00000000000003</ele><time>2026-04-11T10:18:45Z</time></trkpt><trkpt lat="44.617648910302755" lon="7.985289475521064"><ele>225.00000000000003</ele><time>2026-04-11T10:18:46Z</time></trkpt><trkpt lat="44.617577064716144" lon="7.985318632509322"><ele>225.33333333333334</ele><time>2026-04-11T10:18:47Z</time></trkpt><trkpt lat="44.61750540293065" lon="7.985347714906371"><ele>225.66666666666669</ele><time>2026-04-11T10:18:48Z</time></trkpt><trkpt lat="44.617432316951906" lon="7.985375366191951"><ele>226.0</ele><time>2026-04-11T10:18:49Z</time></trkpt><trkpt lat="44.61735584702683" lon="7.985400546257906"><ele>226.33333333333334</ele><time>2026-04-11T10:18:50Z</time></trkpt><trkpt lat="44.6172793598592" lon="7.9854197132398035"><ele>226.66666666666669</ele><time>2026-04-11T10:18:51Z</time></trkpt><trkpt lat="44.61720069948611" lon="7.985434717153594"><ele>227.0</ele><time>2026-04-11T10:18:52Z</time></trkpt><trkpt lat="44.617122460269854" lon="7.9854430103848575"><ele>227.00000000000003</ele><time>2026-04-11T10:18:53Z</time></trkpt><trkpt lat="44.617045510195524" lon="7.985442757088288"><ele>227.0</ele><time>2026-04-11T10:18:54Z</time></trkpt><trkpt lat="44.61696816724744" lon="7.985437328442841"><ele>227.0</ele><time>2026-04-11T10:18:55Z</time></trkpt><trkpt lat="44.61689100057247" lon="7.985429311758155"><ele>227.0</ele><time>2026-04-11T10:18:56Z</time></trkpt><trkpt lat="44.616811392924255" lon="7.985418919724456"><ele>227.00000000000003</ele><time>2026-04-11T10:18:57Z</time></trkpt><trkpt lat="44.616735035986366" lon="7.985408952048433"><ele>227.0</ele><time>2026-04-11T10:18:58Z</time></trkpt><trkpt lat="44.61665938671572" lon="7.985398627227168"><ele>227.2857142857143</ele><time>2026-04-11T10:18:59Z</time></trkpt><trkpt lat="44.616585540237594" lon="7.985388050446452"><ele>227.5714285714286</ele><time>2026-04-11T10:19:00Z</time></trkpt><trkpt lat="44.616515419755686" lon="7.985378007322853"><ele>227.85714285714286</ele><time>2026-04-11T10:19:01Z</time></trkpt><trkpt lat="44.61644569957589" lon="7.985368021540072"><ele>228.14285714285717</ele><time>2026-04-11T10:19:02Z</time></trkpt><trkpt lat="44.61637946668279" lon="7.98535868556037"><ele>228.42857142857144</ele><time>2026-04-11T10:19:03Z</time></trkpt><trkpt lat="44.61631463261859" lon="7.985351029494174"><ele>228.71428571428572</ele><time>2026-04-11T10:19:04Z</time></trkpt><trkpt lat="44.61625091411951" lon="7.985343505161932"><ele>229.0</ele><time>2026-04-11T10:19:05Z</time></trkpt><trkpt lat="44.616186703573135" lon="7.9853359227259455"><ele>229.25</ele><time>2026-04-11T10:19:06Z</time></trkpt><trkpt lat="44.61606368842121" lon="7.985321396212581"><ele>229.5</ele><time>2026-04-11T10:19:08Z</time></trkpt><trkpt lat="44.61594468789773" lon="7.985303642497275"><ele>229.75</ele><time>2026-04-11T10:19:10Z</time></trkpt><trkpt lat="44.61583111210293" lon="7.985283595576938"><ele>230.0</ele><time>2026-04-11T10:19:12Z</time></trkpt><trkpt lat="44.61572126346091" lon="7.985261378724634"><ele>230.0</ele><time>2026-04-11T10:19:14Z</time></trkpt><trkpt lat="44.61561016545394" lon="7.98523391050267"><ele>230.0</ele><time>2026-04-11T10:19:16Z</time></trkpt><trkpt lat="44.615499942301874" lon="7.985203658934758"><ele>230.0</ele><time>2026-04-11T10:19:18Z</time></trkpt><trkpt lat="44.61538862676615" lon="7.98517307094738"><ele>230.0</ele><time>2026-04-11T10:19:20Z</time></trkpt><trkpt lat="44.61527662785713" lon="7.985145099477812"><ele>230.0</ele><time>2026-04-11T10:19:22Z</time></trkpt><trkpt lat="44.615164806980225" lon="7.985118302018765"><ele>230.0</ele><time>2026-04-11T10:19:24Z</time></trkpt><trkpt lat="44.615051737853335" lon="7.985098415421775"><ele>230.0</ele><time>2026-04-11T10:19:26Z</time></trkpt><trkpt lat="44.614934875623945" lon="7.9850928080121815"><ele>230.0</ele><time>2026-04-11T10:19:28Z</time></trkpt><trkpt lat="44.61482446630931" lon="7.985089232183046"><ele>230.0</ele><time>2026-04-11T10:19:30Z</time></trkpt><trkpt lat="44.61471595199366" lon="7.985083709170663"><ele>230.0</ele><time>2026-04-11T10:19:32Z</time></trkpt><trkpt lat="44.61460692569337" lon="7.985070249080427"><ele>230.0</ele><time>2026-04-11T10:19:34Z</time></trkpt><trkpt lat="44.61450178835828" lon="7.985051895474502"><ele>230.0</ele><time>2026-04-11T10:19:36Z</time></trkpt><trkpt lat="44.61439172896642" lon="7.9850512213724745"><ele>230.0</ele><time>2026-04-11T10:19:38Z</time></trkpt><trkpt lat="44.61428133687403" lon="7.985025291853485"><ele>230.8</ele><time>2026-04-11T10:19:40Z</time></trkpt><trkpt lat="44.61416797288463" lon="7.985063923245388"><ele>231.6</ele><time>2026-04-11T10:19:42Z</time></trkpt><trkpt lat="44.61406125829421" lon="7.985113046864886"><ele>232.39999999999998</ele><time>2026-04-11T10:19:44Z</time></trkpt><trkpt lat="44.613958676991956" lon="7.985173089560963"><ele>233.2</ele><time>2026-04-11T10:19:46Z</time></trkpt><trkpt lat="44.6138553129353" lon="7.985216513881023"><ele>234.0</ele><time>2026-04-11T10:19:48Z</time></trkpt><trkpt lat="44.6137486042228" lon="7.9852334163015515"><ele>235.0</ele><time>2026-04-11T10:19:50Z</time></trkpt><trkpt lat="44.613642178758056" lon="7.985235348087691"><ele>235.99999999999997</ele><time>2026-04-11T10:19:52Z</time></trkpt><trkpt lat="44.61353716853058" lon="7.985212901744058"><ele>236.99999999999997</ele><time>2026-04-11T10:19:54Z</time></trkpt><trkpt lat="44.61342925611636" lon="7.9851839319312585"><ele>238.0</ele><time>2026-04-11T10:19:56Z</time></trkpt><trkpt lat="44.61332426737428" lon="7.98514896456183"><ele>239.0</ele><time>2026-04-11T10:19:58Z</time></trkpt><trkpt lat="44.61321247203583" lon="7.985138525289889"><ele>239.0</ele><time>2026-04-11T10:20:00Z</time></trkpt><trkpt lat="44.61310224157102" lon="7.985181942164811"><ele>238.99999999999997</ele><time>2026-04-11T10:20:02Z</time></trkpt><trkpt lat="44.61300314447985" lon="7.985240130764444"><ele>238.99999999999997</ele><time>2026-04-11T10:20:04Z</time></trkpt><trkpt lat="44.612918400880055" lon="7.985295476890577"><ele>239.0</ele><time>2026-04-11T10:20:06Z</time></trkpt><trkpt lat="44.61283520755233" lon="7.985349811385006"><ele>239.0</ele><time>2026-04-11T10:20:08Z</time></trkpt><trkpt lat="44.6127421299377" lon="7.985391213083557"><ele>239.6</ele><time>2026-04-11T10:20:10Z</time></trkpt><trkpt lat="44.612654822854225" lon="7.985469122565293"><ele>240.2</ele><time>2026-04-11T10:20:12Z</time></trkpt><trkpt lat="44.612555170978425" lon="7.985505250839672"><ele>240.79999999999998</ele><time>2026-04-11T10:20:14Z</time></trkpt><trkpt lat="44.612454568663146" lon="7.985519680095146"><ele>241.39999999999998</ele><time>2026-04-11T10:20:16Z</time></trkpt><trkpt lat="44.61235191686429" lon="7.985534603181139"><ele>242.0</ele><time>2026-04-11T10:20:18Z</time></trkpt><trkpt lat="44.61224623470449" lon="7.985520293809679"><ele>242.0</ele><time>2026-04-11T10:20:20Z</time></trkpt><trkpt lat="44.6121434013546" lon="7.985532673310862"><ele>242.0</ele><time>2026-04-11T10:20:22Z</time></trkpt><trkpt lat="44.61204656507425" lon="7.985499054491199"><ele>242.0</ele><time>2026-04-11T10:20:24Z</time></trkpt><trkpt lat="44.61194696822993" lon="7.985475138016609"><ele>242.0</ele><time>2026-04-11T10:20:26Z</time></trkpt><trkpt lat="44.61185929221811" lon="7.985419841497343"><ele>242.0</ele><time>2026-04-11T10:20:28Z</time></trkpt><trkpt lat="44.611779166259616" lon="7.985368940966663"><ele>242.16666666666669</ele><time>2026-04-11T10:20:30Z</time></trkpt><trkpt lat="44.61170717726761" lon="7.9852983777211275"><ele>242.33333333333334</ele><time>2026-04-11T10:20:32Z</time></trkpt><trkpt lat="44.6116201296991" lon="7.985265414208999"><ele>242.5</ele><time>2026-04-11T10:20:34Z</time></trkpt><trkpt lat="44.61152730459039" lon="7.985273642063503"><ele>242.66666666666669</ele><time>2026-04-11T10:20:36Z</time></trkpt><trkpt lat="44.61145081556023" lon="7.9852909466181154"><ele>242.83333333333334</ele><time>2026-04-11T10:20:38Z</time></trkpt><trkpt lat="44.611382297702015" lon="7.9853173096689165"><ele>243.0</ele><time>2026-04-11T10:20:41Z</time></trkpt><trkpt lat="44.611277239916014" lon="7.985354606922855"><ele>243.0</ele><time>2026-04-11T10:20:44Z</time></trkpt><trkpt lat="44.61120532081667" lon="7.9853801393819985"><ele>243.0</ele><time>2026-04-11T10:20:47Z</time></trkpt><trkpt lat="44.61113147576903" lon="7.985436861752126"><ele>243.0</ele><time>2026-04-11T10:20:50Z</time></trkpt><trkpt lat="44.6110471219691" lon="7.985441136726807"><ele>243.0</ele><time>2026-04-11T10:20:53Z</time></trkpt><trkpt lat="44.61094500928043" lon="7.985431944123101"><ele>243.0</ele><time>2026-04-11T10:20:56Z</time></trkpt><trkpt lat="44.610855915828374" lon="7.985417149177015"><ele>243.0</ele><time>2026-04-11T10:20:59Z</time></trkpt><trkpt lat="44.61077297478768" lon="7.985406292500837"><ele>244.0</ele><time>2026-04-11T10:21:02Z</time></trkpt><trkpt lat="44.610710184314" lon="7.985395953338401"><ele>245.0</ele><time>2026-04-11T10:21:04Z</time></trkpt><trkpt lat="44.61063584577897" lon="7.985384315191122"><ele>246.0</ele><time>2026-04-11T10:21:07Z</time></trkpt><trkpt lat="44.61056326134544" lon="7.985360243276633"><ele>247.0</ele><time>2026-04-11T10:21:10Z</time></trkpt><trkpt lat="44.61047819487067" lon="7.985353237826893"><ele>248.0</ele><time>2026-04-11T10:21:13Z</time></trkpt><trkpt lat="44.61040265278104" lon="7.985343677700387"><ele>249.0</ele><time>2026-04-11T10:21:16Z</time></trkpt><trkpt lat="44.61032395187933" lon="7.985326823310275"><ele>249.28571428571428</ele><time>2026-04-11T10:21:19Z</time></trkpt><trkpt lat="44.610241801034974" lon="7.985318358927505"><ele>249.57142857142856</ele><time>2026-04-11T10:21:23Z</time></trkpt><trkpt lat="44.61017850628576" lon="7.985313235135798"><ele>249.85714285714283</ele><time>2026-04-11T10:21:26Z</time></trkpt><trkpt lat="44.610110263870475" lon="7.985297262214128"><ele>250.1428571428571</ele><time>2026-04-11T10:21:29Z</time></trkpt><trkpt lat="44.61004219830279" lon="7.985289432561548"><ele>250.42857142857142</ele><time>2026-04-11T10:21:32Z</time></trkpt><trkpt lat="44.60997160842894" lon="7.985278707205457"><ele>250.71428571428567</ele><time>2026-04-11T10:21:35Z</time></trkpt><trkpt lat="44.60989285805041" lon="7.985274546947068"><ele>250.99999999999997</ele><time>2026-04-11T10:21:38Z</time></trkpt><trkpt lat="44.60981762902183" lon="7.9852602476063606"><ele>250.99999999999997</ele><time>2026-04-11T10:21:41Z</time></trkpt><trkpt lat="44.60973857832726" lon="7.985249660446658"><ele>251.0</ele><time>2026-04-11T10:21:44Z</time></trkpt><trkpt lat="44.60966124434857" lon="7.985229275115637"><ele>250.99999999999997</ele><time>2026-04-11T10:21:47Z</time></trkpt><trkpt lat="44.60958552671889" lon="7.985201074976767"><ele>250.99999999999997</ele><time>2026-04-11T10:21:50Z</time></trkpt><trkpt lat="44.60951139201971" lon="7.985183249439017"><ele>251.0</ele><time>2026-04-11T10:21:53Z</time></trkpt><trkpt lat="44.60944677522871" lon="7.985158549289071"><ele>250.99999999999997</ele><time>2026-04-11T10:21:55Z</time></trkpt><trkpt lat="44.609379040586305" lon="7.985140700770321"><ele>250.99999999999997</ele><time>2026-04-11T10:21:58Z</time></trkpt><trkpt lat="44.60931250747106" lon="7.985140690718506"><ele>251.4285714285714</ele><time>2026-04-11T10:22:01Z</time></trkpt><trkpt lat="44.60923652721602" lon="7.9851201366520055"><ele>251.85714285714283</ele><time>2026-04-11T10:22:05Z</time></trkpt><trkpt lat="44.60916725904907" lon="7.985111886095096"><ele>252.28571428571428</ele><time>2026-04-11T10:22:08Z</time></trkpt><trkpt lat="44.60910145216604" lon="7.985115714210813"><ele>252.7142857142857</ele><time>2026-04-11T10:22:11Z</time></trkpt><trkpt lat="44.609037025181564" lon="7.985104478875415"><ele>253.1428571428571</ele><time>2026-04-11T10:22:14Z</time></trkpt><trkpt lat="44.608955638350594" lon="7.985105165684418"><ele>253.57142857142858</ele><time>2026-04-11T10:22:18Z</time></trkpt><trkpt lat="44.60887295600336" lon="7.985088562887787"><ele>254.0</ele><time>2026-04-11T10:22:22Z</time></trkpt><trkpt lat="44.60878317875851" lon="7.985095272349905"><ele>254.0</ele><time>2026-04-11T10:22:26Z</time></trkpt><trkpt lat="44.60871501577037" lon="7.98505911724884"><ele>254.0</ele><time>2026-04-11T10:22:29Z</time></trkpt><trkpt lat="44.6086362774271" lon="7.98507017752771"><ele>254.0</ele><time>2026-04-11T10:22:33Z</time></trkpt><trkpt lat="44.6085681016902" lon="7.985082083060975"><ele>254.0</ele><time>2026-04-11T10:22:36Z</time></trkpt><trkpt lat="44.6084858503647" lon="7.985104105513991"><ele>254.0</ele><time>2026-04-11T10:22:40Z</time></trkpt><trkpt lat="44.60841709950421" lon="7.9851121570188655"><ele>254.0</ele><time>2026-04-11T10:22:43Z</time></trkpt><trkpt lat="44.608349247097614" lon="7.985119152723877"><ele>254.0</ele><time>2026-04-11T10:22:46Z</time></trkpt><trkpt lat="44.608282710767476" lon="7.985110734948747"><ele>255.00000000000003</ele><time>2026-04-11T10:22:49Z</time></trkpt><trkpt lat="44.608203425925346" lon="7.985099712996062"><ele>256.0</ele><time>2026-04-11T10:22:52Z</time></trkpt><trkpt lat="44.60813276068267" lon="7.985085554126502"><ele>257.0</ele><time>2026-04-11T10:22:55Z</time></trkpt><trkpt lat="44.608061193613466" lon="7.985063259993494"><ele>258.0</ele><time>2026-04-11T10:22:58Z</time></trkpt><trkpt lat="44.60798438993645" lon="7.985042023288441"><ele>259.0</ele><time>2026-04-11T10:23:01Z</time></trkpt><trkpt lat="44.60791335259237" lon="7.985058322343939"><ele>260.0</ele><time>2026-04-11T10:23:04Z</time></trkpt><trkpt lat="44.607834354585584" lon="7.9850682273467015"><ele>261.5</ele><time>2026-04-11T10:23:07Z</time></trkpt><trkpt lat="44.60776766087913" lon="7.98507841303745"><ele>263.0</ele><time>2026-04-11T10:23:10Z</time></trkpt><trkpt lat="44.60768676657467" lon="7.985094792847532"><ele>264.5</ele><time>2026-04-11T10:23:14Z</time></trkpt><trkpt lat="44.60761351735212" lon="7.985128152283402"><ele>266.0</ele><time>2026-04-11T10:23:18Z</time></trkpt><trkpt lat="44.60753762243756" lon="7.985162160036038"><ele>267.5</ele><time>2026-04-11T10:23:22Z</time></trkpt><trkpt lat="44.60746603829097" lon="7.985198670910503"><ele>269.0</ele><time>2026-04-11T10:23:26Z</time></trkpt><trkpt lat="44.6073862363098" lon="7.985216021750375"><ele>269.0</ele><time>2026-04-11T10:23:30Z</time></trkpt><trkpt lat="44.60732563130422" lon="7.985245796177353"><ele>269.0</ele><time>2026-04-11T10:23:34Z</time></trkpt><trkpt lat="44.607249182750834" lon="7.9852495406283275"><ele>269.0</ele><time>2026-04-11T10:23:38Z</time></trkpt><trkpt lat="44.60717637003687" lon="7.985265255801226"><ele>269.0</ele><time>2026-04-11T10:23:42Z</time></trkpt><trkpt lat="44.60710298806215" lon="7.985285129801811"><ele>269.0</ele><time>2026-04-11T10:23:46Z</time></trkpt><trkpt lat="44.607038239373146" lon="7.98528505142771"><ele>269.0</ele><time>2026-04-11T10:23:49Z</time></trkpt><trkpt lat="44.606961690533296" lon="7.985301981808552"><ele>269.0</ele><time>2026-04-11T10:23:53Z</time></trkpt><trkpt lat="44.60689783900949" lon="7.985299520175904"><ele>270.0</ele><time>2026-04-11T10:23:57Z</time></trkpt><trkpt lat="44.60682694074035" lon="7.985315467813991"><ele>271.0</ele><time>2026-04-11T10:24:01Z</time></trkpt><trkpt lat="44.606751562377845" lon="7.98528076570582"><ele>272.0</ele><time>2026-04-11T10:24:05Z</time></trkpt><trkpt lat="44.60673241470272" lon="7.98517185739316"><ele>273.0</ele><time>2026-04-11T10:24:10Z</time></trkpt><trkpt lat="44.60678001005109" lon="7.985110719066692"><ele>274.0</ele><time>2026-04-11T10:24:14Z</time></trkpt><trkpt lat="44.60685583923373" lon="7.985078853076344"><ele>275.0</ele><time>2026-04-11T10:24:18Z</time></trkpt><trkpt lat="44.60694933510367" lon="7.985041600662019"><ele>276.83333333333337</ele><time>2026-04-11T10:24:23Z</time></trkpt><trkpt lat="44.60700985720097" lon="7.985004886224341"><ele>278.6666666666667</ele><time>2026-04-11T10:24:27Z</time></trkpt><trkpt lat="44.60709962527497" lon="7.984951435649149"><ele>280.5</ele><time>2026-04-11T10:24:31Z</time></trkpt><trkpt lat="44.607159307766175" lon="7.984909408129384"><ele>282.3333333333333</ele><time>2026-04-11T10:24:35Z</time></trkpt><trkpt lat="44.607236945887884" lon="7.9848438229049306"><ele>284.16666666666663</ele><time>2026-04-11T10:24:39Z</time></trkpt><trkpt lat="44.60730435358663" lon="7.984782464198861"><ele>286.0</ele><time>2026-04-11T10:24:43Z</time></trkpt><trkpt lat="44.607363186759244" lon="7.984722372444389"><ele>286.0</ele><time>2026-04-11T10:24:46Z</time></trkpt><trkpt lat="44.60742812392255" lon="7.984650067771338"><ele>286.0</ele><time>2026-04-11T10:24:50Z</time></trkpt><trkpt lat="44.607474907415266" lon="7.9845903112529175"><ele>286.0</ele><time>2026-04-11T10:24:53Z</time></trkpt><trkpt lat="44.60753389051171" lon="7.984519065004029"><ele>286.0</ele><time>2026-04-11T10:24:57Z</time></trkpt><trkpt lat="44.60759957780485" lon="7.9844632659629164"><ele>286.0</ele><time>2026-04-11T10:25:01Z</time></trkpt><trkpt lat="44.607671048093025" lon="7.984395861631318"><ele>286.0</ele><time>2026-04-11T10:25:04Z</time></trkpt><trkpt lat="44.60773308492449" lon="7.984344058061098"><ele>285.99999999999994</ele><time>2026-04-11T10:25:08Z</time></trkpt><trkpt lat="44.60779294275445" lon="7.9843130160555615"><ele>286.0</ele><time>2026-04-11T10:25:11Z</time></trkpt><trkpt lat="44.60787051031958" lon="7.984265823169758"><ele>286.0</ele><time>2026-04-11T10:25:15Z</time></trkpt><trkpt lat="44.607933749747474" lon="7.984245126449242"><ele>286.0</ele><time>2026-04-11T10:25:18Z</time></trkpt><trkpt lat="44.608000490000634" lon="7.984217466490926"><ele>286.0</ele><time>2026-04-11T10:25:21Z</time></trkpt><trkpt lat="44.60806869061706" lon="7.984187409697344"><ele>285.99999999999994</ele><time>2026-04-11T10:25:23.999Z</time></trkpt><trkpt lat="44.60814806809063" lon="7.984159044953775"><ele>286.0</ele><time>2026-04-11T10:25:26.999Z</time></trkpt><trkpt lat="44.60821048732137" lon="7.984131364935666"><ele>288.5</ele><time>2026-04-11T10:25:28.999Z</time></trkpt><trkpt lat="44.60829208284097" lon="7.984094785121364"><ele>291.0</ele><time>2026-04-11T10:25:31.999Z</time></trkpt><trkpt lat="44.608369779550614" lon="7.984056306661428"><ele>293.5</ele><time>2026-04-11T10:25:34.999Z</time></trkpt><trkpt lat="44.60844349018069" lon="7.98403136353373"><ele>296.0</ele><time>2026-04-11T10:25:37.999Z</time></trkpt><trkpt lat="44.60851200624003" lon="7.983973899690422"><ele>298.5</ele><time>2026-04-11T10:25:40.999Z</time></trkpt><trkpt lat="44.608573043659725" lon="7.98390237859197"><ele>301.0</ele><time>2026-04-11T10:25:43.999Z</time></trkpt><trkpt lat="44.60858639580799" lon="7.9837963201531235"><ele>301.0</ele><time>2026-04-11T10:25:46.999Z</time></trkpt><trkpt lat="44.60855058896287" lon="7.9837048228087015"><ele>301.0</ele><time>2026-04-11T10:25:49.999Z</time></trkpt><trkpt lat="44.60849857949027" lon="7.983634437391779"><ele>301.0</ele><time>2026-04-11T10:25:52.999Z</time></trkpt><trkpt lat="44.60843989015225" lon="7.983579713877993"><ele>301.0</ele><time>2026-04-11T10:25:55.999Z</time></trkpt><trkpt lat="44.60837301207514" lon="7.983609215368514"><ele>301.0</ele><time>2026-04-11T10:25:58.999Z</time></trkpt><trkpt lat="44.60831541202369" lon="7.983678665590802"><ele>301.0</ele><time>2026-04-11T10:26:01.999Z</time></trkpt><trkpt lat="44.60824831062914" lon="7.983746713495177"><ele>301.0</ele><time>2026-04-11T10:26:04.999Z</time></trkpt><trkpt lat="44.6081741733483" lon="7.983781956110573"><ele>301.0</ele><time>2026-04-11T10:26:08Z</time></trkpt><trkpt lat="44.60808926125561" lon="7.983745537090025"><ele>301.0</ele><time>2026-04-11T10:26:11Z</time></trkpt><trkpt lat="44.60800040525672" lon="7.983730808350024"><ele>301.0</ele><time>2026-04-11T10:26:14Z</time></trkpt><trkpt lat="44.60792155088808" lon="7.9837367605237635"><ele>301.0</ele><time>2026-04-11T10:26:17Z</time></trkpt><trkpt lat="44.607847355450545" lon="7.983711627643498"><ele>301.0</ele><time>2026-04-11T10:26:20Z</time></trkpt><trkpt lat="44.60777901757081" lon="7.983680983808127"><ele>301.0</ele><time>2026-04-11T10:26:23Z</time></trkpt><trkpt lat="44.60771008390978" lon="7.983680552697326"><ele>302.14285714285717</ele><time>2026-04-11T10:26:26Z</time></trkpt><trkpt lat="44.60764250505214" lon="7.9836868069420435"><ele>303.2857142857143</ele><time>2026-04-11T10:26:29Z</time></trkpt><trkpt lat="44.607575450012774" lon="7.983683023221577"><ele>304.42857142857144</ele><time>2026-04-11T10:26:32Z</time></trkpt><trkpt lat="44.60750875431227" lon="7.983673261638319"><ele>305.57142857142856</ele><time>2026-04-11T10:26:35Z</time></trkpt><trkpt lat="44.60744368499118" lon="7.983687102735962"><ele>306.7142857142857</ele><time>2026-04-11T10:26:38Z</time></trkpt><trkpt lat="44.60737216515978" lon="7.983681823215395"><ele>307.8571428571429</ele><time>2026-04-11T10:26:41Z</time></trkpt><trkpt lat="44.60729989523691" lon="7.983678773971785"><ele>309.0</ele><time>2026-04-11T10:26:44Z</time></trkpt><trkpt lat="44.6072252414727" lon="7.983660466177066"><ele>309.00000000000006</ele><time>2026-04-11T10:26:47Z</time></trkpt><trkpt lat="44.60715695035496" lon="7.983642172527481"><ele>309.0</ele><time>2026-04-11T10:26:50Z</time></trkpt><trkpt lat="44.60709723548265" lon="7.983608888495032"><ele>309.0</ele><time>2026-04-11T10:26:53Z</time></trkpt><trkpt lat="44.60703830472674" lon="7.983575679399292"><ele>309.0</ele><time>2026-04-11T10:26:56Z</time></trkpt><trkpt lat="44.60698135893046" lon="7.983531229110182"><ele>309.0</ele><time>2026-04-11T10:26:59Z</time></trkpt><trkpt lat="44.606925580630524" lon="7.983484356101791"><ele>309.00000000000006</ele><time>2026-04-11T10:27:02Z</time></trkpt><trkpt lat="44.60685225119799" lon="7.983444614799334"><ele>309.0</ele><time>2026-04-11T10:27:06Z</time></trkpt><trkpt lat="44.606797387676565" lon="7.983395555415044"><ele>313.1666666666667</ele><time>2026-04-11T10:27:09Z</time></trkpt><trkpt lat="44.60672908662528" lon="7.983332158353188"><ele>317.3333333333333</ele><time>2026-04-11T10:27:12Z</time></trkpt><trkpt lat="44.60665950932282" lon="7.983278745355756"><ele>321.5</ele><time>2026-04-11T10:27:16Z</time></trkpt><trkpt lat="44.606586952738276" lon="7.9832181306161285"><ele>325.66666666666663</ele><time>2026-04-11T10:27:20Z</time></trkpt><trkpt lat="44.606534868494506" lon="7.983165849136062"><ele>329.8333333333333</ele><time>2026-04-11T10:27:23Z</time></trkpt><trkpt lat="44.606480380928375" lon="7.983111628532939"><ele>334.0</ele><time>2026-04-11T10:27:26Z</time></trkpt><trkpt lat="44.60641376577243" lon="7.983054125659842"><ele>334.0</ele><time>2026-04-11T10:27:29.999Z</time></trkpt><trkpt lat="44.606344742667055" lon="7.98303361190196"><ele>334.0</ele><time>2026-04-11T10:56:18Z</time></trkpt><trkpt lat="44.60630391880114" lon="7.982947140171449"><ele>334.0</ele><time>2026-04-11T10:56:21Z</time></trkpt><trkpt lat="44.606244098661584" lon="7.9828855211651435"><ele>334.0</ele><time>2026-04-11T10:56:23Z</time></trkpt><trkpt lat="44.60617530258493" lon="7.982817224533285"><ele>334.0</ele><time>2026-04-11T10:56:25Z</time></trkpt><trkpt lat="44.60610557497869" lon="7.982736530003194"><ele>334.0</ele><time>2026-04-11T10:56:27Z</time></trkpt><trkpt lat="44.606048270607936" lon="7.9826334161324315"><ele>335.79999999999995</ele><time>2026-04-11T10:56:29Z</time></trkpt><trkpt lat="44.60596589709915" lon="7.982540161158531"><ele>337.59999999999997</ele><time>2026-04-11T10:56:31Z</time></trkpt><trkpt lat="44.605886289173704" lon="7.982473893138202"><ele>339.4</ele><time>2026-04-11T10:56:33Z</time></trkpt><trkpt lat="44.60579942156483" lon="7.9824007231273315"><ele>341.2</ele><time>2026-04-11T10:56:35Z</time></trkpt><trkpt lat="44.60571805595835" lon="7.982333242825175"><ele>343.0</ele><time>2026-04-11T10:56:37Z</time></trkpt><trkpt lat="44.60563092588258" lon="7.982269860561574"><ele>343.0</ele><time>2026-04-11T10:56:39Z</time></trkpt><trkpt lat="44.605548753805834" lon="7.982198842496312"><ele>343.0</ele><time>2026-04-11T10:56:41Z</time></trkpt><trkpt lat="44.60546860289372" lon="7.9821304468390375"><ele>343.0</ele><time>2026-04-11T10:56:43Z</time></trkpt><trkpt lat="44.60538699783073" lon="7.9820577039866265"><ele>343.0</ele><time>2026-04-11T10:56:45Z</time></trkpt><trkpt lat="44.60530344928673" lon="7.981996041546388"><ele>343.0</ele><time>2026-04-11T10:56:47Z</time></trkpt><trkpt lat="44.60522850799923" lon="7.9819223406624955"><ele>343.8333333333333</ele><time>2026-04-11T10:56:49Z</time></trkpt><trkpt lat="44.605151731409244" lon="7.981845858643149"><ele>344.66666666666663</ele><time>2026-04-11T10:56:51Z</time></trkpt><trkpt lat="44.605075490019416" lon="7.981786839637773"><ele>345.5</ele><time>2026-04-11T10:56:53Z</time></trkpt><trkpt lat="44.60499991218824" lon="7.981727737322819"><ele>346.3333333333333</ele><time>2026-04-11T10:56:55Z</time></trkpt><trkpt lat="44.604924132488925" lon="7.981666385921978"><ele>347.1666666666667</ele><time>2026-04-11T10:56:57Z</time></trkpt><trkpt lat="44.60485450159876" lon="7.981616384107039"><ele>348.0</ele><time>2026-04-11T10:56:59Z</time></trkpt><trkpt lat="44.60478773287075" lon="7.981558347623386"><ele>348.0</ele><time>2026-04-11T10:57:01Z</time></trkpt><trkpt lat="44.60471891908303" lon="7.981500152453167"><ele>348.0</ele><time>2026-04-11T10:57:03Z</time></trkpt><trkpt lat="44.60465613333736" lon="7.981444246093442"><ele>348.0</ele><time>2026-04-11T10:57:05Z</time></trkpt><trkpt lat="44.6045859815872" lon="7.9813831897696215"><ele>348.0</ele><time>2026-04-11T10:57:07Z</time></trkpt><trkpt lat="44.60452394648101" lon="7.981320106257622"><ele>348.0</ele><time>2026-04-11T10:57:09Z</time></trkpt><trkpt lat="44.604455980852954" lon="7.9812545562503825"><ele>348.0</ele><time>2026-04-11T10:57:11Z</time></trkpt><trkpt lat="44.604395173313456" lon="7.981200450305119"><ele>349.42857142857144</ele><time>2026-04-11T10:57:13Z</time></trkpt><trkpt lat="44.604346937214125" lon="7.981141678419736"><ele>350.8571428571429</ele><time>2026-04-11T10:57:15Z</time></trkpt><trkpt lat="44.60427847377213" lon="7.981073050860982"><ele>352.28571428571433</ele><time>2026-04-11T10:57:18Z</time></trkpt><trkpt lat="44.60421284476338" lon="7.9810135585690105"><ele>353.7142857142857</ele><time>2026-04-11T10:57:21Z</time></trkpt><trkpt lat="44.604154985564804" lon="7.980943471834256"><ele>355.14285714285717</ele><time>2026-04-11T10:57:24Z</time></trkpt><trkpt lat="44.604103034169874" lon="7.980892482005521"><ele>356.5714285714286</ele><time>2026-04-11T10:57:27Z</time></trkpt><trkpt lat="44.60404738085569" lon="7.980835238572535"><ele>358.0</ele><time>2026-04-11T10:57:30Z</time></trkpt><trkpt lat="44.60399137275887" lon="7.980776558814806"><ele>358.00000000000006</ele><time>2026-04-11T10:57:33Z</time></trkpt><trkpt lat="44.603938518149995" lon="7.980705745499866"><ele>358.0</ele><time>2026-04-11T10:57:36Z</time></trkpt><trkpt lat="44.603881557785705" lon="7.980640357357517"><ele>358.0</ele><time>2026-04-11T10:57:39Z</time></trkpt><trkpt lat="44.60382751392874" lon="7.98057375442968"><ele>358.0</ele><time>2026-04-11T10:57:42Z</time></trkpt><trkpt lat="44.60378240578534" lon="7.980508455284881"><ele>358.0</ele><time>2026-04-11T10:57:44Z</time></trkpt><trkpt lat="44.603731161696274" lon="7.9804569082720205"><ele>358.00000000000006</ele><time>2026-04-11T10:57:46Z</time></trkpt><trkpt lat="44.603656984535526" lon="7.9804229023951425"><ele>358.0</ele><time>2026-04-11T10:57:49Z</time></trkpt><trkpt lat="44.60358124941779" lon="7.98040305284942"><ele>356.8571428571429</ele><time>2026-04-11T10:57:52Z</time></trkpt><trkpt lat="44.603505424697865" lon="7.98039569523025"><ele>355.7142857142857</ele><time>2026-04-11T10:57:55Z</time></trkpt><trkpt lat="44.6034277833286" lon="7.980390334754734"><ele>354.57142857142856</ele><time>2026-04-11T10:57:58Z</time></trkpt><trkpt lat="44.60334900401928" lon="7.980393143412059"><ele>353.42857142857144</ele><time>2026-04-11T10:58:01Z</time></trkpt><trkpt lat="44.60328195401564" lon="7.980380572130698"><ele>352.2857142857143</ele><time>2026-04-11T10:58:04Z</time></trkpt><trkpt lat="44.6032206623597" lon="7.980354147720054"><ele>351.14285714285717</ele><time>2026-04-11T10:58:07Z</time></trkpt><trkpt lat="44.603162512268874" lon="7.980313225833714"><ele>350.0</ele><time>2026-04-11T10:58:10Z</time></trkpt><trkpt lat="44.60310132132939" lon="7.98027780857291"><ele>350.0</ele><time>2026-04-11T10:58:13Z</time></trkpt><trkpt lat="44.603040802874986" lon="7.980235321695918"><ele>350.0</ele><time>2026-04-11T10:58:16Z</time></trkpt><trkpt lat="44.602977413203796" lon="7.980194234930891"><ele>350.0</ele><time>2026-04-11T10:58:19Z</time></trkpt><trkpt lat="44.60290989352331" lon="7.98014845497361"><ele>350.0</ele><time>2026-04-11T10:58:21Z</time></trkpt><trkpt lat="44.60283710929257" lon="7.980106893100013"><ele>350.0</ele><time>2026-04-11T10:58:24Z</time></trkpt><trkpt lat="44.602753970245466" lon="7.980055121470125"><ele>350.0</ele><time>2026-04-11T10:58:27Z</time></trkpt><trkpt lat="44.6026718446436" lon="7.9800037390011"><ele>353.83333333333337</ele><time>2026-04-11T10:58:30Z</time></trkpt><trkpt lat="44.60259208080248" lon="7.979954160720097"><ele>357.6666666666667</ele><time>2026-04-11T10:58:33Z</time></trkpt><trkpt lat="44.60253404336439" lon="7.979912757664138"><ele>361.5</ele><time>2026-04-11T10:58:36Z</time></trkpt><trkpt lat="44.60246146275388" lon="7.9798688132986975"><ele>365.3333333333333</ele><time>2026-04-11T10:58:39Z</time></trkpt><trkpt lat="44.60239434070662" lon="7.9798144330952585"><ele>369.16666666666663</ele><time>2026-04-11T10:58:42Z</time></trkpt><trkpt lat="44.602329849561784" lon="7.979769229684498"><ele>373.0</ele><time>2026-04-11T10:58:45Z</time></trkpt><trkpt lat="44.60223754269898" lon="7.9797146769693255"><ele>373.0</ele><time>2026-04-11T10:58:48Z</time></trkpt><trkpt lat="44.60215567950904" lon="7.9796651343651295"><ele>373.0</ele><time>2026-04-11T10:58:51Z</time></trkpt><trkpt lat="44.602067575027306" lon="7.979610486674221"><ele>373.0</ele><time>2026-04-11T10:58:54Z</time></trkpt><trkpt lat="44.6019944357955" lon="7.979549833067215"><ele>373.0</ele><time>2026-04-11T10:58:57Z</time></trkpt><trkpt lat="44.60191910090798" lon="7.979494002828395"><ele>373.0</ele><time>2026-04-11T10:59:00Z</time></trkpt><trkpt lat="44.60184816362396" lon="7.979442487420838"><ele>373.0</ele><time>2026-04-11T10:59:03Z</time></trkpt><trkpt lat="44.60176945123036" lon="7.9794029891678875"><ele>374.0</ele><time>2026-04-11T10:59:06Z</time></trkpt><trkpt lat="44.60169327916562" lon="7.9793577912655325"><ele>375.0</ele><time>2026-04-11T10:59:09Z</time></trkpt><trkpt lat="44.60162687266599" lon="7.979319730414252"><ele>376.0</ele><time>2026-04-11T10:59:12Z</time></trkpt><trkpt lat="44.601558670952464" lon="7.979271216560578"><ele>377.0</ele><time>2026-04-11T10:59:15Z</time></trkpt><trkpt lat="44.601490194969436" lon="7.979232354172569"><ele>378.0</ele><time>2026-04-11T10:59:18Z</time></trkpt><trkpt lat="44.60140126436552" lon="7.979231223100348"><ele>379.0</ele><time>2026-04-11T10:59:21Z</time></trkpt><trkpt lat="44.601332346304645" lon="7.979305320522408"><ele>379.0</ele><time>2026-04-11T10:59:24Z</time></trkpt><trkpt lat="44.60127569662706" lon="7.979393636439692"><ele>379.0</ele><time>2026-04-11T10:59:26.999Z</time></trkpt><trkpt lat="44.60122190757383" lon="7.97948429288886"><ele>379.0</ele><time>2026-04-11T10:59:29.999Z</time></trkpt><trkpt lat="44.601173639309984" lon="7.979577386813396"><ele>379.0</ele><time>2026-04-11T10:59:33Z</time></trkpt><trkpt lat="44.601130052381826" lon="7.979671595602857"><ele>379.0</ele><time>2026-04-11T10:59:36Z</time></trkpt><trkpt lat="44.60109552247814" lon="7.979774281256806"><ele>379.0</ele><time>2026-04-11T10:59:39Z</time></trkpt><trkpt lat="44.60107236943794" lon="7.979865401245497"><ele>383.42857142857144</ele><time>2026-04-11T10:59:42Z</time></trkpt><trkpt lat="44.60106518454255" lon="7.979964333095731"><ele>387.8571428571429</ele><time>2026-04-11T10:59:45Z</time></trkpt><trkpt lat="44.60106856844955" lon="7.980058670035758"><ele>392.28571428571433</ele><time>2026-04-11T10:59:48Z</time></trkpt><trkpt lat="44.60107986375613" lon="7.980150702188826"><ele>396.7142857142857</ele><time>2026-04-11T10:59:51Z</time></trkpt><trkpt lat="44.60108239867713" lon="7.9802477223508355"><ele>401.1428571428571</ele><time>2026-04-11T10:59:54Z</time></trkpt><trkpt lat="44.601083083629675" lon="7.9803695853854135"><ele>405.5714285714286</ele><time>2026-04-11T10:59:57Z</time></trkpt><trkpt lat="44.601074889622076" lon="7.980469176999186"><ele>410.0</ele><time>2026-04-11T10:59:59Z</time></trkpt><trkpt lat="44.60106620014049" lon="7.980558137206012"><ele>410.42857142857144</ele><time>2026-04-11T11:00:01Z</time></trkpt><trkpt lat="44.60104851702769" lon="7.980655334246653"><ele>410.85714285714283</ele><time>2026-04-11T11:00:03Z</time></trkpt><trkpt lat="44.60103483327792" lon="7.98074563066194"><ele>411.2857142857143</ele><time>2026-04-11T11:00:05Z</time></trkpt><trkpt lat="44.60103103563531" lon="7.980837859242279"><ele>411.7142857142857</ele><time>2026-04-11T11:00:07Z</time></trkpt><trkpt lat="44.60103097692764" lon="7.980944880029119"><ele>412.1428571428571</ele><time>2026-04-11T11:00:09Z</time></trkpt><trkpt lat="44.60105279155521" lon="7.981042438892143"><ele>412.57142857142856</ele><time>2026-04-11T11:00:11Z</time></trkpt><trkpt lat="44.601073708277944" lon="7.981133836245226"><ele>413.0</ele><time>2026-04-11T11:00:13Z</time></trkpt><trkpt lat="44.60109610485829" lon="7.981221390973764"><ele>411.49999999999994</ele><time>2026-04-11T11:00:15Z</time></trkpt><trkpt lat="44.601126320718855" lon="7.981305468380496"><ele>410.0</ele><time>2026-04-11T11:00:17Z</time></trkpt><trkpt lat="44.601162111735874" lon="7.981407587798828"><ele>408.5</ele><time>2026-04-11T11:00:19Z</time></trkpt><trkpt lat="44.60118089538391" lon="7.981507014267453"><ele>407.0</ele><time>2026-04-11T11:00:21Z</time></trkpt><trkpt lat="44.60112613490987" lon="7.981567959709687"><ele>405.49999999999994</ele><time>2026-04-11T11:00:23Z</time></trkpt><trkpt lat="44.60108135619638" lon="7.981479825781577"><ele>404.0</ele><time>2026-04-11T11:00:25Z</time></trkpt><trkpt lat="44.6010435533832" lon="7.981370062745743"><ele>404.0</ele><time>2026-04-11T11:00:28Z</time></trkpt><trkpt lat="44.601008340120195" lon="7.981279262689189"><ele>404.0</ele><time>2026-04-11T11:00:31Z</time></trkpt><trkpt lat="44.60096974152888" lon="7.981181902021836"><ele>404.0</ele><time>2026-04-11T11:00:34Z</time></trkpt><trkpt lat="44.600927757556114" lon="7.981094450521048"><ele>404.0</ele><time>2026-04-11T11:00:37Z</time></trkpt><trkpt lat="44.600893652166775" lon="7.981006672877436"><ele>404.0</ele><time>2026-04-11T11:00:40Z</time></trkpt><trkpt lat="44.60086783119768" lon="7.980919765527968"><ele>404.0</ele><time>2026-04-11T11:00:43Z</time></trkpt><trkpt lat="44.600839197365474" lon="7.980836166640907"><ele>404.0</ele><time>2026-04-11T11:00:46Z</time></trkpt><trkpt lat="44.600829464079354" lon="7.980744672996535"><ele>405.2857142857143</ele><time>2026-04-11T11:00:49Z</time></trkpt><trkpt lat="44.600826429216" lon="7.98065618070965"><ele>406.57142857142856</ele><time>2026-04-11T11:00:52Z</time></trkpt><trkpt lat="44.600808366718354" lon="7.980556350621176"><ele>407.8571428571429</ele><time>2026-04-11T11:00:56Z</time></trkpt><trkpt lat="44.600789510216714" lon="7.980465040492871"><ele>409.1428571428571</ele><time>2026-04-11T11:00:59Z</time></trkpt><trkpt lat="44.600759052702514" lon="7.980375412623043"><ele>410.42857142857144</ele><time>2026-04-11T11:01:02Z</time></trkpt><trkpt lat="44.60072455600399" lon="7.980287028730483"><ele>411.7142857142857</ele><time>2026-04-11T11:01:05Z</time></trkpt><trkpt lat="44.60068575665785" lon="7.980185467336014"><ele>413.0</ele><time>2026-04-11T11:01:08Z</time></trkpt><trkpt lat="44.60065009899381" lon="7.980111847738095"><ele>412.99999999999994</ele><time>2026-04-11T11:01:11Z</time></trkpt><trkpt lat="44.60059872327324" lon="7.980024082936864"><ele>413.0</ele><time>2026-04-11T11:01:14Z</time></trkpt><trkpt lat="44.600551025384505" lon="7.979938740557221"><ele>413.0</ele><time>2026-04-11T11:01:17Z</time></trkpt><trkpt lat="44.60049472936948" lon="7.979859186791561"><ele>413.0</ele><time>2026-04-11T11:01:21Z</time></trkpt><trkpt lat="44.60045599027726" lon="7.9797610325102255"><ele>412.99999999999994</ele><time>2026-04-11T11:01:23.999Z</time></trkpt><trkpt lat="44.600423182331156" lon="7.979684768242189"><ele>413.0</ele><time>2026-04-11T11:01:25.999Z</time></trkpt><trkpt lat="44.60040122789839" lon="7.979559664089592"><ele>412.57142857142856</ele><time>2026-04-11T11:01:28.999Z</time></trkpt><trkpt lat="44.60039775250425" lon="7.97946909329697"><ele>412.1428571428571</ele><time>2026-04-11T11:01:30.999Z</time></trkpt><trkpt lat="44.60039325725695" lon="7.979380132057167"><ele>411.7142857142857</ele><time>2026-04-11T11:01:32.999Z</time></trkpt><trkpt lat="44.6003917803093" lon="7.979253641730785"><ele>411.2857142857143</ele><time>2026-04-11T11:01:35.999Z</time></trkpt><trkpt lat="44.600395372711354" lon="7.979133869338995"><ele>410.85714285714283</ele><time>2026-04-11T11:01:39Z</time></trkpt><trkpt lat="44.60040252700001" lon="7.979043832179706"><ele>410.42857142857144</ele><time>2026-04-11T11:01:42Z</time></trkpt><trkpt lat="44.600426832344375" lon="7.978942897980197"><ele>410.0</ele><time>2026-04-11T11:01:45Z</time></trkpt><trkpt lat="44.600464263401" lon="7.978842304116409"><ele>411.3333333333333</ele><time>2026-04-11T11:01:48Z</time></trkpt><trkpt lat="44.60051530498502" lon="7.978759519488036"><ele>412.66666666666663</ele><time>2026-04-11T11:01:51Z</time></trkpt><trkpt lat="44.60057639030131" lon="7.978685242038207"><ele>414.0</ele><time>2026-04-11T11:01:54Z</time></trkpt><trkpt lat="44.60064614101163" lon="7.978624320306432"><ele>415.33333333333337</ele><time>2026-04-11T11:01:56Z</time></trkpt><trkpt lat="44.60071311457064" lon="7.978585476446056"><ele>416.6666666666667</ele><time>2026-04-11T11:01:59Z</time></trkpt><trkpt lat="44.60077851195766" lon="7.978528049253278"><ele>418.0</ele><time>2026-04-11T11:02:02Z</time></trkpt><trkpt lat="44.60083327307854" lon="7.978444936128736"><ele>421.1666666666667</ele><time>2026-04-11T11:02:05Z</time></trkpt><trkpt lat="44.60087239834267" lon="7.978344478920791"><ele>424.33333333333337</ele><time>2026-04-11T11:02:08Z</time></trkpt><trkpt lat="44.60089990072477" lon="7.9782401083434005"><ele>427.5</ele><time>2026-04-11T11:02:11Z</time></trkpt><trkpt lat="44.60092668375484" lon="7.978138030730507"><ele>430.66666666666663</ele><time>2026-04-11T11:02:14Z</time></trkpt><trkpt lat="44.60095810102962" lon="7.9780290591277145"><ele>433.8333333333333</ele><time>2026-04-11T11:02:17Z</time></trkpt><trkpt lat="44.601002698545436" lon="7.977914344502572"><ele>437.0</ele><time>2026-04-11T11:02:20Z</time></trkpt><trkpt lat="44.60106643252756" lon="7.977816783750969"><ele>437.0</ele><time>2026-04-11T11:02:23Z</time></trkpt><trkpt lat="44.601124613594386" lon="7.9777596696582185"><ele>437.0</ele><time>2026-04-11T11:02:25Z</time></trkpt><trkpt lat="44.60119170385042" lon="7.977717593966962"><ele>437.0</ele><time>2026-04-11T11:02:27Z</time></trkpt><trkpt lat="44.601266591817904" lon="7.977693893501446"><ele>437.0</ele><time>2026-04-11T11:02:29Z</time></trkpt><trkpt lat="44.60133593278755" lon="7.977676900880318"><ele>437.0</ele><time>2026-04-11T11:02:31Z</time></trkpt><trkpt lat="44.60140669973145" lon="7.977656113727602"><ele>437.0</ele><time>2026-04-11T11:02:33Z</time></trkpt><trkpt lat="44.60146941889133" lon="7.977635929994953"><ele>437.0</ele><time>2026-04-11T11:02:35Z</time></trkpt><trkpt lat="44.60155836508937" lon="7.977624599869532"><ele>437.49999999999994</ele><time>2026-04-11T11:02:38Z</time></trkpt><trkpt lat="44.60163962008633" lon="7.977626457524817"><ele>438.0</ele><time>2026-04-11T11:02:41Z</time></trkpt><trkpt lat="44.60171825853841" lon="7.977653309627667"><ele>438.5</ele><time>2026-04-11T11:02:44Z</time></trkpt><trkpt lat="44.60179142127244" lon="7.977699682345775"><ele>439.0</ele><time>2026-04-11T11:02:47Z</time></trkpt><trkpt lat="44.60186937230635" lon="7.9777378465735405"><ele>439.49999999999994</ele><time>2026-04-11T11:02:50Z</time></trkpt><trkpt lat="44.60194938194868" lon="7.977752898910597"><ele>440.0</ele><time>2026-04-11T11:02:53Z</time></trkpt><trkpt lat="44.602023618016894" lon="7.977786450249405"><ele>439.99999999999994</ele><time>2026-04-11T11:02:56Z</time></trkpt><trkpt lat="44.60210326228314" lon="7.977807620315082"><ele>440.0</ele><time>2026-04-11T11:02:59Z</time></trkpt><trkpt lat="44.60217609165438" lon="7.977853506905016"><ele>440.0</ele><time>2026-04-11T11:03:02Z</time></trkpt><trkpt lat="44.60224451390184" lon="7.977912157220814"><ele>440.0</ele><time>2026-04-11T11:03:05Z</time></trkpt><trkpt lat="44.602303033793575" lon="7.97798399807137"><ele>439.99999999999994</ele><time>2026-04-11T11:03:08Z</time></trkpt><trkpt lat="44.602371318454935" lon="7.978040027405163"><ele>440.0</ele><time>2026-04-11T11:03:11Z</time></trkpt><trkpt lat="44.60244407044083" lon="7.9780726858550866"><ele>439.99999999999994</ele><time>2026-04-11T11:03:13.999Z</time></trkpt><trkpt lat="44.602520793637886" lon="7.978076373827934"><ele>440.0</ele><time>2026-04-11T11:03:16.999Z</time></trkpt><trkpt lat="44.602602875382175" lon="7.978091812843362"><ele>440.0</ele><time>2026-04-11T11:03:19.999Z</time></trkpt><trkpt lat="44.602675252194075" lon="7.978046297371717"><ele>440.0</ele><time>2026-04-11T11:03:22.999Z</time></trkpt><trkpt lat="44.6027300911426" lon="7.9779694626320925"><ele>439.99999999999994</ele><time>2026-04-11T11:03:25.999Z</time></trkpt><trkpt lat="44.60279229048408" lon="7.977915046958794"><ele>440.0</ele><time>2026-04-11T11:03:28.999Z</time></trkpt><trkpt lat="44.602855331235666" lon="7.977857037725616"><ele>439.66666666666663</ele><time>2026-04-11T11:03:31.999Z</time></trkpt><trkpt lat="44.60291801437028" lon="7.977786488892872"><ele>439.3333333333333</ele><time>2026-04-11T11:03:34.999Z</time></trkpt><trkpt lat="44.60297245491126" lon="7.977714382928878"><ele>439.0</ele><time>2026-04-11T11:03:37.999Z</time></trkpt><trkpt lat="44.60303452501644" lon="7.977657642778566"><ele>438.66666666666663</ele><time>2026-04-11T11:03:40.999Z</time></trkpt><trkpt lat="44.603091927504636" lon="7.9775848949994534"><ele>438.3333333333333</ele><time>2026-04-11T11:03:44Z</time></trkpt><trkpt lat="44.60313155908808" lon="7.977496959942608"><ele>438.0</ele><time>2026-04-11T11:03:47Z</time></trkpt><trkpt lat="44.60314131272561" lon="7.9773850922766725"><ele>442.2</ele><time>2026-04-11T11:03:50Z</time></trkpt><trkpt lat="44.60311266844818" lon="7.977259437025568"><ele>446.4</ele><time>2026-04-11T11:03:53Z</time></trkpt><trkpt lat="44.60305420041692" lon="7.977216243764997"><ele>450.59999999999997</ele><time>2026-04-11T11:03:55Z</time></trkpt><trkpt lat="44.60297994627426" lon="7.977209905956635"><ele>454.79999999999995</ele><time>2026-04-11T11:03:57Z</time></trkpt><trkpt lat="44.60289881500195" lon="7.977210997095497"><ele>459.0</ele><time>2026-04-11T11:03:59Z</time></trkpt><trkpt lat="44.60275326513175" lon="7.977203418531513"><ele>459.2</ele><time>2026-04-11T11:04:02Z</time></trkpt><trkpt lat="44.60265602009514" lon="7.977205738294804"><ele>459.4</ele><time>2026-04-11T11:04:04Z</time></trkpt><trkpt lat="44.6025545637553" lon="7.977195173140255"><ele>459.6</ele><time>2026-04-11T11:04:06Z</time></trkpt><trkpt lat="44.60245315582518" lon="7.977177266985036"><ele>459.8</ele><time>2026-04-11T11:04:08Z</time></trkpt><trkpt lat="44.602350204829506" lon="7.9771613117633"><ele>460.0</ele><time>2026-04-11T11:04:10Z</time></trkpt><trkpt lat="44.602256253190376" lon="7.97714927961321"><ele>460.0</ele><time>2026-04-11T11:04:12Z</time></trkpt><trkpt lat="44.602164090096" lon="7.977137134983952"><ele>460.0</ele><time>2026-04-11T11:04:14Z</time></trkpt><trkpt lat="44.60207767158172" lon="7.9771127296134114"><ele>460.0</ele><time>2026-04-11T11:04:16Z</time></trkpt><trkpt lat="44.60198874989242" lon="7.977086837528255"><ele>460.0</ele><time>2026-04-11T11:04:18Z</time></trkpt><trkpt lat="44.601897857503275" lon="7.9770573161650375"><ele>460.0</ele><time>2026-04-11T11:04:20Z</time></trkpt><trkpt lat="44.60177491211121" lon="7.977048888819962"><ele>459.0</ele><time>2026-04-11T11:04:22Z</time></trkpt><trkpt lat="44.60169509577559" lon="7.977039210932913"><ele>458.0</ele><time>2026-04-11T11:04:24Z</time></trkpt><trkpt lat="44.60159644909847" lon="7.977034039037351"><ele>457.0</ele><time>2026-04-11T11:04:26Z</time></trkpt><trkpt lat="44.601498723047314" lon="7.977039096178006"><ele>456.0</ele><time>2026-04-11T11:04:28Z</time></trkpt><trkpt lat="44.60140141731118" lon="7.977037876723155"><ele>455.0</ele><time>2026-04-11T11:04:30Z</time></trkpt><trkpt lat="44.601307760101825" lon="7.977023429914337"><ele>455.0</ele><time>2026-04-11T11:04:32Z</time></trkpt><trkpt lat="44.60121673471612" lon="7.97701278768534"><ele>455.0</ele><time>2026-04-11T11:04:34Z</time></trkpt><trkpt lat="44.60112492404324" lon="7.976999805657387"><ele>455.0</ele><time>2026-04-11T11:04:36Z</time></trkpt><trkpt lat="44.60103111733002" lon="7.976992701201956"><ele>455.0</ele><time>2026-04-11T11:04:38Z</time></trkpt><trkpt lat="44.600938706591215" lon="7.977007885470299"><ele>455.0</ele><time>2026-04-11T11:04:40Z</time></trkpt><trkpt lat="44.60085075899067" lon="7.97702157898501"><ele>456.8</ele><time>2026-04-11T11:04:42Z</time></trkpt><trkpt lat="44.60076486337761" lon="7.977057055815291"><ele>458.6</ele><time>2026-04-11T11:04:44Z</time></trkpt><trkpt lat="44.60068189767436" lon="7.977097530217719"><ele>460.4</ele><time>2026-04-11T11:04:46Z</time></trkpt><trkpt lat="44.60059875085149" lon="7.977147911897678"><ele>462.2</ele><time>2026-04-11T11:04:48Z</time></trkpt><trkpt lat="44.60051751459035" lon="7.977215272493088"><ele>464.0</ele><time>2026-04-11T11:04:50Z</time></trkpt><trkpt lat="44.60044532511025" lon="7.977290826535373"><ele>464.0</ele><time>2026-04-11T11:04:52Z</time></trkpt><trkpt lat="44.60038685482636" lon="7.977382234783023"><ele>464.0</ele><time>2026-04-11T11:04:54Z</time></trkpt><trkpt lat="44.600345606379676" lon="7.977489189670894"><ele>464.0</ele><time>2026-04-11T11:04:56Z</time></trkpt><trkpt lat="44.60027948049516" lon="7.977633849365866"><ele>464.0</ele><time>2026-04-11T11:04:59Z</time></trkpt><trkpt lat="44.60022373826845" lon="7.9777088251057044"><ele>464.0</ele><time>2026-04-11T11:05:01Z</time></trkpt><trkpt lat="44.60014584836128" lon="7.977751551773822"><ele>464.8333333333333</ele><time>2026-04-11T11:05:03Z</time></trkpt><trkpt lat="44.60006479908067" lon="7.977781249938618"><ele>465.66666666666663</ele><time>2026-04-11T11:05:05Z</time></trkpt><trkpt lat="44.59998125384188" lon="7.97780826772843"><ele>466.5</ele><time>2026-04-11T11:05:06.999Z</time></trkpt><trkpt lat="44.599907440580374" lon="7.977838658102473"><ele>467.33333333333337</ele><time>2026-04-11T11:05:08.999Z</time></trkpt><trkpt lat="44.59983571964753" lon="7.977891869195312"><ele>468.1666666666667</ele><time>2026-04-11T11:05:10.999Z</time></trkpt><trkpt lat="44.5997743875747" lon="7.977960117976379"><ele>469.0</ele><time>2026-04-11T11:05:12.999Z</time></trkpt><trkpt lat="44.5997176470599" lon="7.978044465701942"><ele>469.0</ele><time>2026-04-11T11:05:14.999Z</time></trkpt><trkpt lat="44.59963313372989" lon="7.97814176353461"><ele>469.0</ele><time>2026-04-11T11:05:17.999Z</time></trkpt><trkpt lat="44.59954421763466" lon="7.97815259268298"><ele>469.0</ele><time>2026-04-11T11:05:19.999Z</time></trkpt><trkpt lat="44.59945592907579" lon="7.97809892974693"><ele>469.0</ele><time>2026-04-11T11:05:21.999Z</time></trkpt><trkpt lat="44.59937685095531" lon="7.9780314254438265"><ele>469.0</ele><time>2026-04-11T11:05:23.999Z</time></trkpt><trkpt lat="44.599300429051794" lon="7.977949859213972"><ele>469.2</ele><time>2026-04-11T11:05:25.999Z</time></trkpt><trkpt lat="44.5992290720071" lon="7.977856716934888"><ele>469.4</ele><time>2026-04-11T11:05:27.999Z</time></trkpt><trkpt lat="44.59915113233326" lon="7.97776698920029"><ele>469.6</ele><time>2026-04-11T11:05:29.999Z</time></trkpt><trkpt lat="44.59906191376518" lon="7.977705772029464"><ele>469.8</ele><time>2026-04-11T11:05:31.999Z</time></trkpt><trkpt lat="44.598964329438544" lon="7.977663780153113"><ele>470.0</ele><time>2026-04-11T11:05:33.999Z</time></trkpt><trkpt lat="44.59886618578562" lon="7.977643792181294"><ele>470.0</ele><time>2026-04-11T11:05:35.999Z</time></trkpt><trkpt lat="44.59877139829797" lon="7.977638901753989"><ele>470.0</ele><time>2026-04-11T11:05:37.999Z</time></trkpt><trkpt lat="44.5986804051289" lon="7.9776536521384696"><ele>470.0</ele><time>2026-04-11T11:05:39.999Z</time></trkpt><trkpt lat="44.598589907658244" lon="7.977662443854287"><ele>470.0</ele><time>2026-04-11T11:05:41.999Z</time></trkpt><trkpt lat="44.59849461488482" lon="7.977687009805119"><ele>470.0</ele><time>2026-04-11T11:05:43.999Z</time></trkpt><trkpt lat="44.5984041758121" lon="7.977705489712725"><ele>469.4</ele><time>2026-04-11T11:05:45.999Z</time></trkpt><trkpt lat="44.59830895714092" lon="7.977723424980621"><ele>468.8</ele><time>2026-04-11T11:05:47.999Z</time></trkpt><trkpt lat="44.59821485132512" lon="7.977738565628403"><ele>468.20000000000005</ele><time>2026-04-11T11:05:50Z</time></trkpt><trkpt lat="44.59812065837176" lon="7.9777281955782025"><ele>467.6</ele><time>2026-04-11T11:05:52Z</time></trkpt><trkpt lat="44.59802436155553" lon="7.97769571177227"><ele>467.0</ele><time>2026-04-11T11:05:54Z</time></trkpt><trkpt lat="44.597924837366826" lon="7.9776226094268194"><ele>469.16666666666663</ele><time>2026-04-11T11:05:56Z</time></trkpt><trkpt lat="44.59782182872327" lon="7.977527083483395"><ele>471.3333333333333</ele><time>2026-04-11T11:05:58Z</time></trkpt><trkpt lat="44.597762659466184" lon="7.977487367660297"><ele>473.5</ele><time>2026-04-11T11:05:59Z</time></trkpt><trkpt lat="44.597693535851484" lon="7.977463009835574"><ele>475.66666666666663</ele><time>2026-04-11T11:06:00Z</time></trkpt><trkpt lat="44.59762150806085" lon="7.9774426903061695"><ele>477.8333333333333</ele><time>2026-04-11T11:06:01Z</time></trkpt><trkpt lat="44.597549157931226" lon="7.9774265472969175"><ele>480.0</ele><time>2026-04-11T11:06:02Z</time></trkpt><trkpt lat="44.59747823606918" lon="7.977417883646257"><ele>480.0</ele><time>2026-04-11T11:06:03Z</time></trkpt><trkpt lat="44.5974051312462" lon="7.977405578689396"><ele>480.0</ele><time>2026-04-11T11:06:04Z</time></trkpt><trkpt lat="44.59733352326743" lon="7.977386962167902"><ele>480.0</ele><time>2026-04-11T11:06:05Z</time></trkpt><trkpt lat="44.597264928542465" lon="7.977377982771938"><ele>480.0</ele><time>2026-04-11T11:06:06Z</time></trkpt><trkpt lat="44.59719647012625" lon="7.977364256160835"><ele>480.0</ele><time>2026-04-11T11:06:07Z</time></trkpt><trkpt lat="44.59713024584928" lon="7.977347365767659"><ele>480.0</ele><time>2026-04-11T11:06:08Z</time></trkpt><trkpt lat="44.59706137341207" lon="7.977325173206822"><ele>480.0</ele><time>2026-04-11T11:06:09Z</time></trkpt><trkpt lat="44.5969952049616" lon="7.9772972934926365"><ele>482.0</ele><time>2026-04-11T11:06:10Z</time></trkpt><trkpt lat="44.596928357966874" lon="7.9772704581017955"><ele>484.0</ele><time>2026-04-11T11:06:11Z</time></trkpt><trkpt lat="44.59685975555888" lon="7.977235876413841"><ele>486.0</ele><time>2026-04-11T11:06:12Z</time></trkpt><trkpt lat="44.5967931877771" lon="7.97718530159397"><ele>488.0</ele><time>2026-04-11T11:06:13Z</time></trkpt><trkpt lat="44.59672902194155" lon="7.977121485467249"><ele>490.0</ele><time>2026-04-11T11:06:14Z</time></trkpt><trkpt lat="44.596664576473216" lon="7.977052343901988"><ele>492.0</ele><time>2026-04-11T11:06:15Z</time></trkpt><trkpt lat="44.59659886329276" lon="7.97698659662556"><ele>492.0</ele><time>2026-04-11T11:06:16Z</time></trkpt><trkpt lat="44.59653187132238" lon="7.976921765334134"><ele>492.0</ele><time>2026-04-11T11:06:17Z</time></trkpt><trkpt lat="44.59646893800085" lon="7.976851904565082"><ele>492.0</ele><time>2026-04-11T11:06:18Z</time></trkpt><trkpt lat="44.59639996219101" lon="7.9767894865616435"><ele>492.0</ele><time>2026-04-11T11:06:19Z</time></trkpt><trkpt lat="44.59633296701385" lon="7.976718976153715"><ele>492.0</ele><time>2026-04-11T11:06:20Z</time></trkpt><trkpt lat="44.596267414944464" lon="7.976656240021991"><ele>492.0</ele><time>2026-04-11T11:06:21Z</time></trkpt><trkpt lat="44.59620787986547" lon="7.976580648264555"><ele>493.6666666666667</ele><time>2026-04-11T11:06:22Z</time></trkpt><trkpt lat="44.59615712013238" lon="7.97649312234502"><ele>495.33333333333337</ele><time>2026-04-11T11:06:23Z</time></trkpt><trkpt lat="44.59612037517789" lon="7.976390170833622"><ele>497.0</ele><time>2026-04-11T11:06:24Z</time></trkpt><trkpt lat="44.596117674241" lon="7.976271110741515"><ele>498.6666666666667</ele><time>2026-04-11T11:06:25Z</time></trkpt><trkpt lat="44.59614266938463" lon="7.97616188975864"><ele>500.33333333333337</ele><time>2026-04-11T11:06:26Z</time></trkpt><trkpt lat="44.59617251564815" lon="7.97606455227056"><ele>502.0</ele><time>2026-04-11T11:06:27Z</time></trkpt><trkpt lat="44.59620100490067" lon="7.975966482340139"><ele>498.42857142857133</ele><time>2026-04-11T11:06:28Z</time></trkpt><trkpt lat="44.59623103710526" lon="7.975871543011405"><ele>494.85714285714283</ele><time>2026-04-11T11:06:29Z</time></trkpt><trkpt lat="44.59626179885214" lon="7.975776603128869"><ele>491.2857142857142</ele><time>2026-04-11T11:06:30Z</time></trkpt><trkpt lat="44.59629357022448" lon="7.975684495964173"><ele>487.71428571428567</ele><time>2026-04-11T11:06:31Z</time></trkpt><trkpt lat="44.59632913519536" lon="7.975591706898946"><ele>484.1428571428571</ele><time>2026-04-11T11:06:32Z</time></trkpt><trkpt lat="44.59635162580083" lon="7.975497296385509"><ele>480.57142857142856</ele><time>2026-04-11T11:06:33Z</time></trkpt><trkpt lat="44.596360318179585" lon="7.975395308840791"><ele>477.0</ele><time>2026-04-11T11:06:34Z</time></trkpt><trkpt lat="44.59635203810455" lon="7.975292109793503"><ele>475.85714285714283</ele><time>2026-04-11T11:06:35Z</time></trkpt><trkpt lat="44.59633386259392" lon="7.975193563464521"><ele>474.71428571428567</ele><time>2026-04-11T11:06:36Z</time></trkpt><trkpt lat="44.59630957282183" lon="7.975103307936031"><ele>473.57142857142856</ele><time>2026-04-11T11:06:37Z</time></trkpt><trkpt lat="44.5962836342468" lon="7.975019648156881"><ele>472.42857142857144</ele><time>2026-04-11T11:06:38Z</time></trkpt><trkpt lat="44.59625548308143" lon="7.974934634238703"><ele>471.2857142857143</ele><time>2026-04-11T11:06:39Z</time></trkpt><trkpt lat="44.5962289428398" lon="7.974853568746412"><ele>470.1428571428571</ele><time>2026-04-11T11:06:40Z</time></trkpt><trkpt lat="44.59620086006009" lon="7.974773224723998"><ele>469.0</ele><time>2026-04-11T11:06:41Z</time></trkpt><trkpt lat="44.596173473919166" lon="7.974693487762593"><ele>473.0</ele><time>2026-04-11T11:06:42Z</time></trkpt><trkpt lat="44.59615017214762" lon="7.9746108549271915"><ele>477.0</ele><time>2026-04-11T11:06:43Z</time></trkpt><trkpt lat="44.596102195922676" lon="7.974446772385155"><ele>481.0</ele><time>2026-04-11T11:06:45Z</time></trkpt><trkpt lat="44.59603603340807" lon="7.97430536050594"><ele>485.0</ele><time>2026-04-11T11:06:47Z</time></trkpt><trkpt lat="44.59596015378992" lon="7.974176814506708"><ele>489.0</ele><time>2026-04-11T11:06:49Z</time></trkpt><trkpt lat="44.5958789034417" lon="7.97406247754897"><ele>489.0</ele><time>2026-04-11T11:06:51Z</time></trkpt><trkpt lat="44.59581784602557" lon="7.973938034008451"><ele>489.0</ele><time>2026-04-11T11:06:52.999Z</time></trkpt><trkpt lat="44.59580819093007" lon="7.973768116752847"><ele>489.0</ele><time>2026-04-11T11:06:54.999Z</time></trkpt><trkpt lat="44.59583249486624" lon="7.973607872211931"><ele>489.0</ele><time>2026-04-11T11:06:56.999Z</time></trkpt><trkpt lat="44.595807420397776" lon="7.973443099029125"><ele>489.0</ele><time>2026-04-11T11:06:58.999Z</time></trkpt><trkpt lat="44.595767730398244" lon="7.973369992591335"><ele>489.00000000000006</ele><time>2026-04-11T11:06:59.999Z</time></trkpt><trkpt lat="44.595711906952396" lon="7.973316151528924"><ele>489.0</ele><time>2026-04-11T11:07:00.999Z</time></trkpt><trkpt lat="44.59564497732299" lon="7.97327965558639"><ele>489.0</ele><time>2026-04-11T11:07:01.999Z</time></trkpt><trkpt lat="44.595571535071905" lon="7.973258143946383"><ele>489.00000000000006</ele><time>2026-04-11T11:07:02.999Z</time></trkpt><trkpt lat="44.59550334221472" lon="7.973236177566251"><ele>489.0</ele><time>2026-04-11T11:07:03.999Z</time></trkpt><trkpt lat="44.59543857494334" lon="7.973205923665106"><ele>489.0</ele><time>2026-04-11T11:07:04.999Z</time></trkpt><trkpt lat="44.59537320225961" lon="7.9731719646122325"><ele>490.0</ele><time>2026-04-11T11:07:05.999Z</time></trkpt><trkpt lat="44.59530957707915" lon="7.973135849145354"><ele>491.00000000000006</ele><time>2026-04-11T11:07:06.999Z</time></trkpt><trkpt lat="44.595243671133176" lon="7.9730992175355375"><ele>492.0</ele><time>2026-04-11T11:07:07.999Z</time></trkpt><trkpt lat="44.595179016043765" lon="7.973059938680441"><ele>493.0</ele><time>2026-04-11T11:07:08.999Z</time></trkpt><trkpt lat="44.59511435220311" lon="7.973013245192182"><ele>494.00000000000006</ele><time>2026-04-11T11:07:09.999Z</time></trkpt><trkpt lat="44.59504808306957" lon="7.972959435558075"><ele>495.0</ele><time>2026-04-11T11:07:10.999Z</time></trkpt><trkpt lat="44.594987151703556" lon="7.972897903864563"><ele>496.0</ele><time>2026-04-11T11:07:11.999Z</time></trkpt><trkpt lat="44.594939988543935" lon="7.972811892882278"><ele>496.0</ele><time>2026-04-11T11:07:12.999Z</time></trkpt><trkpt lat="44.59490105464453" lon="7.972718643661836"><ele>496.00000000000006</ele><time>2026-04-11T11:07:13.999Z</time></trkpt><trkpt lat="44.59486728705313" lon="7.972627124112788"><ele>496.0</ele><time>2026-04-11T11:07:14.999Z</time></trkpt><trkpt lat="44.59483096369513" lon="7.972537113627811"><ele>496.0</ele><time>2026-04-11T11:07:15.999Z</time></trkpt><trkpt lat="44.59480381020935" lon="7.972448779292478"><ele>496.00000000000006</ele><time>2026-04-11T11:07:16.999Z</time></trkpt><trkpt lat="44.59479379145855" lon="7.972358762445167"><ele>496.0</ele><time>2026-04-11T11:07:17.999Z</time></trkpt><trkpt lat="44.594759396609085" lon="7.97227873475473"><ele>496.0</ele><time>2026-04-11T11:07:18.999Z</time></trkpt><trkpt lat="44.59471542884475" lon="7.972200583923282"><ele>496.0</ele><time>2026-04-11T11:07:19.999Z</time></trkpt><trkpt lat="44.59467149747343" lon="7.972132307241007"><ele>496.0</ele><time>2026-04-11T11:07:20.999Z</time></trkpt><trkpt lat="44.5945722965364" lon="7.972036880352552"><ele>496.0</ele><time>2026-04-11T11:07:22.999Z</time></trkpt><trkpt lat="44.594469095361546" lon="7.971966912863222"><ele>496.0</ele><time>2026-04-11T11:07:24.999Z</time></trkpt><trkpt lat="44.59440648395487" lon="7.971939495236379"><ele>496.0</ele><time>2026-04-11T11:07:26.999Z</time></trkpt><trkpt lat="44.594350405625654" lon="7.972059816590977"><ele>496.00000000000006</ele><time>2026-04-11T11:07:27.999Z</time></trkpt><trkpt lat="44.59428893693148" lon="7.9721501047602334"><ele>496.0</ele><time>2026-04-11T11:07:29.999Z</time></trkpt><trkpt lat="44.594218033195055" lon="7.97215108998587"><ele>496.0</ele><time>2026-04-11T11:07:31.999Z</time></trkpt><trkpt lat="44.59413492078837" lon="7.972197806642051"><ele>496.0</ele><time>2026-04-11T11:07:34.999Z</time></trkpt><trkpt lat="44.59403919161312" lon="7.972222567809809"><ele>496.00000000000006</ele><time>2026-04-11T11:07:37.999Z</time></trkpt><trkpt lat="44.59397403986337" lon="7.972242555576324"><ele>496.0</ele><time>2026-04-11T11:07:39.999Z</time></trkpt><trkpt lat="44.5939107350828" lon="7.9722681063957594"><ele>496.00000000000006</ele><time>2026-04-11T11:07:41.999Z</time></trkpt><trkpt lat="44.593844185329864" lon="7.9722925778774725"><ele>496.0</ele><time>2026-04-11T11:07:43.999Z</time></trkpt><trkpt lat="44.593771315453104" lon="7.9723074268626295"><ele>496.0</ele><time>2026-04-11T11:07:46.999Z</time></trkpt><trkpt lat="44.59368111039837" lon="7.972304207555619"><ele>496.0</ele><time>2026-04-11T11:07:49.999Z</time></trkpt><trkpt lat="44.59357669768271" lon="7.972288160882315"><ele>496.00000000000006</ele><time>2026-04-11T11:07:52.999Z</time></trkpt><trkpt lat="44.593493377102114" lon="7.972238190911759"><ele>496.0</ele><time>2026-04-11T11:07:54.999Z</time></trkpt><trkpt lat="44.59343284542634" lon="7.972194956653109"><ele>497.33333333333337</ele><time>2026-04-11T11:07:56.999Z</time></trkpt><trkpt lat="44.59335874419219" lon="7.972150016418857"><ele>498.6666666666667</ele><time>2026-04-11T11:07:58.999Z</time></trkpt><trkpt lat="44.59329576201612" lon="7.97210449760688"><ele>500.0</ele><time>2026-04-11T11:08:00.999Z</time></trkpt><trkpt lat="44.59322975020754" lon="7.972081805181794"><ele>501.33333333333337</ele><time>2026-04-11T11:08:02.999Z</time></trkpt><trkpt lat="44.59316452763561" lon="7.972053401279983"><ele>502.6666666666667</ele><time>2026-04-11T11:08:04.999Z</time></trkpt><trkpt lat="44.59307167274229" lon="7.972057117799246"><ele>504.0</ele><time>2026-04-11T11:08:07.999Z</time></trkpt><trkpt lat="44.59298863951932" lon="7.972088918273022"><ele>504.0</ele><time>2026-04-11T11:08:10.999Z</time></trkpt><trkpt lat="44.59290723828753" lon="7.972146142286428"><ele>504.0</ele><time>2026-04-11T11:08:13.999Z</time></trkpt><trkpt lat="44.5928347676964" lon="7.972218589446256"><ele>504.0</ele><time>2026-04-11T11:08:16.999Z</time></trkpt><trkpt lat="44.592775182342244" lon="7.972304553666468"><ele>504.0</ele><time>2026-04-11T11:08:19.999Z</time></trkpt><trkpt lat="44.592707401545226" lon="7.972390265093917"><ele>504.0</ele><time>2026-04-11T11:08:22.999Z</time></trkpt><trkpt lat="44.592642774829294" lon="7.972473007902422"><ele>504.0</ele><time>2026-04-11T11:08:26.999Z</time></trkpt><trkpt lat="44.59257640416296" lon="7.972545148667622"><ele>507.5</ele><time>2026-04-11T11:08:29.999Z</time></trkpt><trkpt lat="44.592505978815254" lon="7.972606287975458"><ele>511.0</ele><time>2026-04-11T11:08:32.999Z</time></trkpt><trkpt lat="44.59244511130048" lon="7.972654778918882"><ele>514.5</ele><time>2026-04-11T11:08:35.999Z</time></trkpt><trkpt lat="44.59237449966698" lon="7.972692421891658"><ele>518.0</ele><time>2026-04-11T11:08:38.999Z</time></trkpt><trkpt lat="44.59229731947505" lon="7.972689033036509"><ele>521.5</ele><time>2026-04-11T11:08:42.999Z</time></trkpt><trkpt lat="44.59222021825887" lon="7.972670269031222"><ele>525.0</ele><time>2026-04-11T11:08:45.999Z</time></trkpt><trkpt lat="44.59215373055377" lon="7.97267344212853"><ele>525.0</ele><time>2026-04-11T11:08:48.999Z</time></trkpt><trkpt lat="44.59208406400304" lon="7.9726724131478885"><ele>525.0</ele><time>2026-04-11T11:08:52.999Z</time></trkpt><trkpt lat="44.59201390417903" lon="7.972659276991262"><ele>525.0</ele><time>2026-04-11T11:08:56.999Z</time></trkpt><trkpt lat="44.59194437495332" lon="7.972664430387359"><ele>525.0</ele><time>2026-04-11T11:09:00.999Z</time></trkpt><trkpt lat="44.59186580312375" lon="7.972650058191406"><ele>525.0</ele><time>2026-04-11T11:09:04.999Z</time></trkpt><trkpt lat="44.59180125340666" lon="7.9726293350541715"><ele>525.0</ele><time>2026-04-11T11:09:07.999Z</time></trkpt><trkpt lat="44.591736652895435" lon="7.972616413008615"><ele>525.0</ele><time>2026-04-11T11:09:10.999Z</time></trkpt><trkpt lat="44.59167214279625" lon="7.972605401237724"><ele>523.5714285714286</ele><time>2026-04-11T11:09:13.999Z</time></trkpt><trkpt lat="44.591593468224964" lon="7.972586934130368"><ele>522.1428571428571</ele><time>2026-04-11T11:09:16.999Z</time></trkpt><trkpt lat="44.59152247341577" lon="7.972569866822257"><ele>520.7142857142858</ele><time>2026-04-11T11:09:19.999Z</time></trkpt><trkpt lat="44.59146063736578" lon="7.972536490369769"><ele>519.2857142857142</ele><time>2026-04-11T11:09:22.999Z</time></trkpt><trkpt lat="44.59139383116651" lon="7.972507305140337"><ele>517.8571428571429</ele><time>2026-04-11T11:09:25.999Z</time></trkpt><trkpt lat="44.591322437309195" lon="7.972455040405411"><ele>516.4285714285714</ele><time>2026-04-11T11:09:29.999Z</time></trkpt><trkpt lat="44.591263320208085" lon="7.972412378535665"><ele>515.0</ele><time>2026-04-11T11:09:32.999Z</time></trkpt><trkpt lat="44.59119488122632" lon="7.972355527376206"><ele>514.7142857142858</ele><time>2026-04-11T11:09:36.999Z</time></trkpt><trkpt lat="44.59111686647892" lon="7.972312853890771"><ele>514.4285714285714</ele><time>2026-04-11T11:09:40.999Z</time></trkpt><trkpt lat="44.591055335158885" lon="7.972276366636732"><ele>514.1428571428571</ele><time>2026-04-11T11:09:43.999Z</time></trkpt><trkpt lat="44.590997673316906" lon="7.972232270763095"><ele>513.8571428571429</ele><time>2026-04-11T11:09:46.999Z</time></trkpt><trkpt lat="44.59093258303968" lon="7.972199465272139"><ele>513.5714285714286</ele><time>2026-04-11T11:09:49.999Z</time></trkpt><trkpt lat="44.59086318291059" lon="7.972165639854116"><ele>513.2857142857143</ele><time>2026-04-11T11:09:52.999Z</time></trkpt><trkpt lat="44.59080314611567" lon="7.972135187261455"><ele>513.0</ele><time>2026-04-11T11:09:54.999Z</time></trkpt><trkpt lat="44.59072168727664" lon="7.972099590053679"><ele>513.0</ele><time>2026-04-11T11:09:58.999Z</time></trkpt><trkpt lat="44.59064169732968" lon="7.972059692711972"><ele>513.0</ele><time>2026-04-11T11:10:02Z</time></trkpt><trkpt lat="44.59045654894723" lon="7.971955612868794"><ele>513.0</ele><time>2026-04-11T11:10:05Z</time></trkpt><trkpt lat="44.590384420651304" lon="7.971913284523823"><ele>513.0</ele><time>2026-04-11T11:10:07Z</time></trkpt><trkpt lat="44.59031203261055" lon="7.9718792663946125"><ele>513.0</ele><time>2026-04-11T11:10:09Z</time></trkpt><trkpt lat="44.59024745441932" lon="7.971837856276695"><ele>513.2857142857143</ele><time>2026-04-11T11:10:11Z</time></trkpt><trkpt lat="44.59017980885463" lon="7.971804101498732"><ele>513.5714285714286</ele><time>2026-04-11T11:10:13Z</time></trkpt><trkpt lat="44.59011050441002" lon="7.9717630678883875"><ele>513.8571428571429</ele><time>2026-04-11T11:10:15Z</time></trkpt><trkpt lat="44.59003650161611" lon="7.971734547782556"><ele>514.1428571428571</ele><time>2026-04-11T11:10:17Z</time></trkpt><trkpt lat="44.58997630467034" lon="7.971697942592131"><ele>514.4285714285714</ele><time>2026-04-11T11:10:19Z</time></trkpt><trkpt lat="44.58991130538619" lon="7.97165836031136"><ele>514.7142857142858</ele><time>2026-04-11T11:10:21Z</time></trkpt><trkpt lat="44.58984581485945" lon="7.971623203460394"><ele>515.0</ele><time>2026-04-11T11:10:23Z</time></trkpt><trkpt lat="44.58978131991332" lon="7.971620351517586"><ele>515.5</ele><time>2026-04-11T11:10:25Z</time></trkpt><trkpt lat="44.58969918802424" lon="7.971592356308902"><ele>516.0</ele><time>2026-04-11T11:10:28Z</time></trkpt><trkpt lat="44.58962929785742" lon="7.9715610603032365"><ele>516.5</ele><time>2026-04-11T11:10:31Z</time></trkpt><trkpt lat="44.589543887573846" lon="7.9714840550700865"><ele>517.0</ele><time>2026-04-11T11:10:32Z</time></trkpt><trkpt lat="44.58947905284636" lon="7.971470580947873"><ele>517.5</ele><time>2026-04-11T11:10:34Z</time></trkpt><trkpt lat="44.58941307382742" lon="7.971438552658152"><ele>518.0</ele><time>2026-04-11T11:10:36Z</time></trkpt><trkpt lat="44.589328893778195" lon="7.971358193203624"><ele>518.6666666666666</ele><time>2026-04-11T11:10:39Z</time></trkpt><trkpt lat="44.58928207542294" lon="7.971298829176271"><ele>519.3333333333333</ele><time>2026-04-11T11:10:40Z</time></trkpt><trkpt lat="44.589238295941634" lon="7.97122580173605"><ele>520.0</ele><time>2026-04-11T11:10:41Z</time></trkpt><trkpt lat="44.5891920802047" lon="7.971160745784829"><ele>520.6666666666666</ele><time>2026-04-11T11:10:42Z</time></trkpt><trkpt lat="44.58912804878049" lon="7.971088807925132"><ele>521.3333333333334</ele><time>2026-04-11T11:10:43Z</time></trkpt><trkpt lat="44.589045715601365" lon="7.9710367342166695"><ele>522.0</ele><time>2026-04-11T11:10:43.999Z</time></trkpt><trkpt lat="44.588942051796074" lon="7.971010088885242"><ele>522.0</ele><time>2026-04-11T11:10:44.999Z</time></trkpt><trkpt lat="44.58884133395868" lon="7.970999951067256"><ele>522.0</ele><time>2026-04-11T11:10:45.999Z</time></trkpt><trkpt lat="44.58873942851852" lon="7.971001203981555"><ele>522.0</ele><time>2026-04-11T11:10:46.999Z</time></trkpt><trkpt lat="44.58862644610298" lon="7.971020753411272"><ele>522.0</ele><time>2026-04-11T11:10:47.999Z</time></trkpt><trkpt lat="44.58851329670441" lon="7.971060490846486"><ele>522.0</ele><time>2026-04-11T11:10:48.999Z</time></trkpt><trkpt lat="44.58841639961839" lon="7.971138121919762"><ele>521.0</ele><time>2026-04-11T11:10:49.999Z</time></trkpt><trkpt lat="44.58832037990757" lon="7.971206154034445"><ele>520.0</ele><time>2026-04-11T11:10:50.999Z</time></trkpt><trkpt lat="44.588231192222835" lon="7.971269972836516"><ele>519.0</ele><time>2026-04-11T11:10:51.999Z</time></trkpt><trkpt lat="44.588147967995496" lon="7.9713301936709495"><ele>518.0</ele><time>2026-04-11T11:10:52.999Z</time></trkpt><trkpt lat="44.58808370069168" lon="7.971377138899943"><ele>517.0</ele><time>2026-04-11T11:10:53.999Z</time></trkpt><trkpt lat="44.587985031412366" lon="7.971452952768771"><ele>517.0</ele><time>2026-04-11T11:10:55.999Z</time></trkpt><trkpt lat="44.58789133457325" lon="7.971434469340761"><ele>517.0</ele><time>2026-04-11T11:10:58.999Z</time></trkpt><trkpt lat="44.58782409101645" lon="7.971397002648535"><ele>517.0</ele><time>2026-04-11T11:11:00.999Z</time></trkpt><trkpt lat="44.58776216519932" lon="7.9713735679541475"><ele>517.0</ele><time>2026-04-11T11:11:02.999Z</time></trkpt><trkpt lat="44.587702283444585" lon="7.97132745964867"><ele>517.0</ele><time>2026-04-11T11:11:04.999Z</time></trkpt><trkpt lat="44.58764454716964" lon="7.971289700369014"><ele>517.0</ele><time>2026-04-11T11:11:06.999Z</time></trkpt><trkpt lat="44.58758065884361" lon="7.9712424736305385"><ele>517.0</ele><time>2026-04-11T11:11:09.999Z</time></trkpt><trkpt lat="44.58748507219118" lon="7.971233498101591"><ele>518.5</ele><time>2026-04-11T11:11:12.999Z</time></trkpt><trkpt lat="44.58741339300926" lon="7.9712417051794"><ele>520.0</ele><time>2026-04-11T11:11:14.999Z</time></trkpt><trkpt lat="44.587342262266546" lon="7.971250815829655"><ele>521.5</ele><time>2026-04-11T11:11:16.999Z</time></trkpt><trkpt lat="44.587244778755704" lon="7.9712533490211746"><ele>523.0</ele><time>2026-04-11T11:11:18.999Z</time></trkpt><trkpt lat="44.58716062485661" lon="7.97126136007765"><ele>524.5</ele><time>2026-04-11T11:11:20.999Z</time></trkpt><trkpt lat="44.587090517510006" lon="7.97126740375721"><ele>526.0</ele><time>2026-04-11T11:11:22.999Z</time></trkpt><trkpt lat="44.58702362276237" lon="7.971267614135286"><ele>528.0</ele><time>2026-04-11T11:11:24.999Z</time></trkpt><trkpt lat="44.5869587901283" lon="7.971262223895111"><ele>530.0</ele><time>2026-04-11T11:11:26.999Z</time></trkpt><trkpt lat="44.586864124930436" lon="7.971244835200187"><ele>532.0</ele><time>2026-04-11T11:11:29.999Z</time></trkpt><trkpt lat="44.58677319704536" lon="7.9712162386547565"><ele>534.0</ele><time>2026-04-11T11:11:32.999Z</time></trkpt><trkpt lat="44.58669021725765" lon="7.971182438113922"><ele>536.0</ele><time>2026-04-11T11:11:35.999Z</time></trkpt><trkpt lat="44.58662836873066" lon="7.971159048679701"><ele>538.0</ele><time>2026-04-11T11:11:37.999Z</time></trkpt><trkpt lat="44.586559505284185" lon="7.97113343149516"><ele>538.0</ele><time>2026-04-11T11:11:39.999Z</time></trkpt><trkpt lat="44.58648575508026" lon="7.971104816717066"><ele>538.0</ele><time>2026-04-11T11:11:41.999Z</time></trkpt><trkpt lat="44.58640430288457" lon="7.971076209143719"><ele>538.0</ele><time>2026-04-11T11:11:43.999Z</time></trkpt><trkpt lat="44.58632142876632" lon="7.9710420164251525"><ele>538.0</ele><time>2026-04-11T11:11:45.999Z</time></trkpt><trkpt lat="44.586236308015216" lon="7.970999419929953"><ele>538.0</ele><time>2026-04-11T11:11:47.999Z</time></trkpt><trkpt lat="44.5861412215525" lon="7.970925851055557"><ele>538.0</ele><time>2026-04-11T11:11:49.999Z</time></trkpt><trkpt lat="44.58606061392819" lon="7.970860922057348"><ele>537.6</ele><time>2026-04-11T11:11:51.999Z</time></trkpt><trkpt lat="44.585983067582944" lon="7.970788882010478"><ele>537.1999999999999</ele><time>2026-04-11T11:11:53.999Z</time></trkpt><trkpt lat="44.5859093342441" lon="7.970705428896484"><ele>536.8</ele><time>2026-04-11T11:11:55.999Z</time></trkpt><trkpt lat="44.58583427165162" lon="7.970622885016918"><ele>536.4</ele><time>2026-04-11T11:11:57.999Z</time></trkpt><trkpt lat="44.58575593488107" lon="7.970515207984041"><ele>536.0</ele><time>2026-04-11T11:11:59.999Z</time></trkpt><trkpt lat="44.58567582359009" lon="7.970374880168766"><ele>536.0</ele><time>2026-04-11T11:12:01.999Z</time></trkpt><trkpt lat="44.58563140139872" lon="7.970291490903372"><ele>536.0</ele><time>2026-04-11T11:12:02.999Z</time></trkpt><trkpt lat="44.585583622880385" lon="7.970202838635242"><ele>536.0</ele><time>2026-04-11T11:12:03.999Z</time></trkpt><trkpt lat="44.585529001582984" lon="7.970113208149204"><ele>536.0</ele><time>2026-04-11T11:12:04.999Z</time></trkpt><trkpt lat="44.58546815338428" lon="7.9700304775190505"><ele>536.0</ele><time>2026-04-11T11:12:05.999Z</time></trkpt><trkpt lat="44.58541363950873" lon="7.969968891752645"><ele>536.0</ele><time>2026-04-11T11:12:07Z</time></trkpt><trkpt lat="44.585328722628034" lon="7.969880686729997"><ele>534.1666666666666</ele><time>2026-04-11T11:12:09Z</time></trkpt><trkpt lat="44.5853221735588" lon="7.969777549702913"><ele>532.3333333333333</ele><time>2026-04-11T11:12:10Z</time></trkpt><trkpt lat="44.58531367903712" lon="7.96966190402024"><ele>530.5</ele><time>2026-04-11T11:12:11Z</time></trkpt><trkpt lat="44.5853124856553" lon="7.969549870377851"><ele>528.6666666666666</ele><time>2026-04-11T11:12:12Z</time></trkpt><trkpt lat="44.585310075028175" lon="7.9694351015192115"><ele>526.8333333333334</ele><time>2026-04-11T11:12:13Z</time></trkpt><trkpt lat="44.58532873323247" lon="7.969345782276914"><ele>525.0</ele><time>2026-04-11T11:12:14Z</time></trkpt><trkpt lat="44.58530779644022" lon="7.969250239816906"><ele>523.8333333333334</ele><time>2026-04-11T11:12:15Z</time></trkpt><trkpt lat="44.58530761842135" lon="7.969131501326237"><ele>522.6666666666666</ele><time>2026-04-11T11:12:17Z</time></trkpt><trkpt lat="44.58540245648438" lon="7.9690777102546395"><ele>521.5</ele><time>2026-04-11T11:12:20Z</time></trkpt><trkpt lat="44.585466161508506" lon="7.969043571834778"><ele>520.3333333333333</ele><time>2026-04-11T11:12:22Z</time></trkpt><trkpt lat="44.58554429315452" lon="7.96900170333878"><ele>519.1666666666666</ele><time>2026-04-11T11:12:25Z</time></trkpt><trkpt lat="44.585538583710964" lon="7.968863460022853"><ele>518.0</ele><time>2026-04-11T11:12:26Z</time></trkpt><trkpt lat="44.585559913423715" lon="7.9687253412535135"><ele>518.0</ele><time>2026-04-11T11:12:28Z</time></trkpt><trkpt lat="44.585531146697704" lon="7.96859698303829"><ele>518.0</ele><time>2026-04-11T11:12:30Z</time></trkpt><trkpt lat="44.58549616169296" lon="7.9684961617455015"><ele>518.0</ele><time>2026-04-11T11:12:32Z</time></trkpt><trkpt lat="44.58544794763762" lon="7.968368905117918"><ele>518.0</ele><time>2026-04-11T11:12:34Z</time></trkpt><trkpt lat="44.58540262027578" lon="7.9682543847776275"><ele>518.0</ele><time>2026-04-11T11:12:36Z</time></trkpt><trkpt lat="44.585347917380126" lon="7.968134295888982"><ele>518.5</ele><time>2026-04-11T11:12:38Z</time></trkpt><trkpt lat="44.585287265963046" lon="7.9680663343313665"><ele>519.0</ele><time>2026-04-11T11:12:40Z</time></trkpt><trkpt lat="44.585174730771726" lon="7.9679986189513805"><ele>519.5</ele><time>2026-04-11T11:12:42Z</time></trkpt><trkpt lat="44.58507979810078" lon="7.967999162989184"><ele>520.0</ele><time>2026-04-11T11:12:44Z</time></trkpt><trkpt lat="44.585026015885084" lon="7.968057728673607"><ele>520.5</ele><time>2026-04-11T11:12:46Z</time></trkpt><trkpt lat="44.584961043938144" lon="7.968108826579052"><ele>521.0</ele><time>2026-04-11T11:12:49Z</time></trkpt><trkpt lat="44.584972609299854" lon="7.9683488113981875"><ele>520.3333333333333</ele><time>2026-04-11T11:12:51Z</time></trkpt><trkpt lat="44.584917328550446" lon="7.968433997744908"><ele>519.6666666666666</ele><time>2026-04-11T11:12:53Z</time></trkpt><trkpt lat="44.58484510509751" lon="7.968514831788305"><ele>519.0</ele><time>2026-04-11T11:12:55Z</time></trkpt><trkpt lat="44.58477546467075" lon="7.968515367844474"><ele>518.3333333333334</ele><time>2026-04-11T11:12:56Z</time></trkpt><trkpt lat="44.5847061461819" lon="7.968489386873131"><ele>517.6666666666667</ele><time>2026-04-11T11:12:56.999Z</time></trkpt><trkpt lat="44.58463612890376" lon="7.968468775208593"><ele>517.0</ele><time>2026-04-11T11:12:57.999Z</time></trkpt><trkpt lat="44.584572290157965" lon="7.968451783669264"><ele>515.2857142857143</ele><time>2026-04-11T11:12:58.999Z</time></trkpt><trkpt lat="44.58451055858417" lon="7.968389096345058"><ele>513.5714285714287</ele><time>2026-04-11T11:12:59.999Z</time></trkpt><trkpt lat="44.58443957630181" lon="7.968348658032903"><ele>511.8571428571429</ele><time>2026-04-11T11:13:00.999Z</time></trkpt><trkpt lat="44.58437141470848" lon="7.968301875617907"><ele>510.1428571428571</ele><time>2026-04-11T11:13:02.999Z</time></trkpt><trkpt lat="44.58435905239794" lon="7.96819779122233"><ele>508.4285714285714</ele><time>2026-04-11T11:13:05.999Z</time></trkpt><trkpt lat="44.58433223628591" lon="7.968093737410848"><ele>506.71428571428567</ele><time>2026-04-11T11:13:08.999Z</time></trkpt><trkpt lat="44.58434577920219" lon="7.9680031719283075"><ele>505.0</ele><time>2026-04-11T11:13:13.999Z</time></trkpt><trkpt lat="44.58432023691712" lon="7.968109382280328"><ele>505.00000000000006</ele><time>2026-04-11T11:13:20.999Z</time></trkpt><trkpt lat="44.58426469091659" lon="7.968178315649322"><ele>505.0</ele><time>2026-04-11T11:13:23.999Z</time></trkpt><trkpt lat="44.584204315009345" lon="7.968236942173155"><ele>505.0</ele><time>2026-04-11T11:13:33.999Z</time></trkpt><trkpt lat="44.5842216265785" lon="7.968125151364094"><ele>505.0</ele><time>2026-04-11T11:13:36.999Z</time></trkpt><trkpt lat="44.58421476915133" lon="7.968016065857286"><ele>505.00000000000006</ele><time>2026-04-11T11:13:39.999Z</time></trkpt><trkpt lat="44.58413773127862" lon="7.968033892511333"><ele>505.0</ele><time>2026-04-11T11:13:42.999Z</time></trkpt><trkpt lat="44.58409608173445" lon="7.9681072746627795"><ele>505.0</ele><time>2026-04-11T11:13:45.999Z</time></trkpt><trkpt lat="44.584002734204056" lon="7.968107287600456"><ele>505.0</ele><time>2026-04-11T11:13:48.999Z</time></trkpt><trkpt lat="44.58394711434231" lon="7.96819886103035"><ele>505.0</ele><time>2026-04-11T11:13:51.999Z</time></trkpt><trkpt lat="44.583928274950736" lon="7.968291869711309"><ele>505.0</ele><time>2026-04-11T11:13:54.999Z</time></trkpt><trkpt lat="44.58383623533485" lon="7.96824645769624"><ele>505.0</ele><time>2026-04-11T11:13:57.999Z</time></trkpt><trkpt lat="44.58381672300512" lon="7.968098380382741"><ele>505.0</ele><time>2026-04-11T11:13:59.999Z</time></trkpt><trkpt lat="44.58377653164108" lon="7.967985372314738"><ele>505.0</ele><time>2026-04-11T11:14:01.999Z</time></trkpt><trkpt lat="44.583739744979525" lon="7.96784403251911"><ele>505.0</ele><time>2026-04-11T11:14:03.999Z</time></trkpt><trkpt lat="44.58370857083874" lon="7.9677336815970365"><ele>505.0</ele><time>2026-04-11T11:14:05.999Z</time></trkpt><trkpt lat="44.58363003347127" lon="7.9676804985645235"><ele>505.0</ele><time>2026-04-11T11:14:07.999Z</time></trkpt><trkpt lat="44.58356028933628" lon="7.967739348174572"><ele>500.83333333333337</ele><time>2026-04-11T11:14:08.999Z</time></trkpt><trkpt lat="44.58349335268185" lon="7.967800823957012"><ele>496.6666666666667</ele><time>2026-04-11T11:14:09.999Z</time></trkpt><trkpt lat="44.58341484857402" lon="7.96781615982383"><ele>492.5</ele><time>2026-04-11T11:14:11.999Z</time></trkpt><trkpt lat="44.58334786610099" lon="7.967790003639214"><ele>488.33333333333337</ele><time>2026-04-11T11:14:13Z</time></trkpt><trkpt lat="44.583271374738175" lon="7.9677541072900135"><ele>484.1666666666667</ele><time>2026-04-11T11:14:15Z</time></trkpt><trkpt lat="44.58319913157758" lon="7.967726782701544"><ele>480.0</ele><time>2026-04-11T11:14:18Z</time></trkpt><trkpt lat="44.58335572152845" lon="7.96747585371974"><ele>479.0</ele><time>2026-04-11T11:14:24Z</time></trkpt><trkpt lat="44.58345273729477" lon="7.967385296621893"><ele>478.0</ele><time>2026-04-11T11:14:26Z</time></trkpt><trkpt lat="44.58350883757442" lon="7.967334896244599"><ele>477.0</ele><time>2026-04-11T11:14:27Z</time></trkpt><trkpt lat="44.58356457628143" lon="7.967284293005485"><ele>476.0</ele><time>2026-04-11T11:14:28Z</time></trkpt><trkpt lat="44.58362024993523" lon="7.967227381957641"><ele>475.0</ele><time>2026-04-11T11:14:29Z</time></trkpt><trkpt lat="44.58367210574605" lon="7.967149662128288"><ele>474.0</ele><time>2026-04-11T11:14:30Z</time></trkpt><trkpt lat="44.58372911389442" lon="7.967079398863744"><ele>473.0</ele><time>2026-04-11T11:14:31Z</time></trkpt><trkpt lat="44.583794916379645" lon="7.967017945823166"><ele>472.0</ele><time>2026-04-11T11:14:32Z</time></trkpt><trkpt lat="44.58385542395717" lon="7.966941970189507"><ele>471.0</ele><time>2026-04-11T11:14:33Z</time></trkpt><trkpt lat="44.58391886596785" lon="7.966866280095629"><ele>470.0</ele><time>2026-04-11T11:14:34Z</time></trkpt><trkpt lat="44.583982029530844" lon="7.966785858402714"><ele>469.0</ele><time>2026-04-11T11:14:35Z</time></trkpt><trkpt lat="44.5840462260458" lon="7.966705603845687"><ele>468.0</ele><time>2026-04-11T11:14:36Z</time></trkpt><trkpt lat="44.584114711308615" lon="7.966626058800152"><ele>468.0</ele><time>2026-04-11T11:14:37Z</time></trkpt><trkpt lat="44.58418120382922" lon="7.966544923525002"><ele>467.99999999999994</ele><time>2026-04-11T11:14:38Z</time></trkpt><trkpt lat="44.58425212082045" lon="7.96646718896735"><ele>467.99999999999994</ele><time>2026-04-11T11:14:39Z</time></trkpt><trkpt lat="44.58431890759062" lon="7.9663831407116845"><ele>468.0</ele><time>2026-04-11T11:14:40Z</time></trkpt><trkpt lat="44.58438369465432" lon="7.966295077066755"><ele>468.0</ele><time>2026-04-11T11:14:41Z</time></trkpt><trkpt lat="44.58444889328487" lon="7.9662013573330075"><ele>470.2</ele><time>2026-04-11T11:14:42Z</time></trkpt><trkpt lat="44.58452621426226" lon="7.9661217549746315"><ele>472.4</ele><time>2026-04-11T11:14:43Z</time></trkpt><trkpt lat="44.5846153242133" lon="7.966052149059075"><ele>474.59999999999997</ele><time>2026-04-11T11:14:44Z</time></trkpt><trkpt lat="44.58470935816055" lon="7.965985183528322"><ele>476.79999999999995</ele><time>2026-04-11T11:14:45Z</time></trkpt><trkpt lat="44.584806761389146" lon="7.965931859367824"><ele>479.0</ele><time>2026-04-11T11:14:46Z</time></trkpt><trkpt lat="44.58491191113535" lon="7.965894918052695"><ele>474.5</ele><time>2026-04-11T11:14:47Z</time></trkpt><trkpt lat="44.585017061899016" lon="7.965855230083225"><ele>470.0</ele><time>2026-04-11T11:14:48Z</time></trkpt><trkpt lat="44.585118970953296" lon="7.965789182422911"><ele>465.5</ele><time>2026-04-11T11:14:49Z</time></trkpt><trkpt lat="44.58521543328213" lon="7.965703179962843"><ele>461.0</ele><time>2026-04-11T11:14:50Z</time></trkpt><trkpt lat="44.58530877570101" lon="7.965609986356832"><ele>462.5</ele><time>2026-04-11T11:14:51Z</time></trkpt><trkpt lat="44.58538470141578" lon="7.965489346987449"><ele>464.0</ele><time>2026-04-11T11:14:52Z</time></trkpt><trkpt lat="44.58544244805227" lon="7.965355761703476"><ele>465.5</ele><time>2026-04-11T11:14:53Z</time></trkpt><trkpt lat="44.58549725510926" lon="7.9652070862344315"><ele>467.0</ele><time>2026-04-11T11:14:54Z</time></trkpt><trkpt lat="44.58555571413925" lon="7.965065607886877"><ele>464.25</ele><time>2026-04-11T11:14:54.999Z</time></trkpt><trkpt lat="44.58560109582934" lon="7.96490379804405"><ele>461.5</ele><time>2026-04-11T11:14:55.999Z</time></trkpt><trkpt lat="44.58563346276678" lon="7.964742367542855"><ele>458.75</ele><time>2026-04-11T11:14:56.999Z</time></trkpt><trkpt lat="44.58567622090032" lon="7.964584728133052"><ele>456.0</ele><time>2026-04-11T11:14:57.999Z</time></trkpt><trkpt lat="44.58573049303403" lon="7.964425736771414"><ele>456.0</ele><time>2026-04-11T11:14:58.999Z</time></trkpt><trkpt lat="44.585783933787894" lon="7.964267790674134"><ele>456.0</ele><time>2026-04-11T11:14:59.999Z</time></trkpt><trkpt lat="44.5858392705742" lon="7.964112786210716"><ele>456.0</ele><time>2026-04-11T11:15:00.999Z</time></trkpt><trkpt lat="44.58589428877781" lon="7.96395210689541"><ele>456.0</ele><time>2026-04-11T11:15:01.999Z</time></trkpt><trkpt lat="44.58595237265402" lon="7.9637913343537985"><ele>453.20000000000005</ele><time>2026-04-11T11:15:02.999Z</time></trkpt><trkpt lat="44.58600591812412" lon="7.963636064354168"><ele>450.40000000000003</ele><time>2026-04-11T11:15:03.999Z</time></trkpt><trkpt lat="44.58605846410027" lon="7.963500415801738"><ele>447.6</ele><time>2026-04-11T11:15:04.999Z</time></trkpt><trkpt lat="44.58610130217514" lon="7.963393996179396"><ele>444.8</ele><time>2026-04-11T11:15:05.999Z</time></trkpt><trkpt lat="44.586149389060786" lon="7.963282626267115"><ele>442.0</ele><time>2026-04-11T11:15:07.999Z</time></trkpt><trkpt lat="44.58625410206783" lon="7.963411339971003"><ele>441.33333333333337</ele><time>2026-04-11T11:15:14.999Z</time></trkpt><trkpt lat="44.58632041860488" lon="7.963437120787454"><ele>440.6666666666667</ele><time>2026-04-11T11:15:16.999Z</time></trkpt><trkpt lat="44.58639667115307" lon="7.963494442435558"><ele>440.0</ele><time>2026-04-11T11:15:18.999Z</time></trkpt><trkpt lat="44.586500030086434" lon="7.963563237017313"><ele>439.33333333333337</ele><time>2026-04-11T11:15:20.999Z</time></trkpt><trkpt lat="44.58656638114334" lon="7.963601245281217"><ele>438.6666666666667</ele><time>2026-04-11T11:15:21.999Z</time></trkpt><trkpt lat="44.586631009648244" lon="7.963638418687641"><ele>438.0</ele><time>2026-04-11T11:15:22.999Z</time></trkpt><trkpt lat="44.58669100204156" lon="7.963678249957468"><ele>438.0</ele><time>2026-04-11T11:15:23.999Z</time></trkpt><trkpt lat="44.58676047154167" lon="7.963723430908449"><ele>438.0</ele><time>2026-04-11T11:15:24.999Z</time></trkpt><trkpt lat="44.586829078788824" lon="7.9637777712518645"><ele>438.0</ele><time>2026-04-11T11:15:25.999Z</time></trkpt><trkpt lat="44.58689957706006" lon="7.963837266964814"><ele>438.0</ele><time>2026-04-11T11:15:26.999Z</time></trkpt><trkpt lat="44.586959297867715" lon="7.9638815405576056"><ele>438.0</ele><time>2026-04-11T11:15:27.999Z</time></trkpt><trkpt lat="44.58701771680384" lon="7.963925930010915"><ele>438.0</ele><time>2026-04-11T11:15:28.999Z</time></trkpt><trkpt lat="44.58711708767616" lon="7.964020904744371"><ele>436.59999999999997</ele><time>2026-04-11T11:15:30.999Z</time></trkpt><trkpt lat="44.587210365704436" lon="7.964117895051927"><ele>435.19999999999993</ele><time>2026-04-11T11:15:32.999Z</time></trkpt><trkpt lat="44.58728189990419" lon="7.964211281744173"><ele>433.8</ele><time>2026-04-11T11:15:34.999Z</time></trkpt><trkpt lat="44.587345979085114" lon="7.964291964177861"><ele>432.4</ele><time>2026-04-11T11:15:36.999Z</time></trkpt><trkpt lat="44.587419495406756" lon="7.964376782682515"><ele>431.0</ele><time>2026-04-11T11:15:38.999Z</time></trkpt><trkpt lat="44.58749819625991" lon="7.964475149213918"><ele>430.99999999999994</ele><time>2026-04-11T11:15:40.999Z</time></trkpt><trkpt lat="44.58757446124692" lon="7.964575600488871"><ele>431.0</ele><time>2026-04-11T11:15:42.999Z</time></trkpt><trkpt lat="44.58763900497061" lon="7.964643208290358"><ele>431.0</ele><time>2026-04-11T11:15:57.999Z</time></trkpt><trkpt lat="44.58768797303789" lon="7.964702216686763"><ele>431.0</ele><time>2026-04-11T11:15:59.999Z</time></trkpt><trkpt lat="44.58774175068882" lon="7.964779489174658"><ele>430.99999999999994</ele><time>2026-04-11T11:16:01.999Z</time></trkpt><trkpt lat="44.587813777788185" lon="7.964860668974352"><ele>431.0</ele><time>2026-04-11T11:16:03.999Z</time></trkpt><trkpt lat="44.58788884019273" lon="7.964966994755853"><ele>427.99999999999994</ele><time>2026-04-11T11:16:05.999Z</time></trkpt><trkpt lat="44.58797497169031" lon="7.965086087990092"><ele>425.0</ele><time>2026-04-11T11:16:07.999Z</time></trkpt><trkpt lat="44.58802158387393" lon="7.96514986800107"><ele>422.0</ele><time>2026-04-11T11:16:08.999Z</time></trkpt><trkpt lat="44.58805530091241" lon="7.965231794121696"><ele>419.0</ele><time>2026-04-11T11:16:09.999Z</time></trkpt><trkpt lat="44.5880745128567" lon="7.965327906784602"><ele>415.99999999999994</ele><time>2026-04-11T11:16:10.999Z</time></trkpt><trkpt lat="44.588067696578904" lon="7.965429194602472"><ele>413.0</ele><time>2026-04-11T11:16:11.999Z</time></trkpt><trkpt lat="44.58808098253288" lon="7.965534387385061"><ele>412.99999999999994</ele><time>2026-04-11T11:16:12.999Z</time></trkpt><trkpt lat="44.588070765337825" lon="7.965640965834744"><ele>413.0</ele><time>2026-04-11T11:16:13.999Z</time></trkpt><trkpt lat="44.588062623352826" lon="7.965754721190255"><ele>413.0</ele><time>2026-04-11T11:16:14.999Z</time></trkpt><trkpt lat="44.58805916348341" lon="7.965873178784951"><ele>413.0</ele><time>2026-04-11T11:16:15.999Z</time></trkpt><trkpt lat="44.58805573777792" lon="7.9659825999171225"><ele>412.99999999999994</ele><time>2026-04-11T11:16:16.999Z</time></trkpt><trkpt lat="44.58805529742294" lon="7.9660957644385695"><ele>413.0</ele><time>2026-04-11T11:16:17.999Z</time></trkpt><trkpt lat="44.58807515599577" lon="7.96620013140198"><ele>414.2</ele><time>2026-04-11T11:16:18.999Z</time></trkpt><trkpt lat="44.58811352907817" lon="7.966300767240476"><ele>415.4</ele><time>2026-04-11T11:16:19.999Z</time></trkpt><trkpt lat="44.588158018469414" lon="7.9663771723791275"><ele>416.59999999999997</ele><time>2026-04-11T11:16:20.999Z</time></trkpt><trkpt lat="44.588187372736456" lon="7.9664576742544995"><ele>417.79999999999995</ele><time>2026-04-11T11:16:21.999Z</time></trkpt><trkpt lat="44.58830425806051" lon="7.96650341682082"><ele>419.0</ele><time>2026-04-11T11:16:23.999Z</time></trkpt><trkpt lat="44.588386955054744" lon="7.966385124624002"><ele>419.0</ele><time>2026-04-11T11:16:25.999Z</time></trkpt><trkpt lat="44.588423061353126" lon="7.966303634156478"><ele>419.0</ele><time>2026-04-11T11:16:26.999Z</time></trkpt><trkpt lat="44.58846339156368" lon="7.966126606774164"><ele>419.0</ele><time>2026-04-11T11:16:28.999Z</time></trkpt><trkpt lat="44.588498621413905" lon="7.966033727627313"><ele>419.0</ele><time>2026-04-11T11:16:29.999Z</time></trkpt><trkpt lat="44.58854878862954" lon="7.965934574651061"><ele>419.0</ele><time>2026-04-11T11:16:30.999Z</time></trkpt><trkpt lat="44.588597020509276" lon="7.965825326992474"><ele>417.79999999999995</ele><time>2026-04-11T11:16:31.999Z</time></trkpt><trkpt lat="44.588659917934" lon="7.965718038549049"><ele>416.59999999999997</ele><time>2026-04-11T11:16:32.999Z</time></trkpt><trkpt lat="44.5887301316867" lon="7.965610745192905"><ele>415.4</ele><time>2026-04-11T11:16:33.999Z</time></trkpt><trkpt lat="44.58881282046906" lon="7.965512606479721"><ele>414.2</ele><time>2026-04-11T11:16:34.999Z</time></trkpt><trkpt lat="44.58890580893974" lon="7.965400588781716"><ele>413.0</ele><time>2026-04-11T11:16:35.999Z</time></trkpt><trkpt lat="44.58900145843513" lon="7.965302403607681"><ele>411.5</ele><time>2026-04-11T11:16:36.999Z</time></trkpt><trkpt lat="44.589112941539256" lon="7.9652154261016"><ele>410.0</ele><time>2026-04-11T11:16:37.999Z</time></trkpt><trkpt lat="44.58923632285898" lon="7.965138976028803"><ele>408.5</ele><time>2026-04-11T11:16:38.999Z</time></trkpt><trkpt lat="44.589361753602574" lon="7.96505332096319"><ele>407.0</ele><time>2026-04-11T11:16:39.999Z</time></trkpt><trkpt lat="44.589483054098814" lon="7.964945353500358"><ele>402.0</ele><time>2026-04-11T11:16:40.999Z</time></trkpt><trkpt lat="44.589613348728555" lon="7.964846557554434"><ele>397.0</ele><time>2026-04-11T11:16:41.999Z</time></trkpt><trkpt lat="44.589745618039444" lon="7.964772037458042"><ele>392.0</ele><time>2026-04-11T11:16:42.999Z</time></trkpt><trkpt lat="44.58985385590969" lon="7.964671652853258"><ele>387.0</ele><time>2026-04-11T11:16:43.999Z</time></trkpt><trkpt lat="44.58994625289407" lon="7.964545249175835"><ele>387.0</ele><time>2026-04-11T11:16:44.999Z</time></trkpt><trkpt lat="44.59004358775524" lon="7.9644072916732185"><ele>387.0</ele><time>2026-04-11T11:16:45.999Z</time></trkpt><trkpt lat="44.590095738195565" lon="7.9642242825201945"><ele>387.0</ele><time>2026-04-11T11:16:46.999Z</time></trkpt><trkpt lat="44.590145953597315" lon="7.964049326791286"><ele>387.0</ele><time>2026-04-11T11:16:47.999Z</time></trkpt><trkpt lat="44.59020214691633" lon="7.963921594142133"><ele>385.40000000000003</ele><time>2026-04-11T11:16:48.999Z</time></trkpt><trkpt lat="44.590290576772894" lon="7.963883682324083"><ele>383.8</ele><time>2026-04-11T11:16:49.999Z</time></trkpt><trkpt lat="44.59038428246578" lon="7.963891698980541"><ele>382.2</ele><time>2026-04-11T11:16:50.999Z</time></trkpt><trkpt lat="44.590488758205325" lon="7.963941813526324"><ele>380.6</ele><time>2026-04-11T11:16:51.999Z</time></trkpt><trkpt lat="44.59059328872758" lon="7.96394164248358"><ele>379.0</ele><time>2026-04-11T11:16:52.999Z</time></trkpt><trkpt lat="44.590698312491135" lon="7.96393687589043"><ele>377.5</ele><time>2026-04-11T11:16:53.999Z</time></trkpt><trkpt lat="44.59080731674203" lon="7.963895692582819"><ele>376.0</ele><time>2026-04-11T11:16:54.999Z</time></trkpt><trkpt lat="44.590919108944185" lon="7.963854960522775"><ele>374.5</ele><time>2026-04-11T11:16:55.999Z</time></trkpt><trkpt lat="44.591031800064194" lon="7.963798532260163"><ele>373.0</ele><time>2026-04-11T11:16:56.999Z</time></trkpt><trkpt lat="44.591144675082695" lon="7.963730078496165"><ele>371.75</ele><time>2026-04-11T11:16:57.999Z</time></trkpt><trkpt lat="44.591271553617254" lon="7.963717724800538"><ele>370.5</ele><time>2026-04-11T11:16:58.999Z</time></trkpt><trkpt lat="44.591397339805624" lon="7.963692486033635"><ele>369.25</ele><time>2026-04-11T11:16:59.999Z</time></trkpt><trkpt lat="44.59153020116555" lon="7.9637123425012595"><ele>368.0</ele><time>2026-04-11T11:17:00.999Z</time></trkpt><trkpt lat="44.591662655489905" lon="7.963739056688405"><ele>368.0</ele><time>2026-04-11T11:17:01.999Z</time></trkpt><trkpt lat="44.59179415402193" lon="7.963783731860323"><ele>368.0</ele><time>2026-04-11T11:17:02.999Z</time></trkpt><trkpt lat="44.591930294866685" lon="7.963797826997972"><ele>368.0</ele><time>2026-04-11T11:17:03.999Z</time></trkpt><trkpt lat="44.59206988385011" lon="7.963748197613309"><ele>368.0</ele><time>2026-04-11T11:17:04.999Z</time></trkpt><trkpt lat="44.5922060954905" lon="7.963667507440751"><ele>367.0</ele><time>2026-04-11T11:17:05.999Z</time></trkpt><trkpt lat="44.592335131030204" lon="7.963579488445141"><ele>366.0</ele><time>2026-04-11T11:17:06.999Z</time></trkpt><trkpt lat="44.5924609396484" lon="7.963491890135747"><ele>365.0</ele><time>2026-04-11T11:17:07.999Z</time></trkpt><trkpt lat="44.59258616431941" lon="7.963397615887164"><ele>364.0</ele><time>2026-04-11T11:17:08.999Z</time></trkpt><trkpt lat="44.59270743284796" lon="7.963303905706799"><ele>361.75</ele><time>2026-04-11T11:17:09.999Z</time></trkpt><trkpt lat="44.59282752416268" lon="7.963194687142682"><ele>359.5</ele><time>2026-04-11T11:17:10.999Z</time></trkpt><trkpt lat="44.59293889698452" lon="7.963077290970469"><ele>357.25</ele><time>2026-04-11T11:17:11.999Z</time></trkpt><trkpt lat="44.59306324475475" lon="7.962993477748422"><ele>355.0</ele><time>2026-04-11T11:17:12.999Z</time></trkpt><trkpt lat="44.59320008780466" lon="7.962996808122547"><ele>354.5</ele><time>2026-04-11T11:17:13.999Z</time></trkpt><trkpt lat="44.59332617113768" lon="7.962964074452687"><ele>354.0</ele><time>2026-04-11T11:17:14.999Z</time></trkpt><trkpt lat="44.59345288357509" lon="7.96295078513176"><ele>353.5</ele><time>2026-04-11T11:17:15.999Z</time></trkpt><trkpt lat="44.59358247484773" lon="7.962927191495016"><ele>353.0</ele><time>2026-04-11T11:17:16.999Z</time></trkpt><trkpt lat="44.593711251523786" lon="7.9629121897202095"><ele>352.5</ele><time>2026-04-11T11:17:17.999Z</time></trkpt><trkpt lat="44.59385310709044" lon="7.962902012914388"><ele>352.0</ele><time>2026-04-11T11:17:18.999Z</time></trkpt><trkpt lat="44.593991335896554" lon="7.9628873820842285"><ele>351.5</ele><time>2026-04-11T11:17:19.999Z</time></trkpt><trkpt lat="44.59412061425833" lon="7.962836550680969"><ele>351.0</ele><time>2026-04-11T11:17:20.999Z</time></trkpt><trkpt lat="44.59424388113986" lon="7.9627683653191035"><ele>351.0</ele><time>2026-04-11T11:17:21.999Z</time></trkpt><trkpt lat="44.59436842016023" lon="7.9627040601130386"><ele>351.0</ele><time>2026-04-11T11:17:22.999Z</time></trkpt><trkpt lat="44.59448788272251" lon="7.962647145445801"><ele>351.0</ele><time>2026-04-11T11:17:23.999Z</time></trkpt><trkpt lat="44.59460131103619" lon="7.962582897326954"><ele>351.0</ele><time>2026-04-11T11:17:24.999Z</time></trkpt><trkpt lat="44.5947123705221" lon="7.9625231596177155"><ele>348.5</ele><time>2026-04-11T11:17:25.999Z</time></trkpt><trkpt lat="44.594823637523845" lon="7.962467976419802"><ele>346.0</ele><time>2026-04-11T11:17:26.999Z</time></trkpt><trkpt lat="44.594935201550186" lon="7.962419727087036"><ele>343.5</ele><time>2026-04-11T11:17:27.999Z</time></trkpt><trkpt lat="44.595047000497715" lon="7.962374229946424"><ele>341.0</ele><time>2026-04-11T11:17:28.999Z</time></trkpt><trkpt lat="44.59515810442679" lon="7.962316050015617"><ele>341.0</ele><time>2026-04-11T11:17:29.999Z</time></trkpt><trkpt lat="44.595266474476496" lon="7.962277171347281"><ele>341.0</ele><time>2026-04-11T11:17:30.999Z</time></trkpt><trkpt lat="44.59537975776742" lon="7.962266015387605"><ele>341.0</ele><time>2026-04-11T11:17:31.999Z</time></trkpt><trkpt lat="44.59549060732549" lon="7.962303078000049"><ele>341.0</ele><time>2026-04-11T11:17:32.999Z</time></trkpt><trkpt lat="44.59559564640839" lon="7.96235546982436"><ele>341.0</ele><time>2026-04-11T11:17:33.999Z</time></trkpt><trkpt lat="44.59569623608339" lon="7.96241238856864"><ele>341.0</ele><time>2026-04-11T11:17:34.999Z</time></trkpt><trkpt lat="44.59576620524893" lon="7.962529445158275"><ele>341.0</ele><time>2026-04-11T11:17:35.999Z</time></trkpt><trkpt lat="44.595823832681766" lon="7.96265573706268"><ele>341.0</ele><time>2026-04-11T11:17:36.999Z</time></trkpt><trkpt lat="44.5958701259207" lon="7.962732503790002"><ele>341.0</ele><time>2026-04-11T11:17:37.999Z</time></trkpt><trkpt lat="44.59597330676362" lon="7.9626966077319405"><ele>341.0</ele><time>2026-04-11T11:17:38.999Z</time></trkpt><trkpt lat="44.59604172406679" lon="7.96264039934199"><ele>341.0</ele><time>2026-04-11T11:17:39.999Z</time></trkpt><trkpt lat="44.59607861483984" lon="7.962542710146009"><ele>341.0</ele><time>2026-04-11T11:17:40.999Z</time></trkpt><trkpt lat="44.59609106013575" lon="7.962443624473854"><ele>341.0</ele><time>2026-04-11T11:17:41.999Z</time></trkpt><trkpt lat="44.59609128422921" lon="7.962351438876805"><ele>341.0</ele><time>2026-04-11T11:17:42.999Z</time></trkpt><trkpt lat="44.59608262647517" lon="7.962261774959648"><ele>341.0</ele><time>2026-04-11T11:17:43.999Z</time></trkpt><trkpt lat="44.596078922533245" lon="7.962088064455258"><ele>340.6666666666667</ele><time>2026-04-11T11:17:45.999Z</time></trkpt><trkpt lat="44.59608177013196" lon="7.961922065028475"><ele>340.33333333333337</ele><time>2026-04-11T11:17:47.999Z</time></trkpt><trkpt lat="44.59610050396437" lon="7.9618336727788135"><ele>340.0</ele><time>2026-04-11T11:17:48.999Z</time></trkpt><trkpt lat="44.5961305724596" lon="7.96174504610766"><ele>339.6666666666667</ele><time>2026-04-11T11:17:49.999Z</time></trkpt><trkpt lat="44.59617757094348" lon="7.961665738684716"><ele>339.3333333333333</ele><time>2026-04-11T11:17:50.999Z</time></trkpt><trkpt lat="44.59622517639777" lon="7.961593221444641"><ele>339.0</ele><time>2026-04-11T11:17:51.999Z</time></trkpt><trkpt lat="44.59628421384066" lon="7.96153346040831"><ele>339.0</ele><time>2026-04-11T11:17:52.999Z</time></trkpt><trkpt lat="44.59634155973531" lon="7.961472279508164"><ele>339.0</ele><time>2026-04-11T11:17:53.999Z</time></trkpt><trkpt lat="44.59639958738108" lon="7.961416808142856"><ele>339.0</ele><time>2026-04-11T11:17:54.999Z</time></trkpt><trkpt lat="44.59646312675497" lon="7.961355766538882"><ele>339.0</ele><time>2026-04-11T11:17:55.999Z</time></trkpt><trkpt lat="44.59653073871652" lon="7.961289909309091"><ele>339.0</ele><time>2026-04-11T11:17:56.999Z</time></trkpt><trkpt lat="44.59659636776866" lon="7.961215940600611"><ele>339.0</ele><time>2026-04-11T11:17:57.999Z</time></trkpt><trkpt lat="44.59666219556295" lon="7.961133871451864"><ele>339.0</ele><time>2026-04-11T11:17:58.999Z</time></trkpt><trkpt lat="44.596747454090135" lon="7.961092030849043"><ele>339.0</ele><time>2026-04-11T11:17:59.999Z</time></trkpt><trkpt lat="44.5968140717497" lon="7.961034071469138"><ele>339.0</ele><time>2026-04-11T11:18:00.999Z</time></trkpt><trkpt lat="44.59686008972954" lon="7.960924506966096"><ele>339.0</ele><time>2026-04-11T11:18:01.999Z</time></trkpt><trkpt lat="44.59692905669552" lon="7.960882041544307"><ele>339.0</ele><time>2026-04-11T11:18:02.999Z</time></trkpt><trkpt lat="44.59698698146357" lon="7.960845651458583"><ele>339.0</ele><time>2026-04-11T11:18:03.999Z</time></trkpt><trkpt lat="44.597091683545045" lon="7.9607956566497275"><ele>338.1666666666667</ele><time>2026-04-11T11:18:06Z</time></trkpt><trkpt lat="44.59718781267482" lon="7.960734393939836"><ele>337.3333333333333</ele><time>2026-04-11T11:18:08Z</time></trkpt><trkpt lat="44.597296409397856" lon="7.9606480531787245"><ele>336.5</ele><time>2026-04-11T11:18:10Z</time></trkpt><trkpt lat="44.59736356537709" lon="7.960646215700427"><ele>335.66666666666663</ele><time>2026-04-11T11:18:11Z</time></trkpt><trkpt lat="44.59743235810462" lon="7.960657849096253"><ele>334.8333333333333</ele><time>2026-04-11T11:18:12Z</time></trkpt><trkpt lat="44.59751040840943" lon="7.960654344393759"><ele>334.0</ele><time>2026-04-11T11:18:13Z</time></trkpt><trkpt lat="44.59758646474544" lon="7.960651733466098"><ele>334.0</ele><time>2026-04-11T11:18:14Z</time></trkpt><trkpt lat="44.597660861803966" lon="7.960643735626489"><ele>334.0</ele><time>2026-04-11T11:18:15Z</time></trkpt><trkpt lat="44.5977358547213" lon="7.9606238013978645"><ele>334.0</ele><time>2026-04-11T11:18:16Z</time></trkpt><trkpt lat="44.59781021844702" lon="7.960595008140693"><ele>334.0</ele><time>2026-04-11T11:18:17Z</time></trkpt><trkpt lat="44.59787788350408" lon="7.960564939974318"><ele>334.0</ele><time>2026-04-11T11:18:18Z</time></trkpt><trkpt lat="44.59799217148288" lon="7.9605332918836025"><ele>334.0</ele><time>2026-04-11T11:18:20Z</time></trkpt><trkpt lat="44.59810703032884" lon="7.960565600288975"><ele>333.79999999999995</ele><time>2026-04-11T11:18:22Z</time></trkpt><trkpt lat="44.59823304450073" lon="7.96062256014206"><ele>333.59999999999997</ele><time>2026-04-11T11:18:24Z</time></trkpt><trkpt lat="44.59831043777152" lon="7.960657868556583"><ele>333.4</ele><time>2026-04-11T11:18:25Z</time></trkpt><trkpt lat="44.598398908931195" lon="7.960680313938784"><ele>333.2</ele><time>2026-04-11T11:18:26Z</time></trkpt><trkpt lat="44.598482005141534" lon="7.960688928879157"><ele>333.0</ele><time>2026-04-11T11:18:27Z</time></trkpt><trkpt lat="44.598574147501814" lon="7.9606431577271355"><ele>333.0</ele><time>2026-04-11T11:18:28Z</time></trkpt><trkpt lat="44.59864696306398" lon="7.960568245009714"><ele>333.0</ele><time>2026-04-11T11:18:29Z</time></trkpt><trkpt lat="44.5987014850448" lon="7.960500051224143"><ele>333.0</ele><time>2026-04-11T11:18:30Z</time></trkpt><trkpt lat="44.59876471275366" lon="7.960432552736007"><ele>333.0</ele><time>2026-04-11T11:18:31Z</time></trkpt><trkpt lat="44.598786916483995" lon="7.960318637164861"><ele>333.0</ele><time>2026-04-11T11:18:32Z</time></trkpt><trkpt lat="44.59879864144036" lon="7.960197927918453"><ele>333.0</ele><time>2026-04-11T11:18:33Z</time></trkpt><trkpt lat="44.5988185220004" lon="7.960074686823212"><ele>331.0</ele><time>2026-04-11T11:18:34Z</time></trkpt><trkpt lat="44.59882997465819" lon="7.959965321049959"><ele>329.0</ele><time>2026-04-11T11:18:35Z</time></trkpt><trkpt lat="44.598841955831176" lon="7.959843799863487"><ele>327.0</ele><time>2026-04-11T11:18:36Z</time></trkpt><trkpt lat="44.598856036633784" lon="7.959708845125363"><ele>325.0</ele><time>2026-04-11T11:18:37Z</time></trkpt><trkpt lat="44.59886691025775" lon="7.95956669626363"><ele>323.0</ele><time>2026-04-11T11:18:38Z</time></trkpt><trkpt lat="44.59887865351546" lon="7.959419557256623"><ele>323.0</ele><time>2026-04-11T11:18:39Z</time></trkpt><trkpt lat="44.598896718875814" lon="7.959291964401731"><ele>323.0</ele><time>2026-04-11T11:18:40Z</time></trkpt><trkpt lat="44.59890498851045" lon="7.959180898496987"><ele>323.0</ele><time>2026-04-11T11:18:41Z</time></trkpt><trkpt lat="44.598935858490755" lon="7.959009893838128"><ele>323.0</ele><time>2026-04-11T11:18:43Z</time></trkpt><trkpt lat="44.59897065190994" lon="7.958929716803414"><ele>323.0</ele><time>2026-04-11T11:18:44Z</time></trkpt><trkpt lat="44.599022108187995" lon="7.958852425100408"><ele>323.0</ele><time>2026-04-11T11:18:45Z</time></trkpt><trkpt lat="44.599049210495" lon="7.958747307905843"><ele>322.0</ele><time>2026-04-11T11:18:46Z</time></trkpt><trkpt lat="44.59903940715867" lon="7.958646008083145"><ele>321.0</ele><time>2026-04-11T11:18:47Z</time></trkpt><trkpt lat="44.59903883876867" lon="7.958544391209634"><ele>320.0</ele><time>2026-04-11T11:18:48Z</time></trkpt><trkpt lat="44.599048839991745" lon="7.958439622066215"><ele>319.0</ele><time>2026-04-11T11:18:49Z</time></trkpt><trkpt lat="44.599100593034215" lon="7.958256620785589"><ele>318.0</ele><time>2026-04-11T11:18:51Z</time></trkpt><trkpt lat="44.59912884614325" lon="7.958172453333693"><ele>317.0</ele><time>2026-04-11T11:18:52Z</time></trkpt><trkpt lat="44.599180966350936" lon="7.958089012173288"><ele>317.5</ele><time>2026-04-11T11:18:53Z</time></trkpt><trkpt lat="44.599234878314995" lon="7.958017781224288"><ele>318.0</ele><time>2026-04-11T11:18:54Z</time></trkpt><trkpt lat="44.599297152631806" lon="7.957955446767979"><ele>318.5</ele><time>2026-04-11T11:18:55Z</time></trkpt><trkpt lat="44.599365156584604" lon="7.957888707941572"><ele>319.0</ele><time>2026-04-11T11:18:56Z</time></trkpt><trkpt lat="44.599424835108586" lon="7.957821805936879"><ele>319.5</ele><time>2026-04-11T11:18:57Z</time></trkpt><trkpt lat="44.599481848715605" lon="7.957739364316335"><ele>320.0</ele><time>2026-04-11T11:18:58Z</time></trkpt><trkpt lat="44.59954082665615" lon="7.957671721906055"><ele>320.0</ele><time>2026-04-11T11:18:59Z</time></trkpt><trkpt lat="44.599598890483996" lon="7.957607548240141"><ele>320.0</ele><time>2026-04-11T11:19:00Z</time></trkpt><trkpt lat="44.59965113837998" lon="7.9575376785361405"><ele>320.0</ele><time>2026-04-11T11:19:01Z</time></trkpt><trkpt lat="44.599709436149425" lon="7.957471293126784"><ele>320.0</ele><time>2026-04-11T11:19:02Z</time></trkpt><trkpt lat="44.59976414040654" lon="7.957396356631044"><ele>320.0</ele><time>2026-04-11T11:19:03Z</time></trkpt><trkpt lat="44.59982074711516" lon="7.957314619269973"><ele>320.0</ele><time>2026-04-11T11:19:04Z</time></trkpt><trkpt lat="44.59987343138778" lon="7.957234313793788"><ele>318.2</ele><time>2026-04-11T11:19:05Z</time></trkpt><trkpt lat="44.59992397855549" lon="7.957167729933602"><ele>316.4</ele><time>2026-04-11T11:19:06Z</time></trkpt><trkpt lat="44.60001190970543" lon="7.957060533335559"><ele>314.6</ele><time>2026-04-11T11:19:08Z</time></trkpt><trkpt lat="44.600097393852266" lon="7.9569581874565625"><ele>312.8</ele><time>2026-04-11T11:19:10Z</time></trkpt><trkpt lat="44.600184603367694" lon="7.9568420488291585"><ele>311.0</ele><time>2026-04-11T11:19:12Z</time></trkpt><trkpt lat="44.60028713128673" lon="7.956743066601832"><ele>310.2857142857143</ele><time>2026-04-11T11:19:14Z</time></trkpt><trkpt lat="44.60034604145401" lon="7.95671081414482"><ele>309.5714285714286</ele><time>2026-04-11T11:19:15Z</time></trkpt><trkpt lat="44.600411092644116" lon="7.956676332808237"><ele>308.8571428571429</ele><time>2026-04-11T11:19:16Z</time></trkpt><trkpt lat="44.600476764572115" lon="7.956638651049994"><ele>308.1428571428571</ele><time>2026-04-11T11:19:17Z</time></trkpt><trkpt lat="44.600539622738985" lon="7.956604755551022"><ele>307.42857142857144</ele><time>2026-04-11T11:19:18Z</time></trkpt><trkpt lat="44.60060434802552" lon="7.956572695499345"><ele>306.7142857142857</ele><time>2026-04-11T11:19:19Z</time></trkpt><trkpt lat="44.600665465837906" lon="7.956538617649804"><ele>306.0</ele><time>2026-04-11T11:19:20Z</time></trkpt><trkpt lat="44.60072753220326" lon="7.95650132497503"><ele>306.0</ele><time>2026-04-11T11:19:21Z</time></trkpt><trkpt lat="44.60079198578939" lon="7.956468361196157"><ele>306.0</ele><time>2026-04-11T11:19:22Z</time></trkpt><trkpt lat="44.60085019602489" lon="7.956431637197859"><ele>306.0</ele><time>2026-04-11T11:19:23Z</time></trkpt><trkpt lat="44.60091398569983" lon="7.956399499731166"><ele>306.0</ele><time>2026-04-11T11:19:24Z</time></trkpt><trkpt lat="44.60103989695411" lon="7.956351577749564"><ele>306.0</ele><time>2026-04-11T11:19:26Z</time></trkpt><trkpt lat="44.60110239837747" lon="7.956319665258963"><ele>306.0</ele><time>2026-04-11T11:19:27Z</time></trkpt><trkpt lat="44.60116262922461" lon="7.956285539908765"><ele>305.1428571428571</ele><time>2026-04-11T11:19:28Z</time></trkpt><trkpt lat="44.60122586238073" lon="7.956253539204222"><ele>304.2857142857143</ele><time>2026-04-11T11:19:29Z</time></trkpt><trkpt lat="44.601291485455846" lon="7.956222417745564"><ele>303.42857142857144</ele><time>2026-04-11T11:19:30Z</time></trkpt><trkpt lat="44.60135750474789" lon="7.9562032350451775"><ele>302.57142857142856</ele><time>2026-04-11T11:19:31Z</time></trkpt><trkpt lat="44.60143550934346" lon="7.956170381289489"><ele>301.7142857142857</ele><time>2026-04-11T11:19:32Z</time></trkpt><trkpt lat="44.601512140384706" lon="7.9561453690529715"><ele>300.85714285714283</ele><time>2026-04-11T11:19:33Z</time></trkpt><trkpt lat="44.60159343477402" lon="7.9561202045292845"><ele>300.0</ele><time>2026-04-11T11:19:34Z</time></trkpt><trkpt lat="44.601674676995586" lon="7.956095632944406"><ele>300.0</ele><time>2026-04-11T11:19:35Z</time></trkpt><trkpt lat="44.60174032779004" lon="7.956087877796321"><ele>300.0</ele><time>2026-04-11T11:19:36Z</time></trkpt><trkpt lat="44.60181097607388" lon="7.956077138446261"><ele>300.0</ele><time>2026-04-11T11:19:38Z</time></trkpt><trkpt lat="44.60191196992676" lon="7.956059924523136"><ele>300.0</ele><time>2026-04-11T11:19:41Z</time></trkpt><trkpt lat="44.60200403106277" lon="7.955680414814373"><ele>297.5</ele><time>2026-04-11T11:19:43Z</time></trkpt><trkpt lat="44.60206679794608" lon="7.955568844882498"><ele>295.0</ele><time>2026-04-11T11:19:44Z</time></trkpt><trkpt lat="44.60211350168688" lon="7.955461573518309"><ele>292.5</ele><time>2026-04-11T11:19:45Z</time></trkpt><trkpt lat="44.60216791033958" lon="7.955368656370713"><ele>290.0</ele><time>2026-04-11T11:19:46Z</time></trkpt><trkpt lat="44.60222367530867" lon="7.955292519269357"><ele>287.5</ele><time>2026-04-11T11:19:47Z</time></trkpt><trkpt lat="44.60226980148339" lon="7.955229609068687"><ele>285.0</ele><time>2026-04-11T11:19:48Z</time></trkpt><trkpt lat="44.60234138292122" lon="7.955131738029867"><ele>285.0</ele><time>2026-04-11T11:19:50Z</time></trkpt><trkpt lat="44.60242622055972" lon="7.95506765712047"><ele>285.0</ele><time>2026-04-11T11:19:52Z</time></trkpt><trkpt lat="44.60254964570198" lon="7.955093967890997"><ele>285.0</ele><time>2026-04-11T11:19:54Z</time></trkpt><trkpt lat="44.602613971338315" lon="7.955047692674531"><ele>285.0</ele><time>2026-04-11T11:19:55Z</time></trkpt><trkpt lat="44.60266763586569" lon="7.954970006822241"><ele>285.0</ele><time>2026-04-11T11:19:56Z</time></trkpt><trkpt lat="44.60271773829957" lon="7.9548773695798545"><ele>284.5</ele><time>2026-04-11T11:19:57Z</time></trkpt><trkpt lat="44.60276726564176" lon="7.954781169540093"><ele>284.0</ele><time>2026-04-11T11:19:58Z</time></trkpt><trkpt lat="44.60282958828713" lon="7.954688487356623"><ele>283.5</ele><time>2026-04-11T11:19:59Z</time></trkpt><trkpt lat="44.60288887517627" lon="7.954598116730799"><ele>283.0</ele><time>2026-04-11T11:20:00Z</time></trkpt><trkpt lat="44.60295202786529" lon="7.954510198789473"><ele>282.5</ele><time>2026-04-11T11:20:01Z</time></trkpt><trkpt lat="44.603002046130335" lon="7.954424680696891"><ele>282.0</ele><time>2026-04-11T11:20:02Z</time></trkpt><trkpt lat="44.60306123516954" lon="7.9543545457260905"><ele>282.0</ele><time>2026-04-11T11:20:03Z</time></trkpt><trkpt lat="44.60312865107064" lon="7.954296944839243"><ele>282.0</ele><time>2026-04-11T11:20:04Z</time></trkpt><trkpt lat="44.60320939310248" lon="7.954262196066217"><ele>282.0</ele><time>2026-04-11T11:20:05Z</time></trkpt><trkpt lat="44.60328793809781" lon="7.95422147540982"><ele>282.0</ele><time>2026-04-11T11:20:06Z</time></trkpt><trkpt lat="44.60335787035876" lon="7.954169647352247"><ele>282.0</ele><time>2026-04-11T11:20:07Z</time></trkpt><trkpt lat="44.603429209963046" lon="7.9541214014434996"><ele>282.0</ele><time>2026-04-11T11:20:08Z</time></trkpt><trkpt lat="44.60349655046493" lon="7.95405639439111"><ele>280.8</ele><time>2026-04-11T11:20:09Z</time></trkpt><trkpt lat="44.603565889816835" lon="7.953966817424638"><ele>279.6</ele><time>2026-04-11T11:20:10Z</time></trkpt><trkpt lat="44.60359788344483" lon="7.95385180705917"><ele>278.40000000000003</ele><time>2026-04-11T11:20:11Z</time></trkpt><trkpt lat="44.603620343768405" lon="7.953713193007559"><ele>277.2</ele><time>2026-04-11T11:20:12Z</time></trkpt><trkpt lat="44.60364311641297" lon="7.953582887465986"><ele>276.0</ele><time>2026-04-11T11:20:13Z</time></trkpt><trkpt lat="44.603686996823015" lon="7.9534691725250815"><ele>275.0</ele><time>2026-04-11T11:20:14Z</time></trkpt><trkpt lat="44.603728649616954" lon="7.953352447740129"><ele>274.0</ele><time>2026-04-11T11:20:15Z</time></trkpt><trkpt lat="44.60378080837321" lon="7.953247257749577"><ele>273.0</ele><time>2026-04-11T11:20:16Z</time></trkpt><trkpt lat="44.60384825731011" lon="7.953155652592589"><ele>272.0</ele><time>2026-04-11T11:20:17Z</time></trkpt><trkpt lat="44.603934792852684" lon="7.9531150848156305"><ele>271.0</ele><time>2026-04-11T11:20:18Z</time></trkpt><trkpt lat="44.60403315916569" lon="7.953203982247659"><ele>271.0</ele><time>2026-04-11T11:20:19Z</time></trkpt><trkpt lat="44.60410735003262" lon="7.953201120702097"><ele>271.0</ele><time>2026-04-11T11:20:20Z</time></trkpt><trkpt lat="44.60419434095939" lon="7.953202101062309"><ele>271.0</ele><time>2026-04-11T11:20:21Z</time></trkpt><trkpt lat="44.604281224528975" lon="7.953191340315961"><ele>271.0</ele><time>2026-04-11T11:20:22Z</time></trkpt><trkpt lat="44.60436929522466" lon="7.95316520536921"><ele>271.0</ele><time>2026-04-11T11:20:23Z</time></trkpt><trkpt lat="44.604453879514175" lon="7.953109080539302"><ele>271.0</ele><time>2026-04-11T11:20:24Z</time></trkpt><trkpt lat="44.60453879094351" lon="7.953060072962183"><ele>270.5</ele><time>2026-04-11T11:20:25Z</time></trkpt><trkpt lat="44.60462341843216" lon="7.9530179982597415"><ele>270.0</ele><time>2026-04-11T11:20:26Z</time></trkpt><trkpt lat="44.604705048317264" lon="7.952977495545603"><ele>269.5</ele><time>2026-04-11T11:20:27Z</time></trkpt><trkpt lat="44.604792494894205" lon="7.952946281265467"><ele>269.0</ele><time>2026-04-11T11:20:28Z</time></trkpt><trkpt lat="44.60488020067349" lon="7.952948627132816"><ele>268.5</ele><time>2026-04-11T11:20:29Z</time></trkpt><trkpt lat="44.60496682401916" lon="7.9529185521299945"><ele>268.0</ele><time>2026-04-11T11:20:30.001Z</time></trkpt><trkpt lat="44.605053207830174" lon="7.952953433890052"><ele>268.0</ele><time>2026-04-11T11:20:31.001Z</time></trkpt><trkpt lat="44.60513989637201" lon="7.952954802753004"><ele>268.0</ele><time>2026-04-11T11:20:32.001Z</time></trkpt><trkpt lat="44.60522455641477" lon="7.952921803434533"><ele>268.0</ele><time>2026-04-11T11:20:33.001Z</time></trkpt><trkpt lat="44.60530053747584" lon="7.952885260666031"><ele>268.0</ele><time>2026-04-11T11:20:34.001Z</time></trkpt><trkpt lat="44.605369390181615" lon="7.952846652404567"><ele>268.0</ele><time>2026-04-11T11:20:36.001Z</time></trkpt><trkpt lat="44.60532941144283" lon="7.952684590238193"><ele>268.0</ele><time>2026-04-11T11:20:38.001Z</time></trkpt><trkpt lat="44.60530707360321" lon="7.952550975945492"><ele>268.0</ele><time>2026-04-11T11:20:40.001Z</time></trkpt><trkpt lat="44.60537951464982" lon="7.952416462756022"><ele>268.0</ele><time>2026-04-11T11:20:42.001Z</time></trkpt><trkpt lat="44.6054392148934" lon="7.952276721326902"><ele>268.0</ele><time>2026-04-11T11:20:44.001Z</time></trkpt><trkpt lat="44.60552080900951" lon="7.952150922615059"><ele>267.16666666666663</ele><time>2026-04-11T11:20:46.001Z</time></trkpt><trkpt lat="44.60557416158973" lon="7.952095407121247"><ele>266.3333333333333</ele><time>2026-04-11T11:20:47.001Z</time></trkpt><trkpt lat="44.60563311854" lon="7.9520494717833765"><ele>265.5</ele><time>2026-04-11T11:20:48.001Z</time></trkpt><trkpt lat="44.605705069886874" lon="7.95201380367054"><ele>264.6666666666667</ele><time>2026-04-11T11:20:49.001Z</time></trkpt><trkpt lat="44.6057779734901" lon="7.951984243540861"><ele>263.83333333333337</ele><time>2026-04-11T11:20:50.001Z</time></trkpt><trkpt lat="44.60585334788567" lon="7.951939573530202"><ele>263.0</ele><time>2026-04-11T11:20:51.001Z</time></trkpt><trkpt lat="44.60592509526162" lon="7.951878454083279"><ele>263.0</ele><time>2026-04-11T11:20:52.001Z</time></trkpt><trkpt lat="44.60599109882647" lon="7.951810297534489"><ele>263.0</ele><time>2026-04-11T11:20:53.001Z</time></trkpt><trkpt lat="44.60604921533671" lon="7.951734321375066"><ele>263.0</ele><time>2026-04-11T11:20:54.001Z</time></trkpt><trkpt lat="44.60610743483909" lon="7.9516588185586965"><ele>263.0</ele><time>2026-04-11T11:20:55.001Z</time></trkpt><trkpt lat="44.606164136120995" lon="7.951583292361435"><ele>263.0</ele><time>2026-04-11T11:20:56.001Z</time></trkpt><trkpt lat="44.60623019451432" lon="7.951531225426367"><ele>263.0</ele><time>2026-04-11T11:20:57Z</time></trkpt><trkpt lat="44.606282735199855" lon="7.951448185770818"><ele>262.6</ele><time>2026-04-11T11:20:58Z</time></trkpt><trkpt lat="44.60633777084878" lon="7.95139107944065"><ele>262.20000000000005</ele><time>2026-04-11T11:20:59Z</time></trkpt><trkpt lat="44.60640276728042" lon="7.951346128161967"><ele>261.8</ele><time>2026-04-11T11:21:00Z</time></trkpt><trkpt lat="44.60645106953464" lon="7.951276379916817"><ele>261.40000000000003</ele><time>2026-04-11T11:21:01Z</time></trkpt><trkpt lat="44.606565843388736" lon="7.951212347556473"><ele>261.0</ele><time>2026-04-11T11:21:03Z</time></trkpt><trkpt lat="44.606687814615555" lon="7.951222667161035"><ele>261.0</ele><time>2026-04-11T11:21:05Z</time></trkpt><trkpt lat="44.606745031704705" lon="7.9512704050616625"><ele>261.0</ele><time>2026-04-11T11:21:06Z</time></trkpt><trkpt lat="44.606800752051605" lon="7.951324744416453"><ele>261.0</ele><time>2026-04-11T11:21:07Z</time></trkpt><trkpt lat="44.60686199189992" lon="7.951365590090638"><ele>261.0</ele><time>2026-04-11T11:21:08Z</time></trkpt><trkpt lat="44.606934870537316" lon="7.9513713673039845"><ele>261.0</ele><time>2026-04-11T11:21:09Z</time></trkpt><trkpt lat="44.607009676139185" lon="7.95134501034561"><ele>261.0</ele><time>2026-04-11T11:21:10Z</time></trkpt><trkpt lat="44.607082031825435" lon="7.951302702176"><ele>261.0</ele><time>2026-04-11T11:21:11Z</time></trkpt><trkpt lat="44.60715220559895" lon="7.951255828223674"><ele>260.8333333333333</ele><time>2026-04-11T11:21:12Z</time></trkpt><trkpt lat="44.60723154375785" lon="7.9512323156694364"><ele>260.6666666666667</ele><time>2026-04-11T11:21:13Z</time></trkpt><trkpt lat="44.60729274742674" lon="7.951166616367837"><ele>260.5</ele><time>2026-04-11T11:21:14Z</time></trkpt><trkpt lat="44.607357042584574" lon="7.951124242355405"><ele>260.33333333333337</ele><time>2026-04-11T11:21:15Z</time></trkpt><trkpt lat="44.60742231614694" lon="7.951081388919769"><ele>260.1666666666667</ele><time>2026-04-11T11:21:16Z</time></trkpt><trkpt lat="44.607490748150546" lon="7.951042288841022"><ele>260.0</ele><time>2026-04-11T11:21:17Z</time></trkpt><trkpt lat="44.60756732483584" lon="7.95100898711296"><ele>260.0</ele><time>2026-04-11T11:21:18Z</time></trkpt><trkpt lat="44.607645673965195" lon="7.9509879786286755"><ele>260.0</ele><time>2026-04-11T11:21:19Z</time></trkpt><trkpt lat="44.60772641242459" lon="7.950965280272802"><ele>260.0</ele><time>2026-04-11T11:21:20Z</time></trkpt><trkpt lat="44.60780709034617" lon="7.950946251482337"><ele>260.0</ele><time>2026-04-11T11:21:21Z</time></trkpt><trkpt lat="44.60788913506903" lon="7.950931548430351"><ele>260.0</ele><time>2026-04-11T11:21:22Z</time></trkpt><trkpt lat="44.6079743010247" lon="7.950918434422876"><ele>260.0</ele><time>2026-04-11T11:21:23Z</time></trkpt><trkpt lat="44.60806006327373" lon="7.950903778236343"><ele>259.6666666666667</ele><time>2026-04-11T11:21:24Z</time></trkpt><trkpt lat="44.6081474013892" lon="7.950900027945385"><ele>259.33333333333337</ele><time>2026-04-11T11:21:25Z</time></trkpt><trkpt lat="44.608247019427175" lon="7.950913480740012"><ele>259.0</ele><time>2026-04-11T11:21:26Z</time></trkpt><trkpt lat="44.6083344798442" lon="7.9509065967910475"><ele>258.6666666666667</ele><time>2026-04-11T11:21:27Z</time></trkpt><trkpt lat="44.608419466438086" lon="7.950896749498124"><ele>258.3333333333333</ele><time>2026-04-11T11:21:28Z</time></trkpt><trkpt lat="44.60850772778981" lon="7.950887734092466"><ele>258.0</ele><time>2026-04-11T11:21:29Z</time></trkpt><trkpt lat="44.60860012273347" lon="7.950872025749572"><ele>256.6666666666667</ele><time>2026-04-11T11:21:30Z</time></trkpt><trkpt lat="44.60868856474438" lon="7.950854651766427"><ele>255.33333333333331</ele><time>2026-04-11T11:21:31Z</time></trkpt><trkpt lat="44.608779053627856" lon="7.950844026878294"><ele>254.0</ele><time>2026-04-11T11:21:32Z</time></trkpt><trkpt lat="44.60887058785138" lon="7.95084631294659"><ele>252.66666666666666</ele><time>2026-04-11T11:21:33Z</time></trkpt><trkpt lat="44.608958439208905" lon="7.950852821907506"><ele>251.33333333333331</ele><time>2026-04-11T11:21:34Z</time></trkpt><trkpt lat="44.60904716681124" lon="7.950854814879302"><ele>250.0</ele><time>2026-04-11T11:21:35Z</time></trkpt><trkpt lat="44.60913467840684" lon="7.950843919576794"><ele>249.99999999999997</ele><time>2026-04-11T11:21:36Z</time></trkpt><trkpt lat="44.609222922545264" lon="7.950826768002313"><ele>250.0</ele><time>2026-04-11T11:21:37Z</time></trkpt><trkpt lat="44.609309278558726" lon="7.950822588775535"><ele>250.0</ele><time>2026-04-11T11:21:38Z</time></trkpt><trkpt lat="44.6093937984881" lon="7.950812690781472"><ele>250.0</ele><time>2026-04-11T11:21:39Z</time></trkpt><trkpt lat="44.60947526082475" lon="7.950791041866751"><ele>249.99999999999997</ele><time>2026-04-11T11:21:40Z</time></trkpt><trkpt lat="44.60955644490478" lon="7.95077341510781"><ele>250.0</ele><time>2026-04-11T11:21:41Z</time></trkpt><trkpt lat="44.609634650274145" lon="7.9507523157208455"><ele>249.49999999999997</ele><time>2026-04-11T11:21:42Z</time></trkpt><trkpt lat="44.609712570557605" lon="7.950733220599848"><ele>249.0</ele><time>2026-04-11T11:21:43Z</time></trkpt><trkpt lat="44.60979397045168" lon="7.950715843149483"><ele>248.5</ele><time>2026-04-11T11:21:44Z</time></trkpt><trkpt lat="44.60988175962983" lon="7.95069476636124"><ele>248.0</ele><time>2026-04-11T11:21:45Z</time></trkpt><trkpt lat="44.60996690393511" lon="7.950679099013602"><ele>247.49999999999997</ele><time>2026-04-11T11:21:46Z</time></trkpt><trkpt lat="44.61005194779943" lon="7.9506593088876985"><ele>247.0</ele><time>2026-04-11T11:21:47Z</time></trkpt><trkpt lat="44.61013338392267" lon="7.950650058693764"><ele>246.99999999999997</ele><time>2026-04-11T11:21:48Z</time></trkpt><trkpt lat="44.610220683147446" lon="7.950643245905207"><ele>247.0</ele><time>2026-04-11T11:21:49Z</time></trkpt><trkpt lat="44.61030371639607" lon="7.950631321638678"><ele>247.0</ele><time>2026-04-11T11:21:50Z</time></trkpt><trkpt lat="44.61038548700561" lon="7.950618995226931"><ele>247.0</ele><time>2026-04-11T11:21:51Z</time></trkpt><trkpt lat="44.6104677230812" lon="7.95058285165163"><ele>246.99999999999997</ele><time>2026-04-11T11:21:52Z</time></trkpt><trkpt lat="44.6105486941669" lon="7.950557572154995"><ele>247.0</ele><time>2026-04-11T11:21:53Z</time></trkpt><trkpt lat="44.610623821975224" lon="7.950517567563473"><ele>246.66666666666666</ele><time>2026-04-11T11:21:54Z</time></trkpt><trkpt lat="44.610707348861986" lon="7.950483568245958"><ele>246.33333333333331</ele><time>2026-04-11T11:21:55Z</time></trkpt><trkpt lat="44.610785097993016" lon="7.950457515884388"><ele>246.0</ele><time>2026-04-11T11:21:56Z</time></trkpt><trkpt lat="44.61085695166978" lon="7.950429241990142"><ele>245.66666666666669</ele><time>2026-04-11T11:21:57Z</time></trkpt><trkpt lat="44.61093480568232" lon="7.950418449856175"><ele>245.33333333333334</ele><time>2026-04-11T11:21:58Z</time></trkpt><trkpt lat="44.61100719118618" lon="7.950424280121236"><ele>245.0</ele><time>2026-04-11T11:21:59Z</time></trkpt><trkpt lat="44.61108624205886" lon="7.950432344265429"><ele>244.50000000000003</ele><time>2026-04-11T11:22:00Z</time></trkpt><trkpt lat="44.61117018640725" lon="7.950428988892943"><ele>244.0</ele><time>2026-04-11T11:22:01Z</time></trkpt><trkpt lat="44.61124610034577" lon="7.950402161992861"><ele>243.5</ele><time>2026-04-11T11:22:02Z</time></trkpt><trkpt lat="44.611318942039" lon="7.950382129961879"><ele>243.0</ele><time>2026-04-11T11:22:03Z</time></trkpt><trkpt lat="44.61139650542621" lon="7.950346732344801"><ele>242.50000000000003</ele><time>2026-04-11T11:22:04Z</time></trkpt><trkpt lat="44.611469157258895" lon="7.950294111489106"><ele>242.0</ele><time>2026-04-11T11:22:05Z</time></trkpt><trkpt lat="44.61154370811657" lon="7.950237305649805"><ele>242.00000000000003</ele><time>2026-04-11T11:22:06Z</time></trkpt><trkpt lat="44.611613132195245" lon="7.950177704559995"><ele>242.0</ele><time>2026-04-11T11:22:07Z</time></trkpt><trkpt lat="44.61168163118745" lon="7.950118500720215"><ele>242.0</ele><time>2026-04-11T11:22:08Z</time></trkpt><trkpt lat="44.61175762715311" lon="7.9500790826752885"><ele>242.0</ele><time>2026-04-11T11:22:09Z</time></trkpt><trkpt lat="44.61183504290739" lon="7.950057745798327"><ele>242.00000000000003</ele><time>2026-04-11T11:22:10Z</time></trkpt><trkpt lat="44.611909104298114" lon="7.950048930590629"><ele>242.0</ele><time>2026-04-11T11:22:11Z</time></trkpt><trkpt lat="44.61199049162853" lon="7.950052646145266"><ele>241.85714285714283</ele><time>2026-04-11T11:22:12Z</time></trkpt><trkpt lat="44.61206527387915" lon="7.9500731717268645"><ele>241.7142857142857</ele><time>2026-04-11T11:22:13Z</time></trkpt><trkpt lat="44.61213862916401" lon="7.950095092604881"><ele>241.57142857142856</ele><time>2026-04-11T11:22:14Z</time></trkpt><trkpt lat="44.6122079919734" lon="7.9501159348853925"><ele>241.42857142857144</ele><time>2026-04-11T11:22:15Z</time></trkpt><trkpt lat="44.61227449968614" lon="7.950126120709634"><ele>241.2857142857143</ele><time>2026-04-11T11:22:16Z</time></trkpt><trkpt lat="44.612344566789645" lon="7.950144886885132"><ele>241.14285714285717</ele><time>2026-04-11T11:22:17Z</time></trkpt><trkpt lat="44.61241170722305" lon="7.950161268021242"><ele>241.0</ele><time>2026-04-11T11:22:18Z</time></trkpt><trkpt lat="44.61247647079887" lon="7.950168284586521"><ele>241.0</ele><time>2026-04-11T11:22:19Z</time></trkpt><trkpt lat="44.61259563390408" lon="7.950181355973916"><ele>241.00000000000003</ele><time>2026-04-11T11:22:21Z</time></trkpt><trkpt lat="44.612712406604814" lon="7.950179337141249"><ele>241.00000000000003</ele><time>2026-04-11T11:22:23Z</time></trkpt><trkpt lat="44.612814619006116" lon="7.950172826763422"><ele>241.0</ele><time>2026-04-11T11:22:25Z</time></trkpt><trkpt lat="44.612903939381766" lon="7.950164957257855"><ele>241.0</ele><time>2026-04-11T11:22:27Z</time></trkpt><trkpt lat="44.61298502787275" lon="7.950158663105493"><ele>240.83333333333331</ele><time>2026-04-11T11:22:29Z</time></trkpt><trkpt lat="44.61305243687134" lon="7.950159812253105"><ele>240.66666666666666</ele><time>2026-04-11T11:22:31Z</time></trkpt><trkpt lat="44.613117114085355" lon="7.950156665788646"><ele>240.5</ele><time>2026-04-11T11:22:33Z</time></trkpt><trkpt lat="44.61318221741316" lon="7.950168482680963"><ele>240.33333333333331</ele><time>2026-04-11T11:22:35Z</time></trkpt><trkpt lat="44.613271693865485" lon="7.950172615059781"><ele>240.16666666666666</ele><time>2026-04-11T11:22:38.001Z</time></trkpt><trkpt lat="44.61335662592733" lon="7.950181977375858"><ele>240.0</ele><time>2026-04-11T11:22:41.001Z</time></trkpt><trkpt lat="44.613440038950294" lon="7.950187808913738"><ele>240.0</ele><time>2026-04-11T11:22:44.001Z</time></trkpt><trkpt lat="44.61352019181123" lon="7.9501821706328"><ele>240.0</ele><time>2026-04-11T11:22:47.001Z</time></trkpt><trkpt lat="44.61359497292411" lon="7.950147675467278"><ele>240.0</ele><time>2026-04-11T11:22:50.001Z</time></trkpt><trkpt lat="44.61365113788931" lon="7.9500746099093185"><ele>240.0</ele><time>2026-04-11T11:22:54.001Z</time></trkpt><trkpt lat="44.61368933867774" lon="7.9499959374546885"><ele>240.0</ele><time>2026-04-11T11:22:57Z</time></trkpt><trkpt lat="44.61368826182009" lon="7.949879495046972"><ele>240.0</ele><time>2026-04-11T11:23:00Z</time></trkpt><trkpt lat="44.613668975377976" lon="7.949792933966137"><ele>242.28571428571428</ele><time>2026-04-11T11:23:03Z</time></trkpt><trkpt lat="44.61364632755735" lon="7.949693678664208"><ele>244.57142857142856</ele><time>2026-04-11T11:23:06Z</time></trkpt><trkpt lat="44.613606856138716" lon="7.949604434044596"><ele>246.85714285714283</ele><time>2026-04-11T11:23:09Z</time></trkpt><trkpt lat="44.61358716636795" lon="7.949506285431578"><ele>249.14285714285714</ele><time>2026-04-11T11:23:12Z</time></trkpt><trkpt lat="44.61356822578025" lon="7.949398983741693"><ele>251.4285714285714</ele><time>2026-04-11T11:23:15Z</time></trkpt><trkpt lat="44.61355888683665" lon="7.949296042981088"><ele>253.7142857142857</ele><time>2026-04-11T11:23:17Z</time></trkpt><trkpt lat="44.61354526803553" lon="7.9492064504548505"><ele>256.0</ele><time>2026-04-11T11:23:19Z</time></trkpt><trkpt lat="44.61354185390763" lon="7.948979519320224"><ele>255.8</ele><time>2026-04-11T11:23:21Z</time></trkpt><trkpt lat="44.613530581236596" lon="7.94887230831042"><ele>255.60000000000002</ele><time>2026-04-11T11:23:22Z</time></trkpt><trkpt lat="44.61352147402498" lon="7.948758482442866"><ele>255.4</ele><time>2026-04-11T11:23:23Z</time></trkpt><trkpt lat="44.6135047914056" lon="7.9486115844125695"><ele>255.2</ele><time>2026-04-11T11:23:24Z</time></trkpt><trkpt lat="44.61348432476828" lon="7.9484717790122295"><ele>255.0</ele><time>2026-04-11T11:23:25Z</time></trkpt><trkpt lat="44.61345761224591" lon="7.9483374567857155"><ele>255.0</ele><time>2026-04-11T11:23:26Z</time></trkpt><trkpt lat="44.6134062045135" lon="7.948196511876053"><ele>255.0</ele><time>2026-04-11T11:23:27Z</time></trkpt><trkpt lat="44.61335877214711" lon="7.948049929022267"><ele>255.0</ele><time>2026-04-11T11:23:28Z</time></trkpt><trkpt lat="44.61332676148956" lon="7.947885043032624"><ele>255.0</ele><time>2026-04-11T11:23:29Z</time></trkpt><trkpt lat="44.613286987130095" lon="7.947742508900353"><ele>255.0</ele><time>2026-04-11T11:23:30Z</time></trkpt><trkpt lat="44.613253873628636" lon="7.947604794349628"><ele>255.0</ele><time>2026-04-11T11:23:31Z</time></trkpt><trkpt lat="44.61321805935665" lon="7.9474775492434855"><ele>255.0</ele><time>2026-04-11T11:23:32Z</time></trkpt><trkpt lat="44.613222205698655" lon="7.947367060589558"><ele>255.0</ele><time>2026-04-11T11:23:33Z</time></trkpt><trkpt lat="44.6132389034783" lon="7.947281752910767"><ele>255.0</ele><time>2026-04-11T11:23:34Z</time></trkpt><trkpt lat="44.6132530721848" lon="7.947169044020396"><ele>255.0</ele><time>2026-04-11T11:23:35Z</time></trkpt><trkpt lat="44.613269788394796" lon="7.947056856763355"><ele>253.83333333333334</ele><time>2026-04-11T11:23:36Z</time></trkpt><trkpt lat="44.613291108411275" lon="7.946941538170205"><ele>252.66666666666669</ele><time>2026-04-11T11:23:37Z</time></trkpt><trkpt lat="44.61331221709581" lon="7.946825498946793"><ele>251.5</ele><time>2026-04-11T11:23:38Z</time></trkpt><trkpt lat="44.61333215603773" lon="7.946710128763651"><ele>250.33333333333334</ele><time>2026-04-11T11:23:39Z</time></trkpt><trkpt lat="44.6133461288159" lon="7.946615283795035"><ele>249.16666666666669</ele><time>2026-04-11T11:23:40Z</time></trkpt><trkpt lat="44.61335834015525" lon="7.946503916332009"><ele>248.0</ele><time>2026-04-11T11:23:41Z</time></trkpt><trkpt lat="44.61336906939306" lon="7.946406065684628"><ele>247.8</ele><time>2026-04-11T11:23:42Z</time></trkpt><trkpt lat="44.613378855533426" lon="7.946316816781385"><ele>247.60000000000002</ele><time>2026-04-11T11:23:43Z</time></trkpt><trkpt lat="44.61330032396331" lon="7.946228372799378"><ele>247.39999999999998</ele><time>2026-04-11T11:23:44Z</time></trkpt><trkpt lat="44.61321721451116" lon="7.94612104651054"><ele>247.2</ele><time>2026-04-11T11:23:46Z</time></trkpt><trkpt lat="44.61314721704572" lon="7.946023816151639"><ele>247.0</ele><time>2026-04-11T11:23:48Z</time></trkpt><trkpt lat="44.613087124229104" lon="7.945917436824564"><ele>247.83333333333331</ele><time>2026-04-11T11:23:50Z</time></trkpt><trkpt lat="44.61299225757454" lon="7.945869572552061"><ele>248.66666666666666</ele><time>2026-04-11T11:23:52Z</time></trkpt><trkpt lat="44.61290533672816" lon="7.9458298242337655"><ele>249.5</ele><time>2026-04-11T11:23:54Z</time></trkpt><trkpt lat="44.61282338374334" lon="7.945800016549185"><ele>250.33333333333331</ele><time>2026-04-11T11:23:56Z</time></trkpt><trkpt lat="44.61274468777554" lon="7.945769379862089"><ele>251.16666666666666</ele><time>2026-04-11T11:23:58Z</time></trkpt><trkpt lat="44.61266232485376" lon="7.945742608119511"><ele>252.0</ele><time>2026-04-11T11:24:00Z</time></trkpt><trkpt lat="44.61258884965717" lon="7.945713541726564"><ele>252.0</ele><time>2026-04-11T11:24:02Z</time></trkpt><trkpt lat="44.61252011393778" lon="7.945673998761525"><ele>252.0</ele><time>2026-04-11T11:24:04Z</time></trkpt><trkpt lat="44.61245534404316" lon="7.945628959676786"><ele>252.0</ele><time>2026-04-11T11:24:06Z</time></trkpt><trkpt lat="44.61236369806675" lon="7.945561535590345"><ele>252.0</ele><time>2026-04-11T11:24:09Z</time></trkpt><trkpt lat="44.612296154492505" lon="7.9455340054605115"><ele>252.0</ele><time>2026-04-11T11:24:11Z</time></trkpt><trkpt lat="44.612209953284115" lon="7.945490949622903"><ele>252.0</ele><time>2026-04-11T11:24:14Z</time></trkpt><trkpt lat="44.612144377671584" lon="7.945442140975951"><ele>252.0</ele><time>2026-04-11T11:24:17Z</time></trkpt><trkpt lat="44.612088449943975" lon="7.945398502290962"><ele>252.0</ele><time>2026-04-11T11:24:19Z</time></trkpt><trkpt lat="44.61201525310012" lon="7.945375441891247"><ele>252.0</ele><time>2026-04-11T11:24:21Z</time></trkpt><trkpt lat="44.61195690768481" lon="7.9453354121598"><ele>252.0</ele><time>2026-04-11T11:24:23Z</time></trkpt><trkpt lat="44.61187444213621" lon="7.945298366620053"><ele>252.0</ele><time>2026-04-11T11:24:26Z</time></trkpt><trkpt lat="44.6118098035121" lon="7.945242394496756"><ele>252.0</ele><time>2026-04-11T11:24:29Z</time></trkpt><trkpt lat="44.611739828176816" lon="7.945205321110898"><ele>252.0</ele><time>2026-04-11T11:24:34Z</time></trkpt><trkpt lat="44.611673041537" lon="7.945164820391718"><ele>252.71428571428572</ele><time>2026-04-11T11:24:39Z</time></trkpt><trkpt lat="44.61161659260373" lon="7.945108720460272"><ele>253.42857142857144</ele><time>2026-04-11T11:24:44.001Z</time></trkpt><trkpt lat="44.6115485261087" lon="7.945064972618592"><ele>254.14285714285714</ele><time>2026-04-11T11:24:50Z</time></trkpt><trkpt lat="44.61148577544615" lon="7.945023607552724"><ele>254.85714285714286</ele><time>2026-04-11T11:24:55Z</time></trkpt><trkpt lat="44.611425270491296" lon="7.944998075526721"><ele>255.57142857142858</ele><time>2026-04-11T11:24:59Z</time></trkpt><trkpt lat="44.611364670296844" lon="7.944940509601343"><ele>256.2857142857143</ele><time>2026-04-11T11:25:04Z</time></trkpt><trkpt lat="44.61130110330095" lon="7.944902069154808"><ele>257.0</ele><time>2026-04-11T11:25:09Z</time></trkpt><trkpt lat="44.61123546242865" lon="7.944883729370985"><ele>258.42857142857144</ele><time>2026-04-11T11:25:14Z</time></trkpt><trkpt lat="44.611181235250264" lon="7.944819204074865"><ele>259.8571428571429</ele><time>2026-04-11T11:25:20Z</time></trkpt><trkpt lat="44.61112686850495" lon="7.944757660432323"><ele>261.28571428571433</ele><time>2026-04-11T11:25:26Z</time></trkpt><trkpt lat="44.61105664147496" lon="7.944750138483914"><ele>262.7142857142857</ele><time>2026-04-11T11:25:31Z</time></trkpt><trkpt lat="44.61100744831817" lon="7.944681812276269"><ele>264.14285714285717</ele><time>2026-04-11T11:25:37Z</time></trkpt><trkpt lat="44.610957515559875" lon="7.944607619946707"><ele>265.5714285714286</ele><time>2026-04-11T11:25:43Z</time></trkpt><trkpt lat="44.61090751776859" lon="7.944553487014914"><ele>267.0</ele><time>2026-04-11T11:25:49Z</time></trkpt><trkpt lat="44.61086199604782" lon="7.9444921531966886"><ele>267.7142857142857</ele><time>2026-04-11T11:25:55Z</time></trkpt><trkpt lat="44.610821624718966" lon="7.944417296213644"><ele>268.42857142857144</ele><time>2026-04-11T11:26:01Z</time></trkpt><trkpt lat="44.61077746444417" lon="7.944350176998405"><ele>269.1428571428571</ele><time>2026-04-11T11:26:07Z</time></trkpt><trkpt lat="44.61073636354242" lon="7.944267560900829"><ele>269.8571428571429</ele><time>2026-04-11T11:26:12Z</time></trkpt><trkpt lat="44.61068620311197" lon="7.944199535172029"><ele>270.57142857142856</ele><time>2026-04-11T11:26:18Z</time></trkpt><trkpt lat="44.61061909891916" lon="7.944180749216272"><ele>271.2857142857143</ele><time>2026-04-11T11:26:23Z</time></trkpt><trkpt lat="44.61065466046756" lon="7.94408770266092"><ele>272.0</ele><time>2026-04-11T11:26:32Z</time></trkpt><trkpt lat="44.610709432206285" lon="7.944041518198097"><ele>271.99999999999994</ele><time>2026-04-11T11:26:38Z</time></trkpt><trkpt lat="44.61078495398441" lon="7.944008793323496"><ele>272.0</ele><time>2026-04-11T11:26:44Z</time></trkpt><trkpt lat="44.61081805372983" lon="7.944100207994752"><ele>272.0</ele><time>2026-04-11T11:26:48Z</time></trkpt><trkpt lat="44.61084032825269" lon="7.944185979251086"><ele>272.0</ele><time>2026-04-11T11:26:51Z</time></trkpt><trkpt lat="44.61087287730751" lon="7.944283758960771"><ele>272.0</ele><time>2026-04-11T11:26:55Z</time></trkpt><trkpt lat="44.610922472218654" lon="7.944338519968033"><ele>271.99999999999994</ele><time>2026-04-11T11:26:58Z</time></trkpt><trkpt lat="44.61099188877972" lon="7.944362715217875"><ele>272.0</ele><time>2026-04-11T11:27:01Z</time></trkpt><trkpt lat="44.61106567321861" lon="7.944385572411738"><ele>271.99999999999994</ele><time>2026-04-11T11:27:05Z</time></trkpt><trkpt lat="44.61113561759087" lon="7.944341957158975"><ele>272.0</ele><time>2026-04-11T11:27:09Z</time></trkpt><trkpt lat="44.61120933327912" lon="7.944303937742033"><ele>272.0</ele><time>2026-04-11T11:27:14Z</time></trkpt><trkpt lat="44.61127678793372" lon="7.9443510078624575"><ele>272.0</ele><time>2026-04-11T11:27:35Z</time></trkpt><trkpt lat="44.611223547640066" lon="7.944300675012946"><ele>272.0</ele><time>2026-04-11T11:28:49Z</time></trkpt><trkpt lat="44.61128011218194" lon="7.94436585031539"><ele>271.99999999999994</ele><time>2026-04-11T11:30:05Z</time></trkpt><trkpt lat="44.61133809261172" lon="7.944406057673288"><ele>272.0</ele><time>2026-04-11T11:30:08Z</time></trkpt><trkpt lat="44.611392820502424" lon="7.944359351405848"><ele>271.1666666666667</ele><time>2026-04-11T11:30:19Z</time></trkpt><trkpt lat="44.611448964230355" lon="7.944319180898375"><ele>270.33333333333337</ele><time>2026-04-11T11:30:27Z</time></trkpt><trkpt lat="44.61151102994731" lon="7.944285187376646"><ele>269.5</ele><time>2026-04-11T11:30:34Z</time></trkpt><trkpt lat="44.61151075469895" lon="7.944118402039592"><ele>268.6666666666667</ele><time>2026-04-11T11:30:48Z</time></trkpt><trkpt lat="44.611444196095924" lon="7.944082981052837"><ele>267.8333333333333</ele><time>2026-04-11T11:30:49.999Z</time></trkpt><trkpt lat="44.611467020293325" lon="7.944000017831647"><ele>267.0</ele><time>2026-04-11T11:30:53.999Z</time></trkpt><trkpt lat="44.61142616963189" lon="7.943913926803715"><ele>270.6</ele><time>2026-04-11T11:30:55.999Z</time></trkpt><trkpt lat="44.61132568245521" lon="7.943837878074505"><ele>274.2</ele><time>2026-04-11T11:30:57.999Z</time></trkpt><trkpt lat="44.611205893236765" lon="7.94380601157295"><ele>277.8</ele><time>2026-04-11T11:31:00Z</time></trkpt><trkpt lat="44.61112541447367" lon="7.943810067909342"><ele>281.4</ele><time>2026-04-11T11:31:02Z</time></trkpt><trkpt lat="44.611103693430636" lon="7.9436870599287435"><ele>285.0</ele><time>2026-04-11T11:31:07Z</time></trkpt><trkpt lat="44.611144528387044" lon="7.94361243779699"><ele>285.0</ele><time>2026-04-11T11:31:22Z</time></trkpt><trkpt lat="44.611244720431934" lon="7.943579557420862"><ele>285.0</ele><time>2026-04-11T11:31:40Z</time></trkpt><trkpt lat="44.611316468529935" lon="7.943514232524053"><ele>285.0</ele><time>2026-04-11T11:31:42Z</time></trkpt><trkpt lat="44.6113880222057" lon="7.943463526972489"><ele>285.0</ele><time>2026-04-11T11:31:43Z</time></trkpt><trkpt lat="44.61145462666847" lon="7.943357263539241"><ele>285.0</ele><time>2026-04-11T11:31:45Z</time></trkpt><trkpt lat="44.611561057366096" lon="7.943325551950478"><ele>284.6</ele><time>2026-04-11T11:31:46Z</time></trkpt><trkpt lat="44.61152997635027" lon="7.943200179989798"><ele>284.2</ele><time>2026-04-11T11:31:47Z</time></trkpt><trkpt lat="44.611551761092755" lon="7.943059386581508"><ele>283.8</ele><time>2026-04-11T11:31:49Z</time></trkpt><trkpt lat="44.6116013733461" lon="7.942996811605869"><ele>283.4</ele><time>2026-04-11T11:31:50Z</time></trkpt><trkpt lat="44.61173555441663" lon="7.943019562911471"><ele>283.0</ele><time>2026-04-11T11:31:52Z</time></trkpt><trkpt lat="44.611804854765936" lon="7.943029102426427"><ele>283.0</ele><time>2026-04-11T11:31:53Z</time></trkpt><trkpt lat="44.61186322056963" lon="7.942994161210374"><ele>283.0</ele><time>2026-04-11T11:31:54Z</time></trkpt><trkpt lat="44.61193823614647" lon="7.9429183086200466"><ele>283.0</ele><time>2026-04-11T11:31:57Z</time></trkpt><trkpt lat="44.61201367614929" lon="7.942913407101588"><ele>283.0</ele><time>2026-04-11T11:32:00Z</time></trkpt><trkpt lat="44.6120674723937" lon="7.942970465759265"><ele>283.0</ele><time>2026-04-11T11:32:03Z</time></trkpt><trkpt lat="44.61215849084548" lon="7.943036658114257"><ele>283.0</ele><time>2026-04-11T11:32:06Z</time></trkpt><trkpt lat="44.61223020029686" lon="7.943082128189755"><ele>282.2857142857143</ele><time>2026-04-11T11:32:08Z</time></trkpt><trkpt lat="44.61231130032261" lon="7.943098285918061"><ele>281.5714285714286</ele><time>2026-04-11T11:32:10Z</time></trkpt><trkpt lat="44.61238680828203" lon="7.943092368301121"><ele>280.8571428571429</ele><time>2026-04-11T11:32:12Z</time></trkpt><trkpt lat="44.61245638944252" lon="7.943052046614616"><ele>280.14285714285717</ele><time>2026-04-11T11:32:14Z</time></trkpt><trkpt lat="44.61251837864648" lon="7.943008968888315"><ele>279.42857142857144</ele><time>2026-04-11T11:32:16Z</time></trkpt><trkpt lat="44.612580600233926" lon="7.942962188532805"><ele>278.7142857142857</ele><time>2026-04-11T11:32:18Z</time></trkpt><trkpt lat="44.61264466296042" lon="7.942927908207814"><ele>278.0</ele><time>2026-04-11T11:32:20Z</time></trkpt><trkpt lat="44.612706309189235" lon="7.94288211334583"><ele>278.0</ele><time>2026-04-11T11:32:22Z</time></trkpt><trkpt lat="44.61276062493149" lon="7.942826104764521"><ele>278.0</ele><time>2026-04-11T11:32:24Z</time></trkpt><trkpt lat="44.61282338726115" lon="7.942766340467566"><ele>278.0</ele><time>2026-04-11T11:32:26Z</time></trkpt><trkpt lat="44.61288278826873" lon="7.942696787022587"><ele>278.0</ele><time>2026-04-11T11:32:28Z</time></trkpt><trkpt lat="44.61293581609686" lon="7.942621486090312"><ele>278.0</ele><time>2026-04-11T11:32:30Z</time></trkpt><trkpt lat="44.61298376404609" lon="7.9425419550666065"><ele>278.0</ele><time>2026-04-11T11:32:32Z</time></trkpt><trkpt lat="44.61302299612548" lon="7.942468223988891"><ele>278.0</ele><time>2026-04-11T11:32:34Z</time></trkpt><trkpt lat="44.61304869614673" lon="7.942354320466035"><ele>280.33333333333337</ele><time>2026-04-11T11:32:37Z</time></trkpt><trkpt lat="44.613045227647724" lon="7.942244814620526"><ele>282.6666666666667</ele><time>2026-04-11T11:32:40Z</time></trkpt><trkpt lat="44.61302326645688" lon="7.942151106349915"><ele>285.0</ele><time>2026-04-11T11:32:43Z</time></trkpt><trkpt lat="44.61295416287113" lon="7.94208355773922"><ele>287.3333333333333</ele><time>2026-04-11T11:32:47Z</time></trkpt><trkpt lat="44.61288821664131" lon="7.9420656605667475"><ele>289.66666666666663</ele><time>2026-04-11T11:32:49.999Z</time></trkpt><trkpt lat="44.6128217462488" lon="7.942053596509845"><ele>292.0</ele><time>2026-04-11T11:32:52.999Z</time></trkpt><trkpt lat="44.612733826288704" lon="7.942028935533131"><ele>292.0</ele><time>2026-04-11T11:32:56.999Z</time></trkpt><trkpt lat="44.61265924806965" lon="7.94201105205129"><ele>292.0</ele><time>2026-04-11T11:32:59.999Z</time></trkpt><trkpt lat="44.612580233515516" lon="7.941994479502695"><ele>292.0</ele><time>2026-04-11T11:33:01.999Z</time></trkpt><trkpt lat="44.612516544938394" lon="7.942013051560401"><ele>292.0</ele><time>2026-04-11T11:33:03.999Z</time></trkpt><trkpt lat="44.612561697504646" lon="7.942076650510045"><ele>292.0</ele><time>2026-04-11T11:33:07Z</time></trkpt><trkpt lat="44.61260288212314" lon="7.941954970902326"><ele>292.0</ele><time>2026-04-11T11:33:10Z</time></trkpt><trkpt lat="44.61255621498462" lon="7.941864313285892"><ele>292.0</ele><time>2026-04-11T11:33:13Z</time></trkpt><trkpt lat="44.61255735368826" lon="7.941771254219124"><ele>292.0</ele><time>2026-04-11T11:33:15Z</time></trkpt><trkpt lat="44.61257888335352" lon="7.941688081320986"><ele>292.0</ele><time>2026-04-11T11:33:18Z</time></trkpt><trkpt lat="44.612542150877914" lon="7.941571660922141"><ele>292.0</ele><time>2026-04-11T11:33:23Z</time></trkpt><trkpt lat="44.61249151884196" lon="7.941489688745015"><ele>292.0</ele><time>2026-04-11T11:33:28Z</time></trkpt><trkpt lat="44.61242277654771" lon="7.941515817291175"><ele>292.0</ele><time>2026-04-11T11:33:50Z</time></trkpt><trkpt lat="44.61220628295542" lon="7.941610702846756"><ele>293.6</ele><time>2026-04-11T11:35:06.587Z</time></trkpt><trkpt lat="44.612354594355885" lon="7.941498439375214"><ele>295.2</ele><time>2026-04-11T11:37:09.019Z</time></trkpt><trkpt lat="44.6123261983875" lon="7.9414086303875475"><ele>296.8</ele><time>2026-04-11T11:37:47.064Z</time></trkpt><trkpt lat="44.6123091173968" lon="7.9415120655504206"><ele>298.4</ele><time>2026-04-11T11:38:21Z</time></trkpt><trkpt lat="44.61224498886565" lon="7.9415506386614965"><ele>300.0</ele><time>2026-04-11T11:38:23Z</time></trkpt><trkpt lat="44.612155713737764" lon="7.9415719200645745"><ele>300.0</ele><time>2026-04-11T11:38:24Z</time></trkpt><trkpt lat="44.61215362342124" lon="7.94133427127723"><ele>300.0</ele><time>2026-04-11T11:38:25Z</time></trkpt><trkpt lat="44.61203251175258" lon="7.9410291444033"><ele>300.0</ele><time>2026-04-11T11:38:26Z</time></trkpt><trkpt lat="44.61194515245205" lon="7.940950298150521"><ele>300.0</ele><time>2026-04-11T11:38:28.063Z</time></trkpt><trkpt lat="44.61211917254511" lon="7.941025129190259"><ele>300.0</ele><time>2026-04-11T11:38:38Z</time></trkpt><trkpt lat="44.61220698634021" lon="7.941045009497195"><ele>300.0</ele><time>2026-04-11T11:38:39Z</time></trkpt><trkpt lat="44.61232091076456" lon="7.9413688556759725"><ele>299.99999999999994</ele><time>2026-04-11T11:38:42Z</time></trkpt><trkpt lat="44.61234099556988" lon="7.94150513262374"><ele>300.0</ele><time>2026-04-11T11:38:44Z</time></trkpt><trkpt lat="44.61238809110537" lon="7.9415871158671285"><ele>300.0</ele><time>2026-04-11T11:38:45Z</time></trkpt><trkpt lat="44.61232430236366" lon="7.941621287754482"><ele>300.0</ele><time>2026-04-11T11:50:25.999Z</time></trkpt><trkpt lat="44.612270201944916" lon="7.9416754678707955"><ele>300.0</ele><time>2026-04-11T11:50:37.999Z</time></trkpt><trkpt lat="44.61228718155723" lon="7.941761753991836"><ele>299.99999999999994</ele><time>2026-04-11T11:51:33Z</time></trkpt><trkpt lat="44.61235892185308" lon="7.941764999621483"><ele>300.0</ele><time>2026-04-11T13:00:41Z</time></trkpt><trkpt lat="44.61237065093262" lon="7.9416736446531555"><ele>300.0</ele><time>2026-04-11T13:00:58Z</time></trkpt><trkpt lat="44.61242729224074" lon="7.941596990378307"><ele>300.0</ele><time>2026-04-11T13:01:09Z</time></trkpt><trkpt lat="44.61244033387274" lon="7.941503371301567"><ele>300.0</ele><time>2026-04-11T13:01:21Z</time></trkpt><trkpt lat="44.61249588825124" lon="7.94145034767521"><ele>300.0</ele><time>2026-04-11T13:01:22Z</time></trkpt><trkpt lat="44.61243449637095" lon="7.941501208575483"><ele>300.0</ele><time>2026-04-11T13:01:33Z</time></trkpt><trkpt lat="44.61249157508025" lon="7.941352848525101"><ele>300.0</ele><time>2026-04-11T13:02:44Z</time></trkpt><trkpt lat="44.61246593063048" lon="7.941496528456843"><ele>300.0</ele><time>2026-04-11T13:02:58Z</time></trkpt><trkpt lat="44.612443092209425" lon="7.941584184669065"><ele>300.0</ele><time>2026-04-11T13:03:02Z</time></trkpt><trkpt lat="44.612410471298666" lon="7.941508378439595"><ele>300.0</ele><time>2026-04-11T13:03:48Z</time></trkpt><trkpt lat="44.61242778820136" lon="7.941387191911226"><ele>300.0</ele><time>2026-04-11T13:04:02Z</time></trkpt><trkpt lat="44.6125401684664" lon="7.94167313875149"><ele>300.0</ele><time>2026-04-11T13:07:12Z</time></trkpt><trkpt lat="44.61254130766005" lon="7.941798309988774"><ele>300.0</ele><time>2026-04-11T13:07:15Z</time></trkpt><trkpt lat="44.612568522347445" lon="7.941898303258372"><ele>300.0</ele><time>2026-04-11T13:07:19Z</time></trkpt><trkpt lat="44.61251385528458" lon="7.941812275061369"><ele>300.0</ele><time>2026-04-11T13:07:24Z</time></trkpt><trkpt lat="44.61248600350288" lon="7.941717065195476"><ele>300.0</ele><time>2026-04-11T13:07:26Z</time></trkpt><trkpt lat="44.612454485614485" lon="7.941640108477681"><ele>300.0</ele><time>2026-04-11T13:07:31Z</time></trkpt><trkpt lat="44.61247229071463" lon="7.941513091555487"><ele>300.0</ele><time>2026-04-11T13:07:41Z</time></trkpt><trkpt lat="44.612365209813504" lon="7.941486628707477"><ele>300.0</ele><time>2026-04-11T13:07:57Z</time></trkpt><trkpt lat="44.612446022315915" lon="7.94148972186358"><ele>300.0</ele><time>2026-04-11T13:08:07.075Z</time></trkpt><trkpt lat="44.61238200096421" lon="7.941484965208753"><ele>300.0</ele><time>2026-04-11T13:08:40.019Z</time></trkpt><trkpt lat="44.61221640568708" lon="7.941599870789299"><ele>300.0</ele><time>2026-04-11T13:09:10.535Z</time></trkpt><trkpt lat="44.61229516913979" lon="7.941486658650823"><ele>300.0</ele><time>2026-04-11T13:09:13.014Z</time></trkpt><trkpt lat="44.61237362880174" lon="7.941354318544627"><ele>300.0</ele><time>2026-04-11T13:09:14.013Z</time></trkpt><trkpt lat="44.61232060358919" lon="7.941413170672271"><ele>300.0</ele><time>2026-04-11T13:09:20.015Z</time></trkpt><trkpt lat="44.612290497955435" lon="7.94149474941945"><ele>300.0</ele><time>2026-04-11T13:09:26.999Z</time></trkpt><trkpt lat="44.61228999618264" lon="7.94158830987518"><ele>300.0</ele><time>2026-04-11T13:09:33Z</time></trkpt><trkpt lat="44.612212307792724" lon="7.941578479505888"><ele>300.0</ele><time>2026-04-11T13:10:41Z</time></trkpt><trkpt lat="44.6121225858349" lon="7.9415911797363945"><ele>300.0</ele><time>2026-04-11T13:10:47Z</time></trkpt><trkpt lat="44.61227380823595" lon="7.941639301707151"><ele>300.0</ele><time>2026-04-11T13:10:53Z</time></trkpt><trkpt lat="44.61219563214528" lon="7.9416236845447346"><ele>300.0</ele><time>2026-04-11T13:11:24.999Z</time></trkpt><trkpt lat="44.612131958175596" lon="7.941589956599171"><ele>300.0</ele><time>2026-04-11T13:11:28.999Z</time></trkpt><trkpt lat="44.612118688751345" lon="7.941843795880965"><ele>300.0</ele><time>2026-04-11T13:11:54.836Z</time></trkpt><trkpt lat="44.6121852210738" lon="7.941631490781378"><ele>300.0</ele><time>2026-04-11T13:16:52.522Z</time></trkpt><trkpt lat="44.6123401298596" lon="7.9413714126020745"><ele>300.0</ele><time>2026-04-11T13:17:01.731Z</time></trkpt><trkpt lat="44.612250251937674" lon="7.94161846588624"><ele>296.0</ele><time>2026-04-11T13:20:02.246Z</time></trkpt><trkpt lat="44.612056168209854" lon="7.941891951381466"><ele>292.0</ele><time>2026-04-11T13:22:58.522Z</time></trkpt><trkpt lat="44.61177642114147" lon="7.942165166206781"><ele>292.0</ele><time>2026-04-11T13:23:15.277Z</time></trkpt><trkpt lat="44.61207128879841" lon="7.941902322546936"><ele>292.0</ele><time>2026-04-11T13:23:29.012Z</time></trkpt><trkpt lat="44.61225846409998" lon="7.941682036513107"><ele>292.0</ele><time>2026-04-11T13:23:34.995Z</time></trkpt><trkpt lat="44.61222655309256" lon="7.941568281256878"><ele>292.0</ele><time>2026-04-11T13:23:37.995Z</time></trkpt><trkpt lat="44.6122317256708" lon="7.94167985826277"><ele>292.0</ele><time>2026-04-11T13:23:43.999Z</time></trkpt><trkpt lat="44.61225694714489" lon="7.941767303060447"><ele>292.0</ele><time>2026-04-11T13:23:48.999Z</time></trkpt><trkpt lat="44.61227914831664" lon="7.941683338873101"><ele>292.0</ele><time>2026-04-11T13:24:34.999Z</time></trkpt><trkpt lat="44.61232685900164" lon="7.941623703142072"><ele>292.0</ele><time>2026-04-11T13:24:44.999Z</time></trkpt><trkpt lat="44.61214988403074" lon="7.941814992523324"><ele>292.0</ele><time>2026-04-11T13:25:33.573Z</time></trkpt><trkpt lat="44.612295510780804" lon="7.941672256630838"><ele>292.0</ele><time>2026-04-11T13:25:34.999Z</time></trkpt><trkpt lat="44.61235619587392" lon="7.941755973180742"><ele>292.0</ele><time>2026-04-11T13:25:38.999Z</time></trkpt><trkpt lat="44.61217188444002" lon="7.941540846936888"><ele>293.6</ele><time>2026-04-11T13:28:42.014Z</time></trkpt><trkpt lat="44.61228150952742" lon="7.94161023420746"><ele>295.2</ele><time>2026-04-11T13:28:57.013Z</time></trkpt><trkpt lat="44.612345600032526" lon="7.941614445919928"><ele>296.8</ele><time>2026-04-11T13:29:04.013Z</time></trkpt><trkpt lat="44.61221071347023" lon="7.941605861690734"><ele>298.4</ele><time>2026-04-11T13:30:10.998Z</time></trkpt><trkpt lat="44.61229854070794" lon="7.941583037973718"><ele>300.0</ele><time>2026-04-11T13:32:21Z</time></trkpt><trkpt lat="44.61233756351849" lon="7.941446351284924"><ele>300.0</ele><time>2026-04-11T13:32:38Z</time></trkpt><trkpt lat="44.612268923123814" lon="7.941365003599803"><ele>300.0</ele><time>2026-04-11T13:32:55.075Z</time></trkpt><trkpt lat="44.612342161754334" lon="7.941348959214081"><ele>300.0</ele><time>2026-04-11T13:32:59Z</time></trkpt><trkpt lat="44.61240168479466" lon="7.94139879031727"><ele>300.0</ele><time>2026-04-11T13:33:09Z</time></trkpt><trkpt lat="44.612448913263" lon="7.941462971489098"><ele>300.0</ele><time>2026-04-11T13:33:27Z</time></trkpt><trkpt lat="44.61249026541436" lon="7.94159758007293"><ele>300.0</ele><time>2026-04-11T13:34:30Z</time></trkpt><trkpt lat="44.612541438433794" lon="7.9416873003813"><ele>298.6666666666667</ele><time>2026-04-11T13:39:49Z</time></trkpt><trkpt lat="44.612544799903965" lon="7.94178594203893"><ele>297.3333333333333</ele><time>2026-04-11T13:40:13Z</time></trkpt><trkpt lat="44.61250731987655" lon="7.941891684574586"><ele>296.0</ele><time>2026-04-11T13:40:16Z</time></trkpt><trkpt lat="44.61247944123902" lon="7.94197437912989"><ele>294.66666666666663</ele><time>2026-04-11T13:40:19Z</time></trkpt><trkpt lat="44.61240578061734" lon="7.941979375880164"><ele>293.3333333333333</ele><time>2026-04-11T13:40:37Z</time></trkpt><trkpt lat="44.612357082972885" lon="7.9419197635458"><ele>292.0</ele><time>2026-04-11T13:40:42Z</time></trkpt><trkpt lat="44.61227205733405" lon="7.941831267324433"><ele>292.0</ele><time>2026-04-11T13:43:15Z</time></trkpt><trkpt lat="44.61218331031892" lon="7.941822603933649"><ele>292.0</ele><time>2026-04-11T13:44:07Z</time></trkpt><trkpt lat="44.61211901973294" lon="7.9418217322065425"><ele>292.0</ele><time>2026-04-11T13:44:12Z</time></trkpt><trkpt lat="44.61218782843003" lon="7.941862969910152"><ele>292.0</ele><time>2026-04-11T13:44:17Z</time></trkpt><trkpt lat="44.612263225883304" lon="7.941853871817464"><ele>292.0</ele><time>2026-04-11T13:44:22Z</time></trkpt><trkpt lat="44.61232197511774" lon="7.941894439319312"><ele>292.0</ele><time>2026-04-11T13:45:41Z</time></trkpt><trkpt lat="44.61238582391572" lon="7.941930554121117"><ele>292.0</ele><time>2026-04-11T13:46:46.999Z</time></trkpt><trkpt lat="44.6123658181671" lon="7.942029965598328"><ele>292.0</ele><time>2026-04-11T13:46:51.999Z</time></trkpt><trkpt lat="44.61235335259039" lon="7.942129477829478"><ele>292.0</ele><time>2026-04-11T13:47:49Z</time></trkpt><trkpt lat="44.61236237014628" lon="7.942040144483021"><ele>292.0</ele><time>2026-04-11T13:49:15Z</time></trkpt><trkpt lat="44.6123715050419" lon="7.941937584905101"><ele>292.0</ele><time>2026-04-11T13:49:20Z</time></trkpt><trkpt lat="44.612304974318015" lon="7.941899450258153"><ele>292.0</ele><time>2026-04-11T13:53:28Z</time></trkpt><trkpt lat="44.61224593324181" lon="7.941867125518471"><ele>292.0</ele><time>2026-04-11T13:53:31Z</time></trkpt><trkpt lat="44.61218092279546" lon="7.941836445001789"><ele>292.0</ele><time>2026-04-11T13:53:33Z</time></trkpt><trkpt lat="44.61209230161324" lon="7.941797796842467"><ele>290.8</ele><time>2026-04-11T13:53:35Z</time></trkpt><trkpt lat="44.61198857151311" lon="7.941750737904163"><ele>289.6</ele><time>2026-04-11T13:53:37Z</time></trkpt><trkpt lat="44.61186674997447" lon="7.941759300862053"><ele>288.40000000000003</ele><time>2026-04-11T13:53:39Z</time></trkpt><trkpt lat="44.61179044765229" lon="7.941810762996374"><ele>287.2</ele><time>2026-04-11T13:53:40Z</time></trkpt><trkpt lat="44.61171140973451" lon="7.941844619600661"><ele>286.0</ele><time>2026-04-11T13:53:41Z</time></trkpt><trkpt lat="44.61161997820072" lon="7.941911466327791"><ele>286.0</ele><time>2026-04-11T13:53:43Z</time></trkpt><trkpt lat="44.61154675147284" lon="7.941964817375731"><ele>286.0</ele><time>2026-04-11T13:53:45Z</time></trkpt><trkpt lat="44.611477730887486" lon="7.941983536849298"><ele>286.0</ele><time>2026-04-11T13:53:47Z</time></trkpt><trkpt lat="44.611396751855125" lon="7.941965613744392"><ele>286.0</ele><time>2026-04-11T13:53:50Z</time></trkpt><trkpt lat="44.611330273056986" lon="7.941954696938871"><ele>286.0</ele><time>2026-04-11T13:53:53Z</time></trkpt><trkpt lat="44.61131779253263" lon="7.941861163200595"><ele>286.0</ele><time>2026-04-11T13:53:56Z</time></trkpt><trkpt lat="44.61122309824926" lon="7.94201047827393"><ele>286.0</ele><time>2026-04-11T13:53:58Z</time></trkpt><trkpt lat="44.61113760351314" lon="7.94196029128233"><ele>286.0</ele><time>2026-04-11T13:54:02Z</time></trkpt><trkpt lat="44.61117844973532" lon="7.942067289360634"><ele>286.0</ele><time>2026-04-11T13:54:06Z</time></trkpt><trkpt lat="44.61110308015805" lon="7.942083166053692"><ele>286.0</ele><time>2026-04-11T13:54:07Z</time></trkpt><trkpt lat="44.61106520902298" lon="7.942177726873335"><ele>286.0</ele><time>2026-04-11T13:54:10Z</time></trkpt><trkpt lat="44.611039179812664" lon="7.94227773835257"><ele>286.0</ele><time>2026-04-11T13:54:13Z</time></trkpt><trkpt lat="44.61102998694229" lon="7.942379355959432"><ele>287.71428571428567</ele><time>2026-04-11T13:54:16Z</time></trkpt><trkpt lat="44.6109992429938" lon="7.942470590001624"><ele>289.42857142857144</ele><time>2026-04-11T13:54:19Z</time></trkpt><trkpt lat="44.61098376019928" lon="7.942562164119479"><ele>291.1428571428571</ele><time>2026-04-11T13:54:21.999Z</time></trkpt><trkpt lat="44.61101158751446" lon="7.9426639087403705"><ele>292.85714285714283</ele><time>2026-04-11T13:54:25.999Z</time></trkpt><trkpt lat="44.610957234480864" lon="7.942714291612851"><ele>294.57142857142856</ele><time>2026-04-11T13:56:07Z</time></trkpt><trkpt lat="44.61096214937109" lon="7.942820210309566"><ele>296.2857142857143</ele><time>2026-04-11T13:56:13Z</time></trkpt><trkpt lat="44.610990308924556" lon="7.942912301371814"><ele>298.0</ele><time>2026-04-11T13:56:17.999Z</time></trkpt><trkpt lat="44.61102242230379" lon="7.943005450176344"><ele>297.7142857142857</ele><time>2026-04-11T13:56:23.999Z</time></trkpt><trkpt lat="44.611053245662504" lon="7.943099536999504"><ele>297.4285714285714</ele><time>2026-04-11T13:56:29.999Z</time></trkpt><trkpt lat="44.611081778581486" lon="7.943184163563396"><ele>297.1428571428571</ele><time>2026-04-11T13:56:34.999Z</time></trkpt><trkpt lat="44.61110365508921" lon="7.943288255815489"><ele>296.85714285714283</ele><time>2026-04-11T13:56:40.999Z</time></trkpt><trkpt lat="44.61112027952841" lon="7.943400289092744"><ele>296.57142857142856</ele><time>2026-04-11T13:56:47.999Z</time></trkpt><trkpt lat="44.61112724660389" lon="7.943491373821603"><ele>296.2857142857143</ele><time>2026-04-11T13:56:53.999Z</time></trkpt><trkpt lat="44.61114302691804" lon="7.9435907132209405"><ele>296.0</ele><time>2026-04-11T13:57:00.999Z</time></trkpt><trkpt lat="44.61111599372282" lon="7.943692719174687"><ele>296.0</ele><time>2026-04-11T13:57:08.999Z</time></trkpt><trkpt lat="44.61106806089156" lon="7.943761339283602"><ele>296.0</ele><time>2026-04-11T13:57:18.999Z</time></trkpt><trkpt lat="44.61099250379887" lon="7.943757848051652"><ele>296.0</ele><time>2026-04-11T13:57:27.999Z</time></trkpt><trkpt lat="44.61093115218285" lon="7.943804095543244"><ele>296.0</ele><time>2026-04-11T13:57:34Z</time></trkpt><trkpt lat="44.61087691950892" lon="7.943849779411687"><ele>296.0</ele><time>2026-04-11T13:57:41Z</time></trkpt><trkpt lat="44.610828391661094" lon="7.943913267031056"><ele>296.0</ele><time>2026-04-11T13:57:47Z</time></trkpt><trkpt lat="44.610830947990976" lon="7.944004802394198"><ele>296.0</ele><time>2026-04-11T13:57:54Z</time></trkpt><trkpt lat="44.61083622243985" lon="7.944094467293925"><ele>296.0</ele><time>2026-04-11T13:58:00Z</time></trkpt><trkpt lat="44.61087214258327" lon="7.944177944012209"><ele>296.0</ele><time>2026-04-11T13:58:08Z</time></trkpt><trkpt lat="44.6108801409123" lon="7.94426794535037"><ele>296.0</ele><time>2026-04-11T13:58:20.999Z</time></trkpt><trkpt lat="44.61094441667791" lon="7.944301954975621"><ele>296.0</ele><time>2026-04-11T13:58:31.999Z</time></trkpt><trkpt lat="44.61101264944051" lon="7.944304965737947"><ele>296.0</ele><time>2026-04-11T13:58:35.999Z</time></trkpt><trkpt lat="44.61107783065774" lon="7.944350408901679"><ele>296.0</ele><time>2026-04-11T13:58:39.999Z</time></trkpt><trkpt lat="44.611145386954874" lon="7.944328621951684"><ele>296.0</ele><time>2026-04-11T13:58:44.999Z</time></trkpt><trkpt lat="44.6112056366349" lon="7.944297677237487"><ele>294.42857142857144</ele><time>2026-04-11T13:58:50.999Z</time></trkpt><trkpt lat="44.61126896468283" lon="7.944292049718846"><ele>292.85714285714283</ele><time>2026-04-11T13:58:56.999Z</time></trkpt><trkpt lat="44.61129815357306" lon="7.944206374848658"><ele>291.2857142857143</ele><time>2026-04-11T13:59:10.999Z</time></trkpt><trkpt lat="44.611327419194794" lon="7.944114162254423"><ele>289.7142857142857</ele><time>2026-04-11T13:59:19.999Z</time></trkpt><trkpt lat="44.611388261949045" lon="7.944081621662038"><ele>288.14285714285717</ele><time>2026-04-11T13:59:23.999Z</time></trkpt><trkpt lat="44.61144602238937" lon="7.9440123856970715"><ele>286.57142857142856</ele><time>2026-04-11T13:59:28.999Z</time></trkpt><trkpt lat="44.611384023885265" lon="7.9440696515600395"><ele>285.0</ele><time>2026-04-11T14:01:04.999Z</time></trkpt><trkpt lat="44.61133111504997" lon="7.944130607065275"><ele>282.42857142857144</ele><time>2026-04-11T14:01:07.999Z</time></trkpt><trkpt lat="44.61129368354396" lon="7.944225796131583"><ele>279.8571428571429</ele><time>2026-04-11T14:01:10.999Z</time></trkpt><trkpt lat="44.61132851098778" lon="7.9443344306739165"><ele>277.28571428571433</ele><time>2026-04-11T14:01:13.999Z</time></trkpt><trkpt lat="44.611393524642445" lon="7.94436003310651"><ele>274.7142857142857</ele><time>2026-04-11T14:01:15.999Z</time></trkpt><trkpt lat="44.61132811528897" lon="7.944326331574134"><ele>272.14285714285717</ele><time>2026-04-11T14:03:22Z</time></trkpt><trkpt lat="44.61138926381649" lon="7.944356101056657"><ele>269.5714285714286</ele><time>2026-04-11T14:03:30Z</time></trkpt><trkpt lat="44.61145226106766" lon="7.944342624052603"><ele>267.0</ele><time>2026-04-11T14:03:33Z</time></trkpt><trkpt lat="44.61150600115654" lon="7.944281849674386"><ele>267.00000000000006</ele><time>2026-04-11T14:03:46Z</time></trkpt><trkpt lat="44.61156358129636" lon="7.944239639575796"><ele>267.0</ele><time>2026-04-11T14:04:06Z</time></trkpt><trkpt lat="44.61155461405549" lon="7.944122441208729"><ele>267.0</ele><time>2026-04-11T14:04:09Z</time></trkpt><trkpt lat="44.611513972821484" lon="7.944026284748873"><ele>267.0</ele><time>2026-04-11T14:04:12Z</time></trkpt><trkpt lat="44.611460968383106" lon="7.943939984835829"><ele>267.0</ele><time>2026-04-11T14:04:15Z</time></trkpt><trkpt lat="44.61140807175325" lon="7.943880586227017"><ele>267.00000000000006</ele><time>2026-04-11T14:04:18Z</time></trkpt><trkpt lat="44.61135239464491" lon="7.943837617337577"><ele>267.0</ele><time>2026-04-11T14:04:23Z</time></trkpt><trkpt lat="44.61128571990964" lon="7.94380725943889"><ele>269.5714285714286</ele><time>2026-04-11T14:04:27Z</time></trkpt><trkpt lat="44.61121999790365" lon="7.943800144849907"><ele>272.14285714285717</ele><time>2026-04-11T14:04:31Z</time></trkpt><trkpt lat="44.6111409808502" lon="7.943800843698881"><ele>274.7142857142857</ele><time>2026-04-11T14:04:36Z</time></trkpt><trkpt lat="44.61110445756841" lon="7.943725965454257"><ele>277.28571428571433</ele><time>2026-04-11T14:04:42Z</time></trkpt><trkpt lat="44.611140458553656" lon="7.9436418408786444"><ele>279.8571428571429</ele><time>2026-04-11T14:04:47Z</time></trkpt><trkpt lat="44.611198341035774" lon="7.943552557322554"><ele>282.42857142857144</ele><time>2026-04-11T14:04:53Z</time></trkpt><trkpt lat="44.61127539285163" lon="7.943514163995327"><ele>285.0</ele><time>2026-04-11T14:04:55Z</time></trkpt><trkpt lat="44.61133824892746" lon="7.943495406245028"><ele>285.0</ele><time>2026-04-11T14:04:58Z</time></trkpt><trkpt lat="44.611387494198055" lon="7.943416477575247"><ele>285.0</ele><time>2026-04-11T14:05:26Z</time></trkpt><trkpt lat="44.611455548888166" lon="7.943354409348485"><ele>285.0</ele><time>2026-04-11T14:05:29Z</time></trkpt><trkpt lat="44.611499436686046" lon="7.943267611727485"><ele>285.0</ele><time>2026-04-11T14:05:31Z</time></trkpt><trkpt lat="44.61152279965868" lon="7.943154223284363"><ele>285.0</ele><time>2026-04-11T14:05:33Z</time></trkpt><trkpt lat="44.61156562586782" lon="7.943065780469645"><ele>285.0</ele><time>2026-04-11T14:05:35Z</time></trkpt><trkpt lat="44.61164033197237" lon="7.943031552304694"><ele>284.6666666666667</ele><time>2026-04-11T14:05:37Z</time></trkpt><trkpt lat="44.6117299748715" lon="7.9430304284205056"><ele>284.3333333333333</ele><time>2026-04-11T14:05:40Z</time></trkpt><trkpt lat="44.611807505213235" lon="7.943008207827089"><ele>284.0</ele><time>2026-04-11T14:05:42Z</time></trkpt><trkpt lat="44.61186731260518" lon="7.942972425763117"><ele>283.66666666666663</ele><time>2026-04-11T14:05:44Z</time></trkpt><trkpt lat="44.61190061419319" lon="7.942882601493024"><ele>283.3333333333333</ele><time>2026-04-11T14:05:46Z</time></trkpt><trkpt lat="44.611918711614074" lon="7.9427707223472215"><ele>283.0</ele><time>2026-04-11T14:05:48Z</time></trkpt><trkpt lat="44.61191970421441" lon="7.942665490856811"><ele>283.0</ele><time>2026-04-11T14:05:50Z</time></trkpt><trkpt lat="44.61191786206365" lon="7.94257181485091"><ele>283.0</ele><time>2026-04-11T14:05:52Z</time></trkpt><trkpt lat="44.61191702636919" lon="7.942479958033773"><ele>283.0</ele><time>2026-04-11T14:05:54Z</time></trkpt><trkpt lat="44.61193023678369" lon="7.942354122982257"><ele>283.0</ele><time>2026-04-11T14:05:57Z</time></trkpt><trkpt lat="44.611943757583234" lon="7.942230906054236"><ele>283.0</ele><time>2026-04-11T14:06:00Z</time></trkpt><trkpt lat="44.61194854318232" lon="7.942104191446059"><ele>283.0</ele><time>2026-04-11T14:06:03Z</time></trkpt><trkpt lat="44.61194508088374" lon="7.942013693019118"><ele>283.5</ele><time>2026-04-11T14:06:05Z</time></trkpt><trkpt lat="44.61191511624255" lon="7.941932620799598"><ele>284.0</ele><time>2026-04-11T14:06:07Z</time></trkpt><trkpt lat="44.61185338079785" lon="7.94188106485561"><ele>284.5</ele><time>2026-04-11T14:06:10Z</time></trkpt><trkpt lat="44.611764187464416" lon="7.941866984910944"><ele>285.0</ele><time>2026-04-11T14:06:13Z</time></trkpt><trkpt lat="44.61167456653765" lon="7.941906989534847"><ele>285.5</ele><time>2026-04-11T14:06:16Z</time></trkpt><trkpt lat="44.611593461239316" lon="7.941952568339426"><ele>286.0</ele><time>2026-04-11T14:06:19Z</time></trkpt><trkpt lat="44.61148375330759" lon="7.94198882838005"><ele>285.99999999999994</ele><time>2026-04-11T14:06:22Z</time></trkpt><trkpt lat="44.61142089153081" lon="7.941974876739987"><ele>286.0</ele><time>2026-04-11T14:06:24Z</time></trkpt><trkpt lat="44.61136443186332" lon="7.941897166525715"><ele>286.0</ele><time>2026-04-11T14:06:27Z</time></trkpt><trkpt lat="44.61132188850742" lon="7.941798162778531"><ele>286.0</ele><time>2026-04-11T14:06:30Z</time></trkpt><trkpt lat="44.6112888619367" lon="7.941710929304212"><ele>286.0</ele><time>2026-04-11T14:06:33Z</time></trkpt><trkpt lat="44.61124855761415" lon="7.941624743413553"><ele>285.99999999999994</ele><time>2026-04-11T14:06:36Z</time></trkpt><trkpt lat="44.61118256624369" lon="7.941560876810601"><ele>286.0</ele><time>2026-04-11T14:06:39Z</time></trkpt><trkpt lat="44.61111091197389" lon="7.941537937416179"><ele>288.16666666666663</ele><time>2026-04-11T14:06:41Z</time></trkpt><trkpt lat="44.61103527071223" lon="7.9415050308027615"><ele>290.3333333333333</ele><time>2026-04-11T14:06:44Z</time></trkpt><trkpt lat="44.610954977135265" lon="7.94146725856481"><ele>292.5</ele><time>2026-04-11T14:06:47Z</time></trkpt><trkpt lat="44.61087609991174" lon="7.941457007408467"><ele>294.6666666666667</ele><time>2026-04-11T14:06:50Z</time></trkpt><trkpt lat="44.61080378810674" lon="7.941453424650644"><ele>296.83333333333337</ele><time>2026-04-11T14:06:53Z</time></trkpt><trkpt lat="44.61074457964294" lon="7.9414853520689315"><ele>299.0</ele><time>2026-04-11T14:06:56Z</time></trkpt><trkpt lat="44.61068140642897" lon="7.941552304557116"><ele>299.0</ele><time>2026-04-11T14:06:59Z</time></trkpt><trkpt lat="44.610647952303616" lon="7.941644985251381"><ele>299.0</ele><time>2026-04-11T14:07:02Z</time></trkpt><trkpt lat="44.61065039781616" lon="7.941750032470093"><ele>299.0</ele><time>2026-04-11T14:07:05Z</time></trkpt><trkpt lat="44.61063841664655" lon="7.9418645173172475"><ele>299.0</ele><time>2026-04-11T14:07:08Z</time></trkpt><trkpt lat="44.61063741587421" lon="7.941956225532356"><ele>299.0</ele><time>2026-04-11T14:07:10Z</time></trkpt><trkpt lat="44.610636097041095" lon="7.942057437104339"><ele>299.0</ele><time>2026-04-11T14:07:12Z</time></trkpt><trkpt lat="44.61064109698481" lon="7.94216957932021"><ele>299.0</ele><time>2026-04-11T14:07:15Z</time></trkpt><trkpt lat="44.61062389634122" lon="7.942285882637628"><ele>298.85714285714283</ele><time>2026-04-11T14:07:19Z</time></trkpt><trkpt lat="44.61059215627545" lon="7.942371891318414"><ele>298.7142857142857</ele><time>2026-04-11T14:07:22Z</time></trkpt><trkpt lat="44.6105375078117" lon="7.942438447931545"><ele>298.57142857142856</ele><time>2026-04-11T14:07:25Z</time></trkpt><trkpt lat="44.610489216156914" lon="7.942505649016999"><ele>298.42857142857144</ele><time>2026-04-11T14:07:29Z</time></trkpt><trkpt lat="44.610423000495395" lon="7.942523998863516"><ele>298.2857142857143</ele><time>2026-04-11T14:07:32Z</time></trkpt><trkpt lat="44.61036987597189" lon="7.942447428462265"><ele>298.1428571428571</ele><time>2026-04-11T14:07:35Z</time></trkpt><trkpt lat="44.61032115484299" lon="7.942360899397481"><ele>298.0</ele><time>2026-04-11T14:07:38Z</time></trkpt><trkpt lat="44.61027823370178" lon="7.942247469432141"><ele>298.5</ele><time>2026-04-11T14:07:41Z</time></trkpt><trkpt lat="44.61025540426385" lon="7.9421303581782965"><ele>299.0</ele><time>2026-04-11T14:07:44Z</time></trkpt><trkpt lat="44.610242032358215" lon="7.942015793530411"><ele>299.5</ele><time>2026-04-11T14:07:47Z</time></trkpt><trkpt lat="44.61023228663794" lon="7.941894880487021"><ele>300.0</ele><time>2026-04-11T14:07:50Z</time></trkpt><trkpt lat="44.61022017414359" lon="7.941799735785406"><ele>300.5</ele><time>2026-04-11T14:07:52Z</time></trkpt><trkpt lat="44.610209725831254" lon="7.941688851938625"><ele>301.0</ele><time>2026-04-11T14:07:54Z</time></trkpt><trkpt lat="44.61021849429376" lon="7.941539827437136"><ele>301.3333333333333</ele><time>2026-04-11T14:07:57Z</time></trkpt><trkpt lat="44.61022264772062" lon="7.941445321131765"><ele>301.66666666666663</ele><time>2026-04-11T14:07:59Z</time></trkpt><trkpt lat="44.61022870237035" lon="7.941312614957734"><ele>302.0</ele><time>2026-04-11T14:08:02Z</time></trkpt><trkpt lat="44.61022811066913" lon="7.941223642135416"><ele>302.3333333333333</ele><time>2026-04-11T14:08:04Z</time></trkpt><trkpt lat="44.61021832718384" lon="7.941111730247306"><ele>302.6666666666667</ele><time>2026-04-11T14:08:06Z</time></trkpt><trkpt lat="44.61021162404478" lon="7.940999596987611"><ele>303.0</ele><time>2026-04-11T14:08:08Z</time></trkpt><trkpt lat="44.61021602217383" lon="7.940889302929664"><ele>303.42857142857144</ele><time>2026-04-11T14:08:11Z</time></trkpt><trkpt lat="44.61019530268372" lon="7.940801334845448"><ele>303.85714285714283</ele><time>2026-04-11T14:08:13Z</time></trkpt><trkpt lat="44.61017628652453" lon="7.940690685338633"><ele>304.2857142857143</ele><time>2026-04-11T14:08:16Z</time></trkpt><trkpt lat="44.610174272915344" lon="7.940579935860545"><ele>304.7142857142857</ele><time>2026-04-11T14:08:18Z</time></trkpt><trkpt lat="44.61015794828125" lon="7.940490327904953"><ele>305.14285714285717</ele><time>2026-04-11T14:08:20Z</time></trkpt><trkpt lat="44.6101317530345" lon="7.940377072441762"><ele>305.57142857142856</ele><time>2026-04-11T14:08:24Z</time></trkpt><trkpt lat="44.610090620723106" lon="7.940295168216808"><ele>306.0</ele><time>2026-04-11T14:08:27Z</time></trkpt><trkpt lat="44.6100804057863" lon="7.940198553300989"><ele>306.0</ele><time>2026-04-11T14:08:30Z</time></trkpt><trkpt lat="44.61007586561573" lon="7.940105986474448"><ele>306.0</ele><time>2026-04-11T14:08:33Z</time></trkpt><trkpt lat="44.610066487851114" lon="7.940018478999237"><ele>306.0</ele><time>2026-04-11T14:08:36Z</time></trkpt><trkpt lat="44.61007169293467" lon="7.939919428418219"><ele>306.0</ele><time>2026-04-11T14:08:39Z</time></trkpt><trkpt lat="44.61005728322516" lon="7.939817531622289"><ele>306.0</ele><time>2026-04-11T14:08:44Z</time></trkpt><trkpt lat="44.61004385092712" lon="7.93971927316011"><ele>306.0</ele><time>2026-04-11T14:08:47Z</time></trkpt><trkpt lat="44.61002953866874" lon="7.939624518630134"><ele>306.0</ele><time>2026-04-11T14:08:51Z</time></trkpt><trkpt lat="44.60998911525974" lon="7.939537690721129"><ele>307.3333333333333</ele><time>2026-04-11T14:08:55Z</time></trkpt><trkpt lat="44.609933862887324" lon="7.939478056713114"><ele>308.6666666666667</ele><time>2026-04-11T14:08:59Z</time></trkpt><trkpt lat="44.60989097459805" lon="7.939389065140253"><ele>310.0</ele><time>2026-04-11T14:09:04Z</time></trkpt><trkpt lat="44.60981883366888" lon="7.939334320688983"><ele>311.33333333333337</ele><time>2026-04-11T14:09:08Z</time></trkpt><trkpt lat="44.60974434957079" lon="7.939315458525038"><ele>312.6666666666667</ele><time>2026-04-11T14:09:12Z</time></trkpt><trkpt lat="44.60966501974308" lon="7.939290236799469"><ele>314.0</ele><time>2026-04-11T14:09:16Z</time></trkpt><trkpt lat="44.609599761749145" lon="7.939276619254455"><ele>313.99999999999994</ele><time>2026-04-11T14:09:19Z</time></trkpt><trkpt lat="44.60953149266087" lon="7.9392442784005555"><ele>314.0</ele><time>2026-04-11T14:09:23Z</time></trkpt><trkpt lat="44.60946913059172" lon="7.939202717455966"><ele>314.0</ele><time>2026-04-11T14:09:26Z</time></trkpt><trkpt lat="44.609397055376576" lon="7.939157994978882"><ele>314.0</ele><time>2026-04-11T14:09:30Z</time></trkpt><trkpt lat="44.60933033884113" lon="7.939117457352498"><ele>314.0</ele><time>2026-04-11T14:09:34Z</time></trkpt><trkpt lat="44.60927070657497" lon="7.939081297720738"><ele>313.99999999999994</ele><time>2026-04-11T14:09:38Z</time></trkpt><trkpt lat="44.60920528938138" lon="7.9390594499249065"><ele>314.0</ele><time>2026-04-11T14:09:42Z</time></trkpt><trkpt lat="44.609148151374725" lon="7.939019486062782"><ele>315.57142857142856</ele><time>2026-04-11T14:09:46Z</time></trkpt><trkpt lat="44.60909623140658" lon="7.938947440272388"><ele>317.1428571428571</ele><time>2026-04-11T14:09:51Z</time></trkpt><trkpt lat="44.609070190219505" lon="7.938861027522549"><ele>318.71428571428567</ele><time>2026-04-11T14:09:56Z</time></trkpt><trkpt lat="44.60901173448114" lon="7.938818939531575"><ele>320.2857142857143</ele><time>2026-04-11T14:10:01Z</time></trkpt><trkpt lat="44.60895263421488" lon="7.9387613583648315"><ele>321.8571428571429</ele><time>2026-04-11T14:10:07Z</time></trkpt><trkpt lat="44.608884929486265" lon="7.938731664310152"><ele>323.4285714285714</ele><time>2026-04-11T14:10:11Z</time></trkpt><trkpt lat="44.60882553038346" lon="7.938694555805352"><ele>325.0</ele><time>2026-04-11T14:10:15Z</time></trkpt><trkpt lat="44.60876085665836" lon="7.938668867156474"><ele>325.0</ele><time>2026-04-11T14:10:18Z</time></trkpt><trkpt lat="44.60867915062837" lon="7.93863386281699"><ele>325.0</ele><time>2026-04-11T14:10:22Z</time></trkpt><trkpt lat="44.60859980211741" lon="7.938595898873562"><ele>325.0</ele><time>2026-04-11T14:10:26Z</time></trkpt><trkpt lat="44.60852061645202" lon="7.938584321076615"><ele>325.0</ele><time>2026-04-11T14:10:30Z</time></trkpt><trkpt lat="44.608437416279436" lon="7.938554075766107"><ele>325.0</ele><time>2026-04-11T14:10:34Z</time></trkpt><trkpt lat="44.6083655349607" lon="7.938553531134132"><ele>325.0</ele><time>2026-04-11T14:10:37Z</time></trkpt><trkpt lat="44.60829494962837" lon="7.9385414494887"><ele>326.3333333333333</ele><time>2026-04-11T14:10:40Z</time></trkpt><trkpt lat="44.60822462956555" lon="7.938520218867934"><ele>327.66666666666663</ele><time>2026-04-11T14:10:43Z</time></trkpt><trkpt lat="44.60815059642048" lon="7.938500017288296"><ele>329.0</ele><time>2026-04-11T14:10:46Z</time></trkpt><trkpt lat="44.608074699047265" lon="7.938462661411248"><ele>330.3333333333333</ele><time>2026-04-11T14:10:49Z</time></trkpt><trkpt lat="44.60799810987521" lon="7.938418128809866"><ele>331.6666666666667</ele><time>2026-04-11T14:10:52Z</time></trkpt><trkpt lat="44.60791919607163" lon="7.938393416839961"><ele>333.0</ele><time>2026-04-11T14:10:55Z</time></trkpt><trkpt lat="44.60785305111485" lon="7.93835953887459"><ele>334.8333333333333</ele><time>2026-04-11T14:10:58Z</time></trkpt><trkpt lat="44.607782682946564" lon="7.938323035192158"><ele>336.6666666666667</ele><time>2026-04-11T14:11:01Z</time></trkpt><trkpt lat="44.60771551954693" lon="7.938285059033452"><ele>338.5</ele><time>2026-04-11T14:11:04Z</time></trkpt><trkpt lat="44.60764053950905" lon="7.938254760233844"><ele>340.33333333333337</ele><time>2026-04-11T14:11:07Z</time></trkpt><trkpt lat="44.60755842888068" lon="7.938223403978964"><ele>342.1666666666667</ele><time>2026-04-11T14:11:10Z</time></trkpt><trkpt lat="44.60748983707217" lon="7.938181758307713"><ele>344.0</ele><time>2026-04-11T14:11:13Z</time></trkpt><trkpt lat="44.6074250269864" lon="7.938143886701999"><ele>344.00000000000006</ele><time>2026-04-11T14:11:16Z</time></trkpt><trkpt lat="44.607367973418185" lon="7.938102286415767"><ele>344.0</ele><time>2026-04-11T14:11:19Z</time></trkpt><trkpt lat="44.60730848997795" lon="7.9380504894499175"><ele>344.0</ele><time>2026-04-11T14:11:23Z</time></trkpt><trkpt lat="44.6072310429856" lon="7.937998253771771"><ele>344.0</ele><time>2026-04-11T14:11:27Z</time></trkpt><trkpt lat="44.607173473031246" lon="7.937935442273046"><ele>344.0</ele><time>2026-04-11T14:11:31Z</time></trkpt><trkpt lat="44.60711959595281" lon="7.93788329367536"><ele>344.00000000000006</ele><time>2026-04-11T14:11:34Z</time></trkpt><trkpt lat="44.6070539244657" lon="7.937843262021705"><ele>344.0</ele><time>2026-04-11T14:11:37Z</time></trkpt><trkpt lat="44.60698331913955" lon="7.937855714825244"><ele>343.79999999999995</ele><time>2026-04-11T14:11:41Z</time></trkpt><trkpt lat="44.606814273286176" lon="7.937988586944093"><ele>343.59999999999997</ele><time>2026-04-11T14:11:44Z</time></trkpt><trkpt lat="44.60675476517946" lon="7.938043726500886"><ele>343.4</ele><time>2026-04-11T14:11:45Z</time></trkpt><trkpt lat="44.60667744303431" lon="7.938079155785348"><ele>343.2</ele><time>2026-04-11T14:11:46Z</time></trkpt><trkpt lat="44.6066007832457" lon="7.938055365443912"><ele>343.0</ele><time>2026-04-11T14:11:47Z</time></trkpt><trkpt lat="44.606537094713836" lon="7.9380368549869225"><ele>343.0</ele><time>2026-04-11T14:11:48Z</time></trkpt><trkpt lat="44.60645836311518" lon="7.938022324696048"><ele>343.0</ele><time>2026-04-11T14:11:49Z</time></trkpt><trkpt lat="44.606386899902354" lon="7.93801343629345"><ele>343.0</ele><time>2026-04-11T14:11:50Z</time></trkpt><trkpt lat="44.60631673973868" lon="7.938005294176686"><ele>343.0</ele><time>2026-04-11T14:11:51Z</time></trkpt><trkpt lat="44.606206461689204" lon="7.9379924983339"><ele>343.0</ele><time>2026-04-11T14:11:53Z</time></trkpt><trkpt lat="44.60610198197464" lon="7.937980718655715"><ele>343.0</ele><time>2026-04-11T14:11:55Z</time></trkpt><trkpt lat="44.6060139405776" lon="7.9379693090795955"><ele>343.14285714285717</ele><time>2026-04-11T14:11:57Z</time></trkpt><trkpt lat="44.60593911603244" lon="7.9379518346660385"><ele>343.2857142857143</ele><time>2026-04-11T14:11:59Z</time></trkpt><trkpt lat="44.60586837301305" lon="7.937931651923376"><ele>343.42857142857144</ele><time>2026-04-11T14:12:02Z</time></trkpt><trkpt lat="44.60580121056462" lon="7.937930973216124"><ele>343.57142857142856</ele><time>2026-04-11T14:12:06Z</time></trkpt><trkpt lat="44.60574005335906" lon="7.937892078101097"><ele>343.7142857142857</ele><time>2026-04-11T14:12:09Z</time></trkpt><trkpt lat="44.60567115050837" lon="7.937870828461235"><ele>343.8571428571429</ele><time>2026-04-11T14:12:12Z</time></trkpt><trkpt lat="44.605593359239585" lon="7.9378837111973155"><ele>344.0</ele><time>2026-04-11T14:12:15Z</time></trkpt><trkpt lat="44.60550810411132" lon="7.937876419668078"><ele>344.0</ele><time>2026-04-11T14:12:18Z</time></trkpt><trkpt lat="44.60541386835015" lon="7.93787904050468"><ele>344.0</ele><time>2026-04-11T14:12:21Z</time></trkpt><trkpt lat="44.60534617731215" lon="7.9378812646002705"><ele>344.0</ele><time>2026-04-11T14:12:23Z</time></trkpt><trkpt lat="44.60527016609333" lon="7.937872962169961"><ele>344.0</ele><time>2026-04-11T14:12:25Z</time></trkpt><trkpt lat="44.60518411061528" lon="7.937884017602935"><ele>344.0</ele><time>2026-04-11T14:12:27Z</time></trkpt><trkpt lat="44.605113902702804" lon="7.9379113907197105"><ele>344.0</ele><time>2026-04-11T14:12:29Z</time></trkpt><trkpt lat="44.60505657875455" lon="7.937952877942273"><ele>345.6666666666667</ele><time>2026-04-11T14:12:31Z</time></trkpt><trkpt lat="44.60494947344957" lon="7.938041296421982"><ele>347.33333333333337</ele><time>2026-04-11T14:12:33Z</time></trkpt><trkpt lat="44.604895127649826" lon="7.938087882585108"><ele>349.0</ele><time>2026-04-11T14:12:34Z</time></trkpt><trkpt lat="44.60481884119481" lon="7.938144137795217"><ele>350.6666666666667</ele><time>2026-04-11T14:12:36Z</time></trkpt><trkpt lat="44.604751857123325" lon="7.938213468121828"><ele>352.3333333333333</ele><time>2026-04-11T14:12:38Z</time></trkpt><trkpt lat="44.604688645838195" lon="7.938263039031983"><ele>354.0</ele><time>2026-04-11T14:12:40Z</time></trkpt><trkpt lat="44.60462522908034" lon="7.938291387405057"><ele>354.0</ele><time>2026-04-11T14:12:42Z</time></trkpt><trkpt lat="44.60456620975287" lon="7.938328149626001"><ele>354.0</ele><time>2026-04-11T14:12:44Z</time></trkpt><trkpt lat="44.604478680285375" lon="7.9383521219665365"><ele>354.0</ele><time>2026-04-11T14:12:47Z</time></trkpt><trkpt lat="44.604417414024034" lon="7.93837460157338"><ele>354.0</ele><time>2026-04-11T14:12:49Z</time></trkpt><trkpt lat="44.604336185118655" lon="7.93837661284056"><ele>354.0</ele><time>2026-04-11T14:12:52Z</time></trkpt><trkpt lat="44.60425680867973" lon="7.938387566654373"><ele>354.0</ele><time>2026-04-11T14:12:55Z</time></trkpt><trkpt lat="44.6041708359634" lon="7.938386805439575"><ele>353.5</ele><time>2026-04-11T14:12:58Z</time></trkpt><trkpt lat="44.604082345805374" lon="7.938388787832816"><ele>353.0</ele><time>2026-04-11T14:13:01Z</time></trkpt><trkpt lat="44.60399330504854" lon="7.938408452719215"><ele>352.5</ele><time>2026-04-11T14:13:04Z</time></trkpt><trkpt lat="44.60390633202079" lon="7.938436924116326"><ele>352.0</ele><time>2026-04-11T14:13:07Z</time></trkpt><trkpt lat="44.6038171436801" lon="7.938445485032135"><ele>351.5</ele><time>2026-04-11T14:13:10Z</time></trkpt><trkpt lat="44.60374874083756" lon="7.938463202521015"><ele>351.0</ele><time>2026-04-11T14:13:13Z</time></trkpt><trkpt lat="44.603660341512565" lon="7.938483518378454"><ele>352.8333333333333</ele><time>2026-04-11T14:13:16Z</time></trkpt><trkpt lat="44.60357912122108" lon="7.938496048509124"><ele>354.6666666666667</ele><time>2026-04-11T14:13:19Z</time></trkpt><trkpt lat="44.603474311892896" lon="7.938513170655343"><ele>356.5</ele><time>2026-04-11T14:13:22Z</time></trkpt><trkpt lat="44.60340681010419" lon="7.938528785377409"><ele>358.33333333333337</ele><time>2026-04-11T14:13:25Z</time></trkpt><trkpt lat="44.603325628563816" lon="7.938547695064241"><ele>360.1666666666667</ele><time>2026-04-11T14:13:29Z</time></trkpt><trkpt lat="44.60324610731577" lon="7.938559427140241"><ele>362.0</ele><time>2026-04-11T14:13:33Z</time></trkpt><trkpt lat="44.60317625219556" lon="7.938571990243729"><ele>362.0</ele><time>2026-04-11T14:13:37Z</time></trkpt><trkpt lat="44.603103456098644" lon="7.938582039064905"><ele>362.0</ele><time>2026-04-11T14:13:41Z</time></trkpt><trkpt lat="44.603038731804716" lon="7.938605765538889"><ele>362.0</ele><time>2026-04-11T14:13:45Z</time></trkpt><trkpt lat="44.60296700706978" lon="7.938610174242915"><ele>362.0</ele><time>2026-04-11T14:13:49Z</time></trkpt><trkpt lat="44.602900130321586" lon="7.93860142616915"><ele>362.0</ele><time>2026-04-11T14:13:53Z</time></trkpt><trkpt lat="44.60282121744341" lon="7.93858769155823"><ele>362.0</ele><time>2026-04-11T14:13:58Z</time></trkpt><trkpt lat="44.60275452969521" lon="7.938584929390549"><ele>362.0</ele><time>2026-04-11T14:14:02Z</time></trkpt><trkpt lat="44.60268900039978" lon="7.938587129975848"><ele>363.1666666666667</ele><time>2026-04-11T14:14:06Z</time></trkpt><trkpt lat="44.60261760378932" lon="7.938580522565549"><ele>364.33333333333337</ele><time>2026-04-11T14:14:10Z</time></trkpt><trkpt lat="44.60255517092222" lon="7.938558049663586"><ele>365.5</ele><time>2026-04-11T14:14:13Z</time></trkpt><trkpt lat="44.60248766339087" lon="7.9385334150638345"><ele>366.6666666666667</ele><time>2026-04-11T14:14:16Z</time></trkpt><trkpt lat="44.602414994039684" lon="7.938514270253121"><ele>367.8333333333333</ele><time>2026-04-11T14:14:19Z</time></trkpt><trkpt lat="44.60233895597674" lon="7.938478921452511"><ele>369.0</ele><time>2026-04-11T14:14:22Z</time></trkpt><trkpt lat="44.60222701645349" lon="7.938451332506853"><ele>369.0</ele><time>2026-04-11T14:14:23Z</time></trkpt><trkpt lat="44.60213310922187" lon="7.938407801547303"><ele>369.0</ele><time>2026-04-11T14:14:25Z</time></trkpt><trkpt lat="44.60201164585331" lon="7.938352384162946"><ele>369.0</ele><time>2026-04-11T14:14:27Z</time></trkpt><trkpt lat="44.60195028072969" lon="7.9383250307354745"><ele>369.0</ele><time>2026-04-11T14:14:28Z</time></trkpt><trkpt lat="44.601890198480035" lon="7.938295470893738"><ele>369.0</ele><time>2026-04-11T14:14:29Z</time></trkpt><trkpt lat="44.60177637689932" lon="7.93823577589939"><ele>370.0</ele><time>2026-04-11T14:14:31Z</time></trkpt><trkpt lat="44.601671127360326" lon="7.938192323260053"><ele>371.0</ele><time>2026-04-11T14:14:33Z</time></trkpt><trkpt lat="44.601591120263315" lon="7.938140777000754"><ele>372.0</ele><time>2026-04-11T14:14:35Z</time></trkpt><trkpt lat="44.601511206061716" lon="7.938097471448479"><ele>373.0</ele><time>2026-04-11T14:14:37Z</time></trkpt><trkpt lat="44.601434431172656" lon="7.938057856328757"><ele>374.0</ele><time>2026-04-11T14:14:39Z</time></trkpt><trkpt lat="44.601362403137905" lon="7.9380236913824564"><ele>375.0</ele><time>2026-04-11T14:14:41Z</time></trkpt><trkpt lat="44.60128154098425" lon="7.9379824913349335"><ele>375.0</ele><time>2026-04-11T14:14:43Z</time></trkpt><trkpt lat="44.60117748071726" lon="7.937937477727425"><ele>375.0</ele><time>2026-04-11T14:14:45Z</time></trkpt><trkpt lat="44.60104958650403" lon="7.9378872533905005"><ele>375.0</ele><time>2026-04-11T14:14:47Z</time></trkpt><trkpt lat="44.600969871848825" lon="7.937863846676029"><ele>375.0</ele><time>2026-04-11T14:14:48Z</time></trkpt><trkpt lat="44.60088881383518" lon="7.937852794776882"><ele>375.0</ele><time>2026-04-11T14:14:49Z</time></trkpt><trkpt lat="44.60080130559248" lon="7.9378442907827615"><ele>373.5</ele><time>2026-04-11T14:14:50Z</time></trkpt><trkpt lat="44.60071061741863" lon="7.937829227066512"><ele>372.0</ele><time>2026-04-11T14:14:51Z</time></trkpt><trkpt lat="44.60062192782599" lon="7.937795869910717"><ele>370.5</ele><time>2026-04-11T14:14:52Z</time></trkpt><trkpt lat="44.600545259650964" lon="7.93775827037937"><ele>369.0</ele><time>2026-04-11T14:14:53Z</time></trkpt><trkpt lat="44.600474293280605" lon="7.937720138021127"><ele>367.5</ele><time>2026-04-11T14:14:54Z</time></trkpt><trkpt lat="44.60040973003549" lon="7.937680506123455"><ele>366.0</ele><time>2026-04-11T14:14:55Z</time></trkpt><trkpt lat="44.60034929311648" lon="7.937650305487342"><ele>365.4</ele><time>2026-04-11T14:14:56Z</time></trkpt><trkpt lat="44.60024300623894" lon="7.937606008475714"><ele>364.8</ele><time>2026-04-11T14:14:58Z</time></trkpt><trkpt lat="44.600132105582134" lon="7.93756996237759"><ele>364.2</ele><time>2026-04-11T14:15:00Z</time></trkpt><trkpt lat="44.60004727221711" lon="7.937516978274401"><ele>363.59999999999997</ele><time>2026-04-11T14:15:02Z</time></trkpt><trkpt lat="44.599945176666694" lon="7.9374820966799735"><ele>363.0</ele><time>2026-04-11T14:15:04Z</time></trkpt><trkpt lat="44.59984104796172" lon="7.937431545751166"><ele>365.79999999999995</ele><time>2026-04-11T14:15:06Z</time></trkpt><trkpt lat="44.59973701760419" lon="7.937399719617501"><ele>368.6</ele><time>2026-04-11T14:15:08Z</time></trkpt><trkpt lat="44.599632203693915" lon="7.937400479862694"><ele>371.4</ele><time>2026-04-11T14:15:10Z</time></trkpt><trkpt lat="44.59953760946565" lon="7.937406454251631"><ele>374.20000000000005</ele><time>2026-04-11T14:15:12Z</time></trkpt><trkpt lat="44.59945994780264" lon="7.93739526680753"><ele>377.0</ele><time>2026-04-11T14:15:15Z</time></trkpt><trkpt lat="44.59936851813001" lon="7.937368825406428"><ele>377.6666666666667</ele><time>2026-04-11T14:15:17Z</time></trkpt><trkpt lat="44.59928412199812" lon="7.937356328566484"><ele>378.33333333333337</ele><time>2026-04-11T14:15:19Z</time></trkpt><trkpt lat="44.59918905354252" lon="7.937344380833792"><ele>379.0</ele><time>2026-04-11T14:15:22Z</time></trkpt><trkpt lat="44.599114802471014" lon="7.937333660812433"><ele>379.6666666666667</ele><time>2026-04-11T14:15:25Z</time></trkpt><trkpt lat="44.59904207359001" lon="7.937327950080918"><ele>380.3333333333333</ele><time>2026-04-11T14:15:28Z</time></trkpt><trkpt lat="44.598975249297844" lon="7.937329856132616"><ele>381.0</ele><time>2026-04-11T14:15:31Z</time></trkpt><trkpt lat="44.598901190336505" lon="7.93731438507775"><ele>381.0</ele><time>2026-04-11T14:15:34Z</time></trkpt><trkpt lat="44.59881488284508" lon="7.937313424537156"><ele>381.0</ele><time>2026-04-11T14:15:37Z</time></trkpt><trkpt lat="44.59872335285043" lon="7.937317150836178"><ele>381.0</ele><time>2026-04-11T14:15:40Z</time></trkpt><trkpt lat="44.598661153753916" lon="7.937332135939992"><ele>381.0</ele><time>2026-04-11T14:15:42Z</time></trkpt><trkpt lat="44.59857084627207" lon="7.937350063958737"><ele>381.0</ele><time>2026-04-11T14:15:45Z</time></trkpt><trkpt lat="44.59848896598485" lon="7.937369265881735"><ele>381.0</ele><time>2026-04-11T14:15:48Z</time></trkpt><trkpt lat="44.59842592670998" lon="7.937370345102892"><ele>382.2857142857143</ele><time>2026-04-11T14:15:50Z</time></trkpt><trkpt lat="44.59834241253751" lon="7.937387802294886"><ele>383.5714285714286</ele><time>2026-04-11T14:15:53Z</time></trkpt><trkpt lat="44.59827971003205" lon="7.93739742881624"><ele>384.8571428571429</ele><time>2026-04-11T14:15:55Z</time></trkpt><trkpt lat="44.59820483331238" lon="7.937411162823098"><ele>386.1428571428571</ele><time>2026-04-11T14:15:57Z</time></trkpt><trkpt lat="44.598140558506834" lon="7.937416371078953"><ele>387.42857142857144</ele><time>2026-04-11T14:16:00Z</time></trkpt><trkpt lat="44.598068787156045" lon="7.937438415106881"><ele>388.7142857142857</ele><time>2026-04-11T14:16:04Z</time></trkpt><trkpt lat="44.59801707616247" lon="7.9373751434835835"><ele>390.0</ele><time>2026-04-11T14:16:07Z</time></trkpt><trkpt lat="44.59796340603193" lon="7.937297606304649"><ele>389.0</ele><time>2026-04-11T14:16:09Z</time></trkpt><trkpt lat="44.59782615443444" lon="7.9371653017585775"><ele>388.0</ele><time>2026-04-11T14:16:11Z</time></trkpt><trkpt lat="44.59776991536122" lon="7.937084669363357"><ele>387.0</ele><time>2026-04-11T14:16:13Z</time></trkpt><trkpt lat="44.59771158622792" lon="7.937015847251914"><ele>386.0</ele><time>2026-04-11T14:16:15Z</time></trkpt><trkpt lat="44.59766814879311" lon="7.936940740778648"><ele>385.0</ele><time>2026-04-11T14:16:17Z</time></trkpt><trkpt lat="44.597603118060455" lon="7.936845348517976"><ele>385.0</ele><time>2026-04-11T14:16:20Z</time></trkpt><trkpt lat="44.597548868981825" lon="7.936750035630329"><ele>385.0</ele><time>2026-04-11T14:16:23Z</time></trkpt><trkpt lat="44.59748821349546" lon="7.9367148130486145"><ele>385.0</ele><time>2026-04-11T14:16:40Z</time></trkpt><trkpt lat="44.59745391044721" lon="7.936634374490965"><ele>385.0</ele><time>2026-04-11T14:16:43Z</time></trkpt><trkpt lat="44.59740260402803" lon="7.936556257388064"><ele>385.0</ele><time>2026-04-11T14:16:46Z</time></trkpt><trkpt lat="44.59736243047324" lon="7.9364750538435835"><ele>385.0</ele><time>2026-04-11T14:16:49Z</time></trkpt><trkpt lat="44.597296836185286" lon="7.936410031008136"><ele>385.0</ele><time>2026-04-11T14:16:52Z</time></trkpt><trkpt lat="44.59723813841667" lon="7.936342541855035"><ele>386.00000000000006</ele><time>2026-04-11T14:16:55Z</time></trkpt><trkpt lat="44.59717081766955" lon="7.936287758031998"><ele>387.0</ele><time>2026-04-11T14:16:58Z</time></trkpt><trkpt lat="44.5971014170021" lon="7.936213325348274"><ele>388.0</ele><time>2026-04-11T14:17:01Z</time></trkpt><trkpt lat="44.59704999788726" lon="7.936156732945921"><ele>389.0</ele><time>2026-04-11T14:17:03Z</time></trkpt><trkpt lat="44.59698341127666" lon="7.93607553100932"><ele>390.00000000000006</ele><time>2026-04-11T14:17:06Z</time></trkpt><trkpt lat="44.59692975464166" lon="7.936016013618971"><ele>391.0</ele><time>2026-04-11T14:17:08Z</time></trkpt><trkpt lat="44.596872824243675" lon="7.9359754985748445"><ele>391.00000000000006</ele><time>2026-04-11T14:17:10Z</time></trkpt><trkpt lat="44.596791306922405" lon="7.935943086965013"><ele>391.0</ele><time>2026-04-11T14:17:12Z</time></trkpt><trkpt lat="44.59670489935927" lon="7.935936486954157"><ele>391.0</ele><time>2026-04-11T14:17:14Z</time></trkpt><trkpt lat="44.59662430610595" lon="7.935934393013354"><ele>391.0</ele><time>2026-04-11T14:17:15Z</time></trkpt><trkpt lat="44.59654471853803" lon="7.935944359896105"><ele>391.00000000000006</ele><time>2026-04-11T14:17:17Z</time></trkpt><trkpt lat="44.596468689213054" lon="7.935946075646115"><ele>391.0</ele><time>2026-04-11T14:17:19Z</time></trkpt><trkpt lat="44.59638706879892" lon="7.9359522602840755"><ele>391.00000000000006</ele><time>2026-04-11T14:17:21Z</time></trkpt><trkpt lat="44.596316450748745" lon="7.9359651354548895"><ele>391.0</ele><time>2026-04-11T14:17:23Z</time></trkpt><trkpt lat="44.59622000298664" lon="7.935982896002931"><ele>391.0</ele><time>2026-04-11T14:17:26Z</time></trkpt><trkpt lat="44.59612333235455" lon="7.93601079287405"><ele>391.0</ele><time>2026-04-11T14:17:30Z</time></trkpt><trkpt lat="44.59604770142938" lon="7.936025308520705"><ele>391.00000000000006</ele><time>2026-04-11T14:17:32Z</time></trkpt><trkpt lat="44.595977280094615" lon="7.936010446320687"><ele>391.0</ele><time>2026-04-11T14:17:35Z</time></trkpt><trkpt lat="44.595907908284" lon="7.9360373291153365"><ele>393.33333333333337</ele><time>2026-04-11T14:17:37Z</time></trkpt><trkpt lat="44.59582717560575" lon="7.9360605309314805"><ele>395.6666666666667</ele><time>2026-04-11T14:17:40Z</time></trkpt><trkpt lat="44.59574672236681" lon="7.936072610940116"><ele>398.0</ele><time>2026-04-11T14:17:43Z</time></trkpt><trkpt lat="44.59566199809083" lon="7.936082231381514"><ele>400.33333333333337</ele><time>2026-04-11T14:17:46Z</time></trkpt><trkpt lat="44.595587426215495" lon="7.936113239694773"><ele>402.6666666666667</ele><time>2026-04-11T14:17:49Z</time></trkpt><trkpt lat="44.595506949648424" lon="7.936137792654973"><ele>405.0</ele><time>2026-04-11T14:17:52Z</time></trkpt><trkpt lat="44.595427545846995" lon="7.936161176736712"><ele>405.0</ele><time>2026-04-11T14:17:55Z</time></trkpt><trkpt lat="44.59534771147057" lon="7.93619434006832"><ele>405.0</ele><time>2026-04-11T14:17:58Z</time></trkpt><trkpt lat="44.59526739814923" lon="7.936204639792984"><ele>405.0</ele><time>2026-04-11T14:18:01Z</time></trkpt><trkpt lat="44.59519429361531" lon="7.936178273303616"><ele>405.0</ele><time>2026-04-11T14:18:04Z</time></trkpt><trkpt lat="44.595132374635746" lon="7.936138696458246"><ele>405.0</ele><time>2026-04-11T14:18:07Z</time></trkpt><trkpt lat="44.59508014079885" lon="7.936081300335042"><ele>405.0</ele><time>2026-04-11T14:18:10Z</time></trkpt><trkpt lat="44.59501250084499" lon="7.93602119901397"><ele>407.2</ele><time>2026-04-11T14:18:14Z</time></trkpt><trkpt lat="44.594960119954074" lon="7.936096513768246"><ele>409.4</ele><time>2026-04-11T14:18:17Z</time></trkpt><trkpt lat="44.59492592946671" lon="7.93621483111505"><ele>411.6</ele><time>2026-04-11T14:18:19Z</time></trkpt><trkpt lat="44.59485121744681" lon="7.936286052589982"><ele>413.8</ele><time>2026-04-11T14:18:21Z</time></trkpt><trkpt lat="44.59475053232798" lon="7.936218763038481"><ele>416.0</ele><time>2026-04-11T14:18:23Z</time></trkpt><trkpt lat="44.59467177425109" lon="7.9361298196631305"><ele>416.0</ele><time>2026-04-11T14:18:25Z</time></trkpt><trkpt lat="44.5945658943575" lon="7.9359979431764325"><ele>416.0</ele><time>2026-04-11T14:18:27Z</time></trkpt><trkpt lat="44.594487983023164" lon="7.935931339796355"><ele>416.0</ele><time>2026-04-11T14:18:28Z</time></trkpt><trkpt lat="44.59438448073034" lon="7.935883371997564"><ele>416.0</ele><time>2026-04-11T14:18:29Z</time></trkpt><trkpt lat="44.5943031476719" lon="7.93588034024799"><ele>416.0</ele><time>2026-04-11T14:18:30Z</time></trkpt><trkpt lat="44.594227922161245" lon="7.935846877416898"><ele>413.99999999999994</ele><time>2026-04-11T14:18:31Z</time></trkpt><trkpt lat="44.59415578084021" lon="7.9358262773777195"><ele>412.0</ele><time>2026-04-11T14:18:32Z</time></trkpt><trkpt lat="44.59407117322075" lon="7.9357980895781"><ele>410.0</ele><time>2026-04-11T14:18:33Z</time></trkpt><trkpt lat="44.59398468138315" lon="7.935750758765647"><ele>408.0</ele><time>2026-04-11T14:18:34Z</time></trkpt><trkpt lat="44.59391116046178" lon="7.935686960179922"><ele>405.99999999999994</ele><time>2026-04-11T14:18:35Z</time></trkpt><trkpt lat="44.593829060207646" lon="7.935614310022583"><ele>404.0</ele><time>2026-04-11T14:18:36Z</time></trkpt><trkpt lat="44.59374116810145" lon="7.935536046702633"><ele>400.79999999999995</ele><time>2026-04-11T14:18:37Z</time></trkpt><trkpt lat="44.59365303788696" lon="7.935463428386876"><ele>397.59999999999997</ele><time>2026-04-11T14:18:38Z</time></trkpt><trkpt lat="44.593562106482366" lon="7.935394214293127"><ele>394.4</ele><time>2026-04-11T14:18:39Z</time></trkpt><trkpt lat="44.59346963740598" lon="7.935329292477591"><ele>391.2</ele><time>2026-04-11T14:18:40Z</time></trkpt><trkpt lat="44.59337830936184" lon="7.935290000190085"><ele>388.0</ele><time>2026-04-11T14:18:41Z</time></trkpt><trkpt lat="44.59327581855207" lon="7.935302182451986"><ele>388.00000000000006</ele><time>2026-04-11T14:18:42Z</time></trkpt><trkpt lat="44.59318094430717" lon="7.935261558151171"><ele>388.0</ele><time>2026-04-11T14:18:43Z</time></trkpt><trkpt lat="44.59308602711381" lon="7.935249127482991"><ele>388.0</ele><time>2026-04-11T14:18:44Z</time></trkpt><trkpt lat="44.59299959132656" lon="7.935243947453773"><ele>388.0</ele><time>2026-04-11T14:18:45Z</time></trkpt><trkpt lat="44.59292216160108" lon="7.935250631237535"><ele>388.00000000000006</ele><time>2026-04-11T14:18:46Z</time></trkpt><trkpt lat="44.59285634492967" lon="7.9352961373280495"><ele>388.0</ele><time>2026-04-11T14:18:47Z</time></trkpt><trkpt lat="44.59280199615198" lon="7.935366324677305"><ele>388.0</ele><time>2026-04-11T14:18:49Z</time></trkpt><trkpt lat="44.59286681528467" lon="7.935333387964668"><ele>388.0</ele><time>2026-04-11T14:20:40Z</time></trkpt><trkpt lat="44.59290631766591" lon="7.935260704014915"><ele>388.0</ele><time>2026-04-11T14:20:44Z</time></trkpt><trkpt lat="44.5928861716986" lon="7.935152858782502"><ele>388.0</ele><time>2026-04-11T14:20:48Z</time></trkpt><trkpt lat="44.59288878953134" lon="7.935050339637607"><ele>388.0</ele><time>2026-04-11T14:20:53Z</time></trkpt><trkpt lat="44.59288406789604" lon="7.934952410184826"><ele>388.0</ele><time>2026-04-11T14:20:58Z</time></trkpt><trkpt lat="44.59287437579777" lon="7.934856397793969"><ele>388.0</ele><time>2026-04-11T14:21:02Z</time></trkpt><trkpt lat="44.592869034948286" lon="7.934758914571138"><ele>389.4285714285714</ele><time>2026-04-11T14:21:06Z</time></trkpt><trkpt lat="44.59286429435369" lon="7.934656937502714"><ele>390.8571428571429</ele><time>2026-04-11T14:21:10Z</time></trkpt><trkpt lat="44.59286477278779" lon="7.934560379209121"><ele>392.2857142857143</ele><time>2026-04-11T14:21:13Z</time></trkpt><trkpt lat="44.59287288074769" lon="7.93446742089477"><ele>393.71428571428567</ele><time>2026-04-11T14:21:16Z</time></trkpt><trkpt lat="44.592895894767125" lon="7.934373197802973"><ele>395.1428571428571</ele><time>2026-04-11T14:21:20Z</time></trkpt><trkpt lat="44.592915083178795" lon="7.934272529328697"><ele>396.57142857142856</ele><time>2026-04-11T14:21:24Z</time></trkpt><trkpt lat="44.5929090969493" lon="7.9341530915302805"><ele>398.0</ele><time>2026-04-11T14:21:28Z</time></trkpt><trkpt lat="44.59289226515032" lon="7.93405565391742"><ele>396.4</ele><time>2026-04-11T14:21:31Z</time></trkpt><trkpt lat="44.59287095601881" lon="7.933937018025171"><ele>394.79999999999995</ele><time>2026-04-11T14:21:35Z</time></trkpt><trkpt lat="44.592841275278005" lon="7.9337978803823015"><ele>393.2</ele><time>2026-04-11T14:21:38Z</time></trkpt><trkpt lat="44.59281558540989" lon="7.933649122132741"><ele>391.6</ele><time>2026-04-11T14:21:40Z</time></trkpt><trkpt lat="44.59278799982689" lon="7.93349434978517"><ele>390.0</ele><time>2026-04-11T14:21:42Z</time></trkpt><trkpt lat="44.59275333903497" lon="7.93335552057385"><ele>390.0</ele><time>2026-04-11T14:21:44Z</time></trkpt><trkpt lat="44.592717283844415" lon="7.933252417648365"><ele>390.0</ele><time>2026-04-11T14:21:46Z</time></trkpt><trkpt lat="44.592683651085125" lon="7.9331433156832905"><ele>390.0</ele><time>2026-04-11T14:21:48Z</time></trkpt><trkpt lat="44.59266153039695" lon="7.933029254275854"><ele>390.0</ele><time>2026-04-11T14:21:50Z</time></trkpt><trkpt lat="44.592643031494724" lon="7.9329262304568555"><ele>390.0</ele><time>2026-04-11T14:21:52Z</time></trkpt><trkpt lat="44.59265053283534" lon="7.932811596482327"><ele>390.0</ele><time>2026-04-11T14:21:54Z</time></trkpt><trkpt lat="44.592686086955666" lon="7.932721565852508"><ele>390.0</ele><time>2026-04-11T14:21:56Z</time></trkpt><trkpt lat="44.59267183381804" lon="7.93260413833123"><ele>390.0</ele><time>2026-04-11T14:21:59Z</time></trkpt><trkpt lat="44.59262094599835" lon="7.93249270575103"><ele>390.0</ele><time>2026-04-11T14:22:02Z</time></trkpt><trkpt lat="44.59258622476408" lon="7.93239774964866"><ele>390.0</ele><time>2026-04-11T14:22:04Z</time></trkpt><trkpt lat="44.59254962729227" lon="7.932292967873071"><ele>390.0</ele><time>2026-04-11T14:22:06Z</time></trkpt><trkpt lat="44.592514259648944" lon="7.932176201843666"><ele>390.0</ele><time>2026-04-11T14:22:08Z</time></trkpt><trkpt lat="44.59249446320361" lon="7.9320912358173095"><ele>391.5</ele><time>2026-04-11T14:22:10Z</time></trkpt><trkpt lat="44.59246454213805" lon="7.93197362724788"><ele>393.0</ele><time>2026-04-11T14:22:12Z</time></trkpt><trkpt lat="44.59244142763398" lon="7.931857747170621"><ele>394.5</ele><time>2026-04-11T14:22:14Z</time></trkpt><trkpt lat="44.59240208600365" lon="7.93175518832851"><ele>396.0</ele><time>2026-04-11T14:22:16Z</time></trkpt><trkpt lat="44.59233292936123" lon="7.931634729528227"><ele>397.5</ele><time>2026-04-11T14:22:18Z</time></trkpt><trkpt lat="44.592273713192334" lon="7.931561375935412"><ele>399.0</ele><time>2026-04-11T14:22:20Z</time></trkpt><trkpt lat="44.59220130092762" lon="7.9315099008169945"><ele>397.8333333333333</ele><time>2026-04-11T14:22:22Z</time></trkpt><trkpt lat="44.59213748231073" lon="7.931449331820242"><ele>396.66666666666663</ele><time>2026-04-11T14:22:24Z</time></trkpt><trkpt lat="44.592067312999035" lon="7.9313860755608845"><ele>395.5</ele><time>2026-04-11T14:22:26Z</time></trkpt><trkpt lat="44.59199853913729" lon="7.931325588634657"><ele>394.3333333333333</ele><time>2026-04-11T14:22:28Z</time></trkpt><trkpt lat="44.59192487088585" lon="7.931272738023643"><ele>393.16666666666663</ele><time>2026-04-11T14:22:30Z</time></trkpt><trkpt lat="44.59183493132651" lon="7.9312238859687785"><ele>392.0</ele><time>2026-04-11T14:22:32Z</time></trkpt><trkpt lat="44.591740763788216" lon="7.931163820969601"><ele>392.0</ele><time>2026-04-11T14:22:33.999Z</time></trkpt><trkpt lat="44.59164328201608" lon="7.931088124452868"><ele>392.0</ele><time>2026-04-11T14:22:35.999Z</time></trkpt><trkpt lat="44.59154450601406" lon="7.931009573293076"><ele>392.0</ele><time>2026-04-11T14:22:37.999Z</time></trkpt><trkpt lat="44.591454155758036" lon="7.930927797499729"><ele>392.0</ele><time>2026-04-11T14:22:39.999Z</time></trkpt><trkpt lat="44.59134575130746" lon="7.930849533117696"><ele>394.40000000000003</ele><time>2026-04-11T14:22:41.999Z</time></trkpt><trkpt lat="44.59124625488773" lon="7.930786163845704"><ele>396.8</ele><time>2026-04-11T14:22:44Z</time></trkpt><trkpt lat="44.59115564238171" lon="7.93071706530709"><ele>399.2</ele><time>2026-04-11T14:22:46Z</time></trkpt><trkpt lat="44.591075887688554" lon="7.9306766762116725"><ele>401.6</ele><time>2026-04-11T14:22:48Z</time></trkpt><trkpt lat="44.59099686192071" lon="7.930641679856365"><ele>404.0</ele><time>2026-04-11T14:22:50Z</time></trkpt><trkpt lat="44.59091674661357" lon="7.930626647304522"><ele>404.0</ele><time>2026-04-11T14:22:52Z</time></trkpt><trkpt lat="44.59084182769373" lon="7.930609620762332"><ele>404.0</ele><time>2026-04-11T14:22:54Z</time></trkpt><trkpt lat="44.59077241252715" lon="7.9305772039409135"><ele>404.0</ele><time>2026-04-11T14:22:56Z</time></trkpt><trkpt lat="44.590711071464334" lon="7.930548905537655"><ele>404.0</ele><time>2026-04-11T14:22:58Z</time></trkpt><trkpt lat="44.590640434912665" lon="7.930529714898384"><ele>404.0</ele><time>2026-04-11T14:23:01Z</time></trkpt><trkpt lat="44.59056853478587" lon="7.9305089546937335"><ele>404.0</ele><time>2026-04-11T14:23:04Z</time></trkpt><trkpt lat="44.59050487176071" lon="7.930491434307357"><ele>404.0</ele><time>2026-04-11T14:23:06Z</time></trkpt><trkpt lat="44.59042015408646" lon="7.930473802569912"><ele>404.0</ele><time>2026-04-11T14:23:09Z</time></trkpt><trkpt lat="44.590350827742625" lon="7.930456273724869"><ele>404.0</ele><time>2026-04-11T14:23:12Z</time></trkpt><trkpt lat="44.5902867252794" lon="7.930440152823556"><ele>404.0</ele><time>2026-04-11T14:23:15Z</time></trkpt><trkpt lat="44.59022022384703" lon="7.930413894047249"><ele>404.0</ele><time>2026-04-11T14:23:18Z</time></trkpt><trkpt lat="44.59014291239143" lon="7.930394797941791"><ele>404.0</ele><time>2026-04-11T14:23:21Z</time></trkpt><trkpt lat="44.590067739016085" lon="7.930379028064534"><ele>404.0</ele><time>2026-04-11T14:23:24Z</time></trkpt><trkpt lat="44.589987399135" lon="7.930340302908269"><ele>404.0</ele><time>2026-04-11T14:23:27Z</time></trkpt><trkpt lat="44.589903651559396" lon="7.9303032415423464"><ele>404.79999999999995</ele><time>2026-04-11T14:23:30Z</time></trkpt><trkpt lat="44.58982544693361" lon="7.9302535785757895"><ele>405.59999999999997</ele><time>2026-04-11T14:23:33Z</time></trkpt><trkpt lat="44.58974347397317" lon="7.930197671029086"><ele>406.4</ele><time>2026-04-11T14:23:36Z</time></trkpt><trkpt lat="44.58964845103151" lon="7.9301433893115725"><ele>407.2</ele><time>2026-04-11T14:23:39Z</time></trkpt><trkpt lat="44.58957428891837" lon="7.930077188128113"><ele>408.0</ele><time>2026-04-11T14:23:42Z</time></trkpt><trkpt lat="44.589516803536185" lon="7.929994632844747"><ele>409.6666666666667</ele><time>2026-04-11T14:23:45Z</time></trkpt><trkpt lat="44.589453473832535" lon="7.929920305970708"><ele>411.33333333333337</ele><time>2026-04-11T14:23:48Z</time></trkpt><trkpt lat="44.58939506510286" lon="7.92983627187518"><ele>413.0</ele><time>2026-04-11T14:23:51Z</time></trkpt><trkpt lat="44.58934058623022" lon="7.929749204019205"><ele>414.6666666666667</ele><time>2026-04-11T14:23:55Z</time></trkpt><trkpt lat="44.58929932733181" lon="7.929677783887804"><ele>416.33333333333337</ele><time>2026-04-11T14:23:57Z</time></trkpt><trkpt lat="44.58926132663197" lon="7.929585138799573"><ele>418.0</ele><time>2026-04-11T14:24:00Z</time></trkpt><trkpt lat="44.589231174906296" lon="7.929488534136621"><ele>418.00000000000006</ele><time>2026-04-11T14:24:03Z</time></trkpt><trkpt lat="44.589207031380596" lon="7.929381173377861"><ele>418.0</ele><time>2026-04-11T14:24:06Z</time></trkpt><trkpt lat="44.58917026504578" lon="7.929280663531843"><ele>418.0</ele><time>2026-04-11T14:24:09Z</time></trkpt><trkpt lat="44.58911254800726" lon="7.929194677370904"><ele>418.0</ele><time>2026-04-11T14:24:12Z</time></trkpt><trkpt lat="44.58903423000613" lon="7.929149700569641"><ele>418.00000000000006</ele><time>2026-04-11T14:24:15Z</time></trkpt><trkpt lat="44.588972266250785" lon="7.929102057925236"><ele>418.0</ele><time>2026-04-11T14:24:18Z</time></trkpt><trkpt lat="44.588920558298234" lon="7.929046944962006"><ele>420.42857142857144</ele><time>2026-04-11T14:24:21Z</time></trkpt><trkpt lat="44.58885578896288" lon="7.929020776438667"><ele>422.85714285714283</ele><time>2026-04-11T14:24:24Z</time></trkpt><trkpt lat="44.5887862252843" lon="7.929000973042164"><ele>425.28571428571433</ele><time>2026-04-11T14:24:28Z</time></trkpt><trkpt lat="44.58870612415869" lon="7.9290229055046515"><ele>427.7142857142857</ele><time>2026-04-11T14:24:32Z</time></trkpt><trkpt lat="44.5886373135256" lon="7.929031238605606"><ele>430.14285714285717</ele><time>2026-04-11T14:24:35Z</time></trkpt><trkpt lat="44.588562524526274" lon="7.929052050316185"><ele>432.5714285714286</ele><time>2026-04-11T14:24:39Z</time></trkpt><trkpt lat="44.58850192638799" lon="7.929078060369907"><ele>435.0</ele><time>2026-04-11T14:24:41Z</time></trkpt><trkpt lat="44.5884217557118" lon="7.929112885094081"><ele>436.00000000000006</ele><time>2026-04-11T14:24:45Z</time></trkpt><trkpt lat="44.58835888126525" lon="7.9291398372956206"><ele>437.0</ele><time>2026-04-11T14:24:48Z</time></trkpt><trkpt lat="44.588293618691154" lon="7.929168859453166"><ele>438.0</ele><time>2026-04-11T14:24:51Z</time></trkpt><trkpt lat="44.58823103797058" lon="7.929204199117493"><ele>439.0</ele><time>2026-04-11T14:24:54Z</time></trkpt><trkpt lat="44.58816927846027" lon="7.929222893118167"><ele>440.0</ele><time>2026-04-11T14:24:57Z</time></trkpt><trkpt lat="44.58809928617074" lon="7.929244684474694"><ele>441.00000000000006</ele><time>2026-04-11T14:25:00Z</time></trkpt><trkpt lat="44.588030657591595" lon="7.929255743836617"><ele>442.0</ele><time>2026-04-11T14:25:03Z</time></trkpt><trkpt lat="44.587936485375565" lon="7.929255996028375"><ele>442.00000000000006</ele><time>2026-04-11T14:25:07Z</time></trkpt><trkpt lat="44.58786843274337" lon="7.929247449270853"><ele>442.0</ele><time>2026-04-11T14:25:10Z</time></trkpt><trkpt lat="44.58780324703896" lon="7.929231792549692"><ele>442.0</ele><time>2026-04-11T14:25:13Z</time></trkpt><trkpt lat="44.5877417557314" lon="7.929166355062103"><ele>442.0</ele><time>2026-04-11T14:25:17Z</time></trkpt><trkpt lat="44.58776557595282" lon="7.929077930560507"><ele>442.0</ele><time>2026-04-11T14:25:21Z</time></trkpt><trkpt lat="44.58782888301058" lon="7.929018702318374"><ele>442.00000000000006</ele><time>2026-04-11T14:25:25Z</time></trkpt><trkpt lat="44.58789138393862" lon="7.92896590417831"><ele>442.0</ele><time>2026-04-11T14:25:29Z</time></trkpt><trkpt lat="44.587948318059965" lon="7.928915178862349"><ele>442.00000000000006</ele><time>2026-04-11T14:25:33Z</time></trkpt><trkpt lat="44.58801881397324" lon="7.928868055161449"><ele>442.0</ele><time>2026-04-11T14:25:38Z</time></trkpt><trkpt lat="44.58807237830156" lon="7.928793605126751"><ele>442.0</ele><time>2026-04-11T14:25:42Z</time></trkpt><trkpt lat="44.58811757138555" lon="7.928722441017479"><ele>442.0</ele><time>2026-04-11T14:25:46Z</time></trkpt><trkpt lat="44.5881662614204" lon="7.92865168958515"><ele>442.0</ele><time>2026-04-11T14:25:50Z</time></trkpt><trkpt lat="44.58821341328935" lon="7.928564001024204"><ele>442.00000000000006</ele><time>2026-04-11T14:25:55Z</time></trkpt><trkpt lat="44.58825323887564" lon="7.928493164292462"><ele>442.0</ele><time>2026-04-11T14:25:58Z</time></trkpt><trkpt lat="44.588270026210125" lon="7.928403818422067"><ele>444.8571428571429</ele><time>2026-04-11T14:26:02Z</time></trkpt><trkpt lat="44.588301208946696" lon="7.928308856725246"><ele>447.7142857142857</ele><time>2026-04-11T14:26:06Z</time></trkpt><trkpt lat="44.58833738869032" lon="7.928208829365919"><ele>450.57142857142856</ele><time>2026-04-11T14:26:11Z</time></trkpt><trkpt lat="44.58836709410792" lon="7.928125162797415"><ele>453.42857142857144</ele><time>2026-04-11T14:26:15Z</time></trkpt><trkpt lat="44.58840257516943" lon="7.928035660917957"><ele>456.2857142857143</ele><time>2026-04-11T14:26:19Z</time></trkpt><trkpt lat="44.58843786515617" lon="7.927944424552338"><ele>459.14285714285717</ele><time>2026-04-11T14:26:22Z</time></trkpt><trkpt lat="44.58847708391898" lon="7.927852701500163"><ele>462.0</ele><time>2026-04-11T14:26:25Z</time></trkpt><trkpt lat="44.58852185441057" lon="7.927782800742218"><ele>462.0</ele><time>2026-04-11T14:26:28Z</time></trkpt><trkpt lat="44.588566454951746" lon="7.9277127319976275"><ele>462.0</ele><time>2026-04-11T14:26:31Z</time></trkpt><trkpt lat="44.588616225801374" lon="7.927640136152415"><ele>462.0</ele><time>2026-04-11T14:26:34Z</time></trkpt><trkpt lat="44.588673802757675" lon="7.927574362840612"><ele>462.0</ele><time>2026-04-11T14:26:37Z</time></trkpt><trkpt lat="44.588731365414354" lon="7.927522673052099"><ele>462.0</ele><time>2026-04-11T14:26:40Z</time></trkpt><trkpt lat="44.58875651865901" lon="7.927440157138191"><ele>462.0</ele><time>2026-04-11T14:26:43Z</time></trkpt><trkpt lat="44.58869201612824" lon="7.927419303739654"><ele>462.0</ele><time>2026-04-11T14:26:46Z</time></trkpt><trkpt lat="44.58862605751999" lon="7.9274794879869415"><ele>463.0</ele><time>2026-04-11T14:26:50Z</time></trkpt><trkpt lat="44.58856005837419" lon="7.927530040316172"><ele>464.0</ele><time>2026-04-11T14:26:54Z</time></trkpt><trkpt lat="44.58849017164119" lon="7.927547382293282"><ele>465.0</ele><time>2026-04-11T14:26:58Z</time></trkpt><trkpt lat="44.58841065476712" lon="7.927507687282805"><ele>466.0</ele><time>2026-04-11T14:27:02Z</time></trkpt><trkpt lat="44.588350876943025" lon="7.927460443037495"><ele>467.0</ele><time>2026-04-11T14:27:06Z</time></trkpt><trkpt lat="44.588273400170614" lon="7.9274569956580025"><ele>468.0</ele><time>2026-04-11T14:27:09Z</time></trkpt><trkpt lat="44.58820323957554" lon="7.9274845646617935"><ele>469.0</ele><time>2026-04-11T14:27:12Z</time></trkpt><trkpt lat="44.5881418057877" lon="7.927401048554553"><ele>469.0</ele><time>2026-04-11T14:27:17Z</time></trkpt><trkpt lat="44.58813504116788" lon="7.927252102858053"><ele>469.0</ele><time>2026-04-11T14:27:19Z</time></trkpt><trkpt lat="44.588086340776734" lon="7.92712056684777"><ele>469.0</ele><time>2026-04-11T14:27:21Z</time></trkpt><trkpt lat="44.588090895299665" lon="7.927027941589074"><ele>469.0</ele><time>2026-04-11T14:27:25Z</time></trkpt><trkpt lat="44.58805524458519" lon="7.926930284032297"><ele>469.0</ele><time>2026-04-11T14:27:46Z</time></trkpt><trkpt lat="44.58793359558413" lon="7.926951716516066"><ele>469.00000000000006</ele><time>2026-04-11T14:27:51Z</time></trkpt><trkpt lat="44.58785883223585" lon="7.926939899166036"><ele>469.0</ele><time>2026-04-11T14:27:53Z</time></trkpt><trkpt lat="44.5877650080844" lon="7.926939852967376"><ele>469.0</ele><time>2026-04-11T14:27:55Z</time></trkpt><trkpt lat="44.58768522995103" lon="7.926936774295576"><ele>469.0</ele><time>2026-04-11T14:27:57Z</time></trkpt><trkpt lat="44.58764177344604" lon="7.926861347504258"><ele>469.00000000000006</ele><time>2026-04-11T14:28:00Z</time></trkpt><trkpt lat="44.5877067408329" lon="7.926887670669666"><ele>469.0</ele><time>2026-04-11T14:28:18Z</time></trkpt><trkpt lat="44.58777774288498" lon="7.926806729392565"><ele>469.0</ele><time>2026-04-11T14:33:13.999Z</time></trkpt><trkpt lat="44.58788729931518" lon="7.926793522492573"><ele>469.0</ele><time>2026-04-11T14:33:15.999Z</time></trkpt><trkpt lat="44.588020408690944" lon="7.926786100272315"><ele>469.0</ele><time>2026-04-11T14:33:17.999Z</time></trkpt><trkpt lat="44.58809624830977" lon="7.926768511109711"><ele>469.0</ele><time>2026-04-11T14:33:18.999Z</time></trkpt><trkpt lat="44.58817693688863" lon="7.926743675493197"><ele>469.0</ele><time>2026-04-11T14:33:19.999Z</time></trkpt><trkpt lat="44.588248853850146" lon="7.92670782189721"><ele>466.83333333333337</ele><time>2026-04-11T14:33:20.999Z</time></trkpt><trkpt lat="44.588316054912625" lon="7.926629632616856"><ele>464.6666666666667</ele><time>2026-04-11T14:33:22.999Z</time></trkpt><trkpt lat="44.588383477993396" lon="7.926588327017184"><ele>462.5</ele><time>2026-04-11T14:33:24.999Z</time></trkpt><trkpt lat="44.58844478955606" lon="7.926549101724207"><ele>460.33333333333337</ele><time>2026-04-11T14:33:27.999Z</time></trkpt><trkpt lat="44.58851349858198" lon="7.926491335489184"><ele>458.1666666666667</ele><time>2026-04-11T14:33:30.999Z</time></trkpt><trkpt lat="44.588614936158784" lon="7.926419345134693"><ele>456.0</ele><time>2026-04-11T14:33:32.999Z</time></trkpt><trkpt lat="44.58867812109752" lon="7.9263725674044085"><ele>456.0</ele><time>2026-04-11T14:33:33.999Z</time></trkpt><trkpt lat="44.58874388564883" lon="7.926319950182975"><ele>456.0</ele><time>2026-04-11T14:33:34.999Z</time></trkpt><trkpt lat="44.58881260310137" lon="7.926255912819151"><ele>456.0</ele><time>2026-04-11T14:33:35.999Z</time></trkpt><trkpt lat="44.588888513224006" lon="7.9261891200925625"><ele>456.0</ele><time>2026-04-11T14:33:36.999Z</time></trkpt><trkpt lat="44.58897105464939" lon="7.926136569011272"><ele>456.0</ele><time>2026-04-11T14:33:37.999Z</time></trkpt><trkpt lat="44.5890547225023" lon="7.9261175931738554"><ele>456.0</ele><time>2026-04-11T14:33:38.999Z</time></trkpt><trkpt lat="44.58912490933983" lon="7.92612197599489"><ele>456.0</ele><time>2026-04-11T14:33:39.999Z</time></trkpt><trkpt lat="44.589207614433775" lon="7.926093578504498"><ele>456.0</ele><time>2026-04-11T14:33:41.999Z</time></trkpt><trkpt lat="44.58928568665049" lon="7.926066294706809"><ele>456.0</ele><time>2026-04-11T14:33:44.999Z</time></trkpt><trkpt lat="44.589365929747025" lon="7.926048234686943"><ele>456.0</ele><time>2026-04-11T14:33:46.999Z</time></trkpt><trkpt lat="44.58946285752983" lon="7.926023911395001"><ele>456.0</ele><time>2026-04-11T14:33:48.999Z</time></trkpt><trkpt lat="44.589573881398906" lon="7.925984902351728"><ele>454.8333333333333</ele><time>2026-04-11T14:33:50.999Z</time></trkpt><trkpt lat="44.58970432879738" lon="7.925963428119554"><ele>453.66666666666663</ele><time>2026-04-11T14:33:52.999Z</time></trkpt><trkpt lat="44.589775339887346" lon="7.925949459860712"><ele>452.5</ele><time>2026-04-11T14:33:54Z</time></trkpt><trkpt lat="44.58985302853035" lon="7.925938989020192"><ele>451.3333333333333</ele><time>2026-04-11T14:33:55Z</time></trkpt><trkpt lat="44.58993050999689" lon="7.925913979659794"><ele>450.16666666666663</ele><time>2026-04-11T14:33:56Z</time></trkpt><trkpt lat="44.59000151784341" lon="7.925892661957971"><ele>449.0</ele><time>2026-04-11T14:33:57Z</time></trkpt><trkpt lat="44.59006003775763" lon="7.9258568485527"><ele>446.0</ele><time>2026-04-11T14:33:58Z</time></trkpt><trkpt lat="44.59008360814366" lon="7.925647548907315"><ele>443.0</ele><time>2026-04-11T14:34:00Z</time></trkpt><trkpt lat="44.590067201075826" lon="7.925526040764589"><ele>440.0</ele><time>2026-04-11T14:34:01Z</time></trkpt><trkpt lat="44.59005785585084" lon="7.925394884236208"><ele>437.0</ele><time>2026-04-11T14:34:02Z</time></trkpt><trkpt lat="44.5900564367057" lon="7.925248652618731"><ele>434.0</ele><time>2026-04-11T14:34:03Z</time></trkpt><trkpt lat="44.590060256741204" lon="7.925088806715633"><ele>432.4</ele><time>2026-04-11T14:34:04Z</time></trkpt><trkpt lat="44.59006696250427" lon="7.92492543746497"><ele>430.79999999999995</ele><time>2026-04-11T14:34:05Z</time></trkpt><trkpt lat="44.590072486709644" lon="7.924769448820185"><ele>429.20000000000005</ele><time>2026-04-11T14:34:06Z</time></trkpt><trkpt lat="44.59007458517637" lon="7.924624197149596"><ele>427.6</ele><time>2026-04-11T14:34:07Z</time></trkpt><trkpt lat="44.59006835662793" lon="7.924485330340994"><ele>426.0</ele><time>2026-04-11T14:34:08Z</time></trkpt><trkpt lat="44.59005029473006" lon="7.924348554356963"><ele>424.0</ele><time>2026-04-11T14:34:09Z</time></trkpt><trkpt lat="44.59005064380782" lon="7.924222144429671"><ele>422.0</ele><time>2026-04-11T14:34:10Z</time></trkpt><trkpt lat="44.59005081981753" lon="7.924090569989767"><ele>420.0</ele><time>2026-04-11T14:34:11Z</time></trkpt><trkpt lat="44.590050109436476" lon="7.923944335782885"><ele>418.0</ele><time>2026-04-11T14:34:12Z</time></trkpt><trkpt lat="44.590002817650294" lon="7.923815853885249"><ele>416.0</ele><time>2026-04-11T14:34:13Z</time></trkpt><trkpt lat="44.5900645843363" lon="7.923628151324579"><ele>416.0</ele><time>2026-04-11T14:34:14Z</time></trkpt><trkpt lat="44.590050093055495" lon="7.923468545549742"><ele>416.0</ele><time>2026-04-11T14:34:15Z</time></trkpt><trkpt lat="44.59005276979832" lon="7.923300692756156"><ele>416.0</ele><time>2026-04-11T14:34:16Z</time></trkpt><trkpt lat="44.59005459343092" lon="7.923125550104244"><ele>416.0</ele><time>2026-04-11T14:34:17Z</time></trkpt><trkpt lat="44.59005751825815" lon="7.922944247405306"><ele>413.75</ele><time>2026-04-11T14:34:18Z</time></trkpt><trkpt lat="44.5900640778252" lon="7.92275886292874"><ele>411.5</ele><time>2026-04-11T14:34:19Z</time></trkpt><trkpt lat="44.59008379836692" lon="7.922562388945942"><ele>409.25</ele><time>2026-04-11T14:34:20Z</time></trkpt><trkpt lat="44.59010133782969" lon="7.922361758368638"><ele>407.0</ele><time>2026-04-11T14:34:21Z</time></trkpt><trkpt lat="44.590131771455326" lon="7.922158461414448"><ele>404.0</ele><time>2026-04-11T14:34:22Z</time></trkpt><trkpt lat="44.59016586473018" lon="7.921950453493058"><ele>401.0</ele><time>2026-04-11T14:34:23Z</time></trkpt><trkpt lat="44.59020043887449" lon="7.921737575494895"><ele>398.0</ele><time>2026-04-11T14:34:24Z</time></trkpt><trkpt lat="44.59023440525053" lon="7.921518978356596"><ele>395.3333333333333</ele><time>2026-04-11T14:34:25Z</time></trkpt><trkpt lat="44.59026475894432" lon="7.921291165719973"><ele>392.66666666666663</ele><time>2026-04-11T14:34:26Z</time></trkpt><trkpt lat="44.59028695451877" lon="7.921055999063395"><ele>390.0</ele><time>2026-04-11T14:34:27Z</time></trkpt><trkpt lat="44.590310189118334" lon="7.920818699044782"><ele>391.33333333333337</ele><time>2026-04-11T14:34:28Z</time></trkpt><trkpt lat="44.59034853437727" lon="7.92057897629337"><ele>392.6666666666667</ele><time>2026-04-11T14:34:29Z</time></trkpt><trkpt lat="44.590408687306905" lon="7.920350352795221"><ele>394.0</ele><time>2026-04-11T14:34:30Z</time></trkpt><trkpt lat="44.59047365050647" lon="7.920130675603926"><ele>390.6666666666667</ele><time>2026-04-11T14:34:31Z</time></trkpt><trkpt lat="44.59053470678078" lon="7.919920606258867"><ele>387.33333333333337</ele><time>2026-04-11T14:34:32Z</time></trkpt><trkpt lat="44.59059509149082" lon="7.9197276417543145"><ele>384.0</ele><time>2026-04-11T14:34:33Z</time></trkpt><trkpt lat="44.590659968125046" lon="7.919541514463106"><ele>384.0</ele><time>2026-04-11T14:34:34Z</time></trkpt><trkpt lat="44.590735663891095" lon="7.919367734030193"><ele>384.0</ele><time>2026-04-11T14:34:35Z</time></trkpt><trkpt lat="44.59082795924914" lon="7.9192170292373865"><ele>384.0</ele><time>2026-04-11T14:34:36Z</time></trkpt><trkpt lat="44.590931533596404" lon="7.919090510836973"><ele>384.0</ele><time>2026-04-11T14:34:37Z</time></trkpt><trkpt lat="44.591031779981655" lon="7.918972864038935"><ele>383.75</ele><time>2026-04-11T14:34:38Z</time></trkpt><trkpt lat="44.5911282449387" lon="7.918860454606141"><ele>383.5</ele><time>2026-04-11T14:34:39Z</time></trkpt><trkpt lat="44.591216743952465" lon="7.918746191673653"><ele>383.25</ele><time>2026-04-11T14:34:40Z</time></trkpt><trkpt lat="44.59130059298767" lon="7.918635112871725"><ele>383.0</ele><time>2026-04-11T14:34:41Z</time></trkpt><trkpt lat="44.59138306862749" lon="7.918529902987558"><ele>383.0</ele><time>2026-04-11T14:34:42Z</time></trkpt><trkpt lat="44.591463618666076" lon="7.918426639901202"><ele>383.0</ele><time>2026-04-11T14:34:43Z</time></trkpt><trkpt lat="44.59154057796773" lon="7.918323791898547"><ele>383.0</ele><time>2026-04-11T14:34:44Z</time></trkpt><trkpt lat="44.591617012769724" lon="7.918225556675735"><ele>383.0</ele><time>2026-04-11T14:34:45Z</time></trkpt><trkpt lat="44.5916915521084" lon="7.918131806524636"><ele>383.0</ele><time>2026-04-11T14:34:46Z</time></trkpt><trkpt lat="44.591764337770634" lon="7.9180396477304145"><ele>380.4</ele><time>2026-04-11T14:34:47Z</time></trkpt><trkpt lat="44.591835926716" lon="7.917946357623821"><ele>377.79999999999995</ele><time>2026-04-11T14:34:48Z</time></trkpt><trkpt lat="44.59190549725451" lon="7.9178494670610595"><ele>375.2</ele><time>2026-04-11T14:34:49Z</time></trkpt><trkpt lat="44.59197075190101" lon="7.917744417176999"><ele>372.6</ele><time>2026-04-11T14:34:50Z</time></trkpt><trkpt lat="44.592032481688996" lon="7.917628516051443"><ele>370.0</ele><time>2026-04-11T14:34:51Z</time></trkpt><trkpt lat="44.59209301915429" lon="7.91750516034138"><ele>368.5</ele><time>2026-04-11T14:34:52Z</time></trkpt><trkpt lat="44.59215092162392" lon="7.917374451332225"><ele>367.0</ele><time>2026-04-11T14:34:53Z</time></trkpt><trkpt lat="44.592207973828785" lon="7.9172353584387265"><ele>365.5</ele><time>2026-04-11T14:34:54Z</time></trkpt><trkpt lat="44.59226027545902" lon="7.9170879570592545"><ele>364.0</ele><time>2026-04-11T14:34:55Z</time></trkpt><trkpt lat="44.59231042713395" lon="7.916933597336792"><ele>364.0</ele><time>2026-04-11T14:34:56Z</time></trkpt><trkpt lat="44.592359745440184" lon="7.916775407239294"><ele>364.0</ele><time>2026-04-11T14:34:57Z</time></trkpt><trkpt lat="44.592407724524705" lon="7.916616786476907"><ele>364.0</ele><time>2026-04-11T14:34:58Z</time></trkpt><trkpt lat="44.592454896329116" lon="7.916463969802471"><ele>364.0</ele><time>2026-04-11T14:34:59Z</time></trkpt><trkpt lat="44.5925033594525" lon="7.916314451777125"><ele>362.6</ele><time>2026-04-11T14:35:00Z</time></trkpt><trkpt lat="44.592550694439126" lon="7.91616883385821"><ele>361.2</ele><time>2026-04-11T14:35:01Z</time></trkpt><trkpt lat="44.59259643946497" lon="7.9160253143040675"><ele>359.8</ele><time>2026-04-11T14:35:02Z</time></trkpt><trkpt lat="44.59264082465455" lon="7.915884190172841"><ele>358.40000000000003</ele><time>2026-04-11T14:35:03Z</time></trkpt><trkpt lat="44.59269046526556" lon="7.915748795573233"><ele>357.0</ele><time>2026-04-11T14:35:04Z</time></trkpt><trkpt lat="44.592745843469785" lon="7.915621030661958"><ele>356.0</ele><time>2026-04-11T14:35:05Z</time></trkpt><trkpt lat="44.59280364364012" lon="7.915498699726525"><ele>355.0</ele><time>2026-04-11T14:35:06Z</time></trkpt><trkpt lat="44.59286085753919" lon="7.915378110006993"><ele>354.0</ele><time>2026-04-11T14:35:07Z</time></trkpt><trkpt lat="44.592916896497776" lon="7.915259790268658"><ele>353.0</ele><time>2026-04-11T14:35:08Z</time></trkpt><trkpt lat="44.59297051918438" lon="7.915138622724367"><ele>352.0</ele><time>2026-04-11T14:35:09Z</time></trkpt><trkpt lat="44.593025334162306" lon="7.915015705273386"><ele>351.25</ele><time>2026-04-11T14:35:10Z</time></trkpt><trkpt lat="44.59308770437799" lon="7.914893506188281"><ele>350.5</ele><time>2026-04-11T14:35:11Z</time></trkpt><trkpt lat="44.59315836379829" lon="7.9147723960021095"><ele>349.75</ele><time>2026-04-11T14:35:12Z</time></trkpt><trkpt lat="44.59324058285495" lon="7.914656805741191"><ele>349.0</ele><time>2026-04-11T14:35:13Z</time></trkpt><trkpt lat="44.593333547613476" lon="7.914540612010747"><ele>349.0</ele><time>2026-04-11T14:35:14Z</time></trkpt><trkpt lat="44.59342838419962" lon="7.914419923184494"><ele>349.0</ele><time>2026-04-11T14:35:15Z</time></trkpt><trkpt lat="44.593527721982845" lon="7.914293542349847"><ele>349.0</ele><time>2026-04-11T14:35:16Z</time></trkpt><trkpt lat="44.59362964151433" lon="7.914162126210974"><ele>349.0</ele><time>2026-04-11T14:35:17Z</time></trkpt><trkpt lat="44.59373435693198" lon="7.914024723471438"><ele>346.5</ele><time>2026-04-11T14:35:18Z</time></trkpt><trkpt lat="44.59384391247845" lon="7.913886084738826"><ele>344.0</ele><time>2026-04-11T14:35:19Z</time></trkpt><trkpt lat="44.59395403594316" lon="7.913749913679823"><ele>341.5</ele><time>2026-04-11T14:35:20Z</time></trkpt><trkpt lat="44.59406834709682" lon="7.913614479073786"><ele>339.0</ele><time>2026-04-11T14:35:21Z</time></trkpt><trkpt lat="44.59418098520143" lon="7.913480190342416"><ele>339.5</ele><time>2026-04-11T14:35:22Z</time></trkpt><trkpt lat="44.59429586051903" lon="7.913350147981637"><ele>340.0</ele><time>2026-04-11T14:35:23Z</time></trkpt><trkpt lat="44.594405199752494" lon="7.913213591796581"><ele>340.5</ele><time>2026-04-11T14:35:24Z</time></trkpt><trkpt lat="44.594502754940706" lon="7.913060805845609"><ele>341.0</ele><time>2026-04-11T14:35:25Z</time></trkpt><trkpt lat="44.59458305861446" lon="7.912884349116958"><ele>337.6666666666667</ele><time>2026-04-11T14:35:26Z</time></trkpt><trkpt lat="44.594657984050194" lon="7.912702445154544"><ele>334.3333333333333</ele><time>2026-04-11T14:35:27Z</time></trkpt><trkpt lat="44.59473080897902" lon="7.912519332580313"><ele>331.0</ele><time>2026-04-11T14:35:28Z</time></trkpt><trkpt lat="44.59479663603024" lon="7.912328327330094"><ele>331.0</ele><time>2026-04-11T14:35:29Z</time></trkpt><trkpt lat="44.59485949863021" lon="7.91213662116677"><ele>331.0</ele><time>2026-04-11T14:35:30Z</time></trkpt><trkpt lat="44.594913317726395" lon="7.9119367335256925"><ele>331.0</ele><time>2026-04-11T14:35:31Z</time></trkpt><trkpt lat="44.59496124502143" lon="7.91173655663838"><ele>330.3333333333333</ele><time>2026-04-11T14:35:32Z</time></trkpt><trkpt lat="44.595013965151146" lon="7.91153566728639"><ele>329.6666666666667</ele><time>2026-04-11T14:35:33Z</time></trkpt><trkpt lat="44.59506501590818" lon="7.911330751661622"><ele>329.0</ele><time>2026-04-11T14:35:34Z</time></trkpt><trkpt lat="44.59512106190234" lon="7.911127156470223"><ele>329.0</ele><time>2026-04-11T14:35:35Z</time></trkpt><trkpt lat="44.59519451775155" lon="7.9109286142019"><ele>329.0</ele><time>2026-04-11T14:35:36Z</time></trkpt><trkpt lat="44.59528295721105" lon="7.910740877380708"><ele>329.0</ele><time>2026-04-11T14:35:37Z</time></trkpt><trkpt lat="44.59538847158767" lon="7.91056569793192"><ele>323.6666666666667</ele><time>2026-04-11T14:35:38Z</time></trkpt><trkpt lat="44.595505769331446" lon="7.910398327798247"><ele>318.3333333333333</ele><time>2026-04-11T14:35:39Z</time></trkpt><trkpt lat="44.59562529283685" lon="7.91023142591001"><ele>313.0</ele><time>2026-04-11T14:35:40Z</time></trkpt><trkpt lat="44.59573159119935" lon="7.910063293361571"><ele>312.0</ele><time>2026-04-11T14:35:41Z</time></trkpt><trkpt lat="44.595814258293586" lon="7.909904139913997"><ele>311.0</ele><time>2026-04-11T14:35:42Z</time></trkpt><trkpt lat="44.59587691607898" lon="7.909766119342121"><ele>310.0</ele><time>2026-04-11T14:35:43Z</time></trkpt><trkpt lat="44.59592475650469" lon="7.90962507978635"><ele>309.0</ele><time>2026-04-11T14:35:44Z</time></trkpt><trkpt lat="44.59594547940536" lon="7.909453309122393"><ele>309.0</ele><time>2026-04-11T14:35:45Z</time></trkpt><trkpt lat="44.59594755086603" lon="7.909274562688758"><ele>309.0</ele><time>2026-04-11T14:35:46Z</time></trkpt><trkpt lat="44.59594196469502" lon="7.909089158378401"><ele>309.0</ele><time>2026-04-11T14:35:47Z</time></trkpt><trkpt lat="44.5959340003243" lon="7.908894080545774"><ele>309.0</ele><time>2026-04-11T14:35:48Z</time></trkpt><trkpt lat="44.59592316679598" lon="7.908692462545886"><ele>308.0</ele><time>2026-04-11T14:35:49Z</time></trkpt><trkpt lat="44.595907496715164" lon="7.9084874380053405"><ele>307.0</ele><time>2026-04-11T14:35:50Z</time></trkpt><trkpt lat="44.59588874852773" lon="7.908276460194845"><ele>306.0</ele><time>2026-04-11T14:35:51Z</time></trkpt><trkpt lat="44.59587051281398" lon="7.9080625596819525"><ele>304.0</ele><time>2026-04-11T14:35:52Z</time></trkpt><trkpt lat="44.59585137839975" lon="7.90784920733985"><ele>302.0</ele><time>2026-04-11T14:35:53Z</time></trkpt><trkpt lat="44.595830107133864" lon="7.907633218319534"><ele>300.0</ele><time>2026-04-11T14:35:54Z</time></trkpt><trkpt lat="44.595810298175046" lon="7.907415973227676"><ele>298.6666666666667</ele><time>2026-04-11T14:35:55Z</time></trkpt><trkpt lat="44.59579187776916" lon="7.90719531421244"><ele>297.33333333333337</ele><time>2026-04-11T14:35:56Z</time></trkpt><trkpt lat="44.595773850905786" lon="7.906972795978726"><ele>296.0</ele><time>2026-04-11T14:35:57Z</time></trkpt><trkpt lat="44.59574485823948" lon="7.906754261408089"><ele>294.0</ele><time>2026-04-11T14:35:58Z</time></trkpt><trkpt lat="44.595687047475316" lon="7.90654419302411"><ele>292.0</ele><time>2026-04-11T14:35:59Z</time></trkpt><trkpt lat="44.595612716210184" lon="7.906344392344586"><ele>290.0</ele><time>2026-04-11T14:36:00Z</time></trkpt><trkpt lat="44.59553664382857" lon="7.906145847888659"><ele>290.0</ele><time>2026-04-11T14:36:01Z</time></trkpt><trkpt lat="44.59546769109121" lon="7.9059413121825255"><ele>290.0</ele><time>2026-04-11T14:36:02Z</time></trkpt><trkpt lat="44.5954069818031" lon="7.905732329658971"><ele>290.0</ele><time>2026-04-11T14:36:03Z</time></trkpt><trkpt lat="44.595369749877385" lon="7.905511266733751"><ele>285.6666666666667</ele><time>2026-04-11T14:36:04Z</time></trkpt><trkpt lat="44.59532502220419" lon="7.905288670249884"><ele>281.3333333333333</ele><time>2026-04-11T14:36:05Z</time></trkpt><trkpt lat="44.59528204254658" lon="7.905066514470538"><ele>277.0</ele><time>2026-04-11T14:36:06Z</time></trkpt><trkpt lat="44.595238734377304" lon="7.904840527625542"><ele>275.0</ele><time>2026-04-11T14:36:07Z</time></trkpt><trkpt lat="44.595179498317044" lon="7.904612654991366"><ele>273.0</ele><time>2026-04-11T14:36:08Z</time></trkpt><trkpt lat="44.59513508219165" lon="7.904374455112981"><ele>271.0</ele><time>2026-04-11T14:36:09Z</time></trkpt><trkpt lat="44.59508690321129" lon="7.904135300063738"><ele>268.66666666666663</ele><time>2026-04-11T14:36:10Z</time></trkpt><trkpt lat="44.59503587866424" lon="7.903906318873647"><ele>266.3333333333333</ele><time>2026-04-11T14:36:11Z</time></trkpt><trkpt lat="44.59499351664875" lon="7.9036946398925965"><ele>264.0</ele><time>2026-04-11T14:36:12Z</time></trkpt><trkpt lat="44.59495541705602" lon="7.903491108617086"><ele>262.6666666666667</ele><time>2026-04-11T14:36:13Z</time></trkpt><trkpt lat="44.59491953024997" lon="7.903280271566244"><ele>261.33333333333337</ele><time>2026-04-11T14:36:14Z</time></trkpt><trkpt lat="44.594889293559284" lon="7.9030647518102475"><ele>260.0</ele><time>2026-04-11T14:36:15Z</time></trkpt><trkpt lat="44.594866643214054" lon="7.902845450160492"><ele>260.0</ele><time>2026-04-11T14:36:16Z</time></trkpt><trkpt lat="44.594849200506616" lon="7.902644186539613"><ele>260.0</ele><time>2026-04-11T14:36:17Z</time></trkpt><trkpt lat="44.59484381419056" lon="7.9024511305783784"><ele>260.0</ele><time>2026-04-11T14:36:18Z</time></trkpt><trkpt lat="44.59484110891968" lon="7.902279310828894"><ele>260.0</ele><time>2026-04-11T14:36:19Z</time></trkpt><trkpt lat="44.59481109716241" lon="7.902127941030277"><ele>259.25</ele><time>2026-04-11T14:36:20Z</time></trkpt><trkpt lat="44.59474213910673" lon="7.9019842038835835"><ele>258.5</ele><time>2026-04-11T14:36:21Z</time></trkpt><trkpt lat="44.594633522508936" lon="7.901878914032412"><ele>257.75</ele><time>2026-04-11T14:36:22Z</time></trkpt><trkpt lat="44.59451046569762" lon="7.901795910796086"><ele>257.0</ele><time>2026-04-11T14:36:23Z</time></trkpt><trkpt lat="44.59438926111146" lon="7.9016858158290555"><ele>250.0</ele><time>2026-04-11T14:36:24Z</time></trkpt><trkpt lat="44.59425463521838" lon="7.901599328913198"><ele>243.0</ele><time>2026-04-11T14:36:25Z</time></trkpt><trkpt lat="44.5941100536056" lon="7.901535118415236"><ele>236.0</ele><time>2026-04-11T14:36:26Z</time></trkpt><trkpt lat="44.59397714202641" lon="7.901428607441155"><ele>236.0</ele><time>2026-04-11T14:36:27Z</time></trkpt><trkpt lat="44.593838892286286" lon="7.901337735721951"><ele>236.0</ele><time>2026-04-11T14:36:28Z</time></trkpt><trkpt lat="44.59371084508048" lon="7.901225930537285"><ele>236.0</ele><time>2026-04-11T14:36:29Z</time></trkpt><trkpt lat="44.59358190431895" lon="7.901114424032477"><ele>234.25</ele><time>2026-04-11T14:36:30Z</time></trkpt><trkpt lat="44.593470905584965" lon="7.900973931104602"><ele>232.5</ele><time>2026-04-11T14:36:31Z</time></trkpt><trkpt lat="44.59335812194503" lon="7.900850438451848"><ele>230.75</ele><time>2026-04-11T14:36:32Z</time></trkpt><trkpt lat="44.593250762182734" lon="7.900720555024772"><ele>229.0</ele><time>2026-04-11T14:36:33Z</time></trkpt><trkpt lat="44.59315011461722" lon="7.900585076325952"><ele>229.0</ele><time>2026-04-11T14:36:34Z</time></trkpt><trkpt lat="44.59304992427752" lon="7.900454833029347"><ele>229.0</ele><time>2026-04-11T14:36:35Z</time></trkpt><trkpt lat="44.5929491535793" lon="7.900332398508226"><ele>229.0</ele><time>2026-04-11T14:36:36Z</time></trkpt><trkpt lat="44.592849799505835" lon="7.9002201875284825"><ele>229.0</ele><time>2026-04-11T14:36:37Z</time></trkpt><trkpt lat="44.592747498965466" lon="7.900119388008929"><ele>228.0</ele><time>2026-04-11T14:36:38Z</time></trkpt><trkpt lat="44.59265063411559" lon="7.900038084128158"><ele>226.99999999999997</ele><time>2026-04-11T14:36:39Z</time></trkpt><trkpt lat="44.59258487322208" lon="7.899982000271187"><ele>225.99999999999997</ele><time>2026-04-11T14:36:40Z</time></trkpt><trkpt lat="44.59248868230401" lon="7.899907504517291"><ele>225.0</ele><time>2026-04-11T14:36:42Z</time></trkpt><trkpt lat="44.59239346863647" lon="7.899808948465963"><ele>224.0</ele><time>2026-04-11T14:36:44Z</time></trkpt><trkpt lat="44.5922779890222" lon="7.8997237274011285"><ele>224.0</ele><time>2026-04-11T14:36:46Z</time></trkpt><trkpt lat="44.59222895843599" lon="7.899653579725124"><ele>224.0</ele><time>2026-04-11T14:36:47Z</time></trkpt><trkpt lat="44.59218411200358" lon="7.899574114114967"><ele>224.0</ele><time>2026-04-11T14:36:48Z</time></trkpt><trkpt lat="44.59214052437138" lon="7.8994913118341366"><ele>224.0</ele><time>2026-04-11T14:36:49Z</time></trkpt><trkpt lat="44.592099223048116" lon="7.899406586623905"><ele>224.0</ele><time>2026-04-11T14:36:50Z</time></trkpt><trkpt lat="44.59206308597558" lon="7.8993182147429675"><ele>224.0</ele><time>2026-04-11T14:36:51Z</time></trkpt><trkpt lat="44.59202934910987" lon="7.899227391574767"><ele>224.0</ele><time>2026-04-11T14:36:52Z</time></trkpt><trkpt lat="44.591991861047646" lon="7.89914386791472"><ele>224.28571428571428</ele><time>2026-04-11T14:36:53Z</time></trkpt><trkpt lat="44.59195312476434" lon="7.899060557452338"><ele>224.57142857142856</ele><time>2026-04-11T14:36:54Z</time></trkpt><trkpt lat="44.591904775524654" lon="7.8989956475901275"><ele>224.85714285714286</ele><time>2026-04-11T14:36:55Z</time></trkpt><trkpt lat="44.59187454772832" lon="7.898917092871517"><ele>225.14285714285714</ele><time>2026-04-11T14:36:56Z</time></trkpt><trkpt lat="44.59188553931259" lon="7.89882571047253"><ele>225.42857142857142</ele><time>2026-04-11T14:36:57Z</time></trkpt><trkpt lat="44.59192677139112" lon="7.898748417071624"><ele>225.71428571428572</ele><time>2026-04-11T14:36:58Z</time></trkpt><trkpt lat="44.591983595996524" lon="7.89869421658853"><ele>226.0</ele><time>2026-04-11T14:36:59Z</time></trkpt><trkpt lat="44.59205184219894" lon="7.8986686044615695"><ele>226.0</ele><time>2026-04-11T14:37:00Z</time></trkpt><trkpt lat="44.59212251844644" lon="7.8986369848921685"><ele>226.0</ele><time>2026-04-11T14:37:01Z</time></trkpt><trkpt lat="44.592185263777544" lon="7.898593284291983"><ele>226.0</ele><time>2026-04-11T14:37:02Z</time></trkpt><trkpt lat="44.59224777245322" lon="7.898546140191557"><ele>226.0</ele><time>2026-04-11T14:37:03Z</time></trkpt><trkpt lat="44.592311773435085" lon="7.89850127860477"><ele>226.0</ele><time>2026-04-11T14:37:04Z</time></trkpt><trkpt lat="44.59237395242058" lon="7.898459450952254"><ele>226.0</ele><time>2026-04-11T14:37:05Z</time></trkpt><trkpt lat="44.592433774974" lon="7.8984157009550895"><ele>226.0</ele><time>2026-04-11T14:37:06Z</time></trkpt><trkpt lat="44.59249525813091" lon="7.898372365217303"><ele>225.57142857142858</ele><time>2026-04-11T14:37:07Z</time></trkpt><trkpt lat="44.59255552681409" lon="7.898330066771935"><ele>225.14285714285714</ele><time>2026-04-11T14:37:08Z</time></trkpt><trkpt lat="44.59261351427807" lon="7.898284510436541"><ele>224.71428571428572</ele><time>2026-04-11T14:37:09Z</time></trkpt><trkpt lat="44.59267323387492" lon="7.898239585467798"><ele>224.28571428571428</ele><time>2026-04-11T14:37:10Z</time></trkpt><trkpt lat="44.592732031397446" lon="7.898198157475799"><ele>223.85714285714283</ele><time>2026-04-11T14:37:11Z</time></trkpt><trkpt lat="44.59279120340504" lon="7.898156410083643"><ele>223.42857142857142</ele><time>2026-04-11T14:37:12Z</time></trkpt><trkpt lat="44.59285067605708" lon="7.898114641958215"><ele>223.0</ele><time>2026-04-11T14:37:13Z</time></trkpt><trkpt lat="44.59290867024775" lon="7.898073576503053"><ele>223.0</ele><time>2026-04-11T14:37:14Z</time></trkpt><trkpt lat="44.592967471720144" lon="7.898033566612883"><ele>223.0</ele><time>2026-04-11T14:37:15Z</time></trkpt><trkpt lat="44.59302677688215" lon="7.8979956600067265"><ele>223.0</ele><time>2026-04-11T14:37:16Z</time></trkpt><trkpt lat="44.59313820152565" lon="7.897923861335666"><ele>223.0</ele><time>2026-04-11T14:37:18Z</time></trkpt><trkpt lat="44.593243086845305" lon="7.897859351305013"><ele>223.0</ele><time>2026-04-11T14:37:20Z</time></trkpt><trkpt lat="44.593353082592536" lon="7.897817322914951"><ele>223.0</ele><time>2026-04-11T14:37:22Z</time></trkpt><trkpt lat="44.59345330718094" lon="7.897774516661434"><ele>223.0</ele><time>2026-04-11T14:37:24.001Z</time></trkpt><trkpt lat="44.59354471763638" lon="7.897715458214127"><ele>223.0</ele><time>2026-04-11T14:37:26.001Z</time></trkpt><trkpt lat="44.59363498982332" lon="7.897667479102826"><ele>223.0</ele><time>2026-04-11T14:37:28.001Z</time></trkpt><trkpt lat="44.593715009019455" lon="7.897607833647729"><ele>223.0</ele><time>2026-04-11T14:37:30.001Z</time></trkpt><trkpt lat="44.59376590808012" lon="7.897550432186265"><ele>222.8</ele><time>2026-04-11T14:37:32.001Z</time></trkpt><trkpt lat="44.593851887012285" lon="7.897500995114741"><ele>222.60000000000002</ele><time>2026-04-11T14:37:35.001Z</time></trkpt><trkpt lat="44.5939350774343" lon="7.897441764352778"><ele>222.39999999999998</ele><time>2026-04-11T14:37:37.001Z</time></trkpt><trkpt lat="44.594024113705906" lon="7.897357078779311"><ele>222.2</ele><time>2026-04-11T14:37:39.001Z</time></trkpt><trkpt lat="44.59411139550241" lon="7.897267663078084"><ele>222.0</ele><time>2026-04-11T14:37:41Z</time></trkpt><trkpt lat="44.59419741655381" lon="7.897167005342168"><ele>222.0</ele><time>2026-04-11T14:37:43Z</time></trkpt><trkpt lat="44.594287061048604" lon="7.897056758794005"><ele>222.0</ele><time>2026-04-11T14:37:45Z</time></trkpt><trkpt lat="44.594334449087384" lon="7.896996187287433"><ele>222.0</ele><time>2026-04-11T14:37:46Z</time></trkpt><trkpt lat="44.59438663856269" lon="7.896935027596056"><ele>222.0</ele><time>2026-04-11T14:37:47Z</time></trkpt><trkpt lat="44.594438460646444" lon="7.896867696041011"><ele>222.0</ele><time>2026-04-11T14:37:48Z</time></trkpt><trkpt lat="44.59449328975704" lon="7.896798671150221"><ele>222.0</ele><time>2026-04-11T14:37:49Z</time></trkpt><trkpt lat="44.594549237264516" lon="7.896729813693224"><ele>222.16666666666666</ele><time>2026-04-11T14:37:50Z</time></trkpt><trkpt lat="44.59460788540436" lon="7.89665967243207"><ele>222.33333333333331</ele><time>2026-04-11T14:37:51Z</time></trkpt><trkpt lat="44.59466586090948" lon="7.896586982585286"><ele>222.5</ele><time>2026-04-11T14:37:52Z</time></trkpt><trkpt lat="44.59472444623814" lon="7.896513819122126"><ele>222.66666666666666</ele><time>2026-04-11T14:37:53Z</time></trkpt><trkpt lat="44.594783369376145" lon="7.896437521174885"><ele>222.83333333333331</ele><time>2026-04-11T14:37:54Z</time></trkpt><trkpt lat="44.59484280386746" lon="7.896363320873279"><ele>223.0</ele><time>2026-04-11T14:37:55Z</time></trkpt><trkpt lat="44.59490345145175" lon="7.896288005409878"><ele>222.99999999999997</ele><time>2026-04-11T14:37:56Z</time></trkpt><trkpt lat="44.59496028450652" lon="7.8962126959620464"><ele>223.0</ele><time>2026-04-11T14:37:57Z</time></trkpt><trkpt lat="44.595020712554536" lon="7.896135096389401"><ele>223.0</ele><time>2026-04-11T14:37:58Z</time></trkpt><trkpt lat="44.595079716011654" lon="7.8960579776264375"><ele>223.0</ele><time>2026-04-11T14:37:59Z</time></trkpt><trkpt lat="44.595139627347166" lon="7.895983232550143"><ele>222.99999999999997</ele><time>2026-04-11T14:38:00Z</time></trkpt><trkpt lat="44.595197102243624" lon="7.895907751151926"><ele>223.0</ele><time>2026-04-11T14:38:01Z</time></trkpt><trkpt lat="44.59525386550207" lon="7.895831826816172"><ele>222.83333333333331</ele><time>2026-04-11T14:38:02Z</time></trkpt><trkpt lat="44.595312050612584" lon="7.895760505421454"><ele>222.66666666666666</ele><time>2026-04-11T14:38:03Z</time></trkpt><trkpt lat="44.59536779462656" lon="7.895687224757681"><ele>222.5</ele><time>2026-04-11T14:38:04Z</time></trkpt><trkpt lat="44.59542619675322" lon="7.895619514752743"><ele>222.33333333333331</ele><time>2026-04-11T14:38:05Z</time></trkpt><trkpt lat="44.595483303121" lon="7.895548344910634"><ele>222.16666666666666</ele><time>2026-04-11T14:38:06Z</time></trkpt><trkpt lat="44.59553888399338" lon="7.895482719829023"><ele>222.0</ele><time>2026-04-11T14:38:07Z</time></trkpt><trkpt lat="44.59559367281669" lon="7.895416043586605"><ele>222.5</ele><time>2026-04-11T14:38:08Z</time></trkpt><trkpt lat="44.595643682158126" lon="7.895351674683406"><ele>223.0</ele><time>2026-04-11T14:38:09Z</time></trkpt><trkpt lat="44.59568990297026" lon="7.895286175698497"><ele>223.5</ele><time>2026-04-11T14:38:10Z</time></trkpt><trkpt lat="44.59573750402677" lon="7.895226786331702"><ele>224.0</ele><time>2026-04-11T14:38:11Z</time></trkpt><trkpt lat="44.59583049365503" lon="7.895116084735594"><ele>224.5</ele><time>2026-04-11T14:38:13Z</time></trkpt><trkpt lat="44.59592375052869" lon="7.895013021018701"><ele>225.0</ele><time>2026-04-11T14:38:15Z</time></trkpt><trkpt lat="44.59601602089245" lon="7.894913323381324"><ele>225.0</ele><time>2026-04-11T14:38:17Z</time></trkpt><trkpt lat="44.59611384237714" lon="7.89481295860216"><ele>225.0</ele><time>2026-04-11T14:38:19Z</time></trkpt><trkpt lat="44.59621383197872" lon="7.894704283940243"><ele>225.0</ele><time>2026-04-11T14:38:21Z</time></trkpt><trkpt lat="44.59626699690363" lon="7.894649958675118"><ele>225.0</ele><time>2026-04-11T14:38:22Z</time></trkpt><trkpt lat="44.596321485651266" lon="7.894597246518841"><ele>225.0</ele><time>2026-04-11T14:38:23Z</time></trkpt><trkpt lat="44.59637593486478" lon="7.894541742385055"><ele>225.0</ele><time>2026-04-11T14:38:24Z</time></trkpt><trkpt lat="44.59646905354826" lon="7.894445782214673"><ele>225.42857142857144</ele><time>2026-04-11T14:38:26Z</time></trkpt><trkpt lat="44.596522443610844" lon="7.894389493638285"><ele>225.85714285714286</ele><time>2026-04-11T14:38:27Z</time></trkpt><trkpt lat="44.59657901742166" lon="7.894328127104573"><ele>226.28571428571428</ele><time>2026-04-11T14:38:28Z</time></trkpt><trkpt lat="44.59664090272901" lon="7.894257860042725"><ele>226.71428571428572</ele><time>2026-04-11T14:38:29Z</time></trkpt><trkpt lat="44.596697948562344" lon="7.894191534612461"><ele>227.1428571428571</ele><time>2026-04-11T14:38:30Z</time></trkpt><trkpt lat="44.596749353770264" lon="7.894132329220532"><ele>227.57142857142856</ele><time>2026-04-11T14:38:31Z</time></trkpt><trkpt lat="44.59680413287553" lon="7.894075570148501"><ele>228.0</ele><time>2026-04-11T14:38:32Z</time></trkpt><trkpt lat="44.59685494590975" lon="7.894013952861336"><ele>228.0</ele><time>2026-04-11T14:38:33Z</time></trkpt><trkpt lat="44.59690546775752" lon="7.893955185385482"><ele>227.99999999999997</ele><time>2026-04-11T14:38:34Z</time></trkpt><trkpt lat="44.59695681867325" lon="7.893897547878092"><ele>228.0</ele><time>2026-04-11T14:38:35Z</time></trkpt><trkpt lat="44.59701060814894" lon="7.893839596995235"><ele>228.0</ele><time>2026-04-11T14:38:36Z</time></trkpt><trkpt lat="44.59706453805137" lon="7.8937757777832696"><ele>227.99999999999997</ele><time>2026-04-11T14:38:37Z</time></trkpt><trkpt lat="44.59712139196509" lon="7.8937149127277175"><ele>228.0</ele><time>2026-04-11T14:38:38Z</time></trkpt><trkpt lat="44.59717412774588" lon="7.893651671328395"><ele>228.0</ele><time>2026-04-11T14:38:39Z</time></trkpt><trkpt lat="44.59722661900521" lon="7.893586894000654"><ele>227.85714285714283</ele><time>2026-04-11T14:38:40Z</time></trkpt><trkpt lat="44.59727697861268" lon="7.893516907679874"><ele>227.7142857142857</ele><time>2026-04-11T14:38:41Z</time></trkpt><trkpt lat="44.59732876180846" lon="7.893445233451135"><ele>227.57142857142856</ele><time>2026-04-11T14:38:42Z</time></trkpt><trkpt lat="44.597377256289136" lon="7.893372291623156"><ele>227.42857142857144</ele><time>2026-04-11T14:38:43Z</time></trkpt><trkpt lat="44.597425151478525" lon="7.8932990641194865"><ele>227.2857142857143</ele><time>2026-04-11T14:38:44Z</time></trkpt><trkpt lat="44.59747366261514" lon="7.893227481792463"><ele>227.14285714285717</ele><time>2026-04-11T14:38:45Z</time></trkpt><trkpt lat="44.597519780348804" lon="7.893153344785083"><ele>227.0</ele><time>2026-04-11T14:38:46Z</time></trkpt><trkpt lat="44.59756544413961" lon="7.893079588127122"><ele>227.00000000000003</ele><time>2026-04-11T14:38:47Z</time></trkpt><trkpt lat="44.59764773991827" lon="7.8929348354737945"><ele>227.0</ele><time>2026-04-11T14:38:49Z</time></trkpt><trkpt lat="44.597691563019964" lon="7.892860100187734"><ele>227.0</ele><time>2026-04-11T14:38:50Z</time></trkpt><trkpt lat="44.59773769974738" lon="7.892784866169272"><ele>227.0</ele><time>2026-04-11T14:38:51Z</time></trkpt><trkpt lat="44.59778210268747" lon="7.8927153868754765"><ele>227.00000000000003</ele><time>2026-04-11T14:38:52Z</time></trkpt><trkpt lat="44.59782569856014" lon="7.892640961960694"><ele>227.0</ele><time>2026-04-11T14:38:53Z</time></trkpt><trkpt lat="44.59787202074907" lon="7.8925727739231295"><ele>227.0</ele><time>2026-04-11T14:38:54Z</time></trkpt><trkpt lat="44.597917422335456" lon="7.892503987194399"><ele>227.00000000000003</ele><time>2026-04-11T14:38:55Z</time></trkpt><trkpt lat="44.597969595258995" lon="7.892452094027183"><ele>227.0</ele><time>2026-04-11T14:38:56Z</time></trkpt><trkpt lat="44.59802531374417" lon="7.892404221858462"><ele>227.0</ele><time>2026-04-11T14:38:57Z</time></trkpt><trkpt lat="44.59808214949106" lon="7.8923606199236325"><ele>227.00000000000003</ele><time>2026-04-11T14:38:58Z</time></trkpt><trkpt lat="44.59818106897484" lon="7.892317715603198"><ele>227.0</ele><time>2026-04-11T14:39:00Z</time></trkpt><trkpt lat="44.59825640817342" lon="7.892297744719838"><ele>227.0</ele><time>2026-04-11T14:39:02Z</time></trkpt><trkpt lat="44.59827904434218" lon="7.892177974968192"><ele>227.0</ele><time>2026-04-11T14:39:06Z</time></trkpt><trkpt lat="44.59819039976152" lon="7.892104239383939"><ele>227.0</ele><time>2026-04-11T14:39:08Z</time></trkpt><trkpt lat="44.598072708886406" lon="7.892071950387827"><ele>227.0</ele><time>2026-04-11T14:39:10Z</time></trkpt><trkpt lat="44.59795382705606" lon="7.892012408151364"><ele>227.0</ele><time>2026-04-11T14:39:12Z</time></trkpt><trkpt lat="44.597890938472595" lon="7.891984663950434"><ele>227.0</ele><time>2026-04-11T14:39:13Z</time></trkpt><trkpt lat="44.59782809663761" lon="7.891959185754961"><ele>226.85714285714286</ele><time>2026-04-11T14:39:14Z</time></trkpt><trkpt lat="44.59776045305435" lon="7.8919363531294495"><ele>226.71428571428572</ele><time>2026-04-11T14:39:15Z</time></trkpt><trkpt lat="44.59769394902869" lon="7.891915811290711"><ele>226.57142857142858</ele><time>2026-04-11T14:39:16Z</time></trkpt><trkpt lat="44.597624753435305" lon="7.891899334151185"><ele>226.42857142857144</ele><time>2026-04-11T14:39:17Z</time></trkpt><trkpt lat="44.59755386260163" lon="7.891882326679852"><ele>226.28571428571428</ele><time>2026-04-11T14:39:18Z</time></trkpt><trkpt lat="44.59749105074604" lon="7.891838637730426"><ele>226.14285714285717</ele><time>2026-04-11T14:39:19Z</time></trkpt><trkpt lat="44.59743990665988" lon="7.891752295256921"><ele>226.0</ele><time>2026-04-11T14:39:20Z</time></trkpt><trkpt lat="44.597431638876884" lon="7.891643847095133"><ele>225.0</ele><time>2026-04-11T14:39:21Z</time></trkpt><trkpt lat="44.59747564559924" lon="7.891541370756426"><ele>224.00000000000003</ele><time>2026-04-11T14:39:22Z</time></trkpt><trkpt lat="44.59755506879491" lon="7.891479330394824"><ele>223.00000000000003</ele><time>2026-04-11T14:39:23Z</time></trkpt><trkpt lat="44.59764371930913" lon="7.891453478140661"><ele>222.0</ele><time>2026-04-11T14:39:24Z</time></trkpt><trkpt lat="44.597738363655736" lon="7.891445455508889"><ele>221.0</ele><time>2026-04-11T14:39:25Z</time></trkpt><trkpt lat="44.597829672401616" lon="7.891421543069815"><ele>221.4</ele><time>2026-04-11T14:39:26Z</time></trkpt><trkpt lat="44.597915733596075" lon="7.89136235305873"><ele>221.8</ele><time>2026-04-11T14:39:27Z</time></trkpt><trkpt lat="44.597983921278065" lon="7.891254464626878"><ele>222.20000000000002</ele><time>2026-04-11T14:39:28Z</time></trkpt><trkpt lat="44.598038233084715" lon="7.891128751868511"><ele>222.60000000000002</ele><time>2026-04-11T14:39:29Z</time></trkpt><trkpt lat="44.59808766353777" lon="7.891004535734826"><ele>223.0</ele><time>2026-04-11T14:39:30.001Z</time></trkpt><trkpt lat="44.59812993709646" lon="7.890872734626091"><ele>222.2</ele><time>2026-04-11T14:39:31.001Z</time></trkpt><trkpt lat="44.59816385567399" lon="7.89073824595224"><ele>221.4</ele><time>2026-04-11T14:39:32.001Z</time></trkpt><trkpt lat="44.59819865309256" lon="7.890600569939155"><ele>220.59999999999997</ele><time>2026-04-11T14:39:33.001Z</time></trkpt><trkpt lat="44.59822911721669" lon="7.890464820817071"><ele>219.79999999999998</ele><time>2026-04-11T14:39:34.001Z</time></trkpt><trkpt lat="44.59826041908349" lon="7.890327334015006"><ele>219.0</ele><time>2026-04-11T14:39:35.001Z</time></trkpt><trkpt lat="44.598289951681004" lon="7.890188052959252"><ele>218.79999999999998</ele><time>2026-04-11T14:39:36.001Z</time></trkpt><trkpt lat="44.59831202454355" lon="7.890044828757435"><ele>218.59999999999997</ele><time>2026-04-11T14:39:37.001Z</time></trkpt><trkpt lat="44.59833079823573" lon="7.88989964489071"><ele>218.4</ele><time>2026-04-11T14:39:38.001Z</time></trkpt><trkpt lat="44.59834631353363" lon="7.889751478179001"><ele>218.2</ele><time>2026-04-11T14:39:39.001Z</time></trkpt><trkpt lat="44.59835660133616" lon="7.889604112460525"><ele>218.0</ele><time>2026-04-11T14:39:40.001Z</time></trkpt><trkpt lat="44.59836374708095" lon="7.8894596633911585"><ele>218.0</ele><time>2026-04-11T14:39:41.001Z</time></trkpt><trkpt lat="44.59836770306754" lon="7.889313681724747"><ele>218.0</ele><time>2026-04-11T14:39:42.001Z</time></trkpt><trkpt lat="44.59836777093307" lon="7.889170094548608"><ele>218.0</ele><time>2026-04-11T14:39:43.001Z</time></trkpt><trkpt lat="44.59836664550596" lon="7.88902741555868"><ele>218.0</ele><time>2026-04-11T14:39:44.001Z</time></trkpt><trkpt lat="44.59836062795506" lon="7.888886715285032"><ele>218.0</ele><time>2026-04-11T14:39:45Z</time></trkpt><trkpt lat="44.59835371940095" lon="7.888745554934186"><ele>217.4</ele><time>2026-04-11T14:39:46Z</time></trkpt><trkpt lat="44.59834319573042" lon="7.888603876242793"><ele>216.8</ele><time>2026-04-11T14:39:47Z</time></trkpt><trkpt lat="44.59833121365035" lon="7.888465705552878"><ele>216.2</ele><time>2026-04-11T14:39:48Z</time></trkpt><trkpt lat="44.59831671547254" lon="7.88832906464846"><ele>215.6</ele><time>2026-04-11T14:39:49Z</time></trkpt><trkpt lat="44.59829669678623" lon="7.888192418438457"><ele>215.0</ele><time>2026-04-11T14:39:50Z</time></trkpt><trkpt lat="44.5982762714867" lon="7.888058254206189"><ele>214.4</ele><time>2026-04-11T14:39:51Z</time></trkpt><trkpt lat="44.59825494989852" lon="7.887923904282723"><ele>213.8</ele><time>2026-04-11T14:39:52Z</time></trkpt><trkpt lat="44.598230176229364" lon="7.887789883607149"><ele>213.2</ele><time>2026-04-11T14:39:53Z</time></trkpt><trkpt lat="44.59820303615315" lon="7.887657193540725"><ele>212.6</ele><time>2026-04-11T14:39:54Z</time></trkpt><trkpt lat="44.59817858488588" lon="7.887527030475379"><ele>212.0</ele><time>2026-04-11T14:39:55Z</time></trkpt><trkpt lat="44.59815382274469" lon="7.887397041393139"><ele>211.39999999999998</ele><time>2026-04-11T14:39:56Z</time></trkpt><trkpt lat="44.59812809382981" lon="7.8872699256406635"><ele>210.79999999999998</ele><time>2026-04-11T14:39:57Z</time></trkpt><trkpt lat="44.598102947463865" lon="7.887142945464391"><ele>210.2</ele><time>2026-04-11T14:39:58Z</time></trkpt><trkpt lat="44.59807655619939" lon="7.887018622025212"><ele>209.6</ele><time>2026-04-11T14:39:59Z</time></trkpt><trkpt lat="44.598049621541435" lon="7.886894937359779"><ele>209.0</ele><time>2026-04-11T14:40:00Z</time></trkpt><trkpt lat="44.598023543781586" lon="7.886771033545401"><ele>208.6</ele><time>2026-04-11T14:40:01Z</time></trkpt><trkpt lat="44.59799955942926" lon="7.886646156029815"><ele>208.2</ele><time>2026-04-11T14:40:02Z</time></trkpt><trkpt lat="44.597975006624004" lon="7.886521396640194"><ele>207.79999999999998</ele><time>2026-04-11T14:40:03Z</time></trkpt><trkpt lat="44.59794971036968" lon="7.886395592875035"><ele>207.39999999999998</ele><time>2026-04-11T14:40:04Z</time></trkpt><trkpt lat="44.59792477134365" lon="7.886272641021596"><ele>207.0</ele><time>2026-04-11T14:40:05Z</time></trkpt><trkpt lat="44.59789995967258" lon="7.88614808553511"><ele>207.0</ele><time>2026-04-11T14:40:06Z</time></trkpt><trkpt lat="44.597876739057824" lon="7.886018877810449"><ele>207.0</ele><time>2026-04-11T14:40:07Z</time></trkpt><trkpt lat="44.59785549997255" lon="7.8858916181082"><ele>207.0</ele><time>2026-04-11T14:40:08Z</time></trkpt><trkpt lat="44.59783483105846" lon="7.8857637672490855"><ele>207.0</ele><time>2026-04-11T14:40:09Z</time></trkpt><trkpt lat="44.59781474647852" lon="7.885636187162371"><ele>207.0</ele><time>2026-04-11T14:40:10Z</time></trkpt><trkpt lat="44.597796618838956" lon="7.885505224170906"><ele>207.6</ele><time>2026-04-11T14:40:11Z</time></trkpt><trkpt lat="44.59777933924635" lon="7.885371867410278"><ele>208.2</ele><time>2026-04-11T14:40:12Z</time></trkpt><trkpt lat="44.59776466260784" lon="7.885239035490451"><ele>208.8</ele><time>2026-04-11T14:40:13Z</time></trkpt><trkpt lat="44.59775330147856" lon="7.885106035141731"><ele>209.4</ele><time>2026-04-11T14:40:14Z</time></trkpt><trkpt lat="44.59774273523543" lon="7.884974017568144"><ele>210.0</ele><time>2026-04-11T14:40:15Z</time></trkpt><trkpt lat="44.59773312611497" lon="7.884841770057925"><ele>210.0</ele><time>2026-04-11T14:40:16Z</time></trkpt><trkpt lat="44.59772503970015" lon="7.8847089536650925"><ele>210.0</ele><time>2026-04-11T14:40:17Z</time></trkpt><trkpt lat="44.59771937056197" lon="7.884576237789761"><ele>210.0</ele><time>2026-04-11T14:40:18Z</time></trkpt><trkpt lat="44.597718724757726" lon="7.884444183711158"><ele>210.0</ele><time>2026-04-11T14:40:19Z</time></trkpt><trkpt lat="44.59772021773873" lon="7.884312778956176"><ele>210.0</ele><time>2026-04-11T14:40:20Z</time></trkpt><trkpt lat="44.59772806369411" lon="7.884184320268908"><ele>210.2</ele><time>2026-04-11T14:40:21Z</time></trkpt><trkpt lat="44.59773550579105" lon="7.884057911103422"><ele>210.4</ele><time>2026-04-11T14:40:22Z</time></trkpt><trkpt lat="44.59774373874402" lon="7.883934418044272"><ele>210.60000000000002</ele><time>2026-04-11T14:40:23Z</time></trkpt><trkpt lat="44.597749215242146" lon="7.883820072416634"><ele>210.8</ele><time>2026-04-11T14:40:24Z</time></trkpt><trkpt lat="44.59774002788669" lon="7.883723311398138"><ele>211.0</ele><time>2026-04-11T14:40:25Z</time></trkpt><trkpt lat="44.597630962004445" lon="7.883653597755254"><ele>211.0</ele><time>2026-04-11T14:40:27Z</time></trkpt><trkpt lat="44.59757928454345" lon="7.883711643140609"><ele>211.0</ele><time>2026-04-11T14:40:28Z</time></trkpt><trkpt lat="44.59755247977293" lon="7.883803481276518"><ele>211.0</ele><time>2026-04-11T14:40:29Z</time></trkpt><trkpt lat="44.59754313488571" lon="7.8839022547519"><ele>211.0</ele><time>2026-04-11T14:40:30Z</time></trkpt><trkpt lat="44.59752276389494" lon="7.883995010355528"><ele>211.0</ele><time>2026-04-11T14:40:31Z</time></trkpt><trkpt lat="44.59750639566017" lon="7.884096658900074"><ele>211.0</ele><time>2026-04-11T14:40:32Z</time></trkpt><trkpt lat="44.59749432171727" lon="7.884203391426178"><ele>211.0</ele><time>2026-04-11T14:40:33Z</time></trkpt><trkpt lat="44.597486594342804" lon="7.8843190875770475"><ele>210.83333333333331</ele><time>2026-04-11T14:40:34Z</time></trkpt><trkpt lat="44.59748637384022" lon="7.884436727124708"><ele>210.66666666666666</ele><time>2026-04-11T14:40:35Z</time></trkpt><trkpt lat="44.59749286107003" lon="7.884560409258912"><ele>210.5</ele><time>2026-04-11T14:40:36Z</time></trkpt><trkpt lat="44.59749495987498" lon="7.884685606344137"><ele>210.33333333333331</ele><time>2026-04-11T14:40:37Z</time></trkpt><trkpt lat="44.597490825321756" lon="7.884812474145394"><ele>210.16666666666666</ele><time>2026-04-11T14:40:38Z</time></trkpt><trkpt lat="44.597475646614555" lon="7.884941154709331"><ele>210.0</ele><time>2026-04-11T14:40:39Z</time></trkpt><trkpt lat="44.59744531096728" lon="7.885065672048188"><ele>210.0</ele><time>2026-04-11T14:40:40Z</time></trkpt><trkpt lat="44.59740353292324" lon="7.885185191073288"><ele>210.0</ele><time>2026-04-11T14:40:41Z</time></trkpt><trkpt lat="44.59735451900777" lon="7.8852993132582405"><ele>210.0</ele><time>2026-04-11T14:40:42Z</time></trkpt><trkpt lat="44.59729681842079" lon="7.885405327043162"><ele>210.0</ele><time>2026-04-11T14:40:43Z</time></trkpt><trkpt lat="44.597241490813" lon="7.885507379142259"><ele>210.0</ele><time>2026-04-11T14:40:44Z</time></trkpt><trkpt lat="44.597187725470775" lon="7.885605287110289"><ele>210.0</ele><time>2026-04-11T14:40:45Z</time></trkpt><trkpt lat="44.59713706681661" lon="7.885700284329085"><ele>210.0</ele><time>2026-04-11T14:40:46Z</time></trkpt><trkpt lat="44.597086862588895" lon="7.885788472426148"><ele>210.0</ele><time>2026-04-11T14:40:47Z</time></trkpt><trkpt lat="44.59703582336677" lon="7.885868287712357"><ele>210.0</ele><time>2026-04-11T14:40:48Z</time></trkpt><trkpt lat="44.596981831807405" lon="7.885943549243045"><ele>210.0</ele><time>2026-04-11T14:40:49Z</time></trkpt><trkpt lat="44.59692607427805" lon="7.8860199705519785"><ele>210.0</ele><time>2026-04-11T14:40:50Z</time></trkpt><trkpt lat="44.59687356615162" lon="7.886095648833411"><ele>209.85714285714286</ele><time>2026-04-11T14:40:51Z</time></trkpt><trkpt lat="44.59682283772161" lon="7.886170670635566"><ele>209.71428571428572</ele><time>2026-04-11T14:40:52Z</time></trkpt><trkpt lat="44.59676890399275" lon="7.886241139555507"><ele>209.57142857142856</ele><time>2026-04-11T14:40:53Z</time></trkpt><trkpt lat="44.59671865623907" lon="7.886312651314844"><ele>209.42857142857144</ele><time>2026-04-11T14:40:54Z</time></trkpt><trkpt lat="44.59666914899536" lon="7.8863821890478425"><ele>209.28571428571428</ele><time>2026-04-11T14:40:55Z</time></trkpt><trkpt lat="44.59661943958725" lon="7.886454142135498"><ele>209.14285714285714</ele><time>2026-04-11T14:40:56Z</time></trkpt><trkpt lat="44.596570579485125" lon="7.8865239707246655"><ele>209.0</ele><time>2026-04-11T14:40:57Z</time></trkpt><trkpt lat="44.59652146824558" lon="7.886589119135923"><ele>209.0</ele><time>2026-04-11T14:40:58Z</time></trkpt><trkpt lat="44.59644771001849" lon="7.886612834154992"><ele>209.0</ele><time>2026-04-11T14:40:59Z</time></trkpt><trkpt lat="44.59639359706957" lon="7.886660778693456"><ele>209.0</ele><time>2026-04-11T14:41:00Z</time></trkpt><trkpt lat="44.59633070166457" lon="7.886687094394989"><ele>209.0</ele><time>2026-04-11T14:41:01Z</time></trkpt><trkpt lat="44.596262542349656" lon="7.886697368940497"><ele>209.0</ele><time>2026-04-11T14:41:02Z</time></trkpt><trkpt lat="44.59619308907169" lon="7.8867038310321185"><ele>209.0</ele><time>2026-04-11T14:41:03Z</time></trkpt><trkpt lat="44.59612096731318" lon="7.886711279803938"><ele>209.0</ele><time>2026-04-11T14:41:04Z</time></trkpt><trkpt lat="44.59604792049366" lon="7.886720786961674"><ele>209.16666666666669</ele><time>2026-04-11T14:41:05Z</time></trkpt><trkpt lat="44.59597550493297" lon="7.886730025054223"><ele>209.33333333333334</ele><time>2026-04-11T14:41:06Z</time></trkpt><trkpt lat="44.595903617902785" lon="7.886739195733321"><ele>209.5</ele><time>2026-04-11T14:41:07Z</time></trkpt><trkpt lat="44.595827609534794" lon="7.886749405674095"><ele>209.66666666666669</ele><time>2026-04-11T14:41:08Z</time></trkpt><trkpt lat="44.595750318750056" lon="7.886760301996693"><ele>209.83333333333334</ele><time>2026-04-11T14:41:09Z</time></trkpt><trkpt lat="44.595671866948685" lon="7.886771476301436"><ele>210.0</ele><time>2026-04-11T14:41:10Z</time></trkpt><trkpt lat="44.595592839134376" lon="7.886785069770484"><ele>210.0</ele><time>2026-04-11T14:41:11Z</time></trkpt><trkpt lat="44.59551202405654" lon="7.886807206878353"><ele>210.0</ele><time>2026-04-11T14:41:12Z</time></trkpt><trkpt lat="44.59543247430993" lon="7.886839228920699"><ele>210.0</ele><time>2026-04-11T14:41:13Z</time></trkpt><trkpt lat="44.595355088736106" lon="7.886872163910873"><ele>210.0</ele><time>2026-04-11T14:41:14Z</time></trkpt><trkpt lat="44.59528011195337" lon="7.88690296762087"><ele>210.0</ele><time>2026-04-11T14:41:15Z</time></trkpt><trkpt lat="44.59520573026957" lon="7.8869253069960115"><ele>210.0</ele><time>2026-04-11T14:41:16Z</time></trkpt><trkpt lat="44.59513070094066" lon="7.8869360219335976"><ele>210.0</ele><time>2026-04-11T14:41:17Z</time></trkpt><trkpt lat="44.59505445227733" lon="7.8869440171659155"><ele>210.0</ele><time>2026-04-11T14:41:18Z</time></trkpt><trkpt lat="44.59497796785873" lon="7.886949905761548"><ele>210.0</ele><time>2026-04-11T14:41:19Z</time></trkpt><trkpt lat="44.59490185931233" lon="7.8869536832144735"><ele>210.0</ele><time>2026-04-11T14:41:20Z</time></trkpt><trkpt lat="44.59482533884713" lon="7.886955245589337"><ele>210.0</ele><time>2026-04-11T14:41:21Z</time></trkpt><trkpt lat="44.59475099434103" lon="7.886954773296227"><ele>210.0</ele><time>2026-04-11T14:41:22Z</time></trkpt><trkpt lat="44.59467525640498" lon="7.886949961979341"><ele>210.0</ele><time>2026-04-11T14:41:23Z</time></trkpt><trkpt lat="44.59459814807103" lon="7.886940608547131"><ele>210.0</ele><time>2026-04-11T14:41:24Z</time></trkpt><trkpt lat="44.59452302457899" lon="7.886924445688752"><ele>210.0</ele><time>2026-04-11T14:41:25Z</time></trkpt><trkpt lat="44.59444717494537" lon="7.886904192300647"><ele>210.0</ele><time>2026-04-11T14:41:26Z</time></trkpt><trkpt lat="44.59437237058735" lon="7.886884114339166"><ele>210.0</ele><time>2026-04-11T14:41:27Z</time></trkpt><trkpt lat="44.59429680509894" lon="7.886863832091234"><ele>210.0</ele><time>2026-04-11T14:41:28Z</time></trkpt><trkpt lat="44.594219462401924" lon="7.886843985087006"><ele>210.0</ele><time>2026-04-11T14:41:29Z</time></trkpt><trkpt lat="44.594144241157075" lon="7.886826981862684"><ele>210.0</ele><time>2026-04-11T14:41:30Z</time></trkpt><trkpt lat="44.594068394465694" lon="7.8868098391077295"><ele>210.0</ele><time>2026-04-11T14:41:31Z</time></trkpt><trkpt lat="44.59399147104091" lon="7.886813309324236"><ele>210.0</ele><time>2026-04-11T14:41:32Z</time></trkpt><trkpt lat="44.59391411212818" lon="7.886795486154826"><ele>210.0</ele><time>2026-04-11T14:41:33Z</time></trkpt><trkpt lat="44.593837925731904" lon="7.886775321931363"><ele>210.0</ele><time>2026-04-11T14:41:34Z</time></trkpt><trkpt lat="44.593763284909116" lon="7.886759179970583"><ele>210.0</ele><time>2026-04-11T14:41:35Z</time></trkpt><trkpt lat="44.59368692198553" lon="7.886742240247187"><ele>210.0</ele><time>2026-04-11T14:41:36.001Z</time></trkpt><trkpt lat="44.59361275248036" lon="7.886725905795248"><ele>210.0</ele><time>2026-04-11T14:41:37.001Z</time></trkpt><trkpt lat="44.59353673777973" lon="7.88670636412639"><ele>210.0</ele><time>2026-04-11T14:41:38Z</time></trkpt><trkpt lat="44.59346569970778" lon="7.886685583178521"><ele>210.0</ele><time>2026-04-11T14:41:39Z</time></trkpt><trkpt lat="44.593392946451296" lon="7.886663282252628"><ele>210.0</ele><time>2026-04-11T14:41:40Z</time></trkpt><trkpt lat="44.59332193749257" lon="7.886642435281329"><ele>210.0</ele><time>2026-04-11T14:41:41Z</time></trkpt><trkpt lat="44.59324870233593" lon="7.886620654421801"><ele>210.14285714285714</ele><time>2026-04-11T14:41:42Z</time></trkpt><trkpt lat="44.59317979838951" lon="7.886599282041036"><ele>210.28571428571428</ele><time>2026-04-11T14:41:43Z</time></trkpt><trkpt lat="44.593112513369974" lon="7.88655243300044"><ele>210.42857142857144</ele><time>2026-04-11T14:41:44Z</time></trkpt><trkpt lat="44.59304358443965" lon="7.886526731303693"><ele>210.57142857142856</ele><time>2026-04-11T14:41:45Z</time></trkpt><trkpt lat="44.59296951475767" lon="7.886518998601102"><ele>210.71428571428572</ele><time>2026-04-11T14:41:46Z</time></trkpt><trkpt lat="44.59290279936028" lon="7.886482164969576"><ele>210.85714285714286</ele><time>2026-04-11T14:41:47Z</time></trkpt><trkpt lat="44.5928369575114" lon="7.886438039581014"><ele>211.0</ele><time>2026-04-11T14:41:48Z</time></trkpt><trkpt lat="44.59278679604938" lon="7.8863632235018954"><ele>211.0</ele><time>2026-04-11T14:41:49Z</time></trkpt><trkpt lat="44.5927310307721" lon="7.886298230495289"><ele>211.0</ele><time>2026-04-11T14:41:50Z</time></trkpt><trkpt lat="44.59269146066848" lon="7.88621766688866"><ele>211.0</ele><time>2026-04-11T14:41:51Z</time></trkpt><trkpt lat="44.59266133008232" lon="7.886128860696026"><ele>211.0</ele><time>2026-04-11T14:41:52Z</time></trkpt><trkpt lat="44.592637161447435" lon="7.886037149228112"><ele>211.0</ele><time>2026-04-11T14:41:53Z</time></trkpt><trkpt lat="44.59260836674068" lon="7.885947163574296"><ele>211.0</ele><time>2026-04-11T14:41:54Z</time></trkpt><trkpt lat="44.59259387704734" lon="7.885857926321619"><ele>211.0</ele><time>2026-04-11T14:41:55Z</time></trkpt><trkpt lat="44.59257973717652" lon="7.885768452890748"><ele>211.8</ele><time>2026-04-11T14:41:56Z</time></trkpt><trkpt lat="44.592569048239945" lon="7.885679574846554"><ele>212.60000000000002</ele><time>2026-04-11T14:41:57Z</time></trkpt><trkpt lat="44.59255091557839" lon="7.885505504512952"><ele>213.4</ele><time>2026-04-11T14:41:59Z</time></trkpt><trkpt lat="44.59254009361146" lon="7.88540790251152"><ele>214.2</ele><time>2026-04-11T14:42:00Z</time></trkpt><trkpt lat="44.59251673805299" lon="7.885274031163059"><ele>215.0</ele><time>2026-04-11T14:42:02Z</time></trkpt><trkpt lat="44.592491681323445" lon="7.885134345360579"><ele>215.4</ele><time>2026-04-11T14:42:04Z</time></trkpt><trkpt lat="44.59247081186127" lon="7.88498878532834"><ele>215.8</ele><time>2026-04-11T14:42:06Z</time></trkpt><trkpt lat="44.59244676479647" lon="7.884854765007257"><ele>216.2</ele><time>2026-04-11T14:42:08Z</time></trkpt><trkpt lat="44.5924196781151" lon="7.8847240923969855"><ele>216.6</ele><time>2026-04-11T14:42:10Z</time></trkpt><trkpt lat="44.592407123974716" lon="7.884600189947135"><ele>217.0</ele><time>2026-04-11T14:42:12Z</time></trkpt><trkpt lat="44.5923893641128" lon="7.88449244248113"><ele>217.0</ele><time>2026-04-11T14:42:14Z</time></trkpt><trkpt lat="44.59237719447588" lon="7.884387626511584"><ele>217.0</ele><time>2026-04-11T14:42:16Z</time></trkpt><trkpt lat="44.59236324348004" lon="7.884289051434134"><ele>217.0</ele><time>2026-04-11T14:42:18Z</time></trkpt><trkpt lat="44.5923508546665" lon="7.8841829230115525"><ele>217.0</ele><time>2026-04-11T14:42:20Z</time></trkpt><trkpt lat="44.59234087921655" lon="7.884092128766728"><ele>217.0</ele><time>2026-04-11T14:42:22Z</time></trkpt><trkpt lat="44.59232210321457" lon="7.8839905377915285"><ele>217.0</ele><time>2026-04-11T14:42:24Z</time></trkpt><trkpt lat="44.59230568972447" lon="7.883879998675698"><ele>217.0</ele><time>2026-04-11T14:42:26Z</time></trkpt><trkpt lat="44.59228990586305" lon="7.883765331020244"><ele>217.85714285714286</ele><time>2026-04-11T14:42:28Z</time></trkpt><trkpt lat="44.592283852808904" lon="7.883662531218945"><ele>218.71428571428572</ele><time>2026-04-11T14:42:30Z</time></trkpt><trkpt lat="44.592309963979716" lon="7.883573698993623"><ele>219.57142857142856</ele><time>2026-04-11T14:42:32Z</time></trkpt><trkpt lat="44.5923303529419" lon="7.88347002586875"><ele>220.42857142857144</ele><time>2026-04-11T14:42:34Z</time></trkpt><trkpt lat="44.59234361536772" lon="7.883364391151835"><ele>221.28571428571428</ele><time>2026-04-11T14:42:36Z</time></trkpt><trkpt lat="44.59235582799108" lon="7.883260631610846"><ele>222.14285714285714</ele><time>2026-04-11T14:42:38Z</time></trkpt><trkpt lat="44.592368970735635" lon="7.8831626894737825"><ele>223.0</ele><time>2026-04-11T14:42:41Z</time></trkpt><trkpt lat="44.59236722956603" lon="7.8830688056097635"><ele>223.28571428571428</ele><time>2026-04-11T14:42:43Z</time></trkpt><trkpt lat="44.592393151902336" lon="7.882987170440264"><ele>223.57142857142856</ele><time>2026-04-11T14:42:45Z</time></trkpt><trkpt lat="44.59241410591183" lon="7.882879679685247"><ele>223.8571428571429</ele><time>2026-04-11T14:42:48Z</time></trkpt><trkpt lat="44.59243567058096" lon="7.882788615282612"><ele>224.14285714285717</ele><time>2026-04-11T14:42:50Z</time></trkpt><trkpt lat="44.59246193007215" lon="7.882669367664515"><ele>224.42857142857144</ele><time>2026-04-11T14:42:53Z</time></trkpt><trkpt lat="44.59248461806299" lon="7.8825867560670915"><ele>224.71428571428575</ele><time>2026-04-11T14:42:55Z</time></trkpt><trkpt lat="44.59251634092208" lon="7.882479731192419"><ele>225.00000000000003</ele><time>2026-04-11T14:42:58Z</time></trkpt><trkpt lat="44.59253615032735" lon="7.882382220620695"><ele>225.33333333333334</ele><time>2026-04-11T14:43:01Z</time></trkpt><trkpt lat="44.59256325311704" lon="7.882259870148583"><ele>225.66666666666669</ele><time>2026-04-11T14:43:04Z</time></trkpt><trkpt lat="44.592592032479786" lon="7.882168045777915"><ele>226.0</ele><time>2026-04-11T14:43:06Z</time></trkpt><trkpt lat="44.59261360516746" lon="7.882073055466786"><ele>226.33333333333334</ele><time>2026-04-11T14:43:09Z</time></trkpt><trkpt lat="44.592640516251976" lon="7.88197247677457"><ele>226.66666666666669</ele><time>2026-04-11T14:43:12Z</time></trkpt><trkpt lat="44.592659385726925" lon="7.88187392472482"><ele>227.0</ele><time>2026-04-11T14:43:15Z</time></trkpt><trkpt lat="44.59269048656845" lon="7.881781795066569"><ele>227.66666666666669</ele><time>2026-04-11T14:43:18Z</time></trkpt><trkpt lat="44.59271452284858" lon="7.881698073152855"><ele>228.33333333333334</ele><time>2026-04-11T14:43:20Z</time></trkpt><trkpt lat="44.59274606404794" lon="7.881571124139735"><ele>229.0</ele><time>2026-04-11T14:43:23Z</time></trkpt><trkpt lat="44.592775022012084" lon="7.881465030061656"><ele>229.66666666666669</ele><time>2026-04-11T14:43:25Z</time></trkpt><trkpt lat="44.592810137900116" lon="7.881381285156449"><ele>230.33333333333334</ele><time>2026-04-11T14:43:27Z</time></trkpt><trkpt lat="44.592861581052034" lon="7.881281966757193"><ele>231.0</ele><time>2026-04-11T14:43:30Z</time></trkpt><trkpt lat="44.5929179172047" lon="7.881241173648014"><ele>231.57142857142856</ele><time>2026-04-11T14:43:33Z</time></trkpt><trkpt lat="44.59298744309021" lon="7.881209833382276"><ele>232.14285714285714</ele><time>2026-04-11T14:43:36Z</time></trkpt><trkpt lat="44.59305970216048" lon="7.881189655603085"><ele>232.71428571428572</ele><time>2026-04-11T14:43:39Z</time></trkpt><trkpt lat="44.593129539936335" lon="7.881188542478202"><ele>233.28571428571428</ele><time>2026-04-11T14:43:42Z</time></trkpt><trkpt lat="44.59320141417349" lon="7.881177990111641"><ele>233.85714285714283</ele><time>2026-04-11T14:43:45Z</time></trkpt><trkpt lat="44.59327182865427" lon="7.881169982582399"><ele>234.42857142857142</ele><time>2026-04-11T14:43:48Z</time></trkpt><trkpt lat="44.593350910463535" lon="7.8811670095596265"><ele>235.0</ele><time>2026-04-11T14:43:51Z</time></trkpt><trkpt lat="44.59342236721192" lon="7.881163493241171"><ele>235.0</ele><time>2026-04-11T14:43:54Z</time></trkpt><trkpt lat="44.59348706345037" lon="7.881158654789566"><ele>234.99999999999997</ele><time>2026-04-11T14:43:57Z</time></trkpt><trkpt lat="44.593550886566995" lon="7.8811471685550325"><ele>235.0</ele><time>2026-04-11T14:44:00Z</time></trkpt><trkpt lat="44.59363205267441" lon="7.881125310074864"><ele>235.0</ele><time>2026-04-11T14:44:04Z</time></trkpt><trkpt lat="44.593690466948466" lon="7.881072087594324"><ele>234.99999999999997</ele><time>2026-04-11T14:44:07Z</time></trkpt><trkpt lat="44.593747563054436" lon="7.881015989074363"><ele>235.0</ele><time>2026-04-11T14:44:10Z</time></trkpt><trkpt lat="44.59378491479296" lon="7.8809380023229005"><ele>235.0</ele><time>2026-04-11T14:44:13Z</time></trkpt><trkpt lat="44.5938026941904" lon="7.880836369548542"><ele>236.66666666666666</ele><time>2026-04-11T14:44:16Z</time></trkpt><trkpt lat="44.59379193922805" lon="7.880719287583677"><ele>238.33333333333331</ele><time>2026-04-11T14:44:19Z</time></trkpt><trkpt lat="44.593748390891626" lon="7.880641589536777"><ele>240.0</ele><time>2026-04-11T14:44:21Z</time></trkpt><trkpt lat="44.59369186316531" lon="7.880577526880654"><ele>241.66666666666669</ele><time>2026-04-11T14:44:23Z</time></trkpt><trkpt lat="44.59363737585963" lon="7.880466176917747"><ele>243.33333333333334</ele><time>2026-04-11T14:44:26Z</time></trkpt><trkpt lat="44.59360535700813" lon="7.8803843077444204"><ele>245.0</ele><time>2026-04-11T14:44:28Z</time></trkpt><trkpt lat="44.593581549471516" lon="7.880297715958815"><ele>245.14285714285714</ele><time>2026-04-11T14:44:30Z</time></trkpt><trkpt lat="44.593557694326705" lon="7.880214278121309"><ele>245.28571428571428</ele><time>2026-04-11T14:44:32Z</time></trkpt><trkpt lat="44.59352504040289" lon="7.880126417229584"><ele>245.42857142857144</ele><time>2026-04-11T14:44:34Z</time></trkpt><trkpt lat="44.59349260464121" lon="7.880045413126809"><ele>245.57142857142858</ele><time>2026-04-11T14:44:36Z</time></trkpt><trkpt lat="44.59346138801564" lon="7.879957151737065"><ele>245.71428571428572</ele><time>2026-04-11T14:44:38Z</time></trkpt><trkpt lat="44.593432615233745" lon="7.879866458787109"><ele>245.8571428571429</ele><time>2026-04-11T14:44:40Z</time></trkpt><trkpt lat="44.59340584377311" lon="7.879774528859412"><ele>246.00000000000003</ele><time>2026-04-11T14:44:42Z</time></trkpt><trkpt lat="44.593390168377006" lon="7.879679890665865"><ele>247.16666666666666</ele><time>2026-04-11T14:44:44Z</time></trkpt><trkpt lat="44.593384703784864" lon="7.8795901210708985"><ele>248.33333333333331</ele><time>2026-04-11T14:44:46Z</time></trkpt><trkpt lat="44.59338115339364" lon="7.879499505650445"><ele>249.5</ele><time>2026-04-11T14:44:48Z</time></trkpt><trkpt lat="44.59338694420411" lon="7.879369105686809"><ele>250.66666666666666</ele><time>2026-04-11T14:44:51Z</time></trkpt><trkpt lat="44.593408544418736" lon="7.87925331252128"><ele>251.83333333333331</ele><time>2026-04-11T14:44:54Z</time></trkpt><trkpt lat="44.59342026510553" lon="7.879138073116249"><ele>253.0</ele><time>2026-04-11T14:44:57Z</time></trkpt><trkpt lat="44.59343592611579" lon="7.8790351722658505"><ele>253.83333333333331</ele><time>2026-04-11T14:45:00Z</time></trkpt><trkpt lat="44.59345998928973" lon="7.878933259776436"><ele>254.66666666666666</ele><time>2026-04-11T14:45:03Z</time></trkpt><trkpt lat="44.59348349137899" lon="7.8788262829715405"><ele>255.5</ele><time>2026-04-11T14:45:06Z</time></trkpt><trkpt lat="44.59350207488602" lon="7.878715880174398"><ele>256.3333333333333</ele><time>2026-04-11T14:45:09Z</time></trkpt><trkpt lat="44.59352563045801" lon="7.878613723170242"><ele>257.1666666666667</ele><time>2026-04-11T14:45:12Z</time></trkpt><trkpt lat="44.593549232781434" lon="7.87850063205267"><ele>258.0</ele><time>2026-04-11T14:45:16Z</time></trkpt><trkpt lat="44.593567532600126" lon="7.878400380890439"><ele>258.2857142857143</ele><time>2026-04-11T14:45:19Z</time></trkpt><trkpt lat="44.59358764805678" lon="7.878299260733368"><ele>258.57142857142856</ele><time>2026-04-11T14:45:22Z</time></trkpt><trkpt lat="44.59360591937104" lon="7.878199615893784"><ele>258.8571428571429</ele><time>2026-04-11T14:45:25Z</time></trkpt><trkpt lat="44.59362852815497" lon="7.878102711727606"><ele>259.1428571428571</ele><time>2026-04-11T14:45:28Z</time></trkpt><trkpt lat="44.5936451738963" lon="7.878007358453373"><ele>259.42857142857144</ele><time>2026-04-11T14:45:31Z</time></trkpt><trkpt lat="44.593666175075825" lon="7.877901481034962"><ele>259.7142857142857</ele><time>2026-04-11T14:45:34Z</time></trkpt><trkpt lat="44.59368757482042" lon="7.877798680936348"><ele>260.0</ele><time>2026-04-11T14:45:37Z</time></trkpt><trkpt lat="44.593708724630524" lon="7.877694177343736"><ele>264.33333333333337</ele><time>2026-04-11T14:45:40Z</time></trkpt><trkpt lat="44.593729996290676" lon="7.877585923287248"><ele>268.6666666666667</ele><time>2026-04-11T14:45:43Z</time></trkpt><trkpt lat="44.59375462100247" lon="7.877473667498546"><ele>273.0</ele><time>2026-04-11T14:45:46Z</time></trkpt><trkpt lat="44.593770072573" lon="7.877384601712373"><ele>277.3333333333333</ele><time>2026-04-11T14:45:48Z</time></trkpt><trkpt lat="44.593789849683155" lon="7.877279799949476"><ele>281.66666666666663</ele><time>2026-04-11T14:45:51Z</time></trkpt><trkpt lat="44.593805541842315" lon="7.8771725125397705"><ele>286.0</ele><time>2026-04-11T14:45:54Z</time></trkpt><trkpt lat="44.59382591592695" lon="7.877073583524972"><ele>286.0</ele><time>2026-04-11T14:45:57Z</time></trkpt><trkpt lat="44.59383878720582" lon="7.876970419965849"><ele>286.0</ele><time>2026-04-11T14:46:00Z</time></trkpt><trkpt lat="44.59385671842392" lon="7.8768676832710005"><ele>286.0</ele><time>2026-04-11T14:46:03Z</time></trkpt><trkpt lat="44.59387695479998" lon="7.876773073152709"><ele>286.0</ele><time>2026-04-11T14:46:06Z</time></trkpt><trkpt lat="44.59394103474583" lon="7.876704270362381"><ele>286.0</ele><time>2026-04-11T14:46:10Z</time></trkpt><trkpt lat="44.594002550651" lon="7.876734842645665"><ele>286.0</ele><time>2026-04-11T14:46:13Z</time></trkpt><trkpt lat="44.59403195542799" lon="7.87684928288744"><ele>286.0</ele><time>2026-04-11T14:46:16Z</time></trkpt><trkpt lat="44.59404179704175" lon="7.876956152933275"><ele>286.0</ele><time>2026-04-11T14:46:19Z</time></trkpt><trkpt lat="44.59404910481226" lon="7.877063616982238"><ele>286.0</ele><time>2026-04-11T14:46:22Z</time></trkpt><trkpt lat="44.59405821280655" lon="7.877174094169563"><ele>286.0</ele><time>2026-04-11T14:46:25Z</time></trkpt><trkpt lat="44.594068344200494" lon="7.877276809000786"><ele>286.0</ele><time>2026-04-11T14:46:28Z</time></trkpt><trkpt lat="44.59407781906602" lon="7.8773792547229995"><ele>286.0</ele><time>2026-04-11T14:46:31Z</time></trkpt><trkpt lat="44.59408737871876" lon="7.877493382139353"><ele>286.0</ele><time>2026-04-11T14:46:35Z</time></trkpt><trkpt lat="44.594094959072244" lon="7.877618086072071"><ele>286.0</ele><time>2026-04-11T14:46:38Z</time></trkpt><trkpt lat="44.59410129636346" lon="7.877722447146204"><ele>286.0</ele><time>2026-04-11T14:46:41Z</time></trkpt><trkpt lat="44.59411033647012" lon="7.877827319321364"><ele>286.0</ele><time>2026-04-11T14:46:44Z</time></trkpt><trkpt lat="44.59412013411295" lon="7.877932667046493"><ele>286.0</ele><time>2026-04-11T14:46:47Z</time></trkpt><trkpt lat="44.59412724209949" lon="7.87803875324084"><ele>286.0</ele><time>2026-04-11T14:46:50Z</time></trkpt><trkpt lat="44.594135602641096" lon="7.878126824462962"><ele>286.0</ele><time>2026-04-11T14:46:53Z</time></trkpt><trkpt lat="44.59414211789874" lon="7.878227899650157"><ele>286.0</ele><time>2026-04-11T14:46:56Z</time></trkpt><trkpt lat="44.59415377282157" lon="7.878322506141185"><ele>286.0</ele><time>2026-04-11T14:46:58Z</time></trkpt><trkpt lat="44.594172003255466" lon="7.878432087304309"><ele>286.0</ele><time>2026-04-11T14:47:00Z</time></trkpt><trkpt lat="44.59418234703541" lon="7.878548511139646"><ele>286.0</ele><time>2026-04-11T14:47:04Z</time></trkpt><trkpt lat="44.594199233673606" lon="7.878652840379435"><ele>286.0</ele><time>2026-04-11T14:47:07Z</time></trkpt><trkpt lat="44.59423980088559" lon="7.878747340628738"><ele>285.99999999999994</ele><time>2026-04-11T14:47:10Z</time></trkpt><trkpt lat="44.59430157959746" lon="7.878799844007135"><ele>286.0</ele><time>2026-04-11T14:47:13Z</time></trkpt><trkpt lat="44.59436904150558" lon="7.878768764357349"><ele>286.0</ele><time>2026-04-11T14:47:16Z</time></trkpt><trkpt lat="44.59439442421603" lon="7.878672326277415"><ele>286.0</ele><time>2026-04-11T14:47:19Z</time></trkpt><trkpt lat="44.59441110584901" lon="7.878574058065789"><ele>286.0</ele><time>2026-04-11T14:47:22Z</time></trkpt><trkpt lat="44.59442563108484" lon="7.878471726332502"><ele>285.99999999999994</ele><time>2026-04-11T14:47:25Z</time></trkpt><trkpt lat="44.594432565796446" lon="7.878365014905068"><ele>286.0</ele><time>2026-04-11T14:47:28Z</time></trkpt><trkpt lat="44.594437571309896" lon="7.878257815516182"><ele>286.0</ele><time>2026-04-11T14:47:31Z</time></trkpt><trkpt lat="44.59444722564298" lon="7.878153089811696"><ele>286.0</ele><time>2026-04-11T14:47:34Z</time></trkpt><trkpt lat="44.594464972951826" lon="7.878043220806079"><ele>286.0</ele><time>2026-04-11T14:47:37Z</time></trkpt><trkpt lat="44.594478009038106" lon="7.877934847033785"><ele>286.0</ele><time>2026-04-11T14:47:39.999Z</time></trkpt><trkpt lat="44.59449392229411" lon="7.877825268230858"><ele>286.0</ele><time>2026-04-11T14:47:42.999Z</time></trkpt><trkpt lat="44.59451022366649" lon="7.877714502512856"><ele>286.0</ele><time>2026-04-11T14:47:45.999Z</time></trkpt><trkpt lat="44.594521599024674" lon="7.877600192790279"><ele>289.8333333333333</ele><time>2026-04-11T14:47:48.999Z</time></trkpt><trkpt lat="44.59453670432734" lon="7.87748712652012"><ele>293.66666666666663</ele><time>2026-04-11T14:47:51.999Z</time></trkpt><trkpt lat="44.59455356016265" lon="7.877374549452883"><ele>297.5</ele><time>2026-04-11T14:47:55Z</time></trkpt><trkpt lat="44.5945700765438" lon="7.877265827017608"><ele>301.3333333333333</ele><time>2026-04-11T14:47:58Z</time></trkpt><trkpt lat="44.59458565856733" lon="7.877152831929433"><ele>305.1666666666667</ele><time>2026-04-11T14:48:01Z</time></trkpt><trkpt lat="44.59460606258665" lon="7.877038447887141"><ele>309.0</ele><time>2026-04-11T14:48:04Z</time></trkpt><trkpt lat="44.594619863192676" lon="7.87692597912413"><ele>309.0</ele><time>2026-04-11T14:48:07Z</time></trkpt><trkpt lat="44.594632568521654" lon="7.876810519782218"><ele>309.0</ele><time>2026-04-11T14:48:10Z</time></trkpt><trkpt lat="44.59463812976246" lon="7.8766979366610625"><ele>309.0</ele><time>2026-04-11T14:48:13Z</time></trkpt><trkpt lat="44.59463423390056" lon="7.876588424054565"><ele>309.0</ele><time>2026-04-11T14:48:16Z</time></trkpt><trkpt lat="44.594619264992545" lon="7.876478411051032"><ele>309.0</ele><time>2026-04-11T14:48:19Z</time></trkpt><trkpt lat="44.59459576597141" lon="7.8763790093638"><ele>309.0</ele><time>2026-04-11T14:48:22Z</time></trkpt><trkpt lat="44.59455602268557" lon="7.8762493441872765"><ele>309.5</ele><time>2026-04-11T14:48:25Z</time></trkpt><trkpt lat="44.59451953819866" lon="7.87613696684658"><ele>310.0</ele><time>2026-04-11T14:48:28Z</time></trkpt><trkpt lat="44.594484554027304" lon="7.876033442996557"><ele>310.5</ele><time>2026-04-11T14:48:31Z</time></trkpt><trkpt lat="44.59445156876505" lon="7.87592260734117"><ele>311.0</ele><time>2026-04-11T14:48:34Z</time></trkpt><trkpt lat="44.59442811031089" lon="7.875812505046634"><ele>311.5</ele><time>2026-04-11T14:48:37Z</time></trkpt><trkpt lat="44.59439886095494" lon="7.875694238880733"><ele>312.0</ele><time>2026-04-11T14:48:40Z</time></trkpt><trkpt lat="44.59437996056583" lon="7.8755814696827136"><ele>311.5</ele><time>2026-04-11T14:48:43Z</time></trkpt><trkpt lat="44.59437160631172" lon="7.875468300544385"><ele>311.0</ele><time>2026-04-11T14:48:46Z</time></trkpt><trkpt lat="44.594360708381316" lon="7.875352743495659"><ele>310.5</ele><time>2026-04-11T14:48:49Z</time></trkpt><trkpt lat="44.594346877189224" lon="7.8752433685970855"><ele>310.0</ele><time>2026-04-11T14:48:52Z</time></trkpt><trkpt lat="44.594336155350945" lon="7.8751249416217455"><ele>309.5</ele><time>2026-04-11T14:48:55Z</time></trkpt><trkpt lat="44.5943234809903" lon="7.875028111995066"><ele>309.0</ele><time>2026-04-11T14:48:58Z</time></trkpt><trkpt lat="44.59431346043907" lon="7.874928040992329"><ele>309.0</ele><time>2026-04-11T14:49:01Z</time></trkpt><trkpt lat="44.594306097001024" lon="7.874816223774732"><ele>309.0</ele><time>2026-04-11T14:49:04Z</time></trkpt><trkpt lat="44.59429839368223" lon="7.874705068882334"><ele>309.0</ele><time>2026-04-11T14:49:07Z</time></trkpt><trkpt lat="44.594287669048995" lon="7.874591511053207"><ele>309.0</ele><time>2026-04-11T14:49:10Z</time></trkpt><trkpt lat="44.59427381091455" lon="7.874477220247061"><ele>309.0</ele><time>2026-04-11T14:49:13Z</time></trkpt><trkpt lat="44.594259785452145" lon="7.874360961438579"><ele>309.0</ele><time>2026-04-11T14:49:16Z</time></trkpt><trkpt lat="44.594252611892315" lon="7.874245746955283"><ele>310.1666666666667</ele><time>2026-04-11T14:49:19Z</time></trkpt><trkpt lat="44.59424337084706" lon="7.874133816181098"><ele>311.3333333333333</ele><time>2026-04-11T14:49:22Z</time></trkpt><trkpt lat="44.594233729230005" lon="7.8740166841738155"><ele>312.5</ele><time>2026-04-11T14:49:25Z</time></trkpt><trkpt lat="44.59422995090778" lon="7.873901548187189"><ele>313.66666666666663</ele><time>2026-04-11T14:49:28Z</time></trkpt><trkpt lat="44.59424803427774" lon="7.873786511976622"><ele>314.8333333333333</ele><time>2026-04-11T14:49:30.999Z</time></trkpt><trkpt lat="44.59426684002955" lon="7.873684901635552"><ele>316.0</ele><time>2026-04-11T14:49:33.999Z</time></trkpt><trkpt lat="44.59431131053827" lon="7.873584529196874"><ele>316.0</ele><time>2026-04-11T14:49:36.999Z</time></trkpt><trkpt lat="44.59433769533328" lon="7.873498770777224"><ele>316.0</ele><time>2026-04-11T14:49:38.999Z</time></trkpt><trkpt lat="44.59435336798261" lon="7.873343914740658"><ele>316.0</ele><time>2026-04-11T14:49:40.999Z</time></trkpt><trkpt lat="44.59436404683654" lon="7.873250585970559"><ele>316.0</ele><time>2026-04-11T14:49:41.999Z</time></trkpt><trkpt lat="44.59435989757435" lon="7.873093231372663"><ele>316.0</ele><time>2026-04-11T14:49:43.999Z</time></trkpt><trkpt lat="44.594345750685676" lon="7.8729401699916925"><ele>316.6</ele><time>2026-04-11T14:49:45.999Z</time></trkpt><trkpt lat="44.59434260715863" lon="7.872793108627415"><ele>317.20000000000005</ele><time>2026-04-11T14:49:47.999Z</time></trkpt><trkpt lat="44.594412901025294" lon="7.872809423856455"><ele>317.79999999999995</ele><time>2026-04-11T14:49:49.999Z</time></trkpt><trkpt lat="44.59451572714108" lon="7.872821053042588"><ele>318.4</ele><time>2026-04-11T14:49:51.999Z</time></trkpt><trkpt lat="44.59459833094502" lon="7.872879714588306"><ele>319.0</ele><time>2026-04-11T14:49:53.999Z</time></trkpt><trkpt lat="44.594675767440016" lon="7.872902887638306"><ele>319.0</ele><time>2026-04-11T14:49:55.999Z</time></trkpt><trkpt lat="44.59467056091988" lon="7.872795279181777"><ele>319.0</ele><time>2026-04-11T14:49:57.999Z</time></trkpt><trkpt lat="44.594579051646335" lon="7.872793778401462"><ele>319.0</ele><time>2026-04-11T14:50:00Z</time></trkpt><trkpt lat="44.594493633318464" lon="7.8727666506035865"><ele>319.0</ele><time>2026-04-11T14:50:02Z</time></trkpt><trkpt lat="44.59440187462778" lon="7.872732749570964"><ele>319.0</ele><time>2026-04-11T14:50:04Z</time></trkpt><trkpt lat="44.594331324229444" lon="7.872714918243153"><ele>319.0</ele><time>2026-04-11T14:50:06Z</time></trkpt><trkpt lat="44.59432895118639" lon="7.872544140304941"><ele>320.4</ele><time>2026-04-11T14:50:10Z</time></trkpt><trkpt lat="44.59432285143645" lon="7.87240143075162"><ele>321.79999999999995</ele><time>2026-04-11T14:50:12Z</time></trkpt><trkpt lat="44.5943098274791" lon="7.872267827441848"><ele>323.20000000000005</ele><time>2026-04-11T14:50:14Z</time></trkpt><trkpt lat="44.59430666853886" lon="7.872137094992061"><ele>324.6</ele><time>2026-04-11T14:50:16Z</time></trkpt><trkpt lat="44.594300252037854" lon="7.872007979520492"><ele>326.0</ele><time>2026-04-11T14:50:18Z</time></trkpt><trkpt lat="44.594277898654035" lon="7.871881706676112"><ele>326.6</ele><time>2026-04-11T14:50:20Z</time></trkpt><trkpt lat="44.59426459735894" lon="7.871755393326099"><ele>327.20000000000005</ele><time>2026-04-11T14:50:22Z</time></trkpt><trkpt lat="44.5942511488202" lon="7.871622127867635"><ele>327.79999999999995</ele><time>2026-04-11T14:50:24Z</time></trkpt><trkpt lat="44.594243218821816" lon="7.8714940283710515"><ele>328.4</ele><time>2026-04-11T14:50:26Z</time></trkpt><trkpt lat="44.59423952244301" lon="7.871362321447842"><ele>329.0</ele><time>2026-04-11T14:50:28Z</time></trkpt><trkpt lat="44.59423804454294" lon="7.871233926374289"><ele>329.0</ele><time>2026-04-11T14:50:30Z</time></trkpt><trkpt lat="44.59427802252797" lon="7.871118098332862"><ele>329.0</ele><time>2026-04-11T14:50:32Z</time></trkpt><trkpt lat="44.59438504297185" lon="7.87109772408189"><ele>329.0</ele><time>2026-04-11T14:50:34Z</time></trkpt><trkpt lat="44.59449088396487" lon="7.871097917660237"><ele>329.0</ele><time>2026-04-11T14:50:36Z</time></trkpt><trkpt lat="44.59459003977581" lon="7.87109585364801"><ele>329.0</ele><time>2026-04-11T14:50:38Z</time></trkpt><trkpt lat="44.59469554331605" lon="7.871086559445419"><ele>328.2</ele><time>2026-04-11T14:50:40Z</time></trkpt><trkpt lat="44.59480033835519" lon="7.8710747300725945"><ele>327.4</ele><time>2026-04-11T14:50:42Z</time></trkpt><trkpt lat="44.594908587755235" lon="7.87109338123211"><ele>326.6</ele><time>2026-04-11T14:50:44Z</time></trkpt><trkpt lat="44.595010375166716" lon="7.8710968016090606"><ele>325.8</ele><time>2026-04-11T14:50:46Z</time></trkpt><trkpt lat="44.59511659941701" lon="7.871091514745418"><ele>325.0</ele><time>2026-04-11T14:50:48Z</time></trkpt><trkpt lat="44.59521568850287" lon="7.871042807759328"><ele>325.0</ele><time>2026-04-11T14:50:50Z</time></trkpt><trkpt lat="44.595303089346906" lon="7.870970445452175"><ele>325.0</ele><time>2026-04-11T14:50:52Z</time></trkpt><trkpt lat="44.59538888847553" lon="7.870922552967349"><ele>325.0</ele><time>2026-04-11T14:50:54Z</time></trkpt><trkpt lat="44.59547696648621" lon="7.8708779103183035"><ele>325.0</ele><time>2026-04-11T14:50:56Z</time></trkpt><trkpt lat="44.5955530000796" lon="7.870818595368834"><ele>325.0</ele><time>2026-04-11T14:50:58Z</time></trkpt><trkpt lat="44.59569481763213" lon="7.870798381722939"><ele>325.6</ele><time>2026-04-11T14:51:02Z</time></trkpt><trkpt lat="44.59578321673257" lon="7.870786598235761"><ele>326.2</ele><time>2026-04-11T14:51:03Z</time></trkpt><trkpt lat="44.5958688653212" lon="7.8707489125578585"><ele>326.79999999999995</ele><time>2026-04-11T14:51:05Z</time></trkpt><trkpt lat="44.59596032468161" lon="7.870726105785153"><ele>327.4</ele><time>2026-04-11T14:51:07Z</time></trkpt><trkpt lat="44.59605507287714" lon="7.870701138458621"><ele>328.0</ele><time>2026-04-11T14:51:09Z</time></trkpt><trkpt lat="44.596145568350984" lon="7.870669154686422"><ele>327.79999999999995</ele><time>2026-04-11T14:51:11Z</time></trkpt><trkpt lat="44.596244315195996" lon="7.870644663141859"><ele>327.6</ele><time>2026-04-11T14:51:13Z</time></trkpt><trkpt lat="44.59635057912019" lon="7.870643458862008"><ele>327.4</ele><time>2026-04-11T14:51:15Z</time></trkpt><trkpt lat="44.59645300131117" lon="7.870643679948787"><ele>327.20000000000005</ele><time>2026-04-11T14:51:17Z</time></trkpt><trkpt lat="44.596559697778325" lon="7.870640916643832"><ele>327.0</ele><time>2026-04-11T14:51:19Z</time></trkpt><trkpt lat="44.596656172704876" lon="7.870608708943899"><ele>327.0</ele><time>2026-04-11T14:51:21Z</time></trkpt><trkpt lat="44.59677122756048" lon="7.870593513579109"><ele>327.0</ele><time>2026-04-11T14:51:23Z</time></trkpt><trkpt lat="44.59686506969514" lon="7.870570859055675"><ele>327.0</ele><time>2026-04-11T14:51:24.999Z</time></trkpt><trkpt lat="44.59696924625945" lon="7.870551136964583"><ele>327.0</ele><time>2026-04-11T14:51:26.999Z</time></trkpt><trkpt lat="44.597071720998876" lon="7.870530782670765"><ele>327.0</ele><time>2026-04-11T14:51:28.999Z</time></trkpt><trkpt lat="44.59717798953462" lon="7.870513674470219"><ele>327.0</ele><time>2026-04-11T14:51:30.999Z</time></trkpt><trkpt lat="44.59730531311754" lon="7.870516892818404"><ele>327.0</ele><time>2026-04-11T14:51:34.999Z</time></trkpt><trkpt lat="44.5974238172508" lon="7.87051183812748"><ele>327.0</ele><time>2026-04-11T14:51:36.999Z</time></trkpt><trkpt lat="44.59754445550047" lon="7.870491964662203"><ele>327.0</ele><time>2026-04-11T14:51:38.999Z</time></trkpt><trkpt lat="44.59767493060504" lon="7.870459609602537"><ele>327.0</ele><time>2026-04-11T14:51:40.999Z</time></trkpt><trkpt lat="44.59773946431016" lon="7.870441532529325"><ele>327.0</ele><time>2026-04-11T14:51:41.999Z</time></trkpt><trkpt lat="44.597804449680424" lon="7.870431602036825"><ele>327.0</ele><time>2026-04-11T14:51:42.999Z</time></trkpt><trkpt lat="44.5979280587856" lon="7.870415180600789"><ele>327.0</ele><time>2026-04-11T14:51:44.999Z</time></trkpt><trkpt lat="44.598054837298534" lon="7.8704090716088215"><ele>327.0</ele><time>2026-04-11T14:51:46.999Z</time></trkpt><trkpt lat="44.59812628231451" lon="7.870398628434923"><ele>327.0</ele><time>2026-04-11T14:51:47.999Z</time></trkpt><trkpt lat="44.598191515136605" lon="7.870385219543592"><ele>327.0</ele><time>2026-04-11T14:51:48.999Z</time></trkpt><trkpt lat="44.59825697843239" lon="7.870372712802941"><ele>327.0</ele><time>2026-04-11T14:51:49.999Z</time></trkpt><trkpt lat="44.59831972181403" lon="7.870356139993389"><ele>327.0</ele><time>2026-04-11T14:51:50.999Z</time></trkpt><trkpt lat="44.598383584628465" lon="7.870341318376819"><ele>327.0</ele><time>2026-04-11T14:51:51.999Z</time></trkpt><trkpt lat="44.59850106869621" lon="7.870329113006013"><ele>327.0</ele><time>2026-04-11T14:51:53.999Z</time></trkpt><trkpt lat="44.598564142572116" lon="7.870331938291416"><ele>327.0</ele><time>2026-04-11T14:51:54.999Z</time></trkpt><trkpt lat="44.598628582802604" lon="7.870326778694411"><ele>326.85714285714283</ele><time>2026-04-11T14:51:55.999Z</time></trkpt><trkpt lat="44.59869517155011" lon="7.870318157053062"><ele>326.7142857142857</ele><time>2026-04-11T14:51:56.999Z</time></trkpt><trkpt lat="44.598760719779364" lon="7.87029693817422"><ele>326.57142857142856</ele><time>2026-04-11T14:51:57.999Z</time></trkpt><trkpt lat="44.59882696242625" lon="7.870283988850628"><ele>326.42857142857144</ele><time>2026-04-11T14:51:58.999Z</time></trkpt><trkpt lat="44.59889531095794" lon="7.870273933736728"><ele>326.2857142857143</ele><time>2026-04-11T14:51:59.999Z</time></trkpt><trkpt lat="44.59896403709164" lon="7.870264032424991"><ele>326.14285714285717</ele><time>2026-04-11T14:52:00.999Z</time></trkpt><trkpt lat="44.59902926505864" lon="7.870246979532037"><ele>326.0</ele><time>2026-04-11T14:52:01.999Z</time></trkpt><trkpt lat="44.59909722189245" lon="7.870236938114506"><ele>326.0</ele><time>2026-04-11T14:52:02.999Z</time></trkpt><trkpt lat="44.59916473076567" lon="7.870230729326356"><ele>326.0</ele><time>2026-04-11T14:52:03.999Z</time></trkpt><trkpt lat="44.5992356218103" lon="7.8702246741478215"><ele>326.0</ele><time>2026-04-11T14:52:05Z</time></trkpt><trkpt lat="44.599301870395216" lon="7.870204561822029"><ele>326.0</ele><time>2026-04-11T14:52:06Z</time></trkpt><trkpt lat="44.599371590306305" lon="7.870191978233508"><ele>326.0</ele><time>2026-04-11T14:52:07Z</time></trkpt><trkpt lat="44.59944442690592" lon="7.8701869997081575"><ele>326.0</ele><time>2026-04-11T14:52:08Z</time></trkpt><trkpt lat="44.59951484944373" lon="7.870177661365372"><ele>326.0</ele><time>2026-04-11T14:52:09Z</time></trkpt><trkpt lat="44.599585325160035" lon="7.870168427890264"><ele>326.0</ele><time>2026-04-11T14:52:10Z</time></trkpt><trkpt lat="44.599659402638" lon="7.870160425340453"><ele>326.0</ele><time>2026-04-11T14:52:11Z</time></trkpt><trkpt lat="44.59972821494976" lon="7.870139209795092"><ele>326.0</ele><time>2026-04-11T14:52:12Z</time></trkpt><trkpt lat="44.59979947341603" lon="7.870128712935575"><ele>326.0</ele><time>2026-04-11T14:52:13Z</time></trkpt><trkpt lat="44.5998745574826" lon="7.870124387990036"><ele>326.0</ele><time>2026-04-11T14:52:14Z</time></trkpt><trkpt lat="44.599943289574384" lon="7.870112770612565"><ele>326.0</ele><time>2026-04-11T14:52:15Z</time></trkpt><trkpt lat="44.60001425164515" lon="7.870100001238834"><ele>326.0</ele><time>2026-04-11T14:52:16Z</time></trkpt><trkpt lat="44.600083085844965" lon="7.87008769232863"><ele>326.14285714285717</ele><time>2026-04-11T14:52:17Z</time></trkpt><trkpt lat="44.600152351635096" lon="7.8700724348867075"><ele>326.2857142857143</ele><time>2026-04-11T14:52:18Z</time></trkpt><trkpt lat="44.60022406872868" lon="7.870061635046538"><ele>326.42857142857144</ele><time>2026-04-11T14:52:19Z</time></trkpt><trkpt lat="44.600294306088564" lon="7.8700485856653"><ele>326.57142857142856</ele><time>2026-04-11T14:52:20Z</time></trkpt><trkpt lat="44.60036214326077" lon="7.87003409516602"><ele>326.7142857142857</ele><time>2026-04-11T14:52:21Z</time></trkpt><trkpt lat="44.60043380283906" lon="7.870024354079085"><ele>326.85714285714283</ele><time>2026-04-11T14:52:22Z</time></trkpt><trkpt lat="44.60049947551241" lon="7.870009427991164"><ele>327.0</ele><time>2026-04-11T14:52:23Z</time></trkpt><trkpt lat="44.60057013632985" lon="7.870000589756569"><ele>327.0</ele><time>2026-04-11T14:52:24Z</time></trkpt><trkpt lat="44.600638827195134" lon="7.869986457477172"><ele>327.0</ele><time>2026-04-11T14:52:25Z</time></trkpt><trkpt lat="44.60075968055807" lon="7.8699594250754945"><ele>327.0</ele><time>2026-04-11T14:52:27Z</time></trkpt><trkpt lat="44.60087771229852" lon="7.8699443547814765"><ele>327.0</ele><time>2026-04-11T14:52:29Z</time></trkpt><trkpt lat="44.60094204499979" lon="7.869936419886017"><ele>327.0</ele><time>2026-04-11T14:52:30Z</time></trkpt><trkpt lat="44.60100496559757" lon="7.869926931502068"><ele>327.0</ele><time>2026-04-11T14:52:31Z</time></trkpt><trkpt lat="44.60112568671389" lon="7.86991963607776"><ele>327.0</ele><time>2026-04-11T14:52:33Z</time></trkpt><trkpt lat="44.60121620198682" lon="7.869930069734293"><ele>327.0</ele><time>2026-04-11T14:52:35Z</time></trkpt><trkpt lat="44.60130532862202" lon="7.869883011096033"><ele>327.0</ele><time>2026-04-11T14:52:37Z</time></trkpt><trkpt lat="44.601397829573536" lon="7.869868693167801"><ele>327.0</ele><time>2026-04-11T14:52:39Z</time></trkpt><trkpt lat="44.60149786430803" lon="7.869853717668036"><ele>327.0</ele><time>2026-04-11T14:52:41Z</time></trkpt><trkpt lat="44.60160353458254" lon="7.869832002374531"><ele>327.0</ele><time>2026-04-11T14:52:43Z</time></trkpt><trkpt lat="44.60171464126042" lon="7.86979958535332"><ele>327.0</ele><time>2026-04-11T14:52:45Z</time></trkpt><trkpt lat="44.60181195374475" lon="7.869874309649079"><ele>327.0</ele><time>2026-04-11T14:52:47Z</time></trkpt><trkpt lat="44.60184088371202" lon="7.86995787615208"><ele>327.0</ele><time>2026-04-11T14:52:48Z</time></trkpt><trkpt lat="44.60185037736161" lon="7.87004810210019"><ele>327.0</ele><time>2026-04-11T14:52:49Z</time></trkpt><trkpt lat="44.60188048137369" lon="7.8702070672467475"><ele>326.20000000000005</ele><time>2026-04-11T14:52:51Z</time></trkpt><trkpt lat="44.601900992696166" lon="7.870377189660228"><ele>325.4</ele><time>2026-04-11T14:52:53Z</time></trkpt><trkpt lat="44.60187476241909" lon="7.8704715449766365"><ele>324.6</ele><time>2026-04-11T14:52:54Z</time></trkpt><trkpt lat="44.60189862925618" lon="7.870630773153375"><ele>323.79999999999995</ele><time>2026-04-11T14:52:56Z</time></trkpt><trkpt lat="44.60192227255563" lon="7.870792430945082"><ele>323.0</ele><time>2026-04-11T14:52:58Z</time></trkpt><trkpt lat="44.60193574054274" lon="7.870885062680962"><ele>322.4</ele><time>2026-04-11T14:53:01Z</time></trkpt><trkpt lat="44.60205055027765" lon="7.870849144525914"><ele>321.79999999999995</ele><time>2026-04-11T14:53:02Z</time></trkpt><trkpt lat="44.60216790784808" lon="7.870818218961256"><ele>321.2</ele><time>2026-04-11T14:53:04Z</time></trkpt><trkpt lat="44.60227389592574" lon="7.870802502289447"><ele>320.6</ele><time>2026-04-11T14:53:06Z</time></trkpt><trkpt lat="44.60233680131011" lon="7.870791121644951"><ele>320.0</ele><time>2026-04-11T14:53:07Z</time></trkpt><trkpt lat="44.60245846848685" lon="7.870770602457511"><ele>320.0</ele><time>2026-04-11T14:53:09Z</time></trkpt><trkpt lat="44.60252794232159" lon="7.870779307542375"><ele>320.0</ele><time>2026-04-11T14:53:10Z</time></trkpt><trkpt lat="44.602595324087005" lon="7.870764154709828"><ele>320.0</ele><time>2026-04-11T14:53:11Z</time></trkpt><trkpt lat="44.60266294419847" lon="7.870759281762736"><ele>320.0</ele><time>2026-04-11T14:53:12Z</time></trkpt><trkpt lat="44.60272929326377" lon="7.870753114924872"><ele>320.0</ele><time>2026-04-11T14:53:13Z</time></trkpt><trkpt lat="44.602796297002946" lon="7.870746110203944"><ele>320.0</ele><time>2026-04-11T14:53:14Z</time></trkpt><trkpt lat="44.602863638400926" lon="7.870748400629959"><ele>320.0</ele><time>2026-04-11T14:53:14.999Z</time></trkpt><trkpt lat="44.60294028490295" lon="7.87073323171918"><ele>320.33333333333337</ele><time>2026-04-11T14:53:15.999Z</time></trkpt><trkpt lat="44.60300535811363" lon="7.870709320050549"><ele>320.6666666666667</ele><time>2026-04-11T14:53:16.999Z</time></trkpt><trkpt lat="44.603067653462325" lon="7.870688847083479"><ele>321.0</ele><time>2026-04-11T14:53:17.999Z</time></trkpt><trkpt lat="44.60313052019562" lon="7.870672179620148"><ele>321.3333333333333</ele><time>2026-04-11T14:53:18.999Z</time></trkpt><trkpt lat="44.60323865200361" lon="7.870611609823604"><ele>321.66666666666663</ele><time>2026-04-11T14:53:20.999Z</time></trkpt><trkpt lat="44.60334116537525" lon="7.870581878711176"><ele>322.0</ele><time>2026-04-11T14:53:22.999Z</time></trkpt><trkpt lat="44.60344391513432" lon="7.8705713804455515"><ele>322.0</ele><time>2026-04-11T14:53:24.999Z</time></trkpt><trkpt lat="44.60353798597666" lon="7.870569313418286"><ele>322.0</ele><time>2026-04-11T14:53:26.999Z</time></trkpt><trkpt lat="44.603639299655505" lon="7.870580377556861"><ele>322.0</ele><time>2026-04-11T14:53:28.999Z</time></trkpt><trkpt lat="44.60371229804443" lon="7.870593668824138"><ele>322.0</ele><time>2026-04-11T14:53:30.999Z</time></trkpt><trkpt lat="44.603830760796335" lon="7.870608614694657"><ele>322.0</ele><time>2026-04-11T14:53:32.999Z</time></trkpt><trkpt lat="44.60389426434941" lon="7.870602880522881"><ele>322.0</ele><time>2026-04-11T14:53:33.999Z</time></trkpt><trkpt lat="44.603990936166426" lon="7.870614934426161"><ele>322.0</ele><time>2026-04-11T14:53:35.999Z</time></trkpt><trkpt lat="44.604097059328105" lon="7.870622581796514"><ele>322.0</ele><time>2026-04-11T14:53:37.999Z</time></trkpt><trkpt lat="44.60420353578059" lon="7.870629361906349"><ele>322.0</ele><time>2026-04-11T14:53:39.999Z</time></trkpt><trkpt lat="44.604314125791966" lon="7.870632807097687"><ele>322.0</ele><time>2026-04-11T14:53:41.999Z</time></trkpt><trkpt lat="44.604423694302916" lon="7.870623352468973"><ele>321.5</ele><time>2026-04-11T14:53:43.999Z</time></trkpt><trkpt lat="44.60453725987608" lon="7.870615787171273"><ele>321.0</ele><time>2026-04-11T14:53:45.999Z</time></trkpt><trkpt lat="44.604653188364466" lon="7.870607992317858"><ele>320.5</ele><time>2026-04-11T14:53:47.999Z</time></trkpt><trkpt lat="44.60478009589148" lon="7.870610537969378"><ele>320.0</ele><time>2026-04-11T14:53:49.999Z</time></trkpt><trkpt lat="44.60490825564726" lon="7.870603814817529"><ele>320.0</ele><time>2026-04-11T14:53:51.999Z</time></trkpt><trkpt lat="44.604979028874034" lon="7.870617822353532"><ele>320.0</ele><time>2026-04-11T14:53:52.999Z</time></trkpt><trkpt lat="44.605057763077916" lon="7.870653796676179"><ele>320.0</ele><time>2026-04-11T14:53:53.999Z</time></trkpt><trkpt lat="44.60514598007863" lon="7.870691447712195"><ele>320.0</ele><time>2026-04-11T14:53:54.999Z</time></trkpt><trkpt lat="44.605235384719855" lon="7.870756650251249"><ele>320.0</ele><time>2026-04-11T14:53:55.999Z</time></trkpt><trkpt lat="44.605303364164946" lon="7.870874725639444"><ele>316.25</ele><time>2026-04-11T14:53:56.999Z</time></trkpt><trkpt lat="44.60538401873371" lon="7.870990195007919"><ele>312.5</ele><time>2026-04-11T14:53:57.999Z</time></trkpt><trkpt lat="44.605449895595655" lon="7.871129825998919"><ele>308.75</ele><time>2026-04-11T14:53:58.999Z</time></trkpt><trkpt lat="44.60552497738659" lon="7.871267123119748"><ele>305.0</ele><time>2026-04-11T14:53:59.999Z</time></trkpt><trkpt lat="44.60561752439578" lon="7.8713982350193135"><ele>305.0</ele><time>2026-04-11T14:54:00.999Z</time></trkpt><trkpt lat="44.605726659120975" lon="7.871517785742228"><ele>305.0</ele><time>2026-04-11T14:54:01.999Z</time></trkpt><trkpt lat="44.60584820870472" lon="7.871630853554522"><ele>305.0</ele><time>2026-04-11T14:54:02.999Z</time></trkpt><trkpt lat="44.605966624151975" lon="7.871755854803557"><ele>305.0</ele><time>2026-04-11T14:54:03.999Z</time></trkpt><trkpt lat="44.6060798009099" lon="7.871897222088797"><ele>302.0</ele><time>2026-04-11T14:54:04.999Z</time></trkpt><trkpt lat="44.606192028003036" lon="7.872038471105492"><ele>299.0</ele><time>2026-04-11T14:54:05.999Z</time></trkpt><trkpt lat="44.60630662248501" lon="7.872163465321498"><ele>296.0</ele><time>2026-04-11T14:54:06.999Z</time></trkpt><trkpt lat="44.606432666028354" lon="7.872241184176669"><ele>293.0</ele><time>2026-04-11T14:54:07.999Z</time></trkpt><trkpt lat="44.60656589786511" lon="7.872249927464504"><ele>293.0</ele><time>2026-04-11T14:54:08.999Z</time></trkpt><trkpt lat="44.606684462884246" lon="7.87219581458864"><ele>293.0</ele><time>2026-04-11T14:54:09.999Z</time></trkpt><trkpt lat="44.6067804730644" lon="7.8721106804459975"><ele>293.0</ele><time>2026-04-11T14:54:11Z</time></trkpt><trkpt lat="44.60687162116607" lon="7.872042463506693"><ele>293.0</ele><time>2026-04-11T14:54:12Z</time></trkpt><trkpt lat="44.60696804209392" lon="7.872007800276103"><ele>293.0</ele><time>2026-04-11T14:54:13Z</time></trkpt><trkpt lat="44.60706974346899" lon="7.87200406438441"><ele>291.8</ele><time>2026-04-11T14:54:14Z</time></trkpt><trkpt lat="44.60716895476586" lon="7.872030347121578"><ele>290.6</ele><time>2026-04-11T14:54:15Z</time></trkpt><trkpt lat="44.60725840804255" lon="7.872060920809483"><ele>289.4</ele><time>2026-04-11T14:54:16Z</time></trkpt><trkpt lat="44.6073456700445" lon="7.872098252462225"><ele>288.2</ele><time>2026-04-11T14:54:17Z</time></trkpt><trkpt lat="44.60743287445846" lon="7.872129379269926"><ele>287.0</ele><time>2026-04-11T14:54:18Z</time></trkpt><trkpt lat="44.60751689667183" lon="7.872156814604488"><ele>287.0</ele><time>2026-04-11T14:54:19Z</time></trkpt><trkpt lat="44.607598975583066" lon="7.872184742931275"><ele>287.0</ele><time>2026-04-11T14:54:20Z</time></trkpt><trkpt lat="44.607680179514055" lon="7.872213286223411"><ele>287.0</ele><time>2026-04-11T14:54:21Z</time></trkpt><trkpt lat="44.60776014479665" lon="7.872237815724544"><ele>287.0</ele><time>2026-04-11T14:54:22Z</time></trkpt><trkpt lat="44.607838566227485" lon="7.872260829685989"><ele>287.0</ele><time>2026-04-11T14:54:23Z</time></trkpt><trkpt lat="44.60791590404932" lon="7.872281462556019"><ele>287.0</ele><time>2026-04-11T14:54:24Z</time></trkpt><trkpt lat="44.607991723533246" lon="7.872303235406542"><ele>288.0</ele><time>2026-04-11T14:54:25Z</time></trkpt><trkpt lat="44.60807108629389" lon="7.872329690388905"><ele>289.0</ele><time>2026-04-11T14:54:26Z</time></trkpt><trkpt lat="44.60815005541278" lon="7.872350864216122"><ele>290.0</ele><time>2026-04-11T14:54:27Z</time></trkpt><trkpt lat="44.60822038152972" lon="7.872367105074936"><ele>291.0</ele><time>2026-04-11T14:54:28Z</time></trkpt><trkpt lat="44.60829407709378" lon="7.87238575192796"><ele>292.0</ele><time>2026-04-11T14:54:29Z</time></trkpt><trkpt lat="44.60836084623954" lon="7.872415669012149"><ele>293.0</ele><time>2026-04-11T14:54:30Z</time></trkpt><trkpt lat="44.6084353672419" lon="7.872434369296244"><ele>292.99999999999994</ele><time>2026-04-11T14:54:31Z</time></trkpt><trkpt lat="44.60851222893752" lon="7.872445397921511"><ele>293.0</ele><time>2026-04-11T14:54:32Z</time></trkpt><trkpt lat="44.60858612628907" lon="7.872485614779403"><ele>293.0</ele><time>2026-04-11T14:54:33Z</time></trkpt><trkpt lat="44.60866041831116" lon="7.872481233197054"><ele>293.0</ele><time>2026-04-11T14:54:34Z</time></trkpt><trkpt lat="44.60872705052181" lon="7.872497181543223"><ele>293.0</ele><time>2026-04-11T14:54:35Z</time></trkpt><trkpt lat="44.60879593171201" lon="7.872475450723299"><ele>292.99999999999994</ele><time>2026-04-11T14:54:36Z</time></trkpt><trkpt lat="44.608855076374454" lon="7.872419953148572"><ele>293.0</ele><time>2026-04-11T14:54:37Z</time></trkpt><trkpt lat="44.60890558867785" lon="7.872350691343337"><ele>294.0</ele><time>2026-04-11T14:54:38Z</time></trkpt><trkpt lat="44.608943415313895" lon="7.872274635161171"><ele>295.0</ele><time>2026-04-11T14:54:39Z</time></trkpt><trkpt lat="44.60900998561108" lon="7.872121563575298"><ele>296.0</ele><time>2026-04-11T14:54:41Z</time></trkpt><trkpt lat="44.609041083760715" lon="7.8720427548097165"><ele>297.0</ele><time>2026-04-11T14:54:42Z</time></trkpt><trkpt lat="44.60907265288587" lon="7.871962607279888"><ele>298.0</ele><time>2026-04-11T14:54:43Z</time></trkpt><trkpt lat="44.60910705666495" lon="7.871885962867098"><ele>299.0</ele><time>2026-04-11T14:54:44Z</time></trkpt><trkpt lat="44.609142434850874" lon="7.871808450379224"><ele>299.1428571428571</ele><time>2026-04-11T14:54:45Z</time></trkpt><trkpt lat="44.609174634956254" lon="7.871729278750377"><ele>299.2857142857143</ele><time>2026-04-11T14:54:46Z</time></trkpt><trkpt lat="44.60920695416623" lon="7.871649318059167"><ele>299.42857142857144</ele><time>2026-04-11T14:54:47Z</time></trkpt><trkpt lat="44.609240135607436" lon="7.871573101447129"><ele>299.57142857142856</ele><time>2026-04-11T14:54:48Z</time></trkpt><trkpt lat="44.60927664595347" lon="7.871495145091422"><ele>299.7142857142857</ele><time>2026-04-11T14:54:49Z</time></trkpt><trkpt lat="44.609320541548676" lon="7.871425790069416"><ele>299.85714285714283</ele><time>2026-04-11T14:54:50Z</time></trkpt><trkpt lat="44.60937659120868" lon="7.871370114271852"><ele>300.0</ele><time>2026-04-11T14:54:51Z</time></trkpt><trkpt lat="44.60944239403945" lon="7.871336637444826"><ele>299.71428571428567</ele><time>2026-04-11T14:54:52Z</time></trkpt><trkpt lat="44.60951179395988" lon="7.871336185976892"><ele>299.42857142857144</ele><time>2026-04-11T14:54:53Z</time></trkpt><trkpt lat="44.609578701356796" lon="7.871350523024573"><ele>299.1428571428571</ele><time>2026-04-11T14:54:54Z</time></trkpt><trkpt lat="44.609645585920504" lon="7.871360143473269"><ele>298.85714285714283</ele><time>2026-04-11T14:54:55Z</time></trkpt><trkpt lat="44.60970971768263" lon="7.871364958114097"><ele>298.57142857142856</ele><time>2026-04-11T14:54:56Z</time></trkpt><trkpt lat="44.60977701278661" lon="7.871363242214003"><ele>298.2857142857143</ele><time>2026-04-11T14:54:57Z</time></trkpt><trkpt lat="44.60984059218935" lon="7.8713534095332385"><ele>298.0</ele><time>2026-04-11T14:54:58Z</time></trkpt><trkpt lat="44.609907965121224" lon="7.871342920183703"><ele>298.0</ele><time>2026-04-11T14:54:59Z</time></trkpt><trkpt lat="44.609973437162175" lon="7.871340533109888"><ele>298.0</ele><time>2026-04-11T14:55:00Z</time></trkpt><trkpt lat="44.61003873858274" lon="7.871336441299784"><ele>298.0</ele><time>2026-04-11T14:55:01Z</time></trkpt><trkpt lat="44.61010349060272" lon="7.871327906282464"><ele>298.0</ele><time>2026-04-11T14:55:02Z</time></trkpt><trkpt lat="44.61016715908981" lon="7.871320005123964"><ele>298.0</ele><time>2026-04-11T14:55:03Z</time></trkpt><trkpt lat="44.61023024814842" lon="7.871315872062298"><ele>298.0</ele><time>2026-04-11T14:55:04Z</time></trkpt><trkpt lat="44.610354473731576" lon="7.8712968239810825"><ele>298.0</ele><time>2026-04-11T14:55:06Z</time></trkpt><trkpt lat="44.61047640800392" lon="7.871281110982757"><ele>298.1428571428571</ele><time>2026-04-11T14:55:08Z</time></trkpt><trkpt lat="44.610541868153234" lon="7.87126825484399"><ele>298.2857142857143</ele><time>2026-04-11T14:55:09Z</time></trkpt><trkpt lat="44.61060585349195" lon="7.871252918880275"><ele>298.42857142857144</ele><time>2026-04-11T14:55:10Z</time></trkpt><trkpt lat="44.61067049925367" lon="7.8712383417703125"><ele>298.57142857142856</ele><time>2026-04-11T14:55:11Z</time></trkpt><trkpt lat="44.61073451994063" lon="7.871222746441435"><ele>298.7142857142857</ele><time>2026-04-11T14:55:12Z</time></trkpt><trkpt lat="44.6108001813204" lon="7.871209452724411"><ele>298.85714285714283</ele><time>2026-04-11T14:55:13Z</time></trkpt><trkpt lat="44.61086622549574" lon="7.8711973874151315"><ele>299.0</ele><time>2026-04-11T14:55:14Z</time></trkpt><trkpt lat="44.61093214547934" lon="7.871184047513403"><ele>299.0</ele><time>2026-04-11T14:55:14.999Z</time></trkpt><trkpt lat="44.61099853390168" lon="7.871172533180061"><ele>299.0</ele><time>2026-04-11T14:55:15.999Z</time></trkpt><trkpt lat="44.61106390935775" lon="7.871157860898879"><ele>299.0</ele><time>2026-04-11T14:55:16.999Z</time></trkpt><trkpt lat="44.611130645728714" lon="7.8711450992934795"><ele>299.0</ele><time>2026-04-11T14:55:17.999Z</time></trkpt><trkpt lat="44.61119587696306" lon="7.871132351792906"><ele>299.0</ele><time>2026-04-11T14:55:18.999Z</time></trkpt><trkpt lat="44.611264432471934" lon="7.8711245345651095"><ele>299.0</ele><time>2026-04-11T14:55:19.999Z</time></trkpt><trkpt lat="44.61132829898197" lon="7.871120527004178"><ele>299.0</ele><time>2026-04-11T14:55:20.999Z</time></trkpt><trkpt lat="44.6113965429231" lon="7.871112496594369"><ele>298.8</ele><time>2026-04-11T14:55:21.999Z</time></trkpt><trkpt lat="44.61152520840739" lon="7.871102154421819"><ele>298.59999999999997</ele><time>2026-04-11T14:55:23.999Z</time></trkpt><trkpt lat="44.61165077380389" lon="7.871094574298167"><ele>298.4</ele><time>2026-04-11T14:55:25.999Z</time></trkpt><trkpt lat="44.61177493105332" lon="7.871088949576547"><ele>298.2</ele><time>2026-04-11T14:55:27.999Z</time></trkpt><trkpt lat="44.611840644242626" lon="7.871077798710271"><ele>298.0</ele><time>2026-04-11T14:55:28.999Z</time></trkpt><trkpt lat="44.611965992380696" lon="7.871064740989513"><ele>297.6</ele><time>2026-04-11T14:55:30.999Z</time></trkpt><trkpt lat="44.61208997207201" lon="7.871050848848167"><ele>297.20000000000005</ele><time>2026-04-11T14:55:32.999Z</time></trkpt><trkpt lat="44.61215399797808" lon="7.871040518941006"><ele>296.8</ele><time>2026-04-11T14:55:33.999Z</time></trkpt><trkpt lat="44.612277379623734" lon="7.871012963899184"><ele>296.40000000000003</ele><time>2026-04-11T14:55:35.999Z</time></trkpt><trkpt lat="44.61234138530874" lon="7.871007967746157"><ele>296.0</ele><time>2026-04-11T14:55:36.999Z</time></trkpt><trkpt lat="44.61246465969958" lon="7.870999779449643"><ele>296.0</ele><time>2026-04-11T14:55:38.999Z</time></trkpt><trkpt lat="44.61253157189651" lon="7.870990137758568"><ele>296.0</ele><time>2026-04-11T14:55:39.999Z</time></trkpt><trkpt lat="44.61259556367853" lon="7.870976987214068"><ele>296.0</ele><time>2026-04-11T14:55:40.999Z</time></trkpt><trkpt lat="44.61272088484555" lon="7.870976618202583"><ele>296.0</ele><time>2026-04-11T14:55:42.999Z</time></trkpt><trkpt lat="44.61284577768498" lon="7.8709553162171755"><ele>296.0</ele><time>2026-04-11T14:55:44.999Z</time></trkpt><trkpt lat="44.6129681943068" lon="7.870936666126545"><ele>296.40000000000003</ele><time>2026-04-11T14:55:46.999Z</time></trkpt><trkpt lat="44.613093068484964" lon="7.870917098176432"><ele>296.8</ele><time>2026-04-11T14:55:48.999Z</time></trkpt><trkpt lat="44.61315552255601" lon="7.870905399089353"><ele>297.20000000000005</ele><time>2026-04-11T14:55:49.999Z</time></trkpt><trkpt lat="44.61327939790197" lon="7.870883928608667"><ele>297.6</ele><time>2026-04-11T14:55:51.999Z</time></trkpt><trkpt lat="44.613402158158095" lon="7.87085779716891"><ele>298.0</ele><time>2026-04-11T14:55:53.999Z</time></trkpt><trkpt lat="44.61352202294729" lon="7.870832647577594"><ele>298.0</ele><time>2026-04-11T14:55:55.999Z</time></trkpt><trkpt lat="44.61364333129258" lon="7.8708036256292955"><ele>298.0</ele><time>2026-04-11T14:55:57.999Z</time></trkpt><trkpt lat="44.613764514832496" lon="7.870768399044292"><ele>298.0</ele><time>2026-04-11T14:55:59.999Z</time></trkpt><trkpt lat="44.61388594496489" lon="7.8707334678657155"><ele>298.0</ele><time>2026-04-11T14:56:01.999Z</time></trkpt><trkpt lat="44.61400570280567" lon="7.870699943969888"><ele>298.5</ele><time>2026-04-11T14:56:03.999Z</time></trkpt><trkpt lat="44.61412760304634" lon="7.8706603921385865"><ele>299.0</ele><time>2026-04-11T14:56:05.999Z</time></trkpt><trkpt lat="44.614246406932544" lon="7.870621095427699"><ele>299.5</ele><time>2026-04-11T14:56:07.999Z</time></trkpt><trkpt lat="44.61436244673319" lon="7.8705734878799385"><ele>300.0</ele><time>2026-04-11T14:56:09.999Z</time></trkpt><trkpt lat="44.61447352370216" lon="7.870526177853148"><ele>299.85714285714283</ele><time>2026-04-11T14:56:11.999Z</time></trkpt><trkpt lat="44.61453647018606" lon="7.870517371358907"><ele>299.7142857142857</ele><time>2026-04-11T14:56:12.999Z</time></trkpt><trkpt lat="44.61460372119286" lon="7.870506182514644"><ele>299.57142857142856</ele><time>2026-04-11T14:56:13.999Z</time></trkpt><trkpt lat="44.614670742328194" lon="7.870495461138515"><ele>299.42857142857144</ele><time>2026-04-11T14:56:14.999Z</time></trkpt><trkpt lat="44.6147365740216" lon="7.870480122729949"><ele>299.2857142857143</ele><time>2026-04-11T14:56:15.999Z</time></trkpt><trkpt lat="44.61480370181542" lon="7.870464836361777"><ele>299.1428571428571</ele><time>2026-04-11T14:56:17Z</time></trkpt><trkpt lat="44.61486967292315" lon="7.8704482157614075"><ele>299.0</ele><time>2026-04-11T14:56:18Z</time></trkpt><trkpt lat="44.61493600802475" lon="7.870436338259365"><ele>299.0</ele><time>2026-04-11T14:56:19Z</time></trkpt><trkpt lat="44.615001409862735" lon="7.870421396595282"><ele>299.0</ele><time>2026-04-11T14:56:20Z</time></trkpt><trkpt lat="44.615067306599784" lon="7.870405462288913"><ele>299.0</ele><time>2026-04-11T14:56:21Z</time></trkpt><trkpt lat="44.61513277641625" lon="7.870390336301807"><ele>299.0</ele><time>2026-04-11T14:56:22Z</time></trkpt><trkpt lat="44.61519779223416" lon="7.870373803988582"><ele>299.0</ele><time>2026-04-11T14:56:23Z</time></trkpt><trkpt lat="44.61526294495995" lon="7.870360541182698"><ele>299.0</ele><time>2026-04-11T14:56:24Z</time></trkpt><trkpt lat="44.61532845066902" lon="7.870348931172231"><ele>299.0</ele><time>2026-04-11T14:56:25Z</time></trkpt><trkpt lat="44.61539315109389" lon="7.870335763356348"><ele>299.1428571428571</ele><time>2026-04-11T14:56:26Z</time></trkpt><trkpt lat="44.6154563334497" lon="7.870324947391113"><ele>299.2857142857143</ele><time>2026-04-11T14:56:27Z</time></trkpt><trkpt lat="44.61552215441719" lon="7.8703107401892956"><ele>299.42857142857144</ele><time>2026-04-11T14:56:28Z</time></trkpt><trkpt lat="44.61558703660207" lon="7.870297722224153"><ele>299.57142857142856</ele><time>2026-04-11T14:56:29Z</time></trkpt><trkpt lat="44.61565236462726" lon="7.870287353740889"><ele>299.7142857142857</ele><time>2026-04-11T14:56:30Z</time></trkpt><trkpt lat="44.615717120195974" lon="7.870283693871652"><ele>299.85714285714283</ele><time>2026-04-11T14:56:31Z</time></trkpt><trkpt lat="44.615780583897816" lon="7.870268761957773"><ele>300.0</ele><time>2026-04-11T14:56:32Z</time></trkpt><trkpt lat="44.61584386712746" lon="7.870251472522262"><ele>300.0</ele><time>2026-04-11T14:56:33Z</time></trkpt><trkpt lat="44.61596984625948" lon="7.870219134671196"><ele>300.0</ele><time>2026-04-11T14:56:35Z</time></trkpt><trkpt lat="44.61603515196092" lon="7.870202609674276"><ele>300.0</ele><time>2026-04-11T14:56:36Z</time></trkpt><trkpt lat="44.61610074005255" lon="7.870190492308506"><ele>300.0</ele><time>2026-04-11T14:56:37Z</time></trkpt><trkpt lat="44.61616498569238" lon="7.870179521398337"><ele>300.0</ele><time>2026-04-11T14:56:38Z</time></trkpt><trkpt lat="44.616228428994056" lon="7.870161948443473"><ele>300.0</ele><time>2026-04-11T14:56:39Z</time></trkpt><trkpt lat="44.616291637017525" lon="7.8701478135900205"><ele>299.71428571428567</ele><time>2026-04-11T14:56:40Z</time></trkpt><trkpt lat="44.61635603592923" lon="7.870135480219336"><ele>299.42857142857144</ele><time>2026-04-11T14:56:41Z</time></trkpt><trkpt lat="44.61641952157558" lon="7.8701224369575"><ele>299.1428571428571</ele><time>2026-04-11T14:56:42Z</time></trkpt><trkpt lat="44.61648217115664" lon="7.870110887708974"><ele>298.85714285714283</ele><time>2026-04-11T14:56:43Z</time></trkpt><trkpt lat="44.6165461462711" lon="7.870096724115833"><ele>298.57142857142856</ele><time>2026-04-11T14:56:44Z</time></trkpt><trkpt lat="44.6166094750947" lon="7.870082517408072"><ele>298.2857142857143</ele><time>2026-04-11T14:56:45Z</time></trkpt><trkpt lat="44.61667110783514" lon="7.870064283211886"><ele>298.0</ele><time>2026-04-11T14:56:46Z</time></trkpt><trkpt lat="44.61679228041911" lon="7.870042405017619"><ele>298.0</ele><time>2026-04-11T14:56:48Z</time></trkpt><trkpt lat="44.61691251585146" lon="7.870031085023399"><ele>298.0</ele><time>2026-04-11T14:56:50Z</time></trkpt><trkpt lat="44.61703664273663" lon="7.87001259174459"><ele>298.0</ele><time>2026-04-11T14:56:52Z</time></trkpt><trkpt lat="44.61715952736647" lon="7.8700083585435445"><ele>298.0</ele><time>2026-04-11T14:56:54Z</time></trkpt><trkpt lat="44.6172821080863" lon="7.870003987416915"><ele>297.8</ele><time>2026-04-11T14:56:56Z</time></trkpt><trkpt lat="44.61734489547942" lon="7.869995029365668"><ele>297.6</ele><time>2026-04-11T14:56:57Z</time></trkpt><trkpt lat="44.617468143163904" lon="7.869981109049461"><ele>297.4</ele><time>2026-04-11T14:56:59Z</time></trkpt><trkpt lat="44.617578268146204" lon="7.86993102296342"><ele>297.2</ele><time>2026-04-11T14:57:01Z</time></trkpt><trkpt lat="44.61769093198619" lon="7.869856804084179"><ele>297.0</ele><time>2026-04-11T14:57:03Z</time></trkpt><trkpt lat="44.6177958921553" lon="7.869788585607536"><ele>296.4</ele><time>2026-04-11T14:57:05Z</time></trkpt><trkpt lat="44.61787054563155" lon="7.869815415765848"><ele>295.79999999999995</ele><time>2026-04-11T14:57:06Z</time></trkpt><trkpt lat="44.61793054596357" lon="7.869862062110485"><ele>295.2</ele><time>2026-04-11T14:57:07Z</time></trkpt><trkpt lat="44.61799219730354" lon="7.869890262127776"><ele>294.59999999999997</ele><time>2026-04-11T14:57:08Z</time></trkpt><trkpt lat="44.618107958327485" lon="7.869958973608211"><ele>294.0</ele><time>2026-04-11T14:57:10Z</time></trkpt><trkpt lat="44.61822321423424" lon="7.870005176186192"><ele>294.0</ele><time>2026-04-11T14:57:12Z</time></trkpt><trkpt lat="44.61833462595905" lon="7.870065870100615"><ele>294.0</ele><time>2026-04-11T14:57:14Z</time></trkpt><trkpt lat="44.618452769170474" lon="7.8700832332371"><ele>294.0</ele><time>2026-04-11T14:57:16Z</time></trkpt><trkpt lat="44.61856781064399" lon="7.87009765350592"><ele>294.0</ele><time>2026-04-11T14:57:18Z</time></trkpt><trkpt lat="44.61868408919455" lon="7.870097694394234"><ele>294.0</ele><time>2026-04-11T14:57:19.999Z</time></trkpt><trkpt lat="44.618804451361456" lon="7.870077303550026"><ele>294.0</ele><time>2026-04-11T14:57:21.999Z</time></trkpt><trkpt lat="44.61892675117521" lon="7.8700563933460606"><ele>294.0</ele><time>2026-04-11T14:57:23.999Z</time></trkpt><trkpt lat="44.61904888998" lon="7.870036781273824"><ele>294.0</ele><time>2026-04-11T14:57:25.999Z</time></trkpt><trkpt lat="44.61916825530621" lon="7.870024009261958"><ele>294.0</ele><time>2026-04-11T14:57:27.999Z</time></trkpt><trkpt lat="44.61928786542194" lon="7.8700089332542955"><ele>294.0</ele><time>2026-04-11T14:57:29.999Z</time></trkpt><trkpt lat="44.61940772346062" lon="7.8699982320019615"><ele>294.0</ele><time>2026-04-11T14:57:31.999Z</time></trkpt><trkpt lat="44.61952651547448" lon="7.869995255679735"><ele>294.0</ele><time>2026-04-11T14:57:33.999Z</time></trkpt><trkpt lat="44.61964764116237" lon="7.869975537552334"><ele>294.0</ele><time>2026-04-11T14:57:35.999Z</time></trkpt><trkpt lat="44.61975618931983" lon="7.869902265957895"><ele>294.0</ele><time>2026-04-11T14:57:37.999Z</time></trkpt><trkpt lat="44.619838796832276" lon="7.869782262626999"><ele>294.0</ele><time>2026-04-11T14:57:39.999Z</time></trkpt><trkpt lat="44.61988079273694" lon="7.8697163621248025"><ele>294.0</ele><time>2026-04-11T14:57:40.999Z</time></trkpt><trkpt lat="44.61998092001026" lon="7.869615683053401"><ele>294.0</ele><time>2026-04-11T14:57:42.999Z</time></trkpt><trkpt lat="44.62007599796565" lon="7.869504623273707"><ele>294.0</ele><time>2026-04-11T14:57:44.999Z</time></trkpt><trkpt lat="44.62017911798104" lon="7.86940636232736"><ele>294.0</ele><time>2026-04-11T14:57:46.999Z</time></trkpt><trkpt lat="44.62028601504726" lon="7.869316492036225"><ele>294.0</ele><time>2026-04-11T14:57:48.999Z</time></trkpt><trkpt lat="44.620390763231285" lon="7.869226188020154"><ele>294.0</ele><time>2026-04-11T14:57:50.999Z</time></trkpt><trkpt lat="44.620500931147674" lon="7.869152545088095"><ele>293.8</ele><time>2026-04-11T14:57:52.999Z</time></trkpt><trkpt lat="44.62061332900205" lon="7.8690732707126685"><ele>293.59999999999997</ele><time>2026-04-11T14:57:54.999Z</time></trkpt><trkpt lat="44.62066977455671" lon="7.869030246477644"><ele>293.4</ele><time>2026-04-11T14:57:55.999Z</time></trkpt><trkpt lat="44.620726447340466" lon="7.868989755244705"><ele>293.2</ele><time>2026-04-11T14:57:56.999Z</time></trkpt><trkpt lat="44.620835249334945" lon="7.868911308214793"><ele>293.0</ele><time>2026-04-11T14:57:58.999Z</time></trkpt><trkpt lat="44.62094502913388" lon="7.8688393917376995"><ele>293.0</ele><time>2026-04-11T14:58:00.999Z</time></trkpt><trkpt lat="44.6210564776958" lon="7.868764643210416"><ele>293.0</ele><time>2026-04-11T14:58:02.999Z</time></trkpt><trkpt lat="44.62116553268435" lon="7.868689725646444"><ele>293.0</ele><time>2026-04-11T14:58:04.999Z</time></trkpt><trkpt lat="44.62127537487588" lon="7.868614394929189"><ele>293.0</ele><time>2026-04-11T14:58:06.999Z</time></trkpt><trkpt lat="44.62138404186023" lon="7.8685375063954055"><ele>293.0</ele><time>2026-04-11T14:58:08.999Z</time></trkpt><trkpt lat="44.62150093476763" lon="7.868481907755508"><ele>293.0</ele><time>2026-04-11T14:58:10.999Z</time></trkpt><trkpt lat="44.621612749401244" lon="7.868404556522515"><ele>293.0</ele><time>2026-04-11T14:58:12.999Z</time></trkpt><trkpt lat="44.62166684934717" lon="7.868358359514479"><ele>293.0</ele><time>2026-04-11T14:58:13.999Z</time></trkpt><trkpt lat="44.621773775748714" lon="7.8682722241208545"><ele>293.0</ele><time>2026-04-11T14:58:15.999Z</time></trkpt><trkpt lat="44.621883461381444" lon="7.868192142300955"><ele>293.0</ele><time>2026-04-11T14:58:17.999Z</time></trkpt><trkpt lat="44.621938195191824" lon="7.868144734297365"><ele>293.0</ele><time>2026-04-11T14:58:18.999Z</time></trkpt><trkpt lat="44.621993365800996" lon="7.868101839021004"><ele>293.0</ele><time>2026-04-11T14:58:19.999Z</time></trkpt><trkpt lat="44.622102049602205" lon="7.868014206599742"><ele>293.0</ele><time>2026-04-11T14:58:21.999Z</time></trkpt><trkpt lat="44.62221411120707" lon="7.867929601089884"><ele>293.0</ele><time>2026-04-11T14:58:24Z</time></trkpt><trkpt lat="44.62226974586157" lon="7.867883325749817"><ele>293.0</ele><time>2026-04-11T14:58:25Z</time></trkpt><trkpt lat="44.62232629872345" lon="7.867840014486035"><ele>292.99999999999994</ele><time>2026-04-11T14:58:26Z</time></trkpt><trkpt lat="44.62238495096671" lon="7.867795820968842"><ele>293.0</ele><time>2026-04-11T14:58:27Z</time></trkpt><trkpt lat="44.622441791661934" lon="7.867751524152747"><ele>293.0</ele><time>2026-04-11T14:58:28Z</time></trkpt><trkpt lat="44.622498892596816" lon="7.867706973336559"><ele>293.0</ele><time>2026-04-11T14:58:29Z</time></trkpt><trkpt lat="44.62255631481771" lon="7.8676611078873355"><ele>293.0</ele><time>2026-04-11T14:58:30Z</time></trkpt><trkpt lat="44.62261603037027" lon="7.867616228111479"><ele>292.99999999999994</ele><time>2026-04-11T14:58:31Z</time></trkpt><trkpt lat="44.62267443937685" lon="7.867570490078922"><ele>293.0</ele><time>2026-04-11T14:58:32Z</time></trkpt><trkpt lat="44.62273366761284" lon="7.867526575701548"><ele>292.99999999999994</ele><time>2026-04-11T14:58:33Z</time></trkpt><trkpt lat="44.62279071823542" lon="7.867481942097482"><ele>293.0</ele><time>2026-04-11T14:58:34Z</time></trkpt><trkpt lat="44.62284994751703" lon="7.867435277481313"><ele>293.0</ele><time>2026-04-11T14:58:35Z</time></trkpt><trkpt lat="44.622907069336954" lon="7.867391174281928"><ele>293.0</ele><time>2026-04-11T14:58:36Z</time></trkpt><trkpt lat="44.62296430915683" lon="7.867346422679355"><ele>293.0</ele><time>2026-04-11T14:58:37Z</time></trkpt><trkpt lat="44.623022088090515" lon="7.867302870545523"><ele>292.99999999999994</ele><time>2026-04-11T14:58:38Z</time></trkpt><trkpt lat="44.62308021970634" lon="7.8672564870284"><ele>293.0</ele><time>2026-04-11T14:58:39Z</time></trkpt><trkpt lat="44.62313747917805" lon="7.8672115878011155"><ele>292.99999999999994</ele><time>2026-04-11T14:58:40Z</time></trkpt><trkpt lat="44.62319509031434" lon="7.867166218422404"><ele>293.0</ele><time>2026-04-11T14:58:41Z</time></trkpt><trkpt lat="44.62325340346073" lon="7.867123136911667"><ele>293.0</ele><time>2026-04-11T14:58:42Z</time></trkpt><trkpt lat="44.623312010978026" lon="7.867077374760399"><ele>293.0</ele><time>2026-04-11T14:58:43Z</time></trkpt><trkpt lat="44.62336887471174" lon="7.8670353651265215"><ele>293.0</ele><time>2026-04-11T14:58:44Z</time></trkpt><trkpt lat="44.62342567014933" lon="7.86698983905048"><ele>292.99999999999994</ele><time>2026-04-11T14:58:45Z</time></trkpt><trkpt lat="44.62348235460213" lon="7.86694941403539"><ele>293.0</ele><time>2026-04-11T14:58:46Z</time></trkpt><trkpt lat="44.62359277032496" lon="7.866865613993894"><ele>293.0</ele><time>2026-04-11T14:58:48Z</time></trkpt><trkpt lat="44.6237037325983" lon="7.866783618278615"><ele>293.0</ele><time>2026-04-11T14:58:50Z</time></trkpt><trkpt lat="44.62381522569183" lon="7.866698392193428"><ele>293.0</ele><time>2026-04-11T14:58:52Z</time></trkpt><trkpt lat="44.623922569239355" lon="7.8666060850922"><ele>293.0</ele><time>2026-04-11T14:58:54Z</time></trkpt><trkpt lat="44.623976475289666" lon="7.86655743260236"><ele>293.0</ele><time>2026-04-11T14:58:55Z</time></trkpt><trkpt lat="44.62406847602299" lon="7.8664489688001344"><ele>293.0</ele><time>2026-04-11T14:58:57Z</time></trkpt><trkpt lat="44.62415822879438" lon="7.8663471332491035"><ele>293.0</ele><time>2026-04-11T14:58:59Z</time></trkpt><trkpt lat="44.62413965959995" lon="7.866170955770957"><ele>293.0</ele><time>2026-04-11T14:59:01Z</time></trkpt><trkpt lat="44.624088513420304" lon="7.866013164866655"><ele>293.0</ele><time>2026-04-11T14:59:03Z</time></trkpt><trkpt lat="44.62404715800913" lon="7.865847359501404"><ele>293.0</ele><time>2026-04-11T14:59:05Z</time></trkpt><trkpt lat="44.624044298115585" lon="7.865684219435267"><ele>293.0</ele><time>2026-04-11T14:59:07Z</time></trkpt><trkpt lat="44.623978522790956" lon="7.865600116136431"><ele>293.0</ele><time>2026-04-11T14:59:08Z</time></trkpt><trkpt lat="44.62395378134281" lon="7.865516496566659"><ele>293.0</ele><time>2026-04-11T14:59:09Z</time></trkpt><trkpt lat="44.62392505622669" lon="7.865352149703711"><ele>293.0</ele><time>2026-04-11T14:59:11Z</time></trkpt><trkpt lat="44.623911691115175" lon="7.865186678450511"><ele>293.25</ele><time>2026-04-11T14:59:13Z</time></trkpt><trkpt lat="44.62389492228965" lon="7.8650309774650475"><ele>293.5</ele><time>2026-04-11T14:59:15Z</time></trkpt><trkpt lat="44.62399282643325" lon="7.865003406737277"><ele>293.75</ele><time>2026-04-11T14:59:16Z</time></trkpt><trkpt lat="44.62409451309189" lon="7.864891809465432"><ele>294.0</ele><time>2026-04-11T14:59:18Z</time></trkpt><trkpt lat="44.62419885719339" lon="7.864796993898878"><ele>294.0</ele><time>2026-04-11T14:59:20Z</time></trkpt><trkpt lat="44.624305787263026" lon="7.864709265764743"><ele>294.0</ele><time>2026-04-11T14:59:22Z</time></trkpt><trkpt lat="44.624357458706285" lon="7.864655608307427"><ele>294.0</ele><time>2026-04-11T14:59:23Z</time></trkpt><trkpt lat="44.62445738337569" lon="7.864550889617797"><ele>294.0</ele><time>2026-04-11T14:59:25Z</time></trkpt><trkpt lat="44.62450923907332" lon="7.864498957936642"><ele>294.0</ele><time>2026-04-11T14:59:25.999Z</time></trkpt><trkpt lat="44.6246072193779" lon="7.864394089000431"><ele>293.59999999999997</ele><time>2026-04-11T14:59:27.999Z</time></trkpt><trkpt lat="44.624714705811634" lon="7.864322574658714"><ele>293.2</ele><time>2026-04-11T14:59:29.999Z</time></trkpt><trkpt lat="44.624815493844956" lon="7.864237817192707"><ele>292.79999999999995</ele><time>2026-04-11T14:59:31.999Z</time></trkpt><trkpt lat="44.62486965594454" lon="7.864192116330982"><ele>292.4</ele><time>2026-04-11T14:59:32.999Z</time></trkpt><trkpt lat="44.624973557537714" lon="7.864104446326102"><ele>292.0</ele><time>2026-04-11T14:59:34.999Z</time></trkpt><trkpt lat="44.62507775249868" lon="7.864016528791246"><ele>292.0</ele><time>2026-04-11T14:59:36.999Z</time></trkpt><trkpt lat="44.62517646927168" lon="7.863934520764583"><ele>292.0</ele><time>2026-04-11T14:59:38.999Z</time></trkpt><trkpt lat="44.62527248540015" lon="7.863861904217529"><ele>292.0</ele><time>2026-04-11T14:59:40.999Z</time></trkpt><trkpt lat="44.62534754607818" lon="7.863789724627655"><ele>292.0</ele><time>2026-04-11T14:59:42.999Z</time></trkpt><trkpt lat="44.62540754887173" lon="7.863668424755156"><ele>292.0</ele><time>2026-04-11T14:59:44.999Z</time></trkpt><trkpt lat="44.625510810998065" lon="7.863618182698916"><ele>291.8</ele><time>2026-04-11T14:59:46.999Z</time></trkpt><trkpt lat="44.62561541713772" lon="7.863529484800507"><ele>291.6</ele><time>2026-04-11T14:59:48.999Z</time></trkpt><trkpt lat="44.62572968381279" lon="7.86353527182912"><ele>291.40000000000003</ele><time>2026-04-11T14:59:50.999Z</time></trkpt><trkpt lat="44.62583821965183" lon="7.86359958778435"><ele>291.2</ele><time>2026-04-11T14:59:52.999Z</time></trkpt><trkpt lat="44.62590537264571" lon="7.863631944991675"><ele>291.0</ele><time>2026-04-11T14:59:53.999Z</time></trkpt><trkpt lat="44.62597624078312" lon="7.863666986834597"><ele>291.0</ele><time>2026-04-11T14:59:54.999Z</time></trkpt><trkpt lat="44.62605849198406" lon="7.863693201814307"><ele>291.0</ele><time>2026-04-11T14:59:55.999Z</time></trkpt><trkpt lat="44.62613016420659" lon="7.863714491412623"><ele>291.0</ele><time>2026-04-11T14:59:56.999Z</time></trkpt><trkpt lat="44.62620661328022" lon="7.863741547951611"><ele>291.0</ele><time>2026-04-11T14:59:57.999Z</time></trkpt><trkpt lat="44.62629130241847" lon="7.863762843308927"><ele>291.0</ele><time>2026-04-11T14:59:58.999Z</time></trkpt><trkpt lat="44.62637468996452" lon="7.86377533246436"><ele>291.0</ele><time>2026-04-11T14:59:59.999Z</time></trkpt><trkpt lat="44.62645500355861" lon="7.863777593630456"><ele>290.5</ele><time>2026-04-11T15:00:00.999Z</time></trkpt><trkpt lat="44.626536905902086" lon="7.863748417678633"><ele>290.0</ele><time>2026-04-11T15:00:01.999Z</time></trkpt><trkpt lat="44.62661581194926" lon="7.863727239928363"><ele>289.5</ele><time>2026-04-11T15:00:02.999Z</time></trkpt><trkpt lat="44.626694272491434" lon="7.863692847637907"><ele>289.0</ele><time>2026-04-11T15:00:03.999Z</time></trkpt><trkpt lat="44.62676863466162" lon="7.863659183030008"><ele>288.5</ele><time>2026-04-11T15:00:04.999Z</time></trkpt><trkpt lat="44.6268369391758" lon="7.863622421509013"><ele>288.0</ele><time>2026-04-11T15:00:05.999Z</time></trkpt><trkpt lat="44.62690578790801" lon="7.863581761080679"><ele>288.00000000000006</ele><time>2026-04-11T15:00:06.999Z</time></trkpt><trkpt lat="44.626969166818455" lon="7.863542928037495"><ele>288.0</ele><time>2026-04-11T15:00:07.999Z</time></trkpt><trkpt lat="44.62703190357376" lon="7.863502336977195"><ele>288.0</ele><time>2026-04-11T15:00:08.999Z</time></trkpt><trkpt lat="44.62709340550041" lon="7.863462669113422"><ele>288.0</ele><time>2026-04-11T15:00:09.999Z</time></trkpt><trkpt lat="44.62715433973427" lon="7.863417868471212"><ele>288.0</ele><time>2026-04-11T15:00:10.999Z</time></trkpt><trkpt lat="44.627212916443526" lon="7.863381171836061"><ele>288.00000000000006</ele><time>2026-04-11T15:00:11.999Z</time></trkpt><trkpt lat="44.62727525022528" lon="7.8633518691633375"><ele>288.0</ele><time>2026-04-11T15:00:12.999Z</time></trkpt><trkpt lat="44.62733870844207" lon="7.863318594519819"><ele>288.6666666666667</ele><time>2026-04-11T15:00:13.999Z</time></trkpt><trkpt lat="44.62739973292338" lon="7.863274028982178"><ele>289.3333333333333</ele><time>2026-04-11T15:00:14.999Z</time></trkpt><trkpt lat="44.62745376338943" lon="7.8632229059000585"><ele>290.0</ele><time>2026-04-11T15:00:15.999Z</time></trkpt><trkpt lat="44.627512370961746" lon="7.863179651486516"><ele>290.66666666666663</ele><time>2026-04-11T15:00:16.999Z</time></trkpt><trkpt lat="44.62762958904998" lon="7.863105594279879"><ele>291.3333333333333</ele><time>2026-04-11T15:00:18.999Z</time></trkpt><trkpt lat="44.62768598152115" lon="7.863059858059468"><ele>292.0</ele><time>2026-04-11T15:00:19.999Z</time></trkpt><trkpt lat="44.62774570990397" lon="7.863019248418702"><ele>290.5</ele><time>2026-04-11T15:00:20.999Z</time></trkpt><trkpt lat="44.62785451812618" lon="7.862928923809642"><ele>289.0</ele><time>2026-04-11T15:00:22.999Z</time></trkpt><trkpt lat="44.62790974724682" lon="7.862880223324519"><ele>287.5</ele><time>2026-04-11T15:00:23.999Z</time></trkpt><trkpt lat="44.627965997139775" lon="7.862835783491559"><ele>286.0</ele><time>2026-04-11T15:00:24.999Z</time></trkpt><trkpt lat="44.628022829711654" lon="7.862793657476942"><ele>284.5</ele><time>2026-04-11T15:00:25.999Z</time></trkpt><trkpt lat="44.62808118861402" lon="7.862751967855904"><ele>283.0</ele><time>2026-04-11T15:00:26.999Z</time></trkpt><trkpt lat="44.62814680770194" lon="7.862733793324456"><ele>283.0</ele><time>2026-04-11T15:00:27.999Z</time></trkpt><trkpt lat="44.628205271628296" lon="7.862695376999407"><ele>283.0</ele><time>2026-04-11T15:00:29Z</time></trkpt><trkpt lat="44.62825919152533" lon="7.8626354136374275"><ele>283.0</ele><time>2026-04-11T15:00:30Z</time></trkpt><trkpt lat="44.62831812414313" lon="7.862603337874161"><ele>283.0</ele><time>2026-04-11T15:00:31Z</time></trkpt><trkpt lat="44.628436220463705" lon="7.862544406526006"><ele>283.0</ele><time>2026-04-11T15:00:33Z</time></trkpt><trkpt lat="44.62854335721828" lon="7.862453352448892"><ele>283.0</ele><time>2026-04-11T15:00:35Z</time></trkpt><trkpt lat="44.628646335655" lon="7.862357760512825"><ele>284.5</ele><time>2026-04-11T15:00:37Z</time></trkpt><trkpt lat="44.62875400361703" lon="7.8622717293342586"><ele>286.0</ele><time>2026-04-11T15:00:39Z</time></trkpt><trkpt lat="44.628859457937025" lon="7.862187933209504"><ele>287.5</ele><time>2026-04-11T15:00:41Z</time></trkpt><trkpt lat="44.628966805932926" lon="7.86211065181412"><ele>289.0</ele><time>2026-04-11T15:00:43Z</time></trkpt><trkpt lat="44.62908138475638" lon="7.862054983399499"><ele>289.0</ele><time>2026-04-11T15:00:45Z</time></trkpt><trkpt lat="44.629204139413396" lon="7.862036209158837"><ele>289.0</ele><time>2026-04-11T15:00:47Z</time></trkpt><trkpt lat="44.62932699336518" lon="7.862021361831085"><ele>289.0</ele><time>2026-04-11T15:00:49Z</time></trkpt><trkpt lat="44.62945228672189" lon="7.8620059236438085"><ele>289.0</ele><time>2026-04-11T15:00:51Z</time></trkpt><trkpt lat="44.629573879177556" lon="7.8620130264233605"><ele>288.8</ele><time>2026-04-11T15:00:53Z</time></trkpt><trkpt lat="44.62963756871519" lon="7.862020594092395"><ele>288.59999999999997</ele><time>2026-04-11T15:00:54Z</time></trkpt><trkpt lat="44.62969989047319" lon="7.862033900784624"><ele>288.4</ele><time>2026-04-11T15:00:55Z</time></trkpt><trkpt lat="44.62981795808189" lon="7.862066971077169"><ele>288.2</ele><time>2026-04-11T15:00:57Z</time></trkpt><trkpt lat="44.629939537785994" lon="7.862097140324262"><ele>288.0</ele><time>2026-04-11T15:00:59Z</time></trkpt><trkpt lat="44.63006207446905" lon="7.862112860778615"><ele>288.0</ele><time>2026-04-11T15:01:01Z</time></trkpt><trkpt lat="44.63017507504327" lon="7.86214168034899"><ele>288.0</ele><time>2026-04-11T15:01:03Z</time></trkpt><trkpt lat="44.63029323788387" lon="7.862126763245699"><ele>288.0</ele><time>2026-04-11T15:01:05Z</time></trkpt><trkpt lat="44.63041255340588" lon="7.862111505050647"><ele>288.0</ele><time>2026-04-11T15:01:07Z</time></trkpt><trkpt lat="44.63053178422826" lon="7.862095638530469"><ele>287.5</ele><time>2026-04-11T15:01:09Z</time></trkpt><trkpt lat="44.63065318421545" lon="7.862071943139706"><ele>287.0</ele><time>2026-04-11T15:01:11Z</time></trkpt><trkpt lat="44.630769556818194" lon="7.862035386932001"><ele>286.5</ele><time>2026-04-11T15:01:13Z</time></trkpt><trkpt lat="44.630887787085776" lon="7.861992384224189"><ele>286.0</ele><time>2026-04-11T15:01:15Z</time></trkpt><trkpt lat="44.63100566913961" lon="7.861948405328163"><ele>286.0</ele><time>2026-04-11T15:01:17Z</time></trkpt><trkpt lat="44.63112565418165" lon="7.8619101592498986"><ele>286.0</ele><time>2026-04-11T15:01:19Z</time></trkpt><trkpt lat="44.63124612099478" lon="7.861868864907832"><ele>286.0</ele><time>2026-04-11T15:01:20.999Z</time></trkpt><trkpt lat="44.63130900966407" lon="7.861851288435266"><ele>286.0</ele><time>2026-04-11T15:01:21.999Z</time></trkpt><trkpt lat="44.63137135146949" lon="7.861836127446185"><ele>286.0</ele><time>2026-04-11T15:01:22.999Z</time></trkpt><trkpt lat="44.63143449215354" lon="7.861821607226941"><ele>286.0</ele><time>2026-04-11T15:01:23.999Z</time></trkpt><trkpt lat="44.6314989364442" lon="7.861811278126272"><ele>285.8333333333333</ele><time>2026-04-11T15:01:24.999Z</time></trkpt><trkpt lat="44.63156458561803" lon="7.861803481487209"><ele>285.66666666666663</ele><time>2026-04-11T15:01:25.999Z</time></trkpt><trkpt lat="44.63169260859649" lon="7.861787281300195"><ele>285.5</ele><time>2026-04-11T15:01:27.999Z</time></trkpt><trkpt lat="44.63175856625602" lon="7.861776874207566"><ele>285.3333333333333</ele><time>2026-04-11T15:01:28.999Z</time></trkpt><trkpt lat="44.631822377223386" lon="7.861770219412725"><ele>285.1666666666667</ele><time>2026-04-11T15:01:29.999Z</time></trkpt><trkpt lat="44.63188674341553" lon="7.861763231408215"><ele>285.0</ele><time>2026-04-11T15:01:30.999Z</time></trkpt><trkpt lat="44.631950161631984" lon="7.8617621258747175"><ele>284.57142857142856</ele><time>2026-04-11T15:01:31.999Z</time></trkpt><trkpt lat="44.632015298009655" lon="7.861761502355707"><ele>284.14285714285717</ele><time>2026-04-11T15:01:32.999Z</time></trkpt><trkpt lat="44.63207935554344" lon="7.861765120793917"><ele>283.7142857142857</ele><time>2026-04-11T15:01:33.999Z</time></trkpt><trkpt lat="44.632142431595746" lon="7.861768381621106"><ele>283.2857142857143</ele><time>2026-04-11T15:01:34.999Z</time></trkpt><trkpt lat="44.6322079318128" lon="7.861770883956861"><ele>282.85714285714283</ele><time>2026-04-11T15:01:35.999Z</time></trkpt><trkpt lat="44.6322727045785" lon="7.861771835377114"><ele>282.42857142857144</ele><time>2026-04-11T15:01:36.999Z</time></trkpt><trkpt lat="44.63233663591221" lon="7.861762057139608"><ele>282.0</ele><time>2026-04-11T15:01:37.999Z</time></trkpt><trkpt lat="44.632402909033885" lon="7.86178636012137"><ele>282.0</ele><time>2026-04-11T15:01:38.999Z</time></trkpt><trkpt lat="44.632470390878304" lon="7.8617715123342675"><ele>282.0</ele><time>2026-04-11T15:01:39.999Z</time></trkpt><trkpt lat="44.63254076434752" lon="7.861778267868"><ele>282.0</ele><time>2026-04-11T15:01:40.999Z</time></trkpt><trkpt lat="44.63260490514775" lon="7.861787699201947"><ele>282.0</ele><time>2026-04-11T15:01:41.999Z</time></trkpt><trkpt lat="44.63266982649679" lon="7.86179448064268"><ele>282.0</ele><time>2026-04-11T15:01:42.999Z</time></trkpt><trkpt lat="44.63273481885177" lon="7.861801470140237"><ele>282.0</ele><time>2026-04-11T15:01:43.999Z</time></trkpt><trkpt lat="44.63279992646823" lon="7.861809715823048"><ele>282.0</ele><time>2026-04-11T15:01:44.999Z</time></trkpt><trkpt lat="44.63292421520321" lon="7.861806728239142"><ele>281.7142857142857</ele><time>2026-04-11T15:01:46.999Z</time></trkpt><trkpt lat="44.6329917586485" lon="7.861788734753506"><ele>281.42857142857144</ele><time>2026-04-11T15:01:47.999Z</time></trkpt><trkpt lat="44.63305552862028" lon="7.861769085864694"><ele>281.1428571428571</ele><time>2026-04-11T15:01:48.999Z</time></trkpt><trkpt lat="44.63312115581479" lon="7.861752841160474"><ele>280.8571428571429</ele><time>2026-04-11T15:01:49.999Z</time></trkpt><trkpt lat="44.633186153615" lon="7.861731218727325"><ele>280.57142857142856</ele><time>2026-04-11T15:01:50.999Z</time></trkpt><trkpt lat="44.63324927640376" lon="7.861705047146243"><ele>280.2857142857143</ele><time>2026-04-11T15:01:51.999Z</time></trkpt><trkpt lat="44.63331152283274" lon="7.861679740522356"><ele>280.0</ele><time>2026-04-11T15:01:52.999Z</time></trkpt><trkpt lat="44.633374027314815" lon="7.8616528678057165"><ele>280.7142857142857</ele><time>2026-04-11T15:01:53.999Z</time></trkpt><trkpt lat="44.633435048380335" lon="7.861626028271161"><ele>281.42857142857144</ele><time>2026-04-11T15:01:54.999Z</time></trkpt><trkpt lat="44.633498400558004" lon="7.861599213700172"><ele>282.1428571428571</ele><time>2026-04-11T15:01:55.999Z</time></trkpt><trkpt lat="44.63355905933457" lon="7.861566025896895"><ele>282.8571428571429</ele><time>2026-04-11T15:01:56.999Z</time></trkpt><trkpt lat="44.63361892483648" lon="7.8615381999601635"><ele>283.57142857142856</ele><time>2026-04-11T15:01:57.999Z</time></trkpt><trkpt lat="44.63368171106372" lon="7.861515807778238"><ele>284.2857142857143</ele><time>2026-04-11T15:01:58.999Z</time></trkpt><trkpt lat="44.63374488587372" lon="7.86149132200399"><ele>285.0</ele><time>2026-04-11T15:01:59.999Z</time></trkpt><trkpt lat="44.63380648867738" lon="7.861464590142816"><ele>285.0</ele><time>2026-04-11T15:02:00.999Z</time></trkpt><trkpt lat="44.63386826349898" lon="7.861437251329519"><ele>285.0</ele><time>2026-04-11T15:02:01.999Z</time></trkpt><trkpt lat="44.633928577609765" lon="7.8614066095287845"><ele>285.0</ele><time>2026-04-11T15:02:02.999Z</time></trkpt><trkpt lat="44.63399004832254" lon="7.861375253778544"><ele>285.0</ele><time>2026-04-11T15:02:03.999Z</time></trkpt><trkpt lat="44.63405168262419" lon="7.861345937678471"><ele>285.0</ele><time>2026-04-11T15:02:04.999Z</time></trkpt><trkpt lat="44.63411379313703" lon="7.8613186363181935"><ele>285.0</ele><time>2026-04-11T15:02:05.999Z</time></trkpt><trkpt lat="44.63417508227202" lon="7.861295364977685"><ele>285.0</ele><time>2026-04-11T15:02:06.999Z</time></trkpt><trkpt lat="44.63423678769482" lon="7.861269479348587"><ele>285.0</ele><time>2026-04-11T15:02:07.999Z</time></trkpt><trkpt lat="44.634298236962955" lon="7.86124148730059"><ele>285.0</ele><time>2026-04-11T15:02:08.999Z</time></trkpt><trkpt lat="44.63441520351623" lon="7.861175849516121"><ele>285.0</ele><time>2026-04-11T15:02:10.999Z</time></trkpt><trkpt lat="44.63447479560468" lon="7.861140118453356"><ele>285.0</ele><time>2026-04-11T15:02:11.999Z</time></trkpt><trkpt lat="44.63459663534515" lon="7.861077311197396"><ele>285.0</ele><time>2026-04-11T15:02:13.999Z</time></trkpt><trkpt lat="44.63465391989138" lon="7.861038441327722"><ele>285.0</ele><time>2026-04-11T15:02:14.999Z</time></trkpt><trkpt lat="44.63470958074503" lon="7.860989132884892"><ele>285.42857142857144</ele><time>2026-04-11T15:02:15.999Z</time></trkpt><trkpt lat="44.63476395279723" lon="7.860936008696217"><ele>285.8571428571429</ele><time>2026-04-11T15:02:16.999Z</time></trkpt><trkpt lat="44.63481607756206" lon="7.860880332227824"><ele>286.28571428571433</ele><time>2026-04-11T15:02:17.999Z</time></trkpt><trkpt lat="44.634866635455005" lon="7.8608220966838696"><ele>286.7142857142857</ele><time>2026-04-11T15:02:18.999Z</time></trkpt><trkpt lat="44.63491598674996" lon="7.860763026676592"><ele>287.14285714285717</ele><time>2026-04-11T15:02:19.999Z</time></trkpt><trkpt lat="44.634964154658846" lon="7.860699383617427"><ele>287.5714285714286</ele><time>2026-04-11T15:02:20.999Z</time></trkpt><trkpt lat="44.63501076167612" lon="7.860637318968829"><ele>288.0</ele><time>2026-04-11T15:02:21.999Z</time></trkpt><trkpt lat="44.635060502821865" lon="7.860576827522102"><ele>288.00000000000006</ele><time>2026-04-11T15:02:22.999Z</time></trkpt><trkpt lat="44.635108294835696" lon="7.860517797616462"><ele>288.0</ele><time>2026-04-11T15:02:23.999Z</time></trkpt><trkpt lat="44.63520371189796" lon="7.860399387199718"><ele>288.0</ele><time>2026-04-11T15:02:25.999Z</time></trkpt><trkpt lat="44.63525211858172" lon="7.860340320938476"><ele>288.0</ele><time>2026-04-11T15:02:26.999Z</time></trkpt><trkpt lat="44.63529934319522" lon="7.860280660567057"><ele>288.0</ele><time>2026-04-11T15:02:27.999Z</time></trkpt><trkpt lat="44.6353434457403" lon="7.860212981861758"><ele>288.00000000000006</ele><time>2026-04-11T15:02:28.999Z</time></trkpt><trkpt lat="44.63538205318919" lon="7.860140752960906"><ele>288.0</ele><time>2026-04-11T15:02:29.999Z</time></trkpt><trkpt lat="44.635416598864076" lon="7.860064308389735"><ele>287.8333333333333</ele><time>2026-04-11T15:02:30.999Z</time></trkpt><trkpt lat="44.6354517364154" lon="7.859988611692444"><ele>287.6666666666667</ele><time>2026-04-11T15:02:31.999Z</time></trkpt><trkpt lat="44.63552501216534" lon="7.859847343928"><ele>287.5</ele><time>2026-04-11T15:02:34Z</time></trkpt><trkpt lat="44.63556599090929" lon="7.859778779383791"><ele>287.33333333333337</ele><time>2026-04-11T15:02:35Z</time></trkpt><trkpt lat="44.63561137591465" lon="7.8597141276530245"><ele>287.1666666666667</ele><time>2026-04-11T15:02:36Z</time></trkpt><trkpt lat="44.63566360580138" lon="7.859656580403981"><ele>287.0</ele><time>2026-04-11T15:02:37Z</time></trkpt><trkpt lat="44.63572254235863" lon="7.85961091002868"><ele>287.0</ele><time>2026-04-11T15:02:38Z</time></trkpt><trkpt lat="44.63578742000933" lon="7.859585284134147"><ele>287.0</ele><time>2026-04-11T15:02:39Z</time></trkpt><trkpt lat="44.63585285001754" lon="7.859577460142968"><ele>287.0</ele><time>2026-04-11T15:02:40Z</time></trkpt><trkpt lat="44.63591985812045" lon="7.859576229674093"><ele>287.0</ele><time>2026-04-11T15:02:41Z</time></trkpt><trkpt lat="44.63598694751321" lon="7.859581547635182"><ele>287.0</ele><time>2026-04-11T15:02:42Z</time></trkpt><trkpt lat="44.63605239667789" lon="7.859594978724869"><ele>287.0</ele><time>2026-04-11T15:02:43Z</time></trkpt><trkpt lat="44.63611674469952" lon="7.859610994556985"><ele>287.0</ele><time>2026-04-11T15:02:44Z</time></trkpt><trkpt lat="44.63618167744779" lon="7.859630795899052"><ele>286.85714285714283</ele><time>2026-04-11T15:02:45Z</time></trkpt><trkpt lat="44.63624485450042" lon="7.859654507780861"><ele>286.7142857142857</ele><time>2026-04-11T15:02:46Z</time></trkpt><trkpt lat="44.63630756846076" lon="7.859680867051315"><ele>286.57142857142856</ele><time>2026-04-11T15:02:47Z</time></trkpt><trkpt lat="44.636369351489634" lon="7.8597063684022865"><ele>286.42857142857144</ele><time>2026-04-11T15:02:48Z</time></trkpt><trkpt lat="44.63642709144803" lon="7.85975563192961"><ele>286.2857142857143</ele><time>2026-04-11T15:02:49Z</time></trkpt><trkpt lat="44.63648869623514" lon="7.85978032295516"><ele>286.1428571428571</ele><time>2026-04-11T15:02:50Z</time></trkpt><trkpt lat="44.63655150375546" lon="7.859801184240977"><ele>286.0</ele><time>2026-04-11T15:02:51Z</time></trkpt><trkpt lat="44.636615861494235" lon="7.859820700853738"><ele>286.0</ele><time>2026-04-11T15:02:52Z</time></trkpt><trkpt lat="44.63668136962936" lon="7.859816756474938"><ele>286.0</ele><time>2026-04-11T15:02:53Z</time></trkpt><trkpt lat="44.63674440788779" lon="7.859833396749701"><ele>286.0</ele><time>2026-04-11T15:02:54Z</time></trkpt><trkpt lat="44.636864786485326" lon="7.8598883770353"><ele>286.0</ele><time>2026-04-11T15:02:56Z</time></trkpt><trkpt lat="44.63698745899712" lon="7.859921728287686"><ele>286.0</ele><time>2026-04-11T15:02:58Z</time></trkpt><trkpt lat="44.63705229425246" lon="7.859929721294419"><ele>286.0</ele><time>2026-04-11T15:02:59Z</time></trkpt><trkpt lat="44.63711608279306" lon="7.8599415187198876"><ele>286.2857142857143</ele><time>2026-04-11T15:03:00Z</time></trkpt><trkpt lat="44.637180155943305" lon="7.85995109390014"><ele>286.57142857142856</ele><time>2026-04-11T15:03:01Z</time></trkpt><trkpt lat="44.637244442155335" lon="7.85996070091555"><ele>286.8571428571429</ele><time>2026-04-11T15:03:02Z</time></trkpt><trkpt lat="44.637310558996795" lon="7.859956880558007"><ele>287.1428571428571</ele><time>2026-04-11T15:03:03Z</time></trkpt><trkpt lat="44.63737591174574" lon="7.859971333357257"><ele>287.42857142857144</ele><time>2026-04-11T15:03:04Z</time></trkpt><trkpt lat="44.63744144530152" lon="7.8599764957905585"><ele>287.7142857142857</ele><time>2026-04-11T15:03:05Z</time></trkpt><trkpt lat="44.63750764371297" lon="7.859979765586581"><ele>288.0</ele><time>2026-04-11T15:03:06Z</time></trkpt><trkpt lat="44.63757347935962" lon="7.859980367596597"><ele>288.00000000000006</ele><time>2026-04-11T15:03:07Z</time></trkpt><trkpt lat="44.63763862749223" lon="7.859981130702877"><ele>288.0</ele><time>2026-04-11T15:03:08Z</time></trkpt><trkpt lat="44.63770303753593" lon="7.860008203199839"><ele>288.0</ele><time>2026-04-11T15:03:09Z</time></trkpt><trkpt lat="44.63776975861223" lon="7.860012420454894"><ele>288.0</ele><time>2026-04-11T15:03:10Z</time></trkpt><trkpt lat="44.63783587931143" lon="7.860013853213491"><ele>288.0</ele><time>2026-04-11T15:03:11Z</time></trkpt><trkpt lat="44.63790250357684" lon="7.86001529688281"><ele>288.00000000000006</ele><time>2026-04-11T15:03:12Z</time></trkpt><trkpt lat="44.63796737601433" lon="7.859994099273303"><ele>288.0</ele><time>2026-04-11T15:03:13Z</time></trkpt><trkpt lat="44.63803175312476" lon="7.860002818339539"><ele>287.8571428571429</ele><time>2026-04-11T15:03:14Z</time></trkpt><trkpt lat="44.63809838490856" lon="7.860007822569666"><ele>287.7142857142857</ele><time>2026-04-11T15:03:15Z</time></trkpt><trkpt lat="44.638164249834375" lon="7.8600104564113344"><ele>287.57142857142856</ele><time>2026-04-11T15:03:16Z</time></trkpt><trkpt lat="44.63823058791307" lon="7.860009354083142"><ele>287.42857142857144</ele><time>2026-04-11T15:03:17Z</time></trkpt><trkpt lat="44.63829629959841" lon="7.8600094335059945"><ele>287.2857142857143</ele><time>2026-04-11T15:03:17.999Z</time></trkpt><trkpt lat="44.63836147679117" lon="7.860009013671792"><ele>287.14285714285717</ele><time>2026-04-11T15:03:18.999Z</time></trkpt><trkpt lat="44.6384269826823" lon="7.860002523783167"><ele>287.0</ele><time>2026-04-11T15:03:19.999Z</time></trkpt><trkpt lat="44.63849098185492" lon="7.85999437022843"><ele>287.0</ele><time>2026-04-11T15:03:20.999Z</time></trkpt><trkpt lat="44.638556752728945" lon="7.85998797659067"><ele>287.0</ele><time>2026-04-11T15:03:21.999Z</time></trkpt><trkpt lat="44.63862072661762" lon="7.859983712800098"><ele>287.0</ele><time>2026-04-11T15:03:22.999Z</time></trkpt><trkpt lat="44.6386858234092" lon="7.85997949991734"><ele>287.0</ele><time>2026-04-11T15:03:23.999Z</time></trkpt><trkpt lat="44.63875062228222" lon="7.859974823832612"><ele>287.0</ele><time>2026-04-11T15:03:24.999Z</time></trkpt><trkpt lat="44.638814094357805" lon="7.85996830307252"><ele>287.0</ele><time>2026-04-11T15:03:25.999Z</time></trkpt><trkpt lat="44.6388776900114" lon="7.859962266241625"><ele>287.0</ele><time>2026-04-11T15:03:26.999Z</time></trkpt><trkpt lat="44.63900162656664" lon="7.859938666624513"><ele>286.85714285714283</ele><time>2026-04-11T15:03:28.999Z</time></trkpt><trkpt lat="44.639065491740794" lon="7.859933572591875"><ele>286.7142857142857</ele><time>2026-04-11T15:03:29.999Z</time></trkpt><trkpt lat="44.639130776162155" lon="7.859948620264908"><ele>286.57142857142856</ele><time>2026-04-11T15:03:30.999Z</time></trkpt><trkpt lat="44.63919651005" lon="7.859941822924669"><ele>286.42857142857144</ele><time>2026-04-11T15:03:31.999Z</time></trkpt><trkpt lat="44.63926230013568" lon="7.859935019773069"><ele>286.2857142857143</ele><time>2026-04-11T15:03:32.999Z</time></trkpt><trkpt lat="44.63932810234689" lon="7.859928872787336"><ele>286.1428571428571</ele><time>2026-04-11T15:03:33.999Z</time></trkpt><trkpt lat="44.63939177484181" lon="7.859906408150824"><ele>286.0</ele><time>2026-04-11T15:03:34.999Z</time></trkpt><trkpt lat="44.63945617573951" lon="7.85990713330767"><ele>286.0</ele><time>2026-04-11T15:03:35.999Z</time></trkpt><trkpt lat="44.63951922454516" lon="7.859903279888304"><ele>286.0</ele><time>2026-04-11T15:03:36.999Z</time></trkpt><trkpt lat="44.63958216305903" lon="7.859894157539211"><ele>286.0</ele><time>2026-04-11T15:03:37.999Z</time></trkpt><trkpt lat="44.639644913656426" lon="7.859882284198745"><ele>286.0</ele><time>2026-04-11T15:03:38.999Z</time></trkpt><trkpt lat="44.639707196001595" lon="7.859867676145274"><ele>286.0</ele><time>2026-04-11T15:03:39.999Z</time></trkpt><trkpt lat="44.63982651636338" lon="7.859824960996447"><ele>286.0</ele><time>2026-04-11T15:03:41.999Z</time></trkpt><trkpt lat="44.63994914509143" lon="7.859845295747865"><ele>286.0</ele><time>2026-04-11T15:03:43.999Z</time></trkpt><trkpt lat="44.640012919465256" lon="7.859843122359571"><ele>286.0</ele><time>2026-04-11T15:03:44.999Z</time></trkpt><trkpt lat="44.640137208532614" lon="7.859839422200288"><ele>286.0</ele><time>2026-04-11T15:03:46.999Z</time></trkpt><trkpt lat="44.64025867137705" lon="7.859852612437412"><ele>286.0</ele><time>2026-04-11T15:03:48.999Z</time></trkpt><trkpt lat="44.64037228351382" lon="7.8598747823309445"><ele>286.0</ele><time>2026-04-11T15:03:50.999Z</time></trkpt><trkpt lat="44.64048832472033" lon="7.859898821877795"><ele>285.75</ele><time>2026-04-11T15:03:52.999Z</time></trkpt><trkpt lat="44.640605513686566" lon="7.859920679557599"><ele>285.5</ele><time>2026-04-11T15:03:54.999Z</time></trkpt><trkpt lat="44.64072600386532" lon="7.859929347482559"><ele>285.25</ele><time>2026-04-11T15:03:56.999Z</time></trkpt><trkpt lat="44.64083777633535" lon="7.859942882548785"><ele>285.0</ele><time>2026-04-11T15:03:58.999Z</time></trkpt><trkpt lat="44.64094837286998" lon="7.859982147534842"><ele>285.0</ele><time>2026-04-11T15:04:00.999Z</time></trkpt><trkpt lat="44.641060473219135" lon="7.8600301262602805"><ele>285.0</ele><time>2026-04-11T15:04:02.999Z</time></trkpt><trkpt lat="44.64111858761117" lon="7.8600666202631695"><ele>285.0</ele><time>2026-04-11T15:04:03.999Z</time></trkpt><trkpt lat="44.64122770359301" lon="7.860141591025038"><ele>285.0</ele><time>2026-04-11T15:04:05.999Z</time></trkpt><trkpt lat="44.641333692762636" lon="7.860226371307179"><ele>285.0</ele><time>2026-04-11T15:04:07.999Z</time></trkpt><trkpt lat="44.64138985703811" lon="7.860271405621476"><ele>284.0</ele><time>2026-04-11T15:04:08.999Z</time></trkpt><trkpt lat="44.64144756170861" lon="7.8603156666335074"><ele>283.0</ele><time>2026-04-11T15:04:09.999Z</time></trkpt><trkpt lat="44.64151023439846" lon="7.860351720764945"><ele>282.0</ele><time>2026-04-11T15:04:10.999Z</time></trkpt><trkpt lat="44.64157668988845" lon="7.860371240448397"><ele>281.0</ele><time>2026-04-11T15:04:11.999Z</time></trkpt><trkpt lat="44.64169996151172" lon="7.8604068806860505"><ele>280.0</ele><time>2026-04-11T15:04:13.999Z</time></trkpt><trkpt lat="44.64182158689198" lon="7.860425834698707"><ele>280.0</ele><time>2026-04-11T15:04:15.999Z</time></trkpt><trkpt lat="44.641943181327704" lon="7.860444198264286"><ele>280.0</ele><time>2026-04-11T15:04:17.999Z</time></trkpt><trkpt lat="44.642061654462395" lon="7.860457904779385"><ele>280.0</ele><time>2026-04-11T15:04:19.999Z</time></trkpt><trkpt lat="44.64218472771033" lon="7.860472143329539"><ele>280.0</ele><time>2026-04-11T15:04:21.999Z</time></trkpt><trkpt lat="44.642304106396" lon="7.86049262625606"><ele>280.6</ele><time>2026-04-11T15:04:23.999Z</time></trkpt><trkpt lat="44.64242433889456" lon="7.860511529030122"><ele>281.2</ele><time>2026-04-11T15:04:25.999Z</time></trkpt><trkpt lat="44.64254317960206" lon="7.860513454530856"><ele>281.8</ele><time>2026-04-11T15:04:27.999Z</time></trkpt><trkpt lat="44.64260025923097" lon="7.860552204641516"><ele>282.4</ele><time>2026-04-11T15:04:28.999Z</time></trkpt><trkpt lat="44.64270689493507" lon="7.8606297098748374"><ele>283.0</ele><time>2026-04-11T15:04:30.999Z</time></trkpt><trkpt lat="44.64276758257507" lon="7.86067373336304"><ele>282.7142857142857</ele><time>2026-04-11T15:04:31.999Z</time></trkpt><trkpt lat="44.6428244269829" lon="7.8607368766610595"><ele>282.42857142857144</ele><time>2026-04-11T15:04:32.999Z</time></trkpt><trkpt lat="44.64288518535937" lon="7.860790148815986"><ele>282.14285714285717</ele><time>2026-04-11T15:04:33.999Z</time></trkpt><trkpt lat="44.64294306812595" lon="7.860840916447658"><ele>281.8571428571429</ele><time>2026-04-11T15:04:34.999Z</time></trkpt><trkpt lat="44.643006895222385" lon="7.860870088337883"><ele>281.57142857142856</ele><time>2026-04-11T15:04:35.999Z</time></trkpt><trkpt lat="44.6430670311534" lon="7.860932992303743"><ele>281.28571428571433</ele><time>2026-04-11T15:04:36.999Z</time></trkpt><trkpt lat="44.64312587355601" lon="7.860992236415227"><ele>281.0</ele><time>2026-04-11T15:04:37.999Z</time></trkpt><trkpt lat="44.64318821665899" lon="7.86103916757554"><ele>281.00000000000006</ele><time>2026-04-11T15:04:39Z</time></trkpt><trkpt lat="44.64324850495048" lon="7.861080009404583"><ele>281.0</ele><time>2026-04-11T15:04:40Z</time></trkpt><trkpt lat="44.64330768045154" lon="7.861139393821549"><ele>281.0</ele><time>2026-04-11T15:04:41Z</time></trkpt><trkpt lat="44.6433834984564" lon="7.861139511640424"><ele>281.0</ele><time>2026-04-11T15:04:42Z</time></trkpt><trkpt lat="44.643451938003786" lon="7.861159766985196"><ele>281.0</ele><time>2026-04-11T15:04:43Z</time></trkpt><trkpt lat="44.64352013974189" lon="7.861180940576161"><ele>281.00000000000006</ele><time>2026-04-11T15:04:44Z</time></trkpt><trkpt lat="44.643586511338654" lon="7.861201860234566"><ele>281.0</ele><time>2026-04-11T15:04:45Z</time></trkpt><trkpt lat="44.64365748674843" lon="7.861221220814736"><ele>281.5714285714286</ele><time>2026-04-11T15:04:46Z</time></trkpt><trkpt lat="44.643724788692694" lon="7.861241956062082"><ele>282.14285714285717</ele><time>2026-04-11T15:04:47Z</time></trkpt><trkpt lat="44.64379050885198" lon="7.861272356045467"><ele>282.7142857142857</ele><time>2026-04-11T15:04:48Z</time></trkpt><trkpt lat="44.64385091449735" lon="7.861309253658022"><ele>283.28571428571433</ele><time>2026-04-11T15:04:49Z</time></trkpt><trkpt lat="44.643906580618804" lon="7.861350775997032"><ele>283.8571428571429</ele><time>2026-04-11T15:04:50Z</time></trkpt><trkpt lat="44.64396269251369" lon="7.861404407547984"><ele>284.42857142857144</ele><time>2026-04-11T15:04:51Z</time></trkpt><trkpt lat="44.644024307334966" lon="7.861443800912458"><ele>285.0</ele><time>2026-04-11T15:04:52Z</time></trkpt><trkpt lat="44.644078283980114" lon="7.861511142823348"><ele>285.0</ele><time>2026-04-11T15:04:53Z</time></trkpt><trkpt lat="44.64413362803016" lon="7.8615587989593525"><ele>285.0</ele><time>2026-04-11T15:04:54Z</time></trkpt><trkpt lat="44.64424119142654" lon="7.861646525999525"><ele>285.0</ele><time>2026-04-11T15:04:56Z</time></trkpt><trkpt lat="44.644300708550816" lon="7.861682450435486"><ele>285.0</ele><time>2026-04-11T15:04:57Z</time></trkpt><trkpt lat="44.6443659404046" lon="7.8616896900078554"><ele>285.0</ele><time>2026-04-11T15:04:58Z</time></trkpt><trkpt lat="44.64448216478194" lon="7.861748158658571"><ele>285.0</ele><time>2026-04-11T15:05:00Z</time></trkpt><trkpt lat="44.644596984994315" lon="7.861800484435992"><ele>283.4</ele><time>2026-04-11T15:05:02Z</time></trkpt><trkpt lat="44.644709809265514" lon="7.861865877594603"><ele>281.8</ele><time>2026-04-11T15:05:04Z</time></trkpt><trkpt lat="44.644824354486836" lon="7.861905343611272"><ele>280.2</ele><time>2026-04-11T15:05:06Z</time></trkpt><trkpt lat="44.64494524202626" lon="7.861944095232668"><ele>278.6</ele><time>2026-04-11T15:05:08Z</time></trkpt><trkpt lat="44.645008166809575" lon="7.861961524738064"><ele>277.0</ele><time>2026-04-11T15:05:09Z</time></trkpt><trkpt lat="44.645072688169684" lon="7.861959010820402"><ele>277.0</ele><time>2026-04-11T15:05:10Z</time></trkpt><trkpt lat="44.645196418712466" lon="7.861999918434789"><ele>277.0</ele><time>2026-04-11T15:05:12Z</time></trkpt><trkpt lat="44.64526214954079" lon="7.862004833980765"><ele>277.0</ele><time>2026-04-11T15:05:13Z</time></trkpt><trkpt lat="44.645328662887245" lon="7.862005217021048"><ele>277.0</ele><time>2026-04-11T15:05:13.999Z</time></trkpt><trkpt lat="44.64539492075809" lon="7.862003165504779"><ele>277.0</ele><time>2026-04-11T15:05:14.999Z</time></trkpt><trkpt lat="44.645460095524584" lon="7.861976591480426"><ele>277.0</ele><time>2026-04-11T15:05:15.999Z</time></trkpt><trkpt lat="44.645522048479606" lon="7.861996714930352"><ele>277.0</ele><time>2026-04-11T15:05:16.999Z</time></trkpt><trkpt lat="44.64558518664753" lon="7.861994458783631"><ele>277.0</ele><time>2026-04-11T15:05:17.999Z</time></trkpt><trkpt lat="44.64564796627136" lon="7.861969761176279"><ele>277.0</ele><time>2026-04-11T15:05:18.999Z</time></trkpt><trkpt lat="44.64571150791727" lon="7.861975162007504"><ele>277.0</ele><time>2026-04-11T15:05:19.999Z</time></trkpt><trkpt lat="44.64577722570832" lon="7.861980754707874"><ele>277.0</ele><time>2026-04-11T15:05:20.999Z</time></trkpt><trkpt lat="44.64590406050231" lon="7.861983616844206"><ele>277.0</ele><time>2026-04-11T15:05:22.999Z</time></trkpt><trkpt lat="44.64596806884177" lon="7.861980891110617"><ele>277.0</ele><time>2026-04-11T15:05:23.999Z</time></trkpt><trkpt lat="44.64603266377057" lon="7.861979401701822"><ele>277.0</ele><time>2026-04-11T15:05:24.999Z</time></trkpt><trkpt lat="44.64609687970236" lon="7.861975842803655"><ele>277.0</ele><time>2026-04-11T15:05:25.999Z</time></trkpt><trkpt lat="44.64622179038032" lon="7.861993842972999"><ele>277.0</ele><time>2026-04-11T15:05:27.999Z</time></trkpt><trkpt lat="44.64628283352258" lon="7.861971612055307"><ele>277.0</ele><time>2026-04-11T15:05:28.999Z</time></trkpt><trkpt lat="44.64640372392801" lon="7.8619498704416575"><ele>277.0</ele><time>2026-04-11T15:05:30.999Z</time></trkpt><trkpt lat="44.64651614374342" lon="7.861912918226131"><ele>275.75</ele><time>2026-04-11T15:05:32.999Z</time></trkpt><trkpt lat="44.64662536941016" lon="7.861858069826238"><ele>274.5</ele><time>2026-04-11T15:05:34.999Z</time></trkpt><trkpt lat="44.64674651090161" lon="7.861837337677503"><ele>273.25</ele><time>2026-04-11T15:05:36.999Z</time></trkpt><trkpt lat="44.646866208739354" lon="7.861799345645904"><ele>272.0</ele><time>2026-04-11T15:05:38.999Z</time></trkpt><trkpt lat="44.646985738605466" lon="7.861772339928692"><ele>274.2857142857143</ele><time>2026-04-11T15:05:40.999Z</time></trkpt><trkpt lat="44.64704651329028" lon="7.861744372928352"><ele>276.57142857142856</ele><time>2026-04-11T15:05:41.999Z</time></trkpt><trkpt lat="44.64711311045793" lon="7.861745032037704"><ele>278.8571428571429</ele><time>2026-04-11T15:05:42.999Z</time></trkpt><trkpt lat="44.647176961117516" lon="7.861745731345225"><ele>281.1428571428571</ele><time>2026-04-11T15:05:43.999Z</time></trkpt><trkpt lat="44.64724226094843" lon="7.86174297153895"><ele>283.42857142857144</ele><time>2026-04-11T15:05:44.999Z</time></trkpt><trkpt lat="44.64730690361227" lon="7.861736822400532"><ele>285.7142857142857</ele><time>2026-04-11T15:05:45.999Z</time></trkpt><trkpt lat="44.64737003604262" lon="7.861728249145393"><ele>288.0</ele><time>2026-04-11T15:05:46.999Z</time></trkpt><trkpt lat="44.6474955016959" lon="7.861716303415328"><ele>288.0</ele><time>2026-04-11T15:05:48.999Z</time></trkpt><trkpt lat="44.64761008260737" lon="7.86166581917238"><ele>288.0</ele><time>2026-04-11T15:05:50.999Z</time></trkpt><trkpt lat="44.647699793968606" lon="7.861554928579143"><ele>288.0</ele><time>2026-04-11T15:05:52.999Z</time></trkpt><trkpt lat="44.64774023839314" lon="7.861456117763972"><ele>288.0</ele><time>2026-04-11T15:05:54.999Z</time></trkpt><trkpt lat="44.64776861357108" lon="7.861358147894553"><ele>288.0</ele><time>2026-04-11T15:05:56.999Z</time></trkpt><trkpt lat="44.64781816309286" lon="7.861257857118155"><ele>287.8</ele><time>2026-04-11T15:05:58.999Z</time></trkpt><trkpt lat="44.647907496555405" lon="7.8611901186428375"><ele>287.6</ele><time>2026-04-11T15:06:00.999Z</time></trkpt><trkpt lat="44.648018514003155" lon="7.861209954503603"><ele>287.4</ele><time>2026-04-11T15:06:02.999Z</time></trkpt><trkpt lat="44.6481312180866" lon="7.861206280402458"><ele>287.2</ele><time>2026-04-11T15:06:04.999Z</time></trkpt><trkpt lat="44.64824486938176" lon="7.861205654900714"><ele>287.0</ele><time>2026-04-11T15:06:06.999Z</time></trkpt><trkpt lat="44.648358224845275" lon="7.861190158806371"><ele>287.0</ele><time>2026-04-11T15:06:08.999Z</time></trkpt><trkpt lat="44.648472005032396" lon="7.861181859994722"><ele>287.0</ele><time>2026-04-11T15:06:10.999Z</time></trkpt><trkpt lat="44.64858885237326" lon="7.861177742233616"><ele>287.0</ele><time>2026-04-11T15:06:12.999Z</time></trkpt><trkpt lat="44.64870510767957" lon="7.861176846065614"><ele>287.0</ele><time>2026-04-11T15:06:14.999Z</time></trkpt><trkpt lat="44.64881571250112" lon="7.861168354205902"><ele>287.8</ele><time>2026-04-11T15:06:16.999Z</time></trkpt><trkpt lat="44.648920968635025" lon="7.861159623174537"><ele>288.6</ele><time>2026-04-11T15:06:18.999Z</time></trkpt><trkpt lat="44.64901835554478" lon="7.8611651322652465"><ele>289.40000000000003</ele><time>2026-04-11T15:06:20.999Z</time></trkpt><trkpt lat="44.64911300319448" lon="7.861184177837733"><ele>290.2</ele><time>2026-04-11T15:06:22.999Z</time></trkpt><trkpt lat="44.64920500848445" lon="7.861179117977004"><ele>291.0</ele><time>2026-04-11T15:06:24.999Z</time></trkpt><trkpt lat="44.649300128341736" lon="7.861176213221678"><ele>291.0</ele><time>2026-04-11T15:06:26.999Z</time></trkpt><trkpt lat="44.649399339654295" lon="7.861173618938147"><ele>291.0</ele><time>2026-04-11T15:06:28.999Z</time></trkpt><trkpt lat="44.64949802677313" lon="7.861160395324501"><ele>291.0</ele><time>2026-04-11T15:06:30.999Z</time></trkpt><trkpt lat="44.64958541137645" lon="7.861131260749443"><ele>291.0</ele><time>2026-04-11T15:06:32.999Z</time></trkpt><trkpt lat="44.64965281744095" lon="7.861051242205723"><ele>291.0</ele><time>2026-04-11T15:06:34.999Z</time></trkpt><trkpt lat="44.64962571260105" lon="7.8608827993828685"><ele>291.0</ele><time>2026-04-11T15:06:36.999Z</time></trkpt><trkpt lat="44.649621325569456" lon="7.860768526958963"><ele>291.0</ele><time>2026-04-11T15:06:38.999Z</time></trkpt><trkpt lat="44.649614865881055" lon="7.860605557648364"><ele>291.0</ele><time>2026-04-11T15:06:40.999Z</time></trkpt><trkpt lat="44.649612111295774" lon="7.860441388067625"><ele>291.0</ele><time>2026-04-11T15:06:42.999Z</time></trkpt><trkpt lat="44.64961582909293" lon="7.860291434035291"><ele>291.0</ele><time>2026-04-11T15:06:45Z</time></trkpt><trkpt lat="44.64960791424692" lon="7.860130614279327"><ele>290.8</ele><time>2026-04-11T15:06:47Z</time></trkpt><trkpt lat="44.64962013941228" lon="7.859969510854643"><ele>290.6</ele><time>2026-04-11T15:06:49Z</time></trkpt><trkpt lat="44.64962043389286" lon="7.859800825148907"><ele>290.4</ele><time>2026-04-11T15:06:51Z</time></trkpt><trkpt lat="44.649610511509565" lon="7.859630542692461"><ele>290.2</ele><time>2026-04-11T15:06:53Z</time></trkpt><trkpt lat="44.649609551507176" lon="7.859533990649285"><ele>290.0</ele><time>2026-04-11T15:06:54Z</time></trkpt><trkpt lat="44.64960695480644" lon="7.8594404687856665"><ele>290.0</ele><time>2026-04-11T15:06:55Z</time></trkpt><trkpt lat="44.64960054195238" lon="7.8592691768398595"><ele>290.0</ele><time>2026-04-11T15:06:57Z</time></trkpt><trkpt lat="44.64959319457518" lon="7.859172710885866"><ele>290.0</ele><time>2026-04-11T15:06:58Z</time></trkpt><trkpt lat="44.64958996913" lon="7.859082590405405"><ele>290.0</ele><time>2026-04-11T15:06:59Z</time></trkpt><trkpt lat="44.64959415767725" lon="7.858993810823342"><ele>290.0</ele><time>2026-04-11T15:07:00Z</time></trkpt><trkpt lat="44.64959359216769" lon="7.858828626420606"><ele>290.0</ele><time>2026-04-11T15:07:02Z</time></trkpt><trkpt lat="44.64958833773847" lon="7.8587399921476555"><ele>290.0</ele><time>2026-04-11T15:07:03Z</time></trkpt><trkpt lat="44.649581340552274" lon="7.858579680548608"><ele>290.0</ele><time>2026-04-11T15:07:05Z</time></trkpt><trkpt lat="44.649569208760376" lon="7.85842882457756"><ele>290.0</ele><time>2026-04-11T15:07:07Z</time></trkpt><trkpt lat="44.64956569217548" lon="7.858287087490542"><ele>290.0</ele><time>2026-04-11T15:07:08.999Z</time></trkpt><trkpt lat="44.64958637041442" lon="7.858192779428133"><ele>290.0</ele><time>2026-04-11T15:07:11.999Z</time></trkpt><trkpt lat="44.64967449997519" lon="7.8581804747563835"><ele>290.4</ele><time>2026-04-11T15:07:14.999Z</time></trkpt><trkpt lat="44.649771349657975" lon="7.8582134425462495"><ele>290.8</ele><time>2026-04-11T15:07:17Z</time></trkpt><trkpt lat="44.649866831852336" lon="7.858187512260221"><ele>291.2</ele><time>2026-04-11T15:07:19Z</time></trkpt><trkpt lat="44.64996661209809" lon="7.8581820235447655"><ele>291.6</ele><time>2026-04-11T15:07:21Z</time></trkpt><trkpt lat="44.65005979109357" lon="7.85817741706777"><ele>292.0</ele><time>2026-04-11T15:07:23Z</time></trkpt><trkpt lat="44.65015378724878" lon="7.858173811172481"><ele>292.0</ele><time>2026-04-11T15:07:25Z</time></trkpt><trkpt lat="44.650265488822484" lon="7.858159981267673"><ele>292.0</ele><time>2026-04-11T15:07:27Z</time></trkpt><trkpt lat="44.65038552696388" lon="7.858149096629551"><ele>292.0</ele><time>2026-04-11T15:07:29Z</time></trkpt><trkpt lat="44.65045226675667" lon="7.858150680473147"><ele>292.0</ele><time>2026-04-11T15:07:30Z</time></trkpt><trkpt lat="44.65057689395021" lon="7.858148271764481"><ele>292.0</ele><time>2026-04-11T15:07:32Z</time></trkpt><trkpt lat="44.65064189038489" lon="7.858153889278886"><ele>292.1428571428571</ele><time>2026-04-11T15:07:33Z</time></trkpt><trkpt lat="44.65070586142309" lon="7.8581565570296785"><ele>292.2857142857143</ele><time>2026-04-11T15:07:34Z</time></trkpt><trkpt lat="44.650770779914744" lon="7.858154882702496"><ele>292.42857142857144</ele><time>2026-04-11T15:07:35Z</time></trkpt><trkpt lat="44.65083454392931" lon="7.85815183793014"><ele>292.57142857142856</ele><time>2026-04-11T15:07:36Z</time></trkpt><trkpt lat="44.6508985607954" lon="7.85814699638517"><ele>292.7142857142857</ele><time>2026-04-11T15:07:37Z</time></trkpt><trkpt lat="44.650963438021876" lon="7.858144230442897"><ele>292.85714285714283</ele><time>2026-04-11T15:07:38Z</time></trkpt><trkpt lat="44.651028283054394" lon="7.858141303284563"><ele>293.0</ele><time>2026-04-11T15:07:39Z</time></trkpt><trkpt lat="44.65115145363615" lon="7.858128167391042"><ele>293.0</ele><time>2026-04-11T15:07:41Z</time></trkpt><trkpt lat="44.65121538993947" lon="7.858123319447442"><ele>293.0</ele><time>2026-04-11T15:07:42Z</time></trkpt><trkpt lat="44.65128041092623" lon="7.8581166809759155"><ele>293.0</ele><time>2026-04-11T15:07:43Z</time></trkpt><trkpt lat="44.65140025482733" lon="7.858105866874879"><ele>293.0</ele><time>2026-04-11T15:07:45Z</time></trkpt><trkpt lat="44.65151944389756" lon="7.85810399211125"><ele>293.0</ele><time>2026-04-11T15:07:47Z</time></trkpt><trkpt lat="44.651639608364185" lon="7.858099851065199"><ele>293.0</ele><time>2026-04-11T15:07:49Z</time></trkpt><trkpt lat="44.651753119933055" lon="7.8580890382305215"><ele>293.0</ele><time>2026-04-11T15:07:51Z</time></trkpt><trkpt lat="44.65186519737804" lon="7.858087369029083"><ele>293.0</ele><time>2026-04-11T15:07:53Z</time></trkpt><trkpt lat="44.65197348120895" lon="7.8580698845975725"><ele>293.0</ele><time>2026-04-11T15:07:55Z</time></trkpt><trkpt lat="44.65204376519805" lon="7.8580657316744364"><ele>293.0</ele><time>2026-04-11T15:07:57Z</time></trkpt><trkpt lat="44.65211815032293" lon="7.858071100531152"><ele>293.0</ele><time>2026-04-11T15:07:59Z</time></trkpt><trkpt lat="44.65230854538955" lon="7.858068167512511"><ele>293.0</ele><time>2026-04-11T15:08:04Z</time></trkpt><trkpt lat="44.652396538734685" lon="7.858067701942377"><ele>293.0</ele><time>2026-04-11T15:08:06Z</time></trkpt><trkpt lat="44.65249169538318" lon="7.858061003133545"><ele>293.0</ele><time>2026-04-11T15:08:08Z</time></trkpt><trkpt lat="44.652590157319935" lon="7.8580516222957"><ele>293.0</ele><time>2026-04-11T15:08:10Z</time></trkpt><trkpt lat="44.6526935841988" lon="7.8580454183857915"><ele>293.0</ele><time>2026-04-11T15:08:12Z</time></trkpt><trkpt lat="44.65281006172851" lon="7.858032284578153"><ele>293.0</ele><time>2026-04-11T15:08:15Z</time></trkpt><trkpt lat="44.652889792493625" lon="7.858025305997302"><ele>293.0</ele><time>2026-04-11T15:08:16Z</time></trkpt><trkpt lat="44.652979176903315" lon="7.858028398215709"><ele>293.0</ele><time>2026-04-11T15:08:18Z</time></trkpt><trkpt lat="44.653073067505076" lon="7.858026201634296"><ele>292.8</ele><time>2026-04-11T15:08:20Z</time></trkpt><trkpt lat="44.65316900029134" lon="7.8580211342098165"><ele>292.6</ele><time>2026-04-11T15:08:22Z</time></trkpt><trkpt lat="44.65326994383291" lon="7.858012918652301"><ele>292.4</ele><time>2026-04-11T15:08:24Z</time></trkpt><trkpt lat="44.6533727057422" lon="7.858012974738349"><ele>292.2</ele><time>2026-04-11T15:08:26Z</time></trkpt><trkpt lat="44.65347854321011" lon="7.858011941016324"><ele>292.0</ele><time>2026-04-11T15:08:28Z</time></trkpt><trkpt lat="44.65357993584163" lon="7.8580078467883245"><ele>292.0</ele><time>2026-04-11T15:08:30Z</time></trkpt><trkpt lat="44.65374939682078" lon="7.857988482612725"><ele>292.0</ele><time>2026-04-11T15:08:33Z</time></trkpt><trkpt lat="44.65383287796491" lon="7.85798284956807"><ele>292.0</ele><time>2026-04-11T15:08:35Z</time></trkpt><trkpt lat="44.65390772231472" lon="7.857977799462175"><ele>292.0</ele><time>2026-04-11T15:08:37Z</time></trkpt><trkpt lat="44.65387082527911" lon="7.857878626320646"><ele>292.0</ele><time>2026-04-11T15:08:41Z</time></trkpt><trkpt lat="44.653913754595784" lon="7.857785209559519"><ele>292.0</ele><time>2026-04-11T15:08:42Z</time></trkpt><trkpt lat="44.65390542922584" lon="7.857684648411429"><ele>292.0</ele><time>2026-04-11T15:08:43Z</time></trkpt><trkpt lat="44.65388652943646" lon="7.857580921515483"><ele>292.0</ele><time>2026-04-11T15:08:44Z</time></trkpt><trkpt lat="44.653872440658795" lon="7.857411336532556"><ele>292.0</ele><time>2026-04-11T15:08:46Z</time></trkpt><trkpt lat="44.6538658155496" lon="7.8572587108126255"><ele>292.0</ele><time>2026-04-11T15:08:48Z</time></trkpt><trkpt lat="44.65386149194951" lon="7.857103553268225"><ele>292.0</ele><time>2026-04-11T15:08:50Z</time></trkpt><trkpt lat="44.6538628520129" lon="7.856942105681816"><ele>292.0</ele><time>2026-04-11T15:08:52.001Z</time></trkpt><trkpt lat="44.65388236031271" lon="7.856851856630096"><ele>292.0</ele><time>2026-04-11T15:08:53.001Z</time></trkpt><trkpt lat="44.65387871651791" lon="7.856694048927749"><ele>292.0</ele><time>2026-04-11T15:08:55.001Z</time></trkpt><trkpt lat="44.653852035918426" lon="7.856611346151344"><ele>292.0</ele><time>2026-04-11T15:08:56.001Z</time></trkpt><trkpt lat="44.653848187738845" lon="7.8565157828063406"><ele>292.0</ele><time>2026-04-11T15:08:57.001Z</time></trkpt><trkpt lat="44.65384439846975" lon="7.856422925325533"><ele>292.25</ele><time>2026-04-11T15:08:58.001Z</time></trkpt><trkpt lat="44.65384290619837" lon="7.856257051762532"><ele>292.5</ele><time>2026-04-11T15:09:00.001Z</time></trkpt><trkpt lat="44.653805316110606" lon="7.856098209577611"><ele>292.75</ele><time>2026-04-11T15:09:02.001Z</time></trkpt><trkpt lat="44.653799195960815" lon="7.855945493728341"><ele>293.0</ele><time>2026-04-11T15:09:04.001Z</time></trkpt><trkpt lat="44.65380069403752" lon="7.855783354660026"><ele>292.2</ele><time>2026-04-11T15:09:06Z</time></trkpt><trkpt lat="44.65379414100796" lon="7.855596151089312"><ele>291.4</ele><time>2026-04-11T15:09:08Z</time></trkpt><trkpt lat="44.65379236834205" lon="7.855487026216397"><ele>290.59999999999997</ele><time>2026-04-11T15:09:09Z</time></trkpt><trkpt lat="44.65378139343164" lon="7.855369588399793"><ele>289.8</ele><time>2026-04-11T15:09:10Z</time></trkpt><trkpt lat="44.65376781600045" lon="7.855245447250937"><ele>289.0</ele><time>2026-04-11T15:09:11Z</time></trkpt><trkpt lat="44.65375225318317" lon="7.855121281820465"><ele>287.8333333333333</ele><time>2026-04-11T15:09:12Z</time></trkpt><trkpt lat="44.65374157216293" lon="7.855020162281923"><ele>286.66666666666663</ele><time>2026-04-11T15:09:13Z</time></trkpt><trkpt lat="44.65373801168175" lon="7.854894114057521"><ele>285.5</ele><time>2026-04-11T15:09:15Z</time></trkpt><trkpt lat="44.65372738184812" lon="7.854806562359198"><ele>284.3333333333333</ele><time>2026-04-11T15:09:17Z</time></trkpt><trkpt lat="44.653842576702715" lon="7.854760758547278"><ele>283.1666666666667</ele><time>2026-04-11T15:09:18Z</time></trkpt><trkpt lat="44.65390735870067" lon="7.854727158444972"><ele>282.0</ele><time>2026-04-11T15:09:19Z</time></trkpt><trkpt lat="44.653982137707814" lon="7.8546918189687895"><ele>282.0</ele><time>2026-04-11T15:09:20Z</time></trkpt><trkpt lat="44.6540610296018" lon="7.854651906677836"><ele>282.0</ele><time>2026-04-11T15:09:21Z</time></trkpt><trkpt lat="44.65414776261842" lon="7.854605640590467"><ele>282.0</ele><time>2026-04-11T15:09:22Z</time></trkpt><trkpt lat="44.65423475052396" lon="7.854544980946258"><ele>282.0</ele><time>2026-04-11T15:09:23Z</time></trkpt><trkpt lat="44.65432324204394" lon="7.854466755859708"><ele>282.0</ele><time>2026-04-11T15:09:24Z</time></trkpt><trkpt lat="44.6544054659063" lon="7.854366150699166"><ele>278.25</ele><time>2026-04-11T15:09:25Z</time></trkpt><trkpt lat="44.65448514189384" lon="7.854256096578917"><ele>274.5</ele><time>2026-04-11T15:09:26Z</time></trkpt><trkpt lat="44.654569884576446" lon="7.854140442938998"><ele>270.75</ele><time>2026-04-11T15:09:27Z</time></trkpt><trkpt lat="44.65465773918467" lon="7.854028462143871"><ele>267.0</ele><time>2026-04-11T15:09:28Z</time></trkpt><trkpt lat="44.65476134150617" lon="7.853944434489634"><ele>267.0</ele><time>2026-04-11T15:09:29Z</time></trkpt><trkpt lat="44.65487728304061" lon="7.8539626532773665"><ele>267.0</ele><time>2026-04-11T15:09:30Z</time></trkpt><trkpt lat="44.654990237704496" lon="7.854002884302955"><ele>267.0</ele><time>2026-04-11T15:09:31Z</time></trkpt><trkpt lat="44.655062034857636" lon="7.854138371204862"><ele>267.0</ele><time>2026-04-11T15:09:32Z</time></trkpt><trkpt lat="44.65512109944049" lon="7.854277570053793"><ele>264.0</ele><time>2026-04-11T15:09:33Z</time></trkpt><trkpt lat="44.65516010392487" lon="7.854407615563172"><ele>261.0</ele><time>2026-04-11T15:09:34Z</time></trkpt><trkpt lat="44.65521486974056" lon="7.854501865812087"><ele>258.0</ele><time>2026-04-11T15:09:35Z</time></trkpt><trkpt lat="44.65531570439234" lon="7.854590449170553"><ele>255.0</ele><time>2026-04-11T15:09:37Z</time></trkpt><trkpt lat="44.655400443900064" lon="7.854444730392902"><ele>252.0</ele><time>2026-04-11T15:09:38Z</time></trkpt><trkpt lat="44.65533111956227" lon="7.854283350279111"><ele>254.5</ele><time>2026-04-11T15:09:39Z</time></trkpt><trkpt lat="44.65529091371085" lon="7.8541769026737605"><ele>257.0</ele><time>2026-04-11T15:09:40Z</time></trkpt><trkpt lat="44.65525828885698" lon="7.854067150516966"><ele>259.5</ele><time>2026-04-11T15:09:41Z</time></trkpt><trkpt lat="44.65521610478736" lon="7.853966014906605"><ele>262.0</ele><time>2026-04-11T15:09:42Z</time></trkpt><trkpt lat="44.655180137470204" lon="7.853876340322498"><ele>264.5</ele><time>2026-04-11T15:09:43Z</time></trkpt><trkpt lat="44.65512263081049" lon="7.853770989157521"><ele>267.0</ele><time>2026-04-11T15:09:45Z</time></trkpt><trkpt lat="44.65508682233677" lon="7.853680604458326"><ele>267.0</ele><time>2026-04-11T15:09:47Z</time></trkpt><trkpt lat="44.655088717352385" lon="7.853561774211905"><ele>267.0</ele><time>2026-04-11T15:09:49Z</time></trkpt><trkpt lat="44.65522170080919" lon="7.853609611156402"><ele>267.0</ele><time>2026-04-11T15:09:52Z</time></trkpt><trkpt lat="44.65529573567854" lon="7.853767732784427"><ele>267.0</ele><time>2026-04-11T15:09:54Z</time></trkpt><trkpt lat="44.65534027454552" lon="7.85386337846733"><ele>267.0</ele><time>2026-04-11T15:09:55Z</time></trkpt><trkpt lat="44.65538875728374" lon="7.853963794317476"><ele>264.0</ele><time>2026-04-11T15:09:56Z</time></trkpt><trkpt lat="44.65544006421825" lon="7.854067512927592"><ele>261.0</ele><time>2026-04-11T15:09:57Z</time></trkpt><trkpt lat="44.65549379090286" lon="7.854176122931103"><ele>258.0</ele><time>2026-04-11T15:09:58Z</time></trkpt><trkpt lat="44.65554877200197" lon="7.854287884947346"><ele>255.0</ele><time>2026-04-11T15:09:59Z</time></trkpt><trkpt lat="44.65560587053953" lon="7.854406058224105"><ele>252.0</ele><time>2026-04-11T15:10:00Z</time></trkpt><trkpt lat="44.655664429709276" lon="7.854527254227101"><ele>252.0</ele><time>2026-04-11T15:10:01Z</time></trkpt><trkpt lat="44.65572440976849" lon="7.854653801330549"><ele>252.0</ele><time>2026-04-11T15:10:02Z</time></trkpt><trkpt lat="44.6557841843887" lon="7.85478245038774"><ele>252.0</ele><time>2026-04-11T15:10:03Z</time></trkpt><trkpt lat="44.655840174861176" lon="7.85491601168171"><ele>252.0</ele><time>2026-04-11T15:10:04Z</time></trkpt><trkpt lat="44.65588188019899" lon="7.855060066925414"><ele>252.0</ele><time>2026-04-11T15:10:05Z</time></trkpt><trkpt lat="44.65591340534517" lon="7.85521622259151"><ele>254.0</ele><time>2026-04-11T15:10:06Z</time></trkpt><trkpt lat="44.65594177405209" lon="7.8553783771432695"><ele>256.0</ele><time>2026-04-11T15:10:07Z</time></trkpt><trkpt lat="44.65597055252236" lon="7.855544727305657"><ele>258.0</ele><time>2026-04-11T15:10:08Z</time></trkpt><trkpt lat="44.65599858268886" lon="7.8557035453227275"><ele>260.0</ele><time>2026-04-11T15:10:09Z</time></trkpt><trkpt lat="44.65602495469108" lon="7.855853233679501"><ele>259.1666666666667</ele><time>2026-04-11T15:10:10Z</time></trkpt><trkpt lat="44.656049545632385" lon="7.855997052209679"><ele>258.33333333333337</ele><time>2026-04-11T15:10:11Z</time></trkpt><trkpt lat="44.65607074595789" lon="7.856133212697259"><ele>257.5</ele><time>2026-04-11T15:10:12Z</time></trkpt><trkpt lat="44.656089943538085" lon="7.85626119671416"><ele>256.6666666666667</ele><time>2026-04-11T15:10:13Z</time></trkpt><trkpt lat="44.65611732711513" lon="7.856367600868914"><ele>255.83333333333334</ele><time>2026-04-11T15:10:14Z</time></trkpt><trkpt lat="44.65612583193091" lon="7.856466947718932"><ele>255.0</ele><time>2026-04-11T15:10:15Z</time></trkpt><trkpt lat="44.656139206975276" lon="7.856559592694533"><ele>248.83333333333334</ele><time>2026-04-11T15:10:16Z</time></trkpt><trkpt lat="44.65620929890418" lon="7.856693713247943"><ele>242.66666666666669</ele><time>2026-04-11T15:10:18Z</time></trkpt><trkpt lat="44.65627308019391" lon="7.856713680069464"><ele>236.5</ele><time>2026-04-11T15:10:19Z</time></trkpt><trkpt lat="44.656348921401616" lon="7.856698498774198"><ele>230.33333333333334</ele><time>2026-04-11T15:10:20Z</time></trkpt><trkpt lat="44.65642302517631" lon="7.856649473967423"><ele>224.16666666666669</ele><time>2026-04-11T15:10:21Z</time></trkpt><trkpt lat="44.65649806113482" lon="7.856594385006763"><ele>218.0</ele><time>2026-04-11T15:10:22Z</time></trkpt><trkpt lat="44.656579500285915" lon="7.856544804805842"><ele>218.0</ele><time>2026-04-11T15:10:23Z</time></trkpt><trkpt lat="44.656665571297744" lon="7.85649243649548"><ele>218.0</ele><time>2026-04-11T15:10:24Z</time></trkpt><trkpt lat="44.65675021567464" lon="7.856429029278917"><ele>218.0</ele><time>2026-04-11T15:10:25Z</time></trkpt><trkpt lat="44.656847377576376" lon="7.856392785962238"><ele>218.0</ele><time>2026-04-11T15:10:26Z</time></trkpt><trkpt lat="44.656937580204186" lon="7.856339812751901"><ele>218.0</ele><time>2026-04-11T15:10:27Z</time></trkpt><trkpt lat="44.657023055664396" lon="7.856288213382718"><ele>217.00000000000003</ele><time>2026-04-11T15:10:28Z</time></trkpt><trkpt lat="44.6570946967656" lon="7.856249193225418"><ele>216.0</ele><time>2026-04-11T15:10:29Z</time></trkpt><trkpt lat="44.657159534398616" lon="7.856228189802864"><ele>215.0</ele><time>2026-04-11T15:10:30Z</time></trkpt><trkpt lat="44.657231080762294" lon="7.8562114532789655"><ele>214.0</ele><time>2026-04-11T15:10:31Z</time></trkpt><trkpt lat="44.65729899479395" lon="7.856240532771697"><ele>213.00000000000003</ele><time>2026-04-11T15:10:32Z</time></trkpt><trkpt lat="44.65738058069441" lon="7.856127567863488"><ele>212.0</ele><time>2026-04-11T15:10:33Z</time></trkpt><trkpt lat="44.65746033821713" lon="7.856098420476167"><ele>212.00000000000003</ele><time>2026-04-11T15:10:34Z</time></trkpt><trkpt lat="44.65754297924543" lon="7.856066293966146"><ele>212.0</ele><time>2026-04-11T15:10:35Z</time></trkpt><trkpt lat="44.657624272803474" lon="7.85602505674005"><ele>212.0</ele><time>2026-04-11T15:10:36Z</time></trkpt><trkpt lat="44.65770466576751" lon="7.855984542034572"><ele>212.0</ele><time>2026-04-11T15:10:37Z</time></trkpt><trkpt lat="44.65779172042885" lon="7.8559523708835"><ele>212.00000000000003</ele><time>2026-04-11T15:10:38Z</time></trkpt><trkpt lat="44.65787987051597" lon="7.855917764404574"><ele>212.0</ele><time>2026-04-11T15:10:39Z</time></trkpt><trkpt lat="44.65796616364392" lon="7.8558867134972745"><ele>211.66666666666669</ele><time>2026-04-11T15:10:40Z</time></trkpt><trkpt lat="44.658054686018616" lon="7.855855926713556"><ele>211.33333333333334</ele><time>2026-04-11T15:10:41Z</time></trkpt><trkpt lat="44.658140039031636" lon="7.8558192260611035"><ele>211.0</ele><time>2026-04-11T15:10:42Z</time></trkpt><trkpt lat="44.658224122444764" lon="7.855787930744785"><ele>210.66666666666669</ele><time>2026-04-11T15:10:43Z</time></trkpt><trkpt lat="44.65830641801197" lon="7.855755624012199"><ele>210.33333333333334</ele><time>2026-04-11T15:10:44Z</time></trkpt><trkpt lat="44.65838703576443" lon="7.855724223938388"><ele>210.0</ele><time>2026-04-11T15:10:45Z</time></trkpt><trkpt lat="44.65846802750886" lon="7.855689671976743"><ele>210.0</ele><time>2026-04-11T15:10:46Z</time></trkpt><trkpt lat="44.65854879698996" lon="7.855655517837152"><ele>210.0</ele><time>2026-04-11T15:10:47Z</time></trkpt><trkpt lat="44.65863039859039" lon="7.855624164908065"><ele>210.0</ele><time>2026-04-11T15:10:48Z</time></trkpt><trkpt lat="44.65871071019302" lon="7.855593610479193"><ele>210.0</ele><time>2026-04-11T15:10:49Z</time></trkpt><trkpt lat="44.658794015052266" lon="7.855561816989743"><ele>210.0</ele><time>2026-04-11T15:10:50Z</time></trkpt><trkpt lat="44.65887637622535" lon="7.855530414814839"><ele>210.0</ele><time>2026-04-11T15:10:51Z</time></trkpt><trkpt lat="44.65895998083515" lon="7.855499837727817"><ele>208.83333333333334</ele><time>2026-04-11T15:10:52Z</time></trkpt><trkpt lat="44.65904132036824" lon="7.855467568384088"><ele>207.66666666666669</ele><time>2026-04-11T15:10:53Z</time></trkpt><trkpt lat="44.659120033623665" lon="7.855436408155343"><ele>206.5</ele><time>2026-04-11T15:10:54Z</time></trkpt><trkpt lat="44.65919936205658" lon="7.855405474938662"><ele>205.33333333333334</ele><time>2026-04-11T15:10:55Z</time></trkpt><trkpt lat="44.65927833485623" lon="7.855374422200868"><ele>204.16666666666669</ele><time>2026-04-11T15:10:56Z</time></trkpt><trkpt lat="44.6593584243476" lon="7.8553431869184625"><ele>203.0</ele><time>2026-04-11T15:10:57Z</time></trkpt><trkpt lat="44.659435019403034" lon="7.855312236995369"><ele>203.33333333333334</ele><time>2026-04-11T15:10:58Z</time></trkpt><trkpt lat="44.659512055544305" lon="7.8552802945814895"><ele>203.66666666666669</ele><time>2026-04-11T15:10:59Z</time></trkpt><trkpt lat="44.65958984475627" lon="7.8552528089227325"><ele>204.0</ele><time>2026-04-11T15:11:00Z</time></trkpt><trkpt lat="44.65966686643771" lon="7.855224183318015"><ele>204.33333333333331</ele><time>2026-04-11T15:11:01Z</time></trkpt><trkpt lat="44.65974500155749" lon="7.85519353507645"><ele>204.66666666666666</ele><time>2026-04-11T15:11:02Z</time></trkpt><trkpt lat="44.65982279943202" lon="7.855165247122392"><ele>205.0</ele><time>2026-04-11T15:11:03Z</time></trkpt><trkpt lat="44.65989993699348" lon="7.855137144544123"><ele>205.49999999999997</ele><time>2026-04-11T15:11:04Z</time></trkpt><trkpt lat="44.65997588594104" lon="7.855107684521618"><ele>206.0</ele><time>2026-04-11T15:11:05Z</time></trkpt><trkpt lat="44.66004993680764" lon="7.855078603896847"><ele>206.5</ele><time>2026-04-11T15:11:06Z</time></trkpt><trkpt lat="44.66012389286791" lon="7.855048661224984"><ele>207.0</ele><time>2026-04-11T15:11:07Z</time></trkpt><trkpt lat="44.66019990741542" lon="7.855018238156949"><ele>207.49999999999997</ele><time>2026-04-11T15:11:08Z</time></trkpt><trkpt lat="44.66027361212789" lon="7.8549901519203695"><ele>208.0</ele><time>2026-04-11T15:11:09Z</time></trkpt><trkpt lat="44.660345836958655" lon="7.8549627190353855"><ele>208.0</ele><time>2026-04-11T15:11:10Z</time></trkpt><trkpt lat="44.66041782838504" lon="7.854934566493935"><ele>208.0</ele><time>2026-04-11T15:11:11Z</time></trkpt><trkpt lat="44.66048980619116" lon="7.854904974947162"><ele>208.0</ele><time>2026-04-11T15:11:12Z</time></trkpt><trkpt lat="44.66056227472262" lon="7.854874877627524"><ele>208.0</ele><time>2026-04-11T15:11:13Z</time></trkpt><trkpt lat="44.660633130090986" lon="7.854846380364288"><ele>208.0</ele><time>2026-04-11T15:11:14Z</time></trkpt><trkpt lat="44.66070456290256" lon="7.854818043930108"><ele>208.0</ele><time>2026-04-11T15:11:15Z</time></trkpt><trkpt lat="44.660777204256924" lon="7.854793764022299"><ele>208.0</ele><time>2026-04-11T15:11:16Z</time></trkpt><trkpt lat="44.66084914625053" lon="7.854771217593309"><ele>208.0</ele><time>2026-04-11T15:11:17Z</time></trkpt><trkpt lat="44.660920172141665" lon="7.854751249533566"><ele>208.0</ele><time>2026-04-11T15:11:18Z</time></trkpt><trkpt lat="44.66099088670386" lon="7.854730478907731"><ele>208.0</ele><time>2026-04-11T15:11:19Z</time></trkpt><trkpt lat="44.661060119434296" lon="7.8547145512943"><ele>208.0</ele><time>2026-04-11T15:11:20Z</time></trkpt><trkpt lat="44.66113108248925" lon="7.854702339129445"><ele>208.0</ele><time>2026-04-11T15:11:21Z</time></trkpt><trkpt lat="44.66120115189323" lon="7.854692232680941"><ele>208.0</ele><time>2026-04-11T15:11:22Z</time></trkpt><trkpt lat="44.66127051660661" lon="7.85468084952111"><ele>208.0</ele><time>2026-04-11T15:11:23Z</time></trkpt><trkpt lat="44.661341334948325" lon="7.854674690561254"><ele>209.42857142857142</ele><time>2026-04-11T15:11:24Z</time></trkpt><trkpt lat="44.66140593826205" lon="7.854662683645988"><ele>210.85714285714286</ele><time>2026-04-11T15:11:25Z</time></trkpt><trkpt lat="44.6614722178827" lon="7.854651084785981"><ele>212.28571428571428</ele><time>2026-04-11T15:11:26Z</time></trkpt><trkpt lat="44.661540586323774" lon="7.85464176420819"><ele>213.71428571428572</ele><time>2026-04-11T15:11:27Z</time></trkpt><trkpt lat="44.66161032249023" lon="7.8546390666899475"><ele>215.14285714285717</ele><time>2026-04-11T15:11:28Z</time></trkpt><trkpt lat="44.6616835113036" lon="7.854635168660946"><ele>216.57142857142858</ele><time>2026-04-11T15:11:29Z</time></trkpt><trkpt lat="44.66175646007556" lon="7.854629692513023"><ele>218.0</ele><time>2026-04-11T15:11:30Z</time></trkpt><trkpt lat="44.66182400056104" lon="7.854624599895907"><ele>218.0</ele><time>2026-04-11T15:11:31Z</time></trkpt><trkpt lat="44.66189264881305" lon="7.85461608525689"><ele>218.0</ele><time>2026-04-11T15:11:32Z</time></trkpt><trkpt lat="44.66195973554952" lon="7.854614656891165"><ele>218.0</ele><time>2026-04-11T15:11:33Z</time></trkpt><trkpt lat="44.662026983510565" lon="7.854629835797779"><ele>218.0</ele><time>2026-04-11T15:11:34Z</time></trkpt><trkpt lat="44.66209131060603" lon="7.854656260191493"><ele>218.0</ele><time>2026-04-11T15:11:35Z</time></trkpt><trkpt lat="44.66214946133436" lon="7.854705200208178"><ele>218.0</ele><time>2026-04-11T15:11:36Z</time></trkpt><trkpt lat="44.66220047166755" lon="7.854767471881541"><ele>218.0</ele><time>2026-04-11T15:11:37Z</time></trkpt><trkpt lat="44.66225090588302" lon="7.854825466875141"><ele>217.8</ele><time>2026-04-11T15:11:38Z</time></trkpt><trkpt lat="44.66230903173415" lon="7.854861755130578"><ele>217.60000000000002</ele><time>2026-04-11T15:11:39Z</time></trkpt><trkpt lat="44.66244051648022" lon="7.8548674426426865"><ele>217.39999999999998</ele><time>2026-04-11T15:11:41Z</time></trkpt><trkpt lat="44.66253217801883" lon="7.854822669988248"><ele>217.2</ele><time>2026-04-11T15:11:43Z</time></trkpt><trkpt lat="44.66262404949886" lon="7.854878167265397"><ele>217.0</ele><time>2026-04-11T15:11:44Z</time></trkpt><trkpt lat="44.662716690533344" lon="7.854949957326619"><ele>216.99999999999997</ele><time>2026-04-11T15:11:46Z</time></trkpt><trkpt lat="44.66276552347017" lon="7.8550135148228275"><ele>217.0</ele><time>2026-04-11T15:11:47Z</time></trkpt><trkpt lat="44.662799823303615" lon="7.855088376202039"><ele>217.0</ele><time>2026-04-11T15:11:48Z</time></trkpt><trkpt lat="44.662804112699376" lon="7.855179874061019"><ele>217.0</ele><time>2026-04-11T15:11:49Z</time></trkpt><trkpt lat="44.662792256094335" lon="7.855273773448707"><ele>216.99999999999997</ele><time>2026-04-11T15:11:50Z</time></trkpt><trkpt lat="44.66278113446937" lon="7.8554345212740975"><ele>217.0</ele><time>2026-04-11T15:11:52Z</time></trkpt><trkpt lat="44.66278861355467" lon="7.855601556206915"><ele>216.8</ele><time>2026-04-11T15:11:54Z</time></trkpt><trkpt lat="44.662772691915045" lon="7.855688410895887"><ele>216.6</ele><time>2026-04-11T15:11:55Z</time></trkpt><trkpt lat="44.66278670821135" lon="7.8558557306362875"><ele>216.40000000000003</ele><time>2026-04-11T15:11:57Z</time></trkpt><trkpt lat="44.662806660003724" lon="7.856027205869175"><ele>216.20000000000002</ele><time>2026-04-11T15:11:59Z</time></trkpt><trkpt lat="44.66283116778748" lon="7.856189630662248"><ele>216.0</ele><time>2026-04-11T15:12:01Z</time></trkpt><trkpt lat="44.66285963266997" lon="7.856357004128309"><ele>216.0</ele><time>2026-04-11T15:12:03Z</time></trkpt><trkpt lat="44.662900399443835" lon="7.856513278895583"><ele>216.00000000000003</ele><time>2026-04-11T15:12:05Z</time></trkpt><trkpt lat="44.6629395515531" lon="7.856676736556196"><ele>216.00000000000003</ele><time>2026-04-11T15:12:07Z</time></trkpt><trkpt lat="44.66295822544479" lon="7.856761514556566"><ele>216.0</ele><time>2026-04-11T15:12:08Z</time></trkpt><trkpt lat="44.66295827512455" lon="7.85685380353903"><ele>216.0</ele><time>2026-04-11T15:12:09Z</time></trkpt><trkpt lat="44.66297550122524" lon="7.857020242960751"><ele>216.0</ele><time>2026-04-11T15:12:11Z</time></trkpt><trkpt lat="44.662980731146796" lon="7.857191937898772"><ele>216.0</ele><time>2026-04-11T15:12:13Z</time></trkpt><trkpt lat="44.662999583632335" lon="7.857279113036677"><ele>216.0</ele><time>2026-04-11T15:12:14Z</time></trkpt><trkpt lat="44.66300232419416" lon="7.857367714212201"><ele>216.0</ele><time>2026-04-11T15:12:15Z</time></trkpt><trkpt lat="44.66300769632476" lon="7.857544967705564"><ele>216.0</ele><time>2026-04-11T15:12:17Z</time></trkpt><trkpt lat="44.66299946984987" lon="7.85763412803474"><ele>216.0</ele><time>2026-04-11T15:12:18Z</time></trkpt><trkpt lat="44.66300660594431" lon="7.857724066147546"><ele>216.0</ele><time>2026-04-11T15:12:19Z</time></trkpt><trkpt lat="44.663023005227906" lon="7.857899974165236"><ele>216.00000000000003</ele><time>2026-04-11T15:12:21Z</time></trkpt><trkpt lat="44.66304073593868" lon="7.858074972694174"><ele>216.00000000000003</ele><time>2026-04-11T15:12:23Z</time></trkpt><trkpt lat="44.663062569212876" lon="7.8581621916735545"><ele>216.0</ele><time>2026-04-11T15:12:24Z</time></trkpt><trkpt lat="44.66308118030215" lon="7.85833772449558"><ele>216.0</ele><time>2026-04-11T15:12:26Z</time></trkpt><trkpt lat="44.66308302586789" lon="7.858429654089995"><ele>215.71428571428572</ele><time>2026-04-11T15:12:27Z</time></trkpt><trkpt lat="44.6630955487291" lon="7.858518778194287"><ele>215.42857142857142</ele><time>2026-04-11T15:12:28Z</time></trkpt><trkpt lat="44.66310823555296" lon="7.858609069662815"><ele>215.14285714285717</ele><time>2026-04-11T15:12:29Z</time></trkpt><trkpt lat="44.663120554568685" lon="7.858696743107567"><ele>214.85714285714286</ele><time>2026-04-11T15:12:30Z</time></trkpt><trkpt lat="44.663147988740995" lon="7.85878236936039"><ele>214.57142857142858</ele><time>2026-04-11T15:12:31Z</time></trkpt><trkpt lat="44.66315843845103" lon="7.858871548377871"><ele>214.2857142857143</ele><time>2026-04-11T15:12:32Z</time></trkpt><trkpt lat="44.66317053672486" lon="7.858961228921195"><ele>214.0</ele><time>2026-04-11T15:12:33Z</time></trkpt><trkpt lat="44.6631795677898" lon="7.859051039937594"><ele>214.00000000000003</ele><time>2026-04-11T15:12:34Z</time></trkpt><trkpt lat="44.66317933734715" lon="7.859146319932801"><ele>214.0</ele><time>2026-04-11T15:12:35Z</time></trkpt><trkpt lat="44.66320212545573" lon="7.859241184955726"><ele>214.0</ele><time>2026-04-11T15:12:36Z</time></trkpt><trkpt lat="44.66324866954913" lon="7.859318400044139"><ele>214.0</ele><time>2026-04-11T15:12:37Z</time></trkpt><trkpt lat="44.66328393249529" lon="7.859397919180077"><ele>214.0</ele><time>2026-04-11T15:12:38Z</time></trkpt><trkpt lat="44.66329969015003" lon="7.859490177425156"><ele>214.00000000000003</ele><time>2026-04-11T15:12:39Z</time></trkpt><trkpt lat="44.663332413028776" lon="7.859575151282274"><ele>214.0</ele><time>2026-04-11T15:12:40Z</time></trkpt><trkpt lat="44.66336142571513" lon="7.859654257135377"><ele>214.16666666666666</ele><time>2026-04-11T15:12:41Z</time></trkpt><trkpt lat="44.66338817510141" lon="7.859736068249348"><ele>214.33333333333331</ele><time>2026-04-11T15:12:42Z</time></trkpt><trkpt lat="44.663413839902056" lon="7.859816939215326"><ele>214.5</ele><time>2026-04-11T15:12:43Z</time></trkpt><trkpt lat="44.663440227017105" lon="7.85990008627491"><ele>214.66666666666669</ele><time>2026-04-11T15:12:44Z</time></trkpt><trkpt lat="44.663490484843514" lon="7.860062521047218"><ele>214.83333333333334</ele><time>2026-04-11T15:12:46Z</time></trkpt><trkpt lat="44.66352664323393" lon="7.860139391514899"><ele>215.0</ele><time>2026-04-11T15:12:47Z</time></trkpt><trkpt lat="44.66360374467375" lon="7.860267450624135"><ele>215.0</ele><time>2026-04-11T15:12:49Z</time></trkpt><trkpt lat="44.6636730946459" lon="7.860394092826863"><ele>215.0</ele><time>2026-04-11T15:12:51Z</time></trkpt><trkpt lat="44.66374232545582" lon="7.860395939410723"><ele>215.0</ele><time>2026-04-11T15:12:52Z</time></trkpt><trkpt lat="44.66371259552509" lon="7.860563392510544"><ele>215.0</ele><time>2026-04-11T15:12:53Z</time></trkpt><trkpt lat="44.66376212495863" lon="7.860721773720642"><ele>215.0</ele><time>2026-04-11T15:12:55Z</time></trkpt><trkpt lat="44.663791224177366" lon="7.8608003727221245"><ele>215.0</ele><time>2026-04-11T15:12:56Z</time></trkpt><trkpt lat="44.663846649850385" lon="7.86095073066344"><ele>215.0</ele><time>2026-04-11T15:12:58Z</time></trkpt><trkpt lat="44.66390610870321" lon="7.861098534769761"><ele>215.0</ele><time>2026-04-11T15:13:00Z</time></trkpt><trkpt lat="44.6639686125892" lon="7.861237689905949"><ele>215.0</ele><time>2026-04-11T15:13:02Z</time></trkpt><trkpt lat="44.66403613896466" lon="7.861374610272951"><ele>215.0</ele><time>2026-04-11T15:13:04Z</time></trkpt><trkpt lat="44.66410664883507" lon="7.861502672528005"><ele>215.0</ele><time>2026-04-11T15:13:06Z</time></trkpt><trkpt lat="44.66417701671078" lon="7.861632229805552"><ele>215.0</ele><time>2026-04-11T15:13:08Z</time></trkpt><trkpt lat="44.66422017478034" lon="7.8617940906157235"><ele>215.0</ele><time>2026-04-11T15:13:10Z</time></trkpt><trkpt lat="44.66426986635581" lon="7.861951210007322"><ele>215.0</ele><time>2026-04-11T15:13:12Z</time></trkpt><trkpt lat="44.66431987929026" lon="7.862110179460036"><ele>215.0</ele><time>2026-04-11T15:13:14Z</time></trkpt><trkpt lat="44.66434463174188" lon="7.862191963777907"><ele>215.0</ele><time>2026-04-11T15:13:15Z</time></trkpt><trkpt lat="44.66439886580397" lon="7.86234961123561"><ele>215.0</ele><time>2026-04-11T15:13:17Z</time></trkpt><trkpt lat="44.66444588578906" lon="7.86250698049188"><ele>215.0</ele><time>2026-04-11T15:13:19Z</time></trkpt><trkpt lat="44.66447468382657" lon="7.862586167358434"><ele>214.7142857142857</ele><time>2026-04-11T15:13:20Z</time></trkpt><trkpt lat="44.66450098913989" lon="7.862668768841458"><ele>214.42857142857144</ele><time>2026-04-11T15:13:21Z</time></trkpt><trkpt lat="44.664528687332236" lon="7.862750611935486"><ele>214.14285714285714</ele><time>2026-04-11T15:13:22Z</time></trkpt><trkpt lat="44.66455547204583" lon="7.862833941179815"><ele>213.85714285714283</ele><time>2026-04-11T15:13:23Z</time></trkpt><trkpt lat="44.66458139512585" lon="7.862918049463548"><ele>213.57142857142856</ele><time>2026-04-11T15:13:24Z</time></trkpt><trkpt lat="44.66461102899428" lon="7.8630059916242185"><ele>213.28571428571428</ele><time>2026-04-11T15:13:25Z</time></trkpt><trkpt lat="44.664638279141215" lon="7.863092699312744"><ele>213.0</ele><time>2026-04-11T15:13:26Z</time></trkpt><trkpt lat="44.664668187619625" lon="7.863178164541569"><ele>212.99999999999997</ele><time>2026-04-11T15:13:27Z</time></trkpt><trkpt lat="44.66469788714164" lon="7.863263189769757"><ele>213.0</ele><time>2026-04-11T15:13:28Z</time></trkpt><trkpt lat="44.6647262180942" lon="7.863348716801317"><ele>213.0</ele><time>2026-04-11T15:13:29Z</time></trkpt><trkpt lat="44.66475610659878" lon="7.863432092263476"><ele>213.0</ele><time>2026-04-11T15:13:30Z</time></trkpt><trkpt lat="44.66478566502795" lon="7.863519494724795"><ele>213.0</ele><time>2026-04-11T15:13:31Z</time></trkpt><trkpt lat="44.664814710208915" lon="7.863605572291255"><ele>212.99999999999997</ele><time>2026-04-11T15:13:32Z</time></trkpt><trkpt lat="44.66484547759007" lon="7.863691890209511"><ele>213.0</ele><time>2026-04-11T15:13:33Z</time></trkpt><trkpt lat="44.66487714908049" lon="7.863776133419967"><ele>212.99999999999997</ele><time>2026-04-11T15:13:34Z</time></trkpt><trkpt lat="44.66490926941557" lon="7.863860167827915"><ele>213.0</ele><time>2026-04-11T15:13:35Z</time></trkpt><trkpt lat="44.664942525489636" lon="7.863941798298164"><ele>213.0</ele><time>2026-04-11T15:13:36Z</time></trkpt><trkpt lat="44.66497414129167" lon="7.8640259466986455"><ele>213.0</ele><time>2026-04-11T15:13:37Z</time></trkpt><trkpt lat="44.66500421585757" lon="7.864108641106666"><ele>213.0</ele><time>2026-04-11T15:13:38Z</time></trkpt><trkpt lat="44.665035859133056" lon="7.864192305778947"><ele>212.99999999999997</ele><time>2026-04-11T15:13:39Z</time></trkpt><trkpt lat="44.665062537645426" lon="7.8642799389678375"><ele>213.0</ele><time>2026-04-11T15:13:40Z</time></trkpt><trkpt lat="44.665090693697024" lon="7.864368402162861"><ele>212.99999999999997</ele><time>2026-04-11T15:13:41Z</time></trkpt><trkpt lat="44.66512073324305" lon="7.864456324809337"><ele>213.0</ele><time>2026-04-11T15:13:42Z</time></trkpt><trkpt lat="44.66515336254686" lon="7.864544989150783"><ele>213.0</ele><time>2026-04-11T15:13:43Z</time></trkpt><trkpt lat="44.665181159403296" lon="7.8646285326340335"><ele>213.0</ele><time>2026-04-11T15:13:44Z</time></trkpt><trkpt lat="44.66521150952374" lon="7.864715410535701"><ele>213.0</ele><time>2026-04-11T15:13:45Z</time></trkpt><trkpt lat="44.66524419668949" lon="7.864802434575407"><ele>212.99999999999997</ele><time>2026-04-11T15:13:46Z</time></trkpt><trkpt lat="44.665276701555214" lon="7.864885709729557"><ele>213.0</ele><time>2026-04-11T15:13:47Z</time></trkpt><trkpt lat="44.665303772876754" lon="7.8649721706164994"><ele>212.99999999999997</ele><time>2026-04-11T15:13:48Z</time></trkpt><trkpt lat="44.66534074368493" lon="7.865053609652513"><ele>213.0</ele><time>2026-04-11T15:13:49Z</time></trkpt><trkpt lat="44.66536994975553" lon="7.865134919611043"><ele>213.0</ele><time>2026-04-11T15:13:50Z</time></trkpt><trkpt lat="44.66540744233848" lon="7.86521978871627"><ele>213.0</ele><time>2026-04-11T15:13:51Z</time></trkpt><trkpt lat="44.66543978504352" lon="7.86530456590476"><ele>213.0</ele><time>2026-04-11T15:13:52Z</time></trkpt><trkpt lat="44.66547532019558" lon="7.86539059946768"><ele>212.99999999999997</ele><time>2026-04-11T15:13:53Z</time></trkpt><trkpt lat="44.66550379801417" lon="7.865477766760186"><ele>213.0</ele><time>2026-04-11T15:13:54Z</time></trkpt><trkpt lat="44.66553342556411" lon="7.865564973434168"><ele>212.85714285714283</ele><time>2026-04-11T15:13:55Z</time></trkpt><trkpt lat="44.66556011260173" lon="7.865652127187747"><ele>212.71428571428572</ele><time>2026-04-11T15:13:56Z</time></trkpt><trkpt lat="44.66559113084444" lon="7.865738032564452"><ele>212.57142857142856</ele><time>2026-04-11T15:13:57Z</time></trkpt><trkpt lat="44.66562229808147" lon="7.865821475379693"><ele>212.42857142857142</ele><time>2026-04-11T15:13:58Z</time></trkpt><trkpt lat="44.665657040355974" lon="7.865907758937604"><ele>212.28571428571428</ele><time>2026-04-11T15:13:59Z</time></trkpt><trkpt lat="44.6656917253091" lon="7.865993215228985"><ele>212.14285714285714</ele><time>2026-04-11T15:14:00Z</time></trkpt><trkpt lat="44.66572281719678" lon="7.866077384986457"><ele>212.0</ele><time>2026-04-11T15:14:01Z</time></trkpt><trkpt lat="44.66576018022" lon="7.866160041294952"><ele>212.0</ele><time>2026-04-11T15:14:02Z</time></trkpt><trkpt lat="44.66579666385346" lon="7.866235209823913"><ele>212.0</ele><time>2026-04-11T15:14:03Z</time></trkpt><trkpt lat="44.66583493353538" lon="7.866317426389096"><ele>212.0</ele><time>2026-04-11T15:14:04Z</time></trkpt><trkpt lat="44.66587451107455" lon="7.866390084812625"><ele>212.0</ele><time>2026-04-11T15:14:05Z</time></trkpt><trkpt lat="44.665912201853544" lon="7.8664665981655535"><ele>212.0</ele><time>2026-04-11T15:14:06Z</time></trkpt><trkpt lat="44.66594802284799" lon="7.866542911415757"><ele>212.0</ele><time>2026-04-11T15:14:07Z</time></trkpt><trkpt lat="44.66598130629306" lon="7.866625454923329"><ele>212.0</ele><time>2026-04-11T15:14:08Z</time></trkpt><trkpt lat="44.666011318266186" lon="7.866708522252282"><ele>212.0</ele><time>2026-04-11T15:14:09Z</time></trkpt><trkpt lat="44.666041155101425" lon="7.866789353866634"><ele>212.0</ele><time>2026-04-11T15:14:10Z</time></trkpt><trkpt lat="44.66607122033072" lon="7.866873015729534"><ele>212.0</ele><time>2026-04-11T15:14:11Z</time></trkpt><trkpt lat="44.6661005419605" lon="7.866956670216737"><ele>212.0</ele><time>2026-04-11T15:14:12Z</time></trkpt><trkpt lat="44.66613717788918" lon="7.8670394135065305"><ele>212.0</ele><time>2026-04-11T15:14:13Z</time></trkpt><trkpt lat="44.6661731186188" lon="7.86712112734415"><ele>212.0</ele><time>2026-04-11T15:14:14Z</time></trkpt><trkpt lat="44.66620879435727" lon="7.8672025632584255"><ele>212.0</ele><time>2026-04-11T15:14:15Z</time></trkpt><trkpt lat="44.6662398178981" lon="7.867283550801651"><ele>212.00000000000003</ele><time>2026-04-11T15:14:16Z</time></trkpt><trkpt lat="44.66627144662018" lon="7.867370772036839"><ele>212.0</ele><time>2026-04-11T15:14:17Z</time></trkpt><trkpt lat="44.66630766649874" lon="7.867455301358306"><ele>212.0</ele><time>2026-04-11T15:14:18Z</time></trkpt><trkpt lat="44.666346104924415" lon="7.867536073972423"><ele>212.0</ele><time>2026-04-11T15:14:19Z</time></trkpt><trkpt lat="44.666382729509465" lon="7.867617286326611"><ele>212.00000000000003</ele><time>2026-04-11T15:14:20Z</time></trkpt><trkpt lat="44.66644248598814" lon="7.867779394646738"><ele>212.0</ele><time>2026-04-11T15:14:22Z</time></trkpt><trkpt lat="44.666490734639915" lon="7.867945626066343"><ele>212.0</ele><time>2026-04-11T15:14:24Z</time></trkpt><trkpt lat="44.66651650307496" lon="7.868028568356113"><ele>212.0</ele><time>2026-04-11T15:14:25Z</time></trkpt><trkpt lat="44.66654417047864" lon="7.868114548819081"><ele>212.0</ele><time>2026-04-11T15:14:26Z</time></trkpt><trkpt lat="44.66655818570895" lon="7.86820683005079"><ele>212.0</ele><time>2026-04-11T15:14:27Z</time></trkpt><trkpt lat="44.66655536068975" lon="7.868297590917786"><ele>212.0</ele><time>2026-04-11T15:14:28Z</time></trkpt><trkpt lat="44.666549748343826" lon="7.868391388437329"><ele>212.0</ele><time>2026-04-11T15:14:29Z</time></trkpt><trkpt lat="44.66656268651867" lon="7.8684792237670145"><ele>212.0</ele><time>2026-04-11T15:14:30Z</time></trkpt><trkpt lat="44.66658662712975" lon="7.868564145132849"><ele>211.85714285714286</ele><time>2026-04-11T15:14:31Z</time></trkpt><trkpt lat="44.666633078337846" lon="7.868732510005441"><ele>211.7142857142857</ele><time>2026-04-11T15:14:33Z</time></trkpt><trkpt lat="44.66665951426685" lon="7.868813825808808"><ele>211.57142857142856</ele><time>2026-04-11T15:14:34Z</time></trkpt><trkpt lat="44.66668183983627" lon="7.868898109264218"><ele>211.42857142857144</ele><time>2026-04-11T15:14:35Z</time></trkpt><trkpt lat="44.666702205647475" lon="7.868983887899909"><ele>211.28571428571428</ele><time>2026-04-11T15:14:36Z</time></trkpt><trkpt lat="44.66672298830285" lon="7.8690675205162455"><ele>211.14285714285714</ele><time>2026-04-11T15:14:37Z</time></trkpt><trkpt lat="44.66674934585312" lon="7.86914871899102"><ele>211.0</ele><time>2026-04-11T15:14:38Z</time></trkpt><trkpt lat="44.66680419000765" lon="7.869301795545737"><ele>210.8</ele><time>2026-04-11T15:14:40Z</time></trkpt><trkpt lat="44.6668441029757" lon="7.869456378682076"><ele>210.60000000000002</ele><time>2026-04-11T15:14:42Z</time></trkpt><trkpt lat="44.66687360636689" lon="7.869537173403233"><ele>210.4</ele><time>2026-04-11T15:14:43Z</time></trkpt><trkpt lat="44.66689446438064" lon="7.869701031782685"><ele>210.2</ele><time>2026-04-11T15:14:45Z</time></trkpt><trkpt lat="44.6669040437815" lon="7.869867791412284"><ele>210.0</ele><time>2026-04-11T15:14:47Z</time></trkpt><trkpt lat="44.666925531804935" lon="7.870031090104754"><ele>210.2</ele><time>2026-04-11T15:14:49Z</time></trkpt><trkpt lat="44.66694266763899" lon="7.87019172854348"><ele>210.4</ele><time>2026-04-11T15:14:51Z</time></trkpt><trkpt lat="44.66697695304503" lon="7.870344886099844"><ele>210.60000000000002</ele><time>2026-04-11T15:14:53Z</time></trkpt><trkpt lat="44.66700903568531" lon="7.870471413567426"><ele>210.8</ele><time>2026-04-11T15:14:55Z</time></trkpt><trkpt lat="44.66705016129994" lon="7.870591147957707"><ele>211.0</ele><time>2026-04-11T15:14:57Z</time></trkpt><trkpt lat="44.667088247514315" lon="7.870696267503647"><ele>211.0</ele><time>2026-04-11T15:14:59Z</time></trkpt><trkpt lat="44.66711840706168" lon="7.870810656133122"><ele>211.0</ele><time>2026-04-11T15:15:01Z</time></trkpt><trkpt lat="44.66713945287322" lon="7.870960606621144"><ele>211.0</ele><time>2026-04-11T15:15:03Z</time></trkpt><trkpt lat="44.66716945921421" lon="7.871099727678778"><ele>211.0</ele><time>2026-04-11T15:15:05Z</time></trkpt><trkpt lat="44.66720279683542" lon="7.871181809892522"><ele>211.0</ele><time>2026-04-11T15:15:07Z</time></trkpt><trkpt lat="44.66728948785252" lon="7.87120304936185"><ele>211.0</ele><time>2026-04-11T15:15:10Z</time></trkpt><trkpt lat="44.66735748886303" lon="7.871277618096507"><ele>211.0</ele><time>2026-04-11T15:15:12Z</time></trkpt><trkpt lat="44.667400537106445" lon="7.87137945511005"><ele>211.0</ele><time>2026-04-11T15:15:15Z</time></trkpt><trkpt lat="44.66745207162927" lon="7.871516601831706"><ele>211.0</ele><time>2026-04-11T15:15:16Z</time></trkpt><trkpt lat="44.66751901373546" lon="7.8716280126613585"><ele>211.0</ele><time>2026-04-11T15:15:18Z</time></trkpt><trkpt lat="44.66756387532931" lon="7.871756674710126"><ele>210.8</ele><time>2026-04-11T15:15:20Z</time></trkpt><trkpt lat="44.66761691332767" lon="7.871879308675212"><ele>210.60000000000002</ele><time>2026-04-11T15:15:22Z</time></trkpt><trkpt lat="44.66767298589677" lon="7.872001081715265"><ele>210.4</ele><time>2026-04-11T15:15:24Z</time></trkpt><trkpt lat="44.66773450449891" lon="7.872120929476277"><ele>210.2</ele><time>2026-04-11T15:15:26Z</time></trkpt><trkpt lat="44.66779413024967" lon="7.872249355655935"><ele>210.0</ele><time>2026-04-11T15:15:28Z</time></trkpt><trkpt lat="44.667853501631065" lon="7.872373648710278"><ele>210.0</ele><time>2026-04-11T15:15:30Z</time></trkpt><trkpt lat="44.667908094321795" lon="7.872511554402979"><ele>210.0</ele><time>2026-04-11T15:15:32Z</time></trkpt><trkpt lat="44.66794739776427" lon="7.872653125167979"><ele>210.0</ele><time>2026-04-11T15:15:34Z</time></trkpt><trkpt lat="44.668007041934935" lon="7.87278991962298"><ele>210.0</ele><time>2026-04-11T15:15:36Z</time></trkpt><trkpt lat="44.668056073872805" lon="7.872938325501913"><ele>210.0</ele><time>2026-04-11T15:15:38Z</time></trkpt><trkpt lat="44.668100314912955" lon="7.873095826613402"><ele>210.0</ele><time>2026-04-11T15:15:40Z</time></trkpt><trkpt lat="44.668145812279654" lon="7.873245701879094"><ele>210.0</ele><time>2026-04-11T15:15:42Z</time></trkpt><trkpt lat="44.668172164314875" lon="7.873405239402739"><ele>210.0</ele><time>2026-04-11T15:15:44Z</time></trkpt><trkpt lat="44.66821426124436" lon="7.8735536836254765"><ele>210.0</ele><time>2026-04-11T15:15:46Z</time></trkpt><trkpt lat="44.6682498363785" lon="7.873710761390916"><ele>210.0</ele><time>2026-04-11T15:15:48Z</time></trkpt><trkpt lat="44.66828737512648" lon="7.873870321054946"><ele>210.0</ele><time>2026-04-11T15:15:50Z</time></trkpt><trkpt lat="44.66830650516484" lon="7.873955855461246"><ele>210.0</ele><time>2026-04-11T15:15:51Z</time></trkpt><trkpt lat="44.66834721689334" lon="7.874121155184951"><ele>210.0</ele><time>2026-04-11T15:15:53Z</time></trkpt><trkpt lat="44.66836843786926" lon="7.874205283290446"><ele>210.2</ele><time>2026-04-11T15:15:54Z</time></trkpt><trkpt lat="44.6684164360035" lon="7.87436645888225"><ele>210.4</ele><time>2026-04-11T15:15:56Z</time></trkpt><trkpt lat="44.66844080252069" lon="7.87445004892554"><ele>210.60000000000002</ele><time>2026-04-11T15:15:57Z</time></trkpt><trkpt lat="44.66846505763995" lon="7.874531954565159"><ele>210.8</ele><time>2026-04-11T15:15:58Z</time></trkpt><trkpt lat="44.66851457849632" lon="7.874692901626704"><ele>211.0</ele><time>2026-04-11T15:16:00Z</time></trkpt><trkpt lat="44.6685674759799" lon="7.874854073789333"><ele>211.0</ele><time>2026-04-11T15:16:02Z</time></trkpt><trkpt lat="44.66862111844388" lon="7.875009963960753"><ele>211.0</ele><time>2026-04-11T15:16:04Z</time></trkpt><trkpt lat="44.66867322919288" lon="7.875165311784405"><ele>211.0</ele><time>2026-04-11T15:16:06Z</time></trkpt><trkpt lat="44.66873063000266" lon="7.875312538339884"><ele>211.0</ele><time>2026-04-11T15:16:08Z</time></trkpt><trkpt lat="44.66877562538142" lon="7.87547813394551"><ele>211.0</ele><time>2026-04-11T15:16:10Z</time></trkpt><trkpt lat="44.668820182001156" lon="7.875645142119014"><ele>211.0</ele><time>2026-04-11T15:16:12Z</time></trkpt><trkpt lat="44.66884993145606" lon="7.875724286696432"><ele>211.0</ele><time>2026-04-11T15:16:13Z</time></trkpt><trkpt lat="44.66890343979408" lon="7.875881122048718"><ele>211.0</ele><time>2026-04-11T15:16:15Z</time></trkpt><trkpt lat="44.668951528651554" lon="7.8760325104101"><ele>211.0</ele><time>2026-04-11T15:16:17Z</time></trkpt><trkpt lat="44.669004560158726" lon="7.876190834864854"><ele>211.0</ele><time>2026-04-11T15:16:19Z</time></trkpt><trkpt lat="44.66906079392734" lon="7.876340632238183"><ele>211.0</ele><time>2026-04-11T15:16:21Z</time></trkpt><trkpt lat="44.66911462519215" lon="7.876489613023624"><ele>211.0</ele><time>2026-04-11T15:16:23Z</time></trkpt><trkpt lat="44.66916748390226" lon="7.876635619414313"><ele>211.0</ele><time>2026-04-11T15:16:25Z</time></trkpt><trkpt lat="44.66920414958058" lon="7.876786774093834"><ele>211.0</ele><time>2026-04-11T15:16:27Z</time></trkpt><trkpt lat="44.66923433519048" lon="7.876937851379171"><ele>211.0</ele><time>2026-04-11T15:16:29Z</time></trkpt><trkpt lat="44.66926339232357" lon="7.877088693600233"><ele>211.0</ele><time>2026-04-11T15:16:31Z</time></trkpt><trkpt lat="44.66929444249126" lon="7.877218487695833"><ele>211.0</ele><time>2026-04-11T15:16:33Z</time></trkpt><trkpt lat="44.66932753364185" lon="7.877311286858477"><ele>211.0</ele><time>2026-04-11T15:16:35Z</time></trkpt><trkpt lat="44.66935322104937" lon="7.877436913261745"><ele>211.0</ele><time>2026-04-11T15:16:37Z</time></trkpt><trkpt lat="44.66938816826215" lon="7.877571825359799"><ele>211.0</ele><time>2026-04-11T15:16:39Z</time></trkpt><trkpt lat="44.66943871097171" lon="7.8776998990722795"><ele>211.0</ele><time>2026-04-11T15:16:41Z</time></trkpt><trkpt lat="44.66948770326104" lon="7.877830153807529"><ele>211.0</ele><time>2026-04-11T15:16:43Z</time></trkpt><trkpt lat="44.669545743000505" lon="7.877967468836336"><ele>211.0</ele><time>2026-04-11T15:16:45Z</time></trkpt><trkpt lat="44.66960060994734" lon="7.878098243180723"><ele>210.8</ele><time>2026-04-11T15:16:47Z</time></trkpt><trkpt lat="44.669674676080234" lon="7.878227669104863"><ele>210.60000000000002</ele><time>2026-04-11T15:16:49Z</time></trkpt><trkpt lat="44.66974528050412" lon="7.878348083243321"><ele>210.4</ele><time>2026-04-11T15:16:51Z</time></trkpt><trkpt lat="44.66982120208554" lon="7.8784472724374295"><ele>210.2</ele><time>2026-04-11T15:16:53Z</time></trkpt><trkpt lat="44.66990555040536" lon="7.878499755188292"><ele>210.0</ele><time>2026-04-11T15:16:55Z</time></trkpt><trkpt lat="44.670027443606635" lon="7.878524955996879"><ele>210.0</ele><time>2026-04-11T15:16:58Z</time></trkpt><trkpt lat="44.67007864638335" lon="7.878585538274814"><ele>210.0</ele><time>2026-04-11T15:17:00Z</time></trkpt><trkpt lat="44.67015123665057" lon="7.878611301553343"><ele>210.0</ele><time>2026-04-11T15:17:02Z</time></trkpt><trkpt lat="44.67022715721134" lon="7.878543848120214"><ele>210.0</ele><time>2026-04-11T15:17:04Z</time></trkpt><trkpt lat="44.67031472586299" lon="7.878482104393652"><ele>210.0</ele><time>2026-04-11T15:17:06Z</time></trkpt><trkpt lat="44.67037162085664" lon="7.878442896359263"><ele>210.0</ele><time>2026-04-11T15:17:07Z</time></trkpt><trkpt lat="44.67047096037423" lon="7.878382776612974"><ele>209.0</ele><time>2026-04-11T15:17:09Z</time></trkpt><trkpt lat="44.67057672431905" lon="7.878321443101589"><ele>208.0</ele><time>2026-04-11T15:17:11Z</time></trkpt><trkpt lat="44.67068112318741" lon="7.878259550440645"><ele>207.0</ele><time>2026-04-11T15:17:12.999Z</time></trkpt><trkpt lat="44.67078794426785" lon="7.878191664665261"><ele>206.0</ele><time>2026-04-11T15:17:15Z</time></trkpt><trkpt lat="44.67089917406513" lon="7.878125705262343"><ele>206.0</ele><time>2026-04-11T15:17:17Z</time></trkpt><trkpt lat="44.67100618948302" lon="7.87805847455916"><ele>206.0</ele><time>2026-04-11T15:17:19Z</time></trkpt><trkpt lat="44.671064944970524" lon="7.878023030920682"><ele>206.0</ele><time>2026-04-11T15:17:20Z</time></trkpt><trkpt lat="44.67116599274806" lon="7.877962009721589"><ele>206.0</ele><time>2026-04-11T15:17:22Z</time></trkpt><trkpt lat="44.671273692185046" lon="7.877888607833454"><ele>206.0</ele><time>2026-04-11T15:17:24Z</time></trkpt><trkpt lat="44.67137935815367" lon="7.877818976579279"><ele>206.25</ele><time>2026-04-11T15:17:26Z</time></trkpt><trkpt lat="44.67148713118646" lon="7.8777490487895525"><ele>206.5</ele><time>2026-04-11T15:17:28Z</time></trkpt><trkpt lat="44.6715961392322" lon="7.8776840293852315"><ele>206.75</ele><time>2026-04-11T15:17:30Z</time></trkpt><trkpt lat="44.67170611136976" lon="7.877616365387164"><ele>207.0</ele><time>2026-04-11T15:17:32Z</time></trkpt><trkpt lat="44.67181507291533" lon="7.877552771814928"><ele>207.0</ele><time>2026-04-11T15:17:34Z</time></trkpt><trkpt lat="44.671916459353085" lon="7.877488889390035"><ele>207.0</ele><time>2026-04-11T15:17:36Z</time></trkpt><trkpt lat="44.67201958988947" lon="7.8774187051273445"><ele>207.0</ele><time>2026-04-11T15:17:38Z</time></trkpt><trkpt lat="44.672124031764426" lon="7.877351646158637"><ele>207.0</ele><time>2026-04-11T15:17:40Z</time></trkpt><trkpt lat="44.67222621608429" lon="7.877288089084145"><ele>207.0</ele><time>2026-04-11T15:17:42Z</time></trkpt><trkpt lat="44.672329438364876" lon="7.8772184738768765"><ele>207.0</ele><time>2026-04-11T15:17:44Z</time></trkpt><trkpt lat="44.67243400562288" lon="7.877152005501931"><ele>207.0</ele><time>2026-04-11T15:17:46Z</time></trkpt><trkpt lat="44.67249404856796" lon="7.877116512267594"><ele>207.0</ele><time>2026-04-11T15:17:47Z</time></trkpt><trkpt lat="44.67261201804967" lon="7.877040807777392"><ele>207.0</ele><time>2026-04-11T15:17:49Z</time></trkpt><trkpt lat="44.672669715552516" lon="7.877004430777234"><ele>207.0</ele><time>2026-04-11T15:17:50Z</time></trkpt><trkpt lat="44.67272911116501" lon="7.8769703953452295"><ele>207.0</ele><time>2026-04-11T15:17:51Z</time></trkpt><trkpt lat="44.67279074114084" lon="7.876934231503031"><ele>207.0</ele><time>2026-04-11T15:17:52Z</time></trkpt><trkpt lat="44.67284988216123" lon="7.876896013441582"><ele>207.0</ele><time>2026-04-11T15:17:53Z</time></trkpt><trkpt lat="44.67296748750091" lon="7.876816126516999"><ele>207.0</ele><time>2026-04-11T15:17:55Z</time></trkpt><trkpt lat="44.673026764186424" lon="7.876785136408031"><ele>207.0</ele><time>2026-04-11T15:17:56Z</time></trkpt><trkpt lat="44.67314092462855" lon="7.876716668847071"><ele>207.14285714285717</ele><time>2026-04-11T15:17:58Z</time></trkpt><trkpt lat="44.67319981618588" lon="7.876682789760534"><ele>207.28571428571428</ele><time>2026-04-11T15:17:59Z</time></trkpt><trkpt lat="44.67331394247644" lon="7.876609202420044"><ele>207.42857142857144</ele><time>2026-04-11T15:18:01Z</time></trkpt><trkpt lat="44.673372892752305" lon="7.876573813035624"><ele>207.57142857142858</ele><time>2026-04-11T15:18:02Z</time></trkpt><trkpt lat="44.67343343856174" lon="7.876538530880777"><ele>207.71428571428572</ele><time>2026-04-11T15:18:03Z</time></trkpt><trkpt lat="44.673491826688746" lon="7.876502489383864"><ele>207.85714285714286</ele><time>2026-04-11T15:18:04Z</time></trkpt><trkpt lat="44.67355033633016" lon="7.876462404067336"><ele>208.0</ele><time>2026-04-11T15:18:05Z</time></trkpt><trkpt lat="44.6736668368849" lon="7.876390061933085"><ele>208.2</ele><time>2026-04-11T15:18:07Z</time></trkpt><trkpt lat="44.673724691821306" lon="7.876350658933697"><ele>208.4</ele><time>2026-04-11T15:18:08Z</time></trkpt><trkpt lat="44.6737809703898" lon="7.876310065899982"><ele>208.6</ele><time>2026-04-11T15:18:09Z</time></trkpt><trkpt lat="44.67389618829106" lon="7.8762401486194085"><ele>208.79999999999998</ele><time>2026-04-11T15:18:11Z</time></trkpt><trkpt lat="44.674008023977564" lon="7.876174725493123"><ele>209.0</ele><time>2026-04-11T15:18:13Z</time></trkpt><trkpt lat="44.6741198572391" lon="7.876103638683905"><ele>209.0</ele><time>2026-04-11T15:18:15Z</time></trkpt><trkpt lat="44.67421985080862" lon="7.876037044094238"><ele>209.0</ele><time>2026-04-11T15:18:17Z</time></trkpt><trkpt lat="44.67432536803329" lon="7.875977762649312"><ele>209.0</ele><time>2026-04-11T15:18:19Z</time></trkpt><trkpt lat="44.674427088325594" lon="7.875905628356105"><ele>209.0</ele><time>2026-04-11T15:18:21Z</time></trkpt><trkpt lat="44.67453589801016" lon="7.875846432962945"><ele>208.39999999999998</ele><time>2026-04-11T15:18:23Z</time></trkpt><trkpt lat="44.674638894329995" lon="7.875778503519509"><ele>207.8</ele><time>2026-04-11T15:18:25Z</time></trkpt><trkpt lat="44.67474151374644" lon="7.875718083929311"><ele>207.2</ele><time>2026-04-11T15:18:27Z</time></trkpt><trkpt lat="44.67483981684722" lon="7.8756540882815"><ele>206.60000000000002</ele><time>2026-04-11T15:18:29Z</time></trkpt><trkpt lat="44.67494131674091" lon="7.875595488194639"><ele>206.0</ele><time>2026-04-11T15:18:31Z</time></trkpt><trkpt lat="44.67504573652857" lon="7.875526179545601"><ele>206.0</ele><time>2026-04-11T15:18:33Z</time></trkpt><trkpt lat="44.67514697147449" lon="7.875463890126402"><ele>206.0</ele><time>2026-04-11T15:18:35Z</time></trkpt><trkpt lat="44.67524666292695" lon="7.8753995193098065"><ele>206.0</ele><time>2026-04-11T15:18:37Z</time></trkpt><trkpt lat="44.67534265216018" lon="7.87534581169503"><ele>206.0</ele><time>2026-04-11T15:18:39Z</time></trkpt><trkpt lat="44.67548709580004" lon="7.875252390024768"><ele>206.4</ele><time>2026-04-11T15:18:42Z</time></trkpt><trkpt lat="44.675580546276464" lon="7.875210854154977"><ele>206.8</ele><time>2026-04-11T15:18:44Z</time></trkpt><trkpt lat="44.67566296307281" lon="7.875135887246586"><ele>207.20000000000002</ele><time>2026-04-11T15:18:46Z</time></trkpt><trkpt lat="44.67576346266042" lon="7.8750771236803745"><ele>207.60000000000002</ele><time>2026-04-11T15:18:48Z</time></trkpt><trkpt lat="44.67586235503609" lon="7.87501850506785"><ele>208.0</ele><time>2026-04-11T15:18:50Z</time></trkpt><trkpt lat="44.67595742138331" lon="7.8749602263037675"><ele>208.2</ele><time>2026-04-11T15:18:52Z</time></trkpt><trkpt lat="44.67604931197853" lon="7.874895000508327"><ele>208.4</ele><time>2026-04-11T15:18:54Z</time></trkpt><trkpt lat="44.67614647893028" lon="7.874841937442112"><ele>208.6</ele><time>2026-04-11T15:18:56Z</time></trkpt><trkpt lat="44.67623652742699" lon="7.874774522065341"><ele>208.79999999999998</ele><time>2026-04-11T15:18:58Z</time></trkpt><trkpt lat="44.67632783561788" lon="7.87472684283902"><ele>209.0</ele><time>2026-04-11T15:19:00Z</time></trkpt><trkpt lat="44.67642086311193" lon="7.874663990519928"><ele>209.0</ele><time>2026-04-11T15:19:02Z</time></trkpt><trkpt lat="44.67648476572509" lon="7.874632455466087"><ele>209.0</ele><time>2026-04-11T15:19:03Z</time></trkpt><trkpt lat="44.676583478896994" lon="7.874577895716106"><ele>209.0</ele><time>2026-04-11T15:19:05Z</time></trkpt><trkpt lat="44.67668326854823" lon="7.874508120902396"><ele>209.0</ele><time>2026-04-11T15:19:07Z</time></trkpt><trkpt lat="44.67678076958779" lon="7.874443581121791"><ele>209.0</ele><time>2026-04-11T15:19:08.999Z</time></trkpt><trkpt lat="44.676873714673754" lon="7.874385860915868"><ele>209.16666666666669</ele><time>2026-04-11T15:19:10.999Z</time></trkpt><trkpt lat="44.67697317548825" lon="7.8743225325947765"><ele>209.33333333333334</ele><time>2026-04-11T15:19:12.999Z</time></trkpt><trkpt lat="44.67703336856109" lon="7.874294686725572"><ele>209.5</ele><time>2026-04-11T15:19:14.999Z</time></trkpt><trkpt lat="44.6771038407741" lon="7.874251537826354"><ele>209.66666666666669</ele><time>2026-04-11T15:19:16.999Z</time></trkpt><trkpt lat="44.67718081096233" lon="7.874201725162558"><ele>209.83333333333334</ele><time>2026-04-11T15:19:17.999Z</time></trkpt><trkpt lat="44.67724972015325" lon="7.874189398795415"><ele>210.0</ele><time>2026-04-11T15:19:20Z</time></trkpt><trkpt lat="44.677310533366146" lon="7.874095280670391"><ele>210.0</ele><time>2026-04-11T15:19:25Z</time></trkpt><trkpt lat="44.67730940801455" lon="7.8739771885604855"><ele>210.0</ele><time>2026-04-11T15:19:27Z</time></trkpt><trkpt lat="44.67727120223332" lon="7.873830304887318"><ele>210.0</ele><time>2026-04-11T15:19:29Z</time></trkpt><trkpt lat="44.6772256228491" lon="7.873665223560052"><ele>210.0</ele><time>2026-04-11T15:19:31Z</time></trkpt><trkpt lat="44.67718573905008" lon="7.87350734949758"><ele>210.0</ele><time>2026-04-11T15:19:33Z</time></trkpt><trkpt lat="44.67714723374775" lon="7.873339827537331"><ele>210.0</ele><time>2026-04-11T15:19:35Z</time></trkpt><trkpt lat="44.67711077103262" lon="7.873175390415516"><ele>210.0</ele><time>2026-04-11T15:19:37Z</time></trkpt><trkpt lat="44.677074948077944" lon="7.87301726374764"><ele>210.0</ele><time>2026-04-11T15:19:39Z</time></trkpt><trkpt lat="44.677037550744885" lon="7.872854333498674"><ele>210.0</ele><time>2026-04-11T15:19:41Z</time></trkpt><trkpt lat="44.67699745656726" lon="7.872697383905954"><ele>210.2</ele><time>2026-04-11T15:19:43Z</time></trkpt><trkpt lat="44.67696046996403" lon="7.872542188133233"><ele>210.4</ele><time>2026-04-11T15:19:45Z</time></trkpt><trkpt lat="44.67692517499274" lon="7.872388066909365"><ele>210.60000000000002</ele><time>2026-04-11T15:19:47Z</time></trkpt><trkpt lat="44.67692768277286" lon="7.872235946166123"><ele>210.8</ele><time>2026-04-11T15:19:49Z</time></trkpt><trkpt lat="44.676981955876336" lon="7.872179441689718"><ele>211.0</ele><time>2026-04-11T15:19:50Z</time></trkpt><trkpt lat="44.67705367499281" lon="7.872145616407599"><ele>211.0</ele><time>2026-04-11T15:19:51Z</time></trkpt><trkpt lat="44.67712173746582" lon="7.872109042628974"><ele>211.0</ele><time>2026-04-11T15:19:52Z</time></trkpt><trkpt lat="44.677181297385836" lon="7.87206423045456"><ele>211.0</ele><time>2026-04-11T15:19:53Z</time></trkpt><trkpt lat="44.6772395222565" lon="7.872021383159715"><ele>211.0</ele><time>2026-04-11T15:19:54Z</time></trkpt><trkpt lat="44.67729682849675" lon="7.871980733842609"><ele>211.0</ele><time>2026-04-11T15:19:55Z</time></trkpt><trkpt lat="44.677357604808044" lon="7.871941289565194"><ele>211.0</ele><time>2026-04-11T15:19:56Z</time></trkpt><trkpt lat="44.67741875972996" lon="7.871900204214789"><ele>211.0</ele><time>2026-04-11T15:19:57Z</time></trkpt><trkpt lat="44.67747759670885" lon="7.871853847910024"><ele>211.0</ele><time>2026-04-11T15:19:58Z</time></trkpt><trkpt lat="44.67753880383467" lon="7.871807121064175"><ele>211.0</ele><time>2026-04-11T15:19:59Z</time></trkpt><trkpt lat="44.67759816898956" lon="7.8717627573920605"><ele>211.0</ele><time>2026-04-11T15:20:00Z</time></trkpt><trkpt lat="44.67765611800762" lon="7.8717152736029865"><ele>211.0</ele><time>2026-04-11T15:20:01Z</time></trkpt><trkpt lat="44.677718308820005" lon="7.871676793366854"><ele>211.0</ele><time>2026-04-11T15:20:02Z</time></trkpt><trkpt lat="44.677782916387855" lon="7.871641444379784"><ele>211.0</ele><time>2026-04-11T15:20:03Z</time></trkpt><trkpt lat="44.677844290425455" lon="7.871605108526505"><ele>211.0</ele><time>2026-04-11T15:20:04Z</time></trkpt><trkpt lat="44.67790815548785" lon="7.8715632126593"><ele>211.14285714285714</ele><time>2026-04-11T15:20:05Z</time></trkpt><trkpt lat="44.677969952676705" lon="7.871522437963185"><ele>211.28571428571428</ele><time>2026-04-11T15:20:06Z</time></trkpt><trkpt lat="44.67803053815672" lon="7.871483485975773"><ele>211.42857142857144</ele><time>2026-04-11T15:20:07Z</time></trkpt><trkpt lat="44.67809180908061" lon="7.871445954844558"><ele>211.57142857142856</ele><time>2026-04-11T15:20:08Z</time></trkpt><trkpt lat="44.67814940143297" lon="7.871402617665007"><ele>211.7142857142857</ele><time>2026-04-11T15:20:09Z</time></trkpt><trkpt lat="44.678208434250486" lon="7.871354504255911"><ele>211.85714285714286</ele><time>2026-04-11T15:20:10Z</time></trkpt><trkpt lat="44.67826998104017" lon="7.871308070725415"><ele>212.0</ele><time>2026-04-11T15:20:11Z</time></trkpt><trkpt lat="44.678328056829606" lon="7.871263121830141"><ele>212.0</ele><time>2026-04-11T15:20:12Z</time></trkpt><trkpt lat="44.67838768854833" lon="7.871218044997432"><ele>212.0</ele><time>2026-04-11T15:20:13Z</time></trkpt><trkpt lat="44.67844483107372" lon="7.871172534420709"><ele>212.0</ele><time>2026-04-11T15:20:14Z</time></trkpt><trkpt lat="44.67850216750258" lon="7.871127540208516"><ele>212.0</ele><time>2026-04-11T15:20:15Z</time></trkpt><trkpt lat="44.678560518897676" lon="7.871082184326935"><ele>212.0</ele><time>2026-04-11T15:20:16Z</time></trkpt><trkpt lat="44.678618993622926" lon="7.871044102211778"><ele>212.0</ele><time>2026-04-11T15:20:17Z</time></trkpt><trkpt lat="44.67867963919793" lon="7.8710123816209965"><ele>212.0</ele><time>2026-04-11T15:20:18Z</time></trkpt><trkpt lat="44.6787426103655" lon="7.870984013741768"><ele>211.66666666666669</ele><time>2026-04-11T15:20:19Z</time></trkpt><trkpt lat="44.67880230101416" lon="7.870954585542762"><ele>211.33333333333334</ele><time>2026-04-11T15:20:20Z</time></trkpt><trkpt lat="44.6788600032022" lon="7.87091883685666"><ele>211.0</ele><time>2026-04-11T15:20:21Z</time></trkpt><trkpt lat="44.678975819308384" lon="7.87084616635731"><ele>210.66666666666669</ele><time>2026-04-11T15:20:23Z</time></trkpt><trkpt lat="44.67909341150095" lon="7.870775188002238"><ele>210.33333333333334</ele><time>2026-04-11T15:20:25Z</time></trkpt><trkpt lat="44.67915362993436" lon="7.870737236090549"><ele>210.0</ele><time>2026-04-11T15:20:26Z</time></trkpt><trkpt lat="44.67921150445095" lon="7.870700329600229"><ele>210.0</ele><time>2026-04-11T15:20:27Z</time></trkpt><trkpt lat="44.679271023646365" lon="7.870669648977445"><ele>210.0</ele><time>2026-04-11T15:20:28Z</time></trkpt><trkpt lat="44.67933215037308" lon="7.870632532164782"><ele>210.0</ele><time>2026-04-11T15:20:29Z</time></trkpt><trkpt lat="44.67939211331679" lon="7.8705973747438245"><ele>210.0</ele><time>2026-04-11T15:20:30Z</time></trkpt><trkpt lat="44.679452520852365" lon="7.87056170110802"><ele>210.0</ele><time>2026-04-11T15:20:31Z</time></trkpt><trkpt lat="44.67951231840868" lon="7.870530648312189"><ele>210.0</ele><time>2026-04-11T15:20:32Z</time></trkpt><trkpt lat="44.679575692183434" lon="7.870500039399973"><ele>210.0</ele><time>2026-04-11T15:20:33Z</time></trkpt><trkpt lat="44.679636236231296" lon="7.870472160739965"><ele>210.14285714285714</ele><time>2026-04-11T15:20:34Z</time></trkpt><trkpt lat="44.679698377713" lon="7.870440176252531"><ele>210.28571428571428</ele><time>2026-04-11T15:20:35Z</time></trkpt><trkpt lat="44.679761514267035" lon="7.870407161804513"><ele>210.42857142857144</ele><time>2026-04-11T15:20:36Z</time></trkpt><trkpt lat="44.679822901577396" lon="7.870376395445488"><ele>210.57142857142856</ele><time>2026-04-11T15:20:37Z</time></trkpt><trkpt lat="44.67988404168243" lon="7.8703478115033585"><ele>210.71428571428572</ele><time>2026-04-11T15:20:38Z</time></trkpt><trkpt lat="44.679945496293506" lon="7.870320052112052"><ele>210.85714285714286</ele><time>2026-04-11T15:20:39Z</time></trkpt><trkpt lat="44.68000598743166" lon="7.870286444172133"><ele>211.0</ele><time>2026-04-11T15:20:40Z</time></trkpt><trkpt lat="44.680123299498284" lon="7.870212955273691"><ele>211.0</ele><time>2026-04-11T15:20:42Z</time></trkpt><trkpt lat="44.6801823986026" lon="7.870173444863567"><ele>211.0</ele><time>2026-04-11T15:20:43Z</time></trkpt><trkpt lat="44.68024021268912" lon="7.870134241049264"><ele>211.0</ele><time>2026-04-11T15:20:44Z</time></trkpt><trkpt lat="44.68029706926992" lon="7.8700914876462225"><ele>211.0</ele><time>2026-04-11T15:20:45Z</time></trkpt><trkpt lat="44.68035488845344" lon="7.870049032648952"><ele>211.0</ele><time>2026-04-11T15:20:46Z</time></trkpt><trkpt lat="44.68046725202661" lon="7.869967922375033"><ele>211.0</ele><time>2026-04-11T15:20:48Z</time></trkpt><trkpt lat="44.68052334125729" lon="7.869925378265387"><ele>211.0</ele><time>2026-04-11T15:20:49Z</time></trkpt><trkpt lat="44.680633867786646" lon="7.869841482095483"><ele>211.0</ele><time>2026-04-11T15:20:51Z</time></trkpt><trkpt lat="44.68074110539672" lon="7.86975345156504"><ele>211.0</ele><time>2026-04-11T15:20:53Z</time></trkpt><trkpt lat="44.68080202776315" lon="7.869721768589482"><ele>211.0</ele><time>2026-04-11T15:20:54Z</time></trkpt><trkpt lat="44.68090800691925" lon="7.869635495058333"><ele>211.0</ele><time>2026-04-11T15:20:56Z</time></trkpt><trkpt lat="44.68101157701926" lon="7.869546723930237"><ele>211.0</ele><time>2026-04-11T15:20:58Z</time></trkpt><trkpt lat="44.68110151075984" lon="7.869435743590089"><ele>211.25</ele><time>2026-04-11T15:21:00Z</time></trkpt><trkpt lat="44.681135648921256" lon="7.869255228290567"><ele>211.5</ele><time>2026-04-11T15:21:02Z</time></trkpt><trkpt lat="44.68119043150781" lon="7.8691012505459845"><ele>211.75</ele><time>2026-04-11T15:21:03.999Z</time></trkpt><trkpt lat="44.68124936879666" lon="7.8689525358029835"><ele>212.0</ele><time>2026-04-11T15:21:05.999Z</time></trkpt><trkpt lat="44.68129719849809" lon="7.8687996259633515"><ele>212.0</ele><time>2026-04-11T15:21:07.999Z</time></trkpt><trkpt lat="44.68134396236061" lon="7.8686446657352915"><ele>212.0</ele><time>2026-04-11T15:21:09.999Z</time></trkpt><trkpt lat="44.68137688310617" lon="7.86848215089261"><ele>212.0</ele><time>2026-04-11T15:21:11.999Z</time></trkpt><trkpt lat="44.68141027369701" lon="7.868316257922022"><ele>212.0</ele><time>2026-04-11T15:21:13.999Z</time></trkpt><trkpt lat="44.681447647528714" lon="7.868155994857465"><ele>212.25</ele><time>2026-04-11T15:21:15.999Z</time></trkpt><trkpt lat="44.68148154467968" lon="7.867992187860875"><ele>212.5</ele><time>2026-04-11T15:21:17.999Z</time></trkpt><trkpt lat="44.681517430799445" lon="7.867835262411471"><ele>212.75</ele><time>2026-04-11T15:21:19.999Z</time></trkpt><trkpt lat="44.68156373399728" lon="7.8676827798421565"><ele>213.0</ele><time>2026-04-11T15:21:21.999Z</time></trkpt><trkpt lat="44.68158971639647" lon="7.867518492714909"><ele>213.0</ele><time>2026-04-11T15:21:23.999Z</time></trkpt><trkpt lat="44.681616157680324" lon="7.867353919405737"><ele>213.0</ele><time>2026-04-11T15:21:26Z</time></trkpt><trkpt lat="44.68164584677095" lon="7.867194082250605"><ele>213.0</ele><time>2026-04-11T15:21:28Z</time></trkpt><trkpt lat="44.6816749787959" lon="7.86703596587529"><ele>213.0</ele><time>2026-04-11T15:21:30Z</time></trkpt><trkpt lat="44.681703148458304" lon="7.866885704226703"><ele>213.0</ele><time>2026-04-11T15:21:32Z</time></trkpt><trkpt lat="44.68173436186876" lon="7.866728617222408"><ele>213.0</ele><time>2026-04-11T15:21:34Z</time></trkpt><trkpt lat="44.6817645474718" lon="7.866571338775468"><ele>213.0</ele><time>2026-04-11T15:21:36Z</time></trkpt><trkpt lat="44.68179721019484" lon="7.866410672081563"><ele>213.0</ele><time>2026-04-11T15:21:38Z</time></trkpt><trkpt lat="44.681831708993656" lon="7.866254356147631"><ele>213.0</ele><time>2026-04-11T15:21:40Z</time></trkpt><trkpt lat="44.681875931826596" lon="7.866100936924664"><ele>213.0</ele><time>2026-04-11T15:21:42Z</time></trkpt><trkpt lat="44.68191464580445" lon="7.865944279141206"><ele>213.0</ele><time>2026-04-11T15:21:44Z</time></trkpt><trkpt lat="44.681948908799924" lon="7.865787696622896"><ele>213.0</ele><time>2026-04-11T15:21:46Z</time></trkpt><trkpt lat="44.681984214597044" lon="7.865626952858571"><ele>212.5</ele><time>2026-04-11T15:21:48Z</time></trkpt><trkpt lat="44.68202048760531" lon="7.865465905825724"><ele>212.0</ele><time>2026-04-11T15:21:50Z</time></trkpt><trkpt lat="44.682096727216106" lon="7.865342154976524"><ele>211.5</ele><time>2026-04-11T15:21:52Z</time></trkpt><trkpt lat="44.68219405487389" lon="7.865243897807894"><ele>211.0</ele><time>2026-04-11T15:21:54Z</time></trkpt><trkpt lat="44.68229745117127" lon="7.865165260699771"><ele>211.5</ele><time>2026-04-11T15:21:56Z</time></trkpt><trkpt lat="44.6824013544425" lon="7.865086946924783"><ele>212.0</ele><time>2026-04-11T15:21:58Z</time></trkpt><trkpt lat="44.682504515987276" lon="7.865014156822939"><ele>212.5</ele><time>2026-04-11T15:22:00Z</time></trkpt><trkpt lat="44.68261207224619" lon="7.864950484316479"><ele>213.0</ele><time>2026-04-11T15:22:02Z</time></trkpt><trkpt lat="44.68272116714943" lon="7.864874275248037"><ele>213.0</ele><time>2026-04-11T15:22:04Z</time></trkpt><trkpt lat="44.68282567759853" lon="7.8647955543223205"><ele>213.0</ele><time>2026-04-11T15:22:06Z</time></trkpt><trkpt lat="44.68291934146509" lon="7.864682632380472"><ele>213.0</ele><time>2026-04-11T15:22:08Z</time></trkpt><trkpt lat="44.68293883778914" lon="7.8645019794999325"><ele>213.0</ele><time>2026-04-11T15:22:10Z</time></trkpt><trkpt lat="44.68292961596539" lon="7.864412616656407"><ele>213.0</ele><time>2026-04-11T15:22:11Z</time></trkpt><trkpt lat="44.682915958483115" lon="7.864246281512256"><ele>213.0</ele><time>2026-04-11T15:22:13Z</time></trkpt><trkpt lat="44.68296722590385" lon="7.864090531613685"><ele>213.0</ele><time>2026-04-11T15:22:15Z</time></trkpt><trkpt lat="44.683045553013564" lon="7.863965301298797"><ele>213.0</ele><time>2026-04-11T15:22:17Z</time></trkpt><trkpt lat="44.68313210039066" lon="7.863847809116296"><ele>213.0</ele><time>2026-04-11T15:22:19Z</time></trkpt><trkpt lat="44.683220871948656" lon="7.863734104221449"><ele>213.0</ele><time>2026-04-11T15:22:21Z</time></trkpt><trkpt lat="44.683302268269394" lon="7.863613437978545"><ele>213.0</ele><time>2026-04-11T15:22:23Z</time></trkpt><trkpt lat="44.683383205276634" lon="7.863493452545433"><ele>213.0</ele><time>2026-04-11T15:22:25Z</time></trkpt><trkpt lat="44.68345409676386" lon="7.863356085736757"><ele>213.0</ele><time>2026-04-11T15:22:27Z</time></trkpt><trkpt lat="44.683548611834006" lon="7.8632467872127245"><ele>213.2</ele><time>2026-04-11T15:22:29Z</time></trkpt><trkpt lat="44.683591410949525" lon="7.863181295664424"><ele>213.4</ele><time>2026-04-11T15:22:30Z</time></trkpt><trkpt lat="44.68366101188189" lon="7.863041649539746"><ele>213.59999999999997</ele><time>2026-04-11T15:22:32Z</time></trkpt><trkpt lat="44.6837139924626" lon="7.862993720433949"><ele>213.79999999999998</ele><time>2026-04-11T15:22:33Z</time></trkpt><trkpt lat="44.683794481725094" lon="7.8628685443974495"><ele>214.0</ele><time>2026-04-11T15:22:35Z</time></trkpt><trkpt lat="44.68386571288853" lon="7.862727348560763"><ele>213.75</ele><time>2026-04-11T15:22:37Z</time></trkpt><trkpt lat="44.683947228332265" lon="7.862594072973519"><ele>213.5</ele><time>2026-04-11T15:22:39Z</time></trkpt><trkpt lat="44.68403378862109" lon="7.862468218209593"><ele>213.25</ele><time>2026-04-11T15:22:41Z</time></trkpt><trkpt lat="44.6841102769048" lon="7.862330608071848"><ele>213.0</ele><time>2026-04-11T15:22:43Z</time></trkpt><trkpt lat="44.68419308585479" lon="7.862203364039892"><ele>213.0</ele><time>2026-04-11T15:22:45Z</time></trkpt><trkpt lat="44.68425972909315" lon="7.862072035741944"><ele>213.0</ele><time>2026-04-11T15:22:47Z</time></trkpt><trkpt lat="44.68433055602902" lon="7.861948088204929"><ele>213.0</ele><time>2026-04-11T15:22:49Z</time></trkpt><trkpt lat="44.684408558271166" lon="7.861823340612088"><ele>213.0</ele><time>2026-04-11T15:22:51Z</time></trkpt><trkpt lat="44.68449972157388" lon="7.8617337378448315"><ele>213.25</ele><time>2026-04-11T15:22:53Z</time></trkpt><trkpt lat="44.6845785579838" lon="7.861799768266109"><ele>213.5</ele><time>2026-04-11T15:22:54Z</time></trkpt><trkpt lat="44.684694758513956" lon="7.861779417419031"><ele>213.75</ele><time>2026-04-11T15:22:56Z</time></trkpt><trkpt lat="44.684818054579054" lon="7.861761025415933"><ele>214.0</ele><time>2026-04-11T15:22:57.999Z</time></trkpt><trkpt lat="44.68494468838049" lon="7.861741951147854"><ele>214.0</ele><time>2026-04-11T15:22:59.999Z</time></trkpt><trkpt lat="44.68506659187971" lon="7.861703076525021"><ele>214.0</ele><time>2026-04-11T15:23:01.999Z</time></trkpt><trkpt lat="44.68518871923926" lon="7.861661183335962"><ele>214.0</ele><time>2026-04-11T15:23:03.999Z</time></trkpt><trkpt lat="44.68530562080384" lon="7.861619732548376"><ele>214.0</ele><time>2026-04-11T15:23:05.999Z</time></trkpt><trkpt lat="44.68542634003604" lon="7.861584508591083"><ele>214.25</ele><time>2026-04-11T15:23:07.999Z</time></trkpt><trkpt lat="44.68554978573488" lon="7.8615565871790025"><ele>214.5</ele><time>2026-04-11T15:23:09.999Z</time></trkpt><trkpt lat="44.68567598556591" lon="7.861527640979249"><ele>214.75</ele><time>2026-04-11T15:23:11.999Z</time></trkpt><trkpt lat="44.68579977991528" lon="7.861500044317413"><ele>215.0</ele><time>2026-04-11T15:23:13.999Z</time></trkpt><trkpt lat="44.68592247572061" lon="7.86147694184558"><ele>215.00000000000003</ele><time>2026-04-11T15:23:15.999Z</time></trkpt><trkpt lat="44.685985531573436" lon="7.861462862123825"><ele>215.0</ele><time>2026-04-11T15:23:16.999Z</time></trkpt><trkpt lat="44.686107702661374" lon="7.861433922830318"><ele>215.0</ele><time>2026-04-11T15:23:18.999Z</time></trkpt><trkpt lat="44.68616482825744" lon="7.861394734553185"><ele>215.0</ele><time>2026-04-11T15:23:19.999Z</time></trkpt><trkpt lat="44.68623041825507" lon="7.861397384487261"><ele>215.00000000000003</ele><time>2026-04-11T15:23:20.999Z</time></trkpt><trkpt lat="44.68634572229291" lon="7.8613573516522965"><ele>215.0</ele><time>2026-04-11T15:23:22.999Z</time></trkpt><trkpt lat="44.6864615557785" lon="7.861312739473683"><ele>215.0</ele><time>2026-04-11T15:23:24.999Z</time></trkpt><trkpt lat="44.686576979023855" lon="7.861272586537669"><ele>215.0</ele><time>2026-04-11T15:23:26.999Z</time></trkpt><trkpt lat="44.68668823102717" lon="7.861226513651025"><ele>215.0</ele><time>2026-04-11T15:23:28.999Z</time></trkpt><trkpt lat="44.686808051764245" lon="7.861207123221453"><ele>215.0</ele><time>2026-04-11T15:23:30.999Z</time></trkpt><trkpt lat="44.6868730395776" lon="7.861215380350776"><ele>215.0</ele><time>2026-04-11T15:23:32Z</time></trkpt><trkpt lat="44.68693195213577" lon="7.86117485365888"><ele>215.6</ele><time>2026-04-11T15:23:33Z</time></trkpt><trkpt lat="44.686994487539444" lon="7.86115046081282"><ele>216.2</ele><time>2026-04-11T15:23:34Z</time></trkpt><trkpt lat="44.68705052285706" lon="7.861109691384232"><ele>216.8</ele><time>2026-04-11T15:23:35Z</time></trkpt><trkpt lat="44.687159871580924" lon="7.861033648881669"><ele>217.4</ele><time>2026-04-11T15:23:37Z</time></trkpt><trkpt lat="44.687270882375714" lon="7.86096217386"><ele>218.0</ele><time>2026-04-11T15:23:39Z</time></trkpt><trkpt lat="44.68737981341425" lon="7.860912973530999"><ele>218.2</ele><time>2026-04-11T15:23:41Z</time></trkpt><trkpt lat="44.687464723157554" lon="7.860830246963039"><ele>218.4</ele><time>2026-04-11T15:23:43Z</time></trkpt><trkpt lat="44.68755302949895" lon="7.860770000564547"><ele>218.59999999999997</ele><time>2026-04-11T15:23:45Z</time></trkpt><trkpt lat="44.68764124664273" lon="7.86071301908819"><ele>218.79999999999998</ele><time>2026-04-11T15:23:47Z</time></trkpt><trkpt lat="44.687715525281014" lon="7.860669118474695"><ele>219.0</ele><time>2026-04-11T15:23:50Z</time></trkpt><trkpt lat="44.68779262574796" lon="7.860629234346859"><ele>220.83333333333334</ele><time>2026-04-11T15:23:51Z</time></trkpt><trkpt lat="44.68786420221575" lon="7.860601615252326"><ele>222.66666666666669</ele><time>2026-04-11T15:23:53Z</time></trkpt><trkpt lat="44.68794927345152" lon="7.8605702458971125"><ele>224.5</ele><time>2026-04-11T15:23:56Z</time></trkpt><trkpt lat="44.68802521213438" lon="7.860555439960567"><ele>226.33333333333334</ele><time>2026-04-11T15:23:59Z</time></trkpt><trkpt lat="44.68809494030067" lon="7.86057007069082"><ele>228.16666666666669</ele><time>2026-04-11T15:24:02Z</time></trkpt><trkpt lat="44.68817400897048" lon="7.860542122324033"><ele>230.0</ele><time>2026-04-11T15:24:06Z</time></trkpt><trkpt lat="44.68822540664055" lon="7.860489400875812"><ele>230.00000000000003</ele><time>2026-04-11T15:24:08Z</time></trkpt><trkpt lat="44.68829089220402" lon="7.860408865851124"><ele>230.0</ele><time>2026-04-11T15:24:11Z</time></trkpt><trkpt lat="44.68836284306597" lon="7.86031947067633"><ele>230.0</ele><time>2026-04-11T15:24:14Z</time></trkpt><trkpt lat="44.688409604649166" lon="7.8602578202749305"><ele>230.0</ele><time>2026-04-11T15:24:16Z</time></trkpt><trkpt lat="44.68844796598562" lon="7.860187600192855"><ele>230.00000000000003</ele><time>2026-04-11T15:24:18Z</time></trkpt><trkpt lat="44.68847387966494" lon="7.86004888081425"><ele>230.0</ele><time>2026-04-11T15:24:22Z</time></trkpt><trkpt lat="44.68847590289622" lon="7.859913445162454"><ele>230.33333333333334</ele><time>2026-04-11T15:24:25Z</time></trkpt><trkpt lat="44.688467664627424" lon="7.859814011715012"><ele>230.66666666666669</ele><time>2026-04-11T15:24:27Z</time></trkpt><trkpt lat="44.68845035432891" lon="7.859655069350646"><ele>231.0</ele><time>2026-04-11T15:24:30Z</time></trkpt><trkpt lat="44.688423348512636" lon="7.859560736923168"><ele>231.33333333333331</ele><time>2026-04-11T15:24:32Z</time></trkpt><trkpt lat="44.688414433885484" lon="7.859469437824349"><ele>231.66666666666666</ele><time>2026-04-11T15:24:34Z</time></trkpt><trkpt lat="44.6884003989199" lon="7.859373094038264"><ele>232.0</ele><time>2026-04-11T15:24:36Z</time></trkpt><trkpt lat="44.688381620555774" lon="7.859254613187312"><ele>232.83333333333331</ele><time>2026-04-11T15:24:39Z</time></trkpt><trkpt lat="44.68835958577896" lon="7.859131648971656"><ele>233.66666666666666</ele><time>2026-04-11T15:24:42Z</time></trkpt><trkpt lat="44.68834162401209" lon="7.859027792743492"><ele>234.5</ele><time>2026-04-11T15:24:45Z</time></trkpt><trkpt lat="44.68831877546193" lon="7.858909233609826"><ele>235.33333333333331</ele><time>2026-04-11T15:24:48Z</time></trkpt><trkpt lat="44.68829100666677" lon="7.858796132812454"><ele>236.16666666666666</ele><time>2026-04-11T15:24:51Z</time></trkpt><trkpt lat="44.688265639980635" lon="7.858680321172763"><ele>237.0</ele><time>2026-04-11T15:24:54Z</time></trkpt><trkpt lat="44.6882494352029" lon="7.858562737891478"><ele>238.33333333333334</ele><time>2026-04-11T15:24:57Z</time></trkpt><trkpt lat="44.68823522849006" lon="7.858449128744427"><ele>239.66666666666669</ele><time>2026-04-11T15:24:59.999Z</time></trkpt><trkpt lat="44.688210089888486" lon="7.858337512551882"><ele>241.0</ele><time>2026-04-11T15:25:02.999Z</time></trkpt><trkpt lat="44.68818275149669" lon="7.858221068861506"><ele>242.33333333333334</ele><time>2026-04-11T15:25:05.999Z</time></trkpt><trkpt lat="44.688165534618996" lon="7.858098344752525"><ele>243.66666666666669</ele><time>2026-04-11T15:25:08.999Z</time></trkpt><trkpt lat="44.68814718500333" lon="7.857982415566528"><ele>245.0</ele><time>2026-04-11T15:25:11.999Z</time></trkpt><trkpt lat="44.68812716729373" lon="7.857864639222704"><ele>245.00000000000003</ele><time>2026-04-11T15:25:14.999Z</time></trkpt><trkpt lat="44.688118525459" lon="7.8577506989630415"><ele>245.0</ele><time>2026-04-11T15:25:17.999Z</time></trkpt><trkpt lat="44.688110600578405" lon="7.857626631249821"><ele>245.0</ele><time>2026-04-11T15:25:20.999Z</time></trkpt><trkpt lat="44.68810787191236" lon="7.857513294258214"><ele>245.0</ele><time>2026-04-11T15:25:23.999Z</time></trkpt><trkpt lat="44.688119595321396" lon="7.857397118715384"><ele>245.00000000000003</ele><time>2026-04-11T15:25:26.999Z</time></trkpt><trkpt lat="44.68811900372249" lon="7.857293630802085"><ele>245.0</ele><time>2026-04-11T15:25:29.999Z</time></trkpt><trkpt lat="44.688121098185185" lon="7.8571974513271945"><ele>246.14285714285714</ele><time>2026-04-11T15:25:32.999Z</time></trkpt><trkpt lat="44.688121230851664" lon="7.857108893284266"><ele>247.28571428571428</ele><time>2026-04-11T15:25:35.999Z</time></trkpt><trkpt lat="44.68811477913443" lon="7.8570163224895735"><ele>248.42857142857144</ele><time>2026-04-11T15:25:39Z</time></trkpt><trkpt lat="44.6881166543407" lon="7.856923226801896"><ele>249.57142857142858</ele><time>2026-04-11T15:25:42Z</time></trkpt><trkpt lat="44.6881023793282" lon="7.856816552462787"><ele>250.71428571428572</ele><time>2026-04-11T15:25:46Z</time></trkpt><trkpt lat="44.68809773358976" lon="7.856721534069394"><ele>251.8571428571429</ele><time>2026-04-11T15:25:49Z</time></trkpt><trkpt lat="44.688091125419945" lon="7.856622520577576"><ele>253.00000000000003</ele><time>2026-04-11T15:25:52Z</time></trkpt><trkpt lat="44.68807620291482" lon="7.856524879189328"><ele>254.66666666666666</ele><time>2026-04-11T15:25:55Z</time></trkpt><trkpt lat="44.688048541089934" lon="7.856425571425691"><ele>256.3333333333333</ele><time>2026-04-11T15:25:58Z</time></trkpt><trkpt lat="44.68800650548262" lon="7.856337322243484"><ele>258.0</ele><time>2026-04-11T15:26:01Z</time></trkpt><trkpt lat="44.687965946117096" lon="7.8562565596409755"><ele>259.6666666666667</ele><time>2026-04-11T15:26:03Z</time></trkpt><trkpt lat="44.687898722745075" lon="7.856179802433917"><ele>261.33333333333337</ele><time>2026-04-11T15:26:06Z</time></trkpt><trkpt lat="44.68786436971587" lon="7.856073745038667"><ele>263.0</ele><time>2026-04-11T15:26:09Z</time></trkpt><trkpt lat="44.68788784546101" lon="7.855958637806343"><ele>263.0</ele><time>2026-04-11T15:26:12Z</time></trkpt><trkpt lat="44.68795648250012" lon="7.855914383242209"><ele>263.0</ele><time>2026-04-11T15:26:15Z</time></trkpt><trkpt lat="44.68802028593132" lon="7.855921697306856"><ele>263.0</ele><time>2026-04-11T15:26:18Z</time></trkpt><trkpt lat="44.68807313556695" lon="7.8559958035693915"><ele>263.0</ele><time>2026-04-11T15:26:21Z</time></trkpt><trkpt lat="44.6881415195826" lon="7.85606230195066"><ele>263.0</ele><time>2026-04-11T15:26:24Z</time></trkpt><trkpt lat="44.688226220012076" lon="7.856058158448096"><ele>263.0</ele><time>2026-04-11T15:26:27Z</time></trkpt><trkpt lat="44.68828671819243" lon="7.855975397269782"><ele>264.1666666666667</ele><time>2026-04-11T15:26:30Z</time></trkpt><trkpt lat="44.6883114939093" lon="7.855859777913294"><ele>265.33333333333337</ele><time>2026-04-11T15:26:33Z</time></trkpt><trkpt lat="44.68834322568245" lon="7.855741233079207"><ele>266.5</ele><time>2026-04-11T15:26:36Z</time></trkpt><trkpt lat="44.688384802363345" lon="7.8556354440483975"><ele>267.6666666666667</ele><time>2026-04-11T15:26:39Z</time></trkpt><trkpt lat="44.68843232807303" lon="7.8555521345397965"><ele>268.8333333333333</ele><time>2026-04-11T15:26:42Z</time></trkpt><trkpt lat="44.688484569296456" lon="7.855490479163916"><ele>270.0</ele><time>2026-04-11T15:26:45Z</time></trkpt><trkpt lat="44.688550452351954" lon="7.855482847707144"><ele>271.8333333333333</ele><time>2026-04-11T15:26:48Z</time></trkpt><trkpt lat="44.68863117235036" lon="7.8554750414224515"><ele>273.6666666666667</ele><time>2026-04-11T15:26:51.999Z</time></trkpt><trkpt lat="44.68869843462691" lon="7.855466169426322"><ele>275.5</ele><time>2026-04-11T15:26:54.999Z</time></trkpt><trkpt lat="44.6887809403831" lon="7.855410966116218"><ele>277.33333333333337</ele><time>2026-04-11T15:26:57.999Z</time></trkpt><trkpt lat="44.68882114121545" lon="7.855328449593185"><ele>279.1666666666667</ele><time>2026-04-11T15:26:59.999Z</time></trkpt><trkpt lat="44.68881287687747" lon="7.855231867526147"><ele>281.0</ele><time>2026-04-11T15:27:01.999Z</time></trkpt><trkpt lat="44.688769298043745" lon="7.8551330898538465"><ele>281.0</ele><time>2026-04-11T15:27:04.999Z</time></trkpt><trkpt lat="44.68873335061512" lon="7.855052362522794"><ele>281.0</ele><time>2026-04-11T15:27:09.999Z</time></trkpt><trkpt lat="44.688832618992976" lon="7.855054439940717"><ele>281.0</ele><time>2026-04-11T15:27:15.999Z</time></trkpt><trkpt lat="44.68891152061133" lon="7.855089284792729"><ele>281.0</ele><time>2026-04-11T15:27:17.999Z</time></trkpt><trkpt lat="44.68900163122752" lon="7.855114358905929"><ele>281.0</ele><time>2026-04-11T15:27:19.999Z</time></trkpt><trkpt lat="44.689102916709885" lon="7.855137231837404"><ele>281.0</ele><time>2026-04-11T15:27:21.999Z</time></trkpt><trkpt lat="44.68919882042351" lon="7.85514683091676"><ele>281.0</ele><time>2026-04-11T15:27:23.999Z</time></trkpt><trkpt lat="44.689281593577945" lon="7.855158331422355"><ele>281.0</ele><time>2026-04-11T15:27:25.999Z</time></trkpt><trkpt lat="44.68936735296154" lon="7.855169639864565"><ele>281.0</ele><time>2026-04-11T15:27:27.999Z</time></trkpt><trkpt lat="44.689454806647" lon="7.855169458240063"><ele>281.0</ele><time>2026-04-11T15:27:29.999Z</time></trkpt><trkpt lat="44.689547043505065" lon="7.855168657226024"><ele>281.0</ele><time>2026-04-11T15:27:31.999Z</time></trkpt><trkpt lat="44.68968261241464" lon="7.855163400231993"><ele>281.0</ele><time>2026-04-11T15:27:34.999Z</time></trkpt><trkpt lat="44.68977242202237" lon="7.855152832635451"><ele>281.0</ele><time>2026-04-11T15:27:36.999Z</time></trkpt><trkpt lat="44.68986153490554" lon="7.855129798013737"><ele>281.0</ele><time>2026-04-11T15:27:38.999Z</time></trkpt><trkpt lat="44.68994998600773" lon="7.855105302131471"><ele>281.0</ele><time>2026-04-11T15:27:40.999Z</time></trkpt><trkpt lat="44.69003405455697" lon="7.855073536834226"><ele>281.0</ele><time>2026-04-11T15:27:42.999Z</time></trkpt><trkpt lat="44.6901252894614" lon="7.855036668736311"><ele>280.8</ele><time>2026-04-11T15:27:45Z</time></trkpt><trkpt lat="44.69021013146844" lon="7.854994774265903"><ele>280.6</ele><time>2026-04-11T15:27:47Z</time></trkpt><trkpt lat="44.69029599624406" lon="7.854952918895695"><ele>280.4</ele><time>2026-04-11T15:27:49Z</time></trkpt><trkpt lat="44.69038222715415" lon="7.85490877349048"><ele>280.2</ele><time>2026-04-11T15:27:51Z</time></trkpt><trkpt lat="44.69047327539987" lon="7.854862753862153"><ele>280.0</ele><time>2026-04-11T15:27:53Z</time></trkpt><trkpt lat="44.69057235482444" lon="7.854826954361198"><ele>280.0</ele><time>2026-04-11T15:27:55Z</time></trkpt><trkpt lat="44.690675106232455" lon="7.854813681976778"><ele>280.0</ele><time>2026-04-11T15:27:57Z</time></trkpt><trkpt lat="44.69077296493283" lon="7.854820024536133"><ele>280.0</ele><time>2026-04-11T15:27:59Z</time></trkpt><trkpt lat="44.69087927641574" lon="7.854851976663774"><ele>280.0</ele><time>2026-04-11T15:28:01Z</time></trkpt><trkpt lat="44.690982519735414" lon="7.854855454143356"><ele>280.0</ele><time>2026-04-11T15:28:03Z</time></trkpt><trkpt lat="44.69109014836409" lon="7.854873412975773"><ele>280.0</ele><time>2026-04-11T15:28:05Z</time></trkpt><trkpt lat="44.69119385390259" lon="7.854880236990404"><ele>280.0</ele><time>2026-04-11T15:28:07Z</time></trkpt><trkpt lat="44.69129496815999" lon="7.854891961407662"><ele>280.0</ele><time>2026-04-11T15:28:09Z</time></trkpt><trkpt lat="44.69139958730112" lon="7.854899560223628"><ele>280.0</ele><time>2026-04-11T15:28:11Z</time></trkpt><trkpt lat="44.69150070833127" lon="7.854901724432533"><ele>280.0</ele><time>2026-04-11T15:28:13Z</time></trkpt><trkpt lat="44.69160355054073" lon="7.8549201583371255"><ele>280.0</ele><time>2026-04-11T15:28:15Z</time></trkpt><trkpt lat="44.69170699902531" lon="7.854931908869092"><ele>280.0</ele><time>2026-04-11T15:28:17Z</time></trkpt><trkpt lat="44.69181025712078" lon="7.854944206719485"><ele>280.0</ele><time>2026-04-11T15:28:19Z</time></trkpt><trkpt lat="44.69191852246461" lon="7.854962318800168"><ele>280.0</ele><time>2026-04-11T15:28:21Z</time></trkpt><trkpt lat="44.69202364488916" lon="7.854964055903634"><ele>280.0</ele><time>2026-04-11T15:28:23Z</time></trkpt><trkpt lat="44.692122225205" lon="7.854992511998404"><ele>279.8</ele><time>2026-04-11T15:28:25Z</time></trkpt><trkpt lat="44.6922239514401" lon="7.855022767330542"><ele>279.6</ele><time>2026-04-11T15:28:27Z</time></trkpt><trkpt lat="44.692322473124776" lon="7.855057594592959"><ele>279.4</ele><time>2026-04-11T15:28:29Z</time></trkpt><trkpt lat="44.69242819317849" lon="7.855046122037695"><ele>279.2</ele><time>2026-04-11T15:28:31Z</time></trkpt><trkpt lat="44.692540162255504" lon="7.855036779502962"><ele>279.0</ele><time>2026-04-11T15:28:33Z</time></trkpt><trkpt lat="44.692661629080845" lon="7.8550531118160105"><ele>279.59999999999997</ele><time>2026-04-11T15:28:35Z</time></trkpt><trkpt lat="44.692779056658054" lon="7.855065568204418"><ele>280.2</ele><time>2026-04-11T15:28:37Z</time></trkpt><trkpt lat="44.692894382529616" lon="7.8550683607069365"><ele>280.79999999999995</ele><time>2026-04-11T15:28:39Z</time></trkpt><trkpt lat="44.69298949806983" lon="7.855069710258378"><ele>281.4</ele><time>2026-04-11T15:28:41Z</time></trkpt><trkpt lat="44.693063226412335" lon="7.855069308565381"><ele>282.0</ele><time>2026-04-11T15:28:43Z</time></trkpt><trkpt lat="44.69315697025836" lon="7.8550809949459035"><ele>282.0</ele><time>2026-04-11T15:28:45Z</time></trkpt><trkpt lat="44.69324839045542" lon="7.855068996398304"><ele>282.0</ele><time>2026-04-11T15:28:47Z</time></trkpt><trkpt lat="44.69334811633113" lon="7.855077943601976"><ele>282.0</ele><time>2026-04-11T15:28:49Z</time></trkpt><trkpt lat="44.693462482528965" lon="7.8550631225033"><ele>282.0</ele><time>2026-04-11T15:28:51Z</time></trkpt><trkpt lat="44.69356010106752" lon="7.855011659023854"><ele>282.0</ele><time>2026-04-11T15:28:52.999Z</time></trkpt><trkpt lat="44.69366871875503" lon="7.8549855727863935"><ele>282.25</ele><time>2026-04-11T15:28:54.999Z</time></trkpt><trkpt lat="44.69393206249888" lon="7.854967329662468"><ele>282.5</ele><time>2026-04-11T15:29:01.999Z</time></trkpt><trkpt lat="44.69401464618439" lon="7.854928986370824"><ele>282.75</ele><time>2026-04-11T15:29:02.999Z</time></trkpt><trkpt lat="44.694086529423245" lon="7.854918865435979"><ele>283.0</ele><time>2026-04-11T15:29:03.999Z</time></trkpt><trkpt lat="44.69420675336306" lon="7.854901938262221"><ele>283.0</ele><time>2026-04-11T15:29:05.999Z</time></trkpt><trkpt lat="44.69426953786392" lon="7.854891782190762"><ele>283.0</ele><time>2026-04-11T15:29:06.999Z</time></trkpt><trkpt lat="44.6943925703783" lon="7.854868697031578"><ele>283.0</ele><time>2026-04-11T15:29:08.999Z</time></trkpt><trkpt lat="44.694507700695176" lon="7.854838521157898"><ele>283.0</ele><time>2026-04-11T15:29:10.999Z</time></trkpt><trkpt lat="44.694615964970446" lon="7.8547980161110535"><ele>283.0</ele><time>2026-04-11T15:29:12.999Z</time></trkpt><trkpt lat="44.694720099971825" lon="7.854749980082132"><ele>283.4</ele><time>2026-04-11T15:29:14.999Z</time></trkpt><trkpt lat="44.6948171283282" lon="7.854705083314407"><ele>283.8</ele><time>2026-04-11T15:29:16.999Z</time></trkpt><trkpt lat="44.694910189722926" lon="7.854661847675214"><ele>284.2</ele><time>2026-04-11T15:29:18.999Z</time></trkpt><trkpt lat="44.694980340461065" lon="7.854626831641429"><ele>284.6</ele><time>2026-04-11T15:29:20.999Z</time></trkpt><trkpt lat="44.69504252199625" lon="7.854815797432314"><ele>285.0</ele><time>2026-04-11T15:29:25.999Z</time></trkpt><trkpt lat="44.695065996829655" lon="7.85491542529581"><ele>285.0</ele><time>2026-04-11T15:29:27.999Z</time></trkpt><trkpt lat="44.69509276972608" lon="7.855030473432775"><ele>285.0</ele><time>2026-04-11T15:29:29.999Z</time></trkpt><trkpt lat="44.6951220958511" lon="7.8551288008477105"><ele>285.0</ele><time>2026-04-11T15:29:32.999Z</time></trkpt><trkpt lat="44.69513369798362" lon="7.855253337898483"><ele>285.0</ele><time>2026-04-11T15:29:35.999Z</time></trkpt><trkpt lat="44.695139996182576" lon="7.855403012381698"><ele>285.0</ele><time>2026-04-11T15:29:37.999Z</time></trkpt><trkpt lat="44.695183049331995" lon="7.855511540540526"><ele>285.0</ele><time>2026-04-11T15:29:39.999Z</time></trkpt><trkpt lat="44.695210371148775" lon="7.855611977714226"><ele>285.2857142857143</ele><time>2026-04-11T15:29:41.999Z</time></trkpt><trkpt lat="44.6952600893545" lon="7.8556848303252504"><ele>285.57142857142856</ele><time>2026-04-11T15:29:43.999Z</time></trkpt><trkpt lat="44.69529292701175" lon="7.8557619150073865"><ele>285.8571428571429</ele><time>2026-04-11T15:29:45.999Z</time></trkpt><trkpt lat="44.695313080131356" lon="7.855854329472501"><ele>286.1428571428571</ele><time>2026-04-11T15:29:47.999Z</time></trkpt><trkpt lat="44.69533587578047" lon="7.855962229853887"><ele>286.42857142857144</ele><time>2026-04-11T15:29:50Z</time></trkpt><trkpt lat="44.69536071689987" lon="7.856055583294446"><ele>286.7142857142857</ele><time>2026-04-11T15:29:52Z</time></trkpt><trkpt lat="44.6953579793639" lon="7.856165220705272"><ele>287.0</ele><time>2026-04-11T15:29:54Z</time></trkpt><trkpt lat="44.695389885364456" lon="7.856258930122716"><ele>287.0</ele><time>2026-04-11T15:29:56Z</time></trkpt><trkpt lat="44.69540006593483" lon="7.856365466176882"><ele>287.0</ele><time>2026-04-11T15:29:58Z</time></trkpt><trkpt lat="44.695398257777796" lon="7.856456951235999"><ele>287.0</ele><time>2026-04-11T15:30:01Z</time></trkpt><trkpt lat="44.69545047151533" lon="7.856519150422076"><ele>287.0</ele><time>2026-04-11T15:30:03Z</time></trkpt><trkpt lat="44.695484766861675" lon="7.856633840446617"><ele>287.0</ele><time>2026-04-11T15:30:06Z</time></trkpt><trkpt lat="44.69552189652775" lon="7.856710102614579"><ele>287.0</ele><time>2026-04-11T15:30:08Z</time></trkpt><trkpt lat="44.69555618899218" lon="7.8567855006186385"><ele>287.0</ele><time>2026-04-11T15:30:10Z</time></trkpt><trkpt lat="44.69555199473224" lon="7.8569289357430945"><ele>287.0</ele><time>2026-04-11T15:30:13Z</time></trkpt><trkpt lat="44.69557462036661" lon="7.856832671537599"><ele>287.0</ele><time>2026-04-11T15:30:17Z</time></trkpt><trkpt lat="44.69558014655192" lon="7.856734877559155"><ele>287.0</ele><time>2026-04-11T15:30:19Z</time></trkpt><trkpt lat="44.69564410513554" lon="7.856678866980042"><ele>287.0</ele><time>2026-04-11T15:30:21Z</time></trkpt><trkpt lat="44.695747713761634" lon="7.856658129487226"><ele>287.0</ele><time>2026-04-11T15:30:24Z</time></trkpt><trkpt lat="44.695823523943346" lon="7.856641532972466"><ele>287.0</ele><time>2026-04-11T15:30:26Z</time></trkpt><trkpt lat="44.6958957196125" lon="7.856611449500184"><ele>287.0</ele><time>2026-04-11T15:30:28Z</time></trkpt><trkpt lat="44.69597132199809" lon="7.856576717643354"><ele>287.0</ele><time>2026-04-11T15:30:30Z</time></trkpt><trkpt lat="44.69603630858415" lon="7.85653451905789"><ele>287.0</ele><time>2026-04-11T15:30:32Z</time></trkpt><trkpt lat="44.69608425349477" lon="7.8566021498547265"><ele>287.0</ele><time>2026-04-11T15:30:34Z</time></trkpt><trkpt lat="44.69619714720889" lon="7.856593269342621"><ele>287.0</ele><time>2026-04-11T15:30:39Z</time></trkpt><trkpt lat="44.696277783231224" lon="7.856536945047402"><ele>287.0</ele><time>2026-04-11T15:30:42Z</time></trkpt><trkpt lat="44.696371379236005" lon="7.856517365222651"><ele>287.8</ele><time>2026-04-11T15:30:45Z</time></trkpt><trkpt lat="44.696455633947174" lon="7.856470749931939"><ele>288.6</ele><time>2026-04-11T15:30:47Z</time></trkpt><trkpt lat="44.696519034420284" lon="7.856374190623788"><ele>289.40000000000003</ele><time>2026-04-11T15:30:49Z</time></trkpt><trkpt lat="44.69660076087366" lon="7.856239172712672"><ele>290.2</ele><time>2026-04-11T15:30:50.999Z</time></trkpt><trkpt lat="44.69669517149328" lon="7.856108190708256"><ele>291.0</ele><time>2026-04-11T15:30:52.999Z</time></trkpt><trkpt lat="44.69679198114622" lon="7.855990514642157"><ele>291.40000000000003</ele><time>2026-04-11T15:30:54.999Z</time></trkpt><trkpt lat="44.69687915009326" lon="7.855887373061601"><ele>291.8</ele><time>2026-04-11T15:30:56.999Z</time></trkpt><trkpt lat="44.69693099733685" lon="7.855825644016557"><ele>292.20000000000005</ele><time>2026-04-11T15:30:58.999Z</time></trkpt><trkpt lat="44.697041559342146" lon="7.855679988302908"><ele>292.6</ele><time>2026-04-11T15:31:00.999Z</time></trkpt><trkpt lat="44.697120682732134" lon="7.855577680247084"><ele>293.0</ele><time>2026-04-11T15:31:02.999Z</time></trkpt><trkpt lat="44.69719795869903" lon="7.855469834249256"><ele>293.0</ele><time>2026-04-11T15:31:04.999Z</time></trkpt><trkpt lat="44.69727736021897" lon="7.855368647301904"><ele>293.0</ele><time>2026-04-11T15:31:06.999Z</time></trkpt><trkpt lat="44.69735315668014" lon="7.855268232424122"><ele>293.0</ele><time>2026-04-11T15:31:08.999Z</time></trkpt><trkpt lat="44.69742355410579" lon="7.85516603834757"><ele>293.0</ele><time>2026-04-11T15:31:10.999Z</time></trkpt><trkpt lat="44.69749300101778" lon="7.855076461148392"><ele>293.0</ele><time>2026-04-11T15:31:12.999Z</time></trkpt><trkpt lat="44.697564424664456" lon="7.854987122608233"><ele>292.2</ele><time>2026-04-11T15:31:14.999Z</time></trkpt><trkpt lat="44.697631507994785" lon="7.8548996812598935"><ele>291.4</ele><time>2026-04-11T15:31:16.999Z</time></trkpt><trkpt lat="44.69769271838021" lon="7.854814488684928"><ele>290.59999999999997</ele><time>2026-04-11T15:31:18.999Z</time></trkpt><trkpt lat="44.69779325999327" lon="7.854734914804614"><ele>289.8</ele><time>2026-04-11T15:31:20.999Z</time></trkpt><trkpt lat="44.697841174387065" lon="7.854651273390495"><ele>289.0</ele><time>2026-04-11T15:31:22.999Z</time></trkpt><trkpt lat="44.69792948328829" lon="7.854681232050433"><ele>289.0</ele><time>2026-04-11T15:31:24.999Z</time></trkpt><trkpt lat="44.69793894078058" lon="7.8548000596049015"><ele>289.0</ele><time>2026-04-11T15:31:27.999Z</time></trkpt><trkpt lat="44.6978858929635" lon="7.854899619600523"><ele>289.0</ele><time>2026-04-11T15:31:30.999Z</time></trkpt><trkpt lat="44.697790349034065" lon="7.854925251744415"><ele>289.0</ele><time>2026-04-11T15:31:32.999Z</time></trkpt><trkpt lat="44.69773326033008" lon="7.85496361582085"><ele>289.0</ele><time>2026-04-11T15:31:34.999Z</time></trkpt><trkpt lat="44.69766817509005" lon="7.855021603108587"><ele>289.0</ele><time>2026-04-11T15:31:37.999Z</time></trkpt><trkpt lat="44.69758827785491" lon="7.855057614517848"><ele>289.66666666666663</ele><time>2026-04-11T15:31:40.999Z</time></trkpt><trkpt lat="44.69755384121262" lon="7.855175046832907"><ele>290.3333333333333</ele><time>2026-04-11T15:31:43.999Z</time></trkpt><trkpt lat="44.697469013073764" lon="7.8552172938384235"><ele>291.0</ele><time>2026-04-11T15:31:47.999Z</time></trkpt><trkpt lat="44.697421139795004" lon="7.855305924854713"><ele>291.6666666666667</ele><time>2026-04-11T15:31:50.999Z</time></trkpt><trkpt lat="44.6973817424413" lon="7.855380068478232"><ele>292.33333333333337</ele><time>2026-04-11T15:31:53.999Z</time></trkpt><trkpt lat="44.69732723660664" lon="7.855445101296434"><ele>293.0</ele><time>2026-04-11T15:31:56Z</time></trkpt><trkpt lat="44.69726233597775" lon="7.855509407209829"><ele>293.0</ele><time>2026-04-11T15:31:58Z</time></trkpt><trkpt lat="44.69720178958215" lon="7.855605130778208"><ele>293.0</ele><time>2026-04-11T15:32:00Z</time></trkpt><trkpt lat="44.69713357867874" lon="7.8556945571729155"><ele>293.0</ele><time>2026-04-11T15:32:02Z</time></trkpt><trkpt lat="44.69707949832972" lon="7.8557573050655884"><ele>293.0</ele><time>2026-04-11T15:32:04Z</time></trkpt><trkpt lat="44.697123097431756" lon="7.855842826902673"><ele>293.0</ele><time>2026-04-11T15:32:07Z</time></trkpt><trkpt lat="44.69719265506318" lon="7.8558020343825365"><ele>293.0</ele><time>2026-04-11T15:32:09Z</time></trkpt><trkpt lat="44.69723928938742" lon="7.855708497484258"><ele>293.0</ele><time>2026-04-11T15:32:11Z</time></trkpt><trkpt lat="44.697283385431405" lon="7.855628255041305"><ele>293.0</ele><time>2026-04-11T15:32:13Z</time></trkpt><trkpt lat="44.69735082994133" lon="7.855538784822172"><ele>293.0</ele><time>2026-04-11T15:32:15Z</time></trkpt><trkpt lat="44.69740008484991" lon="7.85543024616533"><ele>293.0</ele><time>2026-04-11T15:32:17Z</time></trkpt><trkpt lat="44.697468734974215" lon="7.855340622123918"><ele>293.0</ele><time>2026-04-11T15:32:19Z</time></trkpt><trkpt lat="44.69753885088724" lon="7.855247056627213"><ele>293.0</ele><time>2026-04-11T15:32:21Z</time></trkpt><trkpt lat="44.69760778004525" lon="7.855157787408146"><ele>292.33333333333337</ele><time>2026-04-11T15:32:23Z</time></trkpt><trkpt lat="44.69767998375434" lon="7.855074131380761"><ele>291.6666666666667</ele><time>2026-04-11T15:32:25Z</time></trkpt><trkpt lat="44.69775857292119" lon="7.855006022154281"><ele>291.0</ele><time>2026-04-11T15:32:27Z</time></trkpt><trkpt lat="44.69783844536442" lon="7.854945792843173"><ele>290.3333333333333</ele><time>2026-04-11T15:32:29Z</time></trkpt><trkpt lat="44.697914992911464" lon="7.854909559659554"><ele>289.66666666666663</ele><time>2026-04-11T15:32:31Z</time></trkpt><trkpt lat="44.69799599574763" lon="7.854916376628996"><ele>289.0</ele><time>2026-04-11T15:32:36Z</time></trkpt><trkpt lat="44.69804546515708" lon="7.8549839091723035"><ele>290.14285714285717</ele><time>2026-04-11T15:32:39Z</time></trkpt><trkpt lat="44.69811074001136" lon="7.855023765879951"><ele>291.2857142857143</ele><time>2026-04-11T15:32:42Z</time></trkpt><trkpt lat="44.698175790272884" lon="7.855008633703815"><ele>292.42857142857144</ele><time>2026-04-11T15:32:44Z</time></trkpt><trkpt lat="44.69824018563984" lon="7.854963455553349"><ele>293.57142857142856</ele><time>2026-04-11T15:32:46Z</time></trkpt><trkpt lat="44.698288595461264" lon="7.854896378294478"><ele>294.7142857142857</ele><time>2026-04-11T15:32:47.999Z</time></trkpt><trkpt lat="44.69836310645782" lon="7.854867998630278"><ele>295.8571428571429</ele><time>2026-04-11T15:32:49.999Z</time></trkpt><trkpt lat="44.69841664995657" lon="7.8547866730502935"><ele>297.0</ele><time>2026-04-11T15:32:52.999Z</time></trkpt><trkpt lat="44.69845439787125" lon="7.854710466557845"><ele>297.0</ele><time>2026-04-11T15:32:54.999Z</time></trkpt><trkpt lat="44.698434976723085" lon="7.854811660236169"><ele>297.0</ele><time>2026-04-11T15:33:14.999Z</time></trkpt><trkpt lat="44.69837955469589" lon="7.85491577951634"><ele>297.0</ele><time>2026-04-11T15:33:16.999Z</time></trkpt><trkpt lat="44.698282100095774" lon="7.854924090756224"><ele>297.0</ele><time>2026-04-11T15:33:18.999Z</time></trkpt><trkpt lat="44.698204979472926" lon="7.85496862803343"><ele>297.0</ele><time>2026-04-11T15:33:20.999Z</time></trkpt><trkpt lat="44.69810823952079" lon="7.854956616101621"><ele>297.0</ele><time>2026-04-11T15:33:23.999Z</time></trkpt><trkpt lat="44.69804612523191" lon="7.854824482002158"><ele>297.0</ele><time>2026-04-11T15:33:25.999Z</time></trkpt><trkpt lat="44.69799625349485" lon="7.854728145952869"><ele>297.0</ele><time>2026-04-11T15:33:27.999Z</time></trkpt><trkpt lat="44.697957633438115" lon="7.854637988011786"><ele>297.0</ele><time>2026-04-11T15:33:29.999Z</time></trkpt><trkpt lat="44.69788905790185" lon="7.8545203015619025"><ele>297.0</ele><time>2026-04-11T15:33:31.999Z</time></trkpt><trkpt lat="44.69785467765553" lon="7.854433799670247"><ele>297.0</ele><time>2026-04-11T15:33:32.999Z</time></trkpt><trkpt lat="44.69781729986916" lon="7.854341992017288"><ele>297.0</ele><time>2026-04-11T15:33:33.999Z</time></trkpt><trkpt lat="44.69776282956649" lon="7.854268816918446"><ele>296.1666666666667</ele><time>2026-04-11T15:33:34.999Z</time></trkpt><trkpt lat="44.697734426289045" lon="7.854160773292902"><ele>295.3333333333333</ele><time>2026-04-11T15:33:35.999Z</time></trkpt><trkpt lat="44.69768829747093" lon="7.854077651962773"><ele>294.5</ele><time>2026-04-11T15:33:36.999Z</time></trkpt><trkpt lat="44.69765275527366" lon="7.853993539167763"><ele>293.66666666666663</ele><time>2026-04-11T15:33:37.999Z</time></trkpt><trkpt lat="44.697620722617614" lon="7.853912596004265"><ele>292.8333333333333</ele><time>2026-04-11T15:33:38.999Z</time></trkpt><trkpt lat="44.697554072161296" lon="7.853751157081176"><ele>292.0</ele><time>2026-04-11T15:33:40.999Z</time></trkpt><trkpt lat="44.69751671367591" lon="7.853646714914903"><ele>292.0</ele><time>2026-04-11T15:33:41.999Z</time></trkpt><trkpt lat="44.69748326665689" lon="7.853553057222754"><ele>292.0</ele><time>2026-04-11T15:33:42.999Z</time></trkpt><trkpt lat="44.697431526092366" lon="7.853463518325282"><ele>292.0</ele><time>2026-04-11T15:33:43.999Z</time></trkpt><trkpt lat="44.6973954115982" lon="7.85336504059982"><ele>292.0</ele><time>2026-04-11T15:33:44.999Z</time></trkpt><trkpt lat="44.69736607142694" lon="7.85327154268828"><ele>292.0</ele><time>2026-04-11T15:33:45.999Z</time></trkpt><trkpt lat="44.69732003595164" lon="7.853175067009118"><ele>292.0</ele><time>2026-04-11T15:33:48.999Z</time></trkpt><trkpt lat="44.697400041628924" lon="7.8531023283070365"><ele>291.6</ele><time>2026-04-11T15:33:50.999Z</time></trkpt><trkpt lat="44.697490993812345" lon="7.853058029705252"><ele>291.2</ele><time>2026-04-11T15:33:52.999Z</time></trkpt><trkpt lat="44.697590075206975" lon="7.852977711425185"><ele>290.8</ele><time>2026-04-11T15:33:54.999Z</time></trkpt><trkpt lat="44.69768965752087" lon="7.8529218665915765"><ele>290.4</ele><time>2026-04-11T15:33:56.999Z</time></trkpt><trkpt lat="44.697784312369635" lon="7.852861094172852"><ele>290.0</ele><time>2026-04-11T15:33:58.999Z</time></trkpt><trkpt lat="44.697877021555634" lon="7.852800805177086"><ele>289.83333333333337</ele><time>2026-04-11T15:34:00.999Z</time></trkpt><trkpt lat="44.697951188821094" lon="7.852706813970539"><ele>289.6666666666667</ele><time>2026-04-11T15:34:03Z</time></trkpt><trkpt lat="44.69800233126813" lon="7.852624351718582"><ele>289.5</ele><time>2026-04-11T15:34:05Z</time></trkpt><trkpt lat="44.69803276977262" lon="7.852541023839004"><ele>289.3333333333333</ele><time>2026-04-11T15:34:07Z</time></trkpt><trkpt lat="44.698057354632255" lon="7.852429483793802"><ele>289.16666666666663</ele><time>2026-04-11T15:34:09Z</time></trkpt><trkpt lat="44.69813774141709" lon="7.8523290552761065"><ele>289.0</ele><time>2026-04-11T15:34:10Z</time></trkpt><trkpt lat="44.698190272637504" lon="7.852192771108474"><ele>288.75</ele><time>2026-04-11T15:34:12Z</time></trkpt><trkpt lat="44.69825098319035" lon="7.852053398698479"><ele>288.5</ele><time>2026-04-11T15:34:14Z</time></trkpt><trkpt lat="44.698300830354256" lon="7.851911083242619"><ele>288.25</ele><time>2026-04-11T15:34:16Z</time></trkpt><trkpt lat="44.698353755263604" lon="7.851766448240947"><ele>288.0</ele><time>2026-04-11T15:34:18Z</time></trkpt><trkpt lat="44.69840915165071" lon="7.851615059358133"><ele>288.0</ele><time>2026-04-11T15:34:20Z</time></trkpt><trkpt lat="44.69846105781086" lon="7.851469346262308"><ele>288.0</ele><time>2026-04-11T15:34:22Z</time></trkpt><trkpt lat="44.69851388813584" lon="7.85132072146779"><ele>288.0</ele><time>2026-04-11T15:34:24Z</time></trkpt><trkpt lat="44.69856556028639" lon="7.851166057742358"><ele>288.0</ele><time>2026-04-11T15:34:26Z</time></trkpt><trkpt lat="44.69861533688786" lon="7.851015447788415"><ele>287.6</ele><time>2026-04-11T15:34:28Z</time></trkpt><trkpt lat="44.698671016773865" lon="7.850860188226355"><ele>287.20000000000005</ele><time>2026-04-11T15:34:30Z</time></trkpt><trkpt lat="44.69871448389416" lon="7.850790471765415"><ele>286.8</ele><time>2026-04-11T15:34:31Z</time></trkpt><trkpt lat="44.698740789201906" lon="7.8507088172709105"><ele>286.40000000000003</ele><time>2026-04-11T15:34:32Z</time></trkpt><trkpt lat="44.69879485166893" lon="7.850565122191182"><ele>286.0</ele><time>2026-04-11T15:34:34Z</time></trkpt><trkpt lat="44.69885570593471" lon="7.850426209678768"><ele>286.0</ele><time>2026-04-11T15:34:36Z</time></trkpt><trkpt lat="44.69893473752727" lon="7.850308091870594"><ele>286.0</ele><time>2026-04-11T15:34:38Z</time></trkpt><trkpt lat="44.69900019683203" lon="7.8501827332443215"><ele>286.0</ele><time>2026-04-11T15:34:40Z</time></trkpt><trkpt lat="44.69907379118338" lon="7.8500669728849815"><ele>286.0</ele><time>2026-04-11T15:34:42Z</time></trkpt><trkpt lat="44.69915733518033" lon="7.8499661414351705"><ele>286.0</ele><time>2026-04-11T15:34:43.999Z</time></trkpt><trkpt lat="44.699243344733915" lon="7.849863599354919"><ele>285.75</ele><time>2026-04-11T15:34:45.999Z</time></trkpt><trkpt lat="44.6993318015335" lon="7.849761787010292"><ele>285.5</ele><time>2026-04-11T15:34:47.999Z</time></trkpt><trkpt lat="44.69940670064077" lon="7.849637901017447"><ele>285.25</ele><time>2026-04-11T15:34:49.999Z</time></trkpt><trkpt lat="44.69949473716376" lon="7.849539773276265"><ele>285.0</ele><time>2026-04-11T15:34:51.999Z</time></trkpt><trkpt lat="44.699561895568245" lon="7.849411382546019"><ele>285.1666666666667</ele><time>2026-04-11T15:34:53.999Z</time></trkpt><trkpt lat="44.699629235738044" lon="7.849303766232273"><ele>285.3333333333333</ele><time>2026-04-11T15:34:55.999Z</time></trkpt><trkpt lat="44.69968549112671" lon="7.849210580506663"><ele>285.5</ele><time>2026-04-11T15:34:57.999Z</time></trkpt><trkpt lat="44.69973595918811" lon="7.849143499405019"><ele>285.66666666666663</ele><time>2026-04-11T15:34:59.999Z</time></trkpt><trkpt lat="44.69978712171566" lon="7.84905683437651"><ele>285.8333333333333</ele><time>2026-04-11T15:35:06.999Z</time></trkpt><trkpt lat="44.699837952605925" lon="7.848961096499938"><ele>286.0</ele><time>2026-04-11T15:35:09.999Z</time></trkpt><trkpt lat="44.69991801491582" lon="7.848916393277766"><ele>286.0</ele><time>2026-04-11T15:35:11.999Z</time></trkpt><trkpt lat="44.699985407050896" lon="7.848821269720672"><ele>286.0</ele><time>2026-04-11T15:35:13.999Z</time></trkpt><trkpt lat="44.70007579316033" lon="7.848717088951579"><ele>286.0</ele><time>2026-04-11T15:35:15.999Z</time></trkpt><trkpt lat="44.700161174967604" lon="7.848613533737748"><ele>286.0</ele><time>2026-04-11T15:35:17.999Z</time></trkpt><trkpt lat="44.70017388613773" lon="7.84852632419272"><ele>286.0</ele><time>2026-04-11T15:35:18.999Z</time></trkpt><trkpt lat="44.7002579502258" lon="7.848536477743647"><ele>286.0</ele><time>2026-04-11T15:35:19.999Z</time></trkpt><trkpt lat="44.70036313571926" lon="7.848496964057105"><ele>286.0</ele><time>2026-04-11T15:35:21.999Z</time></trkpt><trkpt lat="44.700464287132284" lon="7.848436017956334"><ele>286.0</ele><time>2026-04-11T15:35:23.999Z</time></trkpt><trkpt lat="44.700559224595374" lon="7.84836784334999"><ele>286.0</ele><time>2026-04-11T15:35:25.999Z</time></trkpt><trkpt lat="44.700662521570585" lon="7.848333774026192"><ele>286.0</ele><time>2026-04-11T15:35:27.999Z</time></trkpt><trkpt lat="44.70076750259159" lon="7.848288501684993"><ele>286.0</ele><time>2026-04-11T15:35:29.999Z</time></trkpt><trkpt lat="44.70088651452496" lon="7.84825253919144"><ele>286.0</ele><time>2026-04-11T15:35:31.999Z</time></trkpt><trkpt lat="44.701012688979255" lon="7.848224009755317"><ele>286.0</ele><time>2026-04-11T15:35:33.999Z</time></trkpt><trkpt lat="44.7011252639185" lon="7.848187195525835"><ele>286.0</ele><time>2026-04-11T15:35:35.999Z</time></trkpt><trkpt lat="44.701240943471575" lon="7.8481445787345425"><ele>287.0</ele><time>2026-04-11T15:35:37.999Z</time></trkpt><trkpt lat="44.70134948968941" lon="7.848110553052409"><ele>288.0</ele><time>2026-04-11T15:35:39.999Z</time></trkpt><trkpt lat="44.701455459921334" lon="7.848094775706186"><ele>289.0</ele><time>2026-04-11T15:35:41.999Z</time></trkpt><trkpt lat="44.70155951258211" lon="7.84809426219687"><ele>290.0</ele><time>2026-04-11T15:35:43.999Z</time></trkpt><trkpt lat="44.701646494210365" lon="7.848117608620259"><ele>291.0</ele><time>2026-04-11T15:35:45.999Z</time></trkpt><trkpt lat="44.70181370998519" lon="7.848114966103251"><ele>291.0</ele><time>2026-04-11T15:35:49.999Z</time></trkpt><trkpt lat="44.70185025376873" lon="7.848030362488765"><ele>291.0</ele><time>2026-04-11T15:35:51.999Z</time></trkpt><trkpt lat="44.70186198378448" lon="7.847905051347742"><ele>291.0</ele><time>2026-04-11T15:35:53.999Z</time></trkpt><trkpt lat="44.70188541053411" lon="7.847798859253271"><ele>291.0</ele><time>2026-04-11T15:35:55.999Z</time></trkpt><trkpt lat="44.70191246053343" lon="7.847683604206568"><ele>291.0</ele><time>2026-04-11T15:35:57.999Z</time></trkpt><trkpt lat="44.7019374857868" lon="7.847549587936099"><ele>291.0</ele><time>2026-04-11T15:35:59.999Z</time></trkpt><trkpt lat="44.701997135230314" lon="7.847430958597952"><ele>291.0</ele><time>2026-04-11T15:36:01.999Z</time></trkpt><trkpt lat="44.70220242654492" lon="7.847250803486692"><ele>291.0</ele><time>2026-04-11T15:36:06.999Z</time></trkpt><trkpt lat="44.70226343604697" lon="7.8471574461907165"><ele>291.0</ele><time>2026-04-11T15:36:09Z</time></trkpt><trkpt lat="44.702315891604655" lon="7.847076262792945"><ele>291.0</ele><time>2026-04-11T15:36:11Z</time></trkpt><trkpt lat="44.702376262853114" lon="7.847020593997572"><ele>291.0</ele><time>2026-04-11T15:37:39.999Z</time></trkpt><trkpt lat="44.702453076683604" lon="7.846962673969556"><ele>291.0</ele><time>2026-04-11T15:37:41.999Z</time></trkpt><trkpt lat="44.702512349165026" lon="7.846930903202974"><ele>291.0</ele><time>2026-04-11T15:37:42.999Z</time></trkpt><trkpt lat="44.70256609126245" lon="7.84687817637118"><ele>291.0</ele><time>2026-04-11T15:37:43.999Z</time></trkpt><trkpt lat="44.70267533697305" lon="7.846782983673751"><ele>291.0</ele><time>2026-04-11T15:37:45.999Z</time></trkpt><trkpt lat="44.70272613064081" lon="7.846726541645715"><ele>291.0</ele><time>2026-04-11T15:37:46.999Z</time></trkpt><trkpt lat="44.702780164620435" lon="7.8466777110779375"><ele>290.8</ele><time>2026-04-11T15:37:47.999Z</time></trkpt><trkpt lat="44.70283554522325" lon="7.8466277798910795"><ele>290.6</ele><time>2026-04-11T15:37:48.999Z</time></trkpt><trkpt lat="44.70289209198829" lon="7.846578264428999"><ele>290.4</ele><time>2026-04-11T15:37:49.999Z</time></trkpt><trkpt lat="44.702993343807975" lon="7.846476959370053"><ele>290.2</ele><time>2026-04-11T15:37:51.999Z</time></trkpt><trkpt lat="44.70309511446246" lon="7.846379342415689"><ele>290.0</ele><time>2026-04-11T15:37:53.999Z</time></trkpt><trkpt lat="44.70319593650639" lon="7.8462697316220815"><ele>290.0</ele><time>2026-04-11T15:37:55.999Z</time></trkpt><trkpt lat="44.70329622691081" lon="7.846165841568105"><ele>290.0</ele><time>2026-04-11T15:37:57.999Z</time></trkpt><trkpt lat="44.70339870646667" lon="7.846071211678924"><ele>290.0</ele><time>2026-04-11T15:37:59.999Z</time></trkpt><trkpt lat="44.70350139641432" lon="7.845977723084592"><ele>290.0</ele><time>2026-04-11T15:38:01.999Z</time></trkpt><trkpt lat="44.70355525406591" lon="7.845927689073797"><ele>290.0</ele><time>2026-04-11T15:38:02.999Z</time></trkpt><trkpt lat="44.70366110079774" lon="7.84583469410603"><ele>289.8</ele><time>2026-04-11T15:38:04.999Z</time></trkpt><trkpt lat="44.70376070915139" lon="7.845741377131109"><ele>289.6</ele><time>2026-04-11T15:38:06.999Z</time></trkpt><trkpt lat="44.70385681182165" lon="7.845654790548189"><ele>289.4</ele><time>2026-04-11T15:38:08.999Z</time></trkpt><trkpt lat="44.70394062457198" lon="7.845578108321511"><ele>289.2</ele><time>2026-04-11T15:38:10.999Z</time></trkpt><trkpt lat="44.70401634503537" lon="7.845486895196167"><ele>289.0</ele><time>2026-04-11T15:38:12.999Z</time></trkpt><trkpt lat="44.70408686078301" lon="7.845385886480404"><ele>289.0</ele><time>2026-04-11T15:38:15Z</time></trkpt><trkpt lat="44.70416366560763" lon="7.8453195311377915"><ele>289.0</ele><time>2026-04-11T15:38:17Z</time></trkpt><trkpt lat="44.704171367842385" lon="7.845191696640429"><ele>289.0</ele><time>2026-04-11T15:38:24Z</time></trkpt><trkpt lat="44.704097856100354" lon="7.845201869223593"><ele>289.0</ele><time>2026-04-11T15:38:25.999Z</time></trkpt><trkpt lat="44.70408873079637" lon="7.845369084162674"><ele>289.0</ele><time>2026-04-11T15:38:28Z</time></trkpt><trkpt lat="44.70407947182749" lon="7.8452262838139"><ele>289.0</ele><time>2026-04-11T15:38:29Z</time></trkpt><trkpt lat="44.703940387775695" lon="7.845313347122835"><ele>289.0</ele><time>2026-04-11T15:38:30Z</time></trkpt><trkpt lat="44.703852198977096" lon="7.8453979676734535"><ele>289.0</ele><time>2026-04-11T15:38:32Z</time></trkpt><trkpt lat="44.7037648251712" lon="7.845507526001726"><ele>289.0</ele><time>2026-04-11T15:38:34Z</time></trkpt><trkpt lat="44.703677598504946" lon="7.845597651671523"><ele>289.0</ele><time>2026-04-11T15:38:36Z</time></trkpt><trkpt lat="44.70358053026108" lon="7.845647455438193"><ele>289.0</ele><time>2026-04-11T15:38:38Z</time></trkpt><trkpt lat="44.703514236173504" lon="7.84551480504802"><ele>289.0</ele><time>2026-04-11T15:38:40Z</time></trkpt><trkpt lat="44.70344704946022" lon="7.84536928126192"><ele>289.0</ele><time>2026-04-11T15:38:42Z</time></trkpt><trkpt lat="44.70337029891067" lon="7.845226291795959"><ele>288.8333333333333</ele><time>2026-04-11T15:38:43.999Z</time></trkpt><trkpt lat="44.703328644682436" lon="7.8451483476417385"><ele>288.66666666666663</ele><time>2026-04-11T15:38:44.999Z</time></trkpt><trkpt lat="44.70330328985421" lon="7.845058652242638"><ele>288.5</ele><time>2026-04-11T15:38:45.999Z</time></trkpt><trkpt lat="44.7032965796452" lon="7.844955786564628"><ele>288.3333333333333</ele><time>2026-04-11T15:38:46.999Z</time></trkpt><trkpt lat="44.70336671624438" lon="7.84486860121903"><ele>288.1666666666667</ele><time>2026-04-11T15:38:47.999Z</time></trkpt><trkpt lat="44.70344369488998" lon="7.844831992923936"><ele>288.0</ele><time>2026-04-11T15:38:48.999Z</time></trkpt><trkpt lat="44.7035095272742" lon="7.8447957697450414"><ele>287.6</ele><time>2026-04-11T15:38:49.999Z</time></trkpt><trkpt lat="44.70354144270394" lon="7.844718392461471"><ele>287.20000000000005</ele><time>2026-04-11T15:38:50.999Z</time></trkpt><trkpt lat="44.70353774285958" lon="7.844618694643561"><ele>286.8</ele><time>2026-04-11T15:38:51.999Z</time></trkpt><trkpt lat="44.70346419219926" lon="7.844454334609892"><ele>286.40000000000003</ele><time>2026-04-11T15:38:53.999Z</time></trkpt><trkpt lat="44.70341223000675" lon="7.844310250251365"><ele>286.0</ele><time>2026-04-11T15:38:55.999Z</time></trkpt><trkpt lat="44.70340530618993" lon="7.844217624115649"><ele>285.8333333333333</ele><time>2026-04-11T15:38:56.999Z</time></trkpt><trkpt lat="44.70342462256144" lon="7.84412132861565"><ele>285.66666666666663</ele><time>2026-04-11T15:38:57.999Z</time></trkpt><trkpt lat="44.70346904339026" lon="7.84404921781448"><ele>285.5</ele><time>2026-04-11T15:38:58.999Z</time></trkpt><trkpt lat="44.70354246521694" lon="7.844009058308884"><ele>285.3333333333333</ele><time>2026-04-11T15:38:59.999Z</time></trkpt><trkpt lat="44.70363752634166" lon="7.843936702401297"><ele>285.1666666666667</ele><time>2026-04-11T15:39:01.999Z</time></trkpt><trkpt lat="44.70365885133294" lon="7.843832221911926"><ele>285.0</ele><time>2026-04-11T15:39:02.999Z</time></trkpt><trkpt lat="44.70368803151776" lon="7.843751456622229"><ele>285.0</ele><time>2026-04-11T15:39:03.999Z</time></trkpt><trkpt lat="44.70368967107121" lon="7.843616010362137"><ele>285.0</ele><time>2026-04-11T15:39:05.999Z</time></trkpt><trkpt lat="44.703655621123566" lon="7.84353776499548"><ele>285.0</ele><time>2026-04-11T15:39:06.999Z</time></trkpt><trkpt lat="44.70360101775189" lon="7.8433850582674065"><ele>285.0</ele><time>2026-04-11T15:39:08.999Z</time></trkpt><trkpt lat="44.70353192029184" lon="7.843242524858747"><ele>285.0</ele><time>2026-04-11T15:39:10.999Z</time></trkpt><trkpt lat="44.70346029152247" lon="7.843107523443073"><ele>284.6</ele><time>2026-04-11T15:39:12.999Z</time></trkpt><trkpt lat="44.70343635732513" lon="7.84296394844183"><ele>284.2</ele><time>2026-04-11T15:39:14.999Z</time></trkpt><trkpt lat="44.70348435502617" lon="7.842821388863526"><ele>283.8</ele><time>2026-04-11T15:39:16.999Z</time></trkpt><trkpt lat="44.70342700526892" lon="7.84266773388419"><ele>283.4</ele><time>2026-04-11T15:39:18.999Z</time></trkpt><trkpt lat="44.703393846270416" lon="7.842590115627322"><ele>283.0</ele><time>2026-04-11T15:39:19.999Z</time></trkpt><trkpt lat="44.703340241122056" lon="7.842433395347005"><ele>282.8</ele><time>2026-04-11T15:39:21.999Z</time></trkpt><trkpt lat="44.70328004378967" lon="7.842279171708392"><ele>282.6</ele><time>2026-04-11T15:39:23.999Z</time></trkpt><trkpt lat="44.70320558630786" lon="7.8421454124152685"><ele>282.4</ele><time>2026-04-11T15:39:25.999Z</time></trkpt><trkpt lat="44.70314309148469" lon="7.842002256291362"><ele>282.2</ele><time>2026-04-11T15:39:27.999Z</time></trkpt><trkpt lat="44.70310363740291" lon="7.841914430033597"><ele>282.0</ele><time>2026-04-11T15:39:29.999Z</time></trkpt><trkpt lat="44.70319003956747" lon="7.841799307133328"><ele>281.5</ele><time>2026-04-11T15:39:32.999Z</time></trkpt><trkpt lat="44.70328179484742" lon="7.841752819462351"><ele>281.0</ele><time>2026-04-11T15:39:34.999Z</time></trkpt><trkpt lat="44.703389335275034" lon="7.841669414675986"><ele>280.5</ele><time>2026-04-11T15:39:36.999Z</time></trkpt><trkpt lat="44.70349492533167" lon="7.841582662693319"><ele>280.0</ele><time>2026-04-11T15:39:38.999Z</time></trkpt><trkpt lat="44.7035992833325" lon="7.8414982942780025"><ele>280.0</ele><time>2026-04-11T15:39:40.999Z</time></trkpt><trkpt lat="44.70369926828038" lon="7.841411914224543"><ele>280.0</ele><time>2026-04-11T15:39:42.999Z</time></trkpt><trkpt lat="44.703799185588615" lon="7.841317307841989"><ele>280.0</ele><time>2026-04-11T15:39:44.999Z</time></trkpt><trkpt lat="44.703906582581595" lon="7.841226287117316"><ele>280.0</ele><time>2026-04-11T15:39:46.999Z</time></trkpt><trkpt lat="44.70396384560775" lon="7.841178824257269"><ele>280.0</ele><time>2026-04-11T15:39:47.999Z</time></trkpt><trkpt lat="44.70401864821522" lon="7.84112775036801"><ele>280.0</ele><time>2026-04-11T15:39:48.999Z</time></trkpt><trkpt lat="44.7040746677679" lon="7.8410768553329815"><ele>280.0</ele><time>2026-04-11T15:39:49.999Z</time></trkpt><trkpt lat="44.70412933131405" lon="7.841029336018024"><ele>280.0</ele><time>2026-04-11T15:39:50.999Z</time></trkpt><trkpt lat="44.70418429753801" lon="7.840983429862862"><ele>280.0</ele><time>2026-04-11T15:39:51.999Z</time></trkpt><trkpt lat="44.704239335592426" lon="7.840939373115609"><ele>280.0</ele><time>2026-04-11T15:39:52.999Z</time></trkpt><trkpt lat="44.70429536514183" lon="7.840894287014034"><ele>280.0</ele><time>2026-04-11T15:39:53.999Z</time></trkpt><trkpt lat="44.70440183307686" lon="7.840799309018421"><ele>280.0</ele><time>2026-04-11T15:39:55.999Z</time></trkpt><trkpt lat="44.7045037607361" lon="7.840700401193237"><ele>280.0</ele><time>2026-04-11T15:39:57.999Z</time></trkpt><trkpt lat="44.70461042209948" lon="7.840606118021737"><ele>280.0</ele><time>2026-04-11T15:39:59.999Z</time></trkpt><trkpt lat="44.70471564614462" lon="7.840513477212318"><ele>280.0</ele><time>2026-04-11T15:40:01.999Z</time></trkpt><trkpt lat="44.704819507744986" lon="7.840431819312645"><ele>280.0</ele><time>2026-04-11T15:40:03.999Z</time></trkpt><trkpt lat="44.70491108689418" lon="7.840329614651522"><ele>279.6</ele><time>2026-04-11T15:40:05.999Z</time></trkpt><trkpt lat="44.70489965065089" lon="7.840102552491315"><ele>279.2</ele><time>2026-04-11T15:40:07.999Z</time></trkpt><trkpt lat="44.704866680856234" lon="7.840018527617464"><ele>278.8</ele><time>2026-04-11T15:40:08.999Z</time></trkpt><trkpt lat="44.704811538876854" lon="7.8398779961174165"><ele>278.4</ele><time>2026-04-11T15:40:10.999Z</time></trkpt><trkpt lat="44.7048065620103" lon="7.839750881725283"><ele>278.0</ele><time>2026-04-11T15:40:12.999Z</time></trkpt><trkpt lat="44.70489024431539" lon="7.839629174776408"><ele>278.0</ele><time>2026-04-11T15:40:14.999Z</time></trkpt><trkpt lat="44.70494841832782" lon="7.839481918286214"><ele>278.0</ele><time>2026-04-11T15:40:16.999Z</time></trkpt><trkpt lat="44.70497999781487" lon="7.839317112599027"><ele>278.0</ele><time>2026-04-11T15:40:18.999Z</time></trkpt><trkpt lat="44.704992614794" lon="7.839144816266419"><ele>278.0</ele><time>2026-04-11T15:40:21Z</time></trkpt><trkpt lat="44.70497732294009" lon="7.838973223294804"><ele>277.5</ele><time>2026-04-11T15:40:23Z</time></trkpt><trkpt lat="44.70495101472598" lon="7.838811864098994"><ele>277.0</ele><time>2026-04-11T15:40:25Z</time></trkpt><trkpt lat="44.704903159048094" lon="7.838661822562644"><ele>276.5</ele><time>2026-04-11T15:40:27Z</time></trkpt><trkpt lat="44.704856727085975" lon="7.838518723634403"><ele>276.0</ele><time>2026-04-11T15:40:29Z</time></trkpt><trkpt lat="44.70491079631621" lon="7.838373590942135"><ele>275.8333333333333</ele><time>2026-04-11T15:40:31Z</time></trkpt><trkpt lat="44.70496570114592" lon="7.838322323770208"><ele>275.6666666666667</ele><time>2026-04-11T15:40:32Z</time></trkpt><trkpt lat="44.70505645263511" lon="7.838210077182693"><ele>275.5</ele><time>2026-04-11T15:40:34Z</time></trkpt><trkpt lat="44.705104716879276" lon="7.838148930849792"><ele>275.33333333333337</ele><time>2026-04-11T15:40:35Z</time></trkpt><trkpt lat="44.705147914028366" lon="7.838079868940819"><ele>275.1666666666667</ele><time>2026-04-11T15:40:36Z</time></trkpt><trkpt lat="44.705197351589234" lon="7.838017895237799"><ele>275.0</ele><time>2026-04-11T15:40:37Z</time></trkpt><trkpt lat="44.70524800572546" lon="7.8379546858630365"><ele>275.42857142857144</ele><time>2026-04-11T15:40:38Z</time></trkpt><trkpt lat="44.70529746016889" lon="7.837888569743633"><ele>275.85714285714283</ele><time>2026-04-11T15:40:38.999Z</time></trkpt><trkpt lat="44.70534846311579" lon="7.83782038818477"><ele>276.2857142857143</ele><time>2026-04-11T15:40:39.999Z</time></trkpt><trkpt lat="44.70540079493008" lon="7.837754197862609"><ele>276.7142857142857</ele><time>2026-04-11T15:40:40.999Z</time></trkpt><trkpt lat="44.70545373139854" lon="7.8376910976098335"><ele>277.14285714285717</ele><time>2026-04-11T15:40:41.999Z</time></trkpt><trkpt lat="44.70550002786337" lon="7.837616816984768"><ele>277.57142857142856</ele><time>2026-04-11T15:40:42.999Z</time></trkpt><trkpt lat="44.70554730591271" lon="7.8375465056581355"><ele>278.0</ele><time>2026-04-11T15:40:43.999Z</time></trkpt><trkpt lat="44.705597369471285" lon="7.837489073530343"><ele>278.0</ele><time>2026-04-11T15:40:44.999Z</time></trkpt><trkpt lat="44.705634042996834" lon="7.8374139152067315"><ele>278.0</ele><time>2026-04-11T15:40:45.999Z</time></trkpt><trkpt lat="44.705716145116035" lon="7.837314777861687"><ele>278.0</ele><time>2026-04-11T15:40:47.999Z</time></trkpt><trkpt lat="44.70580335013171" lon="7.83721266966229"><ele>278.0</ele><time>2026-04-11T15:40:49.999Z</time></trkpt><trkpt lat="44.70588604263288" lon="7.837088999368101"><ele>278.0</ele><time>2026-04-11T15:40:51.999Z</time></trkpt><trkpt lat="44.70597481304875" lon="7.836971764287707"><ele>278.0</ele><time>2026-04-11T15:40:53.999Z</time></trkpt><trkpt lat="44.706065889306544" lon="7.836861064643616"><ele>278.0</ele><time>2026-04-11T15:40:55.999Z</time></trkpt><trkpt lat="44.7061543201779" lon="7.83675180436647"><ele>278.0</ele><time>2026-04-11T15:40:57.999Z</time></trkpt><trkpt lat="44.70625908455874" lon="7.836659323292661"><ele>278.0</ele><time>2026-04-11T15:40:59.999Z</time></trkpt><trkpt lat="44.70635294573377" lon="7.836584646788176"><ele>278.5</ele><time>2026-04-11T15:41:01.999Z</time></trkpt><trkpt lat="44.706453710683064" lon="7.836484437488465"><ele>279.0</ele><time>2026-04-11T15:41:03.999Z</time></trkpt><trkpt lat="44.706556596755526" lon="7.836395092204664"><ele>279.5</ele><time>2026-04-11T15:41:05.999Z</time></trkpt><trkpt lat="44.706654328372025" lon="7.836308535902162"><ele>280.0</ele><time>2026-04-11T15:41:07.999Z</time></trkpt><trkpt lat="44.706750504771904" lon="7.8362237070297365"><ele>280.0</ele><time>2026-04-11T15:41:09.999Z</time></trkpt><trkpt lat="44.706842580668074" lon="7.83614263588128"><ele>280.0</ele><time>2026-04-11T15:41:11.999Z</time></trkpt><trkpt lat="44.70692776061316" lon="7.836066872553917"><ele>280.0</ele><time>2026-04-11T15:41:13.999Z</time></trkpt><trkpt lat="44.70700333851838" lon="7.8360151828107005"><ele>280.0</ele><time>2026-04-11T15:41:15.999Z</time></trkpt><trkpt lat="44.70705147195191" lon="7.835941146115034"><ele>280.0</ele><time>2026-04-11T15:41:20Z</time></trkpt><trkpt lat="44.707000309152946" lon="7.835833485495552"><ele>280.0</ele><time>2026-04-11T15:41:22Z</time></trkpt><trkpt lat="44.70696448552894" lon="7.835700251538166"><ele>280.0</ele><time>2026-04-11T15:41:24Z</time></trkpt><trkpt lat="44.70692890751921" lon="7.835556778427027"><ele>280.0</ele><time>2026-04-11T15:41:26Z</time></trkpt><trkpt lat="44.70689234368386" lon="7.835409329599186"><ele>280.0</ele><time>2026-04-11T15:41:28Z</time></trkpt><trkpt lat="44.706859048156836" lon="7.835259407838655"><ele>280.0</ele><time>2026-04-11T15:41:30Z</time></trkpt><trkpt lat="44.70682779797409" lon="7.835103889091305"><ele>280.0</ele><time>2026-04-11T15:41:32Z</time></trkpt><trkpt lat="44.70681599556879" lon="7.834939614433812"><ele>280.0</ele><time>2026-04-11T15:41:34Z</time></trkpt><trkpt lat="44.706788936709096" lon="7.834786093972013"><ele>280.0</ele><time>2026-04-11T15:41:36Z</time></trkpt><trkpt lat="44.7067735756394" lon="7.83462278219276"><ele>280.0</ele><time>2026-04-11T15:41:38Z</time></trkpt><trkpt lat="44.70677044843404" lon="7.834456512967879"><ele>279.8</ele><time>2026-04-11T15:41:40Z</time></trkpt><trkpt lat="44.70678061683028" lon="7.834294566290127"><ele>279.6</ele><time>2026-04-11T15:41:42Z</time></trkpt><trkpt lat="44.706769660428755" lon="7.8342044943413125"><ele>279.4</ele><time>2026-04-11T15:41:43Z</time></trkpt><trkpt lat="44.706797944475824" lon="7.83412424474634"><ele>279.2</ele><time>2026-04-11T15:41:44Z</time></trkpt><trkpt lat="44.70680425770673" lon="7.833954110576595"><ele>279.0</ele><time>2026-04-11T15:41:46Z</time></trkpt><trkpt lat="44.70683650957764" lon="7.833789627759612"><ele>279.0</ele><time>2026-04-11T15:41:48Z</time></trkpt><trkpt lat="44.70687179564743" lon="7.833619724192305"><ele>279.0</ele><time>2026-04-11T15:41:50Z</time></trkpt><trkpt lat="44.70690936105981" lon="7.833451514541803"><ele>279.0</ele><time>2026-04-11T15:41:52Z</time></trkpt><trkpt lat="44.706929090495166" lon="7.83336659871296"><ele>279.0</ele><time>2026-04-11T15:41:53Z</time></trkpt><trkpt lat="44.70694882685499" lon="7.833281653171827"><ele>279.0</ele><time>2026-04-11T15:41:54Z</time></trkpt><trkpt lat="44.70696858673638" lon="7.8331970994011"><ele>279.0</ele><time>2026-04-11T15:41:55Z</time></trkpt><trkpt lat="44.70698882615014" lon="7.833110603074082"><ele>278.59999999999997</ele><time>2026-04-11T15:41:56Z</time></trkpt><trkpt lat="44.70702874461218" lon="7.832940005090161"><ele>278.2</ele><time>2026-04-11T15:41:58Z</time></trkpt><trkpt lat="44.70704877326216" lon="7.8328544095065515"><ele>277.79999999999995</ele><time>2026-04-11T15:41:59Z</time></trkpt><trkpt lat="44.707087544632195" lon="7.832687419989049"><ele>277.4</ele><time>2026-04-11T15:42:01Z</time></trkpt><trkpt lat="44.707125796480184" lon="7.832518021719021"><ele>277.0</ele><time>2026-04-11T15:42:03Z</time></trkpt><trkpt lat="44.70716446992776" lon="7.832346756377162"><ele>276.8333333333333</ele><time>2026-04-11T15:42:05Z</time></trkpt><trkpt lat="44.70718429559998" lon="7.832258958424618"><ele>276.66666666666663</ele><time>2026-04-11T15:42:06Z</time></trkpt><trkpt lat="44.70722293397253" lon="7.83208784840162"><ele>276.5</ele><time>2026-04-11T15:42:08Z</time></trkpt><trkpt lat="44.70724386798502" lon="7.831995142061165"><ele>276.3333333333333</ele><time>2026-04-11T15:42:09Z</time></trkpt><trkpt lat="44.707263093617534" lon="7.831910001427183"><ele>276.1666666666667</ele><time>2026-04-11T15:42:10Z</time></trkpt><trkpt lat="44.70728279478582" lon="7.831821433380863"><ele>276.0</ele><time>2026-04-11T15:42:11Z</time></trkpt><trkpt lat="44.70730175493203" lon="7.831732296935098"><ele>276.5</ele><time>2026-04-11T15:42:12Z</time></trkpt><trkpt lat="44.70733304014246" lon="7.831588928096501"><ele>277.0</ele><time>2026-04-11T15:42:14Z</time></trkpt><trkpt lat="44.7073734038932" lon="7.831458074924586"><ele>277.5</ele><time>2026-04-11T15:42:16Z</time></trkpt><trkpt lat="44.70742162505888" lon="7.831356532728188"><ele>278.0</ele><time>2026-04-11T15:42:18Z</time></trkpt><trkpt lat="44.707765306878116" lon="7.831539795744255"><ele>278.4</ele><time>2026-04-11T15:42:19Z</time></trkpt><trkpt lat="44.70782148690532" lon="7.831593711301983"><ele>278.8</ele><time>2026-04-11T15:42:20Z</time></trkpt><trkpt lat="44.70787451730093" lon="7.831660387626138"><ele>279.2</ele><time>2026-04-11T15:42:21Z</time></trkpt><trkpt lat="44.707930506201826" lon="7.831717401927296"><ele>279.6</ele><time>2026-04-11T15:42:22Z</time></trkpt><trkpt lat="44.70802654708219" lon="7.831828004978113"><ele>280.0</ele><time>2026-04-11T15:42:24Z</time></trkpt><trkpt lat="44.7081255829954" lon="7.831927405375426"><ele>280.0</ele><time>2026-04-11T15:42:26Z</time></trkpt><trkpt lat="44.70824609982751" lon="7.831941217806413"><ele>280.0</ele><time>2026-04-11T15:42:28Z</time></trkpt><trkpt lat="44.70841312077034" lon="7.83208100817676"><ele>280.0</ele><time>2026-04-11T15:42:33Z</time></trkpt><trkpt lat="44.70851698387264" lon="7.832165963391806"><ele>280.0</ele><time>2026-04-11T15:42:35Z</time></trkpt><trkpt lat="44.70862347995987" lon="7.832234495120455"><ele>280.3333333333333</ele><time>2026-04-11T15:42:37Z</time></trkpt><trkpt lat="44.708716896885974" lon="7.832306165915137"><ele>280.66666666666663</ele><time>2026-04-11T15:42:39Z</time></trkpt><trkpt lat="44.70879501037974" lon="7.832394140757987"><ele>281.0</ele><time>2026-04-11T15:42:41Z</time></trkpt><trkpt lat="44.70885592371653" lon="7.832447889422437"><ele>281.3333333333333</ele><time>2026-04-11T15:42:43Z</time></trkpt><trkpt lat="44.7089295309094" lon="7.832486664968945"><ele>281.6666666666667</ele><time>2026-04-11T15:42:45Z</time></trkpt><trkpt lat="44.708996792895434" lon="7.8325494365251895"><ele>282.0</ele><time>2026-04-11T15:42:47Z</time></trkpt><trkpt lat="44.709083979757665" lon="7.832602297042655"><ele>282.4</ele><time>2026-04-11T15:42:49Z</time></trkpt><trkpt lat="44.709199395198134" lon="7.832671752424349"><ele>282.79999999999995</ele><time>2026-04-11T15:42:50Z</time></trkpt><trkpt lat="44.70929663253645" lon="7.832702702836038"><ele>283.2</ele><time>2026-04-11T15:42:52Z</time></trkpt><trkpt lat="44.70939573524601" lon="7.832733933241524"><ele>283.59999999999997</ele><time>2026-04-11T15:42:54Z</time></trkpt><trkpt lat="44.709497555882294" lon="7.832769088603732"><ele>284.0</ele><time>2026-04-11T15:42:56Z</time></trkpt><trkpt lat="44.70960865538534" lon="7.8328297488117995"><ele>283.2</ele><time>2026-04-11T15:42:58Z</time></trkpt><trkpt lat="44.709701954883315" lon="7.832908580870689"><ele>282.4</ele><time>2026-04-11T15:43:00Z</time></trkpt><trkpt lat="44.70979671488349" lon="7.8329545781419"><ele>281.6</ele><time>2026-04-11T15:43:02Z</time></trkpt><trkpt lat="44.709885224865545" lon="7.833028295164088"><ele>280.8</ele><time>2026-04-11T15:43:04Z</time></trkpt><trkpt lat="44.70998302525434" lon="7.833052385755614"><ele>280.0</ele><time>2026-04-11T15:43:06Z</time></trkpt><trkpt lat="44.71005865639302" lon="7.833040439932414"><ele>280.0</ele><time>2026-04-11T15:43:09Z</time></trkpt><trkpt lat="44.71013644590392" lon="7.8330431190356204"><ele>280.0</ele><time>2026-04-11T15:43:11Z</time></trkpt><trkpt lat="44.7102021269674" lon="7.833058204710673"><ele>280.0</ele><time>2026-04-11T15:43:14Z</time></trkpt><trkpt lat="44.71027796685244" lon="7.833042955606759"><ele>280.0</ele><time>2026-04-11T15:43:16Z</time></trkpt><trkpt lat="44.710358963249355" lon="7.833002281008798"><ele>280.0</ele><time>2026-04-11T15:43:19Z</time></trkpt><trkpt lat="44.71041529670623" lon="7.8329593123968175"><ele>280.0</ele><time>2026-04-11T15:43:21Z</time></trkpt><trkpt lat="44.71048385454738" lon="7.832894596273376"><ele>279.8</ele><time>2026-04-11T15:43:23Z</time></trkpt><trkpt lat="44.710537778506854" lon="7.832838071102281"><ele>279.6</ele><time>2026-04-11T15:43:25Z</time></trkpt><trkpt lat="44.710739241331815" lon="7.832726112939785"><ele>279.4</ele><time>2026-04-11T15:43:27Z</time></trkpt><trkpt lat="44.71079440598234" lon="7.832664146299739"><ele>279.2</ele><time>2026-04-11T15:43:28Z</time></trkpt><trkpt lat="44.71085634666842" lon="7.832600402815274"><ele>279.0</ele><time>2026-04-11T15:43:29Z</time></trkpt><trkpt lat="44.710916961883534" lon="7.832538081521458"><ele>278.99999999999994</ele><time>2026-04-11T15:43:30Z</time></trkpt><trkpt lat="44.71097545839637" lon="7.8324749503921005"><ele>279.0</ele><time>2026-04-11T15:43:31Z</time></trkpt><trkpt lat="44.71102968045568" lon="7.83240894697077"><ele>279.0</ele><time>2026-04-11T15:43:32Z</time></trkpt><trkpt lat="44.711087406282566" lon="7.832345973694289"><ele>279.0</ele><time>2026-04-11T15:43:33Z</time></trkpt><trkpt lat="44.711141993807956" lon="7.832275050862552"><ele>279.0</ele><time>2026-04-11T15:43:34Z</time></trkpt><trkpt lat="44.71119776253897" lon="7.832205964152524"><ele>278.99999999999994</ele><time>2026-04-11T15:43:35Z</time></trkpt><trkpt lat="44.711254787579925" lon="7.832141399240265"><ele>279.0</ele><time>2026-04-11T15:43:36Z</time></trkpt><trkpt lat="44.71131257617095" lon="7.832079024385782"><ele>278.99999999999994</ele><time>2026-04-11T15:43:37Z</time></trkpt><trkpt lat="44.71137811500323" lon="7.832034657564289"><ele>279.0</ele><time>2026-04-11T15:43:38Z</time></trkpt><trkpt lat="44.71143674250861" lon="7.831977278884711"><ele>279.0</ele><time>2026-04-11T15:43:39Z</time></trkpt><trkpt lat="44.71149113538914" lon="7.831914433716854"><ele>279.0</ele><time>2026-04-11T15:43:40Z</time></trkpt><trkpt lat="44.71154890797147" lon="7.831855275779578"><ele>279.0</ele><time>2026-04-11T15:43:41Z</time></trkpt><trkpt lat="44.71160812004323" lon="7.831797770730672"><ele>278.99999999999994</ele><time>2026-04-11T15:43:42Z</time></trkpt><trkpt lat="44.71166564931668" lon="7.831738657056712"><ele>279.0</ele><time>2026-04-11T15:43:43Z</time></trkpt><trkpt lat="44.71172325113261" lon="7.831679979552621"><ele>278.3333333333333</ele><time>2026-04-11T15:43:44Z</time></trkpt><trkpt lat="44.71178006194107" lon="7.831623511501478"><ele>277.6666666666667</ele><time>2026-04-11T15:43:45Z</time></trkpt><trkpt lat="44.711894028181" lon="7.831531413893941"><ele>277.0</ele><time>2026-04-11T15:43:47Z</time></trkpt><trkpt lat="44.71195190972167" lon="7.831480281992721"><ele>276.33333333333337</ele><time>2026-04-11T15:43:48Z</time></trkpt><trkpt lat="44.712009611557605" lon="7.831431227108045"><ele>275.6666666666667</ele><time>2026-04-11T15:43:49Z</time></trkpt><trkpt lat="44.712067495712596" lon="7.831383496310127"><ele>275.0</ele><time>2026-04-11T15:43:50Z</time></trkpt><trkpt lat="44.71211606210619" lon="7.831316387771007"><ele>275.0</ele><time>2026-04-11T15:43:51Z</time></trkpt><trkpt lat="44.712172910647055" lon="7.831270416849481"><ele>275.0</ele><time>2026-04-11T15:43:52Z</time></trkpt><trkpt lat="44.71223561139307" lon="7.831243101821788"><ele>275.0</ele><time>2026-04-11T15:43:53Z</time></trkpt><trkpt lat="44.71228848740595" lon="7.83119429052423"><ele>275.0</ele><time>2026-04-11T15:43:54Z</time></trkpt><trkpt lat="44.712341216199285" lon="7.831142691290806"><ele>275.0</ele><time>2026-04-11T15:43:55Z</time></trkpt><trkpt lat="44.71239157963784" lon="7.831070994693815"><ele>275.0</ele><time>2026-04-11T15:43:56Z</time></trkpt><trkpt lat="44.71244476773954" lon="7.83101182994913"><ele>275.0</ele><time>2026-04-11T15:43:57Z</time></trkpt><trkpt lat="44.712505508469285" lon="7.830952710072987"><ele>275.0</ele><time>2026-04-11T15:43:58Z</time></trkpt><trkpt lat="44.71256299450648" lon="7.830891806344161"><ele>275.0</ele><time>2026-04-11T15:43:59Z</time></trkpt><trkpt lat="44.71262104147041" lon="7.8308324378862775"><ele>275.0</ele><time>2026-04-11T15:44:00Z</time></trkpt><trkpt lat="44.71267885823568" lon="7.830769817952965"><ele>275.0</ele><time>2026-04-11T15:44:01Z</time></trkpt><trkpt lat="44.712736629034524" lon="7.830707588188372"><ele>275.0</ele><time>2026-04-11T15:44:02Z</time></trkpt><trkpt lat="44.71279482937814" lon="7.830648328126687"><ele>275.0</ele><time>2026-04-11T15:44:03Z</time></trkpt><trkpt lat="44.712852969796884" lon="7.830591903004161"><ele>275.0</ele><time>2026-04-11T15:44:04Z</time></trkpt><trkpt lat="44.712907846468944" lon="7.830532827070682"><ele>274.8571428571429</ele><time>2026-04-11T15:44:05Z</time></trkpt><trkpt lat="44.71296358339317" lon="7.830470786688166"><ele>274.7142857142857</ele><time>2026-04-11T15:44:06Z</time></trkpt><trkpt lat="44.71301662120289" lon="7.830409899345274"><ele>274.57142857142856</ele><time>2026-04-11T15:44:07Z</time></trkpt><trkpt lat="44.71308155719545" lon="7.830369758899494"><ele>274.42857142857144</ele><time>2026-04-11T15:44:08Z</time></trkpt><trkpt lat="44.71312534084007" lon="7.830293094463617"><ele>274.2857142857143</ele><time>2026-04-11T15:44:09Z</time></trkpt><trkpt lat="44.713188247823474" lon="7.830249916316635"><ele>274.14285714285717</ele><time>2026-04-11T15:44:10Z</time></trkpt><trkpt lat="44.71323011393384" lon="7.83017414359581"><ele>274.0</ele><time>2026-04-11T15:44:11Z</time></trkpt><trkpt lat="44.71328276176879" lon="7.830117659048438"><ele>273.8333333333333</ele><time>2026-04-11T15:44:12Z</time></trkpt><trkpt lat="44.713333541285294" lon="7.830059351381308"><ele>273.66666666666663</ele><time>2026-04-11T15:44:13Z</time></trkpt><trkpt lat="44.71343543224825" lon="7.8299488237907395"><ele>273.5</ele><time>2026-04-11T15:44:15Z</time></trkpt><trkpt lat="44.713489302400085" lon="7.829891429770728"><ele>273.3333333333333</ele><time>2026-04-11T15:44:16Z</time></trkpt><trkpt lat="44.71354427138937" lon="7.829834387601451"><ele>273.1666666666667</ele><time>2026-04-11T15:44:17Z</time></trkpt><trkpt lat="44.713597111963004" lon="7.82977959965401"><ele>273.0</ele><time>2026-04-11T15:44:18Z</time></trkpt><trkpt lat="44.71365298030652" lon="7.829727259521559"><ele>273.57142857142856</ele><time>2026-04-11T15:44:19Z</time></trkpt><trkpt lat="44.71370727022996" lon="7.8296746446711385"><ele>274.1428571428571</ele><time>2026-04-11T15:44:20Z</time></trkpt><trkpt lat="44.71376232484659" lon="7.829622384851128"><ele>274.7142857142857</ele><time>2026-04-11T15:44:21Z</time></trkpt><trkpt lat="44.71381719109001" lon="7.829574325426331"><ele>275.2857142857143</ele><time>2026-04-11T15:44:22Z</time></trkpt><trkpt lat="44.713872077171395" lon="7.829528317815373"><ele>275.85714285714283</ele><time>2026-04-11T15:44:23Z</time></trkpt><trkpt lat="44.713929825157265" lon="7.829481003318498"><ele>276.42857142857144</ele><time>2026-04-11T15:44:24Z</time></trkpt><trkpt lat="44.71399483902369" lon="7.829456819159807"><ele>277.0</ele><time>2026-04-11T15:44:25Z</time></trkpt><trkpt lat="44.71405248753544" lon="7.8294127446570805"><ele>277.0</ele><time>2026-04-11T15:44:26Z</time></trkpt><trkpt lat="44.71410182479634" lon="7.829350651206027"><ele>277.0</ele><time>2026-04-11T15:44:27Z</time></trkpt><trkpt lat="44.71420590911711" lon="7.829275175262944"><ele>277.0</ele><time>2026-04-11T15:44:29Z</time></trkpt><trkpt lat="44.71431048226596" lon="7.8292558581764995"><ele>277.0</ele><time>2026-04-11T15:44:31Z</time></trkpt><trkpt lat="44.7144009053401" lon="7.829242220164322"><ele>277.0</ele><time>2026-04-11T15:44:33Z</time></trkpt><trkpt lat="44.7144811330556" lon="7.829225387414902"><ele>276.4</ele><time>2026-04-11T15:44:35Z</time></trkpt><trkpt lat="44.71451422009757" lon="7.829097022832261"><ele>275.79999999999995</ele><time>2026-04-11T15:44:36Z</time></trkpt><trkpt lat="44.714601962929" lon="7.828993300939544"><ele>275.2</ele><time>2026-04-11T15:44:38Z</time></trkpt><trkpt lat="44.714704726142855" lon="7.828885877232908"><ele>274.59999999999997</ele><time>2026-04-11T15:44:40Z</time></trkpt><trkpt lat="44.71475459965826" lon="7.828827004612393"><ele>274.0</ele><time>2026-04-11T15:44:41Z</time></trkpt><trkpt lat="44.714804880212064" lon="7.828763740505166"><ele>274.00000000000006</ele><time>2026-04-11T15:44:42Z</time></trkpt><trkpt lat="44.71485352323771" lon="7.828696585611855"><ele>274.0</ele><time>2026-04-11T15:44:43Z</time></trkpt><trkpt lat="44.714898898725366" lon="7.828628404066469"><ele>274.0</ele><time>2026-04-11T15:44:44Z</time></trkpt><trkpt lat="44.71494716893765" lon="7.828563171149624"><ele>274.0</ele><time>2026-04-11T15:44:45Z</time></trkpt><trkpt lat="44.71500003387248" lon="7.828503110992599"><ele>274.0</ele><time>2026-04-11T15:44:46Z</time></trkpt><trkpt lat="44.71505255103637" lon="7.828439958537656"><ele>274.00000000000006</ele><time>2026-04-11T15:44:47Z</time></trkpt><trkpt lat="44.71510456322017" lon="7.828373044799263"><ele>274.0</ele><time>2026-04-11T15:44:48Z</time></trkpt><trkpt lat="44.715157132419804" lon="7.828307602198891"><ele>273.8571428571429</ele><time>2026-04-11T15:44:49Z</time></trkpt><trkpt lat="44.71520906566422" lon="7.8282441131046365"><ele>273.7142857142857</ele><time>2026-04-11T15:44:50Z</time></trkpt><trkpt lat="44.71526317241446" lon="7.828181988828263"><ele>273.57142857142856</ele><time>2026-04-11T15:44:51Z</time></trkpt><trkpt lat="44.71531740388964" lon="7.828121521126563"><ele>273.42857142857144</ele><time>2026-04-11T15:44:52Z</time></trkpt><trkpt lat="44.71537060886145" lon="7.828062828912551"><ele>273.2857142857143</ele><time>2026-04-11T15:44:53Z</time></trkpt><trkpt lat="44.715422978302854" lon="7.8280048324932565"><ele>273.14285714285717</ele><time>2026-04-11T15:44:54Z</time></trkpt><trkpt lat="44.71548528597892" lon="7.827965292416091"><ele>273.0</ele><time>2026-04-11T15:44:55Z</time></trkpt><trkpt lat="44.71553860740046" lon="7.82791010590297"><ele>273.0</ele><time>2026-04-11T15:44:56Z</time></trkpt><trkpt lat="44.715593082465766" lon="7.827863821700536"><ele>273.0</ele><time>2026-04-11T15:44:57Z</time></trkpt><trkpt lat="44.71564597954632" lon="7.827815630786086"><ele>273.0</ele><time>2026-04-11T15:44:58Z</time></trkpt><trkpt lat="44.715754302924594" lon="7.827731701732403"><ele>273.0</ele><time>2026-04-11T15:45:00Z</time></trkpt><trkpt lat="44.715808194225374" lon="7.827679413012808"><ele>273.0</ele><time>2026-04-11T15:45:01Z</time></trkpt><trkpt lat="44.715913496336825" lon="7.827583109720624"><ele>273.0</ele><time>2026-04-11T15:45:03Z</time></trkpt><trkpt lat="44.7159662482332" lon="7.8275332621728735"><ele>273.2</ele><time>2026-04-11T15:45:04Z</time></trkpt><trkpt lat="44.71606720897809" lon="7.827435890268521"><ele>273.4</ele><time>2026-04-11T15:45:06Z</time></trkpt><trkpt lat="44.71616424422712" lon="7.827340658466789"><ele>273.59999999999997</ele><time>2026-04-11T15:45:08Z</time></trkpt><trkpt lat="44.71626415805382" lon="7.827242598500058"><ele>273.8</ele><time>2026-04-11T15:45:10Z</time></trkpt><trkpt lat="44.716315609799345" lon="7.827190845198489"><ele>274.0</ele><time>2026-04-11T15:45:11Z</time></trkpt><trkpt lat="44.71635675553025" lon="7.827121858987893"><ele>274.14285714285717</ele><time>2026-04-11T15:45:12Z</time></trkpt><trkpt lat="44.716408196090015" lon="7.827069423755601"><ele>274.2857142857143</ele><time>2026-04-11T15:45:13Z</time></trkpt><trkpt lat="44.716469184573235" lon="7.827036212264928"><ele>274.42857142857144</ele><time>2026-04-11T15:45:14Z</time></trkpt><trkpt lat="44.71657266907431" lon="7.826931695112156"><ele>274.57142857142856</ele><time>2026-04-11T15:45:16Z</time></trkpt><trkpt lat="44.71661243045733" lon="7.826862799962038"><ele>274.7142857142857</ele><time>2026-04-11T15:45:17Z</time></trkpt><trkpt lat="44.716672281998264" lon="7.8268310881181975"><ele>274.8571428571429</ele><time>2026-04-11T15:45:18Z</time></trkpt><trkpt lat="44.71671257437821" lon="7.826760766104175"><ele>275.0</ele><time>2026-04-11T15:45:19Z</time></trkpt><trkpt lat="44.71681669422936" lon="7.8266678816801525"><ele>275.0</ele><time>2026-04-11T15:45:21Z</time></trkpt><trkpt lat="44.716859114936064" lon="7.826591417925058"><ele>275.0</ele><time>2026-04-11T15:45:22Z</time></trkpt><trkpt lat="44.716912572158684" lon="7.826529951817347"><ele>275.0</ele><time>2026-04-11T15:45:23Z</time></trkpt><trkpt lat="44.716969186714834" lon="7.826469274825675"><ele>275.0</ele><time>2026-04-11T15:45:24Z</time></trkpt><trkpt lat="44.717026397782064" lon="7.826408633774427"><ele>275.0</ele><time>2026-04-11T15:45:25Z</time></trkpt><trkpt lat="44.717082422246705" lon="7.826344462898433"><ele>275.0</ele><time>2026-04-11T15:45:26Z</time></trkpt><trkpt lat="44.717138345416" lon="7.826280525155148"><ele>275.0</ele><time>2026-04-11T15:45:27Z</time></trkpt><trkpt lat="44.71719282159203" lon="7.826216403145457"><ele>275.1666666666667</ele><time>2026-04-11T15:45:28Z</time></trkpt><trkpt lat="44.71725072344894" lon="7.826158283285764"><ele>275.33333333333337</ele><time>2026-04-11T15:45:29Z</time></trkpt><trkpt lat="44.71730933030364" lon="7.826102643399958"><ele>275.5</ele><time>2026-04-11T15:45:30Z</time></trkpt><trkpt lat="44.71736547756297" lon="7.82605147589988"><ele>275.6666666666667</ele><time>2026-04-11T15:45:31Z</time></trkpt><trkpt lat="44.71741948392108" lon="7.825997975541899"><ele>275.8333333333333</ele><time>2026-04-11T15:45:32Z</time></trkpt><trkpt lat="44.71751810848669" lon="7.825897946438741"><ele>276.0</ele><time>2026-04-11T15:45:34Z</time></trkpt><trkpt lat="44.717611142860186" lon="7.8258272365937485"><ele>276.0</ele><time>2026-04-11T15:45:36Z</time></trkpt><trkpt lat="44.71769190728792" lon="7.8257661208828635"><ele>276.0</ele><time>2026-04-11T15:45:38Z</time></trkpt><trkpt lat="44.71777760022991" lon="7.82574530730684"><ele>276.0</ele><time>2026-04-11T15:45:40Z</time></trkpt><trkpt lat="44.717871885883355" lon="7.825780246873578"><ele>276.0</ele><time>2026-04-11T15:45:42Z</time></trkpt><trkpt lat="44.717926337180764" lon="7.8256513790422755"><ele>276.0</ele><time>2026-04-11T15:45:43Z</time></trkpt><trkpt lat="44.71797527294623" lon="7.825588606495026"><ele>276.0</ele><time>2026-04-11T15:45:44Z</time></trkpt><trkpt lat="44.718026089405924" lon="7.825521853290481"><ele>275.8571428571429</ele><time>2026-04-11T15:45:45Z</time></trkpt><trkpt lat="44.71807929525396" lon="7.825462023726242"><ele>275.7142857142857</ele><time>2026-04-11T15:45:46Z</time></trkpt><trkpt lat="44.71813057548109" lon="7.8254032562472355"><ele>275.57142857142856</ele><time>2026-04-11T15:45:47Z</time></trkpt><trkpt lat="44.71818252345473" lon="7.8253414606581195"><ele>275.42857142857144</ele><time>2026-04-11T15:45:48Z</time></trkpt><trkpt lat="44.718237256793756" lon="7.825278127359621"><ele>275.2857142857143</ele><time>2026-04-11T15:45:49Z</time></trkpt><trkpt lat="44.71829286926542" lon="7.825216707972831"><ele>275.14285714285717</ele><time>2026-04-11T15:45:50Z</time></trkpt><trkpt lat="44.71834576682121" lon="7.8251522842082055"><ele>275.0</ele><time>2026-04-11T15:45:51Z</time></trkpt><trkpt lat="44.718402988498454" lon="7.82509196003483"><ele>275.0</ele><time>2026-04-11T15:45:52Z</time></trkpt><trkpt lat="44.71846256097628" lon="7.825036659543052"><ele>275.0</ele><time>2026-04-11T15:45:53Z</time></trkpt><trkpt lat="44.71852013590683" lon="7.824973521305314"><ele>275.0</ele><time>2026-04-11T15:45:54Z</time></trkpt><trkpt lat="44.718575360710666" lon="7.824911377451477"><ele>275.0</ele><time>2026-04-11T15:45:55Z</time></trkpt><trkpt lat="44.71863228146703" lon="7.824847709062744"><ele>275.0</ele><time>2026-04-11T15:45:56Z</time></trkpt><trkpt lat="44.71869063200214" lon="7.824788145550023"><ele>275.0</ele><time>2026-04-11T15:45:57Z</time></trkpt><trkpt lat="44.71874865603373" lon="7.824728571412553"><ele>275.0</ele><time>2026-04-11T15:45:58Z</time></trkpt><trkpt lat="44.718806632448526" lon="7.824668811110673"><ele>275.0</ele><time>2026-04-11T15:45:59Z</time></trkpt><trkpt lat="44.71886200174258" lon="7.824606600648613"><ele>275.0</ele><time>2026-04-11T15:46:00Z</time></trkpt><trkpt lat="44.71891679252392" lon="7.824546119836464"><ele>275.0</ele><time>2026-04-11T15:46:01Z</time></trkpt><trkpt lat="44.7189686589165" lon="7.824485089158623"><ele>275.0</ele><time>2026-04-11T15:46:02Z</time></trkpt><trkpt lat="44.71901896571193" lon="7.824427043041736"><ele>275.0</ele><time>2026-04-11T15:46:03Z</time></trkpt><trkpt lat="44.71907209092079" lon="7.824370657809998"><ele>275.0</ele><time>2026-04-11T15:46:04Z</time></trkpt><trkpt lat="44.71912604405507" lon="7.824312153362018"><ele>275.0</ele><time>2026-04-11T15:46:05Z</time></trkpt><trkpt lat="44.719178101650435" lon="7.824254561626084"><ele>275.0</ele><time>2026-04-11T15:46:06Z</time></trkpt><trkpt lat="44.71922703454356" lon="7.824196939939796"><ele>275.0</ele><time>2026-04-11T15:46:07Z</time></trkpt><trkpt lat="44.7192794353608" lon="7.824144800318819"><ele>275.0</ele><time>2026-04-11T15:46:08Z</time></trkpt><trkpt lat="44.71938182955724" lon="7.82403584032863"><ele>275.0</ele><time>2026-04-11T15:46:10Z</time></trkpt><trkpt lat="44.71943249933375" lon="7.823981149329906"><ele>275.0</ele><time>2026-04-11T15:46:11Z</time></trkpt><trkpt lat="44.719483267512636" lon="7.823924113663078"><ele>275.0</ele><time>2026-04-11T15:46:12Z</time></trkpt><trkpt lat="44.71953751084119" lon="7.823866367914552"><ele>275.14285714285717</ele><time>2026-04-11T15:46:13Z</time></trkpt><trkpt lat="44.719590747520456" lon="7.823809692842526"><ele>275.2857142857143</ele><time>2026-04-11T15:46:14Z</time></trkpt><trkpt lat="44.71964736083952" lon="7.823750613528259"><ele>275.42857142857144</ele><time>2026-04-11T15:46:15Z</time></trkpt><trkpt lat="44.71970488755278" lon="7.823690297895924"><ele>275.57142857142856</ele><time>2026-04-11T15:46:16Z</time></trkpt><trkpt lat="44.719756897122735" lon="7.823629895300875"><ele>275.7142857142857</ele><time>2026-04-11T15:46:17Z</time></trkpt><trkpt lat="44.71981159403802" lon="7.823566891989688"><ele>275.8571428571429</ele><time>2026-04-11T15:46:18Z</time></trkpt><trkpt lat="44.719868766393795" lon="7.823517925035181"><ele>276.0</ele><time>2026-04-11T15:46:19Z</time></trkpt><trkpt lat="44.71992413682739" lon="7.8234582146966165"><ele>276.0</ele><time>2026-04-11T15:46:20Z</time></trkpt><trkpt lat="44.719974783036086" lon="7.823393214468293"><ele>276.0</ele><time>2026-04-11T15:46:21Z</time></trkpt><trkpt lat="44.720035218594205" lon="7.823338989044031"><ele>276.0</ele><time>2026-04-11T15:46:22Z</time></trkpt><trkpt lat="44.72014870843487" lon="7.823258850181714"><ele>276.0</ele><time>2026-04-11T15:46:24Z</time></trkpt><trkpt lat="44.720194064134084" lon="7.823190460459805"><ele>276.0</ele><time>2026-04-11T15:46:25Z</time></trkpt><trkpt lat="44.72025042516291" lon="7.823131100678526"><ele>276.0</ele><time>2026-04-11T15:46:26Z</time></trkpt><trkpt lat="44.7203075949091" lon="7.823071560225346"><ele>276.14285714285717</ele><time>2026-04-11T15:46:27Z</time></trkpt><trkpt lat="44.72036540889073" lon="7.823011056784942"><ele>276.28571428571433</ele><time>2026-04-11T15:46:28Z</time></trkpt><trkpt lat="44.72042255027946" lon="7.822949310941538"><ele>276.42857142857144</ele><time>2026-04-11T15:46:29Z</time></trkpt><trkpt lat="44.72048165735175" lon="7.822887300670758"><ele>276.57142857142856</ele><time>2026-04-11T15:46:30Z</time></trkpt><trkpt lat="44.7205392782898" lon="7.8228355140512695"><ele>276.71428571428567</ele><time>2026-04-11T15:46:31Z</time></trkpt><trkpt lat="44.72059650904189" lon="7.822783674172284"><ele>276.85714285714283</ele><time>2026-04-11T15:46:32Z</time></trkpt><trkpt lat="44.72065289840741" lon="7.822734291660587"><ele>277.0</ele><time>2026-04-11T15:46:33Z</time></trkpt><trkpt lat="44.72075493385785" lon="7.822625175524169"><ele>276.6</ele><time>2026-04-11T15:46:35Z</time></trkpt><trkpt lat="44.72082216067124" lon="7.822589559695562"><ele>276.2</ele><time>2026-04-11T15:46:36Z</time></trkpt><trkpt lat="44.72087639525055" lon="7.8225393795858"><ele>275.8</ele><time>2026-04-11T15:46:37Z</time></trkpt><trkpt lat="44.7209785111081" lon="7.822444894391257"><ele>275.4</ele><time>2026-04-11T15:46:39Z</time></trkpt><trkpt lat="44.721074135213115" lon="7.822343279388793"><ele>275.0</ele><time>2026-04-11T15:46:41Z</time></trkpt><trkpt lat="44.72117951675042" lon="7.822250879252123"><ele>275.0</ele><time>2026-04-11T15:46:43Z</time></trkpt><trkpt lat="44.7212392128915" lon="7.822201205066684"><ele>275.0</ele><time>2026-04-11T15:46:44Z</time></trkpt><trkpt lat="44.72130788729216" lon="7.822144058157521"><ele>275.0</ele><time>2026-04-11T15:46:45Z</time></trkpt><trkpt lat="44.72136608331975" lon="7.822101536496644"><ele>275.0</ele><time>2026-04-11T15:46:46Z</time></trkpt><trkpt lat="44.72142438149861" lon="7.822054890389046"><ele>275.0</ele><time>2026-04-11T15:46:47Z</time></trkpt><trkpt lat="44.72148269661402" lon="7.82200735461217"><ele>275.0</ele><time>2026-04-11T15:46:48Z</time></trkpt><trkpt lat="44.72154340574048" lon="7.821956612635073"><ele>275.0</ele><time>2026-04-11T15:46:49Z</time></trkpt><trkpt lat="44.72160284340039" lon="7.821905220411797"><ele>275.0</ele><time>2026-04-11T15:46:50Z</time></trkpt><trkpt lat="44.72165456254429" lon="7.821837640009676"><ele>275.0</ele><time>2026-04-11T15:46:51Z</time></trkpt><trkpt lat="44.72171435245811" lon="7.821783580280179"><ele>275.0</ele><time>2026-04-11T15:46:52Z</time></trkpt><trkpt lat="44.7217739595374" lon="7.821745723042444"><ele>275.0</ele><time>2026-04-11T15:46:53Z</time></trkpt><trkpt lat="44.721831066679705" lon="7.821693426882576"><ele>275.0</ele><time>2026-04-11T15:46:54Z</time></trkpt><trkpt lat="44.721886550149996" lon="7.821637335929997"><ele>275.0</ele><time>2026-04-11T15:46:55Z</time></trkpt><trkpt lat="44.72194813652982" lon="7.821583151604308"><ele>275.0</ele><time>2026-04-11T15:46:56Z</time></trkpt><trkpt lat="44.722004054717985" lon="7.821528953031023"><ele>274.8571428571429</ele><time>2026-04-11T15:46:57Z</time></trkpt><trkpt lat="44.7220644129068" lon="7.8214822574266885"><ele>274.7142857142857</ele><time>2026-04-11T15:46:58Z</time></trkpt><trkpt lat="44.72212617892796" lon="7.821425491878124"><ele>274.57142857142856</ele><time>2026-04-11T15:46:59Z</time></trkpt><trkpt lat="44.72218275723115" lon="7.821367012184551"><ele>274.42857142857144</ele><time>2026-04-11T15:47:00Z</time></trkpt><trkpt lat="44.72223088606567" lon="7.821298469239309"><ele>274.2857142857143</ele><time>2026-04-11T15:47:01Z</time></trkpt><trkpt lat="44.72228448623447" lon="7.821239031599741"><ele>274.14285714285717</ele><time>2026-04-11T15:47:02Z</time></trkpt><trkpt lat="44.722339289148955" lon="7.821173631386328"><ele>274.0</ele><time>2026-04-11T15:47:03Z</time></trkpt><trkpt lat="44.72239097000495" lon="7.821107520714645"><ele>274.00000000000006</ele><time>2026-04-11T15:47:04Z</time></trkpt><trkpt lat="44.72244272056214" lon="7.821043366887741"><ele>274.0</ele><time>2026-04-11T15:47:05Z</time></trkpt><trkpt lat="44.72249628466241" lon="7.820984087481129"><ele>274.0</ele><time>2026-04-11T15:47:06Z</time></trkpt><trkpt lat="44.722552936078145" lon="7.820926508359434"><ele>274.0</ele><time>2026-04-11T15:47:07Z</time></trkpt><trkpt lat="44.72260884783642" lon="7.820862715344635"><ele>274.0</ele><time>2026-04-11T15:47:08Z</time></trkpt><trkpt lat="44.722662819429026" lon="7.820796171280632"><ele>274.00000000000006</ele><time>2026-04-11T15:47:09Z</time></trkpt><trkpt lat="44.722717787612034" lon="7.820738891086496"><ele>274.0</ele><time>2026-04-11T15:47:10Z</time></trkpt><trkpt lat="44.72277554854967" lon="7.820673583623781"><ele>274.00000000000006</ele><time>2026-04-11T15:47:11Z</time></trkpt><trkpt lat="44.72283427790936" lon="7.8206113120760685"><ele>274.0</ele><time>2026-04-11T15:47:12Z</time></trkpt><trkpt lat="44.722893486592724" lon="7.820543792098709"><ele>274.0</ele><time>2026-04-11T15:47:13Z</time></trkpt><trkpt lat="44.72295297832231" lon="7.820475615873977"><ele>274.0</ele><time>2026-04-11T15:47:14Z</time></trkpt><trkpt lat="44.72300932944553" lon="7.820407878808556"><ele>274.0</ele><time>2026-04-11T15:47:15Z</time></trkpt><trkpt lat="44.723063638332796" lon="7.820341145525973"><ele>274.00000000000006</ele><time>2026-04-11T15:47:16Z</time></trkpt><trkpt lat="44.72311748621243" lon="7.820276909279221"><ele>274.0</ele><time>2026-04-11T15:47:17Z</time></trkpt><trkpt lat="44.72317510965908" lon="7.8202132634290145"><ele>274.00000000000006</ele><time>2026-04-11T15:47:18Z</time></trkpt><trkpt lat="44.72323457206578" lon="7.820150745285415"><ele>274.0</ele><time>2026-04-11T15:47:19Z</time></trkpt><trkpt lat="44.723292132161546" lon="7.820086629837657"><ele>274.0</ele><time>2026-04-11T15:47:20Z</time></trkpt><trkpt lat="44.72335083806831" lon="7.820020873017713"><ele>274.0</ele><time>2026-04-11T15:47:21Z</time></trkpt><trkpt lat="44.72340896772245" lon="7.819958489283685"><ele>274.0</ele><time>2026-04-11T15:47:22Z</time></trkpt><trkpt lat="44.72347232716049" lon="7.81989831995423"><ele>274.00000000000006</ele><time>2026-04-11T15:47:23Z</time></trkpt><trkpt lat="44.72353093905027" lon="7.819836978085429"><ele>274.0</ele><time>2026-04-11T15:47:24Z</time></trkpt><trkpt lat="44.72359115852016" lon="7.8197772376712225"><ele>273.8571428571429</ele><time>2026-04-11T15:47:25Z</time></trkpt><trkpt lat="44.72365071378718" lon="7.819713271540749"><ele>273.7142857142857</ele><time>2026-04-11T15:47:26Z</time></trkpt><trkpt lat="44.72371136690525" lon="7.81965408044631"><ele>273.57142857142856</ele><time>2026-04-11T15:47:27Z</time></trkpt><trkpt lat="44.72376592619251" lon="7.819595193382704"><ele>273.42857142857144</ele><time>2026-04-11T15:47:28Z</time></trkpt><trkpt lat="44.7238263422848" lon="7.8195367079393945"><ele>273.2857142857143</ele><time>2026-04-11T15:47:29Z</time></trkpt><trkpt lat="44.72388643455044" lon="7.81947614055651"><ele>273.14285714285717</ele><time>2026-04-11T15:47:30Z</time></trkpt><trkpt lat="44.723947236568634" lon="7.819416824566924"><ele>273.0</ele><time>2026-04-11T15:47:31Z</time></trkpt><trkpt lat="44.72400656882258" lon="7.8193581098788485"><ele>273.0</ele><time>2026-04-11T15:47:32Z</time></trkpt><trkpt lat="44.72406568271841" lon="7.819299940885744"><ele>273.0</ele><time>2026-04-11T15:47:33Z</time></trkpt><trkpt lat="44.72412352414577" lon="7.819240199144668"><ele>273.0</ele><time>2026-04-11T15:47:34Z</time></trkpt><trkpt lat="44.72417970236555" lon="7.819175805251602"><ele>273.0</ele><time>2026-04-11T15:47:35Z</time></trkpt><trkpt lat="44.72423540204555" lon="7.819115386662434"><ele>273.0</ele><time>2026-04-11T15:47:36Z</time></trkpt><trkpt lat="44.72429362918062" lon="7.819054143868719"><ele>273.0</ele><time>2026-04-11T15:47:37Z</time></trkpt><trkpt lat="44.72435569936172" lon="7.819001776504525"><ele>273.0</ele><time>2026-04-11T15:47:38Z</time></trkpt><trkpt lat="44.7244160611576" lon="7.818949778169121"><ele>273.0</ele><time>2026-04-11T15:47:39Z</time></trkpt><trkpt lat="44.724477802650306" lon="7.818900302320143"><ele>273.0</ele><time>2026-04-11T15:47:40Z</time></trkpt><trkpt lat="44.72453196685271" lon="7.818838933617499"><ele>273.0</ele><time>2026-04-11T15:47:41Z</time></trkpt><trkpt lat="44.72458871414226" lon="7.818778548899981"><ele>273.0</ele><time>2026-04-11T15:47:42Z</time></trkpt><trkpt lat="44.72464775943564" lon="7.8187207657807525"><ele>273.0</ele><time>2026-04-11T15:47:43Z</time></trkpt><trkpt lat="44.72470565127757" lon="7.818665097419466"><ele>273.0</ele><time>2026-04-11T15:47:44Z</time></trkpt><trkpt lat="44.724766809192325" lon="7.818612132988527"><ele>273.0</ele><time>2026-04-11T15:47:45Z</time></trkpt><trkpt lat="44.72482486085921" lon="7.818557400689099"><ele>273.0</ele><time>2026-04-11T15:47:46Z</time></trkpt><trkpt lat="44.72488281375355" lon="7.818502004680992"><ele>273.0</ele><time>2026-04-11T15:47:47Z</time></trkpt><trkpt lat="44.72494148581291" lon="7.818448105884835"><ele>273.0</ele><time>2026-04-11T15:47:48Z</time></trkpt><trkpt lat="44.72500251050638" lon="7.8183924749443765"><ele>273.0</ele><time>2026-04-11T15:47:49Z</time></trkpt><trkpt lat="44.72506088469436" lon="7.818333781546756"><ele>273.0</ele><time>2026-04-11T15:47:50Z</time></trkpt><trkpt lat="44.72511573353298" lon="7.8182718283559876"><ele>273.0</ele><time>2026-04-11T15:47:51Z</time></trkpt><trkpt lat="44.72517139371591" lon="7.818217686114176"><ele>273.0</ele><time>2026-04-11T15:47:52Z</time></trkpt><trkpt lat="44.72522861741309" lon="7.8181669298403715"><ele>273.4</ele><time>2026-04-11T15:47:53Z</time></trkpt><trkpt lat="44.72528493827968" lon="7.818119414738932"><ele>273.8</ele><time>2026-04-11T15:47:54Z</time></trkpt><trkpt lat="44.725336637550285" lon="7.8180584866535"><ele>274.2</ele><time>2026-04-11T15:47:55Z</time></trkpt><trkpt lat="44.72543353715215" lon="7.817956442667276"><ele>274.6</ele><time>2026-04-11T15:47:57Z</time></trkpt><trkpt lat="44.72553109568845" lon="7.817862886096986"><ele>275.0</ele><time>2026-04-11T15:47:59Z</time></trkpt><trkpt lat="44.725610241619336" lon="7.817758513830468"><ele>275.0</ele><time>2026-04-11T15:48:01Z</time></trkpt><trkpt lat="44.725695693971886" lon="7.817672113979216"><ele>275.0</ele><time>2026-04-11T15:48:03Z</time></trkpt><trkpt lat="44.725782340823166" lon="7.817649810175875"><ele>275.0</ele><time>2026-04-11T15:48:05Z</time></trkpt><trkpt lat="44.72581212230716" lon="7.817786017187879"><ele>275.0</ele><time>2026-04-11T15:48:06Z</time></trkpt><trkpt lat="44.72588763017231" lon="7.817916801017123"><ele>275.0</ele><time>2026-04-11T15:48:08Z</time></trkpt><trkpt lat="44.725962487308074" lon="7.818046974263636"><ele>275.0</ele><time>2026-04-11T15:48:10Z</time></trkpt><trkpt lat="44.72603630826533" lon="7.818176632429654"><ele>275.0</ele><time>2026-04-11T15:48:12Z</time></trkpt><trkpt lat="44.726109224305546" lon="7.818304701200047"><ele>275.0</ele><time>2026-04-11T15:48:14Z</time></trkpt><trkpt lat="44.726179374644225" lon="7.818428511210973"><ele>275.0</ele><time>2026-04-11T15:48:16Z</time></trkpt><trkpt lat="44.72624690628945" lon="7.818549248458319"><ele>275.4</ele><time>2026-04-11T15:48:18Z</time></trkpt><trkpt lat="44.72631484488111" lon="7.818670713276136"><ele>275.8</ele><time>2026-04-11T15:48:20Z</time></trkpt><trkpt lat="44.72638426891548" lon="7.818794426839719"><ele>276.2</ele><time>2026-04-11T15:48:22Z</time></trkpt><trkpt lat="44.726452283422" lon="7.81890761836018"><ele>276.6</ele><time>2026-04-11T15:48:24Z</time></trkpt><trkpt lat="44.72651701086381" lon="7.8190042926331405"><ele>277.0</ele><time>2026-04-11T15:48:26Z</time></trkpt><trkpt lat="44.726583141389824" lon="7.819069584243022"><ele>277.0</ele><time>2026-04-11T15:48:28Z</time></trkpt><trkpt lat="44.72662074047595" lon="7.81915432471101"><ele>277.0</ele><time>2026-04-11T15:48:32Z</time></trkpt><trkpt lat="44.726674524443055" lon="7.819250850287873"><ele>277.0</ele><time>2026-04-11T15:48:38Z</time></trkpt><trkpt lat="44.726734198998855" lon="7.81929820784479"><ele>277.0</ele><time>2026-04-11T15:48:40Z</time></trkpt><trkpt lat="44.726778397538794" lon="7.819378490146635"><ele>277.0</ele><time>2026-04-11T15:48:42Z</time></trkpt><trkpt lat="44.72682665635372" lon="7.819473767348769"><ele>277.0</ele><time>2026-04-11T15:48:45Z</time></trkpt><trkpt lat="44.726865436836015" lon="7.819549775670514"><ele>277.0</ele><time>2026-04-11T15:48:47Z</time></trkpt><trkpt lat="44.726995585425996" lon="7.819773842032719"><ele>277.8333333333333</ele><time>2026-04-11T15:48:50Z</time></trkpt><trkpt lat="44.72705065302543" lon="7.819874112262814"><ele>278.66666666666663</ele><time>2026-04-11T15:48:52Z</time></trkpt><trkpt lat="44.72710153665107" lon="7.8199676009032775"><ele>279.5</ele><time>2026-04-11T15:48:54Z</time></trkpt><trkpt lat="44.72714729796967" lon="7.820051633853563"><ele>280.3333333333333</ele><time>2026-04-11T15:48:56Z</time></trkpt><trkpt lat="44.727186542455456" lon="7.820136740590859"><ele>281.1666666666667</ele><time>2026-04-11T15:48:58Z</time></trkpt><trkpt lat="44.72721737883888" lon="7.820218453776915"><ele>282.0</ele><time>2026-04-11T15:49:00Z</time></trkpt><trkpt lat="44.72721443926598" lon="7.82030713039725"><ele>282.3333333333333</ele><time>2026-04-11T15:49:02Z</time></trkpt><trkpt lat="44.727157899778454" lon="7.820381218298629"><ele>282.6666666666667</ele><time>2026-04-11T15:49:04Z</time></trkpt><trkpt lat="44.72707666711463" lon="7.820428029570976"><ele>283.0</ele><time>2026-04-11T15:49:06Z</time></trkpt><trkpt lat="44.72698843135599" lon="7.820488999646367"><ele>283.33333333333337</ele><time>2026-04-11T15:49:08Z</time></trkpt><trkpt lat="44.7269091700758" lon="7.820538341697166"><ele>283.6666666666667</ele><time>2026-04-11T15:49:10Z</time></trkpt><trkpt lat="44.7268314853799" lon="7.820621196850972"><ele>284.0</ele><time>2026-04-11T15:49:12Z</time></trkpt><trkpt lat="44.72675820365138" lon="7.8206880250670645"><ele>284.0</ele><time>2026-04-11T15:49:14Z</time></trkpt><trkpt lat="44.72670507605873" lon="7.820777330366633"><ele>284.0</ele><time>2026-04-11T15:49:16Z</time></trkpt><trkpt lat="44.72672424225673" lon="7.820867330473086"><ele>284.0</ele><time>2026-04-11T15:49:18Z</time></trkpt><trkpt lat="44.72680615645078" lon="7.820880751804039"><ele>284.0</ele><time>2026-04-11T15:49:21Z</time></trkpt><trkpt lat="44.726865710069674" lon="7.820823662112164"><ele>284.0</ele><time>2026-04-11T15:49:23Z</time></trkpt><trkpt lat="44.72692458169952" lon="7.820760397344977"><ele>284.0</ele><time>2026-04-11T15:49:25Z</time></trkpt><trkpt lat="44.726992812313846" lon="7.820699886008508"><ele>285.42857142857144</ele><time>2026-04-11T15:49:27Z</time></trkpt><trkpt lat="44.727068873152014" lon="7.820651436025682"><ele>286.85714285714283</ele><time>2026-04-11T15:49:29Z</time></trkpt><trkpt lat="44.727136581846665" lon="7.820596092672322"><ele>288.2857142857143</ele><time>2026-04-11T15:49:31Z</time></trkpt><trkpt lat="44.727201915253765" lon="7.8205574867301"><ele>289.7142857142857</ele><time>2026-04-11T15:49:33Z</time></trkpt><trkpt lat="44.727265500904736" lon="7.820531318891929"><ele>291.1428571428571</ele><time>2026-04-11T15:49:35Z</time></trkpt><trkpt lat="44.72732848869397" lon="7.820505845079894"><ele>292.57142857142856</ele><time>2026-04-11T15:49:37Z</time></trkpt><trkpt lat="44.7273937172853" lon="7.820462616773116"><ele>294.0</ele><time>2026-04-11T15:49:39Z</time></trkpt><trkpt lat="44.727452698233726" lon="7.820410468415102"><ele>294.0</ele><time>2026-04-11T15:49:41Z</time></trkpt><trkpt lat="44.72751405351783" lon="7.820349837962528"><ele>294.0</ele><time>2026-04-11T15:49:43Z</time></trkpt><trkpt lat="44.72756571478507" lon="7.820296432540755"><ele>294.0</ele><time>2026-04-11T15:49:45Z</time></trkpt><trkpt lat="44.727621144402306" lon="7.820228641494353"><ele>294.0</ele><time>2026-04-11T15:49:47Z</time></trkpt><trkpt lat="44.72768838368346" lon="7.820193422716413"><ele>294.0</ele><time>2026-04-11T15:49:49Z</time></trkpt><trkpt lat="44.72774236320678" lon="7.820290149419969"><ele>294.0</ele><time>2026-04-11T15:49:52Z</time></trkpt><trkpt lat="44.72776438886526" lon="7.820377204571166"><ele>294.0</ele><time>2026-04-11T15:49:55Z</time></trkpt><trkpt lat="44.72779605766396" lon="7.820465411096476"><ele>308.0</ele><time>2026-04-11T15:49:59Z</time></trkpt><trkpt lat="44.72781868007471" lon="7.820561753103658"><ele>308.0</ele><time>2026-04-11T15:50:04Z</time></trkpt></trkseg></trk></gpx>